<?xml version="1.0" encoding="UTF-8"?>
<gpx xmlns="http://www.topografix.com/GPX/1/1" version="1.1" creator="Nokia Sports Tracker" xmlns:xsi="http://www.w3.org/2001/XMLSchema-instance" xsi:schemaLocation="http://www.topografix.com/GPX/1/1 http://www.topografix.com/GPX/1/1/gpx.xsd">
<metadata>
<name>21.02.2010 10:01</name>
<desc>Nordic Walking on Bodo1</desc>
<author><name>Jörg U.</name></author>
<time>2010-02-21T10:01:56.43</time>
</metadata>
<trk>
<name>21.02.2010 10:01</name>
<trkseg>
<trkpt lat="48.942865" lon="8.665260">
<ele>319.5</ele>
<speed>0.2</speed>
<course>249.2</course>
<desc>Speed 0.2 km/h Distance 0.00 km</desc>
<time>2010-02-21T10:04:23.79</time>
<name>1</name>
</trkpt>
<trkpt lat="48.942858" lon="8.665233">
<ele>321.0</ele>
<speed>0.1</speed>
<course>135.1</course>
<desc>Speed 0.1 km/h Distance 0.00 km</desc>
<time>2010-02-21T10:04:24.84</time>
<name>2</name>
</trkpt>
<trkpt lat="48.942772" lon="8.665365">
<ele>323.5</ele>
<speed>0.1</speed>
<course>134.4</course>
<desc>Speed 0.1 km/h Distance 0.02 km</desc>
<time>2010-02-21T10:04:28.00</time>
<name>3</name>
</trkpt>
<trkpt lat="48.942757" lon="8.665388">
<ele>324.5</ele>
<speed>0.2</speed>
<course>134.4</course>
<desc>Speed 0.2 km/h Distance 0.02 km</desc>
<time>2010-02-21T10:04:29.85</time>
<name>4</name>
</trkpt>
<trkpt lat="48.942757" lon="8.665388">
<ele>324.0</ele>
<speed>0.1</speed>
<course>134.4</course>
<desc>Speed 0.1 km/h Distance 0.02 km</desc>
<time>2010-02-21T10:04:30.85</time>
<name>5</name>
</trkpt>
<trkpt lat="48.942757" lon="8.665388">
<ele>324.0</ele>
<speed>0.1</speed>
<course>90.0</course>
<desc>Speed 0.1 km/h Distance 0.02 km</desc>
<time>2010-02-21T10:04:31.85</time>
<name>6</name>
</trkpt>
<trkpt lat="48.942757" lon="8.665390">
<ele>324.0</ele>
<speed>0.6</speed>
<course>284.2</course>
<desc>Speed 0.6 km/h Distance 0.02 km</desc>
<time>2010-02-21T10:04:32.85</time>
<name>7</name>
</trkpt>
<trkpt lat="48.942758" lon="8.665380">
<ele>323.5</ele>
<speed>2.4</speed>
<course>270.0</course>
<desc>Speed 2.4 km/h Distance 0.02 km</desc>
<time>2010-02-21T10:04:33.90</time>
<name>8</name>
</trkpt>
<trkpt lat="48.942758" lon="8.665358">
<ele>324.5</ele>
<speed>3.3</speed>
<course>246.5</course>
<desc>Speed 3.3 km/h Distance 0.02 km</desc>
<time>2010-02-21T10:04:34.87</time>
<name>9</name>
</trkpt>
<trkpt lat="48.942752" lon="8.665335">
<ele>325.0</ele>
<speed>3.4</speed>
<course>249.2</course>
<desc>Speed 3.4 km/h Distance 0.02 km</desc>
<time>2010-02-21T10:04:35.87</time>
<name>10</name>
</trkpt>
<trkpt lat="48.942745" lon="8.665308">
<ele>326.5</ele>
<speed>2.7</speed>
<course>225.6</course>
<desc>Speed 2.7 km/h Distance 0.02 km</desc>
<time>2010-02-21T10:04:36.87</time>
<name>11</name>
</trkpt>
<trkpt lat="48.942730" lon="8.665285">
<ele>328.0</ele>
<speed>2.9</speed>
<course>224.5</course>
<desc>Speed 2.9 km/h Distance 0.03 km</desc>
<time>2010-02-21T10:04:37.87</time>
<name>12</name>
</trkpt>
<trkpt lat="48.942717" lon="8.665265">
<ele>329.0</ele>
<speed>3.4</speed>
<course>217.5</course>
<desc>Speed 3.4 km/h Distance 0.03 km</desc>
<time>2010-02-21T10:04:38.87</time>
<name>13</name>
</trkpt>
<trkpt lat="48.942707" lon="8.665253">
<ele>329.5</ele>
<speed>3.6</speed>
<course>243.1</course>
<desc>Speed 3.6 km/h Distance 0.03 km</desc>
<time>2010-02-21T10:04:39.92</time>
<name>14</name>
</trkpt>
<trkpt lat="48.942702" lon="8.665238">
<ele>330.0</ele>
<speed>2.8</speed>
<course>196.0</course>
<desc>Speed 2.8 km/h Distance 0.03 km</desc>
<time>2010-02-21T10:04:40.89</time>
<name>15</name>
</trkpt>
<trkpt lat="48.942690" lon="8.665233">
<ele>330.5</ele>
<speed>3.9</speed>
<course>213.2</course>
<desc>Speed 3.9 km/h Distance 0.03 km</desc>
<time>2010-02-21T10:04:41.89</time>
<name>16</name>
</trkpt>
<trkpt lat="48.942682" lon="8.665225">
<ele>330.5</ele>
<speed>3.1</speed>
<course>213.2</course>
<desc>Speed 3.1 km/h Distance 0.03 km</desc>
<time>2010-02-21T10:04:42.89</time>
<name>17</name>
</trkpt>
<trkpt lat="48.942672" lon="8.665215">
<ele>331.0</ele>
<speed>2.6</speed>
<course>207.5</course>
<desc>Speed 2.6 km/h Distance 0.04 km</desc>
<time>2010-02-21T10:04:43.89</time>
<name>18</name>
</trkpt>
<trkpt lat="48.942663" lon="8.665208">
<ele>331.5</ele>
<speed>1.8</speed>
<course>220.7</course>
<desc>Speed 1.8 km/h Distance 0.04 km</desc>
<time>2010-02-21T10:04:44.89</time>
<name>19</name>
</trkpt>
<trkpt lat="48.942642" lon="8.665180">
<ele>332.5</ele>
<speed>3.3</speed>
<course>213.4</course>
<desc>Speed 3.3 km/h Distance 0.04 km</desc>
<time>2010-02-21T10:04:46.39</time>
<name>20</name>
</trkpt>
<trkpt lat="48.942630" lon="8.665168">
<ele>332.5</ele>
<speed>4.8</speed>
<course>222.1</course>
<desc>Speed 4.8 km/h Distance 0.04 km</desc>
<time>2010-02-21T10:04:47.38</time>
<name>21</name>
</trkpt>
<trkpt lat="48.942617" lon="8.665150">
<ele>333.0</ele>
<speed>5.9</speed>
<course>225.9</course>
<desc>Speed 5.9 km/h Distance 0.04 km</desc>
<time>2010-02-21T10:04:48.38</time>
<name>22</name>
</trkpt>
<trkpt lat="48.942605" lon="8.665132">
<ele>333.5</ele>
<speed>5.0</speed>
<course>225.9</course>
<desc>Speed 5.0 km/h Distance 0.05 km</desc>
<time>2010-02-21T10:04:49.49</time>
<name>23</name>
</trkpt>
<trkpt lat="48.942593" lon="8.665113">
<ele>333.5</ele>
<speed>4.1</speed>
<course>213.4</course>
<desc>Speed 4.1 km/h Distance 0.05 km</desc>
<time>2010-02-21T10:04:50.38</time>
<name>24</name>
</trkpt>
<trkpt lat="48.942580" lon="8.665100">
<ele>334.5</ele>
<speed>3.5</speed>
<course>213.3</course>
<desc>Speed 3.5 km/h Distance 0.05 km</desc>
<time>2010-02-21T10:04:51.38</time>
<name>25</name>
</trkpt>
<trkpt lat="48.942565" lon="8.665085">
<ele>335.0</ele>
<speed>4.2</speed>
<course>213.4</course>
<desc>Speed 4.2 km/h Distance 0.05 km</desc>
<time>2010-02-21T10:04:52.38</time>
<name>26</name>
</trkpt>
<trkpt lat="48.942552" lon="8.665072">
<ele>335.0</ele>
<speed>4.8</speed>
<course>216.6</course>
<desc>Speed 4.8 km/h Distance 0.05 km</desc>
<time>2010-02-21T10:04:53.37</time>
<name>27</name>
</trkpt>
<trkpt lat="48.942538" lon="8.665057">
<ele>335.5</ele>
<speed>4.3</speed>
<course>216.6</course>
<desc>Speed 4.3 km/h Distance 0.05 km</desc>
<time>2010-02-21T10:04:54.37</time>
<name>28</name>
</trkpt>
<trkpt lat="48.942525" lon="8.665042">
<ele>336.0</ele>
<speed>4.0</speed>
<course>217.5</course>
<desc>Speed 4.0 km/h Distance 0.06 km</desc>
<time>2010-02-21T10:04:55.44</time>
<name>29</name>
</trkpt>
<trkpt lat="48.942515" lon="8.665030">
<ele>336.5</ele>
<speed>2.1</speed>
<course>222.6</course>
<desc>Speed 2.1 km/h Distance 0.06 km</desc>
<time>2010-02-21T10:04:56.37</time>
<name>30</name>
</trkpt>
<trkpt lat="48.942507" lon="8.665018">
<ele>336.5</ele>
<speed>3.6</speed>
<course>221.2</course>
<desc>Speed 3.6 km/h Distance 0.06 km</desc>
<time>2010-02-21T10:04:57.37</time>
<name>31</name>
</trkpt>
<trkpt lat="48.942497" lon="8.665005">
<ele>337.0</ele>
<speed>4.2</speed>
<course>216.6</course>
<desc>Speed 4.2 km/h Distance 0.06 km</desc>
<time>2010-02-21T10:04:58.36</time>
<name>32</name>
</trkpt>
<trkpt lat="48.942483" lon="8.664990">
<ele>337.5</ele>
<speed>4.8</speed>
<course>224.7</course>
<desc>Speed 4.8 km/h Distance 0.06 km</desc>
<time>2010-02-21T10:04:59.36</time>
<name>33</name>
</trkpt>
<trkpt lat="48.942473" lon="8.664975">
<ele>337.5</ele>
<speed>5.0</speed>
<course>216.9</course>
<desc>Speed 5.0 km/h Distance 0.06 km</desc>
<time>2010-02-21T10:05:00.36</time>
<name>34</name>
</trkpt>
<trkpt lat="48.942462" lon="8.664962">
<ele>337.5</ele>
<speed>4.5</speed>
<course>226.4</course>
<desc>Speed 4.5 km/h Distance 0.07 km</desc>
<time>2010-02-21T10:05:01.41</time>
<name>35</name>
</trkpt>
<trkpt lat="48.942453" lon="8.664948">
<ele>337.5</ele>
<speed>4.4</speed>
<course>221.2</course>
<desc>Speed 4.4 km/h Distance 0.07 km</desc>
<time>2010-02-21T10:05:02.35</time>
<name>36</name>
</trkpt>
<trkpt lat="48.942443" lon="8.664935">
<ele>337.5</ele>
<speed>4.6</speed>
<course>226.6</course>
<desc>Speed 4.6 km/h Distance 0.07 km</desc>
<time>2010-02-21T10:05:03.35</time>
<name>37</name>
</trkpt>
<trkpt lat="48.942435" lon="8.664922">
<ele>337.5</ele>
<speed>4.7</speed>
<course>221.4</course>
<desc>Speed 4.7 km/h Distance 0.07 km</desc>
<time>2010-02-21T10:05:04.35</time>
<name>38</name>
</trkpt>
<trkpt lat="48.942425" lon="8.664908">
<ele>337.5</ele>
<speed>4.8</speed>
<course>213.7</course>
<desc>Speed 4.8 km/h Distance 0.07 km</desc>
<time>2010-02-21T10:05:05.35</time>
<name>39</name>
</trkpt>
<trkpt lat="48.942415" lon="8.664898">
<ele>337.5</ele>
<speed>4.2</speed>
<course>213.2</course>
<desc>Speed 4.2 km/h Distance 0.07 km</desc>
<time>2010-02-21T10:05:06.35</time>
<name>40</name>
</trkpt>
<trkpt lat="48.942405" lon="8.664888">
<ele>338.0</ele>
<speed>3.3</speed>
<course>229.1</course>
<desc>Speed 3.3 km/h Distance 0.07 km</desc>
<time>2010-02-21T10:05:07.48</time>
<name>41</name>
</trkpt>
<trkpt lat="48.942398" lon="8.664877">
<ele>338.0</ele>
<speed>3.7</speed>
<course>229.8</course>
<desc>Speed 3.7 km/h Distance 0.07 km</desc>
<time>2010-02-21T10:05:08.34</time>
<name>42</name>
</trkpt>
<trkpt lat="48.942390" lon="8.664862">
<ele>338.0</ele>
<speed>3.9</speed>
<course>247.4</course>
<desc>Speed 3.9 km/h Distance 0.08 km</desc>
<time>2010-02-21T10:05:09.35</time>
<name>43</name>
</trkpt>
<trkpt lat="48.942385" lon="8.664843">
<ele>338.5</ele>
<speed>4.0</speed>
<course>229.1</course>
<desc>Speed 4.0 km/h Distance 0.08 km</desc>
<time>2010-02-21T10:05:10.34</time>
<name>44</name>
</trkpt>
<trkpt lat="48.942378" lon="8.664832">
<ele>339.0</ele>
<speed>3.3</speed>
<course>229.7</course>
<desc>Speed 3.3 km/h Distance 0.08 km</desc>
<time>2010-02-21T10:05:11.34</time>
<name>45</name>
</trkpt>
<trkpt lat="48.942370" lon="8.664817">
<ele>339.0</ele>
<speed>4.0</speed>
<course>236.1</course>
<desc>Speed 4.0 km/h Distance 0.08 km</desc>
<time>2010-02-21T10:05:12.34</time>
<name>46</name>
</trkpt>
<trkpt lat="48.942363" lon="8.664802">
<ele>339.5</ele>
<speed>3.6</speed>
<course>243.2</course>
<desc>Speed 3.6 km/h Distance 0.08 km</desc>
<time>2010-02-21T10:05:13.43</time>
<name>47</name>
</trkpt>
<trkpt lat="48.942357" lon="8.664782">
<ele>340.0</ele>
<speed>4.5</speed>
<course>235.4</course>
<desc>Speed 4.5 km/h Distance 0.08 km</desc>
<time>2010-02-21T10:05:14.33</time>
<name>48</name>
</trkpt>
<trkpt lat="48.942348" lon="8.664763">
<ele>340.5</ele>
<speed>4.8</speed>
<course>229.1</course>
<desc>Speed 4.8 km/h Distance 0.08 km</desc>
<time>2010-02-21T10:05:15.33</time>
<name>49</name>
</trkpt>
<trkpt lat="48.942342" lon="8.664752">
<ele>340.5</ele>
<speed>3.4</speed>
<course>226.4</course>
<desc>Speed 3.4 km/h Distance 0.09 km</desc>
<time>2010-02-21T10:05:16.33</time>
<name>50</name>
</trkpt>
<trkpt lat="48.942333" lon="8.664738">
<ele>341.0</ele>
<speed>4.4</speed>
<course>238.6</course>
<desc>Speed 4.4 km/h Distance 0.09 km</desc>
<time>2010-02-21T10:05:17.33</time>
<name>51</name>
</trkpt>
<trkpt lat="48.942327" lon="8.664722">
<ele>341.0</ele>
<speed>4.5</speed>
<course>232.6</course>
<desc>Speed 4.5 km/h Distance 0.09 km</desc>
<time>2010-02-21T10:05:18.33</time>
<name>52</name>
</trkpt>
<trkpt lat="48.942320" lon="8.664708">
<ele>341.0</ele>
<speed>4.6</speed>
<course>226.4</course>
<desc>Speed 4.6 km/h Distance 0.09 km</desc>
<time>2010-02-21T10:05:19.46</time>
<name>53</name>
</trkpt>
<trkpt lat="48.942312" lon="8.664695">
<ele>341.0</ele>
<speed>4.5</speed>
<course>229.8</course>
<desc>Speed 4.5 km/h Distance 0.09 km</desc>
<time>2010-02-21T10:05:20.32</time>
<name>54</name>
</trkpt>
<trkpt lat="48.942303" lon="8.664680">
<ele>341.0</ele>
<speed>5.2</speed>
<course>224.5</course>
<desc>Speed 5.2 km/h Distance 0.09 km</desc>
<time>2010-02-21T10:05:21.32</time>
<name>55</name>
</trkpt>
<trkpt lat="48.942293" lon="8.664665">
<ele>341.0</ele>
<speed>5.5</speed>
<course>229.7</course>
<desc>Speed 5.5 km/h Distance 0.09 km</desc>
<time>2010-02-21T10:05:22.32</time>
<name>56</name>
</trkpt>
<trkpt lat="48.942285" lon="8.664650">
<ele>341.0</ele>
<speed>5.1</speed>
<course>232.7</course>
<desc>Speed 5.1 km/h Distance 0.10 km</desc>
<time>2010-02-21T10:05:23.32</time>
<name>57</name>
</trkpt>
<trkpt lat="48.942278" lon="8.664637">
<ele>341.0</ele>
<speed>4.3</speed>
<course>238.6</course>
<desc>Speed 4.3 km/h Distance 0.10 km</desc>
<time>2010-02-21T10:05:24.31</time>
<name>58</name>
</trkpt>
<trkpt lat="48.942272" lon="8.664620">
<ele>341.5</ele>
<speed>4.9</speed>
<course>240.2</course>
<desc>Speed 4.9 km/h Distance 0.10 km</desc>
<time>2010-02-21T10:05:25.43</time>
<name>59</name>
</trkpt>
<trkpt lat="48.942267" lon="8.664607">
<ele>341.5</ele>
<speed>3.7</speed>
<course>226.5</course>
<desc>Speed 3.7 km/h Distance 0.10 km</desc>
<time>2010-02-21T10:05:26.31</time>
<name>60</name>
</trkpt>
<trkpt lat="48.942258" lon="8.664593">
<ele>341.5</ele>
<speed>4.3</speed>
<course>226.4</course>
<desc>Speed 4.3 km/h Distance 0.10 km</desc>
<time>2010-02-21T10:05:27.31</time>
<name>61</name>
</trkpt>
<trkpt lat="48.942250" lon="8.664580">
<ele>342.0</ele>
<speed>4.1</speed>
<course>226.4</course>
<desc>Speed 4.1 km/h Distance 0.10 km</desc>
<time>2010-02-21T10:05:28.30</time>
<name>62</name>
</trkpt>
<trkpt lat="48.942242" lon="8.664567">
<ele>342.0</ele>
<speed>4.5</speed>
<course>224.5</course>
<desc>Speed 4.5 km/h Distance 0.10 km</desc>
<time>2010-02-21T10:05:29.31</time>
<name>63</name>
</trkpt>
<trkpt lat="48.942232" lon="8.664552">
<ele>342.0</ele>
<speed>5.5</speed>
<course>226.4</course>
<desc>Speed 5.5 km/h Distance 0.11 km</desc>
<time>2010-02-21T10:05:30.31</time>
<name>64</name>
</trkpt>
<trkpt lat="48.942223" lon="8.664538">
<ele>342.0</ele>
<speed>5.2</speed>
<course>205.6</course>
<desc>Speed 5.2 km/h Distance 0.11 km</desc>
<time>2010-02-21T10:05:31.41</time>
<name>65</name>
</trkpt>
<trkpt lat="48.942217" lon="8.664533">
<ele>342.0</ele>
<speed>3.0</speed>
<course>229.9</course>
<desc>Speed 3.0 km/h Distance 0.11 km</desc>
<time>2010-02-21T10:05:32.30</time>
<name>66</name>
</trkpt>
<trkpt lat="48.942208" lon="8.664518">
<ele>342.0</ele>
<speed>5.0</speed>
<course>229.1</course>
<desc>Speed 5.0 km/h Distance 0.11 km</desc>
<time>2010-02-21T10:05:33.30</time>
<name>67</name>
</trkpt>
<trkpt lat="48.942202" lon="8.664507">
<ele>342.0</ele>
<speed>4.0</speed>
<course>229.7</course>
<desc>Speed 4.0 km/h Distance 0.11 km</desc>
<time>2010-02-21T10:05:34.30</time>
<name>68</name>
</trkpt>
<trkpt lat="48.942193" lon="8.664492">
<ele>342.0</ele>
<speed>5.2</speed>
<course>224.6</course>
<desc>Speed 5.2 km/h Distance 0.11 km</desc>
<time>2010-02-21T10:05:35.30</time>
<name>69</name>
</trkpt>
<trkpt lat="48.942183" lon="8.664477">
<ele>342.0</ele>
<speed>5.4</speed>
<course>213.1</course>
<desc>Speed 5.4 km/h Distance 0.11 km</desc>
<time>2010-02-21T10:05:36.29</time>
<name>70</name>
</trkpt>
<trkpt lat="48.942172" lon="8.664465">
<ele>342.0</ele>
<speed>5.5</speed>
<course>222.5</course>
<desc>Speed 5.5 km/h Distance 0.11 km</desc>
<time>2010-02-21T10:05:37.38</time>
<name>71</name>
</trkpt>
<trkpt lat="48.942163" lon="8.664453">
<ele>342.0</ele>
<speed>4.1</speed>
<course>213.2</course>
<desc>Speed 4.1 km/h Distance 0.12 km</desc>
<time>2010-02-21T10:05:38.29</time>
<name>72</name>
</trkpt>
<trkpt lat="48.942155" lon="8.664445">
<ele>342.0</ele>
<speed>3.9</speed>
<course>218.1</course>
<desc>Speed 3.9 km/h Distance 0.12 km</desc>
<time>2010-02-21T10:05:39.29</time>
<name>73</name>
</trkpt>
<trkpt lat="48.942147" lon="8.664435">
<ele>342.0</ele>
<speed>4.0</speed>
<course>209.2</course>
<desc>Speed 4.0 km/h Distance 0.12 km</desc>
<time>2010-02-21T10:05:41.30</time>
<name>74</name>
</trkpt>
<trkpt lat="48.942143" lon="8.664432">
<ele>342.0</ele>
<speed>1.8</speed>
<course>224.5</course>
<desc>Speed 1.8 km/h Distance 0.12 km</desc>
<time>2010-02-21T10:05:42.28</time>
<name>75</name>
</trkpt>
<trkpt lat="48.942140" lon="8.664427">
<ele>342.0</ele>
<speed>1.8</speed>
<course>245.5</course>
<desc>Speed 1.8 km/h Distance 0.12 km</desc>
<time>2010-02-21T10:05:43.28</time>
<name>76</name>
</trkpt>
<trkpt lat="48.942135" lon="8.664410">
<ele>342.0</ele>
<speed>4.9</speed>
<course>245.4</course>
<desc>Speed 4.9 km/h Distance 0.12 km</desc>
<time>2010-02-21T10:05:44.31</time>
<name>77</name>
</trkpt>
<trkpt lat="48.942130" lon="8.664393">
<ele>342.0</ele>
<speed>4.7</speed>
<course>229.8</course>
<desc>Speed 4.7 km/h Distance 0.12 km</desc>
<time>2010-02-21T10:05:45.28</time>
<name>78</name>
</trkpt>
<trkpt lat="48.942122" lon="8.664378">
<ele>342.0</ele>
<speed>4.3</speed>
<course>247.4</course>
<desc>Speed 4.3 km/h Distance 0.12 km</desc>
<time>2010-02-21T10:05:46.28</time>
<name>79</name>
</trkpt>
<trkpt lat="48.942117" lon="8.664360">
<ele>342.0</ele>
<speed>5.0</speed>
<course>286.9</course>
<desc>Speed 5.0 km/h Distance 0.12 km</desc>
<time>2010-02-21T10:05:47.28</time>
<name>80</name>
</trkpt>
<trkpt lat="48.942120" lon="8.664343">
<ele>342.0</ele>
<speed>3.9</speed>
<course>127.4</course>
<desc>Speed 3.9 km/h Distance 0.13 km</desc>
<time>2010-02-21T10:05:48.28</time>
<name>81</name>
</trkpt>
<trkpt lat="48.942115" lon="8.664353">
<ele>342.0</ele>
<speed>3.0</speed>
<course>313.1</course>
<desc>Speed 3.0 km/h Distance 0.13 km</desc>
<time>2010-02-21T10:05:49.28</time>
<name>82</name>
</trkpt>
<trkpt lat="48.942128" lon="8.664332">
<ele>342.0</ele>
<speed>7.5</speed>
<course>321.9</course>
<desc>Speed 7.5 km/h Distance 0.13 km</desc>
<time>2010-02-21T10:05:50.28</time>
<name>83</name>
</trkpt>
<trkpt lat="48.942137" lon="8.664322">
<ele>342.0</ele>
<speed>4.2</speed>
<course>352.6</course>
<desc>Speed 4.2 km/h Distance 0.13 km</desc>
<time>2010-02-21T10:05:51.28</time>
<name>84</name>
</trkpt>
<trkpt lat="48.942143" lon="8.664320">
<ele>342.0</ele>
<speed>2.3</speed>
<course>341.2</course>
<desc>Speed 2.3 km/h Distance 0.13 km</desc>
<time>2010-02-21T10:05:52.28</time>
<name>85</name>
</trkpt>
<trkpt lat="48.942150" lon="8.664317">
<ele>342.0</ele>
<speed>2.4</speed>
<course>341.2</course>
<desc>Speed 2.4 km/h Distance 0.13 km</desc>
<time>2010-02-21T10:05:53.42</time>
<name>86</name>
</trkpt>
<trkpt lat="48.942157" lon="8.664313">
<ele>342.0</ele>
<speed>2.3</speed>
<course>326.8</course>
<desc>Speed 2.3 km/h Distance 0.13 km</desc>
<time>2010-02-21T10:05:54.27</time>
<name>87</name>
</trkpt>
<trkpt lat="48.942167" lon="8.664303">
<ele>342.0</ele>
<speed>4.9</speed>
<course>282.3</course>
<desc>Speed 4.9 km/h Distance 0.13 km</desc>
<time>2010-02-21T10:05:55.27</time>
<name>88</name>
</trkpt>
<trkpt lat="48.942168" lon="8.664292">
<ele>342.5</ele>
<speed>2.9</speed>
<course>270.0</course>
<desc>Speed 2.9 km/h Distance 0.13 km</desc>
<time>2010-02-21T10:05:56.27</time>
<name>89</name>
</trkpt>
<trkpt lat="48.942168" lon="8.664272">
<ele>342.5</ele>
<speed>4.8</speed>
<course>270.0</course>
<desc>Speed 4.8 km/h Distance 0.14 km</desc>
<time>2010-02-21T10:05:57.27</time>
<name>90</name>
</trkpt>
<trkpt lat="48.942168" lon="8.664255">
<ele>342.5</ele>
<speed>4.2</speed>
<course>307.3</course>
<desc>Speed 4.2 km/h Distance 0.14 km</desc>
<time>2010-02-21T10:05:58.27</time>
<name>91</name>
</trkpt>
<trkpt lat="48.942175" lon="8.664242">
<ele>342.5</ele>
<speed>4.1</speed>
<course>315.5</course>
<desc>Speed 4.1 km/h Distance 0.14 km</desc>
<time>2010-02-21T10:05:59.39</time>
<name>92</name>
</trkpt>
<trkpt lat="48.942182" lon="8.664232">
<ele>342.5</ele>
<speed>3.7</speed>
<course>321.9</course>
<desc>Speed 3.7 km/h Distance 0.14 km</desc>
<time>2010-02-21T10:06:00.26</time>
<name>93</name>
</trkpt>
<trkpt lat="48.942190" lon="8.664222">
<ele>342.5</ele>
<speed>3.7</speed>
<course>293.5</course>
<desc>Speed 3.7 km/h Distance 0.14 km</desc>
<time>2010-02-21T10:06:01.26</time>
<name>94</name>
</trkpt>
<trkpt lat="48.942193" lon="8.664210">
<ele>342.5</ele>
<speed>3.3</speed>
<course>327.4</course>
<desc>Speed 3.3 km/h Distance 0.14 km</desc>
<time>2010-02-21T10:06:02.26</time>
<name>95</name>
</trkpt>
<trkpt lat="48.942200" lon="8.664203">
<ele>342.5</ele>
<speed>3.0</speed>
<course>345.1</course>
<desc>Speed 3.0 km/h Distance 0.14 km</desc>
<time>2010-02-21T10:06:03.26</time>
<name>96</name>
</trkpt>
<trkpt lat="48.942208" lon="8.664200">
<ele>342.5</ele>
<speed>3.1</speed>
<course>336.2</course>
<desc>Speed 3.1 km/h Distance 0.14 km</desc>
<time>2010-02-21T10:06:04.25</time>
<name>97</name>
</trkpt>
<trkpt lat="48.942218" lon="8.664193">
<ele>342.5</ele>
<speed>3.7</speed>
<course>344.0</course>
<desc>Speed 3.7 km/h Distance 0.14 km</desc>
<time>2010-02-21T10:06:05.36</time>
<name>98</name>
</trkpt>
<trkpt lat="48.942230" lon="8.664188">
<ele>343.0</ele>
<speed>4.2</speed>
<course>13.5</course>
<desc>Speed 4.2 km/h Distance 0.15 km</desc>
<time>2010-02-21T10:06:06.25</time>
<name>99</name>
</trkpt>
<trkpt lat="48.942243" lon="8.664193">
<ele>343.0</ele>
<speed>5.9</speed>
<course>280.8</course>
<desc>Speed 5.9 km/h Distance 0.15 km</desc>
<time>2010-02-21T10:06:07.25</time>
<name>100</name>
</trkpt>
<trkpt lat="48.942245" lon="8.664180">
<ele>343.0</ele>
<speed>3.3</speed>
<course>304.1</course>
<desc>Speed 3.3 km/h Distance 0.15 km</desc>
<time>2010-02-21T10:06:08.25</time>
<name>101</name>
</trkpt>
<trkpt lat="48.942252" lon="8.664165">
<ele>342.5</ele>
<speed>4.0</speed>
<course>320.6</course>
<desc>Speed 4.0 km/h Distance 0.15 km</desc>
<time>2010-02-21T10:06:09.24</time>
<name>102</name>
</trkpt>
<trkpt lat="48.942258" lon="8.664157">
<ele>342.5</ele>
<speed>3.0</speed>
<course>307.3</course>
<desc>Speed 3.0 km/h Distance 0.15 km</desc>
<time>2010-02-21T10:06:10.24</time>
<name>103</name>
</trkpt>
<trkpt lat="48.942265" lon="8.664143">
<ele>342.5</ele>
<speed>3.6</speed>
<course>312.2</course>
<desc>Speed 3.6 km/h Distance 0.15 km</desc>
<time>2010-02-21T10:06:11.36</time>
<name>104</name>
</trkpt>
<trkpt lat="48.942270" lon="8.664135">
<ele>343.0</ele>
<speed>1.7</speed>
<course>297.4</course>
<desc>Speed 1.7 km/h Distance 0.15 km</desc>
<time>2010-02-21T10:06:12.24</time>
<name>105</name>
</trkpt>
<trkpt lat="48.942272" lon="8.664130">
<ele>343.0</ele>
<speed>1.1</speed>
<course>286.9</course>
<desc>Speed 1.1 km/h Distance 0.15 km</desc>
<time>2010-02-21T10:06:13.24</time>
<name>106</name>
</trkpt>
<trkpt lat="48.942275" lon="8.664113">
<ele>343.0</ele>
<speed>3.7</speed>
<course>321.9</course>
<desc>Speed 3.7 km/h Distance 0.15 km</desc>
<time>2010-02-21T10:06:14.24</time>
<name>107</name>
</trkpt>
<trkpt lat="48.942283" lon="8.664103">
<ele>343.0</ele>
<speed>2.8</speed>
<course>338.5</course>
<desc>Speed 2.8 km/h Distance 0.16 km</desc>
<time>2010-02-21T10:06:15.23</time>
<name>108</name>
</trkpt>
<trkpt lat="48.942292" lon="8.664098">
<ele>343.0</ele>
<speed>1.6</speed>
<course>290.9</course>
<desc>Speed 1.6 km/h Distance 0.16 km</desc>
<time>2010-02-21T10:06:16.23</time>
<name>109</name>
</trkpt>
<trkpt lat="48.942295" lon="8.664085">
<ele>343.0</ele>
<speed>3.2</speed>
<course>319.1</course>
<desc>Speed 3.2 km/h Distance 0.16 km</desc>
<time>2010-02-21T10:06:17.31</time>
<name>110</name>
</trkpt>
<trkpt lat="48.942300" lon="8.664078">
<ele>343.0</ele>
<speed>1.7</speed>
<course>307.3</course>
<desc>Speed 1.7 km/h Distance 0.16 km</desc>
<time>2010-02-21T10:06:18.23</time>
<name>111</name>
</trkpt>
<trkpt lat="48.942308" lon="8.664062">
<ele>343.0</ele>
<speed>2.5</speed>
<course>330.0</course>
<desc>Speed 2.5 km/h Distance 0.16 km</desc>
<time>2010-02-21T10:06:19.23</time>
<name>112</name>
</trkpt>
<trkpt lat="48.942322" lon="8.664050">
<ele>343.0</ele>
<speed>3.3</speed>
<course>127.0</course>
<desc>Speed 3.3 km/h Distance 0.16 km</desc>
<time>2010-02-21T10:06:20.23</time>
<name>113</name>
</trkpt>
<trkpt lat="48.942318" lon="8.664057">
<ele>343.5</ele>
<speed>2.9</speed>
<course>321.9</course>
<desc>Speed 2.9 km/h Distance 0.16 km</desc>
<time>2010-02-21T10:06:21.23</time>
<name>114</name>
</trkpt>
<trkpt lat="48.942327" lon="8.664047">
<ele>343.5</ele>
<speed>2.8</speed>
<course>337.8</course>
<desc>Speed 2.8 km/h Distance 0.16 km</desc>
<time>2010-02-21T10:06:22.23</time>
<name>115</name>
</trkpt>
<trkpt lat="48.942332" lon="8.664043">
<ele>344.5</ele>
<speed>1.9</speed>
<course>0.0</course>
<desc>Speed 1.9 km/h Distance 0.16 km</desc>
<time>2010-02-21T10:06:23.23</time>
<name>116</name>
</trkpt>
<trkpt lat="48.942342" lon="8.664043">
<ele>344.5</ele>
<speed>2.6</speed>
<course>0.0</course>
<desc>Speed 2.6 km/h Distance 0.17 km</desc>
<time>2010-02-21T10:06:24.23</time>
<name>117</name>
</trkpt>
<trkpt lat="48.942350" lon="8.664043">
<ele>344.5</ele>
<speed>2.0</speed>
<course>310.3</course>
<desc>Speed 2.0 km/h Distance 0.17 km</desc>
<time>2010-02-21T10:06:25.31</time>
<name>118</name>
</trkpt>
<trkpt lat="48.942358" lon="8.664028">
<ele>345.0</ele>
<speed>3.2</speed>
<course>341.9</course>
<desc>Speed 3.2 km/h Distance 0.17 km</desc>
<time>2010-02-21T10:06:26.26</time>
<name>119</name>
</trkpt>
<trkpt lat="48.942372" lon="8.664022">
<ele>345.0</ele>
<speed>2.8</speed>
<course>307.6</course>
<desc>Speed 2.8 km/h Distance 0.17 km</desc>
<time>2010-02-21T10:06:27.26</time>
<name>120</name>
</trkpt>
<trkpt lat="48.942375" lon="8.664015">
<ele>345.0</ele>
<speed>1.2</speed>
<course>326.8</course>
<desc>Speed 1.2 km/h Distance 0.17 km</desc>
<time>2010-02-21T10:06:28.26</time>
<name>121</name>
</trkpt>
<trkpt lat="48.942385" lon="8.664005">
<ele>345.0</ele>
<speed>2.0</speed>
<course>311.1</course>
<desc>Speed 2.0 km/h Distance 0.17 km</desc>
<time>2010-02-21T10:06:29.26</time>
<name>122</name>
</trkpt>
<trkpt lat="48.942392" lon="8.663993">
<ele>345.0</ele>
<speed>1.2</speed>
<course>270.0</course>
<desc>Speed 1.2 km/h Distance 0.17 km</desc>
<time>2010-02-21T10:06:30.37</time>
<name>123</name>
</trkpt>
<trkpt lat="48.942392" lon="8.663987">
<ele>345.0</ele>
<speed>1.8</speed>
<course>254.5</course>
<desc>Speed 1.8 km/h Distance 0.17 km</desc>
<time>2010-02-21T10:06:31.37</time>
<name>124</name>
</trkpt>
<trkpt lat="48.942388" lon="8.663968">
<ele>345.0</ele>
<speed>5.2</speed>
<course>316.5</course>
<desc>Speed 5.2 km/h Distance 0.17 km</desc>
<time>2010-02-21T10:06:32.37</time>
<name>125</name>
</trkpt>
<trkpt lat="48.942392" lon="8.663963">
<ele>345.5</ele>
<speed>1.8</speed>
<course>296.9</course>
<desc>Speed 1.8 km/h Distance 0.17 km</desc>
<time>2010-02-21T10:06:33.37</time>
<name>126</name>
</trkpt>
<trkpt lat="48.942398" lon="8.663943">
<ele>346.0</ele>
<speed>4.2</speed>
<course>312.5</course>
<desc>Speed 4.2 km/h Distance 0.18 km</desc>
<time>2010-02-21T10:06:34.37</time>
<name>127</name>
</trkpt>
<trkpt lat="48.942408" lon="8.663927">
<ele>346.0</ele>
<speed>3.6</speed>
<course>283.2</course>
<desc>Speed 3.6 km/h Distance 0.18 km</desc>
<time>2010-02-21T10:06:35.37</time>
<name>128</name>
</trkpt>
<trkpt lat="48.942412" lon="8.663905">
<ele>346.0</ele>
<speed>4.6</speed>
<course>295.1</course>
<desc>Speed 4.6 km/h Distance 0.18 km</desc>
<time>2010-02-21T10:06:36.37</time>
<name>129</name>
</trkpt>
<trkpt lat="48.942418" lon="8.663883">
<ele>346.0</ele>
<speed>4.2</speed>
<course>270.0</course>
<desc>Speed 4.2 km/h Distance 0.18 km</desc>
<time>2010-02-21T10:06:37.37</time>
<name>130</name>
</trkpt>
<trkpt lat="48.942418" lon="8.663855">
<ele>346.5</ele>
<speed>6.6</speed>
<course>299.7</course>
<desc>Speed 6.6 km/h Distance 0.18 km</desc>
<time>2010-02-21T10:06:38.37</time>
<name>131</name>
</trkpt>
<trkpt lat="48.942423" lon="8.663842">
<ele>346.0</ele>
<speed>1.4</speed>
<course>321.9</course>
<desc>Speed 1.4 km/h Distance 0.18 km</desc>
<time>2010-02-21T10:06:39.37</time>
<name>132</name>
</trkpt>
<trkpt lat="48.942432" lon="8.663832">
<ele>346.0</ele>
<speed>2.4</speed>
<course>262.1</course>
<desc>Speed 2.4 km/h Distance 0.19 km</desc>
<time>2010-02-21T10:06:40.37</time>
<name>133</name>
</trkpt>
<trkpt lat="48.942430" lon="8.663813">
<ele>346.5</ele>
<speed>4.1</speed>
<course>270.0</course>
<desc>Speed 4.1 km/h Distance 0.19 km</desc>
<time>2010-02-21T10:06:41.37</time>
<name>134</name>
</trkpt>
<trkpt lat="48.942430" lon="8.663790">
<ele>346.5</ele>
<speed>4.5</speed>
<course>245.1</course>
<desc>Speed 4.5 km/h Distance 0.19 km</desc>
<time>2010-02-21T10:06:42.37</time>
<name>135</name>
</trkpt>
<trkpt lat="48.942418" lon="8.663752">
<ele>346.5</ele>
<speed>11.5</speed>
<course>260.9</course>
<desc>Speed 11.5 km/h Distance 0.19 km</desc>
<time>2010-02-21T10:06:43.37</time>
<name>136</name>
</trkpt>
<trkpt lat="48.942415" lon="8.663720">
<ele>347.0</ele>
<speed>8.6</speed>
<course>237.4</course>
<desc>Speed 8.6 km/h Distance 0.19 km</desc>
<time>2010-02-21T10:06:44.44</time>
<name>137</name>
</trkpt>
<trkpt lat="48.942402" lon="8.663688">
<ele>346.5</ele>
<speed>10.8</speed>
<course>324.2</course>
<desc>Speed 10.8 km/h Distance 0.20 km</desc>
<time>2010-02-21T10:06:45.42</time>
<name>138</name>
</trkpt>
<trkpt lat="48.942418" lon="8.663670">
<ele>347.0</ele>
<speed>2.8</speed>
<course>2.7</course>
<desc>Speed 2.8 km/h Distance 0.20 km</desc>
<time>2010-02-21T10:06:47.42</time>
<name>139</name>
</trkpt>
<trkpt lat="48.942438" lon="8.663672">
<ele>346.5</ele>
<speed>1.5</speed>
<course>339.0</course>
<desc>Speed 1.5 km/h Distance 0.20 km</desc>
<time>2010-02-21T10:06:48.42</time>
<name>140</name>
</trkpt>
<trkpt lat="48.942478" lon="8.663648">
<ele>345.0</ele>
<speed>4.4</speed>
<course>335.1</course>
<desc>Speed 4.4 km/h Distance 0.21 km</desc>
<time>2010-02-21T10:06:50.62</time>
<name>141</name>
</trkpt>
<trkpt lat="48.942490" lon="8.663640">
<ele>344.5</ele>
<speed>2.3</speed>
<course>270.0</course>
<desc>Speed 2.3 km/h Distance 0.21 km</desc>
<time>2010-02-21T10:06:51.48</time>
<name>142</name>
</trkpt>
<trkpt lat="48.942490" lon="8.663632">
<ele>344.0</ele>
<speed>1.4</speed>
<course>293.7</course>
<desc>Speed 1.4 km/h Distance 0.21 km</desc>
<time>2010-02-21T10:06:52.48</time>
<name>143</name>
</trkpt>
<trkpt lat="48.942493" lon="8.663620">
<ele>343.5</ele>
<speed>2.2</speed>
<course>0.0</course>
<desc>Speed 2.2 km/h Distance 0.21 km</desc>
<time>2010-02-21T10:06:53.48</time>
<name>144</name>
</trkpt>
<trkpt lat="48.942558" lon="8.663620">
<ele>338.5</ele>
<speed>2.1</speed>
<course>359.0</course>
<desc>Speed 2.1 km/h Distance 0.22 km</desc>
<time>2010-02-21T10:06:55.48</time>
<name>145</name>
</trkpt>
<trkpt lat="48.942632" lon="8.663618">
<ele>335.5</ele>
<speed>2.6</speed>
<course>321.4</course>
<desc>Speed 2.6 km/h Distance 0.22 km</desc>
<time>2010-02-21T10:06:57.54</time>
<name>146</name>
</trkpt>
<trkpt lat="48.942640" lon="8.663608">
<ele>335.5</ele>
<speed>2.7</speed>
<course>343.0</course>
<desc>Speed 2.7 km/h Distance 0.23 km</desc>
<time>2010-02-21T10:06:58.54</time>
<name>147</name>
</trkpt>
<trkpt lat="48.942662" lon="8.663598">
<ele>333.0</ele>
<speed>1.4</speed>
<course>313.5</course>
<desc>Speed 1.4 km/h Distance 0.23 km</desc>
<time>2010-02-21T10:06:59.54</time>
<name>148</name>
</trkpt>
<trkpt lat="48.942670" lon="8.663585">
<ele>332.0</ele>
<speed>1.5</speed>
<course>307.3</course>
<desc>Speed 1.5 km/h Distance 0.23 km</desc>
<time>2010-02-21T10:07:00.54</time>
<name>149</name>
</trkpt>
<trkpt lat="48.942677" lon="8.663572">
<ele>331.0</ele>
<speed>2.6</speed>
<course>326.8</course>
<desc>Speed 2.6 km/h Distance 0.23 km</desc>
<time>2010-02-21T10:07:01.54</time>
<name>150</name>
</trkpt>
<trkpt lat="48.942687" lon="8.663562">
<ele>329.5</ele>
<speed>2.4</speed>
<course>326.6</course>
<desc>Speed 2.4 km/h Distance 0.23 km</desc>
<time>2010-02-21T10:07:02.75</time>
<name>151</name>
</trkpt>
<trkpt lat="48.942698" lon="8.663550">
<ele>329.0</ele>
<speed>3.4</speed>
<course>317.5</course>
<desc>Speed 3.4 km/h Distance 0.23 km</desc>
<time>2010-02-21T10:07:03.60</time>
<name>152</name>
</trkpt>
<trkpt lat="48.942707" lon="8.663538">
<ele>327.5</ele>
<speed>2.3</speed>
<course>310.1</course>
<desc>Speed 2.3 km/h Distance 0.24 km</desc>
<time>2010-02-21T10:07:04.60</time>
<name>153</name>
</trkpt>
<trkpt lat="48.942715" lon="8.663523">
<ele>326.5</ele>
<speed>3.3</speed>
<course>270.0</course>
<desc>Speed 3.3 km/h Distance 0.24 km</desc>
<time>2010-02-21T10:07:05.60</time>
<name>154</name>
</trkpt>
<trkpt lat="48.942715" lon="8.663512">
<ele>325.0</ele>
<speed>1.2</speed>
<course>304.0</course>
<desc>Speed 1.2 km/h Distance 0.24 km</desc>
<time>2010-02-21T10:07:06.60</time>
<name>155</name>
</trkpt>
<trkpt lat="48.942722" lon="8.663497">
<ele>324.5</ele>
<speed>2.5</speed>
<course>287.8</course>
<desc>Speed 2.5 km/h Distance 0.24 km</desc>
<time>2010-02-21T10:07:07.60</time>
<name>156</name>
</trkpt>
<trkpt lat="48.942728" lon="8.663465">
<ele>323.0</ele>
<speed>2.8</speed>
<course>315.5</course>
<desc>Speed 2.8 km/h Distance 0.24 km</desc>
<time>2010-02-21T10:07:09.12</time>
<name>157</name>
</trkpt>
<trkpt lat="48.942738" lon="8.663450">
<ele>322.5</ele>
<speed>3.5</speed>
<course>336.3</course>
<desc>Speed 3.5 km/h Distance 0.24 km</desc>
<time>2010-02-21T10:07:10.12</time>
<name>158</name>
</trkpt>
<trkpt lat="48.942753" lon="8.663440">
<ele>322.5</ele>
<speed>4.0</speed>
<course>334.0</course>
<desc>Speed 4.0 km/h Distance 0.24 km</desc>
<time>2010-02-21T10:07:11.19</time>
<name>159</name>
</trkpt>
<trkpt lat="48.942767" lon="8.663430">
<ele>322.0</ele>
<speed>3.3</speed>
<course>332.3</course>
<desc>Speed 3.3 km/h Distance 0.25 km</desc>
<time>2010-02-21T10:07:12.11</time>
<name>160</name>
</trkpt>
<trkpt lat="48.942783" lon="8.663417">
<ele>321.5</ele>
<speed>3.6</speed>
<course>334.8</course>
<desc>Speed 3.6 km/h Distance 0.25 km</desc>
<time>2010-02-21T10:07:13.11</time>
<name>161</name>
</trkpt>
<trkpt lat="48.942807" lon="8.663400">
<ele>322.5</ele>
<speed>5.1</speed>
<course>329.1</course>
<desc>Speed 5.1 km/h Distance 0.25 km</desc>
<time>2010-02-21T10:07:14.11</time>
<name>162</name>
</trkpt>
<trkpt lat="48.942825" lon="8.663383">
<ele>323.0</ele>
<speed>4.1</speed>
<course>307.3</course>
<desc>Speed 4.1 km/h Distance 0.25 km</desc>
<time>2010-02-21T10:07:15.10</time>
<name>163</name>
</trkpt>
<trkpt lat="48.942833" lon="8.663367">
<ele>322.5</ele>
<speed>3.7</speed>
<course>322.5</course>
<desc>Speed 3.7 km/h Distance 0.26 km</desc>
<time>2010-02-21T10:07:16.11</time>
<name>164</name>
</trkpt>
<trkpt lat="48.942843" lon="8.663355">
<ele>322.0</ele>
<speed>3.4</speed>
<course>352.3</course>
<desc>Speed 3.4 km/h Distance 0.26 km</desc>
<time>2010-02-21T10:07:17.31</time>
<name>165</name>
</trkpt>
<trkpt lat="48.942860" lon="8.663352">
<ele>322.0</ele>
<speed>2.3</speed>
<course>344.0</course>
<desc>Speed 2.3 km/h Distance 0.26 km</desc>
<time>2010-02-21T10:07:18.10</time>
<name>166</name>
</trkpt>
<trkpt lat="48.942875" lon="8.663345">
<ele>321.5</ele>
<speed>3.4</speed>
<course>344.0</course>
<desc>Speed 3.4 km/h Distance 0.26 km</desc>
<time>2010-02-21T10:07:19.10</time>
<name>167</name>
</trkpt>
<trkpt lat="48.942890" lon="8.663338">
<ele>321.5</ele>
<speed>4.6</speed>
<course>337.7</course>
<desc>Speed 4.6 km/h Distance 0.26 km</desc>
<time>2010-02-21T10:07:20.10</time>
<name>168</name>
</trkpt>
<trkpt lat="48.942903" lon="8.663330">
<ele>321.0</ele>
<speed>4.1</speed>
<course>335.3</course>
<desc>Speed 4.1 km/h Distance 0.26 km</desc>
<time>2010-02-21T10:07:21.10</time>
<name>169</name>
</trkpt>
<trkpt lat="48.942920" lon="8.663318">
<ele>321.0</ele>
<speed>4.6</speed>
<course>323.5</course>
<desc>Speed 4.6 km/h Distance 0.27 km</desc>
<time>2010-02-21T10:07:22.10</time>
<name>170</name>
</trkpt>
<trkpt lat="48.942933" lon="8.663303">
<ele>321.5</ele>
<speed>4.0</speed>
<course>341.1</course>
<desc>Speed 4.0 km/h Distance 0.27 km</desc>
<time>2010-02-21T10:07:23.31</time>
<name>171</name>
</trkpt>
<trkpt lat="48.942975" lon="8.663282">
<ele>321.0</ele>
<speed>4.2</speed>
<course>339.9</course>
<desc>Speed 4.2 km/h Distance 0.27 km</desc>
<time>2010-02-21T10:07:25.09</time>
<name>172</name>
</trkpt>
<trkpt lat="48.942990" lon="8.663273">
<ele>321.5</ele>
<speed>4.5</speed>
<course>335.3</course>
<desc>Speed 4.5 km/h Distance 0.27 km</desc>
<time>2010-02-21T10:07:26.09</time>
<name>173</name>
</trkpt>
<trkpt lat="48.943007" lon="8.663262">
<ele>322.0</ele>
<speed>5.1</speed>
<course>334.5</course>
<desc>Speed 5.1 km/h Distance 0.28 km</desc>
<time>2010-02-21T10:07:27.08</time>
<name>174</name>
</trkpt>
<trkpt lat="48.943025" lon="8.663248">
<ele>323.5</ele>
<speed>5.4</speed>
<course>315.3</course>
<desc>Speed 5.4 km/h Distance 0.28 km</desc>
<time>2010-02-21T10:07:28.14</time>
<name>175</name>
</trkpt>
<trkpt lat="48.943038" lon="8.663228">
<ele>325.0</ele>
<speed>3.6</speed>
<course>299.7</course>
<desc>Speed 3.6 km/h Distance 0.28 km</desc>
<time>2010-02-21T10:07:29.09</time>
<name>176</name>
</trkpt>
<trkpt lat="48.943043" lon="8.663215">
<ele>325.0</ele>
<speed>4.0</speed>
<course>313.4</course>
<desc>Speed 4.0 km/h Distance 0.28 km</desc>
<time>2010-02-21T10:07:30.08</time>
<name>177</name>
</trkpt>
<trkpt lat="48.943052" lon="8.663202">
<ele>325.0</ele>
<speed>4.8</speed>
<course>304.1</course>
<desc>Speed 4.8 km/h Distance 0.28 km</desc>
<time>2010-02-21T10:07:31.08</time>
<name>178</name>
</trkpt>
<trkpt lat="48.943058" lon="8.663187">
<ele>324.5</ele>
<speed>4.8</speed>
<course>331.4</course>
<desc>Speed 4.8 km/h Distance 0.28 km</desc>
<time>2010-02-21T10:07:32.08</time>
<name>179</name>
</trkpt>
<trkpt lat="48.943068" lon="8.663178">
<ele>324.5</ele>
<speed>4.2</speed>
<course>320.6</course>
<desc>Speed 4.2 km/h Distance 0.29 km</desc>
<time>2010-02-21T10:07:33.10</time>
<name>180</name>
</trkpt>
<trkpt lat="48.943075" lon="8.663170">
<ele>323.5</ele>
<speed>3.3</speed>
<course>322.5</course>
<desc>Speed 3.3 km/h Distance 0.29 km</desc>
<time>2010-02-21T10:07:34.07</time>
<name>181</name>
</trkpt>
<trkpt lat="48.943095" lon="8.663147">
<ele>325.5</ele>
<speed>3.9</speed>
<course>294.6</course>
<desc>Speed 3.9 km/h Distance 0.29 km</desc>
<time>2010-02-21T10:07:35.07</time>
<name>182</name>
</trkpt>
<trkpt lat="48.943100" lon="8.663130">
<ele>325.0</ele>
<speed>2.8</speed>
<course>288.1</course>
<desc>Speed 2.8 km/h Distance 0.29 km</desc>
<time>2010-02-21T10:07:36.07</time>
<name>183</name>
</trkpt>
<trkpt lat="48.943105" lon="8.663107">
<ele>324.5</ele>
<speed>3.1</speed>
<course>295.1</course>
<desc>Speed 3.1 km/h Distance 0.29 km</desc>
<time>2010-02-21T10:07:37.07</time>
<name>184</name>
</trkpt>
<trkpt lat="48.943112" lon="8.663085">
<ele>324.5</ele>
<speed>3.2</speed>
<course>290.8</course>
<desc>Speed 3.2 km/h Distance 0.29 km</desc>
<time>2010-02-21T10:07:38.07</time>
<name>185</name>
</trkpt>
<trkpt lat="48.943117" lon="8.663065">
<ele>324.0</ele>
<speed>2.8</speed>
<course>316.7</course>
<desc>Speed 2.8 km/h Distance 0.30 km</desc>
<time>2010-02-21T10:07:39.26</time>
<name>186</name>
</trkpt>
<trkpt lat="48.943128" lon="8.663048">
<ele>324.5</ele>
<speed>3.3</speed>
<course>323.1</course>
<desc>Speed 3.3 km/h Distance 0.30 km</desc>
<time>2010-02-21T10:07:40.07</time>
<name>187</name>
</trkpt>
<trkpt lat="48.943140" lon="8.663035">
<ele>324.5</ele>
<speed>5.1</speed>
<course>317.8</course>
<desc>Speed 5.1 km/h Distance 0.30 km</desc>
<time>2010-02-21T10:07:41.07</time>
<name>188</name>
</trkpt>
<trkpt lat="48.943153" lon="8.663017">
<ele>324.5</ele>
<speed>5.1</speed>
<course>323.9</course>
<desc>Speed 5.1 km/h Distance 0.30 km</desc>
<time>2010-02-21T10:07:42.06</time>
<name>189</name>
</trkpt>
<trkpt lat="48.943168" lon="8.663000">
<ele>325.5</ele>
<speed>4.5</speed>
<course>307.3</course>
<desc>Speed 4.5 km/h Distance 0.30 km</desc>
<time>2010-02-21T10:07:43.07</time>
<name>190</name>
</trkpt>
<trkpt lat="48.943178" lon="8.662980">
<ele>326.0</ele>
<speed>2.9</speed>
<course>290.7</course>
<desc>Speed 2.9 km/h Distance 0.30 km</desc>
<time>2010-02-21T10:07:44.05</time>
<name>191</name>
</trkpt>
<trkpt lat="48.943182" lon="8.662967">
<ele>325.0</ele>
<speed>2.9</speed>
<course>270.0</course>
<desc>Speed 2.9 km/h Distance 0.31 km</desc>
<time>2010-02-21T10:07:45.06</time>
<name>192</name>
</trkpt>
<trkpt lat="48.943182" lon="8.662955">
<ele>323.5</ele>
<speed>2.3</speed>
<course>297.0</course>
<desc>Speed 2.3 km/h Distance 0.31 km</desc>
<time>2010-02-21T10:07:46.05</time>
<name>193</name>
</trkpt>
<trkpt lat="48.943185" lon="8.662945">
<ele>323.0</ele>
<speed>2.3</speed>
<course>279.6</course>
<desc>Speed 2.3 km/h Distance 0.31 km</desc>
<time>2010-02-21T10:07:47.06</time>
<name>194</name>
</trkpt>
<trkpt lat="48.943187" lon="8.662930">
<ele>322.0</ele>
<speed>2.5</speed>
<course>297.0</course>
<desc>Speed 2.5 km/h Distance 0.31 km</desc>
<time>2010-02-21T10:07:48.05</time>
<name>195</name>
</trkpt>
<trkpt lat="48.943190" lon="8.662920">
<ele>321.0</ele>
<speed>2.5</speed>
<course>311.1</course>
<desc>Speed 2.5 km/h Distance 0.31 km</desc>
<time>2010-02-21T10:07:49.05</time>
<name>196</name>
</trkpt>
<trkpt lat="48.943197" lon="8.662908">
<ele>320.5</ele>
<speed>2.8</speed>
<course>288.7</course>
<desc>Speed 2.8 km/h Distance 0.31 km</desc>
<time>2010-02-21T10:07:50.05</time>
<name>197</name>
</trkpt>
<trkpt lat="48.943200" lon="8.662893">
<ele>319.0</ele>
<speed>2.7</speed>
<course>310.9</course>
<desc>Speed 2.7 km/h Distance 0.31 km</desc>
<time>2010-02-21T10:07:51.05</time>
<name>198</name>
</trkpt>
<trkpt lat="48.943207" lon="8.662882">
<ele>318.5</ele>
<speed>2.3</speed>
<course>315.5</course>
<desc>Speed 2.3 km/h Distance 0.31 km</desc>
<time>2010-02-21T10:07:52.05</time>
<name>199</name>
</trkpt>
<trkpt lat="48.943217" lon="8.662867">
<ele>318.0</ele>
<speed>2.8</speed>
<course>303.3</course>
<desc>Speed 2.8 km/h Distance 0.31 km</desc>
<time>2010-02-21T10:07:53.05</time>
<name>200</name>
</trkpt>
<trkpt lat="48.943222" lon="8.662855">
<ele>316.5</ele>
<speed>3.0</speed>
<course>299.7</course>
<desc>Speed 3.0 km/h Distance 0.32 km</desc>
<time>2010-02-21T10:07:54.05</time>
<name>201</name>
</trkpt>
<trkpt lat="48.943227" lon="8.662842">
<ele>315.5</ele>
<speed>3.3</speed>
<course>320.6</course>
<desc>Speed 3.3 km/h Distance 0.32 km</desc>
<time>2010-02-21T10:07:55.06</time>
<name>202</name>
</trkpt>
<trkpt lat="48.943240" lon="8.662825">
<ele>315.5</ele>
<speed>6.4</speed>
<course>326.7</course>
<desc>Speed 6.4 km/h Distance 0.32 km</desc>
<time>2010-02-21T10:07:56.06</time>
<name>203</name>
</trkpt>
<trkpt lat="48.943252" lon="8.662813">
<ele>316.0</ele>
<speed>4.5</speed>
<course>323.1</course>
<desc>Speed 4.5 km/h Distance 0.32 km</desc>
<time>2010-02-21T10:07:57.06</time>
<name>204</name>
</trkpt>
<trkpt lat="48.943263" lon="8.662800">
<ele>316.5</ele>
<speed>4.0</speed>
<course>336.3</course>
<desc>Speed 4.0 km/h Distance 0.32 km</desc>
<time>2010-02-21T10:07:58.05</time>
<name>205</name>
</trkpt>
<trkpt lat="48.943278" lon="8.662790">
<ele>317.5</ele>
<speed>3.7</speed>
<course>318.2</course>
<desc>Speed 3.7 km/h Distance 0.32 km</desc>
<time>2010-02-21T10:07:59.38</time>
<name>206</name>
</trkpt>
<trkpt lat="48.943297" lon="8.662765">
<ele>316.5</ele>
<speed>3.9</speed>
<course>346.7</course>
<desc>Speed 3.9 km/h Distance 0.33 km</desc>
<time>2010-02-21T10:08:01.05</time>
<name>207</name>
</trkpt>
<trkpt lat="48.943315" lon="8.662758">
<ele>316.5</ele>
<speed>2.7</speed>
<course>311.6</course>
<desc>Speed 2.7 km/h Distance 0.33 km</desc>
<time>2010-02-21T10:08:02.48</time>
<name>208</name>
</trkpt>
<trkpt lat="48.943327" lon="8.662738">
<ele>316.5</ele>
<speed>5.7</speed>
<course>333.4</course>
<desc>Speed 5.7 km/h Distance 0.33 km</desc>
<time>2010-02-21T10:08:03.39</time>
<name>209</name>
</trkpt>
<trkpt lat="48.943362" lon="8.662712">
<ele>317.5</ele>
<speed>4.0</speed>
<course>318.8</course>
<desc>Speed 4.0 km/h Distance 0.33 km</desc>
<time>2010-02-21T10:08:06.01</time>
<name>210</name>
</trkpt>
<trkpt lat="48.943382" lon="8.662685">
<ele>315.5</ele>
<speed>4.2</speed>
<course>312.4</course>
<desc>Speed 4.2 km/h Distance 0.34 km</desc>
<time>2010-02-21T10:08:07.16</time>
<name>211</name>
</trkpt>
<trkpt lat="48.943392" lon="8.662668">
<ele>315.0</ele>
<speed>3.5</speed>
<course>329.7</course>
<desc>Speed 3.5 km/h Distance 0.34 km</desc>
<time>2010-02-21T10:08:08.04</time>
<name>212</name>
</trkpt>
<trkpt lat="48.943407" lon="8.662655">
<ele>315.0</ele>
<speed>3.7</speed>
<course>316.8</course>
<desc>Speed 3.7 km/h Distance 0.34 km</desc>
<time>2010-02-21T10:08:09.04</time>
<name>213</name>
</trkpt>
<trkpt lat="48.943418" lon="8.662638">
<ele>314.0</ele>
<speed>3.5</speed>
<course>326.7</course>
<desc>Speed 3.5 km/h Distance 0.34 km</desc>
<time>2010-02-21T10:08:10.05</time>
<name>214</name>
</trkpt>
<trkpt lat="48.943435" lon="8.662622">
<ele>313.5</ele>
<speed>3.2</speed>
<course>331.7</course>
<desc>Speed 3.2 km/h Distance 0.35 km</desc>
<time>2010-02-21T10:08:11.04</time>
<name>215</name>
</trkpt>
<trkpt lat="48.943453" lon="8.662607">
<ele>313.5</ele>
<speed>3.5</speed>
<course>326.6</course>
<desc>Speed 3.5 km/h Distance 0.35 km</desc>
<time>2010-02-21T10:08:12.12</time>
<name>216</name>
</trkpt>
<trkpt lat="48.943465" lon="8.662595">
<ele>312.5</ele>
<speed>4.2</speed>
<course>318.6</course>
<desc>Speed 4.2 km/h Distance 0.35 km</desc>
<time>2010-02-21T10:08:13.04</time>
<name>217</name>
</trkpt>
<trkpt lat="48.943475" lon="8.662582">
<ele>312.0</ele>
<speed>3.7</speed>
<course>304.7</course>
<desc>Speed 3.7 km/h Distance 0.35 km</desc>
<time>2010-02-21T10:08:14.04</time>
<name>218</name>
</trkpt>
<trkpt lat="48.943483" lon="8.662563">
<ele>312.0</ele>
<speed>3.5</speed>
<course>305.0</course>
<desc>Speed 3.5 km/h Distance 0.35 km</desc>
<time>2010-02-21T10:08:15.04</time>
<name>219</name>
</trkpt>
<trkpt lat="48.943493" lon="8.662542">
<ele>312.5</ele>
<speed>2.4</speed>
<course>316.5</course>
<desc>Speed 2.4 km/h Distance 0.35 km</desc>
<time>2010-02-21T10:08:16.04</time>
<name>220</name>
</trkpt>
<trkpt lat="48.943508" lon="8.662520">
<ele>313.5</ele>
<speed>3.2</speed>
<course>329.6</course>
<desc>Speed 3.2 km/h Distance 0.36 km</desc>
<time>2010-02-21T10:08:17.08</time>
<name>221</name>
</trkpt>
<trkpt lat="48.943523" lon="8.662507">
<ele>313.5</ele>
<speed>3.7</speed>
<course>326.7</course>
<desc>Speed 3.7 km/h Distance 0.36 km</desc>
<time>2010-02-21T10:08:18.06</time>
<name>222</name>
</trkpt>
<trkpt lat="48.943538" lon="8.662492">
<ele>314.5</ele>
<speed>3.6</speed>
<course>320.6</course>
<desc>Speed 3.6 km/h Distance 0.36 km</desc>
<time>2010-02-21T10:08:19.06</time>
<name>223</name>
</trkpt>
<trkpt lat="48.943545" lon="8.662483">
<ele>313.5</ele>
<speed>3.2</speed>
<course>330.6</course>
<desc>Speed 3.2 km/h Distance 0.36 km</desc>
<time>2010-02-21T10:08:20.06</time>
<name>224</name>
</trkpt>
<trkpt lat="48.943557" lon="8.662473">
<ele>313.0</ele>
<speed>4.3</speed>
<course>322.8</course>
<desc>Speed 4.3 km/h Distance 0.36 km</desc>
<time>2010-02-21T10:08:21.06</time>
<name>225</name>
</trkpt>
<trkpt lat="48.943578" lon="8.662448">
<ele>314.5</ele>
<speed>5.1</speed>
<course>319.8</course>
<desc>Speed 5.1 km/h Distance 0.37 km</desc>
<time>2010-02-21T10:08:22.06</time>
<name>226</name>
</trkpt>
<trkpt lat="48.943590" lon="8.662433">
<ele>314.5</ele>
<speed>4.8</speed>
<course>326.7</course>
<desc>Speed 4.8 km/h Distance 0.37 km</desc>
<time>2010-02-21T10:08:23.29</time>
<name>227</name>
</trkpt>
<trkpt lat="48.943605" lon="8.662418">
<ele>314.5</ele>
<speed>4.8</speed>
<course>329.1</course>
<desc>Speed 4.8 km/h Distance 0.37 km</desc>
<time>2010-02-21T10:08:24.14</time>
<name>228</name>
</trkpt>
<trkpt lat="48.943623" lon="8.662402">
<ele>315.0</ele>
<speed>4.7</speed>
<course>323.8</course>
<desc>Speed 4.7 km/h Distance 0.37 km</desc>
<time>2010-02-21T10:08:25.14</time>
<name>229</name>
</trkpt>
<trkpt lat="48.943638" lon="8.662385">
<ele>315.0</ele>
<speed>4.5</speed>
<course>331.2</course>
<desc>Speed 4.5 km/h Distance 0.37 km</desc>
<time>2010-02-21T10:08:26.14</time>
<name>230</name>
</trkpt>
<trkpt lat="48.943658" lon="8.662368">
<ele>315.5</ele>
<speed>5.8</speed>
<course>332.2</course>
<desc>Speed 5.8 km/h Distance 0.38 km</desc>
<time>2010-02-21T10:08:27.14</time>
<name>231</name>
</trkpt>
<trkpt lat="48.943683" lon="8.662348">
<ele>317.5</ele>
<speed>5.3</speed>
<course>326.7</course>
<desc>Speed 5.3 km/h Distance 0.38 km</desc>
<time>2010-02-21T10:08:28.14</time>
<name>232</name>
</trkpt>
<trkpt lat="48.943700" lon="8.662332">
<ele>318.0</ele>
<speed>4.5</speed>
<course>323.1</course>
<desc>Speed 4.5 km/h Distance 0.38 km</desc>
<time>2010-02-21T10:08:29.37</time>
<name>233</name>
</trkpt>
<trkpt lat="48.943712" lon="8.662318">
<ele>318.5</ele>
<speed>3.9</speed>
<course>322.5</course>
<desc>Speed 3.9 km/h Distance 0.38 km</desc>
<time>2010-02-21T10:08:30.21</time>
<name>234</name>
</trkpt>
<trkpt lat="48.943722" lon="8.662307">
<ele>318.0</ele>
<speed>4.5</speed>
<course>344.0</course>
<desc>Speed 4.5 km/h Distance 0.38 km</desc>
<time>2010-02-21T10:08:31.21</time>
<name>235</name>
</trkpt>
<trkpt lat="48.943733" lon="8.662302">
<ele>318.5</ele>
<speed>4.1</speed>
<course>322.5</course>
<desc>Speed 4.1 km/h Distance 0.39 km</desc>
<time>2010-02-21T10:08:32.21</time>
<name>236</name>
</trkpt>
<trkpt lat="48.943743" lon="8.662290">
<ele>318.5</ele>
<speed>4.4</speed>
<course>307.3</course>
<desc>Speed 4.4 km/h Distance 0.39 km</desc>
<time>2010-02-21T10:08:33.21</time>
<name>237</name>
</trkpt>
<trkpt lat="48.943752" lon="8.662273">
<ele>319.0</ele>
<speed>4.4</speed>
<course>311.6</course>
<desc>Speed 4.4 km/h Distance 0.39 km</desc>
<time>2010-02-21T10:08:34.27</time>
<name>238</name>
</trkpt>
<trkpt lat="48.943763" lon="8.662253">
<ele>320.0</ele>
<speed>4.3</speed>
<course>321.2</course>
<desc>Speed 4.3 km/h Distance 0.39 km</desc>
<time>2010-02-21T10:08:35.21</time>
<name>239</name>
</trkpt>
<trkpt lat="48.943778" lon="8.662235">
<ele>321.0</ele>
<speed>4.5</speed>
<course>323.5</course>
<desc>Speed 4.5 km/h Distance 0.39 km</desc>
<time>2010-02-21T10:08:36.21</time>
<name>240</name>
</trkpt>
<trkpt lat="48.943792" lon="8.662220">
<ele>321.5</ele>
<speed>4.9</speed>
<course>330.8</course>
<desc>Speed 4.9 km/h Distance 0.40 km</desc>
<time>2010-02-21T10:08:37.21</time>
<name>241</name>
</trkpt>
<trkpt lat="48.943803" lon="8.662210">
<ele>321.5</ele>
<speed>4.5</speed>
<course>326.6</course>
<desc>Speed 4.5 km/h Distance 0.40 km</desc>
<time>2010-02-21T10:08:38.21</time>
<name>242</name>
</trkpt>
<trkpt lat="48.943813" lon="8.662200">
<ele>321.5</ele>
<speed>4.7</speed>
<course>299.0</course>
<desc>Speed 4.7 km/h Distance 0.40 km</desc>
<time>2010-02-21T10:08:39.26</time>
<name>243</name>
</trkpt>
<trkpt lat="48.943820" lon="8.662182">
<ele>322.0</ele>
<speed>3.7</speed>
<course>316.7</course>
<desc>Speed 3.7 km/h Distance 0.40 km</desc>
<time>2010-02-21T10:08:40.23</time>
<name>244</name>
</trkpt>
<trkpt lat="48.943832" lon="8.662165">
<ele>324.0</ele>
<speed>3.6</speed>
<course>304.7</course>
<desc>Speed 3.6 km/h Distance 0.40 km</desc>
<time>2010-02-21T10:08:41.23</time>
<name>245</name>
</trkpt>
<trkpt lat="48.943840" lon="8.662147">
<ele>324.5</ele>
<speed>3.7</speed>
<course>286.9</course>
<desc>Speed 3.7 km/h Distance 0.40 km</desc>
<time>2010-02-21T10:08:42.23</time>
<name>246</name>
</trkpt>
<trkpt lat="48.943843" lon="8.662130">
<ele>325.0</ele>
<speed>3.1</speed>
<course>294.6</course>
<desc>Speed 3.1 km/h Distance 0.40 km</desc>
<time>2010-02-21T10:08:43.23</time>
<name>247</name>
</trkpt>
<trkpt lat="48.943848" lon="8.662113">
<ele>325.0</ele>
<speed>2.7</speed>
<course>326.8</course>
<desc>Speed 2.7 km/h Distance 0.41 km</desc>
<time>2010-02-21T10:08:44.24</time>
<name>248</name>
</trkpt>
<trkpt lat="48.943857" lon="8.662105">
<ele>324.5</ele>
<speed>2.5</speed>
<course>289.3</course>
<desc>Speed 2.5 km/h Distance 0.41 km</desc>
<time>2010-02-21T10:08:45.44</time>
<name>249</name>
</trkpt>
<trkpt lat="48.943862" lon="8.662083">
<ele>324.5</ele>
<speed>4.1</speed>
<course>277.2</course>
<desc>Speed 4.1 km/h Distance 0.41 km</desc>
<time>2010-02-21T10:08:46.31</time>
<name>250</name>
</trkpt>
<trkpt lat="48.943863" lon="8.662063">
<ele>324.5</ele>
<speed>4.2</speed>
<course>270.0</course>
<desc>Speed 4.2 km/h Distance 0.41 km</desc>
<time>2010-02-21T10:08:47.31</time>
<name>251</name>
</trkpt>
<trkpt lat="48.943863" lon="8.662045">
<ele>325.0</ele>
<speed>3.1</speed>
<course>261.3</course>
<desc>Speed 3.1 km/h Distance 0.41 km</desc>
<time>2010-02-21T10:08:48.31</time>
<name>252</name>
</trkpt>
<trkpt lat="48.943862" lon="8.662028">
<ele>325.0</ele>
<speed>4.1</speed>
<course>255.8</course>
<desc>Speed 4.1 km/h Distance 0.41 km</desc>
<time>2010-02-21T10:08:49.31</time>
<name>253</name>
</trkpt>
<trkpt lat="48.943858" lon="8.662008">
<ele>325.0</ele>
<speed>4.5</speed>
<course>277.2</course>
<desc>Speed 4.5 km/h Distance 0.41 km</desc>
<time>2010-02-21T10:08:50.35</time>
<name>254</name>
</trkpt>
<trkpt lat="48.943860" lon="8.661988">
<ele>325.0</ele>
<speed>4.4</speed>
<course>285.5</course>
<desc>Speed 4.4 km/h Distance 0.42 km</desc>
<time>2010-02-21T10:08:51.32</time>
<name>255</name>
</trkpt>
<trkpt lat="48.943863" lon="8.661970">
<ele>325.5</ele>
<speed>3.3</speed>
<course>279.6</course>
<desc>Speed 3.3 km/h Distance 0.42 km</desc>
<time>2010-02-21T10:08:52.32</time>
<name>256</name>
</trkpt>
<trkpt lat="48.943865" lon="8.661955">
<ele>326.5</ele>
<speed>1.7</speed>
<course>167.4</course>
<desc>Speed 1.7 km/h Distance 0.42 km</desc>
<time>2010-02-21T10:08:53.32</time>
<name>257</name>
</trkpt>
<trkpt lat="48.943863" lon="8.661955">
<ele>327.0</ele>
<speed>1.5</speed>
<course>270.0</course>
<desc>Speed 1.5 km/h Distance 0.42 km</desc>
<time>2010-02-21T10:08:54.32</time>
<name>258</name>
</trkpt>
<trkpt lat="48.943863" lon="8.661953">
<ele>327.5</ele>
<speed>0.5</speed>
<course>270.0</course>
<desc>Speed 0.5 km/h Distance 0.42 km</desc>
<time>2010-02-21T10:08:55.38</time>
<name>259</name>
</trkpt>
<trkpt lat="48.943863" lon="8.661947">
<ele>327.5</ele>
<speed>1.7</speed>
<course>290.8</course>
<desc>Speed 1.7 km/h Distance 0.42 km</desc>
<time>2010-02-21T10:08:56.34</time>
<name>260</name>
</trkpt>
<trkpt lat="48.943868" lon="8.661927">
<ele>328.0</ele>
<speed>2.3</speed>
<course>278.7</course>
<desc>Speed 2.3 km/h Distance 0.42 km</desc>
<time>2010-02-21T10:08:57.34</time>
<name>261</name>
</trkpt>
<trkpt lat="48.943870" lon="8.661910">
<ele>328.5</ele>
<speed>2.7</speed>
<course>251.3</course>
<desc>Speed 2.7 km/h Distance 0.42 km</desc>
<time>2010-02-21T10:08:58.34</time>
<name>262</name>
</trkpt>
<trkpt lat="48.943867" lon="8.661895">
<ele>328.0</ele>
<speed>3.2</speed>
<course>251.3</course>
<desc>Speed 3.2 km/h Distance 0.42 km</desc>
<time>2010-02-21T10:08:59.34</time>
<name>263</name>
</trkpt>
<trkpt lat="48.943863" lon="8.661880">
<ele>327.5</ele>
<speed>4.2</speed>
<course>246.5</course>
<desc>Speed 4.2 km/h Distance 0.42 km</desc>
<time>2010-02-21T10:09:00.38</time>
<name>264</name>
</trkpt>
<trkpt lat="48.943860" lon="8.661868">
<ele>327.0</ele>
<speed>2.5</speed>
<course>12.6</course>
<desc>Speed 2.5 km/h Distance 0.42 km</desc>
<time>2010-02-21T10:09:01.34</time>
<name>265</name>
</trkpt>
<trkpt lat="48.943862" lon="8.661868">
<ele>327.0</ele>
<speed>0.1</speed>
<course>270.0</course>
<desc>Speed 0.1 km/h Distance 0.42 km</desc>
<time>2010-02-21T10:09:02.34</time>
<name>266</name>
</trkpt>
<trkpt lat="48.943862" lon="8.661867">
<ele>327.5</ele>
<speed>0.2</speed>
<course>270.0</course>
<desc>Speed 0.2 km/h Distance 0.43 km</desc>
<time>2010-02-21T10:09:03.34</time>
<name>267</name>
</trkpt>
<trkpt lat="48.943862" lon="8.661867">
<ele>327.0</ele>
<speed>0.2</speed>
<course>270.0</course>
<desc>Speed 0.2 km/h Distance 0.43 km</desc>
<time>2010-02-21T10:09:04.34</time>
<name>268</name>
</trkpt>
<trkpt lat="48.943862" lon="8.661865">
<ele>327.0</ele>
<speed>0.3</speed>
<course>270.0</course>
<desc>Speed 0.3 km/h Distance 0.43 km</desc>
<time>2010-02-21T10:09:05.38</time>
<name>269</name>
</trkpt>
<trkpt lat="48.943862" lon="8.661865">
<ele>327.5</ele>
<speed>0.2</speed>
<course>270.0</course>
<desc>Speed 0.2 km/h Distance 0.43 km</desc>
<time>2010-02-21T10:09:06.34</time>
<name>270</name>
</trkpt>
<trkpt lat="48.943862" lon="8.661863">
<ele>327.5</ele>
<speed>0.3</speed>
<course>270.0</course>
<desc>Speed 0.3 km/h Distance 0.43 km</desc>
<time>2010-02-21T10:09:07.34</time>
<name>271</name>
</trkpt>
<trkpt lat="48.943862" lon="8.661862">
<ele>327.5</ele>
<speed>0.2</speed>
<course>270.0</course>
<desc>Speed 0.2 km/h Distance 0.43 km</desc>
<time>2010-02-21T10:09:08.34</time>
<name>272</name>
</trkpt>
<trkpt lat="48.943862" lon="8.661858">
<ele>327.5</ele>
<speed>0.1</speed>
<course>270.0</course>
<desc>Speed 0.1 km/h Distance 0.43 km</desc>
<time>2010-02-21T10:09:09.34</time>
<name>273</name>
</trkpt>
<trkpt lat="48.943862" lon="8.661847">
<ele>328.5</ele>
<speed>0.8</speed>
<course>255.9</course>
<desc>Speed 0.8 km/h Distance 0.43 km</desc>
<time>2010-02-21T10:09:10.34</time>
<name>274</name>
</trkpt>
<trkpt lat="48.943860" lon="8.661837">
<ele>329.0</ele>
<speed>1.9</speed>
<course>213.2</course>
<desc>Speed 1.9 km/h Distance 0.43 km</desc>
<time>2010-02-21T10:09:11.56</time>
<name>275</name>
</trkpt>
<trkpt lat="48.943850" lon="8.661827">
<ele>327.5</ele>
<speed>3.3</speed>
<course>219.4</course>
<desc>Speed 3.3 km/h Distance 0.43 km</desc>
<time>2010-02-21T10:09:12.42</time>
<name>276</name>
</trkpt>
<trkpt lat="48.943843" lon="8.661818">
<ele>327.5</ele>
<speed>3.5</speed>
<course>217.5</course>
<desc>Speed 3.5 km/h Distance 0.43 km</desc>
<time>2010-02-21T10:09:13.42</time>
<name>277</name>
</trkpt>
<trkpt lat="48.943833" lon="8.661807">
<ele>328.0</ele>
<speed>4.5</speed>
<course>236.1</course>
<desc>Speed 4.5 km/h Distance 0.43 km</desc>
<time>2010-02-21T10:09:14.42</time>
<name>278</name>
</trkpt>
<trkpt lat="48.943827" lon="8.661792">
<ele>328.0</ele>
<speed>4.5</speed>
<course>241.0</course>
<desc>Speed 4.5 km/h Distance 0.43 km</desc>
<time>2010-02-21T10:09:15.42</time>
<name>279</name>
</trkpt>
<trkpt lat="48.943820" lon="8.661773">
<ele>329.5</ele>
<speed>4.7</speed>
<course>232.7</course>
<desc>Speed 4.7 km/h Distance 0.43 km</desc>
<time>2010-02-21T10:09:16.48</time>
<name>280</name>
</trkpt>
<trkpt lat="48.943813" lon="8.661760">
<ele>329.5</ele>
<speed>4.6</speed>
<course>235.3</course>
<desc>Speed 4.6 km/h Distance 0.44 km</desc>
<time>2010-02-21T10:09:17.42</time>
<name>281</name>
</trkpt>
<trkpt lat="48.943805" lon="8.661742">
<ele>329.0</ele>
<speed>5.2</speed>
<course>240.3</course>
<desc>Speed 5.2 km/h Distance 0.44 km</desc>
<time>2010-02-21T10:09:18.42</time>
<name>282</name>
</trkpt>
<trkpt lat="48.943795" lon="8.661715">
<ele>329.0</ele>
<speed>3.5</speed>
<course>236.9</course>
<desc>Speed 3.5 km/h Distance 0.44 km</desc>
<time>2010-02-21T10:09:19.92</time>
<name>283</name>
</trkpt>
<trkpt lat="48.943790" lon="8.661703">
<ele>329.0</ele>
<speed>3.3</speed>
<course>236.0</course>
<desc>Speed 3.3 km/h Distance 0.44 km</desc>
<time>2010-02-21T10:09:20.91</time>
<name>284</name>
</trkpt>
<trkpt lat="48.943783" lon="8.661688">
<ele>329.0</ele>
<speed>3.9</speed>
<course>228.9</course>
<desc>Speed 3.9 km/h Distance 0.44 km</desc>
<time>2010-02-21T10:09:21.91</time>
<name>285</name>
</trkpt>
<trkpt lat="48.943777" lon="8.661677">
<ele>329.5</ele>
<speed>3.8</speed>
<course>246.5</course>
<desc>Speed 3.8 km/h Distance 0.44 km</desc>
<time>2010-02-21T10:09:22.91</time>
<name>286</name>
</trkpt>
<trkpt lat="48.943773" lon="8.661665">
<ele>329.0</ele>
<speed>2.7</speed>
<course>240.3</course>
<desc>Speed 2.7 km/h Distance 0.44 km</desc>
<time>2010-02-21T10:09:23.99</time>
<name>287</name>
</trkpt>
<trkpt lat="48.943768" lon="8.661652">
<ele>329.0</ele>
<speed>3.1</speed>
<course>213.2</course>
<desc>Speed 3.1 km/h Distance 0.44 km</desc>
<time>2010-02-21T10:09:24.91</time>
<name>288</name>
</trkpt>
<trkpt lat="48.943758" lon="8.661642">
<ele>329.0</ele>
<speed>4.8</speed>
<course>224.5</course>
<desc>Speed 4.8 km/h Distance 0.45 km</desc>
<time>2010-02-21T10:09:25.91</time>
<name>289</name>
</trkpt>
<trkpt lat="48.943752" lon="8.661632">
<ele>329.0</ele>
<speed>4.8</speed>
<course>219.4</course>
<desc>Speed 4.8 km/h Distance 0.45 km</desc>
<time>2010-02-21T10:09:26.91</time>
<name>290</name>
</trkpt>
<trkpt lat="48.943745" lon="8.661623">
<ele>329.0</ele>
<speed>4.8</speed>
<course>218.4</course>
<desc>Speed 4.8 km/h Distance 0.45 km</desc>
<time>2010-02-21T10:09:27.90</time>
<name>291</name>
</trkpt>
<trkpt lat="48.943737" lon="8.661613">
<ele>329.0</ele>
<speed>4.8</speed>
<course>239.4</course>
<desc>Speed 4.8 km/h Distance 0.45 km</desc>
<time>2010-02-21T10:09:28.98</time>
<name>292</name>
</trkpt>
<trkpt lat="48.943725" lon="8.661583">
<ele>328.5</ele>
<speed>0.6</speed>
<course>270.0</course>
<desc>Speed 0.6 km/h Distance 0.45 km</desc>
<time>2010-02-21T10:09:30.91</time>
<name>293</name>
</trkpt>
<trkpt lat="48.943725" lon="8.661562">
<ele>327.0</ele>
<speed>1.2</speed>
<course>270.0</course>
<desc>Speed 1.2 km/h Distance 0.45 km</desc>
<time>2010-02-21T10:09:32.02</time>
<name>294</name>
</trkpt>
<trkpt lat="48.943725" lon="8.661562">
<ele>327.0</ele>
<speed>1.2</speed>
<course>252.2</course>
<desc>Speed 1.2 km/h Distance 0.45 km</desc>
<time>2010-02-21T10:09:32.45</time>
<name>295</name>
</trkpt>
<trkpt lat="48.943718" lon="8.661530">
<ele>325.5</ele>
<speed>2.7</speed>
<course>249.1</course>
<desc>Speed 2.7 km/h Distance 0.46 km</desc>
<time>2010-02-21T10:09:33.90</time>
<name>296</name>
</trkpt>
<trkpt lat="48.943715" lon="8.661517">
<ele>324.5</ele>
<speed>2.5</speed>
<course>246.5</course>
<desc>Speed 2.5 km/h Distance 0.46 km</desc>
<time>2010-02-21T10:09:34.90</time>
<name>297</name>
</trkpt>
<trkpt lat="48.943712" lon="8.661505">
<ele>323.0</ele>
<speed>2.1</speed>
<course>217.2</course>
<desc>Speed 2.1 km/h Distance 0.46 km</desc>
<time>2010-02-21T10:09:35.90</time>
<name>298</name>
</trkpt>
<trkpt lat="48.943710" lon="8.661503">
<ele>323.0</ele>
<speed>0.6</speed>
<course>322.8</course>
<desc>Speed 0.6 km/h Distance 0.46 km</desc>
<time>2010-02-21T10:09:36.89</time>
<name>299</name>
</trkpt>
<trkpt lat="48.943712" lon="8.661502">
<ele>323.5</ele>
<speed>0.3</speed>
<course>244.1</course>
<desc>Speed 0.3 km/h Distance 0.46 km</desc>
<time>2010-02-21T10:09:37.89</time>
<name>300</name>
</trkpt>
<trkpt lat="48.943710" lon="8.661497">
<ele>323.0</ele>
<speed>1.1</speed>
<course>224.5</course>
<desc>Speed 1.1 km/h Distance 0.46 km</desc>
<time>2010-02-21T10:09:38.92</time>
<name>301</name>
</trkpt>
<trkpt lat="48.943703" lon="8.661487">
<ele>323.0</ele>
<speed>3.3</speed>
<course>244.9</course>
<desc>Speed 3.3 km/h Distance 0.46 km</desc>
<time>2010-02-21T10:09:39.89</time>
<name>302</name>
</trkpt>
<trkpt lat="48.943697" lon="8.661465">
<ele>323.0</ele>
<speed>4.6</speed>
<course>279.6</course>
<desc>Speed 4.6 km/h Distance 0.46 km</desc>
<time>2010-02-21T10:09:40.90</time>
<name>303</name>
</trkpt>
<trkpt lat="48.943698" lon="8.661450">
<ele>323.5</ele>
<speed>3.2</speed>
<course>146.8</course>
<desc>Speed 3.2 km/h Distance 0.46 km</desc>
<time>2010-02-21T10:09:41.89</time>
<name>304</name>
</trkpt>
<trkpt lat="48.943693" lon="8.661455">
<ele>324.5</ele>
<speed>2.7</speed>
<course>233.0</course>
<desc>Speed 2.7 km/h Distance 0.46 km</desc>
<time>2010-02-21T10:09:42.89</time>
<name>305</name>
</trkpt>
<trkpt lat="48.943690" lon="8.661448">
<ele>324.5</ele>
<speed>1.9</speed>
<course>232.8</course>
<desc>Speed 1.9 km/h Distance 0.46 km</desc>
<time>2010-02-21T10:09:43.89</time>
<name>306</name>
</trkpt>
<trkpt lat="48.943685" lon="8.661438">
<ele>324.5</ele>
<speed>3.3</speed>
<course>235.5</course>
<desc>Speed 3.3 km/h Distance 0.46 km</desc>
<time>2010-02-21T10:09:44.89</time>
<name>307</name>
</trkpt>
<trkpt lat="48.943662" lon="8.661387">
<ele>326.0</ele>
<speed>4.1</speed>
<course>222.9</course>
<desc>Speed 4.1 km/h Distance 0.47 km</desc>
<time>2010-02-21T10:09:46.88</time>
<name>308</name>
</trkpt>
<trkpt lat="48.943642" lon="8.661358">
<ele>325.5</ele>
<speed>10.6</speed>
<course>243.1</course>
<desc>Speed 10.6 km/h Distance 0.47 km</desc>
<time>2010-02-21T10:09:47.88</time>
<name>309</name>
</trkpt>
<trkpt lat="48.943637" lon="8.661343">
<ele>325.0</ele>
<speed>3.5</speed>
<course>243.0</course>
<desc>Speed 3.5 km/h Distance 0.47 km</desc>
<time>2010-02-21T10:09:48.88</time>
<name>310</name>
</trkpt>
<trkpt lat="48.943633" lon="8.661333">
<ele>324.0</ele>
<speed>1.8</speed>
<course>224.5</course>
<desc>Speed 1.8 km/h Distance 0.47 km</desc>
<time>2010-02-21T10:09:49.87</time>
<name>311</name>
</trkpt>
<trkpt lat="48.943630" lon="8.661328">
<ele>322.5</ele>
<speed>1.3</speed>
<course>216.3</course>
<desc>Speed 1.3 km/h Distance 0.47 km</desc>
<time>2010-02-21T10:09:50.88</time>
<name>312</name>
</trkpt>
<trkpt lat="48.943602" lon="8.661297">
<ele>322.0</ele>
<speed>2.3</speed>
<course>270.0</course>
<desc>Speed 2.3 km/h Distance 0.48 km</desc>
<time>2010-02-21T10:09:52.88</time>
<name>313</name>
</trkpt>
<trkpt lat="48.943602" lon="8.661293">
<ele>322.0</ele>
<speed>0.6</speed>
<course>252.9</course>
<desc>Speed 0.6 km/h Distance 0.48 km</desc>
<time>2010-02-21T10:09:53.87</time>
<name>314</name>
</trkpt>
<trkpt lat="48.943600" lon="8.661285">
<ele>322.5</ele>
<speed>0.1</speed>
<course>232.8</course>
<desc>Speed 0.1 km/h Distance 0.48 km</desc>
<time>2010-02-21T10:09:54.87</time>
<name>315</name>
</trkpt>
<trkpt lat="48.943595" lon="8.661275">
<ele>323.0</ele>
<speed>0.3</speed>
<course>262.1</course>
<desc>Speed 0.3 km/h Distance 0.48 km</desc>
<time>2010-02-21T10:09:55.87</time>
<name>316</name>
</trkpt>
<trkpt lat="48.943593" lon="8.661257">
<ele>323.0</ele>
<speed>0.3</speed>
<course>8.2</course>
<desc>Speed 0.3 km/h Distance 0.48 km</desc>
<time>2010-02-21T10:09:57.12</time>
<name>317</name>
</trkpt>
<trkpt lat="48.943632" lon="8.661265">
<ele>323.0</ele>
<speed>10.1</speed>
<course>259.2</course>
<desc>Speed 10.1 km/h Distance 0.49 km</desc>
<time>2010-02-21T10:09:58.87</time>
<name>318</name>
</trkpt>
<trkpt lat="48.943630" lon="8.661252">
<ele>323.0</ele>
<speed>2.2</speed>
<course>227.8</course>
<desc>Speed 2.2 km/h Distance 0.49 km</desc>
<time>2010-02-21T10:10:00.06</time>
<name>319</name>
</trkpt>
<trkpt lat="48.943625" lon="8.661243">
<ele>323.0</ele>
<speed>2.3</speed>
<course>176.2</course>
<desc>Speed 2.3 km/h Distance 0.49 km</desc>
<time>2010-02-21T10:10:00.86</time>
<name>320</name>
</trkpt>
<trkpt lat="48.943610" lon="8.661245">
<ele>323.0</ele>
<speed>5.0</speed>
<course>206.4</course>
<desc>Speed 5.0 km/h Distance 0.49 km</desc>
<time>2010-02-21T10:10:01.87</time>
<name>321</name>
</trkpt>
<trkpt lat="48.943603" lon="8.661240">
<ele>323.0</ele>
<speed>0.8</speed>
<course>236.9</course>
<desc>Speed 0.8 km/h Distance 0.49 km</desc>
<time>2010-02-21T10:10:02.87</time>
<name>322</name>
</trkpt>
<trkpt lat="48.943593" lon="8.661217">
<ele>323.0</ele>
<speed>6.6</speed>
<course>221.8</course>
<desc>Speed 6.6 km/h Distance 0.49 km</desc>
<time>2010-02-21T10:10:03.86</time>
<name>323</name>
</trkpt>
<trkpt lat="48.943552" lon="8.661160">
<ele>323.5</ele>
<speed>3.9</speed>
<course>229.0</course>
<desc>Speed 3.9 km/h Distance 0.50 km</desc>
<time>2010-02-21T10:10:05.86</time>
<name>324</name>
</trkpt>
<trkpt lat="48.943538" lon="8.661137">
<ele>323.5</ele>
<speed>3.7</speed>
<course>223.2</course>
<desc>Speed 3.7 km/h Distance 0.50 km</desc>
<time>2010-02-21T10:10:06.86</time>
<name>325</name>
</trkpt>
<trkpt lat="48.943527" lon="8.661120">
<ele>322.5</ele>
<speed>2.3</speed>
<course>222.6</course>
<desc>Speed 2.3 km/h Distance 0.50 km</desc>
<time>2010-02-21T10:10:07.85</time>
<name>326</name>
</trkpt>
<trkpt lat="48.943518" lon="8.661108">
<ele>322.0</ele>
<speed>2.4</speed>
<course>227.8</course>
<desc>Speed 2.4 km/h Distance 0.50 km</desc>
<time>2010-02-21T10:10:08.85</time>
<name>327</name>
</trkpt>
<trkpt lat="48.943513" lon="8.661100">
<ele>322.5</ele>
<speed>2.5</speed>
<course>229.1</course>
<desc>Speed 2.5 km/h Distance 0.50 km</desc>
<time>2010-02-21T10:10:10.10</time>
<name>328</name>
</trkpt>
<trkpt lat="48.943507" lon="8.661088">
<ele>322.5</ele>
<speed>2.9</speed>
<course>242.6</course>
<desc>Speed 2.9 km/h Distance 0.51 km</desc>
<time>2010-02-21T10:10:10.86</time>
<name>329</name>
</trkpt>
<trkpt lat="48.943505" lon="8.661083">
<ele>322.5</ele>
<speed>0.4</speed>
<course>220.9</course>
<desc>Speed 0.4 km/h Distance 0.51 km</desc>
<time>2010-02-21T10:10:11.85</time>
<name>330</name>
</trkpt>
<trkpt lat="48.943500" lon="8.661077">
<ele>322.5</ele>
<speed>0.6</speed>
<course>236.7</course>
<desc>Speed 0.6 km/h Distance 0.51 km</desc>
<time>2010-02-21T10:10:12.92</time>
<name>331</name>
</trkpt>
<trkpt lat="48.943495" lon="8.661065">
<ele>322.5</ele>
<speed>0.4</speed>
<course>235.0</course>
<desc>Speed 0.4 km/h Distance 0.51 km</desc>
<time>2010-02-21T10:10:13.84</time>
<name>332</name>
</trkpt>
<trkpt lat="48.943485" lon="8.661043">
<ele>321.5</ele>
<speed>1.3</speed>
<course>229.1</course>
<desc>Speed 1.3 km/h Distance 0.51 km</desc>
<time>2010-02-21T10:10:14.85</time>
<name>333</name>
</trkpt>
<trkpt lat="48.943478" lon="8.661032">
<ele>320.5</ele>
<speed>0.9</speed>
<course>242.6</course>
<desc>Speed 0.9 km/h Distance 0.51 km</desc>
<time>2010-02-21T10:10:15.85</time>
<name>334</name>
</trkpt>
<trkpt lat="48.943477" lon="8.661027">
<ele>320.5</ele>
<speed>0.5</speed>
<course>232.7</course>
<desc>Speed 0.5 km/h Distance 0.51 km</desc>
<time>2010-02-21T10:10:16.85</time>
<name>335</name>
</trkpt>
<trkpt lat="48.943468" lon="8.661010">
<ele>319.5</ele>
<speed>3.3</speed>
<course>235.4</course>
<desc>Speed 3.3 km/h Distance 0.51 km</desc>
<time>2010-02-21T10:10:17.90</time>
<name>336</name>
</trkpt>
<trkpt lat="48.943460" lon="8.660992">
<ele>319.5</ele>
<speed>4.4</speed>
<course>232.8</course>
<desc>Speed 4.4 km/h Distance 0.51 km</desc>
<time>2010-02-21T10:10:18.84</time>
<name>337</name>
</trkpt>
<trkpt lat="48.943453" lon="8.660978">
<ele>318.0</ele>
<speed>3.1</speed>
<course>229.1</course>
<desc>Speed 3.1 km/h Distance 0.52 km</desc>
<time>2010-02-21T10:10:19.84</time>
<name>338</name>
</trkpt>
<trkpt lat="48.943447" lon="8.660967">
<ele>317.0</ele>
<speed>1.9</speed>
<course>224.5</course>
<desc>Speed 1.9 km/h Distance 0.52 km</desc>
<time>2010-02-21T10:10:20.84</time>
<name>339</name>
</trkpt>
<trkpt lat="48.943440" lon="8.660957">
<ele>316.5</ele>
<speed>2.7</speed>
<course>232.8</course>
<desc>Speed 2.7 km/h Distance 0.52 km</desc>
<time>2010-02-21T10:10:21.84</time>
<name>340</name>
</trkpt>
<trkpt lat="48.943435" lon="8.660947">
<ele>315.5</ele>
<speed>1.3</speed>
<course>270.0</course>
<desc>Speed 1.3 km/h Distance 0.52 km</desc>
<time>2010-02-21T10:10:22.97</time>
<name>341</name>
</trkpt>
<trkpt lat="48.943435" lon="8.660945">
<ele>315.5</ele>
<speed>0.5</speed>
<course>212.3</course>
<desc>Speed 0.5 km/h Distance 0.52 km</desc>
<time>2010-02-21T10:10:23.84</time>
<name>342</name>
</trkpt>
<trkpt lat="48.943430" lon="8.660940">
<ele>315.5</ele>
<speed>1.7</speed>
<course>200.9</course>
<desc>Speed 1.7 km/h Distance 0.52 km</desc>
<time>2010-02-21T10:10:24.83</time>
<name>343</name>
</trkpt>
<trkpt lat="48.943418" lon="8.660933">
<ele>315.5</ele>
<speed>1.8</speed>
<course>206.4</course>
<desc>Speed 1.8 km/h Distance 0.52 km</desc>
<time>2010-02-21T10:10:25.83</time>
<name>344</name>
</trkpt>
<trkpt lat="48.943412" lon="8.660928">
<ele>315.0</ele>
<speed>1.6</speed>
<course>213.2</course>
<desc>Speed 1.6 km/h Distance 0.52 km</desc>
<time>2010-02-21T10:10:26.83</time>
<name>345</name>
</trkpt>
<trkpt lat="48.943405" lon="8.660922">
<ele>314.0</ele>
<speed>1.2</speed>
<course>213.2</course>
<desc>Speed 1.2 km/h Distance 0.52 km</desc>
<time>2010-02-21T10:10:27.92</time>
<name>346</name>
</trkpt>
<trkpt lat="48.943397" lon="8.660913">
<ele>312.5</ele>
<speed>1.1</speed>
<course>213.2</course>
<desc>Speed 1.1 km/h Distance 0.52 km</desc>
<time>2010-02-21T10:10:28.83</time>
<name>347</name>
</trkpt>
<trkpt lat="48.943392" lon="8.660908">
<ele>311.5</ele>
<speed>1.4</speed>
<course>206.4</course>
<desc>Speed 1.4 km/h Distance 0.52 km</desc>
<time>2010-02-21T10:10:29.83</time>
<name>348</name>
</trkpt>
<trkpt lat="48.943385" lon="8.660903">
<ele>311.0</ele>
<speed>2.0</speed>
<course>192.6</course>
<desc>Speed 2.0 km/h Distance 0.53 km</desc>
<time>2010-02-21T10:10:30.83</time>
<name>349</name>
</trkpt>
<trkpt lat="48.943382" lon="8.660902">
<ele>311.0</ele>
<speed>0.6</speed>
<course>207.5</course>
<desc>Speed 0.6 km/h Distance 0.53 km</desc>
<time>2010-02-21T10:10:31.82</time>
<name>350</name>
</trkpt>
<trkpt lat="48.943373" lon="8.660895">
<ele>310.0</ele>
<speed>1.0</speed>
<course>180.0</course>
<desc>Speed 1.0 km/h Distance 0.53 km</desc>
<time>2010-02-21T10:10:32.92</time>
<name>351</name>
</trkpt>
<trkpt lat="48.943367" lon="8.660895">
<ele>309.5</ele>
<speed>1.2</speed>
<course>200.8</course>
<desc>Speed 1.2 km/h Distance 0.53 km</desc>
<time>2010-02-21T10:10:33.82</time>
<name>352</name>
</trkpt>
<trkpt lat="48.943358" lon="8.660890">
<ele>309.0</ele>
<speed>1.8</speed>
<course>213.7</course>
<desc>Speed 1.8 km/h Distance 0.53 km</desc>
<time>2010-02-21T10:10:34.82</time>
<name>353</name>
</trkpt>
<trkpt lat="48.943352" lon="8.660883">
<ele>309.0</ele>
<speed>1.4</speed>
<course>217.5</course>
<desc>Speed 1.4 km/h Distance 0.53 km</desc>
<time>2010-02-21T10:10:35.82</time>
<name>354</name>
</trkpt>
<trkpt lat="48.943342" lon="8.660872">
<ele>308.5</ele>
<speed>2.0</speed>
<course>220.2</course>
<desc>Speed 2.0 km/h Distance 0.53 km</desc>
<time>2010-02-21T10:10:36.81</time>
<name>355</name>
</trkpt>
<trkpt lat="48.943330" lon="8.660857">
<ele>308.0</ele>
<speed>1.7</speed>
<course>219.1</course>
<desc>Speed 1.7 km/h Distance 0.53 km</desc>
<time>2010-02-21T10:10:37.89</time>
<name>356</name>
</trkpt>
<trkpt lat="48.943295" lon="8.660813">
<ele>307.0</ele>
<speed>2.4</speed>
<course>219.7</course>
<desc>Speed 2.4 km/h Distance 0.54 km</desc>
<time>2010-02-21T10:10:39.81</time>
<name>357</name>
</trkpt>
<trkpt lat="48.943263" lon="8.660773">
<ele>306.5</ele>
<speed>2.7</speed>
<course>205.2</course>
<desc>Speed 2.7 km/h Distance 0.54 km</desc>
<time>2010-02-21T10:10:41.81</time>
<name>358</name>
</trkpt>
<trkpt lat="48.943252" lon="8.660765">
<ele>305.5</ele>
<speed>2.5</speed>
<course>224.6</course>
<desc>Speed 2.5 km/h Distance 0.54 km</desc>
<time>2010-02-21T10:10:42.80</time>
<name>359</name>
</trkpt>
<trkpt lat="48.943242" lon="8.660750">
<ele>305.0</ele>
<speed>1.9</speed>
<course>216.5</course>
<desc>Speed 1.9 km/h Distance 0.55 km</desc>
<time>2010-02-21T10:10:43.94</time>
<name>360</name>
</trkpt>
<trkpt lat="48.943228" lon="8.660735">
<ele>304.5</ele>
<speed>1.5</speed>
<course>216.5</course>
<desc>Speed 1.5 km/h Distance 0.55 km</desc>
<time>2010-02-21T10:10:44.80</time>
<name>361</name>
</trkpt>
<trkpt lat="48.943215" lon="8.660720">
<ele>304.0</ele>
<speed>2.7</speed>
<course>210.9</course>
<desc>Speed 2.7 km/h Distance 0.55 km</desc>
<time>2010-02-21T10:10:45.80</time>
<name>362</name>
</trkpt>
<trkpt lat="48.943197" lon="8.660703">
<ele>303.5</ele>
<speed>3.6</speed>
<course>210.9</course>
<desc>Speed 3.6 km/h Distance 0.55 km</desc>
<time>2010-02-21T10:10:46.80</time>
<name>363</name>
</trkpt>
<trkpt lat="48.943158" lon="8.660668">
<ele>304.5</ele>
<speed>2.2</speed>
<course>198.2</course>
<desc>Speed 2.2 km/h Distance 0.56 km</desc>
<time>2010-02-21T10:10:48.92</time>
<name>364</name>
</trkpt>
<trkpt lat="48.943148" lon="8.660663">
<ele>304.0</ele>
<speed>2.3</speed>
<course>165.1</course>
<desc>Speed 2.3 km/h Distance 0.56 km</desc>
<time>2010-02-21T10:10:49.79</time>
<name>365</name>
</trkpt>
<trkpt lat="48.943140" lon="8.660667">
<ele>302.0</ele>
<speed>2.7</speed>
<course>209.4</course>
<desc>Speed 2.7 km/h Distance 0.56 km</desc>
<time>2010-02-21T10:10:50.79</time>
<name>366</name>
</trkpt>
<trkpt lat="48.943128" lon="8.660657">
<ele>302.0</ele>
<speed>1.8</speed>
<course>221.3</course>
<desc>Speed 1.8 km/h Distance 0.56 km</desc>
<time>2010-02-21T10:10:51.79</time>
<name>367</name>
</trkpt>
<trkpt lat="48.943118" lon="8.660643">
<ele>301.0</ele>
<speed>1.3</speed>
<course>202.6</course>
<desc>Speed 1.3 km/h Distance 0.56 km</desc>
<time>2010-02-21T10:10:52.79</time>
<name>368</name>
</trkpt>
<trkpt lat="48.943105" lon="8.660635">
<ele>299.5</ele>
<speed>1.8</speed>
<course>206.4</course>
<desc>Speed 1.8 km/h Distance 0.56 km</desc>
<time>2010-02-21T10:10:53.90</time>
<name>369</name>
</trkpt>
<trkpt lat="48.943098" lon="8.660630">
<ele>299.0</ele>
<speed>2.1</speed>
<course>208.9</course>
<desc>Speed 2.1 km/h Distance 0.56 km</desc>
<time>2010-02-21T10:10:54.81</time>
<name>370</name>
</trkpt>
<trkpt lat="48.943088" lon="8.660622">
<ele>299.0</ele>
<speed>3.8</speed>
<course>213.4</course>
<desc>Speed 3.8 km/h Distance 0.57 km</desc>
<time>2010-02-21T10:10:55.81</time>
<name>371</name>
</trkpt>
<trkpt lat="48.943077" lon="8.660610">
<ele>299.0</ele>
<speed>3.9</speed>
<course>224.6</course>
<desc>Speed 3.9 km/h Distance 0.57 km</desc>
<time>2010-02-21T10:10:56.81</time>
<name>372</name>
</trkpt>
<trkpt lat="48.943067" lon="8.660595">
<ele>299.0</ele>
<speed>3.2</speed>
<course>216.2</course>
<desc>Speed 3.2 km/h Distance 0.57 km</desc>
<time>2010-02-21T10:10:57.81</time>
<name>373</name>
</trkpt>
<trkpt lat="48.943052" lon="8.660578">
<ele>298.5</ele>
<speed>4.1</speed>
<course>200.9</course>
<desc>Speed 4.1 km/h Distance 0.57 km</desc>
<time>2010-02-21T10:10:58.91</time>
<name>374</name>
</trkpt>
<trkpt lat="48.943040" lon="8.660572">
<ele>297.5</ele>
<speed>2.5</speed>
<course>213.3</course>
<desc>Speed 2.5 km/h Distance 0.57 km</desc>
<time>2010-02-21T10:10:59.82</time>
<name>375</name>
</trkpt>
<trkpt lat="48.943027" lon="8.660558">
<ele>296.5</ele>
<speed>2.2</speed>
<course>192.6</course>
<desc>Speed 2.2 km/h Distance 0.57 km</desc>
<time>2010-02-21T10:11:00.82</time>
<name>376</name>
</trkpt>
<trkpt lat="48.943017" lon="8.660555">
<ele>294.0</ele>
<speed>1.0</speed>
<course>216.9</course>
<desc>Speed 1.0 km/h Distance 0.57 km</desc>
<time>2010-02-21T10:11:01.82</time>
<name>377</name>
</trkpt>
<trkpt lat="48.943005" lon="8.660542">
<ele>293.0</ele>
<speed>1.2</speed>
<course>207.9</course>
<desc>Speed 1.2 km/h Distance 0.58 km</desc>
<time>2010-02-21T10:11:02.82</time>
<name>378</name>
</trkpt>
<trkpt lat="48.942997" lon="8.660535">
<ele>292.5</ele>
<speed>1.2</speed>
<course>221.3</course>
<desc>Speed 1.2 km/h Distance 0.58 km</desc>
<time>2010-02-21T10:11:03.94</time>
<name>379</name>
</trkpt>
<trkpt lat="48.942987" lon="8.660522">
<ele>292.5</ele>
<speed>2.1</speed>
<course>207.9</course>
<desc>Speed 2.1 km/h Distance 0.58 km</desc>
<time>2010-02-21T10:11:04.82</time>
<name>380</name>
</trkpt>
<trkpt lat="48.942978" lon="8.660515">
<ele>291.5</ele>
<speed>1.9</speed>
<course>213.3</course>
<desc>Speed 1.9 km/h Distance 0.58 km</desc>
<time>2010-02-21T10:11:05.82</time>
<name>381</name>
</trkpt>
<trkpt lat="48.942967" lon="8.660503">
<ele>291.0</ele>
<speed>2.6</speed>
<course>233.0</course>
<desc>Speed 2.6 km/h Distance 0.58 km</desc>
<time>2010-02-21T10:11:06.82</time>
<name>382</name>
</trkpt>
<trkpt lat="48.942963" lon="8.660497">
<ele>290.5</ele>
<speed>1.4</speed>
<course>238.2</course>
<desc>Speed 1.4 km/h Distance 0.58 km</desc>
<time>2010-02-21T10:11:07.82</time>
<name>383</name>
</trkpt>
<trkpt lat="48.942960" lon="8.660488">
<ele>291.0</ele>
<speed>1.2</speed>
<course>224.5</course>
<desc>Speed 1.2 km/h Distance 0.58 km</desc>
<time>2010-02-21T10:11:08.82</time>
<name>384</name>
</trkpt>
<trkpt lat="48.942957" lon="8.660483">
<ele>291.5</ele>
<speed>1.0</speed>
<course>214.1</course>
<desc>Speed 1.0 km/h Distance 0.58 km</desc>
<time>2010-02-21T10:11:09.82</time>
<name>385</name>
</trkpt>
<trkpt lat="48.942952" lon="8.660478">
<ele>291.0</ele>
<speed>1.5</speed>
<course>243.4</course>
<desc>Speed 1.5 km/h Distance 0.58 km</desc>
<time>2010-02-21T10:11:10.82</time>
<name>386</name>
</trkpt>
<trkpt lat="48.942950" lon="8.660473">
<ele>291.0</ele>
<speed>0.5</speed>
<course>207.9</course>
<desc>Speed 0.5 km/h Distance 0.58 km</desc>
<time>2010-02-21T10:11:11.82</time>
<name>387</name>
</trkpt>
<trkpt lat="48.942942" lon="8.660467">
<ele>291.0</ele>
<speed>2.7</speed>
<course>212.3</course>
<desc>Speed 2.7 km/h Distance 0.59 km</desc>
<time>2010-02-21T10:11:12.82</time>
<name>388</name>
</trkpt>
<trkpt lat="48.942937" lon="8.660462">
<ele>290.5</ele>
<speed>1.8</speed>
<course>207.5</course>
<desc>Speed 1.8 km/h Distance 0.59 km</desc>
<time>2010-02-21T10:11:13.82</time>
<name>389</name>
</trkpt>
<trkpt lat="48.942928" lon="8.660455">
<ele>290.0</ele>
<speed>2.5</speed>
<course>194.9</course>
<desc>Speed 2.5 km/h Distance 0.59 km</desc>
<time>2010-02-21T10:11:14.82</time>
<name>390</name>
</trkpt>
<trkpt lat="48.942920" lon="8.660452">
<ele>290.0</ele>
<speed>2.6</speed>
<course>206.4</course>
<desc>Speed 2.6 km/h Distance 0.59 km</desc>
<time>2010-02-21T10:11:15.82</time>
<name>391</name>
</trkpt>
<trkpt lat="48.942913" lon="8.660447">
<ele>289.0</ele>
<speed>2.2</speed>
<course>212.3</course>
<desc>Speed 2.2 km/h Distance 0.59 km</desc>
<time>2010-02-21T10:11:16.82</time>
<name>392</name>
</trkpt>
<trkpt lat="48.942908" lon="8.660442">
<ele>288.5</ele>
<speed>1.4</speed>
<course>215.8</course>
<desc>Speed 1.4 km/h Distance 0.59 km</desc>
<time>2010-02-21T10:11:17.82</time>
<name>393</name>
</trkpt>
<trkpt lat="48.942858" lon="8.660387">
<ele>295.0</ele>
<speed>2.5</speed>
<course>216.9</course>
<desc>Speed 2.5 km/h Distance 0.60 km</desc>
<time>2010-02-21T10:11:19.82</time>
<name>394</name>
</trkpt>
<trkpt lat="48.942812" lon="8.660333">
<ele>301.5</ele>
<speed>0.2</speed>
<course>219.9</course>
<desc>Speed 0.2 km/h Distance 0.60 km</desc>
<time>2010-02-21T10:11:21.82</time>
<name>395</name>
</trkpt>
<trkpt lat="48.942775" lon="8.660287">
<ele>308.0</ele>
<speed>0.3</speed>
<course>212.3</course>
<desc>Speed 0.3 km/h Distance 0.61 km</desc>
<time>2010-02-21T10:11:23.82</time>
<name>396</name>
</trkpt>
<trkpt lat="48.942770" lon="8.660282">
<ele>309.0</ele>
<speed>0.4</speed>
<course>220.9</course>
<desc>Speed 0.4 km/h Distance 0.61 km</desc>
<time>2010-02-21T10:11:24.82</time>
<name>397</name>
</trkpt>
<trkpt lat="48.942765" lon="8.660275">
<ele>309.5</ele>
<speed>0.3</speed>
<course>206.4</course>
<desc>Speed 0.3 km/h Distance 0.61 km</desc>
<time>2010-02-21T10:11:25.82</time>
<name>398</name>
</trkpt>
<trkpt lat="48.942758" lon="8.660270">
<ele>310.5</ele>
<speed>0.3</speed>
<course>207.9</course>
<desc>Speed 0.3 km/h Distance 0.61 km</desc>
<time>2010-02-21T10:11:26.82</time>
<name>399</name>
</trkpt>
<trkpt lat="48.942750" lon="8.660263">
<ele>311.5</ele>
<speed>0.2</speed>
<course>222.6</course>
<desc>Speed 0.2 km/h Distance 0.61 km</desc>
<time>2010-02-21T10:11:27.82</time>
<name>400</name>
</trkpt>
<trkpt lat="48.942742" lon="8.660252">
<ele>312.0</ele>
<speed>0.5</speed>
<course>213.3</course>
<desc>Speed 0.5 km/h Distance 0.61 km</desc>
<time>2010-02-21T10:11:28.82</time>
<name>401</name>
</trkpt>
<trkpt lat="48.942708" lon="8.660218">
<ele>314.0</ele>
<speed>0.9</speed>
<course>153.6</course>
<desc>Speed 0.9 km/h Distance 0.62 km</desc>
<time>2010-02-21T10:11:30.82</time>
<name>402</name>
</trkpt>
<trkpt lat="48.942702" lon="8.660223">
<ele>313.5</ele>
<speed>3.0</speed>
<course>242.6</course>
<desc>Speed 3.0 km/h Distance 0.62 km</desc>
<time>2010-02-21T10:11:31.82</time>
<name>403</name>
</trkpt>
<trkpt lat="48.942700" lon="8.660218">
<ele>313.5</ele>
<speed>0.2</speed>
<course>217.2</course>
<desc>Speed 0.2 km/h Distance 0.62 km</desc>
<time>2010-02-21T10:11:32.82</time>
<name>404</name>
</trkpt>
<trkpt lat="48.942698" lon="8.660217">
<ele>313.5</ele>
<speed>0.2</speed>
<course>231.9</course>
<desc>Speed 0.2 km/h Distance 0.62 km</desc>
<time>2010-02-21T10:11:33.82</time>
<name>405</name>
</trkpt>
<trkpt lat="48.942697" lon="8.660213">
<ele>314.0</ele>
<speed>0.3</speed>
<course>231.9</course>
<desc>Speed 0.3 km/h Distance 0.62 km</desc>
<time>2010-02-21T10:11:34.82</time>
<name>406</name>
</trkpt>
<trkpt lat="48.942695" lon="8.660210">
<ele>314.0</ele>
<speed>0.1</speed>
<course>209.2</course>
<desc>Speed 0.1 km/h Distance 0.62 km</desc>
<time>2010-02-21T10:11:35.82</time>
<name>407</name>
</trkpt>
<trkpt lat="48.942693" lon="8.660208">
<ele>314.0</ele>
<speed>0.3</speed>
<course>270.0</course>
<desc>Speed 0.3 km/h Distance 0.62 km</desc>
<time>2010-02-21T10:11:36.82</time>
<name>408</name>
</trkpt>
<trkpt lat="48.942693" lon="8.660207">
<ele>314.0</ele>
<speed>0.2</speed>
<course>270.0</course>
<desc>Speed 0.2 km/h Distance 0.62 km</desc>
<time>2010-02-21T10:11:37.82</time>
<name>409</name>
</trkpt>
<trkpt lat="48.942693" lon="8.660205">
<ele>314.0</ele>
<speed>0.4</speed>
<course>213.7</course>
<desc>Speed 0.4 km/h Distance 0.62 km</desc>
<time>2010-02-21T10:11:38.82</time>
<name>410</name>
</trkpt>
<trkpt lat="48.942690" lon="8.660202">
<ele>314.0</ele>
<speed>0.2</speed>
<course>213.4</course>
<desc>Speed 0.2 km/h Distance 0.62 km</desc>
<time>2010-02-21T10:11:39.82</time>
<name>411</name>
</trkpt>
<trkpt lat="48.942678" lon="8.660190">
<ele>314.0</ele>
<speed>1.5</speed>
<course>233.0</course>
<desc>Speed 1.5 km/h Distance 0.62 km</desc>
<time>2010-02-21T10:11:40.82</time>
<name>412</name>
</trkpt>
<trkpt lat="48.942675" lon="8.660183">
<ele>313.5</ele>
<speed>0.5</speed>
<course>141.8</course>
<desc>Speed 0.5 km/h Distance 0.62 km</desc>
<time>2010-02-21T10:11:41.82</time>
<name>413</name>
</trkpt>
<trkpt lat="48.942565" lon="8.660315">
<ele>313.5</ele>
<speed>0.6</speed>
<course>219.4</course>
<desc>Speed 0.6 km/h Distance 0.64 km</desc>
<time>2010-02-21T10:11:44.82</time>
<name>414</name>
</trkpt>
<trkpt lat="48.942558" lon="8.660307">
<ele>313.5</ele>
<speed>0.3</speed>
<course>156.2</course>
<desc>Speed 0.3 km/h Distance 0.64 km</desc>
<time>2010-02-21T10:11:45.82</time>
<name>415</name>
</trkpt>
<trkpt lat="48.942553" lon="8.660310">
<ele>313.5</ele>
<speed>0.9</speed>
<course>270.0</course>
<desc>Speed 0.9 km/h Distance 0.64 km</desc>
<time>2010-02-21T10:11:46.82</time>
<name>416</name>
</trkpt>
<trkpt lat="48.942553" lon="8.660305">
<ele>314.0</ele>
<speed>1.0</speed>
<course>194.9</course>
<desc>Speed 1.0 km/h Distance 0.64 km</desc>
<time>2010-02-21T10:11:47.82</time>
<name>417</name>
</trkpt>
<trkpt lat="48.942545" lon="8.660302">
<ele>314.0</ele>
<speed>2.7</speed>
<course>257.7</course>
<desc>Speed 2.7 km/h Distance 0.64 km</desc>
<time>2010-02-21T10:11:48.82</time>
<name>418</name>
</trkpt>
<trkpt lat="48.942543" lon="8.660290">
<ele>314.0</ele>
<speed>2.5</speed>
<course>192.6</course>
<desc>Speed 2.5 km/h Distance 0.64 km</desc>
<time>2010-02-21T10:11:49.82</time>
<name>419</name>
</trkpt>
<trkpt lat="48.942533" lon="8.660287">
<ele>314.5</ele>
<speed>3.1</speed>
<course>212.3</course>
<desc>Speed 3.1 km/h Distance 0.64 km</desc>
<time>2010-02-21T10:11:50.82</time>
<name>420</name>
</trkpt>
<trkpt lat="48.942528" lon="8.660282">
<ele>314.5</ele>
<speed>2.9</speed>
<course>279.6</course>
<desc>Speed 2.9 km/h Distance 0.64 km</desc>
<time>2010-02-21T10:11:51.82</time>
<name>421</name>
</trkpt>
<trkpt lat="48.942530" lon="8.660267">
<ele>314.0</ele>
<speed>1.8</speed>
<course>276.4</course>
<desc>Speed 1.8 km/h Distance 0.64 km</desc>
<time>2010-02-21T10:11:52.82</time>
<name>422</name>
</trkpt>
<trkpt lat="48.942533" lon="8.660222">
<ele>313.0</ele>
<speed>3.5</speed>
<course>240.3</course>
<desc>Speed 3.5 km/h Distance 0.65 km</desc>
<time>2010-02-21T10:11:54.82</time>
<name>423</name>
</trkpt>
<trkpt lat="48.942528" lon="8.660208">
<ele>313.5</ele>
<speed>3.3</speed>
<course>270.0</course>
<desc>Speed 3.3 km/h Distance 0.65 km</desc>
<time>2010-02-21T10:11:55.82</time>
<name>424</name>
</trkpt>
<trkpt lat="48.942528" lon="8.660197">
<ele>313.5</ele>
<speed>1.9</speed>
<course>290.8</course>
<desc>Speed 1.9 km/h Distance 0.65 km</desc>
<time>2010-02-21T10:11:56.82</time>
<name>425</name>
</trkpt>
<trkpt lat="48.942533" lon="8.660177">
<ele>312.5</ele>
<speed>1.6</speed>
<course>270.0</course>
<desc>Speed 1.6 km/h Distance 0.65 km</desc>
<time>2010-02-21T10:11:57.82</time>
<name>426</name>
</trkpt>
<trkpt lat="48.942533" lon="8.660155">
<ele>312.0</ele>
<speed>3.1</speed>
<course>253.1</course>
<desc>Speed 3.1 km/h Distance 0.65 km</desc>
<time>2010-02-21T10:11:58.82</time>
<name>427</name>
</trkpt>
<trkpt lat="48.942530" lon="8.660138">
<ele>311.5</ele>
<speed>3.1</speed>
<course>213.2</course>
<desc>Speed 3.1 km/h Distance 0.65 km</desc>
<time>2010-02-21T10:11:59.82</time>
<name>428</name>
</trkpt>
<trkpt lat="48.942520" lon="8.660128">
<ele>311.5</ele>
<speed>3.5</speed>
<course>213.2</course>
<desc>Speed 3.5 km/h Distance 0.66 km</desc>
<time>2010-02-21T10:12:00.82</time>
<name>429</name>
</trkpt>
<trkpt lat="48.942510" lon="8.660118">
<ele>311.5</ele>
<speed>3.7</speed>
<course>219.4</course>
<desc>Speed 3.7 km/h Distance 0.66 km</desc>
<time>2010-02-21T10:12:01.82</time>
<name>430</name>
</trkpt>
<trkpt lat="48.942503" lon="8.660110">
<ele>310.5</ele>
<speed>3.0</speed>
<course>213.2</course>
<desc>Speed 3.0 km/h Distance 0.66 km</desc>
<time>2010-02-21T10:12:02.82</time>
<name>431</name>
</trkpt>
<trkpt lat="48.942495" lon="8.660102">
<ele>309.5</ele>
<speed>4.3</speed>
<course>219.4</course>
<desc>Speed 4.3 km/h Distance 0.66 km</desc>
<time>2010-02-21T10:12:03.82</time>
<name>432</name>
</trkpt>
<trkpt lat="48.942488" lon="8.660093">
<ele>309.5</ele>
<speed>2.8</speed>
<course>184.4</course>
<desc>Speed 2.8 km/h Distance 0.66 km</desc>
<time>2010-02-21T10:12:04.82</time>
<name>433</name>
</trkpt>
<trkpt lat="48.942478" lon="8.660092">
<ele>307.5</ele>
<speed>4.0</speed>
<course>172.6</course>
<desc>Speed 4.0 km/h Distance 0.66 km</desc>
<time>2010-02-21T10:12:05.82</time>
<name>434</name>
</trkpt>
<trkpt lat="48.942472" lon="8.660093">
<ele>306.5</ele>
<speed>3.0</speed>
<course>190.3</course>
<desc>Speed 3.0 km/h Distance 0.66 km</desc>
<time>2010-02-21T10:12:06.82</time>
<name>435</name>
</trkpt>
<trkpt lat="48.942465" lon="8.660092">
<ele>306.0</ele>
<speed>2.7</speed>
<course>167.4</course>
<desc>Speed 2.7 km/h Distance 0.66 km</desc>
<time>2010-02-21T10:12:07.82</time>
<name>436</name>
</trkpt>
<trkpt lat="48.942460" lon="8.660093">
<ele>304.5</ele>
<speed>2.1</speed>
<course>154.4</course>
<desc>Speed 2.1 km/h Distance 0.66 km</desc>
<time>2010-02-21T10:12:08.82</time>
<name>437</name>
</trkpt>
<trkpt lat="48.942453" lon="8.660098">
<ele>302.5</ele>
<speed>2.4</speed>
<course>172.3</course>
<desc>Speed 2.4 km/h Distance 0.66 km</desc>
<time>2010-02-21T10:12:09.82</time>
<name>438</name>
</trkpt>
<trkpt lat="48.942445" lon="8.660100">
<ele>301.5</ele>
<speed>3.1</speed>
<course>175.0</course>
<desc>Speed 3.1 km/h Distance 0.66 km</desc>
<time>2010-02-21T10:12:10.82</time>
<name>439</name>
</trkpt>
<trkpt lat="48.942437" lon="8.660100">
<ele>300.5</ele>
<speed>3.0</speed>
<course>180.0</course>
<desc>Speed 3.0 km/h Distance 0.67 km</desc>
<time>2010-02-21T10:12:11.82</time>
<name>440</name>
</trkpt>
<trkpt lat="48.942428" lon="8.660100">
<ele>300.0</ele>
<speed>3.1</speed>
<course>185.0</course>
<desc>Speed 3.1 km/h Distance 0.67 km</desc>
<time>2010-02-21T10:12:12.82</time>
<name>441</name>
</trkpt>
<trkpt lat="48.942420" lon="8.660098">
<ele>300.5</ele>
<speed>3.3</speed>
<course>180.0</course>
<desc>Speed 3.3 km/h Distance 0.67 km</desc>
<time>2010-02-21T10:12:13.82</time>
<name>442</name>
</trkpt>
<trkpt lat="48.942408" lon="8.660098">
<ele>300.5</ele>
<speed>3.8</speed>
<course>180.0</course>
<desc>Speed 3.8 km/h Distance 0.67 km</desc>
<time>2010-02-21T10:12:14.82</time>
<name>443</name>
</trkpt>
<trkpt lat="48.942397" lon="8.660098">
<ele>300.5</ele>
<speed>3.9</speed>
<course>180.0</course>
<desc>Speed 3.9 km/h Distance 0.67 km</desc>
<time>2010-02-21T10:12:15.82</time>
<name>444</name>
</trkpt>
<trkpt lat="48.942388" lon="8.660098">
<ele>300.5</ele>
<speed>3.1</speed>
<course>146.3</course>
<desc>Speed 3.1 km/h Distance 0.67 km</desc>
<time>2010-02-21T10:12:16.82</time>
<name>445</name>
</trkpt>
<trkpt lat="48.942382" lon="8.660105">
<ele>300.0</ele>
<speed>2.7</speed>
<course>146.8</course>
<desc>Speed 2.7 km/h Distance 0.67 km</desc>
<time>2010-02-21T10:12:17.82</time>
<name>446</name>
</trkpt>
<trkpt lat="48.942377" lon="8.660110">
<ele>299.0</ele>
<speed>2.3</speed>
<course>162.5</course>
<desc>Speed 2.3 km/h Distance 0.67 km</desc>
<time>2010-02-21T10:12:18.82</time>
<name>447</name>
</trkpt>
<trkpt lat="48.942370" lon="8.660113">
<ele>298.5</ele>
<speed>3.1</speed>
<course>184.4</course>
<desc>Speed 3.1 km/h Distance 0.67 km</desc>
<time>2010-02-21T10:12:19.82</time>
<name>448</name>
</trkpt>
<trkpt lat="48.942360" lon="8.660112">
<ele>298.0</ele>
<speed>3.9</speed>
<course>172.6</course>
<desc>Speed 3.9 km/h Distance 0.67 km</desc>
<time>2010-02-21T10:12:20.82</time>
<name>449</name>
</trkpt>
<trkpt lat="48.942353" lon="8.660113">
<ele>298.0</ele>
<speed>3.1</speed>
<course>165.1</course>
<desc>Speed 3.1 km/h Distance 0.68 km</desc>
<time>2010-02-21T10:12:21.82</time>
<name>450</name>
</trkpt>
<trkpt lat="48.942345" lon="8.660117">
<ele>297.0</ele>
<speed>3.4</speed>
<course>187.4</course>
<desc>Speed 3.4 km/h Distance 0.68 km</desc>
<time>2010-02-21T10:12:22.82</time>
<name>451</name>
</trkpt>
<trkpt lat="48.942338" lon="8.660115">
<ele>295.5</ele>
<speed>2.0</speed>
<course>167.4</course>
<desc>Speed 2.0 km/h Distance 0.68 km</desc>
<time>2010-02-21T10:12:23.82</time>
<name>452</name>
</trkpt>
<trkpt lat="48.942335" lon="8.660117">
<ele>294.5</ele>
<speed>1.9</speed>
<course>180.0</course>
<desc>Speed 1.9 km/h Distance 0.68 km</desc>
<time>2010-02-21T10:12:24.82</time>
<name>453</name>
</trkpt>
<trkpt lat="48.942325" lon="8.660117">
<ele>294.0</ele>
<speed>3.6</speed>
<course>178.8</course>
<desc>Speed 3.6 km/h Distance 0.68 km</desc>
<time>2010-02-21T10:12:25.82</time>
<name>454</name>
</trkpt>
<trkpt lat="48.942318" lon="8.660117">
<ele>293.0</ele>
<speed>2.8</speed>
<course>175.0</course>
<desc>Speed 2.8 km/h Distance 0.68 km</desc>
<time>2010-02-21T10:12:26.82</time>
<name>455</name>
</trkpt>
<trkpt lat="48.942310" lon="8.660118">
<ele>292.5</ele>
<speed>2.6</speed>
<course>146.3</course>
<desc>Speed 2.6 km/h Distance 0.68 km</desc>
<time>2010-02-21T10:12:27.82</time>
<name>456</name>
</trkpt>
<trkpt lat="48.942303" lon="8.660125">
<ele>291.5</ele>
<speed>3.1</speed>
<course>172.3</course>
<desc>Speed 3.1 km/h Distance 0.68 km</desc>
<time>2010-02-21T10:12:28.82</time>
<name>457</name>
</trkpt>
<trkpt lat="48.942295" lon="8.660127">
<ele>291.5</ele>
<speed>3.1</speed>
<course>153.6</course>
<desc>Speed 3.1 km/h Distance 0.68 km</desc>
<time>2010-02-21T10:12:29.82</time>
<name>458</name>
</trkpt>
<trkpt lat="48.942288" lon="8.660132">
<ele>291.5</ele>
<speed>3.3</speed>
<course>158.5</course>
<desc>Speed 3.3 km/h Distance 0.68 km</desc>
<time>2010-02-21T10:12:30.82</time>
<name>459</name>
</trkpt>
<trkpt lat="48.942280" lon="8.660137">
<ele>292.0</ele>
<speed>3.1</speed>
<course>175.0</course>
<desc>Speed 3.1 km/h Distance 0.68 km</desc>
<time>2010-02-21T10:12:31.82</time>
<name>460</name>
</trkpt>
<trkpt lat="48.942272" lon="8.660138">
<ele>291.5</ele>
<speed>3.5</speed>
<course>187.4</course>
<desc>Speed 3.5 km/h Distance 0.68 km</desc>
<time>2010-02-21T10:12:32.82</time>
<name>461</name>
</trkpt>
<trkpt lat="48.942265" lon="8.660137">
<ele>290.5</ele>
<speed>2.5</speed>
<course>161.2</course>
<desc>Speed 2.5 km/h Distance 0.69 km</desc>
<time>2010-02-21T10:12:33.82</time>
<name>462</name>
</trkpt>
<trkpt lat="48.942258" lon="8.660140">
<ele>289.5</ele>
<speed>2.6</speed>
<course>177.8</course>
<desc>Speed 2.6 km/h Distance 0.69 km</desc>
<time>2010-02-21T10:12:34.82</time>
<name>463</name>
</trkpt>
<trkpt lat="48.942247" lon="8.660140">
<ele>289.0</ele>
<speed>3.1</speed>
<course>161.2</course>
<desc>Speed 3.1 km/h Distance 0.69 km</desc>
<time>2010-02-21T10:12:35.82</time>
<name>464</name>
</trkpt>
<trkpt lat="48.942240" lon="8.660143">
<ele>288.5</ele>
<speed>2.8</speed>
<course>167.4</course>
<desc>Speed 2.8 km/h Distance 0.69 km</desc>
<time>2010-02-21T10:12:36.82</time>
<name>465</name>
</trkpt>
<trkpt lat="48.942237" lon="8.660143">
<ele>288.0</ele>
<speed>1.2</speed>
<course>189.6</course>
<desc>Speed 1.2 km/h Distance 0.69 km</desc>
<time>2010-02-21T10:12:37.82</time>
<name>466</name>
</trkpt>
<trkpt lat="48.942228" lon="8.660142">
<ele>287.0</ele>
<speed>2.5</speed>
<course>172.6</course>
<desc>Speed 2.5 km/h Distance 0.69 km</desc>
<time>2010-02-21T10:12:38.82</time>
<name>467</name>
</trkpt>
<trkpt lat="48.942222" lon="8.660143">
<ele>286.5</ele>
<speed>2.5</speed>
<course>161.8</course>
<desc>Speed 2.5 km/h Distance 0.69 km</desc>
<time>2010-02-21T10:12:39.82</time>
<name>468</name>
</trkpt>
<trkpt lat="48.942212" lon="8.660148">
<ele>285.0</ele>
<speed>3.0</speed>
<course>165.1</course>
<desc>Speed 3.0 km/h Distance 0.69 km</desc>
<time>2010-02-21T10:12:40.82</time>
<name>469</name>
</trkpt>
<trkpt lat="48.942200" lon="8.660153">
<ele>284.5</ele>
<speed>3.0</speed>
<course>151.4</course>
<desc>Speed 3.0 km/h Distance 0.69 km</desc>
<time>2010-02-21T10:12:41.82</time>
<name>470</name>
</trkpt>
<trkpt lat="48.942190" lon="8.660162">
<ele>283.0</ele>
<speed>2.8</speed>
<course>161.2</course>
<desc>Speed 2.8 km/h Distance 0.69 km</desc>
<time>2010-02-21T10:12:42.82</time>
<name>471</name>
</trkpt>
<trkpt lat="48.942183" lon="8.660165">
<ele>282.5</ele>
<speed>2.8</speed>
<course>180.0</course>
<desc>Speed 2.8 km/h Distance 0.70 km</desc>
<time>2010-02-21T10:12:43.82</time>
<name>472</name>
</trkpt>
<trkpt lat="48.942172" lon="8.660165">
<ele>283.0</ele>
<speed>3.5</speed>
<course>159.2</course>
<desc>Speed 3.5 km/h Distance 0.70 km</desc>
<time>2010-02-21T10:12:44.82</time>
<name>473</name>
</trkpt>
<trkpt lat="48.942163" lon="8.660170">
<ele>282.0</ele>
<speed>2.4</speed>
<course>192.6</course>
<desc>Speed 2.4 km/h Distance 0.70 km</desc>
<time>2010-02-21T10:12:45.82</time>
<name>474</name>
</trkpt>
<trkpt lat="48.942153" lon="8.660167">
<ele>281.5</ele>
<speed>2.1</speed>
<course>187.4</course>
<desc>Speed 2.1 km/h Distance 0.70 km</desc>
<time>2010-02-21T10:12:46.82</time>
<name>475</name>
</trkpt>
<trkpt lat="48.942147" lon="8.660165">
<ele>281.0</ele>
<speed>1.9</speed>
<course>192.6</course>
<desc>Speed 1.9 km/h Distance 0.70 km</desc>
<time>2010-02-21T10:12:47.82</time>
<name>476</name>
</trkpt>
<trkpt lat="48.942137" lon="8.660162">
<ele>280.5</ele>
<speed>2.0</speed>
<course>167.4</course>
<desc>Speed 2.0 km/h Distance 0.70 km</desc>
<time>2010-02-21T10:12:48.82</time>
<name>477</name>
</trkpt>
<trkpt lat="48.942132" lon="8.660163">
<ele>280.0</ele>
<speed>1.8</speed>
<course>173.4</course>
<desc>Speed 1.8 km/h Distance 0.70 km</desc>
<time>2010-02-21T10:12:49.82</time>
<name>478</name>
</trkpt>
<trkpt lat="48.942122" lon="8.660165">
<ele>279.0</ele>
<speed>2.8</speed>
<course>175.3</course>
<desc>Speed 2.8 km/h Distance 0.70 km</desc>
<time>2010-02-21T10:12:50.82</time>
<name>479</name>
</trkpt>
<trkpt lat="48.942110" lon="8.660167">
<ele>279.0</ele>
<speed>3.1</speed>
<course>174.7</course>
<desc>Speed 3.1 km/h Distance 0.70 km</desc>
<time>2010-02-21T10:12:51.82</time>
<name>480</name>
</trkpt>
<trkpt lat="48.942097" lon="8.660168">
<ele>278.5</ele>
<speed>3.5</speed>
<course>183.8</course>
<desc>Speed 3.5 km/h Distance 0.70 km</desc>
<time>2010-02-21T10:12:52.82</time>
<name>481</name>
</trkpt>
<trkpt lat="48.942082" lon="8.660167">
<ele>279.0</ele>
<speed>3.4</speed>
<course>180.0</course>
<desc>Speed 3.4 km/h Distance 0.71 km</desc>
<time>2010-02-21T10:12:53.82</time>
<name>482</name>
</trkpt>
<trkpt lat="48.942072" lon="8.660167">
<ele>279.0</ele>
<speed>3.5</speed>
<course>180.0</course>
<desc>Speed 3.5 km/h Distance 0.71 km</desc>
<time>2010-02-21T10:12:54.82</time>
<name>483</name>
</trkpt>
<trkpt lat="48.942060" lon="8.660167">
<ele>279.0</ele>
<speed>3.0</speed>
<course>202.1</course>
<desc>Speed 3.0 km/h Distance 0.71 km</desc>
<time>2010-02-21T10:12:55.82</time>
<name>484</name>
</trkpt>
<trkpt lat="48.942047" lon="8.660158">
<ele>280.0</ele>
<speed>3.9</speed>
<course>208.6</course>
<desc>Speed 3.9 km/h Distance 0.71 km</desc>
<time>2010-02-21T10:12:56.82</time>
<name>485</name>
</trkpt>
<trkpt lat="48.942037" lon="8.660150">
<ele>281.5</ele>
<speed>2.0</speed>
<course>193.5</course>
<desc>Speed 2.0 km/h Distance 0.71 km</desc>
<time>2010-02-21T10:12:57.82</time>
<name>486</name>
</trkpt>
<trkpt lat="48.942023" lon="8.660145">
<ele>282.0</ele>
<speed>1.8</speed>
<course>162.5</course>
<desc>Speed 1.8 km/h Distance 0.71 km</desc>
<time>2010-02-21T10:12:58.82</time>
<name>487</name>
</trkpt>
<trkpt lat="48.942017" lon="8.660148">
<ele>281.5</ele>
<speed>2.3</speed>
<course>175.0</course>
<desc>Speed 2.3 km/h Distance 0.71 km</desc>
<time>2010-02-21T10:12:59.82</time>
<name>488</name>
</trkpt>
<trkpt lat="48.942008" lon="8.660150">
<ele>280.5</ele>
<speed>2.4</speed>
<course>167.4</course>
<desc>Speed 2.4 km/h Distance 0.72 km</desc>
<time>2010-02-21T10:13:00.82</time>
<name>489</name>
</trkpt>
<trkpt lat="48.941998" lon="8.660153">
<ele>280.0</ele>
<speed>3.2</speed>
<course>161.8</course>
<desc>Speed 3.2 km/h Distance 0.72 km</desc>
<time>2010-02-21T10:13:01.82</time>
<name>490</name>
</trkpt>
<trkpt lat="48.941988" lon="8.660158">
<ele>278.5</ele>
<speed>2.7</speed>
<course>198.1</course>
<desc>Speed 2.7 km/h Distance 0.72 km</desc>
<time>2010-02-21T10:13:02.82</time>
<name>491</name>
</trkpt>
<trkpt lat="48.941972" lon="8.660150">
<ele>278.0</ele>
<speed>3.6</speed>
<course>199.7</course>
<desc>Speed 3.6 km/h Distance 0.72 km</desc>
<time>2010-02-21T10:13:03.82</time>
<name>492</name>
</trkpt>
<trkpt lat="48.941953" lon="8.660140">
<ele>279.0</ele>
<speed>3.2</speed>
<course>200.9</course>
<desc>Speed 3.2 km/h Distance 0.72 km</desc>
<time>2010-02-21T10:13:04.82</time>
<name>493</name>
</trkpt>
<trkpt lat="48.941933" lon="8.660128">
<ele>280.0</ele>
<speed>2.5</speed>
<course>199.4</course>
<desc>Speed 2.5 km/h Distance 0.72 km</desc>
<time>2010-02-21T10:13:05.82</time>
<name>494</name>
</trkpt>
<trkpt lat="48.941912" lon="8.660117">
<ele>281.0</ele>
<speed>2.3</speed>
<course>202.7</course>
<desc>Speed 2.3 km/h Distance 0.73 km</desc>
<time>2010-02-21T10:13:06.82</time>
<name>495</name>
</trkpt>
<trkpt lat="48.941875" lon="8.660093">
<ele>283.5</ele>
<speed>2.3</speed>
<course>198.1</course>
<desc>Speed 2.3 km/h Distance 0.73 km</desc>
<time>2010-02-21T10:13:08.82</time>
<name>496</name>
</trkpt>
<trkpt lat="48.941862" lon="8.660087">
<ele>284.0</ele>
<speed>2.3</speed>
<course>207.8</course>
<desc>Speed 2.3 km/h Distance 0.73 km</desc>
<time>2010-02-21T10:13:09.82</time>
<name>497</name>
</trkpt>
<trkpt lat="48.941845" lon="8.660073">
<ele>284.5</ele>
<speed>1.9</speed>
<course>203.7</course>
<desc>Speed 1.9 km/h Distance 0.73 km</desc>
<time>2010-02-21T10:13:10.82</time>
<name>498</name>
</trkpt>
<trkpt lat="48.941825" lon="8.660060">
<ele>285.0</ele>
<speed>1.8</speed>
<course>194.8</course>
<desc>Speed 1.8 km/h Distance 0.74 km</desc>
<time>2010-02-21T10:13:11.82</time>
<name>499</name>
</trkpt>
<trkpt lat="48.941792" lon="8.660047">
<ele>284.0</ele>
<speed>2.7</speed>
<course>190.4</course>
<desc>Speed 2.7 km/h Distance 0.74 km</desc>
<time>2010-02-21T10:13:13.82</time>
<name>500</name>
</trkpt>
<trkpt lat="48.941780" lon="8.660043">
<ele>284.0</ele>
<speed>4.0</speed>
<course>169.6</course>
<desc>Speed 4.0 km/h Distance 0.74 km</desc>
<time>2010-02-21T10:13:14.82</time>
<name>501</name>
</trkpt>
<trkpt lat="48.941768" lon="8.660047">
<ele>283.5</ele>
<speed>3.3</speed>
<course>159.2</course>
<desc>Speed 3.3 km/h Distance 0.74 km</desc>
<time>2010-02-21T10:13:15.82</time>
<name>502</name>
</trkpt>
<trkpt lat="48.941760" lon="8.660052">
<ele>283.0</ele>
<speed>1.8</speed>
<course>187.4</course>
<desc>Speed 1.8 km/h Distance 0.74 km</desc>
<time>2010-02-21T10:13:16.82</time>
<name>503</name>
</trkpt>
<trkpt lat="48.941753" lon="8.660050">
<ele>282.5</ele>
<speed>2.6</speed>
<course>175.0</course>
<desc>Speed 2.6 km/h Distance 0.75 km</desc>
<time>2010-02-21T10:13:17.82</time>
<name>504</name>
</trkpt>
<trkpt lat="48.941745" lon="8.660052">
<ele>281.5</ele>
<speed>2.5</speed>
<course>165.1</course>
<desc>Speed 2.5 km/h Distance 0.75 km</desc>
<time>2010-02-21T10:13:18.82</time>
<name>505</name>
</trkpt>
<trkpt lat="48.941737" lon="8.660055">
<ele>281.5</ele>
<speed>2.7</speed>
<course>189.2</course>
<desc>Speed 2.7 km/h Distance 0.75 km</desc>
<time>2010-02-21T10:13:19.82</time>
<name>506</name>
</trkpt>
<trkpt lat="48.941717" lon="8.660050">
<ele>283.5</ele>
<speed>3.3</speed>
<course>170.5</course>
<desc>Speed 3.3 km/h Distance 0.75 km</desc>
<time>2010-02-21T10:13:20.82</time>
<name>507</name>
</trkpt>
<trkpt lat="48.941705" lon="8.660053">
<ele>283.5</ele>
<speed>3.0</speed>
<course>165.1</course>
<desc>Speed 3.0 km/h Distance 0.75 km</desc>
<time>2010-02-21T10:13:21.82</time>
<name>508</name>
</trkpt>
<trkpt lat="48.941697" lon="8.660057">
<ele>283.0</ele>
<speed>3.1</speed>
<course>158.5</course>
<desc>Speed 3.1 km/h Distance 0.75 km</desc>
<time>2010-02-21T10:13:22.82</time>
<name>509</name>
</trkpt>
<trkpt lat="48.941688" lon="8.660062">
<ele>282.5</ele>
<speed>2.2</speed>
<course>178.8</course>
<desc>Speed 2.2 km/h Distance 0.75 km</desc>
<time>2010-02-21T10:13:23.82</time>
<name>510</name>
</trkpt>
<trkpt lat="48.941682" lon="8.660062">
<ele>282.0</ele>
<speed>1.6</speed>
<course>164.5</course>
<desc>Speed 1.6 km/h Distance 0.75 km</desc>
<time>2010-02-21T10:13:24.82</time>
<name>511</name>
</trkpt>
<trkpt lat="48.941670" lon="8.660067">
<ele>281.5</ele>
<speed>3.1</speed>
<course>158.5</course>
<desc>Speed 3.1 km/h Distance 0.75 km</desc>
<time>2010-02-21T10:13:25.82</time>
<name>512</name>
</trkpt>
<trkpt lat="48.941662" lon="8.660072">
<ele>281.0</ele>
<speed>1.8</speed>
<course>170.5</course>
<desc>Speed 1.8 km/h Distance 0.76 km</desc>
<time>2010-02-21T10:13:26.82</time>
<name>513</name>
</trkpt>
<trkpt lat="48.941650" lon="8.660075">
<ele>279.5</ele>
<speed>2.6</speed>
<course>158.5</course>
<desc>Speed 2.6 km/h Distance 0.76 km</desc>
<time>2010-02-21T10:13:27.82</time>
<name>514</name>
</trkpt>
<trkpt lat="48.941642" lon="8.660080">
<ele>279.0</ele>
<speed>2.2</speed>
<course>180.0</course>
<desc>Speed 2.2 km/h Distance 0.76 km</desc>
<time>2010-02-21T10:13:28.82</time>
<name>515</name>
</trkpt>
<trkpt lat="48.941632" lon="8.660080">
<ele>278.0</ele>
<speed>3.2</speed>
<course>180.0</course>
<desc>Speed 3.2 km/h Distance 0.76 km</desc>
<time>2010-02-21T10:13:29.82</time>
<name>516</name>
</trkpt>
<trkpt lat="48.941622" lon="8.660080">
<ele>277.5</ele>
<speed>2.8</speed>
<course>165.1</course>
<desc>Speed 2.8 km/h Distance 0.76 km</desc>
<time>2010-02-21T10:13:30.82</time>
<name>517</name>
</trkpt>
<trkpt lat="48.941613" lon="8.660083">
<ele>277.0</ele>
<speed>2.6</speed>
<course>165.1</course>
<desc>Speed 2.6 km/h Distance 0.76 km</desc>
<time>2010-02-21T10:13:31.82</time>
<name>518</name>
</trkpt>
<trkpt lat="48.941605" lon="8.660087">
<ele>276.0</ele>
<speed>2.1</speed>
<course>167.4</course>
<desc>Speed 2.1 km/h Distance 0.76 km</desc>
<time>2010-02-21T10:13:32.82</time>
<name>519</name>
</trkpt>
<trkpt lat="48.941600" lon="8.660088">
<ele>275.5</ele>
<speed>1.5</speed>
<course>157.8</course>
<desc>Speed 1.5 km/h Distance 0.76 km</desc>
<time>2010-02-21T10:13:33.82</time>
<name>520</name>
</trkpt>
<trkpt lat="48.941595" lon="8.660092">
<ele>274.5</ele>
<speed>1.7</speed>
<course>167.4</course>
<desc>Speed 1.7 km/h Distance 0.76 km</desc>
<time>2010-02-21T10:13:34.82</time>
<name>521</name>
</trkpt>
<trkpt lat="48.941590" lon="8.660093">
<ele>273.0</ele>
<speed>1.6</speed>
<course>192.6</course>
<desc>Speed 1.6 km/h Distance 0.76 km</desc>
<time>2010-02-21T10:13:35.82</time>
<name>522</name>
</trkpt>
<trkpt lat="48.941585" lon="8.660092">
<ele>272.5</ele>
<speed>1.6</speed>
<course>198.8</course>
<desc>Speed 1.6 km/h Distance 0.76 km</desc>
<time>2010-02-21T10:13:36.82</time>
<name>523</name>
</trkpt>
<trkpt lat="48.941578" lon="8.660088">
<ele>271.0</ele>
<speed>1.9</speed>
<course>219.4</course>
<desc>Speed 1.9 km/h Distance 0.77 km</desc>
<time>2010-02-21T10:13:37.82</time>
<name>524</name>
</trkpt>
<trkpt lat="48.941572" lon="8.660080">
<ele>270.0</ele>
<speed>3.1</speed>
<course>218.4</course>
<desc>Speed 3.1 km/h Distance 0.77 km</desc>
<time>2010-02-21T10:13:38.82</time>
<name>525</name>
</trkpt>
<trkpt lat="48.941563" lon="8.660070">
<ele>270.0</ele>
<speed>2.6</speed>
<course>224.8</course>
<desc>Speed 2.6 km/h Distance 0.77 km</desc>
<time>2010-02-21T10:13:39.82</time>
<name>526</name>
</trkpt>
<trkpt lat="48.941557" lon="8.660060">
<ele>270.0</ele>
<speed>3.0</speed>
<course>213.2</course>
<desc>Speed 3.0 km/h Distance 0.77 km</desc>
<time>2010-02-21T10:13:40.82</time>
<name>527</name>
</trkpt>
<trkpt lat="48.941547" lon="8.660050">
<ele>270.0</ele>
<speed>3.5</speed>
<course>213.7</course>
<desc>Speed 3.5 km/h Distance 0.77 km</desc>
<time>2010-02-21T10:13:41.82</time>
<name>528</name>
</trkpt>
<trkpt lat="48.941540" lon="8.660043">
<ele>270.0</ele>
<speed>3.2</speed>
<course>187.4</course>
<desc>Speed 3.2 km/h Distance 0.77 km</desc>
<time>2010-02-21T10:13:42.82</time>
<name>529</name>
</trkpt>
<trkpt lat="48.941533" lon="8.660042">
<ele>269.5</ele>
<speed>1.6</speed>
<course>202.2</course>
<desc>Speed 1.6 km/h Distance 0.77 km</desc>
<time>2010-02-21T10:13:43.82</time>
<name>530</name>
</trkpt>
<trkpt lat="48.941528" lon="8.660038">
<ele>268.5</ele>
<speed>1.9</speed>
<course>213.2</course>
<desc>Speed 1.9 km/h Distance 0.77 km</desc>
<time>2010-02-21T10:13:44.82</time>
<name>531</name>
</trkpt>
<trkpt lat="48.941523" lon="8.660033">
<ele>267.5</ele>
<speed>2.3</speed>
<course>213.7</course>
<desc>Speed 2.3 km/h Distance 0.77 km</desc>
<time>2010-02-21T10:13:45.82</time>
<name>532</name>
</trkpt>
<trkpt lat="48.941517" lon="8.660027">
<ele>267.0</ele>
<speed>2.2</speed>
<course>218.1</course>
<desc>Speed 2.2 km/h Distance 0.77 km</desc>
<time>2010-02-21T10:13:46.82</time>
<name>533</name>
</trkpt>
<trkpt lat="48.941508" lon="8.660017">
<ele>266.5</ele>
<speed>3.3</speed>
<course>213.2</course>
<desc>Speed 3.3 km/h Distance 0.77 km</desc>
<time>2010-02-21T10:13:47.82</time>
<name>534</name>
</trkpt>
<trkpt lat="48.941500" lon="8.660008">
<ele>265.5</ele>
<speed>3.2</speed>
<course>233.5</course>
<desc>Speed 3.2 km/h Distance 0.78 km</desc>
<time>2010-02-21T10:13:48.82</time>
<name>535</name>
</trkpt>
<trkpt lat="48.941497" lon="8.660002">
<ele>264.5</ele>
<speed>1.7</speed>
<course>253.1</course>
<desc>Speed 1.7 km/h Distance 0.78 km</desc>
<time>2010-02-21T10:13:49.82</time>
<name>536</name>
</trkpt>
<trkpt lat="48.941495" lon="8.659993">
<ele>263.5</ele>
<speed>2.1</speed>
<course>270.0</course>
<desc>Speed 2.1 km/h Distance 0.78 km</desc>
<time>2010-02-21T10:13:50.82</time>
<name>537</name>
</trkpt>
<trkpt lat="48.941495" lon="8.659988">
<ele>262.5</ele>
<speed>1.5</speed>
<course>270.0</course>
<desc>Speed 1.5 km/h Distance 0.78 km</desc>
<time>2010-02-21T10:13:51.82</time>
<name>538</name>
</trkpt>
<trkpt lat="48.941495" lon="8.659982">
<ele>262.0</ele>
<speed>1.8</speed>
<course>249.1</course>
<desc>Speed 1.8 km/h Distance 0.78 km</desc>
<time>2010-02-21T10:13:52.82</time>
<name>539</name>
</trkpt>
<trkpt lat="48.941493" lon="8.659975">
<ele>261.0</ele>
<speed>2.0</speed>
<course>270.0</course>
<desc>Speed 2.0 km/h Distance 0.78 km</desc>
<time>2010-02-21T10:13:53.82</time>
<name>540</name>
</trkpt>
<trkpt lat="48.941493" lon="8.659973">
<ele>259.5</ele>
<speed>0.9</speed>
<course>197.3</course>
<desc>Speed 0.9 km/h Distance 0.78 km</desc>
<time>2010-02-21T10:13:54.82</time>
<name>541</name>
</trkpt>
<trkpt lat="48.941465" lon="8.659960">
<ele>264.0</ele>
<speed>0.7</speed>
<course>270.0</course>
<desc>Speed 0.7 km/h Distance 0.78 km</desc>
<time>2010-02-21T10:13:56.82</time>
<name>542</name>
</trkpt>
<trkpt lat="48.941465" lon="8.659955">
<ele>263.0</ele>
<speed>1.4</speed>
<course>231.9</course>
<desc>Speed 1.4 km/h Distance 0.78 km</desc>
<time>2010-02-21T10:13:57.82</time>
<name>543</name>
</trkpt>
<trkpt lat="48.941463" lon="8.659952">
<ele>262.5</ele>
<speed>0.9</speed>
<course>270.0</course>
<desc>Speed 0.9 km/h Distance 0.78 km</desc>
<time>2010-02-21T10:13:58.82</time>
<name>544</name>
</trkpt>
<trkpt lat="48.941463" lon="8.659947">
<ele>261.0</ele>
<speed>1.5</speed>
<course>315.5</course>
<desc>Speed 1.5 km/h Distance 0.78 km</desc>
<time>2010-02-21T10:13:59.82</time>
<name>545</name>
</trkpt>
<trkpt lat="48.941467" lon="8.659942">
<ele>260.0</ele>
<speed>1.9</speed>
<course>270.0</course>
<desc>Speed 1.9 km/h Distance 0.78 km</desc>
<time>2010-02-21T10:14:00.82</time>
<name>546</name>
</trkpt>
<trkpt lat="48.941467" lon="8.659933">
<ele>259.5</ele>
<speed>2.1</speed>
<course>270.0</course>
<desc>Speed 2.1 km/h Distance 0.78 km</desc>
<time>2010-02-21T10:14:01.82</time>
<name>547</name>
</trkpt>
<trkpt lat="48.941467" lon="8.659927">
<ele>258.5</ele>
<speed>1.4</speed>
<course>222.9</course>
<desc>Speed 1.4 km/h Distance 0.78 km</desc>
<time>2010-02-21T10:14:02.82</time>
<name>548</name>
</trkpt>
<trkpt lat="48.941438" lon="8.659887">
<ele>263.5</ele>
<speed>0.4</speed>
<course>209.2</course>
<desc>Speed 0.4 km/h Distance 0.79 km</desc>
<time>2010-02-21T10:14:04.82</time>
<name>549</name>
</trkpt>
<trkpt lat="48.941437" lon="8.659885">
<ele>263.5</ele>
<speed>0.6</speed>
<course>270.0</course>
<desc>Speed 0.6 km/h Distance 0.79 km</desc>
<time>2010-02-21T10:14:05.82</time>
<name>550</name>
</trkpt>
<trkpt lat="48.941437" lon="8.659882">
<ele>263.5</ele>
<speed>0.2</speed>
<course>221.9</course>
<desc>Speed 0.2 km/h Distance 0.79 km</desc>
<time>2010-02-21T10:14:06.82</time>
<name>551</name>
</trkpt>
<trkpt lat="48.941432" lon="8.659875">
<ele>263.5</ele>
<speed>0.3</speed>
<course>270.0</course>
<desc>Speed 0.3 km/h Distance 0.79 km</desc>
<time>2010-02-21T10:14:07.82</time>
<name>552</name>
</trkpt>
<trkpt lat="48.941432" lon="8.659873">
<ele>263.5</ele>
<speed>0.3</speed>
<course>217.2</course>
<desc>Speed 0.3 km/h Distance 0.79 km</desc>
<time>2010-02-21T10:14:08.82</time>
<name>553</name>
</trkpt>
<trkpt lat="48.941430" lon="8.659872">
<ele>263.5</ele>
<speed>0.4</speed>
<course>209.2</course>
<desc>Speed 0.4 km/h Distance 0.79 km</desc>
<time>2010-02-21T10:14:09.82</time>
<name>554</name>
</trkpt>
<trkpt lat="48.941428" lon="8.659870">
<ele>263.0</ele>
<speed>0.1</speed>
<course>209.2</course>
<desc>Speed 0.1 km/h Distance 0.79 km</desc>
<time>2010-02-21T10:14:10.82</time>
<name>555</name>
</trkpt>
<trkpt lat="48.941428" lon="8.659870">
<ele>263.0</ele>
<speed>0.2</speed>
<course>212.6</course>
<desc>Speed 0.2 km/h Distance 0.79 km</desc>
<time>2010-02-21T10:14:11.82</time>
<name>556</name>
</trkpt>
<trkpt lat="48.941422" lon="8.659863">
<ele>263.5</ele>
<speed>0.1</speed>
<course>212.6</course>
<desc>Speed 0.1 km/h Distance 0.79 km</desc>
<time>2010-02-21T10:14:12.82</time>
<name>557</name>
</trkpt>
<trkpt lat="48.941422" lon="8.659863">
<ele>263.5</ele>
<speed>0.3</speed>
<course>212.6</course>
<desc>Speed 0.3 km/h Distance 0.79 km</desc>
<time>2010-02-21T10:14:13.82</time>
<name>558</name>
</trkpt>
<trkpt lat="48.941422" lon="8.659863">
<ele>263.5</ele>
<speed>0.4</speed>
<course>167.4</course>
<desc>Speed 0.4 km/h Distance 0.79 km</desc>
<time>2010-02-21T10:14:14.82</time>
<name>559</name>
</trkpt>
<trkpt lat="48.941420" lon="8.659863">
<ele>263.0</ele>
<speed>0.2</speed>
<course>217.2</course>
<desc>Speed 0.2 km/h Distance 0.79 km</desc>
<time>2010-02-21T10:14:15.82</time>
<name>560</name>
</trkpt>
<trkpt lat="48.941418" lon="8.659862">
<ele>262.5</ele>
<speed>0.4</speed>
<course>196.0</course>
<desc>Speed 0.4 km/h Distance 0.79 km</desc>
<time>2010-02-21T10:14:16.82</time>
<name>561</name>
</trkpt>
<trkpt lat="48.941407" lon="8.659857">
<ele>259.0</ele>
<speed>0.8</speed>
<course>216.2</course>
<desc>Speed 0.8 km/h Distance 0.79 km</desc>
<time>2010-02-21T10:14:17.82</time>
<name>562</name>
</trkpt>
<trkpt lat="48.941392" lon="8.659840">
<ele>258.0</ele>
<speed>0.2</speed>
<course>236.9</course>
<desc>Speed 0.2 km/h Distance 0.80 km</desc>
<time>2010-02-21T10:14:18.82</time>
<name>563</name>
</trkpt>
<trkpt lat="48.941367" lon="8.659782">
<ele>254.5</ele>
<speed>2.5</speed>
<course>233.6</course>
<desc>Speed 2.5 km/h Distance 0.80 km</desc>
<time>2010-02-21T10:14:20.82</time>
<name>564</name>
</trkpt>
<trkpt lat="48.941340" lon="8.659727">
<ele>254.5</ele>
<speed>2.7</speed>
<course>237.1</course>
<desc>Speed 2.7 km/h Distance 0.81 km</desc>
<time>2010-02-21T10:14:22.82</time>
<name>565</name>
</trkpt>
<trkpt lat="48.941335" lon="8.659715">
<ele>250.5</ele>
<speed>2.4</speed>
<course>241.0</course>
<desc>Speed 2.4 km/h Distance 0.81 km</desc>
<time>2010-02-21T10:14:23.82</time>
<name>566</name>
</trkpt>
<trkpt lat="48.941328" lon="8.659697">
<ele>250.0</ele>
<speed>4.9</speed>
<course>240.3</course>
<desc>Speed 4.9 km/h Distance 0.81 km</desc>
<time>2010-02-21T10:14:24.82</time>
<name>567</name>
</trkpt>
<trkpt lat="48.941318" lon="8.659670">
<ele>250.5</ele>
<speed>4.5</speed>
<course>254.1</course>
<desc>Speed 4.5 km/h Distance 0.81 km</desc>
<time>2010-02-21T10:14:25.82</time>
<name>568</name>
</trkpt>
<trkpt lat="48.941313" lon="8.659643">
<ele>250.5</ele>
<speed>3.2</speed>
<course>230.7</course>
<desc>Speed 3.2 km/h Distance 0.81 km</desc>
<time>2010-02-21T10:14:26.82</time>
<name>569</name>
</trkpt>
<trkpt lat="48.941302" lon="8.659622">
<ele>249.5</ele>
<speed>4.0</speed>
<course>253.1</course>
<desc>Speed 4.0 km/h Distance 0.81 km</desc>
<time>2010-02-21T10:14:27.82</time>
<name>570</name>
</trkpt>
<trkpt lat="48.941298" lon="8.659605">
<ele>250.0</ele>
<speed>2.9</speed>
<course>253.1</course>
<desc>Speed 2.9 km/h Distance 0.82 km</desc>
<time>2010-02-21T10:14:28.82</time>
<name>571</name>
</trkpt>
<trkpt lat="48.941297" lon="8.659597">
<ele>249.5</ele>
<speed>1.2</speed>
<course>228.4</course>
<desc>Speed 1.2 km/h Distance 0.82 km</desc>
<time>2010-02-21T10:14:29.82</time>
<name>572</name>
</trkpt>
<trkpt lat="48.941285" lon="8.659577">
<ele>255.5</ele>
<speed>0.9</speed>
<course>220.2</course>
<desc>Speed 0.9 km/h Distance 0.82 km</desc>
<time>2010-02-21T10:14:30.82</time>
<name>573</name>
</trkpt>
<trkpt lat="48.941273" lon="8.659562">
<ele>251.5</ele>
<speed>1.7</speed>
<course>203.8</course>
<desc>Speed 1.7 km/h Distance 0.82 km</desc>
<time>2010-02-21T10:14:31.82</time>
<name>574</name>
</trkpt>
<trkpt lat="48.941263" lon="8.659555">
<ele>248.5</ele>
<speed>1.3</speed>
<course>226.9</course>
<desc>Speed 1.3 km/h Distance 0.82 km</desc>
<time>2010-02-21T10:14:32.82</time>
<name>575</name>
</trkpt>
<trkpt lat="48.941250" lon="8.659533">
<ele>248.0</ele>
<speed>2.6</speed>
<course>200.9</course>
<desc>Speed 2.6 km/h Distance 0.82 km</desc>
<time>2010-02-21T10:14:33.82</time>
<name>576</name>
</trkpt>
<trkpt lat="48.941238" lon="8.659527">
<ele>247.5</ele>
<speed>3.8</speed>
<course>184.7</course>
<desc>Speed 3.8 km/h Distance 0.82 km</desc>
<time>2010-02-21T10:14:34.82</time>
<name>577</name>
</trkpt>
<trkpt lat="48.941227" lon="8.659525">
<ele>246.5</ele>
<speed>3.3</speed>
<course>180.0</course>
<desc>Speed 3.3 km/h Distance 0.83 km</desc>
<time>2010-02-21T10:14:35.82</time>
<name>578</name>
</trkpt>
<trkpt lat="48.941220" lon="8.659525">
<ele>246.0</ele>
<speed>2.4</speed>
<course>213.2</course>
<desc>Speed 2.4 km/h Distance 0.83 km</desc>
<time>2010-02-21T10:14:36.82</time>
<name>579</name>
</trkpt>
<trkpt lat="48.941212" lon="8.659517">
<ele>248.0</ele>
<speed>2.6</speed>
<course>189.0</course>
<desc>Speed 2.6 km/h Distance 0.83 km</desc>
<time>2010-02-21T10:14:37.82</time>
<name>580</name>
</trkpt>
<trkpt lat="48.941198" lon="8.659513">
<ele>248.0</ele>
<speed>4.5</speed>
<course>215.8</course>
<desc>Speed 4.5 km/h Distance 0.83 km</desc>
<time>2010-02-21T10:14:38.82</time>
<name>581</name>
</trkpt>
<trkpt lat="48.941182" lon="8.659495">
<ele>251.5</ele>
<speed>3.6</speed>
<course>218.3</course>
<desc>Speed 3.6 km/h Distance 0.83 km</desc>
<time>2010-02-21T10:14:39.82</time>
<name>582</name>
</trkpt>
<trkpt lat="48.941165" lon="8.659475">
<ele>253.0</ele>
<speed>3.2</speed>
<course>211.4</course>
<desc>Speed 3.2 km/h Distance 0.83 km</desc>
<time>2010-02-21T10:14:40.82</time>
<name>583</name>
</trkpt>
<trkpt lat="48.941118" lon="8.659432">
<ele>257.0</ele>
<speed>4.0</speed>
<course>209.4</course>
<desc>Speed 4.0 km/h Distance 0.84 km</desc>
<time>2010-02-21T10:14:42.82</time>
<name>584</name>
</trkpt>
<trkpt lat="48.941107" lon="8.659422">
<ele>257.0</ele>
<speed>3.5</speed>
<course>222.5</course>
<desc>Speed 3.5 km/h Distance 0.84 km</desc>
<time>2010-02-21T10:14:43.82</time>
<name>585</name>
</trkpt>
<trkpt lat="48.941098" lon="8.659410">
<ele>257.5</ele>
<speed>1.2</speed>
<course>249.1</course>
<desc>Speed 1.2 km/h Distance 0.84 km</desc>
<time>2010-02-21T10:14:44.82</time>
<name>586</name>
</trkpt>
<trkpt lat="48.941097" lon="8.659403">
<ele>257.0</ele>
<speed>1.2</speed>
<course>180.0</course>
<desc>Speed 1.2 km/h Distance 0.84 km</desc>
<time>2010-02-21T10:14:45.82</time>
<name>587</name>
</trkpt>
<trkpt lat="48.941092" lon="8.659403">
<ele>257.0</ele>
<speed>1.5</speed>
<course>196.0</course>
<desc>Speed 1.5 km/h Distance 0.84 km</desc>
<time>2010-02-21T10:14:46.82</time>
<name>588</name>
</trkpt>
<trkpt lat="48.941085" lon="8.659400">
<ele>257.0</ele>
<speed>1.9</speed>
<course>207.5</course>
<desc>Speed 1.9 km/h Distance 0.84 km</desc>
<time>2010-02-21T10:14:47.82</time>
<name>589</name>
</trkpt>
<trkpt lat="48.941077" lon="8.659393">
<ele>256.5</ele>
<speed>2.3</speed>
<course>197.6</course>
<desc>Speed 2.3 km/h Distance 0.85 km</desc>
<time>2010-02-21T10:14:48.82</time>
<name>590</name>
</trkpt>
<trkpt lat="48.941067" lon="8.659388">
<ele>255.0</ele>
<speed>2.4</speed>
<course>195.5</course>
<desc>Speed 2.4 km/h Distance 0.85 km</desc>
<time>2010-02-21T10:14:49.82</time>
<name>591</name>
</trkpt>
<trkpt lat="48.941055" lon="8.659383">
<ele>254.0</ele>
<speed>3.0</speed>
<course>213.1</course>
<desc>Speed 3.0 km/h Distance 0.85 km</desc>
<time>2010-02-21T10:14:50.82</time>
<name>592</name>
</trkpt>
<trkpt lat="48.941043" lon="8.659372">
<ele>253.5</ele>
<speed>3.0</speed>
<course>223.1</course>
<desc>Speed 3.0 km/h Distance 0.85 km</desc>
<time>2010-02-21T10:14:51.82</time>
<name>593</name>
</trkpt>
<trkpt lat="48.941032" lon="8.659355">
<ele>253.5</ele>
<speed>2.8</speed>
<course>222.3</course>
<desc>Speed 2.8 km/h Distance 0.85 km</desc>
<time>2010-02-21T10:14:52.82</time>
<name>594</name>
</trkpt>
<trkpt lat="48.941023" lon="8.659343">
<ele>252.0</ele>
<speed>1.3</speed>
<course>229.1</course>
<desc>Speed 1.3 km/h Distance 0.85 km</desc>
<time>2010-02-21T10:14:53.82</time>
<name>595</name>
</trkpt>
<trkpt lat="48.941017" lon="8.659332">
<ele>251.5</ele>
<speed>2.1</speed>
<course>238.6</course>
<desc>Speed 2.1 km/h Distance 0.85 km</desc>
<time>2010-02-21T10:14:54.82</time>
<name>596</name>
</trkpt>
<trkpt lat="48.941013" lon="8.659323">
<ele>252.0</ele>
<speed>0.3</speed>
<course>232.6</course>
<desc>Speed 0.3 km/h Distance 0.85 km</desc>
<time>2010-02-21T10:14:55.82</time>
<name>597</name>
</trkpt>
<trkpt lat="48.941008" lon="8.659313">
<ele>251.0</ele>
<speed>2.0</speed>
<course>213.2</course>
<desc>Speed 2.0 km/h Distance 0.86 km</desc>
<time>2010-02-21T10:14:56.82</time>
<name>598</name>
</trkpt>
<trkpt lat="48.940998" lon="8.659303">
<ele>250.5</ele>
<speed>3.3</speed>
<course>222.0</course>
<desc>Speed 3.3 km/h Distance 0.86 km</desc>
<time>2010-02-21T10:14:57.82</time>
<name>599</name>
</trkpt>
<trkpt lat="48.940985" lon="8.659285">
<ele>250.5</ele>
<speed>5.7</speed>
<course>218.3</course>
<desc>Speed 5.7 km/h Distance 0.86 km</desc>
<time>2010-02-21T10:14:58.82</time>
<name>600</name>
</trkpt>
<trkpt lat="48.940968" lon="8.659265">
<ele>250.5</ele>
<speed>5.7</speed>
<course>225.7</course>
<desc>Speed 5.7 km/h Distance 0.86 km</desc>
<time>2010-02-21T10:14:59.82</time>
<name>601</name>
</trkpt>
<trkpt lat="48.940953" lon="8.659242">
<ele>250.5</ele>
<speed>5.2</speed>
<course>222.6</course>
<desc>Speed 5.2 km/h Distance 0.86 km</desc>
<time>2010-02-21T10:15:00.82</time>
<name>602</name>
</trkpt>
<trkpt lat="48.940937" lon="8.659218">
<ele>251.0</ele>
<speed>5.4</speed>
<course>228.4</course>
<desc>Speed 5.4 km/h Distance 0.87 km</desc>
<time>2010-02-21T10:15:01.82</time>
<name>603</name>
</trkpt>
<trkpt lat="48.940925" lon="8.659198">
<ele>251.5</ele>
<speed>5.5</speed>
<course>217.5</course>
<desc>Speed 5.5 km/h Distance 0.87 km</desc>
<time>2010-02-21T10:15:02.82</time>
<name>604</name>
</trkpt>
<trkpt lat="48.940915" lon="8.659187">
<ele>251.5</ele>
<speed>2.7</speed>
<course>216.9</course>
<desc>Speed 2.7 km/h Distance 0.87 km</desc>
<time>2010-02-21T10:15:03.82</time>
<name>605</name>
</trkpt>
<trkpt lat="48.940903" lon="8.659173">
<ele>251.5</ele>
<speed>3.5</speed>
<course>223.5</course>
<desc>Speed 3.5 km/h Distance 0.87 km</desc>
<time>2010-02-21T10:15:04.82</time>
<name>606</name>
</trkpt>
<trkpt lat="48.940888" lon="8.659152">
<ele>252.5</ele>
<speed>5.5</speed>
<course>226.5</course>
<desc>Speed 5.5 km/h Distance 0.87 km</desc>
<time>2010-02-21T10:15:05.82</time>
<name>607</name>
</trkpt>
<trkpt lat="48.940880" lon="8.659138">
<ele>253.0</ele>
<speed>4.0</speed>
<course>220.2</course>
<desc>Speed 4.0 km/h Distance 0.87 km</desc>
<time>2010-02-21T10:15:06.82</time>
<name>608</name>
</trkpt>
<trkpt lat="48.940868" lon="8.659123">
<ele>253.5</ele>
<speed>4.5</speed>
<course>213.2</course>
<desc>Speed 4.5 km/h Distance 0.88 km</desc>
<time>2010-02-21T10:15:07.82</time>
<name>609</name>
</trkpt>
<trkpt lat="48.940858" lon="8.659113">
<ele>254.0</ele>
<speed>3.1</speed>
<course>217.2</course>
<desc>Speed 3.1 km/h Distance 0.88 km</desc>
<time>2010-02-21T10:15:08.82</time>
<name>610</name>
</trkpt>
<trkpt lat="48.940848" lon="8.659102">
<ele>254.5</ele>
<speed>3.7</speed>
<course>216.6</course>
<desc>Speed 3.7 km/h Distance 0.88 km</desc>
<time>2010-02-21T10:15:09.82</time>
<name>611</name>
</trkpt>
<trkpt lat="48.940835" lon="8.659087">
<ele>254.5</ele>
<speed>4.6</speed>
<course>208.8</course>
<desc>Speed 4.6 km/h Distance 0.88 km</desc>
<time>2010-02-21T10:15:10.82</time>
<name>612</name>
</trkpt>
<trkpt lat="48.940815" lon="8.659070">
<ele>257.5</ele>
<speed>4.2</speed>
<course>213.4</course>
<desc>Speed 4.2 km/h Distance 0.88 km</desc>
<time>2010-02-21T10:15:11.82</time>
<name>613</name>
</trkpt>
<trkpt lat="48.940805" lon="8.659060">
<ele>257.0</ele>
<speed>4.1</speed>
<course>213.3</course>
<desc>Speed 4.1 km/h Distance 0.89 km</desc>
<time>2010-02-21T10:15:12.82</time>
<name>614</name>
</trkpt>
<trkpt lat="48.940790" lon="8.659045">
<ele>258.5</ele>
<speed>3.6</speed>
<course>213.2</course>
<desc>Speed 3.6 km/h Distance 0.89 km</desc>
<time>2010-02-21T10:15:13.82</time>
<name>615</name>
</trkpt>
<trkpt lat="48.940780" lon="8.659035">
<ele>259.0</ele>
<speed>3.9</speed>
<course>208.6</course>
<desc>Speed 3.9 km/h Distance 0.89 km</desc>
<time>2010-02-21T10:15:14.82</time>
<name>616</name>
</trkpt>
<trkpt lat="48.940770" lon="8.659027">
<ele>259.5</ele>
<speed>4.0</speed>
<course>222.3</course>
<desc>Speed 4.0 km/h Distance 0.89 km</desc>
<time>2010-02-21T10:15:15.82</time>
<name>617</name>
</trkpt>
<trkpt lat="48.940762" lon="8.659015">
<ele>259.5</ele>
<speed>3.5</speed>
<course>213.3</course>
<desc>Speed 3.5 km/h Distance 0.89 km</desc>
<time>2010-02-21T10:15:16.82</time>
<name>618</name>
</trkpt>
<trkpt lat="48.940748" lon="8.659002">
<ele>259.5</ele>
<speed>4.4</speed>
<course>217.0</course>
<desc>Speed 4.4 km/h Distance 0.89 km</desc>
<time>2010-02-21T10:15:17.82</time>
<name>619</name>
</trkpt>
<trkpt lat="48.940737" lon="8.658988">
<ele>259.5</ele>
<speed>4.6</speed>
<course>216.9</course>
<desc>Speed 4.6 km/h Distance 0.89 km</desc>
<time>2010-02-21T10:15:18.82</time>
<name>620</name>
</trkpt>
<trkpt lat="48.940725" lon="8.658975">
<ele>259.5</ele>
<speed>4.0</speed>
<course>209.4</course>
<desc>Speed 4.0 km/h Distance 0.90 km</desc>
<time>2010-02-21T10:15:19.82</time>
<name>621</name>
</trkpt>
<trkpt lat="48.940713" lon="8.658965">
<ele>260.0</ele>
<speed>4.0</speed>
<course>213.5</course>
<desc>Speed 4.0 km/h Distance 0.90 km</desc>
<time>2010-02-21T10:15:20.82</time>
<name>622</name>
</trkpt>
<trkpt lat="48.940705" lon="8.658957">
<ele>260.0</ele>
<speed>3.5</speed>
<course>218.1</course>
<desc>Speed 3.5 km/h Distance 0.90 km</desc>
<time>2010-02-21T10:15:21.82</time>
<name>623</name>
</trkpt>
<trkpt lat="48.940697" lon="8.658947">
<ele>259.5</ele>
<speed>3.8</speed>
<course>217.5</course>
<desc>Speed 3.8 km/h Distance 0.90 km</desc>
<time>2010-02-21T10:15:22.82</time>
<name>624</name>
</trkpt>
<trkpt lat="48.940687" lon="8.658935">
<ele>260.0</ele>
<speed>4.0</speed>
<course>213.4</course>
<desc>Speed 4.0 km/h Distance 0.90 km</desc>
<time>2010-02-21T10:15:23.82</time>
<name>625</name>
</trkpt>
<trkpt lat="48.940675" lon="8.658923">
<ele>260.0</ele>
<speed>4.0</speed>
<course>220.2</course>
<desc>Speed 4.0 km/h Distance 0.90 km</desc>
<time>2010-02-21T10:15:24.82</time>
<name>626</name>
</trkpt>
<trkpt lat="48.940663" lon="8.658908">
<ele>261.0</ele>
<speed>4.6</speed>
<course>219.4</course>
<desc>Speed 4.6 km/h Distance 0.90 km</desc>
<time>2010-02-21T10:15:25.82</time>
<name>627</name>
</trkpt>
<trkpt lat="48.940650" lon="8.658892">
<ele>261.5</ele>
<speed>4.5</speed>
<course>222.2</course>
<desc>Speed 4.5 km/h Distance 0.91 km</desc>
<time>2010-02-21T10:15:26.82</time>
<name>628</name>
</trkpt>
<trkpt lat="48.940637" lon="8.658873">
<ele>262.0</ele>
<speed>4.5</speed>
<course>213.4</course>
<desc>Speed 4.5 km/h Distance 0.91 km</desc>
<time>2010-02-21T10:15:27.82</time>
<name>629</name>
</trkpt>
<trkpt lat="48.940625" lon="8.658862">
<ele>262.0</ele>
<speed>3.6</speed>
<course>218.8</course>
<desc>Speed 3.6 km/h Distance 0.91 km</desc>
<time>2010-02-21T10:15:28.82</time>
<name>630</name>
</trkpt>
<trkpt lat="48.940610" lon="8.658843">
<ele>262.0</ele>
<speed>4.9</speed>
<course>216.9</course>
<desc>Speed 4.9 km/h Distance 0.91 km</desc>
<time>2010-02-21T10:15:29.82</time>
<name>631</name>
</trkpt>
<trkpt lat="48.940598" lon="8.658830">
<ele>262.5</ele>
<speed>4.6</speed>
<course>216.9</course>
<desc>Speed 4.6 km/h Distance 0.91 km</desc>
<time>2010-02-21T10:15:30.82</time>
<name>632</name>
</trkpt>
<trkpt lat="48.940587" lon="8.658817">
<ele>263.0</ele>
<speed>3.9</speed>
<course>220.2</course>
<desc>Speed 3.9 km/h Distance 0.92 km</desc>
<time>2010-02-21T10:15:31.82</time>
<name>633</name>
</trkpt>
<trkpt lat="48.940575" lon="8.658802">
<ele>263.0</ele>
<speed>4.3</speed>
<course>223.3</course>
<desc>Speed 4.3 km/h Distance 0.92 km</desc>
<time>2010-02-21T10:15:32.82</time>
<name>634</name>
</trkpt>
<trkpt lat="48.940563" lon="8.658785">
<ele>263.5</ele>
<speed>4.1</speed>
<course>213.4</course>
<desc>Speed 4.1 km/h Distance 0.92 km</desc>
<time>2010-02-21T10:15:33.82</time>
<name>635</name>
</trkpt>
<trkpt lat="48.940552" lon="8.658773">
<ele>263.5</ele>
<speed>3.3</speed>
<course>213.4</course>
<desc>Speed 3.3 km/h Distance 0.92 km</desc>
<time>2010-02-21T10:15:34.82</time>
<name>636</name>
</trkpt>
<trkpt lat="48.940540" lon="8.658762">
<ele>264.0</ele>
<speed>4.0</speed>
<course>213.4</course>
<desc>Speed 4.0 km/h Distance 0.92 km</desc>
<time>2010-02-21T10:15:35.82</time>
<name>637</name>
</trkpt>
<trkpt lat="48.940528" lon="8.658750">
<ele>264.0</ele>
<speed>4.2</speed>
<course>217.5</course>
<desc>Speed 4.2 km/h Distance 0.92 km</desc>
<time>2010-02-21T10:15:36.82</time>
<name>638</name>
</trkpt>
<trkpt lat="48.940518" lon="8.658738">
<ele>264.5</ele>
<speed>4.1</speed>
<course>220.2</course>
<desc>Speed 4.1 km/h Distance 0.92 km</desc>
<time>2010-02-21T10:15:37.82</time>
<name>639</name>
</trkpt>
<trkpt lat="48.940507" lon="8.658723">
<ele>264.5</ele>
<speed>4.6</speed>
<course>209.1</course>
<desc>Speed 4.6 km/h Distance 0.93 km</desc>
<time>2010-02-21T10:15:38.82</time>
<name>640</name>
</trkpt>
<trkpt lat="48.940485" lon="8.658705">
<ele>266.5</ele>
<speed>3.7</speed>
<course>221.3</course>
<desc>Speed 3.7 km/h Distance 0.93 km</desc>
<time>2010-02-21T10:15:39.82</time>
<name>641</name>
</trkpt>
<trkpt lat="48.940475" lon="8.658692">
<ele>267.0</ele>
<speed>4.1</speed>
<course>226.5</course>
<desc>Speed 4.1 km/h Distance 0.93 km</desc>
<time>2010-02-21T10:15:40.82</time>
<name>642</name>
</trkpt>
<trkpt lat="48.940467" lon="8.658678">
<ele>266.5</ele>
<speed>3.2</speed>
<course>224.5</course>
<desc>Speed 3.2 km/h Distance 0.93 km</desc>
<time>2010-02-21T10:15:41.82</time>
<name>643</name>
</trkpt>
<trkpt lat="48.940460" lon="8.658668">
<ele>266.5</ele>
<speed>2.5</speed>
<course>224.5</course>
<desc>Speed 2.5 km/h Distance 0.93 km</desc>
<time>2010-02-21T10:15:42.82</time>
<name>644</name>
</trkpt>
<trkpt lat="48.940453" lon="8.658658">
<ele>266.5</ele>
<speed>3.8</speed>
<course>218.1</course>
<desc>Speed 3.8 km/h Distance 0.93 km</desc>
<time>2010-02-21T10:15:43.82</time>
<name>645</name>
</trkpt>
<trkpt lat="48.940445" lon="8.658648">
<ele>267.0</ele>
<speed>3.3</speed>
<course>222.6</course>
<desc>Speed 3.3 km/h Distance 0.94 km</desc>
<time>2010-02-21T10:15:44.82</time>
<name>646</name>
</trkpt>
<trkpt lat="48.940437" lon="8.658637">
<ele>267.0</ele>
<speed>3.6</speed>
<course>222.6</course>
<desc>Speed 3.6 km/h Distance 0.94 km</desc>
<time>2010-02-21T10:15:45.82</time>
<name>647</name>
</trkpt>
<trkpt lat="48.940428" lon="8.658625">
<ele>266.5</ele>
<speed>3.4</speed>
<course>219.4</course>
<desc>Speed 3.4 km/h Distance 0.94 km</desc>
<time>2010-02-21T10:15:46.82</time>
<name>648</name>
</trkpt>
<trkpt lat="48.940422" lon="8.658617">
<ele>267.0</ele>
<speed>3.2</speed>
<course>213.2</course>
<desc>Speed 3.2 km/h Distance 0.94 km</desc>
<time>2010-02-21T10:15:47.82</time>
<name>649</name>
</trkpt>
<trkpt lat="48.940413" lon="8.658608">
<ele>267.0</ele>
<speed>3.0</speed>
<course>218.1</course>
<desc>Speed 3.0 km/h Distance 0.94 km</desc>
<time>2010-02-21T10:15:48.82</time>
<name>650</name>
</trkpt>
<trkpt lat="48.940405" lon="8.658598">
<ele>267.5</ele>
<speed>3.9</speed>
<course>222.6</course>
<desc>Speed 3.9 km/h Distance 0.94 km</desc>
<time>2010-02-21T10:15:49.82</time>
<name>651</name>
</trkpt>
<trkpt lat="48.940397" lon="8.658587">
<ele>267.5</ele>
<speed>3.9</speed>
<course>221.2</course>
<desc>Speed 3.9 km/h Distance 0.94 km</desc>
<time>2010-02-21T10:15:50.82</time>
<name>652</name>
</trkpt>
<trkpt lat="48.940387" lon="8.658573">
<ele>267.5</ele>
<speed>4.2</speed>
<course>222.6</course>
<desc>Speed 4.2 km/h Distance 0.94 km</desc>
<time>2010-02-21T10:15:51.82</time>
<name>653</name>
</trkpt>
<trkpt lat="48.940378" lon="8.658562">
<ele>267.5</ele>
<speed>3.3</speed>
<course>220.3</course>
<desc>Speed 3.3 km/h Distance 0.95 km</desc>
<time>2010-02-21T10:15:52.82</time>
<name>654</name>
</trkpt>
<trkpt lat="48.940367" lon="8.658547">
<ele>268.0</ele>
<speed>4.4</speed>
<course>218.1</course>
<desc>Speed 4.4 km/h Distance 0.95 km</desc>
<time>2010-02-21T10:15:53.82</time>
<name>655</name>
</trkpt>
<trkpt lat="48.940358" lon="8.658537">
<ele>268.0</ele>
<speed>3.4</speed>
<course>228.9</course>
<desc>Speed 3.4 km/h Distance 0.95 km</desc>
<time>2010-02-21T10:15:54.82</time>
<name>656</name>
</trkpt>
<trkpt lat="48.940352" lon="8.658525">
<ele>268.0</ele>
<speed>3.6</speed>
<course>220.9</course>
<desc>Speed 3.6 km/h Distance 0.95 km</desc>
<time>2010-02-21T10:15:55.82</time>
<name>657</name>
</trkpt>
<trkpt lat="48.940347" lon="8.658518">
<ele>268.0</ele>
<speed>2.3</speed>
<course>233.0</course>
<desc>Speed 2.3 km/h Distance 0.95 km</desc>
<time>2010-02-21T10:15:56.82</time>
<name>658</name>
</trkpt>
<trkpt lat="48.940343" lon="8.658512">
<ele>268.0</ele>
<speed>1.3</speed>
<course>233.0</course>
<desc>Speed 1.3 km/h Distance 0.95 km</desc>
<time>2010-02-21T10:15:57.82</time>
<name>659</name>
</trkpt>
<trkpt lat="48.940340" lon="8.658505">
<ele>267.5</ele>
<speed>1.8</speed>
<course>224.5</course>
<desc>Speed 1.8 km/h Distance 0.95 km</desc>
<time>2010-02-21T10:15:58.82</time>
<name>660</name>
</trkpt>
<trkpt lat="48.940333" lon="8.658495">
<ele>267.0</ele>
<speed>3.2</speed>
<course>226.4</course>
<desc>Speed 3.2 km/h Distance 0.95 km</desc>
<time>2010-02-21T10:15:59.82</time>
<name>661</name>
</trkpt>
<trkpt lat="48.940325" lon="8.658482">
<ele>267.5</ele>
<speed>3.7</speed>
<course>217.5</course>
<desc>Speed 3.7 km/h Distance 0.95 km</desc>
<time>2010-02-21T10:16:00.82</time>
<name>662</name>
</trkpt>
<trkpt lat="48.940315" lon="8.658470">
<ele>267.5</ele>
<speed>3.4</speed>
<course>207.9</course>
<desc>Speed 3.4 km/h Distance 0.95 km</desc>
<time>2010-02-21T10:16:01.82</time>
<name>663</name>
</trkpt>
<trkpt lat="48.940307" lon="8.658463">
<ele>267.5</ele>
<speed>3.2</speed>
<course>213.2</course>
<desc>Speed 3.2 km/h Distance 0.96 km</desc>
<time>2010-02-21T10:16:02.82</time>
<name>664</name>
</trkpt>
<trkpt lat="48.940298" lon="8.658455">
<ele>267.5</ele>
<speed>2.7</speed>
<course>222.6</course>
<desc>Speed 2.7 km/h Distance 0.96 km</desc>
<time>2010-02-21T10:16:03.82</time>
<name>665</name>
</trkpt>
<trkpt lat="48.940290" lon="8.658443">
<ele>267.5</ele>
<speed>4.0</speed>
<course>222.6</course>
<desc>Speed 4.0 km/h Distance 0.96 km</desc>
<time>2010-02-21T10:16:04.82</time>
<name>666</name>
</trkpt>
<trkpt lat="48.940282" lon="8.658432">
<ele>267.5</ele>
<speed>3.2</speed>
<course>213.2</course>
<desc>Speed 3.2 km/h Distance 0.96 km</desc>
<time>2010-02-21T10:16:05.82</time>
<name>667</name>
</trkpt>
<trkpt lat="48.940272" lon="8.658422">
<ele>267.5</ele>
<speed>3.7</speed>
<course>208.6</course>
<desc>Speed 3.7 km/h Distance 0.96 km</desc>
<time>2010-02-21T10:16:06.82</time>
<name>668</name>
</trkpt>
<trkpt lat="48.940262" lon="8.658413">
<ele>267.5</ele>
<speed>3.0</speed>
<course>221.2</course>
<desc>Speed 3.0 km/h Distance 0.96 km</desc>
<time>2010-02-21T10:16:07.82</time>
<name>669</name>
</trkpt>
<trkpt lat="48.940252" lon="8.658400">
<ele>267.5</ele>
<speed>3.8</speed>
<course>218.1</course>
<desc>Speed 3.8 km/h Distance 0.96 km</desc>
<time>2010-02-21T10:16:08.82</time>
<name>670</name>
</trkpt>
<trkpt lat="48.940243" lon="8.658390">
<ele>267.5</ele>
<speed>3.3</speed>
<course>213.2</course>
<desc>Speed 3.3 km/h Distance 0.96 km</desc>
<time>2010-02-21T10:16:09.82</time>
<name>671</name>
</trkpt>
<trkpt lat="48.940233" lon="8.658380">
<ele>267.5</ele>
<speed>3.3</speed>
<course>226.4</course>
<desc>Speed 3.3 km/h Distance 0.97 km</desc>
<time>2010-02-21T10:16:10.82</time>
<name>672</name>
</trkpt>
<trkpt lat="48.940225" lon="8.658367">
<ele>267.5</ele>
<speed>3.7</speed>
<course>213.3</course>
<desc>Speed 3.7 km/h Distance 0.97 km</desc>
<time>2010-02-21T10:16:11.82</time>
<name>673</name>
</trkpt>
<trkpt lat="48.940213" lon="8.658355">
<ele>268.0</ele>
<speed>3.6</speed>
<course>222.3</course>
<desc>Speed 3.6 km/h Distance 0.97 km</desc>
<time>2010-02-21T10:16:12.82</time>
<name>674</name>
</trkpt>
<trkpt lat="48.940205" lon="8.658343">
<ele>268.0</ele>
<speed>4.2</speed>
<course>216.6</course>
<desc>Speed 4.2 km/h Distance 0.97 km</desc>
<time>2010-02-21T10:16:13.82</time>
<name>675</name>
</trkpt>
<trkpt lat="48.940153" lon="8.658285">
<ele>273.0</ele>
<speed>3.9</speed>
<course>219.0</course>
<desc>Speed 3.9 km/h Distance 0.98 km</desc>
<time>2010-02-21T10:16:15.82</time>
<name>676</name>
</trkpt>
<trkpt lat="48.940147" lon="8.658277">
<ele>272.5</ele>
<speed>3.0</speed>
<course>222.3</course>
<desc>Speed 3.0 km/h Distance 0.98 km</desc>
<time>2010-02-21T10:16:16.82</time>
<name>677</name>
</trkpt>
<trkpt lat="48.940138" lon="8.658265">
<ele>272.5</ele>
<speed>3.3</speed>
<course>227.4</course>
<desc>Speed 3.3 km/h Distance 0.98 km</desc>
<time>2010-02-21T10:16:17.82</time>
<name>678</name>
</trkpt>
<trkpt lat="48.940133" lon="8.658257">
<ele>272.5</ele>
<speed>2.6</speed>
<course>202.3</course>
<desc>Speed 2.6 km/h Distance 0.98 km</desc>
<time>2010-02-21T10:16:18.82</time>
<name>679</name>
</trkpt>
<trkpt lat="48.940120" lon="8.658248">
<ele>273.5</ele>
<speed>3.6</speed>
<course>220.9</course>
<desc>Speed 3.6 km/h Distance 0.98 km</desc>
<time>2010-02-21T10:16:19.82</time>
<name>680</name>
</trkpt>
<trkpt lat="48.940115" lon="8.658242">
<ele>274.0</ele>
<speed>2.7</speed>
<course>213.7</course>
<desc>Speed 2.7 km/h Distance 0.98 km</desc>
<time>2010-02-21T10:16:20.82</time>
<name>681</name>
</trkpt>
<trkpt lat="48.940108" lon="8.658235">
<ele>274.0</ele>
<speed>2.3</speed>
<course>212.3</course>
<desc>Speed 2.3 km/h Distance 0.98 km</desc>
<time>2010-02-21T10:16:21.82</time>
<name>682</name>
</trkpt>
<trkpt lat="48.940103" lon="8.658230">
<ele>274.0</ele>
<speed>2.5</speed>
<course>213.2</course>
<desc>Speed 2.5 km/h Distance 0.98 km</desc>
<time>2010-02-21T10:16:22.82</time>
<name>683</name>
</trkpt>
<trkpt lat="48.940095" lon="8.658222">
<ele>274.0</ele>
<speed>3.2</speed>
<course>213.2</course>
<desc>Speed 3.2 km/h Distance 0.99 km</desc>
<time>2010-02-21T10:16:23.82</time>
<name>684</name>
</trkpt>
<trkpt lat="48.940085" lon="8.658212">
<ele>274.5</ele>
<speed>3.6</speed>
<course>224.5</course>
<desc>Speed 3.6 km/h Distance 0.99 km</desc>
<time>2010-02-21T10:16:24.82</time>
<name>685</name>
</trkpt>
<trkpt lat="48.940078" lon="8.658202">
<ele>274.5</ele>
<speed>3.2</speed>
<course>218.1</course>
<desc>Speed 3.2 km/h Distance 0.99 km</desc>
<time>2010-02-21T10:16:25.82</time>
<name>686</name>
</trkpt>
<trkpt lat="48.940070" lon="8.658192">
<ele>274.5</ele>
<speed>3.0</speed>
<course>219.4</course>
<desc>Speed 3.0 km/h Distance 0.99 km</desc>
<time>2010-02-21T10:16:26.82</time>
<name>687</name>
</trkpt>
<trkpt lat="48.940063" lon="8.658183">
<ele>274.5</ele>
<speed>2.4</speed>
<course>213.7</course>
<desc>Speed 2.4 km/h Distance 0.99 km</desc>
<time>2010-02-21T10:16:27.82</time>
<name>688</name>
</trkpt>
<trkpt lat="48.940057" lon="8.658177">
<ele>274.0</ele>
<speed>2.9</speed>
<course>218.1</course>
<desc>Speed 2.9 km/h Distance 0.99 km</desc>
<time>2010-02-21T10:16:28.82</time>
<name>689</name>
</trkpt>
<trkpt lat="48.940048" lon="8.658167">
<ele>274.0</ele>
<speed>3.3</speed>
<course>213.7</course>
<desc>Speed 3.3 km/h Distance 0.99 km</desc>
<time>2010-02-21T10:16:29.82</time>
<name>690</name>
</trkpt>
<trkpt lat="48.940042" lon="8.658160">
<ele>274.0</ele>
<speed>2.6</speed>
<course>219.4</course>
<desc>Speed 2.6 km/h Distance 0.99 km</desc>
<time>2010-02-21T10:16:30.82</time>
<name>691</name>
</trkpt>
<trkpt lat="48.940035" lon="8.658152">
<ele>274.0</ele>
<speed>3.0</speed>
<course>213.2</course>
<desc>Speed 3.0 km/h Distance 0.99 km</desc>
<time>2010-02-21T10:16:31.82</time>
<name>692</name>
</trkpt>
<trkpt lat="48.940027" lon="8.658143">
<ele>273.5</ele>
<speed>3.1</speed>
<course>219.4</course>
<desc>Speed 3.1 km/h Distance 1.00 km</desc>
<time>2010-02-21T10:16:32.82</time>
<name>693</name>
</trkpt>
<trkpt lat="48.940020" lon="8.658135">
<ele>273.5</ele>
<speed>3.1</speed>
<course>213.2</course>
<desc>Speed 3.1 km/h Distance 1.00 km</desc>
<time>2010-02-21T10:16:33.82</time>
<name>694</name>
</trkpt>
<trkpt lat="48.940012" lon="8.658127">
<ele>273.5</ele>
<speed>3.5</speed>
<course>217.5</course>
<desc>Speed 3.5 km/h Distance 1.00 km</desc>
<time>2010-02-21T10:16:34.82</time>
<name>695</name>
</trkpt>
<trkpt lat="48.940002" lon="8.658115">
<ele>273.5</ele>
<speed>4.4</speed>
<course>240.4</course>
<desc>Speed 4.4 km/h Distance 1.00 km</desc>
<time>2010-02-21T10:16:35.82</time>
<name>696</name>
</trkpt>
<trkpt lat="48.939997" lon="8.658102">
<ele>273.5</ele>
<speed>3.1</speed>
<course>240.3</course>
<desc>Speed 3.1 km/h Distance 1.00 km</desc>
<time>2010-02-21T10:16:36.82</time>
<name>697</name>
</trkpt>
<trkpt lat="48.939992" lon="8.658088">
<ele>273.5</ele>
<speed>3.2</speed>
<course>222.6</course>
<desc>Speed 3.2 km/h Distance 1.00 km</desc>
<time>2010-02-21T10:16:37.82</time>
<name>698</name>
</trkpt>
<trkpt lat="48.939983" lon="8.658077">
<ele>274.0</ele>
<speed>3.1</speed>
<course>224.5</course>
<desc>Speed 3.1 km/h Distance 1.00 km</desc>
<time>2010-02-21T10:16:38.82</time>
<name>699</name>
</trkpt>
<trkpt lat="48.939973" lon="8.658062">
<ele>274.5</ele>
<speed>3.7</speed>
<course>216.6</course>
<desc>Speed 3.7 km/h Distance 1.00 km</desc>
<time>2010-02-21T10:16:39.82</time>
<name>700</name>
</trkpt>
<trkpt lat="48.939960" lon="8.658047">
<ele>275.5</ele>
<speed>3.6</speed>
<course>213.3</course>
<desc>Speed 3.6 km/h Distance 1.01 km</desc>
<time>2010-02-21T10:16:40.82</time>
<name>701</name>
</trkpt>
<trkpt lat="48.939948" lon="8.658035">
<ele>275.5</ele>
<speed>3.7</speed>
<course>222.6</course>
<desc>Speed 3.7 km/h Distance 1.01 km</desc>
<time>2010-02-21T10:16:41.82</time>
<name>702</name>
</trkpt>
<trkpt lat="48.939940" lon="8.658023">
<ele>276.0</ele>
<speed>3.9</speed>
<course>221.2</course>
<desc>Speed 3.9 km/h Distance 1.01 km</desc>
<time>2010-02-21T10:16:42.82</time>
<name>703</name>
</trkpt>
<trkpt lat="48.939930" lon="8.658010">
<ele>276.0</ele>
<speed>4.1</speed>
<course>229.8</course>
<desc>Speed 4.1 km/h Distance 1.01 km</desc>
<time>2010-02-21T10:16:43.82</time>
<name>704</name>
</trkpt>
<trkpt lat="48.939922" lon="8.657995">
<ele>276.0</ele>
<speed>4.0</speed>
<course>224.5</course>
<desc>Speed 4.0 km/h Distance 1.01 km</desc>
<time>2010-02-21T10:16:44.82</time>
<name>705</name>
</trkpt>
<trkpt lat="48.939912" lon="8.657980">
<ele>276.0</ele>
<speed>4.4</speed>
<course>217.3</course>
<desc>Speed 4.4 km/h Distance 1.01 km</desc>
<time>2010-02-21T10:16:45.82</time>
<name>706</name>
</trkpt>
<trkpt lat="48.939902" lon="8.657968">
<ele>276.5</ele>
<speed>4.2</speed>
<course>224.6</course>
<desc>Speed 4.2 km/h Distance 1.01 km</desc>
<time>2010-02-21T10:16:46.82</time>
<name>707</name>
</trkpt>
<trkpt lat="48.939892" lon="8.657953">
<ele>277.0</ele>
<speed>4.8</speed>
<course>217.5</course>
<desc>Speed 4.8 km/h Distance 1.02 km</desc>
<time>2010-02-21T10:16:47.82</time>
<name>708</name>
</trkpt>
<trkpt lat="48.939882" lon="8.657942">
<ele>277.0</ele>
<speed>3.7</speed>
<course>217.2</course>
<desc>Speed 3.7 km/h Distance 1.02 km</desc>
<time>2010-02-21T10:16:48.82</time>
<name>709</name>
</trkpt>
<trkpt lat="48.939872" lon="8.657930">
<ele>277.0</ele>
<speed>4.2</speed>
<course>217.2</course>
<desc>Speed 4.2 km/h Distance 1.02 km</desc>
<time>2010-02-21T10:16:49.82</time>
<name>710</name>
</trkpt>
<trkpt lat="48.939862" lon="8.657918">
<ele>277.5</ele>
<speed>4.4</speed>
<course>217.5</course>
<desc>Speed 4.4 km/h Distance 1.02 km</desc>
<time>2010-02-21T10:16:50.82</time>
<name>711</name>
</trkpt>
<trkpt lat="48.939852" lon="8.657907">
<ele>277.5</ele>
<speed>4.4</speed>
<course>213.3</course>
<desc>Speed 4.4 km/h Distance 1.02 km</desc>
<time>2010-02-21T10:16:51.82</time>
<name>712</name>
</trkpt>
<trkpt lat="48.939833" lon="8.657888">
<ele>279.5</ele>
<speed>8.1</speed>
<course>217.0</course>
<desc>Speed 8.1 km/h Distance 1.02 km</desc>
<time>2010-02-21T10:16:52.82</time>
<name>713</name>
</trkpt>
<trkpt lat="48.939822" lon="8.657875">
<ele>279.5</ele>
<speed>4.7</speed>
<course>218.1</course>
<desc>Speed 4.7 km/h Distance 1.03 km</desc>
<time>2010-02-21T10:16:53.82</time>
<name>714</name>
</trkpt>
<trkpt lat="48.939813" lon="8.657865">
<ele>280.0</ele>
<speed>4.1</speed>
<course>217.5</course>
<desc>Speed 4.1 km/h Distance 1.03 km</desc>
<time>2010-02-21T10:16:54.82</time>
<name>715</name>
</trkpt>
<trkpt lat="48.939803" lon="8.657853">
<ele>280.0</ele>
<speed>4.2</speed>
<course>221.3</course>
<desc>Speed 4.2 km/h Distance 1.03 km</desc>
<time>2010-02-21T10:16:55.82</time>
<name>716</name>
</trkpt>
<trkpt lat="48.939793" lon="8.657840">
<ele>280.5</ele>
<speed>4.4</speed>
<course>232.7</course>
<desc>Speed 4.4 km/h Distance 1.03 km</desc>
<time>2010-02-21T10:16:56.82</time>
<name>717</name>
</trkpt>
<trkpt lat="48.939785" lon="8.657823">
<ele>280.5</ele>
<speed>4.5</speed>
<course>232.7</course>
<desc>Speed 4.5 km/h Distance 1.03 km</desc>
<time>2010-02-21T10:16:57.82</time>
<name>718</name>
</trkpt>
<trkpt lat="48.939778" lon="8.657810">
<ele>281.0</ele>
<speed>4.1</speed>
<course>208.6</course>
<desc>Speed 4.1 km/h Distance 1.03 km</desc>
<time>2010-02-21T10:16:58.82</time>
<name>719</name>
</trkpt>
<trkpt lat="48.939768" lon="8.657802">
<ele>281.0</ele>
<speed>3.9</speed>
<course>213.2</course>
<desc>Speed 3.9 km/h Distance 1.03 km</desc>
<time>2010-02-21T10:16:59.82</time>
<name>720</name>
</trkpt>
<trkpt lat="48.939758" lon="8.657792">
<ele>281.5</ele>
<speed>4.6</speed>
<course>216.9</course>
<desc>Speed 4.6 km/h Distance 1.03 km</desc>
<time>2010-02-21T10:17:00.82</time>
<name>721</name>
</trkpt>
<trkpt lat="48.939747" lon="8.657778">
<ele>281.5</ele>
<speed>4.5</speed>
<course>221.3</course>
<desc>Speed 4.5 km/h Distance 1.04 km</desc>
<time>2010-02-21T10:17:01.82</time>
<name>722</name>
</trkpt>
<trkpt lat="48.939737" lon="8.657765">
<ele>282.0</ele>
<speed>4.8</speed>
<course>227.6</course>
<desc>Speed 4.8 km/h Distance 1.04 km</desc>
<time>2010-02-21T10:17:02.82</time>
<name>723</name>
</trkpt>
<trkpt lat="48.939727" lon="8.657748">
<ele>282.5</ele>
<speed>4.8</speed>
<course>224.7</course>
<desc>Speed 4.8 km/h Distance 1.04 km</desc>
<time>2010-02-21T10:17:03.82</time>
<name>724</name>
</trkpt>
<trkpt lat="48.939717" lon="8.657733">
<ele>282.5</ele>
<speed>4.2</speed>
<course>226.5</course>
<desc>Speed 4.2 km/h Distance 1.04 km</desc>
<time>2010-02-21T10:17:04.82</time>
<name>725</name>
</trkpt>
<trkpt lat="48.939708" lon="8.657720">
<ele>283.0</ele>
<speed>4.1</speed>
<course>221.2</course>
<desc>Speed 4.1 km/h Distance 1.04 km</desc>
<time>2010-02-21T10:17:05.82</time>
<name>726</name>
</trkpt>
<trkpt lat="48.939698" lon="8.657707">
<ele>283.5</ele>
<speed>4.6</speed>
<course>217.3</course>
<desc>Speed 4.6 km/h Distance 1.04 km</desc>
<time>2010-02-21T10:17:06.82</time>
<name>727</name>
</trkpt>
<trkpt lat="48.939688" lon="8.657695">
<ele>283.5</ele>
<speed>4.5</speed>
<course>222.3</course>
<desc>Speed 4.5 km/h Distance 1.05 km</desc>
<time>2010-02-21T10:17:07.82</time>
<name>728</name>
</trkpt>
<trkpt lat="48.939680" lon="8.657683">
<ele>284.0</ele>
<speed>4.3</speed>
<course>221.2</course>
<desc>Speed 4.3 km/h Distance 1.05 km</desc>
<time>2010-02-21T10:17:08.82</time>
<name>729</name>
</trkpt>
<trkpt lat="48.939670" lon="8.657670">
<ele>284.0</ele>
<speed>3.7</speed>
<course>222.6</course>
<desc>Speed 3.7 km/h Distance 1.05 km</desc>
<time>2010-02-21T10:17:09.82</time>
<name>730</name>
</trkpt>
<trkpt lat="48.939662" lon="8.657658">
<ele>284.0</ele>
<speed>3.9</speed>
<course>217.5</course>
<desc>Speed 3.9 km/h Distance 1.05 km</desc>
<time>2010-02-21T10:17:10.82</time>
<name>731</name>
</trkpt>
<trkpt lat="48.939652" lon="8.657647">
<ele>284.5</ele>
<speed>3.9</speed>
<course>222.6</course>
<desc>Speed 3.9 km/h Distance 1.05 km</desc>
<time>2010-02-21T10:17:11.82</time>
<name>732</name>
</trkpt>
<trkpt lat="48.939643" lon="8.657635">
<ele>285.0</ele>
<speed>4.3</speed>
<course>217.5</course>
<desc>Speed 4.3 km/h Distance 1.05 km</desc>
<time>2010-02-21T10:17:12.82</time>
<name>733</name>
</trkpt>
<trkpt lat="48.939633" lon="8.657623">
<ele>285.5</ele>
<speed>4.5</speed>
<course>216.9</course>
<desc>Speed 4.5 km/h Distance 1.05 km</desc>
<time>2010-02-21T10:17:13.82</time>
<name>734</name>
</trkpt>
<trkpt lat="48.939622" lon="8.657610">
<ele>285.5</ele>
<speed>4.7</speed>
<course>222.6</course>
<desc>Speed 4.7 km/h Distance 1.06 km</desc>
<time>2010-02-21T10:17:14.82</time>
<name>735</name>
</trkpt>
<trkpt lat="48.939613" lon="8.657598">
<ele>286.0</ele>
<speed>4.4</speed>
<course>210.3</course>
<desc>Speed 4.4 km/h Distance 1.06 km</desc>
<time>2010-02-21T10:17:15.82</time>
<name>736</name>
</trkpt>
<trkpt lat="48.939598" lon="8.657585">
<ele>287.0</ele>
<speed>4.3</speed>
<course>202.3</course>
<desc>Speed 4.3 km/h Distance 1.06 km</desc>
<time>2010-02-21T10:17:16.82</time>
<name>737</name>
</trkpt>
<trkpt lat="48.939585" lon="8.657577">
<ele>288.0</ele>
<speed>3.2</speed>
<course>207.2</course>
<desc>Speed 3.2 km/h Distance 1.06 km</desc>
<time>2010-02-21T10:17:17.82</time>
<name>738</name>
</trkpt>
<trkpt lat="48.939570" lon="8.657565">
<ele>289.0</ele>
<speed>3.6</speed>
<course>222.6</course>
<desc>Speed 3.6 km/h Distance 1.06 km</desc>
<time>2010-02-21T10:17:18.82</time>
<name>739</name>
</trkpt>
<trkpt lat="48.939562" lon="8.657553">
<ele>289.0</ele>
<speed>4.2</speed>
<course>218.1</course>
<desc>Speed 4.2 km/h Distance 1.06 km</desc>
<time>2010-02-21T10:17:19.82</time>
<name>740</name>
</trkpt>
<trkpt lat="48.939553" lon="8.657543">
<ele>289.5</ele>
<speed>3.7</speed>
<course>218.1</course>
<desc>Speed 3.7 km/h Distance 1.06 km</desc>
<time>2010-02-21T10:17:20.82</time>
<name>741</name>
</trkpt>
<trkpt lat="48.939545" lon="8.657533">
<ele>290.0</ele>
<speed>3.5</speed>
<course>218.1</course>
<desc>Speed 3.5 km/h Distance 1.07 km</desc>
<time>2010-02-21T10:17:21.82</time>
<name>742</name>
</trkpt>
<trkpt lat="48.939537" lon="8.657523">
<ele>290.0</ele>
<speed>3.3</speed>
<course>213.5</course>
<desc>Speed 3.3 km/h Distance 1.07 km</desc>
<time>2010-02-21T10:17:22.82</time>
<name>743</name>
</trkpt>
<trkpt lat="48.939528" lon="8.657515">
<ele>290.5</ele>
<speed>3.4</speed>
<course>213.2</course>
<desc>Speed 3.4 km/h Distance 1.07 km</desc>
<time>2010-02-21T10:17:23.82</time>
<name>744</name>
</trkpt>
<trkpt lat="48.939518" lon="8.657505">
<ele>290.5</ele>
<speed>3.4</speed>
<course>208.6</course>
<desc>Speed 3.4 km/h Distance 1.07 km</desc>
<time>2010-02-21T10:17:24.82</time>
<name>745</name>
</trkpt>
<trkpt lat="48.939508" lon="8.657497">
<ele>291.0</ele>
<speed>3.1</speed>
<course>222.5</course>
<desc>Speed 3.1 km/h Distance 1.07 km</desc>
<time>2010-02-21T10:17:25.82</time>
<name>746</name>
</trkpt>
<trkpt lat="48.939500" lon="8.657485">
<ele>291.0</ele>
<speed>3.9</speed>
<course>229.1</course>
<desc>Speed 3.9 km/h Distance 1.07 km</desc>
<time>2010-02-21T10:17:26.82</time>
<name>747</name>
</trkpt>
<trkpt lat="48.939493" lon="8.657473">
<ele>291.0</ele>
<speed>3.4</speed>
<course>217.5</course>
<desc>Speed 3.4 km/h Distance 1.07 km</desc>
<time>2010-02-21T10:17:27.82</time>
<name>748</name>
</trkpt>
<trkpt lat="48.939483" lon="8.657462">
<ele>291.5</ele>
<speed>4.0</speed>
<course>221.3</course>
<desc>Speed 4.0 km/h Distance 1.07 km</desc>
<time>2010-02-21T10:17:28.82</time>
<name>749</name>
</trkpt>
<trkpt lat="48.939473" lon="8.657448">
<ele>292.0</ele>
<speed>4.3</speed>
<course>221.4</course>
<desc>Speed 4.3 km/h Distance 1.08 km</desc>
<time>2010-02-21T10:17:29.82</time>
<name>750</name>
</trkpt>
<trkpt lat="48.939463" lon="8.657435">
<ele>292.5</ele>
<speed>3.6</speed>
<course>220.3</course>
<desc>Speed 3.6 km/h Distance 1.08 km</desc>
<time>2010-02-21T10:17:30.82</time>
<name>751</name>
</trkpt>
<trkpt lat="48.939452" lon="8.657420">
<ele>293.0</ele>
<speed>4.2</speed>
<course>213.3</course>
<desc>Speed 4.2 km/h Distance 1.08 km</desc>
<time>2010-02-21T10:17:31.82</time>
<name>752</name>
</trkpt>
<trkpt lat="48.939440" lon="8.657408">
<ele>293.5</ele>
<speed>4.1</speed>
<course>208.6</course>
<desc>Speed 4.1 km/h Distance 1.08 km</desc>
<time>2010-02-21T10:17:32.82</time>
<name>753</name>
</trkpt>
<trkpt lat="48.939430" lon="8.657400">
<ele>293.5</ele>
<speed>3.3</speed>
<course>203.8</course>
<desc>Speed 3.3 km/h Distance 1.08 km</desc>
<time>2010-02-21T10:17:33.82</time>
<name>754</name>
</trkpt>
<trkpt lat="48.939420" lon="8.657393">
<ele>294.0</ele>
<speed>3.2</speed>
<course>213.2</course>
<desc>Speed 3.2 km/h Distance 1.08 km</desc>
<time>2010-02-21T10:17:34.82</time>
<name>755</name>
</trkpt>
<trkpt lat="48.939410" lon="8.657383">
<ele>294.0</ele>
<speed>3.7</speed>
<course>213.2</course>
<desc>Speed 3.7 km/h Distance 1.08 km</desc>
<time>2010-02-21T10:17:35.82</time>
<name>756</name>
</trkpt>
<trkpt lat="48.939402" lon="8.657375">
<ele>294.5</ele>
<speed>3.7</speed>
<course>218.1</course>
<desc>Speed 3.7 km/h Distance 1.09 km</desc>
<time>2010-02-21T10:17:36.82</time>
<name>757</name>
</trkpt>
<trkpt lat="48.939393" lon="8.657365">
<ele>294.5</ele>
<speed>3.5</speed>
<course>213.2</course>
<desc>Speed 3.5 km/h Distance 1.09 km</desc>
<time>2010-02-21T10:17:37.82</time>
<name>758</name>
</trkpt>
<trkpt lat="48.939385" lon="8.657357">
<ele>294.5</ele>
<speed>2.9</speed>
<course>208.6</course>
<desc>Speed 2.9 km/h Distance 1.09 km</desc>
<time>2010-02-21T10:17:38.82</time>
<name>759</name>
</trkpt>
<trkpt lat="48.939375" lon="8.657348">
<ele>294.5</ele>
<speed>3.2</speed>
<course>217.3</course>
<desc>Speed 3.2 km/h Distance 1.09 km</desc>
<time>2010-02-21T10:17:39.82</time>
<name>760</name>
</trkpt>
<trkpt lat="48.939365" lon="8.657337">
<ele>295.0</ele>
<speed>3.3</speed>
<course>218.1</course>
<desc>Speed 3.3 km/h Distance 1.09 km</desc>
<time>2010-02-21T10:17:40.82</time>
<name>761</name>
</trkpt>
<trkpt lat="48.939357" lon="8.657327">
<ele>295.0</ele>
<speed>3.0</speed>
<course>232.4</course>
<desc>Speed 3.0 km/h Distance 1.09 km</desc>
<time>2010-02-21T10:17:41.82</time>
<name>762</name>
</trkpt>
<trkpt lat="48.939352" lon="8.657317">
<ele>295.5</ele>
<speed>2.5</speed>
<course>203.4</course>
<desc>Speed 2.5 km/h Distance 1.09 km</desc>
<time>2010-02-21T10:17:42.82</time>
<name>763</name>
</trkpt>
<trkpt lat="48.939342" lon="8.657310">
<ele>296.0</ele>
<speed>4.0</speed>
<course>233.0</course>
<desc>Speed 4.0 km/h Distance 1.09 km</desc>
<time>2010-02-21T10:17:43.82</time>
<name>764</name>
</trkpt>
<trkpt lat="48.939338" lon="8.657303">
<ele>296.0</ele>
<speed>1.8</speed>
<course>218.1</course>
<desc>Speed 1.8 km/h Distance 1.09 km</desc>
<time>2010-02-21T10:17:44.82</time>
<name>765</name>
</trkpt>
<trkpt lat="48.939330" lon="8.657293">
<ele>296.0</ele>
<speed>3.2</speed>
<course>232.7</course>
<desc>Speed 3.2 km/h Distance 1.10 km</desc>
<time>2010-02-21T10:17:45.82</time>
<name>766</name>
</trkpt>
<trkpt lat="48.939323" lon="8.657280">
<ele>296.0</ele>
<speed>3.7</speed>
<course>228.7</course>
<desc>Speed 3.7 km/h Distance 1.10 km</desc>
<time>2010-02-21T10:17:46.82</time>
<name>767</name>
</trkpt>
<trkpt lat="48.939317" lon="8.657268">
<ele>296.5</ele>
<speed>3.1</speed>
<course>229.7</course>
<desc>Speed 3.1 km/h Distance 1.10 km</desc>
<time>2010-02-21T10:17:47.82</time>
<name>768</name>
</trkpt>
<trkpt lat="48.939308" lon="8.657253">
<ele>296.5</ele>
<speed>4.3</speed>
<course>229.7</course>
<desc>Speed 4.3 km/h Distance 1.10 km</desc>
<time>2010-02-21T10:17:48.82</time>
<name>769</name>
</trkpt>
<trkpt lat="48.939300" lon="8.657238">
<ele>297.0</ele>
<speed>4.6</speed>
<course>219.0</course>
<desc>Speed 4.6 km/h Distance 1.10 km</desc>
<time>2010-02-21T10:17:49.82</time>
<name>770</name>
</trkpt>
<trkpt lat="48.939293" lon="8.657230">
<ele>297.0</ele>
<speed>3.0</speed>
<course>192.6</course>
<desc>Speed 3.0 km/h Distance 1.10 km</desc>
<time>2010-02-21T10:17:50.82</time>
<name>771</name>
</trkpt>
<trkpt lat="48.939288" lon="8.657228">
<ele>297.0</ele>
<speed>1.9</speed>
<course>222.6</course>
<desc>Speed 1.9 km/h Distance 1.10 km</desc>
<time>2010-02-21T10:17:51.82</time>
<name>772</name>
</trkpt>
<trkpt lat="48.939280" lon="8.657217">
<ele>297.0</ele>
<speed>4.0</speed>
<course>224.5</course>
<desc>Speed 4.0 km/h Distance 1.10 km</desc>
<time>2010-02-21T10:17:52.82</time>
<name>773</name>
</trkpt>
<trkpt lat="48.939273" lon="8.657207">
<ele>297.0</ele>
<speed>3.5</speed>
<course>206.4</course>
<desc>Speed 3.5 km/h Distance 1.10 km</desc>
<time>2010-02-21T10:17:53.82</time>
<name>774</name>
</trkpt>
<trkpt lat="48.939267" lon="8.657202">
<ele>297.0</ele>
<speed>2.4</speed>
<course>213.2</course>
<desc>Speed 2.4 km/h Distance 1.11 km</desc>
<time>2010-02-21T10:17:54.82</time>
<name>775</name>
</trkpt>
<trkpt lat="48.939262" lon="8.657197">
<ele>296.5</ele>
<speed>2.0</speed>
<course>213.7</course>
<desc>Speed 2.0 km/h Distance 1.11 km</desc>
<time>2010-02-21T10:17:55.82</time>
<name>776</name>
</trkpt>
<trkpt lat="48.939255" lon="8.657190">
<ele>296.0</ele>
<speed>2.5</speed>
<course>219.4</course>
<desc>Speed 2.5 km/h Distance 1.11 km</desc>
<time>2010-02-21T10:17:56.82</time>
<name>777</name>
</trkpt>
<trkpt lat="48.939248" lon="8.657182">
<ele>297.0</ele>
<speed>3.0</speed>
<course>225.9</course>
<desc>Speed 3.0 km/h Distance 1.11 km</desc>
<time>2010-02-21T10:17:57.82</time>
<name>778</name>
</trkpt>
<trkpt lat="48.939237" lon="8.657163">
<ele>298.0</ele>
<speed>4.5</speed>
<course>227.6</course>
<desc>Speed 4.5 km/h Distance 1.11 km</desc>
<time>2010-02-21T10:17:58.82</time>
<name>779</name>
</trkpt>
<trkpt lat="48.939227" lon="8.657147">
<ele>299.0</ele>
<speed>4.7</speed>
<course>229.9</course>
<desc>Speed 4.7 km/h Distance 1.11 km</desc>
<time>2010-02-21T10:17:59.82</time>
<name>780</name>
</trkpt>
<trkpt lat="48.939218" lon="8.657132">
<ele>299.5</ele>
<speed>4.7</speed>
<course>224.5</course>
<desc>Speed 4.7 km/h Distance 1.11 km</desc>
<time>2010-02-21T10:18:00.82</time>
<name>781</name>
</trkpt>
<trkpt lat="48.939208" lon="8.657117">
<ele>299.5</ele>
<speed>4.5</speed>
<course>227.6</course>
<desc>Speed 4.5 km/h Distance 1.11 km</desc>
<time>2010-02-21T10:18:01.82</time>
<name>782</name>
</trkpt>
<trkpt lat="48.939198" lon="8.657100">
<ele>300.0</ele>
<speed>4.6</speed>
<course>223.1</course>
<desc>Speed 4.6 km/h Distance 1.12 km</desc>
<time>2010-02-21T10:18:02.82</time>
<name>783</name>
</trkpt>
<trkpt lat="48.939187" lon="8.657083">
<ele>301.0</ele>
<speed>4.5</speed>
<course>223.3</course>
<desc>Speed 4.5 km/h Distance 1.12 km</desc>
<time>2010-02-21T10:18:03.82</time>
<name>784</name>
</trkpt>
<trkpt lat="48.939175" lon="8.657067">
<ele>301.0</ele>
<speed>4.6</speed>
<course>226.5</course>
<desc>Speed 4.6 km/h Distance 1.12 km</desc>
<time>2010-02-21T10:18:04.82</time>
<name>785</name>
</trkpt>
<trkpt lat="48.939167" lon="8.657053">
<ele>301.5</ele>
<speed>4.7</speed>
<course>221.3</course>
<desc>Speed 4.7 km/h Distance 1.12 km</desc>
<time>2010-02-21T10:18:05.82</time>
<name>786</name>
</trkpt>
<trkpt lat="48.939157" lon="8.657040">
<ele>301.5</ele>
<speed>4.4</speed>
<course>224.6</course>
<desc>Speed 4.4 km/h Distance 1.12 km</desc>
<time>2010-02-21T10:18:06.82</time>
<name>787</name>
</trkpt>
<trkpt lat="48.939147" lon="8.657025">
<ele>302.0</ele>
<speed>4.4</speed>
<course>230.3</course>
<desc>Speed 4.4 km/h Distance 1.12 km</desc>
<time>2010-02-21T10:18:07.82</time>
<name>788</name>
</trkpt>
<trkpt lat="48.939137" lon="8.657007">
<ele>303.0</ele>
<speed>4.9</speed>
<course>225.9</course>
<desc>Speed 4.9 km/h Distance 1.13 km</desc>
<time>2010-02-21T10:18:08.82</time>
<name>789</name>
</trkpt>
<trkpt lat="48.939125" lon="8.656988">
<ele>303.5</ele>
<speed>4.7</speed>
<course>226.0</course>
<desc>Speed 4.7 km/h Distance 1.13 km</desc>
<time>2010-02-21T10:18:09.82</time>
<name>790</name>
</trkpt>
<trkpt lat="48.939113" lon="8.656970">
<ele>304.5</ele>
<speed>4.6</speed>
<course>221.3</course>
<desc>Speed 4.6 km/h Distance 1.13 km</desc>
<time>2010-02-21T10:18:10.82</time>
<name>791</name>
</trkpt>
<trkpt lat="48.939103" lon="8.656957">
<ele>304.5</ele>
<speed>4.6</speed>
<course>222.6</course>
<desc>Speed 4.6 km/h Distance 1.13 km</desc>
<time>2010-02-21T10:18:11.82</time>
<name>792</name>
</trkpt>
<trkpt lat="48.939095" lon="8.656945">
<ele>304.5</ele>
<speed>3.4</speed>
<course>232.7</course>
<desc>Speed 3.4 km/h Distance 1.13 km</desc>
<time>2010-02-21T10:18:12.82</time>
<name>793</name>
</trkpt>
<trkpt lat="48.939088" lon="8.656932">
<ele>304.5</ele>
<speed>3.1</speed>
<course>236.9</course>
<desc>Speed 3.1 km/h Distance 1.13 km</desc>
<time>2010-02-21T10:18:13.82</time>
<name>794</name>
</trkpt>
<trkpt lat="48.939083" lon="8.656920">
<ele>304.0</ele>
<speed>2.9</speed>
<course>246.5</course>
<desc>Speed 2.9 km/h Distance 1.13 km</desc>
<time>2010-02-21T10:18:14.82</time>
<name>795</name>
</trkpt>
<trkpt lat="48.939080" lon="8.656908">
<ele>303.5</ele>
<speed>2.6</speed>
<course>246.5</course>
<desc>Speed 2.6 km/h Distance 1.14 km</desc>
<time>2010-02-21T10:18:15.82</time>
<name>796</name>
</trkpt>
<trkpt lat="48.939077" lon="8.656897">
<ele>303.5</ele>
<speed>2.3</speed>
<course>255.6</course>
<desc>Speed 2.3 km/h Distance 1.14 km</desc>
<time>2010-02-21T10:18:16.82</time>
<name>797</name>
</trkpt>
<trkpt lat="48.939075" lon="8.656887">
<ele>302.5</ele>
<speed>2.1</speed>
<course>246.4</course>
<desc>Speed 2.1 km/h Distance 1.14 km</desc>
<time>2010-02-21T10:18:17.82</time>
<name>798</name>
</trkpt>
<trkpt lat="48.939072" lon="8.656875">
<ele>301.5</ele>
<speed>2.3</speed>
<course>245.5</course>
<desc>Speed 2.3 km/h Distance 1.14 km</desc>
<time>2010-02-21T10:18:18.82</time>
<name>799</name>
</trkpt>
<trkpt lat="48.939067" lon="8.656858">
<ele>301.5</ele>
<speed>4.0</speed>
<course>232.7</course>
<desc>Speed 4.0 km/h Distance 1.14 km</desc>
<time>2010-02-21T10:18:19.82</time>
<name>800</name>
</trkpt>
<trkpt lat="48.939058" lon="8.656842">
<ele>301.5</ele>
<speed>3.9</speed>
<course>232.7</course>
<desc>Speed 3.9 km/h Distance 1.14 km</desc>
<time>2010-02-21T10:18:20.82</time>
<name>801</name>
</trkpt>
<trkpt lat="48.939050" lon="8.656825">
<ele>301.0</ele>
<speed>4.9</speed>
<course>232.7</course>
<desc>Speed 4.9 km/h Distance 1.14 km</desc>
<time>2010-02-21T10:18:21.82</time>
<name>802</name>
</trkpt>
<trkpt lat="48.939042" lon="8.656808">
<ele>301.0</ele>
<speed>4.6</speed>
<course>241.0</course>
<desc>Speed 4.6 km/h Distance 1.14 km</desc>
<time>2010-02-21T10:18:22.82</time>
<name>803</name>
</trkpt>
<trkpt lat="48.939035" lon="8.656790">
<ele>301.0</ele>
<speed>4.3</speed>
<course>229.7</course>
<desc>Speed 4.3 km/h Distance 1.15 km</desc>
<time>2010-02-21T10:18:23.82</time>
<name>804</name>
</trkpt>
<trkpt lat="48.939027" lon="8.656775">
<ele>301.5</ele>
<speed>4.2</speed>
<course>255.6</course>
<desc>Speed 4.2 km/h Distance 1.15 km</desc>
<time>2010-02-21T10:18:24.82</time>
<name>805</name>
</trkpt>
<trkpt lat="48.939025" lon="8.656765">
<ele>301.0</ele>
<speed>2.1</speed>
<course>229.8</course>
<desc>Speed 2.1 km/h Distance 1.15 km</desc>
<time>2010-02-21T10:18:25.82</time>
<name>806</name>
</trkpt>
<trkpt lat="48.939017" lon="8.656750">
<ele>301.5</ele>
<speed>4.6</speed>
<course>236.1</course>
<desc>Speed 4.6 km/h Distance 1.15 km</desc>
<time>2010-02-21T10:18:26.82</time>
<name>807</name>
</trkpt>
<trkpt lat="48.939010" lon="8.656735">
<ele>301.5</ele>
<speed>3.6</speed>
<course>224.7</course>
<desc>Speed 3.6 km/h Distance 1.15 km</desc>
<time>2010-02-21T10:18:27.82</time>
<name>808</name>
</trkpt>
<trkpt lat="48.939000" lon="8.656720">
<ele>302.0</ele>
<speed>4.7</speed>
<course>219.4</course>
<desc>Speed 4.7 km/h Distance 1.15 km</desc>
<time>2010-02-21T10:18:28.82</time>
<name>809</name>
</trkpt>
<trkpt lat="48.938993" lon="8.656712">
<ele>302.0</ele>
<speed>3.0</speed>
<course>232.7</course>
<desc>Speed 3.0 km/h Distance 1.15 km</desc>
<time>2010-02-21T10:18:29.82</time>
<name>810</name>
</trkpt>
<trkpt lat="48.938987" lon="8.656698">
<ele>302.5</ele>
<speed>3.4</speed>
<course>223.5</course>
<desc>Speed 3.4 km/h Distance 1.15 km</desc>
<time>2010-02-21T10:18:30.82</time>
<name>811</name>
</trkpt>
<trkpt lat="48.938983" lon="8.656693">
<ele>302.5</ele>
<speed>1.0</speed>
<course>224.5</course>
<desc>Speed 1.0 km/h Distance 1.15 km</desc>
<time>2010-02-21T10:18:31.82</time>
<name>812</name>
</trkpt>
<trkpt lat="48.938977" lon="8.656683">
<ele>302.5</ele>
<speed>1.9</speed>
<course>226.5</course>
<desc>Speed 1.9 km/h Distance 1.16 km</desc>
<time>2010-02-21T10:18:32.82</time>
<name>813</name>
</trkpt>
<trkpt lat="48.938968" lon="8.656670">
<ele>303.5</ele>
<speed>2.5</speed>
<course>238.7</course>
<desc>Speed 2.5 km/h Distance 1.16 km</desc>
<time>2010-02-21T10:18:33.82</time>
<name>814</name>
</trkpt>
<trkpt lat="48.938962" lon="8.656653">
<ele>303.5</ele>
<speed>4.1</speed>
<course>235.9</course>
<desc>Speed 4.1 km/h Distance 1.16 km</desc>
<time>2010-02-21T10:18:34.82</time>
<name>815</name>
</trkpt>
<trkpt lat="48.938955" lon="8.656638">
<ele>304.0</ele>
<speed>4.4</speed>
<course>238.2</course>
<desc>Speed 4.4 km/h Distance 1.16 km</desc>
<time>2010-02-21T10:18:35.82</time>
<name>816</name>
</trkpt>
<trkpt lat="48.938952" lon="8.656630">
<ele>303.5</ele>
<speed>1.6</speed>
<course>255.6</course>
<desc>Speed 1.6 km/h Distance 1.16 km</desc>
<time>2010-02-21T10:18:36.82</time>
<name>817</name>
</trkpt>
<trkpt lat="48.938950" lon="8.656620">
<ele>303.5</ele>
<speed>2.1</speed>
<course>221.2</course>
<desc>Speed 2.1 km/h Distance 1.16 km</desc>
<time>2010-02-21T10:18:37.82</time>
<name>818</name>
</trkpt>
<trkpt lat="48.938940" lon="8.656607">
<ele>303.5</ele>
<speed>2.9</speed>
<course>229.1</course>
<desc>Speed 2.9 km/h Distance 1.16 km</desc>
<time>2010-02-21T10:18:38.82</time>
<name>819</name>
</trkpt>
<trkpt lat="48.938933" lon="8.656595">
<ele>304.5</ele>
<speed>3.1</speed>
<course>236.7</course>
<desc>Speed 3.1 km/h Distance 1.16 km</desc>
<time>2010-02-21T10:18:39.82</time>
<name>820</name>
</trkpt>
<trkpt lat="48.938928" lon="8.656583">
<ele>304.5</ele>
<speed>3.4</speed>
<course>224.5</course>
<desc>Speed 3.4 km/h Distance 1.16 km</desc>
<time>2010-02-21T10:18:40.82</time>
<name>821</name>
</trkpt>
<trkpt lat="48.938925" lon="8.656578">
<ele>305.0</ele>
<speed>1.5</speed>
<course>232.7</course>
<desc>Speed 1.5 km/h Distance 1.17 km</desc>
<time>2010-02-21T10:18:41.82</time>
<name>822</name>
</trkpt>
<trkpt lat="48.938918" lon="8.656565">
<ele>305.0</ele>
<speed>3.0</speed>
<course>222.6</course>
<desc>Speed 3.0 km/h Distance 1.17 km</desc>
<time>2010-02-21T10:18:42.82</time>
<name>823</name>
</trkpt>
<trkpt lat="48.938910" lon="8.656553">
<ele>305.5</ele>
<speed>2.9</speed>
<course>232.7</course>
<desc>Speed 2.9 km/h Distance 1.17 km</desc>
<time>2010-02-21T10:18:43.82</time>
<name>824</name>
</trkpt>
<trkpt lat="48.938902" lon="8.656537">
<ele>305.5</ele>
<speed>4.3</speed>
<course>229.8</course>
<desc>Speed 4.3 km/h Distance 1.17 km</desc>
<time>2010-02-21T10:18:44.82</time>
<name>825</name>
</trkpt>
<trkpt lat="48.938893" lon="8.656522">
<ele>305.5</ele>
<speed>4.7</speed>
<course>284.4</course>
<desc>Speed 4.7 km/h Distance 1.17 km</desc>
<time>2010-02-21T10:18:45.82</time>
<name>826</name>
</trkpt>
<trkpt lat="48.938895" lon="8.656512">
<ele>304.5</ele>
<speed>2.5</speed>
<course>245.4</course>
<desc>Speed 2.5 km/h Distance 1.17 km</desc>
<time>2010-02-21T10:18:46.82</time>
<name>827</name>
</trkpt>
<trkpt lat="48.938890" lon="8.656495">
<ele>305.0</ele>
<speed>4.4</speed>
<course>233.9</course>
<desc>Speed 4.4 km/h Distance 1.17 km</desc>
<time>2010-02-21T10:18:47.82</time>
<name>828</name>
</trkpt>
<trkpt lat="48.938888" lon="8.656492">
<ele>305.0</ele>
<speed>0.5</speed>
<course>270.0</course>
<desc>Speed 0.5 km/h Distance 1.17 km</desc>
<time>2010-02-21T10:18:48.82</time>
<name>829</name>
</trkpt>
<trkpt lat="48.938888" lon="8.656488">
<ele>305.0</ele>
<speed>0.4</speed>
<course>213.2</course>
<desc>Speed 0.4 km/h Distance 1.17 km</desc>
<time>2010-02-21T10:18:49.82</time>
<name>830</name>
</trkpt>
<trkpt lat="48.938880" lon="8.656480">
<ele>305.0</ele>
<speed>1.9</speed>
<course>224.5</course>
<desc>Speed 1.9 km/h Distance 1.17 km</desc>
<time>2010-02-21T10:18:50.82</time>
<name>831</name>
</trkpt>
<trkpt lat="48.938873" lon="8.656470">
<ele>305.0</ele>
<speed>1.9</speed>
<course>217.2</course>
<desc>Speed 1.9 km/h Distance 1.18 km</desc>
<time>2010-02-21T10:18:51.82</time>
<name>832</name>
</trkpt>
<trkpt lat="48.938872" lon="8.656468">
<ele>305.0</ele>
<speed>0.4</speed>
<course>270.0</course>
<desc>Speed 0.4 km/h Distance 1.18 km</desc>
<time>2010-02-21T10:18:52.82</time>
<name>833</name>
</trkpt>
<trkpt lat="48.938872" lon="8.656457">
<ele>304.0</ele>
<speed>2.2</speed>
<course>232.6</course>
<desc>Speed 2.2 km/h Distance 1.18 km</desc>
<time>2010-02-21T10:18:53.82</time>
<name>834</name>
</trkpt>
<trkpt lat="48.938867" lon="8.656447">
<ele>304.0</ele>
<speed>1.7</speed>
<course>233.0</course>
<desc>Speed 1.7 km/h Distance 1.18 km</desc>
<time>2010-02-21T10:18:54.82</time>
<name>835</name>
</trkpt>
<trkpt lat="48.938863" lon="8.656440">
<ele>304.0</ele>
<speed>1.9</speed>
<course>236.7</course>
<desc>Speed 1.9 km/h Distance 1.18 km</desc>
<time>2010-02-21T10:18:55.82</time>
<name>836</name>
</trkpt>
<trkpt lat="48.938858" lon="8.656428">
<ele>304.0</ele>
<speed>2.5</speed>
<course>252.9</course>
<desc>Speed 2.5 km/h Distance 1.18 km</desc>
<time>2010-02-21T10:18:56.82</time>
<name>837</name>
</trkpt>
<trkpt lat="48.938857" lon="8.656420">
<ele>303.5</ele>
<speed>0.8</speed>
<course>236.9</course>
<desc>Speed 0.8 km/h Distance 1.18 km</desc>
<time>2010-02-21T10:18:57.82</time>
<name>838</name>
</trkpt>
<trkpt lat="48.938852" lon="8.656408">
<ele>303.5</ele>
<speed>1.5</speed>
<course>222.6</course>
<desc>Speed 1.5 km/h Distance 1.18 km</desc>
<time>2010-02-21T10:18:58.82</time>
<name>839</name>
</trkpt>
<trkpt lat="48.938843" lon="8.656397">
<ele>303.5</ele>
<speed>2.5</speed>
<course>232.6</course>
<desc>Speed 2.5 km/h Distance 1.18 km</desc>
<time>2010-02-21T10:18:59.82</time>
<name>840</name>
</trkpt>
<trkpt lat="48.938838" lon="8.656387">
<ele>303.0</ele>
<speed>1.7</speed>
<course>229.9</course>
<desc>Speed 1.7 km/h Distance 1.18 km</desc>
<time>2010-02-21T10:19:00.82</time>
<name>841</name>
</trkpt>
<trkpt lat="48.938830" lon="8.656372">
<ele>303.0</ele>
<speed>4.0</speed>
<course>249.5</course>
<desc>Speed 4.0 km/h Distance 1.18 km</desc>
<time>2010-02-21T10:19:01.82</time>
<name>842</name>
</trkpt>
<trkpt lat="48.938828" lon="8.656365">
<ele>302.0</ele>
<speed>1.6</speed>
<course>227.8</course>
<desc>Speed 1.6 km/h Distance 1.18 km</desc>
<time>2010-02-21T10:19:02.82</time>
<name>843</name>
</trkpt>
<trkpt lat="48.938823" lon="8.656357">
<ele>302.0</ele>
<speed>2.5</speed>
<course>240.4</course>
<desc>Speed 2.5 km/h Distance 1.19 km</desc>
<time>2010-02-21T10:19:03.82</time>
<name>844</name>
</trkpt>
<trkpt lat="48.938818" lon="8.656343">
<ele>302.5</ele>
<speed>2.9</speed>
<course>243.1</course>
<desc>Speed 2.9 km/h Distance 1.19 km</desc>
<time>2010-02-21T10:19:04.82</time>
<name>845</name>
</trkpt>
<trkpt lat="48.938813" lon="8.656328">
<ele>303.0</ele>
<speed>3.0</speed>
<course>232.7</course>
<desc>Speed 3.0 km/h Distance 1.19 km</desc>
<time>2010-02-21T10:19:05.82</time>
<name>846</name>
</trkpt>
<trkpt lat="48.938805" lon="8.656312">
<ele>303.0</ele>
<speed>3.7</speed>
<course>232.7</course>
<desc>Speed 3.7 km/h Distance 1.19 km</desc>
<time>2010-02-21T10:19:06.82</time>
<name>847</name>
</trkpt>
<trkpt lat="48.938795" lon="8.656292">
<ele>303.0</ele>
<speed>3.9</speed>
<course>232.8</course>
<desc>Speed 3.9 km/h Distance 1.19 km</desc>
<time>2010-02-21T10:19:07.82</time>
<name>848</name>
</trkpt>
<trkpt lat="48.938783" lon="8.656268">
<ele>303.5</ele>
<speed>4.4</speed>
<course>227.5</course>
<desc>Speed 4.4 km/h Distance 1.19 km</desc>
<time>2010-02-21T10:19:08.82</time>
<name>849</name>
</trkpt>
<trkpt lat="48.938773" lon="8.656252">
<ele>303.5</ele>
<speed>3.4</speed>
<course>230.3</course>
<desc>Speed 3.4 km/h Distance 1.20 km</desc>
<time>2010-02-21T10:19:09.82</time>
<name>850</name>
</trkpt>
<trkpt lat="48.938763" lon="8.656233">
<ele>303.0</ele>
<speed>3.3</speed>
<course>223.2</course>
<desc>Speed 3.3 km/h Distance 1.20 km</desc>
<time>2010-02-21T10:19:10.82</time>
<name>851</name>
</trkpt>
<trkpt lat="48.938752" lon="8.656217">
<ele>303.5</ele>
<speed>3.7</speed>
<course>224.5</course>
<desc>Speed 3.7 km/h Distance 1.20 km</desc>
<time>2010-02-21T10:19:11.82</time>
<name>852</name>
</trkpt>
<trkpt lat="48.938742" lon="8.656202">
<ele>303.5</ele>
<speed>3.9</speed>
<course>224.5</course>
<desc>Speed 3.9 km/h Distance 1.20 km</desc>
<time>2010-02-21T10:19:12.82</time>
<name>853</name>
</trkpt>
<trkpt lat="48.938732" lon="8.656187">
<ele>303.5</ele>
<speed>3.7</speed>
<course>227.6</course>
<desc>Speed 3.7 km/h Distance 1.20 km</desc>
<time>2010-02-21T10:19:13.82</time>
<name>854</name>
</trkpt>
<trkpt lat="48.938722" lon="8.656170">
<ele>303.5</ele>
<speed>3.5</speed>
<course>232.7</course>
<desc>Speed 3.5 km/h Distance 1.20 km</desc>
<time>2010-02-21T10:19:14.82</time>
<name>855</name>
</trkpt>
<trkpt lat="48.938713" lon="8.656153">
<ele>303.5</ele>
<speed>2.9</speed>
<course>230.3</course>
<desc>Speed 2.9 km/h Distance 1.21 km</desc>
<time>2010-02-21T10:19:15.82</time>
<name>856</name>
</trkpt>
<trkpt lat="48.938703" lon="8.656135">
<ele>304.0</ele>
<speed>3.2</speed>
<course>227.6</course>
<desc>Speed 3.2 km/h Distance 1.21 km</desc>
<time>2010-02-21T10:19:16.82</time>
<name>857</name>
</trkpt>
<trkpt lat="48.938693" lon="8.656118">
<ele>304.0</ele>
<speed>4.2</speed>
<course>226.6</course>
<desc>Speed 4.2 km/h Distance 1.21 km</desc>
<time>2010-02-21T10:19:17.82</time>
<name>858</name>
</trkpt>
<trkpt lat="48.938685" lon="8.656105">
<ele>303.5</ele>
<speed>3.1</speed>
<course>224.5</course>
<desc>Speed 3.1 km/h Distance 1.21 km</desc>
<time>2010-02-21T10:19:18.82</time>
<name>859</name>
</trkpt>
<trkpt lat="48.938682" lon="8.656100">
<ele>303.0</ele>
<speed>1.3</speed>
<course>217.2</course>
<desc>Speed 1.3 km/h Distance 1.21 km</desc>
<time>2010-02-21T10:19:19.82</time>
<name>860</name>
</trkpt>
<trkpt lat="48.938680" lon="8.656098">
<ele>303.5</ele>
<speed>0.6</speed>
<course>270.0</course>
<desc>Speed 0.6 km/h Distance 1.21 km</desc>
<time>2010-02-21T10:19:20.82</time>
<name>861</name>
</trkpt>
<trkpt lat="48.938680" lon="8.656093">
<ele>303.0</ele>
<speed>0.8</speed>
<course>233.9</course>
<desc>Speed 0.8 km/h Distance 1.21 km</desc>
<time>2010-02-21T10:19:21.82</time>
<name>862</name>
</trkpt>
<trkpt lat="48.938678" lon="8.656090">
<ele>302.0</ele>
<speed>0.8</speed>
<course>224.5</course>
<desc>Speed 0.8 km/h Distance 1.21 km</desc>
<time>2010-02-21T10:19:22.82</time>
<name>863</name>
</trkpt>
<trkpt lat="48.938675" lon="8.656085">
<ele>301.5</ele>
<speed>1.3</speed>
<course>233.0</course>
<desc>Speed 1.3 km/h Distance 1.21 km</desc>
<time>2010-02-21T10:19:23.82</time>
<name>864</name>
</trkpt>
<trkpt lat="48.938672" lon="8.656078">
<ele>300.5</ele>
<speed>1.7</speed>
<course>233.0</course>
<desc>Speed 1.7 km/h Distance 1.21 km</desc>
<time>2010-02-21T10:19:24.82</time>
<name>865</name>
</trkpt>
<trkpt lat="48.938668" lon="8.656072">
<ele>300.5</ele>
<speed>1.5</speed>
<course>219.4</course>
<desc>Speed 1.5 km/h Distance 1.21 km</desc>
<time>2010-02-21T10:19:25.82</time>
<name>866</name>
</trkpt>
<trkpt lat="48.938662" lon="8.656063">
<ele>300.0</ele>
<speed>2.0</speed>
<course>214.1</course>
<desc>Speed 2.0 km/h Distance 1.21 km</desc>
<time>2010-02-21T10:19:26.82</time>
<name>867</name>
</trkpt>
<trkpt lat="48.938657" lon="8.656058">
<ele>301.0</ele>
<speed>0.6</speed>
<course>236.9</course>
<desc>Speed 0.6 km/h Distance 1.21 km</desc>
<time>2010-02-21T10:19:27.82</time>
<name>868</name>
</trkpt>
<trkpt lat="48.938652" lon="8.656047">
<ele>300.5</ele>
<speed>1.6</speed>
<course>224.5</course>
<desc>Speed 1.6 km/h Distance 1.22 km</desc>
<time>2010-02-21T10:19:28.82</time>
<name>869</name>
</trkpt>
<trkpt lat="48.938645" lon="8.656037">
<ele>300.0</ele>
<speed>1.4</speed>
<course>232.6</course>
<desc>Speed 1.4 km/h Distance 1.22 km</desc>
<time>2010-02-21T10:19:29.82</time>
<name>870</name>
</trkpt>
<trkpt lat="48.938640" lon="8.656027">
<ele>300.0</ele>
<speed>1.9</speed>
<course>233.0</course>
<desc>Speed 1.9 km/h Distance 1.22 km</desc>
<time>2010-02-21T10:19:30.82</time>
<name>871</name>
</trkpt>
<trkpt lat="48.938637" lon="8.656020">
<ele>300.0</ele>
<speed>1.7</speed>
<course>232.8</course>
<desc>Speed 1.7 km/h Distance 1.22 km</desc>
<time>2010-02-21T10:19:31.82</time>
<name>872</name>
</trkpt>
<trkpt lat="48.938632" lon="8.656010">
<ele>300.0</ele>
<speed>2.6</speed>
<course>253.1</course>
<desc>Speed 2.6 km/h Distance 1.22 km</desc>
<time>2010-02-21T10:19:32.82</time>
<name>873</name>
</trkpt>
<trkpt lat="48.938630" lon="8.656002">
<ele>300.5</ele>
<speed>1.1</speed>
<course>212.3</course>
<desc>Speed 1.1 km/h Distance 1.22 km</desc>
<time>2010-02-21T10:19:33.82</time>
<name>874</name>
</trkpt>
<trkpt lat="48.938625" lon="8.655997">
<ele>300.0</ele>
<speed>1.5</speed>
<course>219.4</course>
<desc>Speed 1.5 km/h Distance 1.22 km</desc>
<time>2010-02-21T10:19:34.82</time>
<name>875</name>
</trkpt>
<trkpt lat="48.938618" lon="8.655988">
<ele>300.0</ele>
<speed>2.0</speed>
<course>213.2</course>
<desc>Speed 2.0 km/h Distance 1.22 km</desc>
<time>2010-02-21T10:19:35.82</time>
<name>876</name>
</trkpt>
<trkpt lat="48.938613" lon="8.655983">
<ele>300.0</ele>
<speed>1.8</speed>
<course>205.2</course>
<desc>Speed 1.8 km/h Distance 1.22 km</desc>
<time>2010-02-21T10:19:36.82</time>
<name>877</name>
</trkpt>
<trkpt lat="48.938602" lon="8.655975">
<ele>300.5</ele>
<speed>3.0</speed>
<course>226.5</course>
<desc>Speed 3.0 km/h Distance 1.22 km</desc>
<time>2010-02-21T10:19:37.82</time>
<name>878</name>
</trkpt>
<trkpt lat="48.938593" lon="8.655962">
<ele>300.5</ele>
<speed>3.2</speed>
<course>221.2</course>
<desc>Speed 3.2 km/h Distance 1.22 km</desc>
<time>2010-02-21T10:19:38.82</time>
<name>879</name>
</trkpt>
<trkpt lat="48.938583" lon="8.655948">
<ele>300.0</ele>
<speed>3.3</speed>
<course>223.1</course>
<desc>Speed 3.3 km/h Distance 1.23 km</desc>
<time>2010-02-21T10:19:39.82</time>
<name>880</name>
</trkpt>
<trkpt lat="48.938572" lon="8.655932">
<ele>300.0</ele>
<speed>3.3</speed>
<course>236.7</course>
<desc>Speed 3.3 km/h Distance 1.23 km</desc>
<time>2010-02-21T10:19:40.82</time>
<name>881</name>
</trkpt>
<trkpt lat="48.938567" lon="8.655920">
<ele>300.0</ele>
<speed>2.9</speed>
<course>232.4</course>
<desc>Speed 2.9 km/h Distance 1.23 km</desc>
<time>2010-02-21T10:19:41.82</time>
<name>882</name>
</trkpt>
<trkpt lat="48.938562" lon="8.655910">
<ele>299.5</ele>
<speed>1.8</speed>
<course>229.8</course>
<desc>Speed 1.8 km/h Distance 1.23 km</desc>
<time>2010-02-21T10:19:42.82</time>
<name>883</name>
</trkpt>
<trkpt lat="48.938553" lon="8.655895">
<ele>299.5</ele>
<speed>2.7</speed>
<course>209.8</course>
<desc>Speed 2.7 km/h Distance 1.23 km</desc>
<time>2010-02-21T10:19:43.82</time>
<name>884</name>
</trkpt>
<trkpt lat="48.938540" lon="8.655883">
<ele>299.0</ele>
<speed>2.7</speed>
<course>213.3</course>
<desc>Speed 2.7 km/h Distance 1.23 km</desc>
<time>2010-02-21T10:19:44.82</time>
<name>885</name>
</trkpt>
<trkpt lat="48.938527" lon="8.655870">
<ele>299.0</ele>
<speed>2.8</speed>
<course>224.5</course>
<desc>Speed 2.8 km/h Distance 1.23 km</desc>
<time>2010-02-21T10:19:45.82</time>
<name>886</name>
</trkpt>
<trkpt lat="48.938517" lon="8.655855">
<ele>299.5</ele>
<speed>4.2</speed>
<course>232.8</course>
<desc>Speed 4.2 km/h Distance 1.24 km</desc>
<time>2010-02-21T10:19:46.82</time>
<name>887</name>
</trkpt>
<trkpt lat="48.938512" lon="8.655845">
<ele>299.5</ele>
<speed>1.5</speed>
<course>232.7</course>
<desc>Speed 1.5 km/h Distance 1.24 km</desc>
<time>2010-02-21T10:19:47.82</time>
<name>888</name>
</trkpt>
<trkpt lat="48.938505" lon="8.655832">
<ele>299.0</ele>
<speed>2.2</speed>
<course>238.6</course>
<desc>Speed 2.2 km/h Distance 1.24 km</desc>
<time>2010-02-21T10:19:48.82</time>
<name>889</name>
</trkpt>
<trkpt lat="48.938498" lon="8.655815">
<ele>298.5</ele>
<speed>2.1</speed>
<course>235.9</course>
<desc>Speed 2.1 km/h Distance 1.24 km</desc>
<time>2010-02-21T10:19:49.82</time>
<name>890</name>
</trkpt>
<trkpt lat="48.938492" lon="8.655800">
<ele>298.0</ele>
<speed>1.6</speed>
<course>249.1</course>
<desc>Speed 1.6 km/h Distance 1.24 km</desc>
<time>2010-02-21T10:19:50.82</time>
<name>891</name>
</trkpt>
<trkpt lat="48.938488" lon="8.655787">
<ele>297.5</ele>
<speed>2.2</speed>
<course>229.7</course>
<desc>Speed 2.2 km/h Distance 1.24 km</desc>
<time>2010-02-21T10:19:51.82</time>
<name>892</name>
</trkpt>
<trkpt lat="48.938480" lon="8.655772">
<ele>297.5</ele>
<speed>2.8</speed>
<course>230.3</course>
<desc>Speed 2.8 km/h Distance 1.24 km</desc>
<time>2010-02-21T10:19:52.82</time>
<name>893</name>
</trkpt>
<trkpt lat="48.938470" lon="8.655753">
<ele>297.0</ele>
<speed>3.0</speed>
<course>230.3</course>
<desc>Speed 3.0 km/h Distance 1.25 km</desc>
<time>2010-02-21T10:19:53.82</time>
<name>894</name>
</trkpt>
<trkpt lat="48.938460" lon="8.655735">
<ele>297.0</ele>
<speed>4.2</speed>
<course>224.3</course>
<desc>Speed 4.2 km/h Distance 1.25 km</desc>
<time>2010-02-21T10:19:54.82</time>
<name>895</name>
</trkpt>
<trkpt lat="48.938453" lon="8.655725">
<ele>296.0</ele>
<speed>0.8</speed>
<course>232.8</course>
<desc>Speed 0.8 km/h Distance 1.25 km</desc>
<time>2010-02-21T10:19:55.82</time>
<name>896</name>
</trkpt>
<trkpt lat="48.938447" lon="8.655712">
<ele>295.5</ele>
<speed>1.4</speed>
<course>243.1</course>
<desc>Speed 1.4 km/h Distance 1.25 km</desc>
<time>2010-02-21T10:19:56.82</time>
<name>897</name>
</trkpt>
<trkpt lat="48.938442" lon="8.655697">
<ele>295.0</ele>
<speed>1.7</speed>
<course>223.6</course>
<desc>Speed 1.7 km/h Distance 1.25 km</desc>
<time>2010-02-21T10:19:57.82</time>
<name>898</name>
</trkpt>
<trkpt lat="48.938408" lon="8.655648">
<ele>298.5</ele>
<speed>3.2</speed>
<course>270.0</course>
<desc>Speed 3.2 km/h Distance 1.26 km</desc>
<time>2010-02-21T10:19:59.82</time>
<name>899</name>
</trkpt>
<trkpt lat="48.938408" lon="8.655633">
<ele>297.5</ele>
<speed>2.7</speed>
<course>270.0</course>
<desc>Speed 2.7 km/h Distance 1.26 km</desc>
<time>2010-02-21T10:20:00.82</time>
<name>900</name>
</trkpt>
<trkpt lat="48.938408" lon="8.655617">
<ele>297.0</ele>
<speed>3.2</speed>
<course>270.0</course>
<desc>Speed 3.2 km/h Distance 1.26 km</desc>
<time>2010-02-21T10:20:01.82</time>
<name>901</name>
</trkpt>
<trkpt lat="48.938408" lon="8.655600">
<ele>296.5</ele>
<speed>3.1</speed>
<course>254.5</course>
<desc>Speed 3.1 km/h Distance 1.26 km</desc>
<time>2010-02-21T10:20:02.82</time>
<name>902</name>
</trkpt>
<trkpt lat="48.938405" lon="8.655582">
<ele>296.0</ele>
<speed>2.8</speed>
<course>255.8</course>
<desc>Speed 2.8 km/h Distance 1.26 km</desc>
<time>2010-02-21T10:20:03.82</time>
<name>903</name>
</trkpt>
<trkpt lat="48.938403" lon="8.655572">
<ele>295.5</ele>
<speed>2.6</speed>
<course>257.7</course>
<desc>Speed 2.6 km/h Distance 1.26 km</desc>
<time>2010-02-21T10:20:04.82</time>
<name>904</name>
</trkpt>
<trkpt lat="48.938402" lon="8.655560">
<ele>295.5</ele>
<speed>2.4</speed>
<course>261.4</course>
<desc>Speed 2.4 km/h Distance 1.26 km</desc>
<time>2010-02-21T10:20:05.82</time>
<name>905</name>
</trkpt>
<trkpt lat="48.938400" lon="8.655543">
<ele>295.5</ele>
<speed>2.5</speed>
<course>251.4</course>
<desc>Speed 2.5 km/h Distance 1.26 km</desc>
<time>2010-02-21T10:20:06.82</time>
<name>906</name>
</trkpt>
<trkpt lat="48.938397" lon="8.655528">
<ele>295.5</ele>
<speed>3.0</speed>
<course>238.6</course>
<desc>Speed 3.0 km/h Distance 1.26 km</desc>
<time>2010-02-21T10:20:07.82</time>
<name>907</name>
</trkpt>
<trkpt lat="48.938393" lon="8.655520">
<ele>294.5</ele>
<speed>1.7</speed>
<course>232.8</course>
<desc>Speed 1.7 km/h Distance 1.27 km</desc>
<time>2010-02-21T10:20:08.82</time>
<name>908</name>
</trkpt>
<trkpt lat="48.938388" lon="8.655510">
<ele>294.0</ele>
<speed>2.2</speed>
<course>238.6</course>
<desc>Speed 2.2 km/h Distance 1.27 km</desc>
<time>2010-02-21T10:20:09.82</time>
<name>909</name>
</trkpt>
<trkpt lat="48.938385" lon="8.655502">
<ele>294.0</ele>
<speed>2.0</speed>
<course>252.9</course>
<desc>Speed 2.0 km/h Distance 1.27 km</desc>
<time>2010-02-21T10:20:10.82</time>
<name>910</name>
</trkpt>
<trkpt lat="48.938383" lon="8.655493">
<ele>293.0</ele>
<speed>1.6</speed>
<course>270.0</course>
<desc>Speed 1.6 km/h Distance 1.27 km</desc>
<time>2010-02-21T10:20:11.82</time>
<name>911</name>
</trkpt>
<trkpt lat="48.938383" lon="8.655483">
<ele>292.5</ele>
<speed>1.8</speed>
<course>251.3</course>
<desc>Speed 1.8 km/h Distance 1.27 km</desc>
<time>2010-02-21T10:20:12.82</time>
<name>912</name>
</trkpt>
<trkpt lat="48.938380" lon="8.655468">
<ele>293.5</ele>
<speed>2.6</speed>
<course>243.0</course>
<desc>Speed 2.6 km/h Distance 1.27 km</desc>
<time>2010-02-21T10:20:13.82</time>
<name>913</name>
</trkpt>
<trkpt lat="48.938377" lon="8.655458">
<ele>293.5</ele>
<speed>2.2</speed>
<course>240.3</course>
<desc>Speed 2.2 km/h Distance 1.27 km</desc>
<time>2010-02-21T10:20:14.82</time>
<name>914</name>
</trkpt>
<trkpt lat="48.938372" lon="8.655445">
<ele>294.0</ele>
<speed>3.2</speed>
<course>249.2</course>
<desc>Speed 3.2 km/h Distance 1.27 km</desc>
<time>2010-02-21T10:20:15.82</time>
<name>915</name>
</trkpt>
<trkpt lat="48.938368" lon="8.655432">
<ele>294.0</ele>
<speed>3.6</speed>
<course>232.8</course>
<desc>Speed 3.6 km/h Distance 1.27 km</desc>
<time>2010-02-21T10:20:16.82</time>
<name>916</name>
</trkpt>
<trkpt lat="48.938362" lon="8.655418">
<ele>294.5</ele>
<speed>2.8</speed>
<course>246.5</course>
<desc>Speed 2.8 km/h Distance 1.27 km</desc>
<time>2010-02-21T10:20:17.82</time>
<name>917</name>
</trkpt>
<trkpt lat="48.938358" lon="8.655407">
<ele>294.0</ele>
<speed>2.6</speed>
<course>237.1</course>
<desc>Speed 2.6 km/h Distance 1.27 km</desc>
<time>2010-02-21T10:20:18.82</time>
<name>918</name>
</trkpt>
<trkpt lat="48.938353" lon="8.655395">
<ele>293.5</ele>
<speed>2.8</speed>
<course>241.5</course>
<desc>Speed 2.8 km/h Distance 1.28 km</desc>
<time>2010-02-21T10:20:19.82</time>
<name>919</name>
</trkpt>
<trkpt lat="48.938345" lon="8.655372">
<ele>294.0</ele>
<speed>3.1</speed>
<course>253.1</course>
<desc>Speed 3.1 km/h Distance 1.28 km</desc>
<time>2010-02-21T10:20:20.82</time>
<name>920</name>
</trkpt>
<trkpt lat="48.938342" lon="8.655355">
<ele>294.0</ele>
<speed>3.3</speed>
<course>257.7</course>
<desc>Speed 3.3 km/h Distance 1.28 km</desc>
<time>2010-02-21T10:20:21.82</time>
<name>921</name>
</trkpt>
<trkpt lat="48.938340" lon="8.655343">
<ele>293.5</ele>
<speed>3.0</speed>
<course>261.3</course>
<desc>Speed 3.0 km/h Distance 1.28 km</desc>
<time>2010-02-21T10:20:22.82</time>
<name>922</name>
</trkpt>
<trkpt lat="48.938338" lon="8.655327">
<ele>293.5</ele>
<speed>3.7</speed>
<course>236.7</course>
<desc>Speed 3.7 km/h Distance 1.28 km</desc>
<time>2010-02-21T10:20:23.82</time>
<name>923</name>
</trkpt>
<trkpt lat="48.938307" lon="8.655253">
<ele>297.5</ele>
<speed>3.1</speed>
<course>247.1</course>
<desc>Speed 3.1 km/h Distance 1.29 km</desc>
<time>2010-02-21T10:20:25.82</time>
<name>924</name>
</trkpt>
<trkpt lat="48.938298" lon="8.655223">
<ele>299.0</ele>
<speed>3.1</speed>
<course>240.7</course>
<desc>Speed 3.1 km/h Distance 1.29 km</desc>
<time>2010-02-21T10:20:26.82</time>
<name>925</name>
</trkpt>
<trkpt lat="48.938287" lon="8.655192">
<ele>301.5</ele>
<speed>2.6</speed>
<course>261.4</course>
<desc>Speed 2.6 km/h Distance 1.29 km</desc>
<time>2010-02-21T10:20:27.82</time>
<name>926</name>
</trkpt>
<trkpt lat="48.938285" lon="8.655175">
<ele>302.0</ele>
<speed>3.2</speed>
<course>270.0</course>
<desc>Speed 3.2 km/h Distance 1.29 km</desc>
<time>2010-02-21T10:20:28.82</time>
<name>927</name>
</trkpt>
<trkpt lat="48.938285" lon="8.655162">
<ele>301.5</ele>
<speed>3.3</speed>
<course>257.7</course>
<desc>Speed 3.3 km/h Distance 1.29 km</desc>
<time>2010-02-21T10:20:29.82</time>
<name>928</name>
</trkpt>
<trkpt lat="48.938283" lon="8.655150">
<ele>302.5</ele>
<speed>2.6</speed>
<course>259.2</course>
<desc>Speed 2.6 km/h Distance 1.30 km</desc>
<time>2010-02-21T10:20:30.82</time>
<name>929</name>
</trkpt>
<trkpt lat="48.938282" lon="8.655137">
<ele>303.5</ele>
<speed>1.9</speed>
<course>253.0</course>
<desc>Speed 1.9 km/h Distance 1.30 km</desc>
<time>2010-02-21T10:20:31.82</time>
<name>930</name>
</trkpt>
<trkpt lat="48.938278" lon="8.655120">
<ele>304.5</ele>
<speed>1.8</speed>
<course>229.7</course>
<desc>Speed 1.8 km/h Distance 1.30 km</desc>
<time>2010-02-21T10:20:32.82</time>
<name>931</name>
</trkpt>
<trkpt lat="48.938270" lon="8.655105">
<ele>305.5</ele>
<speed>2.6</speed>
<course>270.0</course>
<desc>Speed 2.6 km/h Distance 1.30 km</desc>
<time>2010-02-21T10:20:33.82</time>
<name>932</name>
</trkpt>
<trkpt lat="48.938270" lon="8.655095">
<ele>305.5</ele>
<speed>2.8</speed>
<course>254.5</course>
<desc>Speed 2.8 km/h Distance 1.30 km</desc>
<time>2010-02-21T10:20:34.82</time>
<name>933</name>
</trkpt>
<trkpt lat="48.938267" lon="8.655077">
<ele>306.0</ele>
<speed>2.6</speed>
<course>270.0</course>
<desc>Speed 2.6 km/h Distance 1.30 km</desc>
<time>2010-02-21T10:20:35.82</time>
<name>934</name>
</trkpt>
<trkpt lat="48.938267" lon="8.655070">
<ele>305.0</ele>
<speed>1.7</speed>
<course>243.0</course>
<desc>Speed 1.7 km/h Distance 1.30 km</desc>
<time>2010-02-21T10:20:36.82</time>
<name>935</name>
</trkpt>
<trkpt lat="48.938263" lon="8.655060">
<ele>305.0</ele>
<speed>2.3</speed>
<course>233.0</course>
<desc>Speed 2.3 km/h Distance 1.30 km</desc>
<time>2010-02-21T10:20:37.82</time>
<name>936</name>
</trkpt>
<trkpt lat="48.938260" lon="8.655053">
<ele>304.0</ele>
<speed>1.6</speed>
<course>252.9</course>
<desc>Speed 1.6 km/h Distance 1.30 km</desc>
<time>2010-02-21T10:20:38.82</time>
<name>937</name>
</trkpt>
<trkpt lat="48.938258" lon="8.655045">
<ele>303.5</ele>
<speed>1.9</speed>
<course>220.9</course>
<desc>Speed 1.9 km/h Distance 1.30 km</desc>
<time>2010-02-21T10:20:39.82</time>
<name>938</name>
</trkpt>
<trkpt lat="48.938253" lon="8.655038">
<ele>303.5</ele>
<speed>1.3</speed>
<course>246.4</course>
<desc>Speed 1.3 km/h Distance 1.30 km</desc>
<time>2010-02-21T10:20:40.82</time>
<name>939</name>
</trkpt>
<trkpt lat="48.938250" lon="8.655027">
<ele>303.5</ele>
<speed>1.9</speed>
<course>232.7</course>
<desc>Speed 1.9 km/h Distance 1.31 km</desc>
<time>2010-02-21T10:20:41.82</time>
<name>940</name>
</trkpt>
<trkpt lat="48.938243" lon="8.655013">
<ele>304.0</ele>
<speed>2.7</speed>
<course>232.7</course>
<desc>Speed 2.7 km/h Distance 1.31 km</desc>
<time>2010-02-21T10:20:42.82</time>
<name>941</name>
</trkpt>
<trkpt lat="48.938237" lon="8.655000">
<ele>304.5</ele>
<speed>2.5</speed>
<course>270.0</course>
<desc>Speed 2.5 km/h Distance 1.31 km</desc>
<time>2010-02-21T10:20:43.82</time>
<name>942</name>
</trkpt>
<trkpt lat="48.938237" lon="8.654990">
<ele>304.0</ele>
<speed>1.7</speed>
<course>270.0</course>
<desc>Speed 1.7 km/h Distance 1.31 km</desc>
<time>2010-02-21T10:20:44.82</time>
<name>943</name>
</trkpt>
<trkpt lat="48.938237" lon="8.654980">
<ele>303.5</ele>
<speed>2.3</speed>
<course>301.4</course>
<desc>Speed 2.3 km/h Distance 1.31 km</desc>
<time>2010-02-21T10:20:45.82</time>
<name>944</name>
</trkpt>
<trkpt lat="48.938240" lon="8.654972">
<ele>303.0</ele>
<speed>1.9</speed>
<course>261.3</course>
<desc>Speed 1.9 km/h Distance 1.31 km</desc>
<time>2010-02-21T10:20:46.82</time>
<name>945</name>
</trkpt>
<trkpt lat="48.938238" lon="8.654955">
<ele>303.0</ele>
<speed>3.5</speed>
<course>270.0</course>
<desc>Speed 3.5 km/h Distance 1.31 km</desc>
<time>2010-02-21T10:20:47.82</time>
<name>946</name>
</trkpt>
<trkpt lat="48.938238" lon="8.654940">
<ele>303.0</ele>
<speed>2.7</speed>
<course>257.7</course>
<desc>Speed 2.7 km/h Distance 1.31 km</desc>
<time>2010-02-21T10:20:48.82</time>
<name>947</name>
</trkpt>
<trkpt lat="48.938237" lon="8.654928">
<ele>302.5</ele>
<speed>2.7</speed>
<course>270.0</course>
<desc>Speed 2.7 km/h Distance 1.31 km</desc>
<time>2010-02-21T10:20:49.82</time>
<name>948</name>
</trkpt>
<trkpt lat="48.938237" lon="8.654918">
<ele>302.5</ele>
<speed>2.1</speed>
<course>297.4</course>
<desc>Speed 2.1 km/h Distance 1.31 km</desc>
<time>2010-02-21T10:20:50.82</time>
<name>949</name>
</trkpt>
<trkpt lat="48.938238" lon="8.654913">
<ele>302.5</ele>
<speed>1.5</speed>
<course>252.9</course>
<desc>Speed 1.5 km/h Distance 1.31 km</desc>
<time>2010-02-21T10:20:51.82</time>
<name>950</name>
</trkpt>
<trkpt lat="48.938237" lon="8.654905">
<ele>302.5</ele>
<speed>1.7</speed>
<course>249.1</course>
<desc>Speed 1.7 km/h Distance 1.32 km</desc>
<time>2010-02-21T10:20:52.82</time>
<name>951</name>
</trkpt>
<trkpt lat="48.938233" lon="8.654892">
<ele>303.5</ele>
<speed>2.6</speed>
<course>238.6</course>
<desc>Speed 2.6 km/h Distance 1.32 km</desc>
<time>2010-02-21T10:20:53.82</time>
<name>952</name>
</trkpt>
<trkpt lat="48.938230" lon="8.654883">
<ele>304.0</ele>
<speed>1.6</speed>
<course>242.6</course>
<desc>Speed 1.6 km/h Distance 1.32 km</desc>
<time>2010-02-21T10:20:54.82</time>
<name>953</name>
</trkpt>
<trkpt lat="48.938228" lon="8.654878">
<ele>303.5</ele>
<speed>1.4</speed>
<course>270.0</course>
<desc>Speed 1.4 km/h Distance 1.32 km</desc>
<time>2010-02-21T10:20:55.82</time>
<name>954</name>
</trkpt>
<trkpt lat="48.938228" lon="8.654868">
<ele>304.0</ele>
<speed>2.0</speed>
<course>290.9</course>
<desc>Speed 2.0 km/h Distance 1.32 km</desc>
<time>2010-02-21T10:20:56.82</time>
<name>955</name>
</trkpt>
<trkpt lat="48.938230" lon="8.654862">
<ele>304.0</ele>
<speed>1.5</speed>
<course>257.7</course>
<desc>Speed 1.5 km/h Distance 1.32 km</desc>
<time>2010-02-21T10:20:57.82</time>
<name>956</name>
</trkpt>
<trkpt lat="48.938228" lon="8.654850">
<ele>304.5</ele>
<speed>2.3</speed>
<course>238.6</course>
<desc>Speed 2.3 km/h Distance 1.32 km</desc>
<time>2010-02-21T10:20:58.82</time>
<name>957</name>
</trkpt>
<trkpt lat="48.938225" lon="8.654842">
<ele>304.5</ele>
<speed>1.7</speed>
<course>242.6</course>
<desc>Speed 1.7 km/h Distance 1.32 km</desc>
<time>2010-02-21T10:20:59.82</time>
<name>958</name>
</trkpt>
<trkpt lat="48.938223" lon="8.654837">
<ele>304.0</ele>
<speed>1.0</speed>
<course>246.5</course>
<desc>Speed 1.0 km/h Distance 1.32 km</desc>
<time>2010-02-21T10:21:00.82</time>
<name>959</name>
</trkpt>
<trkpt lat="48.938220" lon="8.654825">
<ele>304.0</ele>
<speed>3.0</speed>
<course>270.0</course>
<desc>Speed 3.0 km/h Distance 1.32 km</desc>
<time>2010-02-21T10:21:01.82</time>
<name>960</name>
</trkpt>
<trkpt lat="48.938220" lon="8.654817">
<ele>303.0</ele>
<speed>2.1</speed>
<course>246.5</course>
<desc>Speed 2.1 km/h Distance 1.32 km</desc>
<time>2010-02-21T10:21:02.82</time>
<name>961</name>
</trkpt>
<trkpt lat="48.938217" lon="8.654805">
<ele>302.5</ele>
<speed>2.5</speed>
<course>259.2</course>
<desc>Speed 2.5 km/h Distance 1.32 km</desc>
<time>2010-02-21T10:21:03.82</time>
<name>962</name>
</trkpt>
<trkpt lat="48.938215" lon="8.654792">
<ele>303.0</ele>
<speed>2.4</speed>
<course>254.5</course>
<desc>Speed 2.4 km/h Distance 1.32 km</desc>
<time>2010-02-21T10:21:04.82</time>
<name>963</name>
</trkpt>
<trkpt lat="48.938212" lon="8.654773">
<ele>302.5</ele>
<speed>3.2</speed>
<course>270.0</course>
<desc>Speed 3.2 km/h Distance 1.33 km</desc>
<time>2010-02-21T10:21:05.82</time>
<name>964</name>
</trkpt>
<trkpt lat="48.938212" lon="8.654760">
<ele>302.5</ele>
<speed>2.7</speed>
<course>259.3</course>
<desc>Speed 2.7 km/h Distance 1.33 km</desc>
<time>2010-02-21T10:21:06.82</time>
<name>965</name>
</trkpt>
<trkpt lat="48.938210" lon="8.654747">
<ele>302.5</ele>
<speed>3.0</speed>
<course>261.4</course>
<desc>Speed 3.0 km/h Distance 1.33 km</desc>
<time>2010-02-21T10:21:07.82</time>
<name>966</name>
</trkpt>
<trkpt lat="48.938208" lon="8.654730">
<ele>302.5</ele>
<speed>3.5</speed>
<course>282.2</course>
<desc>Speed 3.5 km/h Distance 1.33 km</desc>
<time>2010-02-21T10:21:08.82</time>
<name>967</name>
</trkpt>
<trkpt lat="48.938210" lon="8.654718">
<ele>303.0</ele>
<speed>2.5</speed>
<course>255.9</course>
<desc>Speed 2.5 km/h Distance 1.33 km</desc>
<time>2010-02-21T10:21:09.82</time>
<name>968</name>
</trkpt>
<trkpt lat="48.938208" lon="8.654708">
<ele>302.5</ele>
<speed>2.3</speed>
<course>247.4</course>
<desc>Speed 2.3 km/h Distance 1.33 km</desc>
<time>2010-02-21T10:21:10.82</time>
<name>969</name>
</trkpt>
<trkpt lat="48.938203" lon="8.654690">
<ele>302.5</ele>
<speed>2.8</speed>
<course>270.0</course>
<desc>Speed 2.8 km/h Distance 1.33 km</desc>
<time>2010-02-21T10:21:11.82</time>
<name>970</name>
</trkpt>
<trkpt lat="48.938203" lon="8.654673">
<ele>303.0</ele>
<speed>3.3</speed>
<course>260.4</course>
<desc>Speed 3.3 km/h Distance 1.33 km</desc>
<time>2010-02-21T10:21:12.82</time>
<name>971</name>
</trkpt>
<trkpt lat="48.938202" lon="8.654658">
<ele>302.5</ele>
<speed>2.5</speed>
<course>240.3</course>
<desc>Speed 2.5 km/h Distance 1.33 km</desc>
<time>2010-02-21T10:21:13.82</time>
<name>972</name>
</trkpt>
<trkpt lat="48.938197" lon="8.654645">
<ele>302.5</ele>
<speed>2.1</speed>
<course>246.4</course>
<desc>Speed 2.1 km/h Distance 1.34 km</desc>
<time>2010-02-21T10:21:14.82</time>
<name>973</name>
</trkpt>
<trkpt lat="48.938193" lon="8.654633">
<ele>302.5</ele>
<speed>2.7</speed>
<course>259.2</course>
<desc>Speed 2.7 km/h Distance 1.34 km</desc>
<time>2010-02-21T10:21:15.82</time>
<name>974</name>
</trkpt>
<trkpt lat="48.938192" lon="8.654620">
<ele>302.0</ele>
<speed>2.7</speed>
<course>260.4</course>
<desc>Speed 2.7 km/h Distance 1.34 km</desc>
<time>2010-02-21T10:21:16.82</time>
<name>975</name>
</trkpt>
<trkpt lat="48.938190" lon="8.654605">
<ele>301.5</ele>
<speed>2.2</speed>
<course>286.9</course>
<desc>Speed 2.2 km/h Distance 1.34 km</desc>
<time>2010-02-21T10:21:17.82</time>
<name>976</name>
</trkpt>
<trkpt lat="48.938193" lon="8.654588">
<ele>301.0</ele>
<speed>2.6</speed>
<course>270.0</course>
<desc>Speed 2.6 km/h Distance 1.34 km</desc>
<time>2010-02-21T10:21:18.82</time>
<name>977</name>
</trkpt>
<trkpt lat="48.938193" lon="8.654577">
<ele>300.5</ele>
<speed>2.4</speed>
<course>260.4</course>
<desc>Speed 2.4 km/h Distance 1.34 km</desc>
<time>2010-02-21T10:21:19.82</time>
<name>978</name>
</trkpt>
<trkpt lat="48.938192" lon="8.654562">
<ele>300.5</ele>
<speed>3.0</speed>
<course>262.8</course>
<desc>Speed 3.0 km/h Distance 1.34 km</desc>
<time>2010-02-21T10:21:20.82</time>
<name>979</name>
</trkpt>
<trkpt lat="48.938190" lon="8.654542">
<ele>300.0</ele>
<speed>3.7</speed>
<course>270.0</course>
<desc>Speed 3.7 km/h Distance 1.34 km</desc>
<time>2010-02-21T10:21:21.82</time>
<name>980</name>
</trkpt>
<trkpt lat="48.938190" lon="8.654522">
<ele>300.5</ele>
<speed>3.2</speed>
<course>263.3</course>
<desc>Speed 3.2 km/h Distance 1.34 km</desc>
<time>2010-02-21T10:21:22.82</time>
<name>981</name>
</trkpt>
<trkpt lat="48.938188" lon="8.654500">
<ele>300.5</ele>
<speed>3.7</speed>
<course>270.0</course>
<desc>Speed 3.7 km/h Distance 1.35 km</desc>
<time>2010-02-21T10:21:23.82</time>
<name>982</name>
</trkpt>
<trkpt lat="48.938188" lon="8.654485">
<ele>300.0</ele>
<speed>2.9</speed>
<course>235.9</course>
<desc>Speed 2.9 km/h Distance 1.35 km</desc>
<time>2010-02-21T10:21:24.82</time>
<name>983</name>
</trkpt>
<trkpt lat="48.938182" lon="8.654470">
<ele>300.5</ele>
<speed>3.3</speed>
<course>256.8</course>
<desc>Speed 3.3 km/h Distance 1.35 km</desc>
<time>2010-02-21T10:21:25.82</time>
<name>984</name>
</trkpt>
<trkpt lat="48.938178" lon="8.654448">
<ele>301.0</ele>
<speed>3.7</speed>
<course>255.8</course>
<desc>Speed 3.7 km/h Distance 1.35 km</desc>
<time>2010-02-21T10:21:26.82</time>
<name>985</name>
</trkpt>
<trkpt lat="48.938175" lon="8.654428">
<ele>301.5</ele>
<speed>3.7</speed>
<course>264.2</course>
<desc>Speed 3.7 km/h Distance 1.35 km</desc>
<time>2010-02-21T10:21:27.82</time>
<name>986</name>
</trkpt>
<trkpt lat="48.938173" lon="8.654403">
<ele>302.5</ele>
<speed>3.9</speed>
<course>270.0</course>
<desc>Speed 3.9 km/h Distance 1.35 km</desc>
<time>2010-02-21T10:21:28.82</time>
<name>987</name>
</trkpt>
<trkpt lat="48.938173" lon="8.654383">
<ele>302.5</ele>
<speed>3.6</speed>
<course>247.4</course>
<desc>Speed 3.6 km/h Distance 1.36 km</desc>
<time>2010-02-21T10:21:29.82</time>
<name>988</name>
</trkpt>
<trkpt lat="48.938168" lon="8.654365">
<ele>303.0</ele>
<speed>3.7</speed>
<course>270.0</course>
<desc>Speed 3.7 km/h Distance 1.36 km</desc>
<time>2010-02-21T10:21:30.82</time>
<name>989</name>
</trkpt>
<trkpt lat="48.938168" lon="8.654350">
<ele>303.0</ele>
<speed>3.5</speed>
<course>253.1</course>
<desc>Speed 3.5 km/h Distance 1.36 km</desc>
<time>2010-02-21T10:21:31.82</time>
<name>990</name>
</trkpt>
<trkpt lat="48.938165" lon="8.654333">
<ele>303.0</ele>
<speed>3.2</speed>
<course>270.0</course>
<desc>Speed 3.2 km/h Distance 1.36 km</desc>
<time>2010-02-21T10:21:32.82</time>
<name>991</name>
</trkpt>
<trkpt lat="48.938165" lon="8.654318">
<ele>303.0</ele>
<speed>2.7</speed>
<course>262.1</course>
<desc>Speed 2.7 km/h Distance 1.36 km</desc>
<time>2010-02-21T10:21:33.82</time>
<name>992</name>
</trkpt>
<trkpt lat="48.938163" lon="8.654300">
<ele>303.0</ele>
<speed>2.9</speed>
<course>261.3</course>
<desc>Speed 2.9 km/h Distance 1.36 km</desc>
<time>2010-02-21T10:21:34.82</time>
<name>993</name>
</trkpt>
<trkpt lat="48.938162" lon="8.654283">
<ele>303.5</ele>
<speed>3.7</speed>
<course>270.0</course>
<desc>Speed 3.7 km/h Distance 1.36 km</desc>
<time>2010-02-21T10:21:35.82</time>
<name>994</name>
</trkpt>
<trkpt lat="48.938162" lon="8.654268">
<ele>303.0</ele>
<speed>3.3</speed>
<course>262.1</course>
<desc>Speed 3.3 km/h Distance 1.36 km</desc>
<time>2010-02-21T10:21:36.82</time>
<name>995</name>
</trkpt>
<trkpt lat="48.938160" lon="8.654250">
<ele>303.0</ele>
<speed>3.5</speed>
<course>262.1</course>
<desc>Speed 3.5 km/h Distance 1.37 km</desc>
<time>2010-02-21T10:21:37.82</time>
<name>996</name>
</trkpt>
<trkpt lat="48.938158" lon="8.654232">
<ele>303.5</ele>
<speed>3.2</speed>
<course>270.0</course>
<desc>Speed 3.2 km/h Distance 1.37 km</desc>
<time>2010-02-21T10:21:38.82</time>
<name>997</name>
</trkpt>
<trkpt lat="48.938158" lon="8.654213">
<ele>303.0</ele>
<speed>2.8</speed>
<course>277.2</course>
<desc>Speed 2.8 km/h Distance 1.37 km</desc>
<time>2010-02-21T10:21:39.82</time>
<name>998</name>
</trkpt>
<trkpt lat="48.938160" lon="8.654193">
<ele>303.0</ele>
<speed>3.1</speed>
<course>270.0</course>
<desc>Speed 3.1 km/h Distance 1.37 km</desc>
<time>2010-02-21T10:21:40.82</time>
<name>999</name>
</trkpt>
<trkpt lat="48.938160" lon="8.654178">
<ele>303.5</ele>
<speed>2.7</speed>
<course>243.1</course>
<desc>Speed 2.7 km/h Distance 1.37 km</desc>
<time>2010-02-21T10:21:41.82</time>
<name>1000</name>
</trkpt>
<trkpt lat="48.938155" lon="8.654163">
<ele>303.5</ele>
<speed>3.6</speed>
<course>270.0</course>
<desc>Speed 3.6 km/h Distance 1.37 km</desc>
<time>2010-02-21T10:21:42.82</time>
<name>1001</name>
</trkpt>
<trkpt lat="48.938155" lon="8.654145">
<ele>304.0</ele>
<speed>3.3</speed>
<course>255.8</course>
<desc>Speed 3.3 km/h Distance 1.37 km</desc>
<time>2010-02-21T10:21:43.82</time>
<name>1002</name>
</trkpt>
<trkpt lat="48.938152" lon="8.654125">
<ele>304.5</ele>
<speed>3.0</speed>
<course>263.3</course>
<desc>Speed 3.0 km/h Distance 1.37 km</desc>
<time>2010-02-21T10:21:44.82</time>
<name>1003</name>
</trkpt>
<trkpt lat="48.938150" lon="8.654103">
<ele>304.5</ele>
<speed>3.6</speed>
<course>270.0</course>
<desc>Speed 3.6 km/h Distance 1.38 km</desc>
<time>2010-02-21T10:21:45.82</time>
<name>1004</name>
</trkpt>
<trkpt lat="48.938150" lon="8.654083">
<ele>305.0</ele>
<speed>3.1</speed>
<course>262.8</course>
<desc>Speed 3.1 km/h Distance 1.38 km</desc>
<time>2010-02-21T10:21:46.82</time>
<name>1005</name>
</trkpt>
<trkpt lat="48.938148" lon="8.654063">
<ele>305.5</ele>
<speed>3.2</speed>
<course>270.0</course>
<desc>Speed 3.2 km/h Distance 1.38 km</desc>
<time>2010-02-21T10:21:47.82</time>
<name>1006</name>
</trkpt>
<trkpt lat="48.938148" lon="8.654042">
<ele>306.0</ele>
<speed>3.5</speed>
<course>270.0</course>
<desc>Speed 3.5 km/h Distance 1.38 km</desc>
<time>2010-02-21T10:21:48.82</time>
<name>1007</name>
</trkpt>
<trkpt lat="48.938148" lon="8.654027">
<ele>306.0</ele>
<speed>2.8</speed>
<course>270.0</course>
<desc>Speed 2.8 km/h Distance 1.38 km</desc>
<time>2010-02-21T10:21:49.82</time>
<name>1008</name>
</trkpt>
<trkpt lat="48.938148" lon="8.654012">
<ele>305.5</ele>
<speed>3.2</speed>
<course>259.3</course>
<desc>Speed 3.2 km/h Distance 1.38 km</desc>
<time>2010-02-21T10:21:50.82</time>
<name>1009</name>
</trkpt>
<trkpt lat="48.938147" lon="8.653998">
<ele>305.0</ele>
<speed>2.7</speed>
<course>279.6</course>
<desc>Speed 2.7 km/h Distance 1.38 km</desc>
<time>2010-02-21T10:21:51.82</time>
<name>1010</name>
</trkpt>
<trkpt lat="48.938148" lon="8.653983">
<ele>305.0</ele>
<speed>2.4</speed>
<course>249.1</course>
<desc>Speed 2.4 km/h Distance 1.38 km</desc>
<time>2010-02-21T10:21:52.82</time>
<name>1011</name>
</trkpt>
<trkpt lat="48.938145" lon="8.653970">
<ele>305.5</ele>
<speed>2.6</speed>
<course>275.4</course>
<desc>Speed 2.6 km/h Distance 1.39 km</desc>
<time>2010-02-21T10:21:53.82</time>
<name>1012</name>
</trkpt>
<trkpt lat="48.938147" lon="8.653943">
<ele>306.0</ele>
<speed>3.4</speed>
<course>262.8</course>
<desc>Speed 3.4 km/h Distance 1.39 km</desc>
<time>2010-02-21T10:21:54.82</time>
<name>1013</name>
</trkpt>
<trkpt lat="48.938145" lon="8.653923">
<ele>307.5</ele>
<speed>1.0</speed>
<course>246.5</course>
<desc>Speed 1.0 km/h Distance 1.39 km</desc>
<time>2010-02-21T10:21:55.82</time>
<name>1014</name>
</trkpt>
<trkpt lat="48.938142" lon="8.653912">
<ele>307.5</ele>
<speed>2.6</speed>
<course>260.4</course>
<desc>Speed 2.6 km/h Distance 1.39 km</desc>
<time>2010-02-21T10:21:56.82</time>
<name>1015</name>
</trkpt>
<trkpt lat="48.938140" lon="8.653897">
<ele>307.5</ele>
<speed>3.5</speed>
<course>270.0</course>
<desc>Speed 3.5 km/h Distance 1.39 km</desc>
<time>2010-02-21T10:21:57.82</time>
<name>1016</name>
</trkpt>
<trkpt lat="48.938140" lon="8.653880">
<ele>307.5</ele>
<speed>3.7</speed>
<course>270.0</course>
<desc>Speed 3.7 km/h Distance 1.39 km</desc>
<time>2010-02-21T10:21:58.82</time>
<name>1017</name>
</trkpt>
<trkpt lat="48.938140" lon="8.653868">
<ele>307.5</ele>
<speed>3.1</speed>
<course>280.8</course>
<desc>Speed 3.1 km/h Distance 1.39 km</desc>
<time>2010-02-21T10:21:59.82</time>
<name>1018</name>
</trkpt>
<trkpt lat="48.938142" lon="8.653855">
<ele>307.5</ele>
<speed>2.8</speed>
<course>280.7</course>
<desc>Speed 2.8 km/h Distance 1.39 km</desc>
<time>2010-02-21T10:22:00.82</time>
<name>1019</name>
</trkpt>
<trkpt lat="48.938143" lon="8.653842">
<ele>307.0</ele>
<speed>3.0</speed>
<course>279.6</course>
<desc>Speed 3.0 km/h Distance 1.40 km</desc>
<time>2010-02-21T10:22:01.82</time>
<name>1020</name>
</trkpt>
<trkpt lat="48.938145" lon="8.653827">
<ele>307.0</ele>
<speed>3.0</speed>
<course>259.2</course>
<desc>Speed 3.0 km/h Distance 1.40 km</desc>
<time>2010-02-21T10:22:02.82</time>
<name>1021</name>
</trkpt>
<trkpt lat="48.938143" lon="8.653813">
<ele>307.0</ele>
<speed>2.9</speed>
<course>270.0</course>
<desc>Speed 2.9 km/h Distance 1.40 km</desc>
<time>2010-02-21T10:22:03.82</time>
<name>1022</name>
</trkpt>
<trkpt lat="48.938143" lon="8.653802">
<ele>306.0</ele>
<speed>2.4</speed>
<course>263.3</course>
<desc>Speed 2.4 km/h Distance 1.40 km</desc>
<time>2010-02-21T10:22:04.82</time>
<name>1023</name>
</trkpt>
<trkpt lat="48.938142" lon="8.653780">
<ele>306.0</ele>
<speed>5.3</speed>
<course>263.3</course>
<desc>Speed 5.3 km/h Distance 1.40 km</desc>
<time>2010-02-21T10:22:05.82</time>
<name>1024</name>
</trkpt>
<trkpt lat="48.938140" lon="8.653758">
<ele>306.5</ele>
<speed>4.1</speed>
<course>290.9</course>
<desc>Speed 4.1 km/h Distance 1.40 km</desc>
<time>2010-02-21T10:22:06.82</time>
<name>1025</name>
</trkpt>
<trkpt lat="48.938143" lon="8.653745">
<ele>306.0</ele>
<speed>2.5</speed>
<course>290.8</course>
<desc>Speed 2.5 km/h Distance 1.40 km</desc>
<time>2010-02-21T10:22:07.86</time>
<name>1026</name>
</trkpt>
<trkpt lat="48.938148" lon="8.653725">
<ele>306.5</ele>
<speed>2.7</speed>
<course>288.7</course>
<desc>Speed 2.7 km/h Distance 1.40 km</desc>
<time>2010-02-21T10:22:08.82</time>
<name>1027</name>
</trkpt>
<trkpt lat="48.938152" lon="8.653710">
<ele>306.0</ele>
<speed>3.3</speed>
<course>270.0</course>
<desc>Speed 3.3 km/h Distance 1.41 km</desc>
<time>2010-02-21T10:22:09.82</time>
<name>1028</name>
</trkpt>
<trkpt lat="48.938152" lon="8.653698">
<ele>305.5</ele>
<speed>2.4</speed>
<course>270.0</course>
<desc>Speed 2.4 km/h Distance 1.41 km</desc>
<time>2010-02-21T10:22:10.82</time>
<name>1029</name>
</trkpt>
<trkpt lat="48.938152" lon="8.653688">
<ele>306.0</ele>
<speed>2.2</speed>
<course>284.4</course>
<desc>Speed 2.2 km/h Distance 1.41 km</desc>
<time>2010-02-21T10:22:11.82</time>
<name>1030</name>
</trkpt>
<trkpt lat="48.938153" lon="8.653678">
<ele>306.0</ele>
<speed>2.2</speed>
<course>236.7</course>
<desc>Speed 2.2 km/h Distance 1.41 km</desc>
<time>2010-02-21T10:22:12.95</time>
<name>1031</name>
</trkpt>
<trkpt lat="48.938148" lon="8.653667">
<ele>306.0</ele>
<speed>3.3</speed>
<course>261.3</course>
<desc>Speed 3.3 km/h Distance 1.41 km</desc>
<time>2010-02-21T10:22:13.84</time>
<name>1032</name>
</trkpt>
<trkpt lat="48.938145" lon="8.653633">
<ele>307.0</ele>
<speed>4.3</speed>
<course>270.0</course>
<desc>Speed 4.3 km/h Distance 1.41 km</desc>
<time>2010-02-21T10:22:14.84</time>
<name>1033</name>
</trkpt>
<trkpt lat="48.938145" lon="8.653627">
<ele>307.0</ele>
<speed>1.6</speed>
<course>243.1</course>
<desc>Speed 1.6 km/h Distance 1.41 km</desc>
<time>2010-02-21T10:22:15.84</time>
<name>1034</name>
</trkpt>
<trkpt lat="48.938140" lon="8.653612">
<ele>306.5</ele>
<speed>3.7</speed>
<course>249.1</course>
<desc>Speed 3.7 km/h Distance 1.41 km</desc>
<time>2010-02-21T10:22:16.84</time>
<name>1035</name>
</trkpt>
<trkpt lat="48.938137" lon="8.653598">
<ele>306.0</ele>
<speed>2.9</speed>
<course>277.9</course>
<desc>Speed 2.9 km/h Distance 1.41 km</desc>
<time>2010-02-21T10:22:17.92</time>
<name>1036</name>
</trkpt>
<trkpt lat="48.938138" lon="8.653580">
<ele>305.5</ele>
<speed>3.6</speed>
<course>270.0</course>
<desc>Speed 3.6 km/h Distance 1.42 km</desc>
<time>2010-02-21T10:22:18.87</time>
<name>1037</name>
</trkpt>
<trkpt lat="48.938138" lon="8.653558">
<ele>306.0</ele>
<speed>3.4</speed>
<course>236.3</course>
<desc>Speed 3.4 km/h Distance 1.42 km</desc>
<time>2010-02-21T10:22:19.87</time>
<name>1038</name>
</trkpt>
<trkpt lat="48.938127" lon="8.653532">
<ele>306.0</ele>
<speed>7.1</speed>
<course>282.3</course>
<desc>Speed 7.1 km/h Distance 1.42 km</desc>
<time>2010-02-21T10:22:20.87</time>
<name>1039</name>
</trkpt>
<trkpt lat="48.938130" lon="8.653508">
<ele>307.0</ele>
<speed>3.7</speed>
<course>270.0</course>
<desc>Speed 3.7 km/h Distance 1.42 km</desc>
<time>2010-02-21T10:22:21.87</time>
<name>1040</name>
</trkpt>
<trkpt lat="48.938130" lon="8.653482">
<ele>308.0</ele>
<speed>3.1</speed>
<course>275.8</course>
<desc>Speed 3.1 km/h Distance 1.42 km</desc>
<time>2010-02-21T10:22:22.87</time>
<name>1041</name>
</trkpt>
<trkpt lat="48.938132" lon="8.653457">
<ele>308.5</ele>
<speed>2.8</speed>
<course>307.4</course>
<desc>Speed 2.8 km/h Distance 1.42 km</desc>
<time>2010-02-21T10:22:24.00</time>
<name>1042</name>
</trkpt>
<trkpt lat="48.938137" lon="8.653447">
<ele>309.0</ele>
<speed>2.8</speed>
<course>278.7</course>
<desc>Speed 2.8 km/h Distance 1.43 km</desc>
<time>2010-02-21T10:22:24.90</time>
<name>1043</name>
</trkpt>
<trkpt lat="48.938138" lon="8.653430">
<ele>310.0</ele>
<speed>3.4</speed>
<course>326.5</course>
<desc>Speed 3.4 km/h Distance 1.43 km</desc>
<time>2010-02-21T10:22:25.90</time>
<name>1044</name>
</trkpt>
<trkpt lat="48.938147" lon="8.653422">
<ele>308.5</ele>
<speed>4.0</speed>
<course>279.6</course>
<desc>Speed 4.0 km/h Distance 1.43 km</desc>
<time>2010-02-21T10:22:26.90</time>
<name>1045</name>
</trkpt>
<trkpt lat="48.938148" lon="8.653407">
<ele>308.0</ele>
<speed>3.1</speed>
<course>277.9</course>
<desc>Speed 3.1 km/h Distance 1.43 km</desc>
<time>2010-02-21T10:22:27.90</time>
<name>1046</name>
</trkpt>
<trkpt lat="48.938150" lon="8.653388">
<ele>308.5</ele>
<speed>3.8</speed>
<course>264.2</course>
<desc>Speed 3.8 km/h Distance 1.43 km</desc>
<time>2010-02-21T10:22:28.90</time>
<name>1047</name>
</trkpt>
<trkpt lat="48.938148" lon="8.653363">
<ele>310.0</ele>
<speed>4.7</speed>
<course>270.0</course>
<desc>Speed 4.7 km/h Distance 1.43 km</desc>
<time>2010-02-21T10:22:29.90</time>
<name>1048</name>
</trkpt>
<trkpt lat="48.938148" lon="8.653338">
<ele>312.0</ele>
<speed>3.5</speed>
<course>279.6</course>
<desc>Speed 3.5 km/h Distance 1.43 km</desc>
<time>2010-02-21T10:22:30.90</time>
<name>1049</name>
</trkpt>
<trkpt lat="48.938152" lon="8.653308">
<ele>313.5</ele>
<speed>4.0</speed>
<course>285.5</course>
<desc>Speed 4.0 km/h Distance 1.44 km</desc>
<time>2010-02-21T10:22:31.90</time>
<name>1050</name>
</trkpt>
<trkpt lat="48.938155" lon="8.653290">
<ele>314.0</ele>
<speed>3.1</speed>
<course>239.4</course>
<desc>Speed 3.1 km/h Distance 1.44 km</desc>
<time>2010-02-21T10:22:32.91</time>
<name>1051</name>
</trkpt>
<trkpt lat="48.938143" lon="8.653260">
<ele>313.5</ele>
<speed>9.0</speed>
<course>285.9</course>
<desc>Speed 9.0 km/h Distance 1.44 km</desc>
<time>2010-02-21T10:22:34.03</time>
<name>1052</name>
</trkpt>
<trkpt lat="48.938148" lon="8.653233">
<ele>314.5</ele>
<speed>3.3</speed>
<course>293.6</course>
<desc>Speed 3.3 km/h Distance 1.44 km</desc>
<time>2010-02-21T10:22:34.93</time>
<name>1053</name>
</trkpt>
<trkpt lat="48.938152" lon="8.653222">
<ele>314.0</ele>
<speed>3.0</speed>
<course>266.8</course>
<desc>Speed 3.0 km/h Distance 1.44 km</desc>
<time>2010-02-21T10:22:35.96</time>
<name>1054</name>
</trkpt>
<trkpt lat="48.938150" lon="8.653177">
<ele>314.0</ele>
<speed>5.9</speed>
<course>290.9</course>
<desc>Speed 5.9 km/h Distance 1.45 km</desc>
<time>2010-02-21T10:22:37.46</time>
<name>1055</name>
</trkpt>
<trkpt lat="48.938155" lon="8.653157">
<ele>313.0</ele>
<speed>3.5</speed>
<course>295.1</course>
<desc>Speed 3.5 km/h Distance 1.45 km</desc>
<time>2010-02-21T10:22:38.47</time>
<name>1056</name>
</trkpt>
<trkpt lat="48.938162" lon="8.653135">
<ele>312.5</ele>
<speed>3.3</speed>
<course>292.1</course>
<desc>Speed 3.3 km/h Distance 1.45 km</desc>
<time>2010-02-21T10:22:39.44</time>
<name>1057</name>
</trkpt>
<trkpt lat="48.938168" lon="8.653110">
<ele>312.5</ele>
<speed>3.6</speed>
<course>285.9</course>
<desc>Speed 3.6 km/h Distance 1.45 km</desc>
<time>2010-02-21T10:22:40.43</time>
<name>1058</name>
</trkpt>
<trkpt lat="48.938173" lon="8.653083">
<ele>312.5</ele>
<speed>3.9</speed>
<course>286.9</course>
<desc>Speed 3.9 km/h Distance 1.45 km</desc>
<time>2010-02-21T10:22:41.43</time>
<name>1059</name>
</trkpt>
<trkpt lat="48.938178" lon="8.653058">
<ele>313.0</ele>
<speed>3.6</speed>
<course>270.0</course>
<desc>Speed 3.6 km/h Distance 1.46 km</desc>
<time>2010-02-21T10:22:42.43</time>
<name>1060</name>
</trkpt>
<trkpt lat="48.938178" lon="8.653025">
<ele>313.5</ele>
<speed>4.3</speed>
<course>288.1</course>
<desc>Speed 4.3 km/h Distance 1.46 km</desc>
<time>2010-02-21T10:22:43.43</time>
<name>1061</name>
</trkpt>
<trkpt lat="48.938183" lon="8.653002">
<ele>314.0</ele>
<speed>3.0</speed>
<course>280.7</course>
<desc>Speed 3.0 km/h Distance 1.46 km</desc>
<time>2010-02-21T10:22:44.60</time>
<name>1062</name>
</trkpt>
<trkpt lat="48.938185" lon="8.652988">
<ele>313.5</ele>
<speed>2.5</speed>
<course>287.0</course>
<desc>Speed 2.5 km/h Distance 1.46 km</desc>
<time>2010-02-21T10:22:45.42</time>
<name>1063</name>
</trkpt>
<trkpt lat="48.938188" lon="8.652972">
<ele>313.0</ele>
<speed>2.8</speed>
<course>299.8</course>
<desc>Speed 2.8 km/h Distance 1.46 km</desc>
<time>2010-02-21T10:22:46.43</time>
<name>1064</name>
</trkpt>
<trkpt lat="48.938193" lon="8.652958">
<ele>313.0</ele>
<speed>3.4</speed>
<course>297.0</course>
<desc>Speed 3.4 km/h Distance 1.46 km</desc>
<time>2010-02-21T10:22:47.43</time>
<name>1065</name>
</trkpt>
<trkpt lat="48.938197" lon="8.652948">
<ele>313.0</ele>
<speed>3.1</speed>
<course>303.1</course>
<desc>Speed 3.1 km/h Distance 1.46 km</desc>
<time>2010-02-21T10:22:48.42</time>
<name>1066</name>
</trkpt>
<trkpt lat="48.938202" lon="8.652937">
<ele>312.5</ele>
<speed>3.1</speed>
<course>293.5</course>
<desc>Speed 3.1 km/h Distance 1.47 km</desc>
<time>2010-02-21T10:22:49.53</time>
<name>1067</name>
</trkpt>
<trkpt lat="48.938205" lon="8.652925">
<ele>312.0</ele>
<speed>3.2</speed>
<course>297.0</course>
<desc>Speed 3.2 km/h Distance 1.47 km</desc>
<time>2010-02-21T10:22:50.42</time>
<name>1068</name>
</trkpt>
<trkpt lat="48.938208" lon="8.652915">
<ele>312.0</ele>
<speed>2.9</speed>
<course>307.3</course>
<desc>Speed 2.9 km/h Distance 1.47 km</desc>
<time>2010-02-21T10:22:51.42</time>
<name>1069</name>
</trkpt>
<trkpt lat="48.938215" lon="8.652902">
<ele>312.0</ele>
<speed>3.0</speed>
<course>247.5</course>
<desc>Speed 3.0 km/h Distance 1.47 km</desc>
<time>2010-02-21T10:22:52.42</time>
<name>1070</name>
</trkpt>
<trkpt lat="48.938183" lon="8.652785">
<ele>320.5</ele>
<speed>3.5</speed>
<course>270.0</course>
<desc>Speed 3.5 km/h Distance 1.48 km</desc>
<time>2010-02-21T10:22:54.53</time>
<name>1071</name>
</trkpt>
<trkpt lat="48.938183" lon="8.652775">
<ele>320.5</ele>
<speed>2.3</speed>
<course>282.3</course>
<desc>Speed 2.3 km/h Distance 1.48 km</desc>
<time>2010-02-21T10:22:55.41</time>
<name>1072</name>
</trkpt>
<trkpt lat="48.938185" lon="8.652763">
<ele>320.5</ele>
<speed>3.0</speed>
<course>62.6</course>
<desc>Speed 3.0 km/h Distance 1.48 km</desc>
<time>2010-02-21T10:22:56.41</time>
<name>1073</name>
</trkpt>
<trkpt lat="48.938187" lon="8.652768">
<ele>318.5</ele>
<speed>1.7</speed>
<course>287.1</course>
<desc>Speed 1.7 km/h Distance 1.48 km</desc>
<time>2010-02-21T10:22:57.41</time>
<name>1074</name>
</trkpt>
<trkpt lat="48.938188" lon="8.652760">
<ele>319.0</ele>
<speed>2.6</speed>
<course>307.6</course>
<desc>Speed 2.6 km/h Distance 1.48 km</desc>
<time>2010-02-21T10:22:58.40</time>
<name>1075</name>
</trkpt>
<trkpt lat="48.938193" lon="8.652750">
<ele>319.0</ele>
<speed>2.8</speed>
<course>270.0</course>
<desc>Speed 2.8 km/h Distance 1.48 km</desc>
<time>2010-02-21T10:22:59.51</time>
<name>1076</name>
</trkpt>
<trkpt lat="48.938193" lon="8.652740">
<ele>318.5</ele>
<speed>2.6</speed>
<course>279.6</course>
<desc>Speed 2.6 km/h Distance 1.48 km</desc>
<time>2010-02-21T10:23:00.40</time>
<name>1077</name>
</trkpt>
<trkpt lat="48.938195" lon="8.652725">
<ele>318.5</ele>
<speed>3.9</speed>
<course>290.8</course>
<desc>Speed 3.9 km/h Distance 1.48 km</desc>
<time>2010-02-21T10:23:01.40</time>
<name>1078</name>
</trkpt>
<trkpt lat="48.938198" lon="8.652712">
<ele>318.5</ele>
<speed>3.3</speed>
<course>270.0</course>
<desc>Speed 3.3 km/h Distance 1.48 km</desc>
<time>2010-02-21T10:23:02.40</time>
<name>1079</name>
</trkpt>
<trkpt lat="48.938198" lon="8.652695">
<ele>319.0</ele>
<speed>3.9</speed>
<course>270.0</course>
<desc>Speed 3.9 km/h Distance 1.49 km</desc>
<time>2010-02-21T10:23:03.40</time>
<name>1080</name>
</trkpt>
<trkpt lat="48.938198" lon="8.652680">
<ele>319.5</ele>
<speed>3.5</speed>
<course>279.6</course>
<desc>Speed 3.5 km/h Distance 1.49 km</desc>
<time>2010-02-21T10:23:04.52</time>
<name>1081</name>
</trkpt>
<trkpt lat="48.938200" lon="8.652665">
<ele>319.5</ele>
<speed>3.2</speed>
<course>270.0</course>
<desc>Speed 3.2 km/h Distance 1.49 km</desc>
<time>2010-02-21T10:23:05.40</time>
<name>1082</name>
</trkpt>
<trkpt lat="48.938200" lon="8.652652">
<ele>320.5</ele>
<speed>2.7</speed>
<course>301.4</course>
<desc>Speed 2.7 km/h Distance 1.49 km</desc>
<time>2010-02-21T10:23:06.40</time>
<name>1083</name>
</trkpt>
<trkpt lat="48.938203" lon="8.652643">
<ele>320.0</ele>
<speed>2.6</speed>
<course>332.1</course>
<desc>Speed 2.6 km/h Distance 1.49 km</desc>
<time>2010-02-21T10:23:07.40</time>
<name>1084</name>
</trkpt>
<trkpt lat="48.938212" lon="8.652637">
<ele>320.0</ele>
<speed>3.9</speed>
<course>270.0</course>
<desc>Speed 3.9 km/h Distance 1.49 km</desc>
<time>2010-02-21T10:23:08.84</time>
<name>1085</name>
</trkpt>
<trkpt lat="48.938212" lon="8.652620">
<ele>320.0</ele>
<speed>3.9</speed>
<course>355.3</course>
<desc>Speed 3.9 km/h Distance 1.49 km</desc>
<time>2010-02-21T10:23:09.41</time>
<name>1086</name>
</trkpt>
<trkpt lat="48.938223" lon="8.652618">
<ele>318.0</ele>
<speed>4.7</speed>
<course>270.0</course>
<desc>Speed 4.7 km/h Distance 1.49 km</desc>
<time>2010-02-21T10:23:10.39</time>
<name>1087</name>
</trkpt>
<trkpt lat="48.938223" lon="8.652595">
<ele>320.0</ele>
<speed>6.1</speed>
<course>312.2</course>
<desc>Speed 6.1 km/h Distance 1.49 km</desc>
<time>2010-02-21T10:23:11.39</time>
<name>1088</name>
</trkpt>
<trkpt lat="48.938228" lon="8.652587">
<ele>320.5</ele>
<speed>2.7</speed>
<course>307.3</course>
<desc>Speed 2.7 km/h Distance 1.50 km</desc>
<time>2010-02-21T10:23:12.40</time>
<name>1089</name>
</trkpt>
<trkpt lat="48.938253" lon="8.652537">
<ele>321.0</ele>
<speed>1.6</speed>
<course>259.2</course>
<desc>Speed 1.6 km/h Distance 1.50 km</desc>
<time>2010-02-21T10:23:14.39</time>
<name>1090</name>
</trkpt>
<trkpt lat="48.938252" lon="8.652523">
<ele>321.0</ele>
<speed>2.5</speed>
<course>276.7</course>
<desc>Speed 2.5 km/h Distance 1.50 km</desc>
<time>2010-02-21T10:23:15.42</time>
<name>1091</name>
</trkpt>
<trkpt lat="48.938253" lon="8.652502">
<ele>321.5</ele>
<speed>5.0</speed>
<course>270.0</course>
<desc>Speed 5.0 km/h Distance 1.50 km</desc>
<time>2010-02-21T10:23:16.38</time>
<name>1092</name>
</trkpt>
<trkpt lat="48.938253" lon="8.652490">
<ele>321.5</ele>
<speed>2.8</speed>
<course>260.4</course>
<desc>Speed 2.8 km/h Distance 1.50 km</desc>
<time>2010-02-21T10:23:17.38</time>
<name>1093</name>
</trkpt>
<trkpt lat="48.938250" lon="8.652460">
<ele>323.0</ele>
<speed>2.6</speed>
<course>279.6</course>
<desc>Speed 2.6 km/h Distance 1.51 km</desc>
<time>2010-02-21T10:23:19.38</time>
<name>1094</name>
</trkpt>
<trkpt lat="48.938252" lon="8.652445">
<ele>323.5</ele>
<speed>3.2</speed>
<course>270.0</course>
<desc>Speed 3.2 km/h Distance 1.51 km</desc>
<time>2010-02-21T10:23:22.59</time>
<name>1095</name>
</trkpt>
<trkpt lat="48.938252" lon="8.652373">
<ele>325.0</ele>
<speed>4.0</speed>
<course>286.9</course>
<desc>Speed 4.0 km/h Distance 1.51 km</desc>
<time>2010-02-21T10:23:24.42</time>
<name>1096</name>
</trkpt>
<trkpt lat="48.938255" lon="8.652357">
<ele>324.5</ele>
<speed>3.0</speed>
<course>264.6</course>
<desc>Speed 3.0 km/h Distance 1.51 km</desc>
<time>2010-02-21T10:23:25.42</time>
<name>1097</name>
</trkpt>
<trkpt lat="48.938252" lon="8.652303">
<ele>327.0</ele>
<speed>4.1</speed>
<course>259.2</course>
<desc>Speed 4.1 km/h Distance 1.52 km</desc>
<time>2010-02-21T10:23:27.43</time>
<name>1098</name>
</trkpt>
<trkpt lat="48.938243" lon="8.652237">
<ele>331.0</ele>
<speed>4.4</speed>
<course>253.0</course>
<desc>Speed 4.4 km/h Distance 1.52 km</desc>
<time>2010-02-21T10:23:29.45</time>
<name>1099</name>
</trkpt>
<trkpt lat="48.938240" lon="8.652220">
<ele>331.0</ele>
<speed>4.2</speed>
<course>258.5</course>
<desc>Speed 4.2 km/h Distance 1.52 km</desc>
<time>2010-02-21T10:23:30.45</time>
<name>1100</name>
</trkpt>
<trkpt lat="48.938237" lon="8.652195">
<ele>331.0</ele>
<speed>4.0</speed>
<course>237.3</course>
<desc>Speed 4.0 km/h Distance 1.53 km</desc>
<time>2010-02-21T10:23:31.50</time>
<name>1101</name>
</trkpt>
<trkpt lat="48.938223" lon="8.652163">
<ele>332.5</ele>
<speed>6.3</speed>
<course>262.1</course>
<desc>Speed 6.3 km/h Distance 1.53 km</desc>
<time>2010-02-21T10:23:32.46</time>
<name>1102</name>
</trkpt>
<trkpt lat="48.938222" lon="8.652145">
<ele>333.0</ele>
<speed>4.5</speed>
<course>245.5</course>
<desc>Speed 4.5 km/h Distance 1.53 km</desc>
<time>2010-02-21T10:23:33.46</time>
<name>1103</name>
</trkpt>
<trkpt lat="48.938217" lon="8.652128">
<ele>332.5</ele>
<speed>4.1</speed>
<course>270.0</course>
<desc>Speed 4.1 km/h Distance 1.53 km</desc>
<time>2010-02-21T10:23:34.46</time>
<name>1104</name>
</trkpt>
<trkpt lat="48.938217" lon="8.652103">
<ele>334.0</ele>
<speed>4.4</speed>
<course>270.0</course>
<desc>Speed 4.4 km/h Distance 1.53 km</desc>
<time>2010-02-21T10:23:35.46</time>
<name>1105</name>
</trkpt>
<trkpt lat="48.938217" lon="8.652070">
<ele>335.0</ele>
<speed>5.7</speed>
<course>247.6</course>
<desc>Speed 5.7 km/h Distance 1.53 km</desc>
<time>2010-02-21T10:23:36.97</time>
<name>1106</name>
</trkpt>
<trkpt lat="48.938200" lon="8.652008">
<ele>335.0</ele>
<speed>4.5</speed>
<course>256.8</course>
<desc>Speed 4.5 km/h Distance 1.54 km</desc>
<time>2010-02-21T10:23:38.51</time>
<name>1107</name>
</trkpt>
<trkpt lat="48.938197" lon="8.651987">
<ele>334.5</ele>
<speed>4.5</speed>
<course>262.8</course>
<desc>Speed 4.5 km/h Distance 1.54 km</desc>
<time>2010-02-21T10:23:39.51</time>
<name>1108</name>
</trkpt>
<trkpt lat="48.938195" lon="8.651967">
<ele>334.5</ele>
<speed>4.7</speed>
<course>263.8</course>
<desc>Speed 4.7 km/h Distance 1.54 km</desc>
<time>2010-02-21T10:23:40.51</time>
<name>1109</name>
</trkpt>
<trkpt lat="48.938193" lon="8.651943">
<ele>334.5</ele>
<speed>4.6</speed>
<course>263.3</course>
<desc>Speed 4.6 km/h Distance 1.54 km</desc>
<time>2010-02-21T10:23:41.51</time>
<name>1110</name>
</trkpt>
<trkpt lat="48.938192" lon="8.651922">
<ele>334.5</ele>
<speed>4.7</speed>
<course>250.6</course>
<desc>Speed 4.7 km/h Distance 1.55 km</desc>
<time>2010-02-21T10:23:42.51</time>
<name>1111</name>
</trkpt>
<trkpt lat="48.938187" lon="8.651900">
<ele>334.5</ele>
<speed>4.4</speed>
<course>253.1</course>
<desc>Speed 4.4 km/h Distance 1.55 km</desc>
<time>2010-02-21T10:23:43.51</time>
<name>1112</name>
</trkpt>
<trkpt lat="48.938183" lon="8.651883">
<ele>334.5</ele>
<speed>4.3</speed>
<course>254.5</course>
<desc>Speed 4.3 km/h Distance 1.55 km</desc>
<time>2010-02-21T10:23:44.51</time>
<name>1113</name>
</trkpt>
<trkpt lat="48.938180" lon="8.651865">
<ele>334.5</ele>
<speed>4.7</speed>
<course>256.8</course>
<desc>Speed 4.7 km/h Distance 1.55 km</desc>
<time>2010-02-21T10:23:45.51</time>
<name>1114</name>
</trkpt>
<trkpt lat="48.938177" lon="8.651843">
<ele>334.5</ele>
<speed>4.6</speed>
<course>285.5</course>
<desc>Speed 4.6 km/h Distance 1.55 km</desc>
<time>2010-02-21T10:23:46.51</time>
<name>1115</name>
</trkpt>
<trkpt lat="48.938180" lon="8.651825">
<ele>333.5</ele>
<speed>3.8</speed>
<course>240.3</course>
<desc>Speed 3.8 km/h Distance 1.55 km</desc>
<time>2010-02-21T10:23:47.51</time>
<name>1116</name>
</trkpt>
<trkpt lat="48.938170" lon="8.651798">
<ele>335.0</ele>
<speed>6.4</speed>
<course>254.1</course>
<desc>Speed 6.4 km/h Distance 1.56 km</desc>
<time>2010-02-21T10:23:48.51</time>
<name>1117</name>
</trkpt>
<trkpt lat="48.938165" lon="8.651772">
<ele>335.5</ele>
<speed>4.9</speed>
<course>256.8</course>
<desc>Speed 4.9 km/h Distance 1.56 km</desc>
<time>2010-02-21T10:23:49.51</time>
<name>1118</name>
</trkpt>
<trkpt lat="48.938162" lon="8.651750">
<ele>336.0</ele>
<speed>4.6</speed>
<course>247.4</course>
<desc>Speed 4.6 km/h Distance 1.56 km</desc>
<time>2010-02-21T10:23:50.51</time>
<name>1119</name>
</trkpt>
<trkpt lat="48.938157" lon="8.651732">
<ele>336.0</ele>
<speed>4.3</speed>
<course>244.9</course>
<desc>Speed 4.3 km/h Distance 1.56 km</desc>
<time>2010-02-21T10:23:51.51</time>
<name>1120</name>
</trkpt>
<trkpt lat="48.938150" lon="8.651710">
<ele>336.0</ele>
<speed>4.8</speed>
<course>256.8</course>
<desc>Speed 4.8 km/h Distance 1.56 km</desc>
<time>2010-02-21T10:23:52.51</time>
<name>1121</name>
</trkpt>
<trkpt lat="48.938147" lon="8.651688">
<ele>336.5</ele>
<speed>4.7</speed>
<course>256.8</course>
<desc>Speed 4.7 km/h Distance 1.56 km</desc>
<time>2010-02-21T10:23:53.51</time>
<name>1122</name>
</trkpt>
<trkpt lat="48.938143" lon="8.651667">
<ele>336.5</ele>
<speed>4.8</speed>
<course>250.6</course>
<desc>Speed 4.8 km/h Distance 1.57 km</desc>
<time>2010-02-21T10:23:54.51</time>
<name>1123</name>
</trkpt>
<trkpt lat="48.938138" lon="8.651645">
<ele>336.5</ele>
<speed>4.8</speed>
<course>250.6</course>
<desc>Speed 4.8 km/h Distance 1.57 km</desc>
<time>2010-02-21T10:23:55.51</time>
<name>1124</name>
</trkpt>
<trkpt lat="48.938133" lon="8.651623">
<ele>336.5</ele>
<speed>4.9</speed>
<course>244.9</course>
<desc>Speed 4.9 km/h Distance 1.57 km</desc>
<time>2010-02-21T10:23:56.51</time>
<name>1125</name>
</trkpt>
<trkpt lat="48.938127" lon="8.651602">
<ele>336.5</ele>
<speed>5.0</speed>
<course>247.5</course>
<desc>Speed 5.0 km/h Distance 1.57 km</desc>
<time>2010-02-21T10:23:57.51</time>
<name>1126</name>
</trkpt>
<trkpt lat="48.938122" lon="8.651583">
<ele>337.0</ele>
<speed>4.4</speed>
<course>241.0</course>
<desc>Speed 4.4 km/h Distance 1.57 km</desc>
<time>2010-02-21T10:23:58.51</time>
<name>1127</name>
</trkpt>
<trkpt lat="48.938115" lon="8.651565">
<ele>337.5</ele>
<speed>4.1</speed>
<course>251.9</course>
<desc>Speed 4.1 km/h Distance 1.57 km</desc>
<time>2010-02-21T10:23:59.51</time>
<name>1128</name>
</trkpt>
<trkpt lat="48.938110" lon="8.651542">
<ele>337.5</ele>
<speed>4.8</speed>
<course>270.0</course>
<desc>Speed 4.8 km/h Distance 1.58 km</desc>
<time>2010-02-21T10:24:00.51</time>
<name>1129</name>
</trkpt>
<trkpt lat="48.938110" lon="8.651528">
<ele>337.5</ele>
<speed>2.5</speed>
<course>270.0</course>
<desc>Speed 2.5 km/h Distance 1.58 km</desc>
<time>2010-02-21T10:24:01.51</time>
<name>1130</name>
</trkpt>
<trkpt lat="48.938110" lon="8.651507">
<ele>338.0</ele>
<speed>3.3</speed>
<course>243.1</course>
<desc>Speed 3.3 km/h Distance 1.58 km</desc>
<time>2010-02-21T10:24:02.51</time>
<name>1131</name>
</trkpt>
<trkpt lat="48.938103" lon="8.651487">
<ele>338.5</ele>
<speed>4.8</speed>
<course>251.3</course>
<desc>Speed 4.8 km/h Distance 1.58 km</desc>
<time>2010-02-21T10:24:03.51</time>
<name>1132</name>
</trkpt>
<trkpt lat="48.938100" lon="8.651472">
<ele>338.5</ele>
<speed>3.4</speed>
<course>238.6</course>
<desc>Speed 3.4 km/h Distance 1.58 km</desc>
<time>2010-02-21T10:24:04.51</time>
<name>1133</name>
</trkpt>
<trkpt lat="48.938093" lon="8.651455">
<ele>338.5</ele>
<speed>4.3</speed>
<course>243.1</course>
<desc>Speed 4.3 km/h Distance 1.58 km</desc>
<time>2010-02-21T10:24:05.51</time>
<name>1134</name>
</trkpt>
<trkpt lat="48.938087" lon="8.651435">
<ele>339.0</ele>
<speed>4.6</speed>
<course>235.4</course>
<desc>Speed 4.6 km/h Distance 1.58 km</desc>
<time>2010-02-21T10:24:06.51</time>
<name>1135</name>
</trkpt>
<trkpt lat="48.938078" lon="8.651417">
<ele>340.0</ele>
<speed>4.8</speed>
<course>245.5</course>
<desc>Speed 4.8 km/h Distance 1.59 km</desc>
<time>2010-02-21T10:24:07.51</time>
<name>1136</name>
</trkpt>
<trkpt lat="48.938073" lon="8.651400">
<ele>340.5</ele>
<speed>4.0</speed>
<course>260.4</course>
<desc>Speed 4.0 km/h Distance 1.59 km</desc>
<time>2010-02-21T10:24:08.51</time>
<name>1137</name>
</trkpt>
<trkpt lat="48.938072" lon="8.651385">
<ele>340.5</ele>
<speed>2.0</speed>
<course>252.9</course>
<desc>Speed 2.0 km/h Distance 1.59 km</desc>
<time>2010-02-21T10:24:09.51</time>
<name>1138</name>
</trkpt>
<trkpt lat="48.938070" lon="8.651377">
<ele>340.5</ele>
<speed>2.2</speed>
<course>243.1</course>
<desc>Speed 2.2 km/h Distance 1.59 km</desc>
<time>2010-02-21T10:24:10.51</time>
<name>1139</name>
</trkpt>
<trkpt lat="48.938065" lon="8.651362">
<ele>341.0</ele>
<speed>3.9</speed>
<course>245.4</course>
<desc>Speed 3.9 km/h Distance 1.59 km</desc>
<time>2010-02-21T10:24:11.51</time>
<name>1140</name>
</trkpt>
<trkpt lat="48.938060" lon="8.651345">
<ele>340.5</ele>
<speed>4.7</speed>
<course>257.7</course>
<desc>Speed 4.7 km/h Distance 1.59 km</desc>
<time>2010-02-21T10:24:12.51</time>
<name>1141</name>
</trkpt>
<trkpt lat="48.938058" lon="8.651333">
<ele>340.0</ele>
<speed>2.8</speed>
<course>243.1</course>
<desc>Speed 2.8 km/h Distance 1.59 km</desc>
<time>2010-02-21T10:24:13.51</time>
<name>1142</name>
</trkpt>
<trkpt lat="48.938053" lon="8.651318">
<ele>340.5</ele>
<speed>4.2</speed>
<course>243.1</course>
<desc>Speed 4.2 km/h Distance 1.59 km</desc>
<time>2010-02-21T10:24:14.51</time>
<name>1143</name>
</trkpt>
<trkpt lat="48.938048" lon="8.651303">
<ele>341.0</ele>
<speed>4.4</speed>
<course>249.3</course>
<desc>Speed 4.4 km/h Distance 1.59 km</desc>
<time>2010-02-21T10:24:15.51</time>
<name>1144</name>
</trkpt>
<trkpt lat="48.938045" lon="8.651290">
<ele>340.5</ele>
<speed>3.4</speed>
<course>245.4</course>
<desc>Speed 3.4 km/h Distance 1.60 km</desc>
<time>2010-02-21T10:24:16.51</time>
<name>1145</name>
</trkpt>
<trkpt lat="48.938040" lon="8.651273">
<ele>341.0</ele>
<speed>4.4</speed>
<course>260.4</course>
<desc>Speed 4.4 km/h Distance 1.60 km</desc>
<time>2010-02-21T10:24:17.51</time>
<name>1146</name>
</trkpt>
<trkpt lat="48.938038" lon="8.651258">
<ele>340.0</ele>
<speed>3.0</speed>
<course>245.5</course>
<desc>Speed 3.0 km/h Distance 1.60 km</desc>
<time>2010-02-21T10:24:18.51</time>
<name>1147</name>
</trkpt>
<trkpt lat="48.938033" lon="8.651242">
<ele>340.5</ele>
<speed>4.1</speed>
<course>232.8</course>
<desc>Speed 4.1 km/h Distance 1.60 km</desc>
<time>2010-02-21T10:24:19.51</time>
<name>1148</name>
</trkpt>
<trkpt lat="48.938025" lon="8.651225">
<ele>341.0</ele>
<speed>3.4</speed>
<course>240.3</course>
<desc>Speed 3.4 km/h Distance 1.60 km</desc>
<time>2010-02-21T10:24:20.51</time>
<name>1149</name>
</trkpt>
<trkpt lat="48.938020" lon="8.651212">
<ele>341.0</ele>
<speed>4.0</speed>
<course>232.7</course>
<desc>Speed 4.0 km/h Distance 1.60 km</desc>
<time>2010-02-21T10:24:21.51</time>
<name>1150</name>
</trkpt>
<trkpt lat="48.938012" lon="8.651195">
<ele>341.5</ele>
<speed>4.1</speed>
<course>235.9</course>
<desc>Speed 4.1 km/h Distance 1.60 km</desc>
<time>2010-02-21T10:24:22.51</time>
<name>1151</name>
</trkpt>
<trkpt lat="48.938005" lon="8.651180">
<ele>342.5</ele>
<speed>3.5</speed>
<course>243.1</course>
<desc>Speed 3.5 km/h Distance 1.61 km</desc>
<time>2010-02-21T10:24:23.51</time>
<name>1152</name>
</trkpt>
<trkpt lat="48.938000" lon="8.651165">
<ele>343.5</ele>
<speed>3.2</speed>
<course>253.1</course>
<desc>Speed 3.2 km/h Distance 1.61 km</desc>
<time>2010-02-21T10:24:24.51</time>
<name>1153</name>
</trkpt>
<trkpt lat="48.937997" lon="8.651148">
<ele>343.5</ele>
<speed>3.5</speed>
<course>245.4</course>
<desc>Speed 3.5 km/h Distance 1.61 km</desc>
<time>2010-02-21T10:24:25.51</time>
<name>1154</name>
</trkpt>
<trkpt lat="48.937992" lon="8.651132">
<ele>343.5</ele>
<speed>3.9</speed>
<course>239.6</course>
<desc>Speed 3.9 km/h Distance 1.61 km</desc>
<time>2010-02-21T10:24:26.51</time>
<name>1155</name>
</trkpt>
<trkpt lat="48.937983" lon="8.651110">
<ele>344.5</ele>
<speed>3.7</speed>
<course>243.1</course>
<desc>Speed 3.7 km/h Distance 1.61 km</desc>
<time>2010-02-21T10:24:27.51</time>
<name>1156</name>
</trkpt>
<trkpt lat="48.937977" lon="8.651090">
<ele>345.0</ele>
<speed>4.5</speed>
<course>231.9</course>
<desc>Speed 4.5 km/h Distance 1.61 km</desc>
<time>2010-02-21T10:24:28.51</time>
<name>1157</name>
</trkpt>
<trkpt lat="48.937975" lon="8.651087">
<ele>343.0</ele>
<speed>1.1</speed>
<course>245.9</course>
<desc>Speed 1.1 km/h Distance 1.61 km</desc>
<time>2010-02-21T10:24:29.51</time>
<name>1158</name>
</trkpt>
<trkpt lat="48.937967" lon="8.651058">
<ele>345.0</ele>
<speed>7.2</speed>
<course>247.4</course>
<desc>Speed 7.2 km/h Distance 1.61 km</desc>
<time>2010-02-21T10:24:30.51</time>
<name>1159</name>
</trkpt>
<trkpt lat="48.937962" lon="8.651040">
<ele>345.0</ele>
<speed>4.2</speed>
<course>235.0</course>
<desc>Speed 4.2 km/h Distance 1.62 km</desc>
<time>2010-02-21T10:24:31.51</time>
<name>1160</name>
</trkpt>
<trkpt lat="48.937952" lon="8.651018">
<ele>346.5</ele>
<speed>5.3</speed>
<course>245.5</course>
<desc>Speed 5.3 km/h Distance 1.62 km</desc>
<time>2010-02-21T10:24:32.51</time>
<name>1161</name>
</trkpt>
<trkpt lat="48.937947" lon="8.651002">
<ele>346.5</ele>
<speed>4.1</speed>
<course>243.1</course>
<desc>Speed 4.1 km/h Distance 1.62 km</desc>
<time>2010-02-21T10:24:33.51</time>
<name>1162</name>
</trkpt>
<trkpt lat="48.937940" lon="8.650982">
<ele>347.5</ele>
<speed>4.1</speed>
<course>245.5</course>
<desc>Speed 4.1 km/h Distance 1.62 km</desc>
<time>2010-02-21T10:24:34.51</time>
<name>1163</name>
</trkpt>
<trkpt lat="48.937935" lon="8.650965">
<ele>347.5</ele>
<speed>3.9</speed>
<course>230.9</course>
<desc>Speed 3.9 km/h Distance 1.62 km</desc>
<time>2010-02-21T10:24:35.51</time>
<name>1164</name>
</trkpt>
<trkpt lat="48.937922" lon="8.650940">
<ele>348.5</ele>
<speed>7.7</speed>
<course>259.3</course>
<desc>Speed 7.7 km/h Distance 1.62 km</desc>
<time>2010-02-21T10:24:36.51</time>
<name>1165</name>
</trkpt>
<trkpt lat="48.937920" lon="8.650927">
<ele>347.5</ele>
<speed>2.8</speed>
<course>253.1</course>
<desc>Speed 2.8 km/h Distance 1.63 km</desc>
<time>2010-02-21T10:24:37.51</time>
<name>1166</name>
</trkpt>
<trkpt lat="48.937917" lon="8.650910">
<ele>347.0</ele>
<speed>4.0</speed>
<course>270.0</course>
<desc>Speed 4.0 km/h Distance 1.63 km</desc>
<time>2010-02-21T10:24:38.51</time>
<name>1167</name>
</trkpt>
<trkpt lat="48.937917" lon="8.650895">
<ele>346.0</ele>
<speed>2.5</speed>
<course>241.5</course>
<desc>Speed 2.5 km/h Distance 1.63 km</desc>
<time>2010-02-21T10:24:39.51</time>
<name>1168</name>
</trkpt>
<trkpt lat="48.937908" lon="8.650872">
<ele>346.5</ele>
<speed>5.1</speed>
<course>243.1</course>
<desc>Speed 5.1 km/h Distance 1.63 km</desc>
<time>2010-02-21T10:24:40.51</time>
<name>1169</name>
</trkpt>
<trkpt lat="48.937903" lon="8.650857">
<ele>347.0</ele>
<speed>2.4</speed>
<course>229.0</course>
<desc>Speed 2.4 km/h Distance 1.63 km</desc>
<time>2010-02-21T10:24:41.51</time>
<name>1170</name>
</trkpt>
<trkpt lat="48.937890" lon="8.650833">
<ele>348.0</ele>
<speed>4.6</speed>
<course>251.3</course>
<desc>Speed 4.6 km/h Distance 1.63 km</desc>
<time>2010-02-21T10:24:42.51</time>
<name>1171</name>
</trkpt>
<trkpt lat="48.937887" lon="8.650818">
<ele>348.0</ele>
<speed>3.2</speed>
<course>257.7</course>
<desc>Speed 3.2 km/h Distance 1.63 km</desc>
<time>2010-02-21T10:24:43.51</time>
<name>1172</name>
</trkpt>
<trkpt lat="48.937885" lon="8.650807">
<ele>347.5</ele>
<speed>2.3</speed>
<course>249.1</course>
<desc>Speed 2.3 km/h Distance 1.64 km</desc>
<time>2010-02-21T10:24:44.51</time>
<name>1173</name>
</trkpt>
<trkpt lat="48.937882" lon="8.650793">
<ele>347.5</ele>
<speed>2.6</speed>
<course>236.7</course>
<desc>Speed 2.6 km/h Distance 1.64 km</desc>
<time>2010-02-21T10:24:45.51</time>
<name>1174</name>
</trkpt>
<trkpt lat="48.937877" lon="8.650782">
<ele>348.0</ele>
<speed>2.2</speed>
<course>254.5</course>
<desc>Speed 2.2 km/h Distance 1.64 km</desc>
<time>2010-02-21T10:24:46.51</time>
<name>1175</name>
</trkpt>
<trkpt lat="48.937873" lon="8.650763">
<ele>347.5</ele>
<speed>3.2</speed>
<course>254.5</course>
<desc>Speed 3.2 km/h Distance 1.64 km</desc>
<time>2010-02-21T10:24:47.51</time>
<name>1176</name>
</trkpt>
<trkpt lat="48.937870" lon="8.650745">
<ele>347.5</ele>
<speed>2.5</speed>
<course>243.1</course>
<desc>Speed 2.5 km/h Distance 1.64 km</desc>
<time>2010-02-21T10:24:48.51</time>
<name>1177</name>
</trkpt>
<trkpt lat="48.937865" lon="8.650730">
<ele>347.5</ele>
<speed>3.2</speed>
<course>260.4</course>
<desc>Speed 3.2 km/h Distance 1.64 km</desc>
<time>2010-02-21T10:24:49.51</time>
<name>1178</name>
</trkpt>
<trkpt lat="48.937863" lon="8.650715">
<ele>347.5</ele>
<speed>2.9</speed>
<course>238.6</course>
<desc>Speed 2.9 km/h Distance 1.64 km</desc>
<time>2010-02-21T10:24:50.51</time>
<name>1179</name>
</trkpt>
<trkpt lat="48.937860" lon="8.650707">
<ele>347.5</ele>
<speed>2.2</speed>
<course>236.7</course>
<desc>Speed 2.2 km/h Distance 1.64 km</desc>
<time>2010-02-21T10:24:51.51</time>
<name>1180</name>
</trkpt>
<trkpt lat="48.937855" lon="8.650695">
<ele>347.0</ele>
<speed>3.0</speed>
<course>235.9</course>
<desc>Speed 3.0 km/h Distance 1.64 km</desc>
<time>2010-02-21T10:24:52.51</time>
<name>1181</name>
</trkpt>
<trkpt lat="48.937848" lon="8.650680">
<ele>347.0</ele>
<speed>4.1</speed>
<course>238.6</course>
<desc>Speed 4.1 km/h Distance 1.65 km</desc>
<time>2010-02-21T10:24:53.51</time>
<name>1182</name>
</trkpt>
<trkpt lat="48.937842" lon="8.650663">
<ele>346.5</ele>
<speed>3.6</speed>
<course>249.1</course>
<desc>Speed 3.6 km/h Distance 1.65 km</desc>
<time>2010-02-21T10:24:54.51</time>
<name>1183</name>
</trkpt>
<trkpt lat="48.937838" lon="8.650650">
<ele>346.0</ele>
<speed>3.3</speed>
<course>241.0</course>
<desc>Speed 3.3 km/h Distance 1.65 km</desc>
<time>2010-02-21T10:24:55.51</time>
<name>1184</name>
</trkpt>
<trkpt lat="48.937832" lon="8.650632">
<ele>346.0</ele>
<speed>4.5</speed>
<course>249.2</course>
<desc>Speed 4.5 km/h Distance 1.65 km</desc>
<time>2010-02-21T10:24:56.51</time>
<name>1185</name>
</trkpt>
<trkpt lat="48.937827" lon="8.650612">
<ele>346.5</ele>
<speed>4.6</speed>
<course>251.3</course>
<desc>Speed 4.6 km/h Distance 1.65 km</desc>
<time>2010-02-21T10:24:57.51</time>
<name>1186</name>
</trkpt>
<trkpt lat="48.937823" lon="8.650597">
<ele>346.0</ele>
<speed>3.2</speed>
<course>250.6</course>
<desc>Speed 3.2 km/h Distance 1.65 km</desc>
<time>2010-02-21T10:24:58.51</time>
<name>1187</name>
</trkpt>
<trkpt lat="48.937818" lon="8.650575">
<ele>346.5</ele>
<speed>3.6</speed>
<course>245.4</course>
<desc>Speed 3.6 km/h Distance 1.65 km</desc>
<time>2010-02-21T10:24:59.51</time>
<name>1188</name>
</trkpt>
<trkpt lat="48.937813" lon="8.650558">
<ele>346.5</ele>
<speed>3.1</speed>
<course>249.1</course>
<desc>Speed 3.1 km/h Distance 1.66 km</desc>
<time>2010-02-21T10:25:00.51</time>
<name>1189</name>
</trkpt>
<trkpt lat="48.937810" lon="8.650545">
<ele>345.5</ele>
<speed>2.8</speed>
<course>241.0</course>
<desc>Speed 2.8 km/h Distance 1.66 km</desc>
<time>2010-02-21T10:25:01.51</time>
<name>1190</name>
</trkpt>
<trkpt lat="48.937803" lon="8.650527">
<ele>345.5</ele>
<speed>4.3</speed>
<course>255.6</course>
<desc>Speed 4.3 km/h Distance 1.66 km</desc>
<time>2010-02-21T10:25:02.51</time>
<name>1191</name>
</trkpt>
<trkpt lat="48.937802" lon="8.650517">
<ele>345.5</ele>
<speed>1.9</speed>
<course>213.7</course>
<desc>Speed 1.9 km/h Distance 1.66 km</desc>
<time>2010-02-21T10:25:03.51</time>
<name>1192</name>
</trkpt>
<trkpt lat="48.937798" lon="8.650513">
<ele>345.5</ele>
<speed>0.9</speed>
<course>12.6</course>
<desc>Speed 0.9 km/h Distance 1.66 km</desc>
<time>2010-02-21T10:25:04.51</time>
<name>1193</name>
</trkpt>
<trkpt lat="48.937802" lon="8.650515">
<ele>345.5</ele>
<speed>1.9</speed>
<course>69.1</course>
<desc>Speed 1.9 km/h Distance 1.66 km</desc>
<time>2010-02-21T10:25:05.51</time>
<name>1194</name>
</trkpt>
<trkpt lat="48.937803" lon="8.650522">
<ele>344.5</ele>
<speed>2.3</speed>
<course>180.0</course>
<desc>Speed 2.3 km/h Distance 1.66 km</desc>
<time>2010-02-21T10:25:06.51</time>
<name>1195</name>
</trkpt>
<trkpt lat="48.937800" lon="8.650522">
<ele>345.0</ele>
<speed>2.0</speed>
<course>69.1</course>
<desc>Speed 2.0 km/h Distance 1.66 km</desc>
<time>2010-02-21T10:25:07.51</time>
<name>1196</name>
</trkpt>
<trkpt lat="48.937802" lon="8.650528">
<ele>344.0</ele>
<speed>2.4</speed>
<course>49.1</course>
<desc>Speed 2.4 km/h Distance 1.66 km</desc>
<time>2010-02-21T10:25:08.51</time>
<name>1197</name>
</trkpt>
<trkpt lat="48.937808" lon="8.650540">
<ele>344.5</ele>
<speed>4.2</speed>
<course>62.6</course>
<desc>Speed 4.2 km/h Distance 1.66 km</desc>
<time>2010-02-21T10:25:09.51</time>
<name>1198</name>
</trkpt>
<trkpt lat="48.937810" lon="8.650545">
<ele>345.0</ele>
<speed>3.4</speed>
<course>49.1</course>
<desc>Speed 3.4 km/h Distance 1.66 km</desc>
<time>2010-02-21T10:25:10.51</time>
<name>1199</name>
</trkpt>
<trkpt lat="48.937817" lon="8.650557">
<ele>345.0</ele>
<speed>3.9</speed>
<course>62.6</course>
<desc>Speed 3.9 km/h Distance 1.66 km</desc>
<time>2010-02-21T10:25:11.51</time>
<name>1200</name>
</trkpt>
<trkpt lat="48.937818" lon="8.650562">
<ele>345.0</ele>
<speed>3.9</speed>
<course>90.0</course>
<desc>Speed 3.9 km/h Distance 1.66 km</desc>
<time>2010-02-21T10:25:12.51</time>
<name>1201</name>
</trkpt>
<trkpt lat="48.937818" lon="8.650568">
<ele>345.0</ele>
<speed>4.0</speed>
<course>167.4</course>
<desc>Speed 4.0 km/h Distance 1.66 km</desc>
<time>2010-02-21T10:25:13.51</time>
<name>1202</name>
</trkpt>
<trkpt lat="48.937817" lon="8.650568">
<ele>345.0</ele>
<speed>2.7</speed>
<course>192.6</course>
<desc>Speed 2.7 km/h Distance 1.67 km</desc>
<time>2010-02-21T10:25:14.51</time>
<name>1203</name>
</trkpt>
<trkpt lat="48.937812" lon="8.650567">
<ele>344.5</ele>
<speed>1.5</speed>
<course>72.9</course>
<desc>Speed 1.5 km/h Distance 1.67 km</desc>
<time>2010-02-21T10:25:15.51</time>
<name>1204</name>
</trkpt>
<trkpt lat="48.937813" lon="8.650575">
<ele>344.0</ele>
<speed>2.7</speed>
<course>104.4</course>
<desc>Speed 2.7 km/h Distance 1.67 km</desc>
<time>2010-02-21T10:25:16.51</time>
<name>1205</name>
</trkpt>
<trkpt lat="48.937812" lon="8.650585">
<ele>344.0</ele>
<speed>2.4</speed>
<course>90.0</course>
<desc>Speed 2.4 km/h Distance 1.67 km</desc>
<time>2010-02-21T10:25:17.51</time>
<name>1206</name>
</trkpt>
<trkpt lat="48.937812" lon="8.650600">
<ele>344.0</ele>
<speed>3.1</speed>
<course>114.6</course>
<desc>Speed 3.1 km/h Distance 1.67 km</desc>
<time>2010-02-21T10:25:18.51</time>
<name>1207</name>
</trkpt>
<trkpt lat="48.937807" lon="8.650617">
<ele>343.0</ele>
<speed>3.6</speed>
<course>65.4</course>
<desc>Speed 3.6 km/h Distance 1.67 km</desc>
<time>2010-02-21T10:25:19.51</time>
<name>1208</name>
</trkpt>
<trkpt lat="48.937812" lon="8.650633">
<ele>343.5</ele>
<speed>4.4</speed>
<course>52.8</course>
<desc>Speed 4.4 km/h Distance 1.67 km</desc>
<time>2010-02-21T10:25:20.51</time>
<name>1209</name>
</trkpt>
<trkpt lat="48.937817" lon="8.650643">
<ele>343.0</ele>
<speed>3.0</speed>
<course>99.6</course>
<desc>Speed 3.0 km/h Distance 1.67 km</desc>
<time>2010-02-21T10:25:21.51</time>
<name>1210</name>
</trkpt>
<trkpt lat="48.937815" lon="8.650658">
<ele>341.5</ele>
<speed>3.7</speed>
<course>66.5</course>
<desc>Speed 3.7 km/h Distance 1.67 km</desc>
<time>2010-02-21T10:25:22.51</time>
<name>1211</name>
</trkpt>
<trkpt lat="48.937818" lon="8.650670">
<ele>341.0</ele>
<speed>3.0</speed>
<course>52.7</course>
<desc>Speed 3.0 km/h Distance 1.67 km</desc>
<time>2010-02-21T10:25:23.51</time>
<name>1212</name>
</trkpt>
<trkpt lat="48.937825" lon="8.650683">
<ele>341.5</ele>
<speed>3.6</speed>
<course>61.0</course>
<desc>Speed 3.6 km/h Distance 1.68 km</desc>
<time>2010-02-21T10:25:24.51</time>
<name>1213</name>
</trkpt>
<trkpt lat="48.937832" lon="8.650702">
<ele>342.5</ele>
<speed>4.7</speed>
<course>55.9</course>
<desc>Speed 4.7 km/h Distance 1.68 km</desc>
<time>2010-02-21T10:25:25.51</time>
<name>1214</name>
</trkpt>
<trkpt lat="48.937838" lon="8.650717">
<ele>342.5</ele>
<speed>3.9</speed>
<course>55.9</course>
<desc>Speed 3.9 km/h Distance 1.68 km</desc>
<time>2010-02-21T10:25:26.51</time>
<name>1215</name>
</trkpt>
<trkpt lat="48.937845" lon="8.650732">
<ele>342.5</ele>
<speed>4.1</speed>
<course>55.9</course>
<desc>Speed 4.1 km/h Distance 1.68 km</desc>
<time>2010-02-21T10:25:27.51</time>
<name>1216</name>
</trkpt>
<trkpt lat="48.937852" lon="8.650747">
<ele>343.0</ele>
<speed>3.7</speed>
<course>56.0</course>
<desc>Speed 3.7 km/h Distance 1.68 km</desc>
<time>2010-02-21T10:25:28.51</time>
<name>1217</name>
</trkpt>
<trkpt lat="48.937858" lon="8.650762">
<ele>343.0</ele>
<speed>4.1</speed>
<course>65.5</course>
<desc>Speed 4.1 km/h Distance 1.68 km</desc>
<time>2010-02-21T10:25:29.51</time>
<name>1218</name>
</trkpt>
<trkpt lat="48.937863" lon="8.650778">
<ele>344.0</ele>
<speed>4.4</speed>
<course>49.1</course>
<desc>Speed 4.4 km/h Distance 1.68 km</desc>
<time>2010-02-21T10:25:30.51</time>
<name>1219</name>
</trkpt>
<trkpt lat="48.937870" lon="8.650790">
<ele>343.5</ele>
<speed>2.7</speed>
<course>52.7</course>
<desc>Speed 2.7 km/h Distance 1.68 km</desc>
<time>2010-02-21T10:25:31.51</time>
<name>1220</name>
</trkpt>
<trkpt lat="48.937877" lon="8.650803">
<ele>343.5</ele>
<speed>3.5</speed>
<course>63.1</course>
<desc>Speed 3.5 km/h Distance 1.69 km</desc>
<time>2010-02-21T10:25:32.51</time>
<name>1221</name>
</trkpt>
<trkpt lat="48.937882" lon="8.650818">
<ele>343.0</ele>
<speed>3.7</speed>
<course>46.4</course>
<desc>Speed 3.7 km/h Distance 1.69 km</desc>
<time>2010-02-21T10:25:33.51</time>
<name>1222</name>
</trkpt>
<trkpt lat="48.937890" lon="8.650832">
<ele>343.0</ele>
<speed>4.3</speed>
<course>58.7</course>
<desc>Speed 4.3 km/h Distance 1.69 km</desc>
<time>2010-02-21T10:25:34.51</time>
<name>1223</name>
</trkpt>
<trkpt lat="48.937897" lon="8.650848">
<ele>343.0</ele>
<speed>4.6</speed>
<course>55.4</course>
<desc>Speed 4.6 km/h Distance 1.69 km</desc>
<time>2010-02-21T10:25:35.51</time>
<name>1224</name>
</trkpt>
<trkpt lat="48.937905" lon="8.650867">
<ele>342.5</ele>
<speed>4.9</speed>
<course>55.4</course>
<desc>Speed 4.9 km/h Distance 1.69 km</desc>
<time>2010-02-21T10:25:36.51</time>
<name>1225</name>
</trkpt>
<trkpt lat="48.937913" lon="8.650885">
<ele>342.5</ele>
<speed>4.6</speed>
<course>63.2</course>
<desc>Speed 4.6 km/h Distance 1.69 km</desc>
<time>2010-02-21T10:25:37.51</time>
<name>1226</name>
</trkpt>
<trkpt lat="48.937920" lon="8.650905">
<ele>343.5</ele>
<speed>4.9</speed>
<course>69.2</course>
<desc>Speed 4.9 km/h Distance 1.69 km</desc>
<time>2010-02-21T10:25:38.51</time>
<name>1227</name>
</trkpt>
<trkpt lat="48.937925" lon="8.650925">
<ele>343.0</ele>
<speed>4.2</speed>
<course>63.1</course>
<desc>Speed 4.2 km/h Distance 1.70 km</desc>
<time>2010-02-21T10:25:39.51</time>
<name>1228</name>
</trkpt>
<trkpt lat="48.937930" lon="8.650940">
<ele>342.5</ele>
<speed>3.7</speed>
<course>42.6</course>
<desc>Speed 3.7 km/h Distance 1.70 km</desc>
<time>2010-02-21T10:25:40.51</time>
<name>1229</name>
</trkpt>
<trkpt lat="48.937938" lon="8.650952">
<ele>343.0</ele>
<speed>3.1</speed>
<course>49.1</course>
<desc>Speed 3.1 km/h Distance 1.70 km</desc>
<time>2010-02-21T10:25:41.51</time>
<name>1230</name>
</trkpt>
<trkpt lat="48.937945" lon="8.650963">
<ele>343.0</ele>
<speed>3.5</speed>
<course>90.0</course>
<desc>Speed 3.5 km/h Distance 1.70 km</desc>
<time>2010-02-21T10:25:42.51</time>
<name>1231</name>
</trkpt>
<trkpt lat="48.937945" lon="8.650990">
<ele>343.5</ele>
<speed>5.6</speed>
<course>74.5</course>
<desc>Speed 5.6 km/h Distance 1.70 km</desc>
<time>2010-02-21T10:25:43.51</time>
<name>1232</name>
</trkpt>
<trkpt lat="48.937948" lon="8.651008">
<ele>344.5</ele>
<speed>3.7</speed>
<course>67.4</course>
<desc>Speed 3.7 km/h Distance 1.70 km</desc>
<time>2010-02-21T10:25:44.51</time>
<name>1233</name>
</trkpt>
<trkpt lat="48.937953" lon="8.651027">
<ele>345.0</ele>
<speed>4.3</speed>
<course>70.6</course>
<desc>Speed 4.3 km/h Distance 1.70 km</desc>
<time>2010-02-21T10:25:45.51</time>
<name>1234</name>
</trkpt>
<trkpt lat="48.937958" lon="8.651048">
<ele>345.5</ele>
<speed>5.0</speed>
<course>63.1</course>
<desc>Speed 5.0 km/h Distance 1.71 km</desc>
<time>2010-02-21T10:25:46.51</time>
<name>1235</name>
</trkpt>
<trkpt lat="48.937965" lon="8.651068">
<ele>346.0</ele>
<speed>4.6</speed>
<course>69.2</course>
<desc>Speed 4.6 km/h Distance 1.71 km</desc>
<time>2010-02-21T10:25:47.51</time>
<name>1236</name>
</trkpt>
<trkpt lat="48.937970" lon="8.651088">
<ele>346.0</ele>
<speed>4.7</speed>
<course>75.8</course>
<desc>Speed 4.7 km/h Distance 1.71 km</desc>
<time>2010-02-21T10:25:48.51</time>
<name>1237</name>
</trkpt>
<trkpt lat="48.937973" lon="8.651108">
<ele>346.5</ele>
<speed>4.4</speed>
<course>67.5</course>
<desc>Speed 4.4 km/h Distance 1.71 km</desc>
<time>2010-02-21T10:25:49.51</time>
<name>1238</name>
</trkpt>
<trkpt lat="48.937978" lon="8.651127">
<ele>345.5</ele>
<speed>4.1</speed>
<course>73.1</course>
<desc>Speed 4.1 km/h Distance 1.71 km</desc>
<time>2010-02-21T10:25:50.51</time>
<name>1239</name>
</trkpt>
<trkpt lat="48.937982" lon="8.651143">
<ele>345.5</ele>
<speed>4.0</speed>
<course>82.1</course>
<desc>Speed 4.0 km/h Distance 1.71 km</desc>
<time>2010-02-21T10:25:51.51</time>
<name>1240</name>
</trkpt>
<trkpt lat="48.937983" lon="8.651162">
<ele>345.5</ele>
<speed>3.9</speed>
<course>67.5</course>
<desc>Speed 3.9 km/h Distance 1.71 km</desc>
<time>2010-02-21T10:25:52.51</time>
<name>1241</name>
</trkpt>
<trkpt lat="48.937988" lon="8.651180">
<ele>345.5</ele>
<speed>4.4</speed>
<course>69.2</course>
<desc>Speed 4.4 km/h Distance 1.72 km</desc>
<time>2010-02-21T10:25:53.51</time>
<name>1242</name>
</trkpt>
<trkpt lat="48.937993" lon="8.651200">
<ele>346.5</ele>
<speed>4.6</speed>
<course>65.5</course>
<desc>Speed 4.6 km/h Distance 1.72 km</desc>
<time>2010-02-21T10:25:54.51</time>
<name>1243</name>
</trkpt>
<trkpt lat="48.937998" lon="8.651217">
<ele>347.5</ele>
<speed>4.7</speed>
<course>58.7</course>
<desc>Speed 4.7 km/h Distance 1.72 km</desc>
<time>2010-02-21T10:25:55.51</time>
<name>1244</name>
</trkpt>
<trkpt lat="48.938005" lon="8.651233">
<ele>348.0</ele>
<speed>4.8</speed>
<course>67.5</course>
<desc>Speed 4.8 km/h Distance 1.72 km</desc>
<time>2010-02-21T10:25:56.51</time>
<name>1245</name>
</trkpt>
<trkpt lat="48.938010" lon="8.651252">
<ele>348.5</ele>
<speed>5.1</speed>
<course>58.6</course>
<desc>Speed 5.1 km/h Distance 1.72 km</desc>
<time>2010-02-21T10:25:57.51</time>
<name>1246</name>
</trkpt>
<trkpt lat="48.938017" lon="8.651268">
<ele>349.0</ele>
<speed>5.0</speed>
<course>55.3</course>
<desc>Speed 5.0 km/h Distance 1.72 km</desc>
<time>2010-02-21T10:25:58.51</time>
<name>1247</name>
</trkpt>
<trkpt lat="48.938025" lon="8.651287">
<ele>349.5</ele>
<speed>5.0</speed>
<course>49.9</course>
<desc>Speed 5.0 km/h Distance 1.73 km</desc>
<time>2010-02-21T10:25:59.51</time>
<name>1248</name>
</trkpt>
<trkpt lat="48.938033" lon="8.651302">
<ele>349.5</ele>
<speed>4.5</speed>
<course>63.1</course>
<desc>Speed 4.5 km/h Distance 1.73 km</desc>
<time>2010-02-21T10:26:00.51</time>
<name>1249</name>
</trkpt>
<trkpt lat="48.938038" lon="8.651317">
<ele>349.5</ele>
<speed>4.2</speed>
<course>39.4</course>
<desc>Speed 4.2 km/h Distance 1.73 km</desc>
<time>2010-02-21T10:26:01.51</time>
<name>1250</name>
</trkpt>
<trkpt lat="48.938052" lon="8.651333">
<ele>350.0</ele>
<speed>4.6</speed>
<course>29.2</course>
<desc>Speed 4.6 km/h Distance 1.73 km</desc>
<time>2010-02-21T10:26:02.51</time>
<name>1251</name>
</trkpt>
<trkpt lat="48.938063" lon="8.651343">
<ele>350.0</ele>
<speed>5.2</speed>
<course>18.1</course>
<desc>Speed 5.2 km/h Distance 1.73 km</desc>
<time>2010-02-21T10:26:03.51</time>
<name>1252</name>
</trkpt>
<trkpt lat="48.938080" lon="8.651352">
<ele>350.0</ele>
<speed>6.3</speed>
<course>11.6</course>
<desc>Speed 6.3 km/h Distance 1.73 km</desc>
<time>2010-02-21T10:26:04.51</time>
<name>1253</name>
</trkpt>
<trkpt lat="48.938102" lon="8.651358">
<ele>350.5</ele>
<speed>5.5</speed>
<course>346.0</course>
<desc>Speed 5.5 km/h Distance 1.74 km</desc>
<time>2010-02-21T10:26:06.01</time>
<name>1254</name>
</trkpt>
<trkpt lat="48.938115" lon="8.651353">
<ele>350.0</ele>
<speed>4.2</speed>
<course>349.6</course>
<desc>Speed 4.2 km/h Distance 1.74 km</desc>
<time>2010-02-21T10:26:07.02</time>
<name>1255</name>
</trkpt>
<trkpt lat="48.938127" lon="8.651350">
<ele>350.0</ele>
<speed>3.9</speed>
<course>341.8</course>
<desc>Speed 3.9 km/h Distance 1.74 km</desc>
<time>2010-02-21T10:26:08.51</time>
<name>1256</name>
</trkpt>
<trkpt lat="48.938137" lon="8.651345">
<ele>350.5</ele>
<speed>4.3</speed>
<course>348.8</course>
<desc>Speed 4.3 km/h Distance 1.74 km</desc>
<time>2010-02-21T10:26:09.51</time>
<name>1257</name>
</trkpt>
<trkpt lat="48.938153" lon="8.651340">
<ele>351.0</ele>
<speed>4.5</speed>
<course>4.4</course>
<desc>Speed 4.5 km/h Distance 1.74 km</desc>
<time>2010-02-21T10:26:10.51</time>
<name>1258</name>
</trkpt>
<trkpt lat="48.938163" lon="8.651340">
<ele>350.5</ele>
<speed>2.8</speed>
<course>1.2</course>
<desc>Speed 2.8 km/h Distance 1.74 km</desc>
<time>2010-02-21T10:26:11.51</time>
<name>1259</name>
</trkpt>
<trkpt lat="48.938177" lon="8.651340">
<ele>350.5</ele>
<speed>4.4</speed>
<course>356.8</course>
<desc>Speed 4.4 km/h Distance 1.74 km</desc>
<time>2010-02-21T10:26:12.51</time>
<name>1260</name>
</trkpt>
<trkpt lat="48.938198" lon="8.651338">
<ele>350.5</ele>
<speed>1.6</speed>
<course>1.6</course>
<desc>Speed 1.6 km/h Distance 1.75 km</desc>
<time>2010-02-21T10:26:13.99</time>
<name>1261</name>
</trkpt>
<trkpt lat="48.938242" lon="8.651340">
<ele>350.5</ele>
<speed>4.8</speed>
<course>330.0</course>
<desc>Speed 4.8 km/h Distance 1.75 km</desc>
<time>2010-02-21T10:26:16.00</time>
<name>1262</name>
</trkpt>
<trkpt lat="48.938255" lon="8.651328">
<ele>351.0</ele>
<speed>6.0</speed>
<course>355.0</course>
<desc>Speed 6.0 km/h Distance 1.75 km</desc>
<time>2010-02-21T10:26:17.00</time>
<name>1263</name>
</trkpt>
<trkpt lat="48.938272" lon="8.651327">
<ele>351.0</ele>
<speed>3.9</speed>
<course>2.2</course>
<desc>Speed 3.9 km/h Distance 1.76 km</desc>
<time>2010-02-21T10:26:18.00</time>
<name>1264</name>
</trkpt>
<trkpt lat="48.938283" lon="8.651327">
<ele>350.5</ele>
<speed>3.9</speed>
<course>2.5</course>
<desc>Speed 3.9 km/h Distance 1.76 km</desc>
<time>2010-02-21T10:26:19.00</time>
<name>1265</name>
</trkpt>
<trkpt lat="48.938302" lon="8.651328">
<ele>351.0</ele>
<speed>4.7</speed>
<course>2.5</course>
<desc>Speed 4.7 km/h Distance 1.76 km</desc>
<time>2010-02-21T10:26:20.00</time>
<name>1266</name>
</trkpt>
<trkpt lat="48.938320" lon="8.651328">
<ele>351.0</ele>
<speed>4.8</speed>
<course>90.0</course>
<desc>Speed 4.8 km/h Distance 1.76 km</desc>
<time>2010-02-21T10:26:21.00</time>
<name>1267</name>
</trkpt>
<trkpt lat="48.938320" lon="8.651337">
<ele>351.0</ele>
<speed>2.6</speed>
<course>105.4</course>
<desc>Speed 2.6 km/h Distance 1.76 km</desc>
<time>2010-02-21T10:26:21.98</time>
<name>1268</name>
</trkpt>
<trkpt lat="48.938317" lon="8.651355">
<ele>351.0</ele>
<speed>4.3</speed>
<course>90.0</course>
<desc>Speed 4.3 km/h Distance 1.76 km</desc>
<time>2010-02-21T10:26:22.97</time>
<name>1269</name>
</trkpt>
<trkpt lat="48.938317" lon="8.651437">
<ele>351.0</ele>
<speed>5.5</speed>
<course>314.4</course>
<desc>Speed 5.5 km/h Distance 1.77 km</desc>
<time>2010-02-21T10:26:24.97</time>
<name>1270</name>
</trkpt>
<trkpt lat="48.938332" lon="8.651413">
<ele>350.5</ele>
<speed>5.8</speed>
<course>336.3</course>
<desc>Speed 5.8 km/h Distance 1.77 km</desc>
<time>2010-02-21T10:26:25.97</time>
<name>1271</name>
</trkpt>
<trkpt lat="48.938347" lon="8.651403">
<ele>350.0</ele>
<speed>4.2</speed>
<course>324.4</course>
<desc>Speed 4.2 km/h Distance 1.77 km</desc>
<time>2010-02-21T10:26:26.99</time>
<name>1272</name>
</trkpt>
<trkpt lat="48.938365" lon="8.651383">
<ele>350.0</ele>
<speed>4.4</speed>
<course>324.4</course>
<desc>Speed 4.4 km/h Distance 1.78 km</desc>
<time>2010-02-21T10:26:27.98</time>
<name>1273</name>
</trkpt>
<trkpt lat="48.938383" lon="8.651363">
<ele>350.0</ele>
<speed>4.6</speed>
<course>338.5</course>
<desc>Speed 4.6 km/h Distance 1.78 km</desc>
<time>2010-02-21T10:26:28.96</time>
<name>1274</name>
</trkpt>
<trkpt lat="48.938400" lon="8.651353">
<ele>350.5</ele>
<speed>4.6</speed>
<course>322.1</course>
<desc>Speed 4.6 km/h Distance 1.78 km</desc>
<time>2010-02-21T10:26:30.03</time>
<name>1275</name>
</trkpt>
<trkpt lat="48.938418" lon="8.651332">
<ele>350.0</ele>
<speed>4.1</speed>
<course>347.4</course>
<desc>Speed 4.1 km/h Distance 1.78 km</desc>
<time>2010-02-21T10:26:30.98</time>
<name>1276</name>
</trkpt>
<trkpt lat="48.938433" lon="8.651327">
<ele>350.0</ele>
<speed>4.3</speed>
<course>348.8</course>
<desc>Speed 4.3 km/h Distance 1.78 km</desc>
<time>2010-02-21T10:26:31.97</time>
<name>1277</name>
</trkpt>
<trkpt lat="48.938450" lon="8.651322">
<ele>350.5</ele>
<speed>4.7</speed>
<course>15.5</course>
<desc>Speed 4.7 km/h Distance 1.79 km</desc>
<time>2010-02-21T10:26:32.97</time>
<name>1278</name>
</trkpt>
<trkpt lat="48.938462" lon="8.651327">
<ele>351.5</ele>
<speed>5.1</speed>
<course>3.8</course>
<desc>Speed 5.1 km/h Distance 1.79 km</desc>
<time>2010-02-21T10:26:33.97</time>
<name>1279</name>
</trkpt>
<trkpt lat="48.938477" lon="8.651328">
<ele>351.5</ele>
<speed>4.9</speed>
<course>10.4</course>
<desc>Speed 4.9 km/h Distance 1.79 km</desc>
<time>2010-02-21T10:26:34.97</time>
<name>1280</name>
</trkpt>
<trkpt lat="48.938488" lon="8.651332">
<ele>353.0</ele>
<speed>4.4</speed>
<course>8.8</course>
<desc>Speed 4.4 km/h Distance 1.79 km</desc>
<time>2010-02-21T10:26:35.96</time>
<name>1281</name>
</trkpt>
<trkpt lat="48.938503" lon="8.651335">
<ele>352.5</ele>
<speed>5.4</speed>
<course>14.4</course>
<desc>Speed 5.4 km/h Distance 1.79 km</desc>
<time>2010-02-21T10:26:36.96</time>
<name>1282</name>
</trkpt>
<trkpt lat="48.938517" lon="8.651340">
<ele>353.0</ele>
<speed>5.3</speed>
<course>0.0</course>
<desc>Speed 5.3 km/h Distance 1.79 km</desc>
<time>2010-02-21T10:26:37.95</time>
<name>1283</name>
</trkpt>
<trkpt lat="48.938533" lon="8.651340">
<ele>353.0</ele>
<speed>4.8</speed>
<course>11.2</course>
<desc>Speed 4.8 km/h Distance 1.80 km</desc>
<time>2010-02-21T10:26:38.95</time>
<name>1284</name>
</trkpt>
<trkpt lat="48.938545" lon="8.651343">
<ele>353.0</ele>
<speed>4.9</speed>
<course>352.5</course>
<desc>Speed 4.9 km/h Distance 1.80 km</desc>
<time>2010-02-21T10:26:39.95</time>
<name>1285</name>
</trkpt>
<trkpt lat="48.938563" lon="8.651340">
<ele>352.5</ele>
<speed>5.1</speed>
<course>5.3</course>
<desc>Speed 5.1 km/h Distance 1.80 km</desc>
<time>2010-02-21T10:26:40.94</time>
<name>1286</name>
</trkpt>
<trkpt lat="48.938577" lon="8.651342">
<ele>354.0</ele>
<speed>5.0</speed>
<course>357.2</course>
<desc>Speed 5.0 km/h Distance 1.80 km</desc>
<time>2010-02-21T10:26:41.94</time>
<name>1287</name>
</trkpt>
<trkpt lat="48.938593" lon="8.651340">
<ele>354.0</ele>
<speed>5.1</speed>
<course>10.4</course>
<desc>Speed 5.1 km/h Distance 1.80 km</desc>
<time>2010-02-21T10:26:42.93</time>
<name>1288</name>
</trkpt>
<trkpt lat="48.938605" lon="8.651343">
<ele>354.0</ele>
<speed>5.1</speed>
<course>357.2</course>
<desc>Speed 5.1 km/h Distance 1.80 km</desc>
<time>2010-02-21T10:26:43.92</time>
<name>1289</name>
</trkpt>
<trkpt lat="48.938622" lon="8.651342">
<ele>353.5</ele>
<speed>4.9</speed>
<course>16.0</course>
<desc>Speed 4.9 km/h Distance 1.81 km</desc>
<time>2010-02-21T10:26:44.91</time>
<name>1290</name>
</trkpt>
<trkpt lat="48.938633" lon="8.651347">
<ele>352.5</ele>
<speed>5.2</speed>
<course>351.2</course>
<desc>Speed 5.2 km/h Distance 1.81 km</desc>
<time>2010-02-21T10:26:45.91</time>
<name>1291</name>
</trkpt>
<trkpt lat="48.938648" lon="8.651343">
<ele>350.0</ele>
<speed>5.2</speed>
<course>357.2</course>
<desc>Speed 5.2 km/h Distance 1.81 km</desc>
<time>2010-02-21T10:26:46.91</time>
<name>1292</name>
</trkpt>
<trkpt lat="48.938665" lon="8.651342">
<ele>347.0</ele>
<speed>4.9</speed>
<course>357.2</course>
<desc>Speed 4.9 km/h Distance 1.81 km</desc>
<time>2010-02-21T10:26:47.92</time>
<name>1293</name>
</trkpt>
<trkpt lat="48.938682" lon="8.651340">
<ele>344.0</ele>
<speed>4.9</speed>
<course>352.9</course>
<desc>Speed 4.9 km/h Distance 1.81 km</desc>
<time>2010-02-21T10:26:48.92</time>
<name>1294</name>
</trkpt>
<trkpt lat="48.938698" lon="8.651337">
<ele>342.5</ele>
<speed>4.5</speed>
<course>346.4</course>
<desc>Speed 4.5 km/h Distance 1.81 km</desc>
<time>2010-02-21T10:26:49.91</time>
<name>1295</name>
</trkpt>
<trkpt lat="48.938717" lon="8.651330">
<ele>339.5</ele>
<speed>5.3</speed>
<course>347.4</course>
<desc>Speed 5.3 km/h Distance 1.82 km</desc>
<time>2010-02-21T10:26:50.91</time>
<name>1296</name>
</trkpt>
<trkpt lat="48.938737" lon="8.651323">
<ele>338.5</ele>
<speed>5.0</speed>
<course>347.7</course>
<desc>Speed 5.0 km/h Distance 1.82 km</desc>
<time>2010-02-21T10:26:51.91</time>
<name>1297</name>
</trkpt>
<trkpt lat="48.938757" lon="8.651317">
<ele>338.5</ele>
<speed>5.0</speed>
<course>4.7</course>
<desc>Speed 5.0 km/h Distance 1.82 km</desc>
<time>2010-02-21T10:26:52.91</time>
<name>1298</name>
</trkpt>
<trkpt lat="48.938768" lon="8.651318">
<ele>338.5</ele>
<speed>4.0</speed>
<course>343.7</course>
<desc>Speed 4.0 km/h Distance 1.82 km</desc>
<time>2010-02-21T10:26:53.90</time>
<name>1299</name>
</trkpt>
<trkpt lat="48.938783" lon="8.651312">
<ele>338.0</ele>
<speed>6.4</speed>
<course>356.2</course>
<desc>Speed 6.4 km/h Distance 1.82 km</desc>
<time>2010-02-21T10:26:54.90</time>
<name>1300</name>
</trkpt>
<trkpt lat="48.938798" lon="8.651310">
<ele>338.5</ele>
<speed>5.1</speed>
<course>1.2</course>
<desc>Speed 5.1 km/h Distance 1.83 km</desc>
<time>2010-02-21T10:26:55.89</time>
<name>1301</name>
</trkpt>
<trkpt lat="48.938812" lon="8.651310">
<ele>338.5</ele>
<speed>5.1</speed>
<course>346.4</course>
<desc>Speed 5.1 km/h Distance 1.83 km</desc>
<time>2010-02-21T10:26:56.89</time>
<name>1302</name>
</trkpt>
<trkpt lat="48.938830" lon="8.651303">
<ele>337.5</ele>
<speed>4.9</speed>
<course>355.3</course>
<desc>Speed 4.9 km/h Distance 1.83 km</desc>
<time>2010-02-21T10:26:57.89</time>
<name>1303</name>
</trkpt>
<trkpt lat="48.938842" lon="8.651302">
<ele>337.0</ele>
<speed>5.0</speed>
<course>0.0</course>
<desc>Speed 5.0 km/h Distance 1.83 km</desc>
<time>2010-02-21T10:26:58.88</time>
<name>1304</name>
</trkpt>
<trkpt lat="48.938853" lon="8.651302">
<ele>337.5</ele>
<speed>4.6</speed>
<course>355.3</course>
<desc>Speed 4.6 km/h Distance 1.83 km</desc>
<time>2010-02-21T10:26:59.88</time>
<name>1305</name>
</trkpt>
<trkpt lat="48.938865" lon="8.651300">
<ele>338.0</ele>
<speed>5.0</speed>
<course>351.2</course>
<desc>Speed 5.0 km/h Distance 1.83 km</desc>
<time>2010-02-21T10:27:00.88</time>
<name>1306</name>
</trkpt>
<trkpt lat="48.938880" lon="8.651297">
<ele>337.5</ele>
<speed>5.1</speed>
<course>351.2</course>
<desc>Speed 5.1 km/h Distance 1.83 km</desc>
<time>2010-02-21T10:27:01.87</time>
<name>1307</name>
</trkpt>
<trkpt lat="48.938895" lon="8.651293">
<ele>337.5</ele>
<speed>5.1</speed>
<course>351.9</course>
<desc>Speed 5.1 km/h Distance 1.84 km</desc>
<time>2010-02-21T10:27:02.87</time>
<name>1308</name>
</trkpt>
<trkpt lat="48.938910" lon="8.651290">
<ele>337.5</ele>
<speed>5.0</speed>
<course>354.7</course>
<desc>Speed 5.0 km/h Distance 1.84 km</desc>
<time>2010-02-21T10:27:03.87</time>
<name>1309</name>
</trkpt>
<trkpt lat="48.938923" lon="8.651288">
<ele>338.0</ele>
<speed>5.4</speed>
<course>356.1</course>
<desc>Speed 5.4 km/h Distance 1.84 km</desc>
<time>2010-02-21T10:27:04.87</time>
<name>1310</name>
</trkpt>
<trkpt lat="48.938937" lon="8.651287">
<ele>338.5</ele>
<speed>5.4</speed>
<course>358.8</course>
<desc>Speed 5.4 km/h Distance 1.84 km</desc>
<time>2010-02-21T10:27:05.86</time>
<name>1311</name>
</trkpt>
<trkpt lat="48.938950" lon="8.651285">
<ele>339.0</ele>
<speed>5.1</speed>
<course>355.3</course>
<desc>Speed 5.1 km/h Distance 1.84 km</desc>
<time>2010-02-21T10:27:06.86</time>
<name>1312</name>
</trkpt>
<trkpt lat="48.938962" lon="8.651283">
<ele>339.0</ele>
<speed>4.9</speed>
<course>354.7</course>
<desc>Speed 4.9 km/h Distance 1.84 km</desc>
<time>2010-02-21T10:27:07.86</time>
<name>1313</name>
</trkpt>
<trkpt lat="48.938975" lon="8.651282">
<ele>339.5</ele>
<speed>5.0</speed>
<course>351.0</course>
<desc>Speed 5.0 km/h Distance 1.84 km</desc>
<time>2010-02-21T10:27:08.86</time>
<name>1314</name>
</trkpt>
<trkpt lat="48.938988" lon="8.651278">
<ele>339.5</ele>
<speed>4.9</speed>
<course>355.3</course>
<desc>Speed 4.9 km/h Distance 1.85 km</desc>
<time>2010-02-21T10:27:09.85</time>
<name>1315</name>
</trkpt>
<trkpt lat="48.939000" lon="8.651277">
<ele>340.0</ele>
<speed>4.8</speed>
<course>350.3</course>
<desc>Speed 4.8 km/h Distance 1.85 km</desc>
<time>2010-02-21T10:27:10.85</time>
<name>1316</name>
</trkpt>
<trkpt lat="48.939013" lon="8.651273">
<ele>340.0</ele>
<speed>5.3</speed>
<course>354.7</course>
<desc>Speed 5.3 km/h Distance 1.85 km</desc>
<time>2010-02-21T10:27:11.84</time>
<name>1317</name>
</trkpt>
<trkpt lat="48.939027" lon="8.651272">
<ele>340.5</ele>
<speed>5.0</speed>
<course>355.3</course>
<desc>Speed 5.0 km/h Distance 1.85 km</desc>
<time>2010-02-21T10:27:12.83</time>
<name>1318</name>
</trkpt>
<trkpt lat="48.939038" lon="8.651270">
<ele>339.5</ele>
<speed>5.0</speed>
<course>351.2</course>
<desc>Speed 5.0 km/h Distance 1.85 km</desc>
<time>2010-02-21T10:27:13.84</time>
<name>1319</name>
</trkpt>
<trkpt lat="48.939053" lon="8.651267">
<ele>339.5</ele>
<speed>5.4</speed>
<course>354.7</course>
<desc>Speed 5.4 km/h Distance 1.85 km</desc>
<time>2010-02-21T10:27:14.83</time>
<name>1320</name>
</trkpt>
<trkpt lat="48.939067" lon="8.651265">
<ele>340.0</ele>
<speed>5.1</speed>
<course>1.2</course>
<desc>Speed 5.1 km/h Distance 1.86 km</desc>
<time>2010-02-21T10:27:15.83</time>
<name>1321</name>
</trkpt>
<trkpt lat="48.939080" lon="8.651265">
<ele>340.5</ele>
<speed>5.1</speed>
<course>351.2</course>
<desc>Speed 5.1 km/h Distance 1.86 km</desc>
<time>2010-02-21T10:27:16.83</time>
<name>1322</name>
</trkpt>
<trkpt lat="48.939095" lon="8.651262">
<ele>342.5</ele>
<speed>5.1</speed>
<course>1.2</course>
<desc>Speed 5.1 km/h Distance 1.86 km</desc>
<time>2010-02-21T10:27:17.82</time>
<name>1323</name>
</trkpt>
<trkpt lat="48.939108" lon="8.651262">
<ele>343.5</ele>
<speed>5.0</speed>
<course>356.2</course>
<desc>Speed 5.0 km/h Distance 1.86 km</desc>
<time>2010-02-21T10:27:18.82</time>
<name>1324</name>
</trkpt>
<trkpt lat="48.939123" lon="8.651260">
<ele>345.0</ele>
<speed>5.0</speed>
<course>0.0</course>
<desc>Speed 5.0 km/h Distance 1.86 km</desc>
<time>2010-02-21T10:27:19.82</time>
<name>1325</name>
</trkpt>
<trkpt lat="48.939135" lon="8.651260">
<ele>345.0</ele>
<speed>4.9</speed>
<course>356.1</course>
<desc>Speed 4.9 km/h Distance 1.86 km</desc>
<time>2010-02-21T10:27:20.82</time>
<name>1326</name>
</trkpt>
<trkpt lat="48.939148" lon="8.651258">
<ele>345.0</ele>
<speed>5.0</speed>
<course>354.7</course>
<desc>Speed 5.0 km/h Distance 1.86 km</desc>
<time>2010-02-21T10:27:21.81</time>
<name>1327</name>
</trkpt>
<trkpt lat="48.939162" lon="8.651257">
<ele>345.5</ele>
<speed>5.4</speed>
<course>0.0</course>
<desc>Speed 5.4 km/h Distance 1.87 km</desc>
<time>2010-02-21T10:27:22.81</time>
<name>1328</name>
</trkpt>
<trkpt lat="48.939177" lon="8.651257">
<ele>346.0</ele>
<speed>5.5</speed>
<course>5.3</course>
<desc>Speed 5.5 km/h Distance 1.87 km</desc>
<time>2010-02-21T10:27:23.81</time>
<name>1329</name>
</trkpt>
<trkpt lat="48.939190" lon="8.651258">
<ele>346.0</ele>
<speed>5.0</speed>
<course>1.2</course>
<desc>Speed 5.0 km/h Distance 1.87 km</desc>
<time>2010-02-21T10:27:24.80</time>
<name>1330</name>
</trkpt>
<trkpt lat="48.939203" lon="8.651258">
<ele>346.0</ele>
<speed>4.9</speed>
<course>1.2</course>
<desc>Speed 4.9 km/h Distance 1.87 km</desc>
<time>2010-02-21T10:27:25.80</time>
<name>1331</name>
</trkpt>
<trkpt lat="48.939217" lon="8.651258">
<ele>347.0</ele>
<speed>5.1</speed>
<course>9.0</course>
<desc>Speed 5.1 km/h Distance 1.87 km</desc>
<time>2010-02-21T10:27:26.80</time>
<name>1332</name>
</trkpt>
<trkpt lat="48.939230" lon="8.651262">
<ele>347.5</ele>
<speed>5.3</speed>
<course>3.8</course>
<desc>Speed 5.3 km/h Distance 1.87 km</desc>
<time>2010-02-21T10:27:27.80</time>
<name>1333</name>
</trkpt>
<trkpt lat="48.939245" lon="8.651263">
<ele>347.5</ele>
<speed>5.1</speed>
<course>4.7</course>
<desc>Speed 5.1 km/h Distance 1.88 km</desc>
<time>2010-02-21T10:27:28.80</time>
<name>1334</name>
</trkpt>
<trkpt lat="48.939257" lon="8.651265">
<ele>347.5</ele>
<speed>4.9</speed>
<course>1.2</course>
<desc>Speed 4.9 km/h Distance 1.88 km</desc>
<time>2010-02-21T10:27:29.79</time>
<name>1335</name>
</trkpt>
<trkpt lat="48.939270" lon="8.651267">
<ele>347.0</ele>
<speed>5.0</speed>
<course>9.0</course>
<desc>Speed 5.0 km/h Distance 1.88 km</desc>
<time>2010-02-21T10:27:30.80</time>
<name>1336</name>
</trkpt>
<trkpt lat="48.939283" lon="8.651270">
<ele>347.0</ele>
<speed>5.0</speed>
<course>1.2</course>
<desc>Speed 5.0 km/h Distance 1.88 km</desc>
<time>2010-02-21T10:27:31.79</time>
<name>1337</name>
</trkpt>
<trkpt lat="48.939297" lon="8.651270">
<ele>347.0</ele>
<speed>4.9</speed>
<course>9.0</course>
<desc>Speed 4.9 km/h Distance 1.88 km</desc>
<time>2010-02-21T10:27:32.80</time>
<name>1338</name>
</trkpt>
<trkpt lat="48.939310" lon="8.651273">
<ele>347.0</ele>
<speed>5.0</speed>
<course>15.5</course>
<desc>Speed 5.0 km/h Distance 1.88 km</desc>
<time>2010-02-21T10:27:33.79</time>
<name>1339</name>
</trkpt>
<trkpt lat="48.939322" lon="8.651278">
<ele>347.0</ele>
<speed>4.8</speed>
<course>12.6</course>
<desc>Speed 4.8 km/h Distance 1.88 km</desc>
<time>2010-02-21T10:27:34.80</time>
<name>1340</name>
</trkpt>
<trkpt lat="48.939332" lon="8.651282">
<ele>346.5</ele>
<speed>4.1</speed>
<course>15.5</course>
<desc>Speed 4.1 km/h Distance 1.88 km</desc>
<time>2010-02-21T10:27:35.80</time>
<name>1341</name>
</trkpt>
<trkpt lat="48.939343" lon="8.651287">
<ele>346.5</ele>
<speed>5.0</speed>
<course>8.8</course>
<desc>Speed 5.0 km/h Distance 1.89 km</desc>
<time>2010-02-21T10:27:36.80</time>
<name>1342</name>
</trkpt>
<trkpt lat="48.939358" lon="8.651290">
<ele>346.5</ele>
<speed>5.2</speed>
<course>10.3</course>
<desc>Speed 5.2 km/h Distance 1.89 km</desc>
<time>2010-02-21T10:27:37.79</time>
<name>1343</name>
</trkpt>
<trkpt lat="48.939372" lon="8.651293">
<ele>347.5</ele>
<speed>5.2</speed>
<course>18.1</course>
<desc>Speed 5.2 km/h Distance 1.89 km</desc>
<time>2010-02-21T10:27:38.79</time>
<name>1344</name>
</trkpt>
<trkpt lat="48.939385" lon="8.651300">
<ele>347.0</ele>
<speed>5.0</speed>
<course>9.5</course>
<desc>Speed 5.0 km/h Distance 1.89 km</desc>
<time>2010-02-21T10:27:39.80</time>
<name>1345</name>
</trkpt>
<trkpt lat="48.939397" lon="8.651303">
<ele>346.5</ele>
<speed>4.3</speed>
<course>14.9</course>
<desc>Speed 4.3 km/h Distance 1.89 km</desc>
<time>2010-02-21T10:27:40.80</time>
<name>1346</name>
</trkpt>
<trkpt lat="48.939408" lon="8.651308">
<ele>346.5</ele>
<speed>4.4</speed>
<course>9.7</course>
<desc>Speed 4.4 km/h Distance 1.89 km</desc>
<time>2010-02-21T10:27:41.80</time>
<name>1347</name>
</trkpt>
<trkpt lat="48.939422" lon="8.651312">
<ele>347.0</ele>
<speed>4.7</speed>
<course>10.4</course>
<desc>Speed 4.7 km/h Distance 1.90 km</desc>
<time>2010-02-21T10:27:42.79</time>
<name>1348</name>
</trkpt>
<trkpt lat="48.939433" lon="8.651315">
<ele>347.0</ele>
<speed>4.4</speed>
<course>8.8</course>
<desc>Speed 4.4 km/h Distance 1.90 km</desc>
<time>2010-02-21T10:27:43.79</time>
<name>1349</name>
</trkpt>
<trkpt lat="48.939448" lon="8.651318">
<ele>346.5</ele>
<speed>4.9</speed>
<course>18.2</course>
<desc>Speed 4.9 km/h Distance 1.90 km</desc>
<time>2010-02-21T10:27:44.79</time>
<name>1350</name>
</trkpt>
<trkpt lat="48.939458" lon="8.651323">
<ele>347.0</ele>
<speed>3.3</speed>
<course>11.2</course>
<desc>Speed 3.3 km/h Distance 1.90 km</desc>
<time>2010-02-21T10:27:45.79</time>
<name>1351</name>
</trkpt>
<trkpt lat="48.939470" lon="8.651327">
<ele>347.0</ele>
<speed>3.6</speed>
<course>16.0</course>
<desc>Speed 3.6 km/h Distance 1.90 km</desc>
<time>2010-02-21T10:27:46.79</time>
<name>1352</name>
</trkpt>
<trkpt lat="48.939482" lon="8.651332">
<ele>347.5</ele>
<speed>4.1</speed>
<course>20.6</course>
<desc>Speed 4.1 km/h Distance 1.90 km</desc>
<time>2010-02-21T10:27:47.79</time>
<name>1353</name>
</trkpt>
<trkpt lat="48.939493" lon="8.651338">
<ele>347.0</ele>
<speed>4.5</speed>
<course>11.2</course>
<desc>Speed 4.5 km/h Distance 1.90 km</desc>
<time>2010-02-21T10:27:48.79</time>
<name>1354</name>
</trkpt>
<trkpt lat="48.939505" lon="8.651342">
<ele>346.5</ele>
<speed>4.2</speed>
<course>9.0</course>
<desc>Speed 4.2 km/h Distance 1.90 km</desc>
<time>2010-02-21T10:27:49.79</time>
<name>1355</name>
</trkpt>
<trkpt lat="48.939518" lon="8.651345">
<ele>346.5</ele>
<speed>4.6</speed>
<course>12.6</course>
<desc>Speed 4.6 km/h Distance 1.91 km</desc>
<time>2010-02-21T10:27:50.79</time>
<name>1356</name>
</trkpt>
<trkpt lat="48.939533" lon="8.651350">
<ele>346.0</ele>
<speed>4.8</speed>
<course>3.9</course>
<desc>Speed 4.8 km/h Distance 1.91 km</desc>
<time>2010-02-21T10:27:51.79</time>
<name>1357</name>
</trkpt>
<trkpt lat="48.939547" lon="8.651352">
<ele>346.0</ele>
<speed>4.2</speed>
<course>21.5</course>
<desc>Speed 4.2 km/h Distance 1.91 km</desc>
<time>2010-02-21T10:27:52.79</time>
<name>1358</name>
</trkpt>
<trkpt lat="48.939555" lon="8.651357">
<ele>346.0</ele>
<speed>3.4</speed>
<course>13.4</course>
<desc>Speed 3.4 km/h Distance 1.91 km</desc>
<time>2010-02-21T10:27:53.79</time>
<name>1359</name>
</trkpt>
<trkpt lat="48.939565" lon="8.651360">
<ele>345.5</ele>
<speed>3.3</speed>
<course>4.7</course>
<desc>Speed 3.3 km/h Distance 1.91 km</desc>
<time>2010-02-21T10:27:54.79</time>
<name>1360</name>
</trkpt>
<trkpt lat="48.939577" lon="8.651362">
<ele>345.5</ele>
<speed>3.7</speed>
<course>9.5</course>
<desc>Speed 3.7 km/h Distance 1.91 km</desc>
<time>2010-02-21T10:27:55.79</time>
<name>1361</name>
</trkpt>
<trkpt lat="48.939588" lon="8.651365">
<ele>346.0</ele>
<speed>3.9</speed>
<course>3.9</course>
<desc>Speed 3.9 km/h Distance 1.91 km</desc>
<time>2010-02-21T10:27:56.79</time>
<name>1362</name>
</trkpt>
<trkpt lat="48.939602" lon="8.651367">
<ele>345.0</ele>
<speed>4.1</speed>
<course>21.5</course>
<desc>Speed 4.1 km/h Distance 1.92 km</desc>
<time>2010-02-21T10:27:57.79</time>
<name>1363</name>
</trkpt>
<trkpt lat="48.939610" lon="8.651372">
<ele>345.0</ele>
<speed>3.1</speed>
<course>53.0</course>
<desc>Speed 3.1 km/h Distance 1.92 km</desc>
<time>2010-02-21T10:27:58.79</time>
<name>1364</name>
</trkpt>
<trkpt lat="48.939613" lon="8.651378">
<ele>345.0</ele>
<speed>1.9</speed>
<course>22.2</course>
<desc>Speed 1.9 km/h Distance 1.92 km</desc>
<time>2010-02-21T10:27:59.79</time>
<name>1365</name>
</trkpt>
<trkpt lat="48.939618" lon="8.651382">
<ele>344.5</ele>
<speed>2.1</speed>
<course>7.4</course>
<desc>Speed 2.1 km/h Distance 1.92 km</desc>
<time>2010-02-21T10:28:00.79</time>
<name>1366</name>
</trkpt>
<trkpt lat="48.939625" lon="8.651383">
<ele>344.0</ele>
<speed>2.3</speed>
<course>12.6</course>
<desc>Speed 2.3 km/h Distance 1.92 km</desc>
<time>2010-02-21T10:28:01.79</time>
<name>1367</name>
</trkpt>
<trkpt lat="48.939635" lon="8.651387">
<ele>344.0</ele>
<speed>2.9</speed>
<course>6.6</course>
<desc>Speed 2.9 km/h Distance 1.92 km</desc>
<time>2010-02-21T10:28:02.79</time>
<name>1368</name>
</trkpt>
<trkpt lat="48.939645" lon="8.651388">
<ele>344.5</ele>
<speed>3.9</speed>
<course>16.0</course>
<desc>Speed 3.9 km/h Distance 1.92 km</desc>
<time>2010-02-21T10:28:03.79</time>
<name>1369</name>
</trkpt>
<trkpt lat="48.939657" lon="8.651393">
<ele>344.5</ele>
<speed>4.0</speed>
<course>9.0</course>
<desc>Speed 4.0 km/h Distance 1.92 km</desc>
<time>2010-02-21T10:28:04.79</time>
<name>1370</name>
</trkpt>
<trkpt lat="48.939670" lon="8.651397">
<ele>344.0</ele>
<speed>4.2</speed>
<course>12.6</course>
<desc>Speed 4.2 km/h Distance 1.92 km</desc>
<time>2010-02-21T10:28:05.79</time>
<name>1371</name>
</trkpt>
<trkpt lat="48.939680" lon="8.651400">
<ele>343.5</ele>
<speed>3.7</speed>
<course>9.5</course>
<desc>Speed 3.7 km/h Distance 1.92 km</desc>
<time>2010-02-21T10:28:06.78</time>
<name>1372</name>
</trkpt>
<trkpt lat="48.939692" lon="8.651403">
<ele>343.0</ele>
<speed>4.2</speed>
<course>9.0</course>
<desc>Speed 4.2 km/h Distance 1.93 km</desc>
<time>2010-02-21T10:28:07.78</time>
<name>1373</name>
</trkpt>
<trkpt lat="48.939705" lon="8.651407">
<ele>343.0</ele>
<speed>5.4</speed>
<course>12.6</course>
<desc>Speed 5.4 km/h Distance 1.93 km</desc>
<time>2010-02-21T10:28:08.79</time>
<name>1374</name>
</trkpt>
<trkpt lat="48.939715" lon="8.651410">
<ele>342.0</ele>
<speed>4.1</speed>
<course>21.5</course>
<desc>Speed 4.1 km/h Distance 1.93 km</desc>
<time>2010-02-21T10:28:09.78</time>
<name>1375</name>
</trkpt>
<trkpt lat="48.939723" lon="8.651415">
<ele>340.0</ele>
<speed>3.6</speed>
<course>23.4</course>
<desc>Speed 3.6 km/h Distance 1.93 km</desc>
<time>2010-02-21T10:28:10.78</time>
<name>1376</name>
</trkpt>
<trkpt lat="48.939733" lon="8.651422">
<ele>339.5</ele>
<speed>4.2</speed>
<course>13.5</course>
<desc>Speed 4.2 km/h Distance 1.93 km</desc>
<time>2010-02-21T10:28:11.78</time>
<name>1377</name>
</trkpt>
<trkpt lat="48.939747" lon="8.651427">
<ele>337.5</ele>
<speed>4.8</speed>
<course>13.5</course>
<desc>Speed 4.8 km/h Distance 1.93 km</desc>
<time>2010-02-21T10:28:12.78</time>
<name>1378</name>
</trkpt>
<trkpt lat="48.939760" lon="8.651432">
<ele>337.5</ele>
<speed>4.0</speed>
<course>8.1</course>
<desc>Speed 4.0 km/h Distance 1.93 km</desc>
<time>2010-02-21T10:28:13.77</time>
<name>1379</name>
</trkpt>
<trkpt lat="48.939775" lon="8.651435">
<ele>338.0</ele>
<speed>4.9</speed>
<course>3.9</course>
<desc>Speed 4.9 km/h Distance 1.94 km</desc>
<time>2010-02-21T10:28:14.78</time>
<name>1380</name>
</trkpt>
<trkpt lat="48.939788" lon="8.651437">
<ele>338.0</ele>
<speed>5.5</speed>
<course>357.3</course>
<desc>Speed 5.5 km/h Distance 1.94 km</desc>
<time>2010-02-21T10:28:15.77</time>
<name>1381</name>
</trkpt>
<trkpt lat="48.939808" lon="8.651435">
<ele>341.0</ele>
<speed>5.4</speed>
<course>4.7</course>
<desc>Speed 5.4 km/h Distance 1.94 km</desc>
<time>2010-02-21T10:28:16.78</time>
<name>1382</name>
</trkpt>
<trkpt lat="48.939820" lon="8.651435">
<ele>341.5</ele>
<speed>4.7</speed>
<course>2.8</course>
<desc>Speed 4.7 km/h Distance 1.94 km</desc>
<time>2010-02-21T10:28:17.77</time>
<name>1383</name>
</trkpt>
<trkpt lat="48.939837" lon="8.651437">
<ele>343.0</ele>
<speed>5.0</speed>
<course>1.2</course>
<desc>Speed 5.0 km/h Distance 1.94 km</desc>
<time>2010-02-21T10:28:18.77</time>
<name>1384</name>
</trkpt>
<trkpt lat="48.939850" lon="8.651437">
<ele>345.0</ele>
<speed>4.4</speed>
<course>4.7</course>
<desc>Speed 4.4 km/h Distance 1.94 km</desc>
<time>2010-02-21T10:28:19.78</time>
<name>1385</name>
</trkpt>
<trkpt lat="48.939862" lon="8.651438">
<ele>346.0</ele>
<speed>4.5</speed>
<course>355.3</course>
<desc>Speed 4.5 km/h Distance 1.95 km</desc>
<time>2010-02-21T10:28:20.78</time>
<name>1386</name>
</trkpt>
<trkpt lat="48.939873" lon="8.651437">
<ele>347.0</ele>
<speed>4.1</speed>
<course>0.0</course>
<desc>Speed 4.1 km/h Distance 1.95 km</desc>
<time>2010-02-21T10:28:21.78</time>
<name>1387</name>
</trkpt>
<trkpt lat="48.939882" lon="8.651437">
<ele>346.5</ele>
<speed>3.4</speed>
<course>1.9</course>
<desc>Speed 3.4 km/h Distance 1.95 km</desc>
<time>2010-02-21T10:28:22.78</time>
<name>1388</name>
</trkpt>
<trkpt lat="48.939897" lon="8.651437">
<ele>347.0</ele>
<speed>4.0</speed>
<course>353.4</course>
<desc>Speed 4.0 km/h Distance 1.95 km</desc>
<time>2010-02-21T10:28:23.78</time>
<name>1389</name>
</trkpt>
<trkpt lat="48.939907" lon="8.651435">
<ele>347.5</ele>
<speed>3.9</speed>
<course>1.2</course>
<desc>Speed 3.9 km/h Distance 1.95 km</desc>
<time>2010-02-21T10:28:24.77</time>
<name>1390</name>
</trkpt>
<trkpt lat="48.939920" lon="8.651435">
<ele>347.5</ele>
<speed>4.5</speed>
<course>3.9</course>
<desc>Speed 4.5 km/h Distance 1.95 km</desc>
<time>2010-02-21T10:28:25.77</time>
<name>1391</name>
</trkpt>
<trkpt lat="48.939933" lon="8.651437">
<ele>347.5</ele>
<speed>4.9</speed>
<course>1.2</course>
<desc>Speed 4.9 km/h Distance 1.95 km</desc>
<time>2010-02-21T10:28:26.77</time>
<name>1392</name>
</trkpt>
<trkpt lat="48.939947" lon="8.651437">
<ele>348.0</ele>
<speed>4.9</speed>
<course>1.9</course>
<desc>Speed 4.9 km/h Distance 1.95 km</desc>
<time>2010-02-21T10:28:27.76</time>
<name>1393</name>
</trkpt>
<trkpt lat="48.939962" lon="8.651437">
<ele>349.0</ele>
<speed>5.1</speed>
<course>2.8</course>
<desc>Speed 5.1 km/h Distance 1.96 km</desc>
<time>2010-02-21T10:28:28.76</time>
<name>1394</name>
</trkpt>
<trkpt lat="48.939978" lon="8.651437">
<ele>350.5</ele>
<speed>5.3</speed>
<course>0.0</course>
<desc>Speed 5.3 km/h Distance 1.96 km</desc>
<time>2010-02-21T10:28:29.77</time>
<name>1395</name>
</trkpt>
<trkpt lat="48.939995" lon="8.651437">
<ele>351.5</ele>
<speed>4.9</speed>
<course>354.7</course>
<desc>Speed 4.9 km/h Distance 1.96 km</desc>
<time>2010-02-21T10:28:30.77</time>
<name>1396</name>
</trkpt>
<trkpt lat="48.940008" lon="8.651435">
<ele>351.5</ele>
<speed>5.0</speed>
<course>0.0</course>
<desc>Speed 5.0 km/h Distance 1.96 km</desc>
<time>2010-02-21T10:28:31.77</time>
<name>1397</name>
</trkpt>
<trkpt lat="48.940020" lon="8.651435">
<ele>352.0</ele>
<speed>3.4</speed>
<course>12.6</course>
<desc>Speed 3.4 km/h Distance 1.96 km</desc>
<time>2010-02-21T10:28:32.77</time>
<name>1398</name>
</trkpt>
<trkpt lat="48.940022" lon="8.651437">
<ele>351.5</ele>
<speed>0.4</speed>
<course>51.9</course>
<desc>Speed 0.4 km/h Distance 1.96 km</desc>
<time>2010-02-21T10:28:33.76</time>
<name>1399</name>
</trkpt>
<trkpt lat="48.940023" lon="8.651440">
<ele>351.0</ele>
<speed>0.1</speed>
<course>90.0</course>
<desc>Speed 0.1 km/h Distance 1.96 km</desc>
<time>2010-02-21T10:28:34.77</time>
<name>1400</name>
</trkpt>
<trkpt lat="48.940023" lon="8.651442">
<ele>351.0</ele>
<speed>0.3</speed>
<course>90.0</course>
<desc>Speed 0.3 km/h Distance 1.96 km</desc>
<time>2010-02-21T10:28:35.76</time>
<name>1401</name>
</trkpt>
<trkpt lat="48.940023" lon="8.651443">
<ele>350.5</ele>
<speed>0.4</speed>
<course>29.2</course>
<desc>Speed 0.4 km/h Distance 1.96 km</desc>
<time>2010-02-21T10:28:36.76</time>
<name>1402</name>
</trkpt>
<trkpt lat="48.940025" lon="8.651445">
<ele>350.0</ele>
<speed>0.1</speed>
<course>0.0</course>
<desc>Speed 0.1 km/h Distance 1.96 km</desc>
<time>2010-02-21T10:28:37.77</time>
<name>1403</name>
</trkpt>
<trkpt lat="48.940027" lon="8.651445">
<ele>349.5</ele>
<speed>0.1</speed>
<course>90.0</course>
<desc>Speed 0.1 km/h Distance 1.96 km</desc>
<time>2010-02-21T10:28:38.77</time>
<name>1404</name>
</trkpt>
<trkpt lat="48.940027" lon="8.651447">
<ele>349.0</ele>
<speed>0.3</speed>
<course>12.6</course>
<desc>Speed 0.3 km/h Distance 1.96 km</desc>
<time>2010-02-21T10:28:39.76</time>
<name>1405</name>
</trkpt>
<trkpt lat="48.940030" lon="8.651447">
<ele>349.0</ele>
<speed>0.4</speed>
<course>322.8</course>
<desc>Speed 0.4 km/h Distance 1.96 km</desc>
<time>2010-02-21T10:28:40.77</time>
<name>1406</name>
</trkpt>
<trkpt lat="48.940032" lon="8.651445">
<ele>349.0</ele>
<speed>0.2</speed>
<course>322.8</course>
<desc>Speed 0.2 km/h Distance 1.97 km</desc>
<time>2010-02-21T10:28:41.76</time>
<name>1407</name>
</trkpt>
<trkpt lat="48.940032" lon="8.651445">
<ele>348.5</ele>
<speed>0.3</speed>
<course>322.8</course>
<desc>Speed 0.3 km/h Distance 1.97 km</desc>
<time>2010-02-21T10:28:42.76</time>
<name>1408</name>
</trkpt>
<trkpt lat="48.940032" lon="8.651445">
<ele>348.5</ele>
<speed>0.3</speed>
<course>322.8</course>
<desc>Speed 0.3 km/h Distance 1.97 km</desc>
<time>2010-02-21T10:28:43.76</time>
<name>1409</name>
</trkpt>
<trkpt lat="48.940033" lon="8.651443">
<ele>348.5</ele>
<speed>0.3</speed>
<course>322.8</course>
<desc>Speed 0.3 km/h Distance 1.97 km</desc>
<time>2010-02-21T10:28:44.76</time>
<name>1410</name>
</trkpt>
<trkpt lat="48.940033" lon="8.651443">
<ele>348.5</ele>
<speed>0.1</speed>
<course>322.8</course>
<desc>Speed 0.1 km/h Distance 1.97 km</desc>
<time>2010-02-21T10:28:45.76</time>
<name>1411</name>
</trkpt>
<trkpt lat="48.940033" lon="8.651443">
<ele>348.0</ele>
<speed>0.1</speed>
<course>12.6</course>
<desc>Speed 0.1 km/h Distance 1.97 km</desc>
<time>2010-02-21T10:28:46.77</time>
<name>1412</name>
</trkpt>
<trkpt lat="48.940035" lon="8.651443">
<ele>348.0</ele>
<speed>0.3</speed>
<course>12.6</course>
<desc>Speed 0.3 km/h Distance 1.97 km</desc>
<time>2010-02-21T10:28:47.76</time>
<name>1413</name>
</trkpt>
<trkpt lat="48.940035" lon="8.651443">
<ele>348.0</ele>
<speed>0.3</speed>
<course>167.4</course>
<desc>Speed 0.3 km/h Distance 1.97 km</desc>
<time>2010-02-21T10:28:48.76</time>
<name>1414</name>
</trkpt>
<trkpt lat="48.940033" lon="8.651443">
<ele>348.0</ele>
<speed>0.1</speed>
<course>167.4</course>
<desc>Speed 0.1 km/h Distance 1.97 km</desc>
<time>2010-02-21T10:28:49.75</time>
<name>1415</name>
</trkpt>
<trkpt lat="48.940033" lon="8.651443">
<ele>348.0</ele>
<speed>0.2</speed>
<course>167.4</course>
<desc>Speed 0.2 km/h Distance 1.97 km</desc>
<time>2010-02-21T10:28:50.76</time>
<name>1416</name>
</trkpt>
<trkpt lat="48.940033" lon="8.651443">
<ele>348.0</ele>
<speed>0.2</speed>
<course>12.6</course>
<desc>Speed 0.2 km/h Distance 1.97 km</desc>
<time>2010-02-21T10:28:51.75</time>
<name>1417</name>
</trkpt>
<trkpt lat="48.940035" lon="8.651443">
<ele>348.0</ele>
<speed>0.3</speed>
<course>12.6</course>
<desc>Speed 0.3 km/h Distance 1.97 km</desc>
<time>2010-02-21T10:28:52.75</time>
<name>1418</name>
</trkpt>
<trkpt lat="48.940035" lon="8.651443">
<ele>348.0</ele>
<speed>0.2</speed>
<course>12.6</course>
<desc>Speed 0.2 km/h Distance 1.97 km</desc>
<time>2010-02-21T10:28:53.75</time>
<name>1419</name>
</trkpt>
<trkpt lat="48.940035" lon="8.651443">
<ele>348.0</ele>
<speed>0.2</speed>
<course>12.6</course>
<desc>Speed 0.2 km/h Distance 1.97 km</desc>
<time>2010-02-21T10:28:54.75</time>
<name>1420</name>
</trkpt>
<trkpt lat="48.940035" lon="8.651443">
<ele>347.5</ele>
<speed>0.3</speed>
<course>12.6</course>
<desc>Speed 0.3 km/h Distance 1.97 km</desc>
<time>2010-02-21T10:28:55.75</time>
<name>1421</name>
</trkpt>
<trkpt lat="48.940035" lon="8.651443">
<ele>347.5</ele>
<speed>0.2</speed>
<course>12.6</course>
<desc>Speed 0.2 km/h Distance 1.97 km</desc>
<time>2010-02-21T10:28:56.75</time>
<name>1422</name>
</trkpt>
<trkpt lat="48.940035" lon="8.651443">
<ele>347.5</ele>
<speed>0.3</speed>
<course>12.6</course>
<desc>Speed 0.3 km/h Distance 1.97 km</desc>
<time>2010-02-21T10:28:57.75</time>
<name>1423</name>
</trkpt>
<trkpt lat="48.940035" lon="8.651443">
<ele>347.5</ele>
<speed>0.3</speed>
<course>12.6</course>
<desc>Speed 0.3 km/h Distance 1.97 km</desc>
<time>2010-02-21T10:28:58.75</time>
<name>1424</name>
</trkpt>
<trkpt lat="48.940035" lon="8.651443">
<ele>347.5</ele>
<speed>0.3</speed>
<course>12.6</course>
<desc>Speed 0.3 km/h Distance 1.97 km</desc>
<time>2010-02-21T10:28:59.76</time>
<name>1425</name>
</trkpt>
<trkpt lat="48.940035" lon="8.651443">
<ele>347.5</ele>
<speed>0.3</speed>
<course>12.6</course>
<desc>Speed 0.3 km/h Distance 1.97 km</desc>
<time>2010-02-21T10:29:00.75</time>
<name>1426</name>
</trkpt>
<trkpt lat="48.940035" lon="8.651443">
<ele>347.5</ele>
<speed>0.3</speed>
<course>12.6</course>
<desc>Speed 0.3 km/h Distance 1.97 km</desc>
<time>2010-02-21T10:29:01.75</time>
<name>1427</name>
</trkpt>
<trkpt lat="48.940035" lon="8.651443">
<ele>347.5</ele>
<speed>0.4</speed>
<course>12.6</course>
<desc>Speed 0.4 km/h Distance 1.97 km</desc>
<time>2010-02-21T10:29:02.75</time>
<name>1428</name>
</trkpt>
<trkpt lat="48.940035" lon="8.651443">
<ele>347.5</ele>
<speed>0.3</speed>
<course>12.6</course>
<desc>Speed 0.3 km/h Distance 1.97 km</desc>
<time>2010-02-21T10:29:03.75</time>
<name>1429</name>
</trkpt>
<trkpt lat="48.940035" lon="8.651443">
<ele>347.5</ele>
<speed>0.2</speed>
<course>12.6</course>
<desc>Speed 0.2 km/h Distance 1.97 km</desc>
<time>2010-02-21T10:29:04.75</time>
<name>1430</name>
</trkpt>
<trkpt lat="48.940035" lon="8.651443">
<ele>347.5</ele>
<speed>0.1</speed>
<course>12.6</course>
<desc>Speed 0.1 km/h Distance 1.97 km</desc>
<time>2010-02-21T10:29:05.75</time>
<name>1431</name>
</trkpt>
<trkpt lat="48.940035" lon="8.651443">
<ele>347.5</ele>
<speed>0.3</speed>
<course>12.6</course>
<desc>Speed 0.3 km/h Distance 1.97 km</desc>
<time>2010-02-21T10:29:06.75</time>
<name>1432</name>
</trkpt>
<trkpt lat="48.940035" lon="8.651443">
<ele>347.0</ele>
<speed>0.2</speed>
<course>12.6</course>
<desc>Speed 0.2 km/h Distance 1.97 km</desc>
<time>2010-02-21T10:29:07.75</time>
<name>1433</name>
</trkpt>
<trkpt lat="48.940035" lon="8.651443">
<ele>347.0</ele>
<speed>0.2</speed>
<course>12.6</course>
<desc>Speed 0.2 km/h Distance 1.97 km</desc>
<time>2010-02-21T10:29:08.76</time>
<name>1434</name>
</trkpt>
<trkpt lat="48.940035" lon="8.651443">
<ele>347.0</ele>
<speed>0.2</speed>
<course>12.6</course>
<desc>Speed 0.2 km/h Distance 1.97 km</desc>
<time>2010-02-21T10:29:09.78</time>
<name>1435</name>
</trkpt>
<trkpt lat="48.940035" lon="8.651443">
<ele>347.0</ele>
<speed>0.3</speed>
<course>90.0</course>
<desc>Speed 0.3 km/h Distance 1.97 km</desc>
<time>2010-02-21T10:29:10.75</time>
<name>1436</name>
</trkpt>
<trkpt lat="48.940035" lon="8.651445">
<ele>347.0</ele>
<speed>0.2</speed>
<course>90.0</course>
<desc>Speed 0.2 km/h Distance 1.97 km</desc>
<time>2010-02-21T10:29:11.75</time>
<name>1437</name>
</trkpt>
<trkpt lat="48.940035" lon="8.651445">
<ele>347.0</ele>
<speed>0.1</speed>
<course>90.0</course>
<desc>Speed 0.1 km/h Distance 1.97 km</desc>
<time>2010-02-21T10:29:12.78</time>
<name>1438</name>
</trkpt>
<trkpt lat="48.940035" lon="8.651445">
<ele>347.0</ele>
<speed>0.2</speed>
<course>90.0</course>
<desc>Speed 0.2 km/h Distance 1.97 km</desc>
<time>2010-02-21T10:29:13.75</time>
<name>1439</name>
</trkpt>
<trkpt lat="48.940035" lon="8.651445">
<ele>347.0</ele>
<speed>0.2</speed>
<course>12.6</course>
<desc>Speed 0.2 km/h Distance 1.97 km</desc>
<time>2010-02-21T10:29:14.75</time>
<name>1440</name>
</trkpt>
<trkpt lat="48.940037" lon="8.651445">
<ele>347.0</ele>
<speed>0.4</speed>
<course>12.6</course>
<desc>Speed 0.4 km/h Distance 1.97 km</desc>
<time>2010-02-21T10:29:15.75</time>
<name>1441</name>
</trkpt>
<trkpt lat="48.940037" lon="8.651445">
<ele>347.0</ele>
<speed>0.2</speed>
<course>12.6</course>
<desc>Speed 0.2 km/h Distance 1.97 km</desc>
<time>2010-02-21T10:29:16.75</time>
<name>1442</name>
</trkpt>
<trkpt lat="48.940037" lon="8.651445">
<ele>347.0</ele>
<speed>0.2</speed>
<course>12.6</course>
<desc>Speed 0.2 km/h Distance 1.97 km</desc>
<time>2010-02-21T10:29:17.75</time>
<name>1443</name>
</trkpt>
<trkpt lat="48.940037" lon="8.651445">
<ele>347.0</ele>
<speed>0.2</speed>
<course>12.6</course>
<desc>Speed 0.2 km/h Distance 1.97 km</desc>
<time>2010-02-21T10:29:18.75</time>
<name>1444</name>
</trkpt>
<trkpt lat="48.940037" lon="8.651445">
<ele>346.5</ele>
<speed>0.2</speed>
<course>12.6</course>
<desc>Speed 0.2 km/h Distance 1.97 km</desc>
<time>2010-02-21T10:29:19.74</time>
<name>1445</name>
</trkpt>
<trkpt lat="48.940037" lon="8.651445">
<ele>346.5</ele>
<speed>0.1</speed>
<course>12.6</course>
<desc>Speed 0.1 km/h Distance 1.97 km</desc>
<time>2010-02-21T10:29:20.74</time>
<name>1446</name>
</trkpt>
<trkpt lat="48.940037" lon="8.651445">
<ele>346.5</ele>
<speed>0.2</speed>
<course>12.6</course>
<desc>Speed 0.2 km/h Distance 1.97 km</desc>
<time>2010-02-21T10:29:21.74</time>
<name>1447</name>
</trkpt>
<trkpt lat="48.940037" lon="8.651445">
<ele>346.5</ele>
<speed>0.2</speed>
<course>12.6</course>
<desc>Speed 0.2 km/h Distance 1.97 km</desc>
<time>2010-02-21T10:29:22.74</time>
<name>1448</name>
</trkpt>
<trkpt lat="48.940037" lon="8.651445">
<ele>346.5</ele>
<speed>0.2</speed>
<course>12.6</course>
<desc>Speed 0.2 km/h Distance 1.97 km</desc>
<time>2010-02-21T10:29:23.74</time>
<name>1449</name>
</trkpt>
<trkpt lat="48.940037" lon="8.651445">
<ele>346.5</ele>
<speed>0.1</speed>
<course>12.6</course>
<desc>Speed 0.1 km/h Distance 1.97 km</desc>
<time>2010-02-21T10:29:24.74</time>
<name>1450</name>
</trkpt>
<trkpt lat="48.940038" lon="8.651445">
<ele>346.5</ele>
<speed>0.2</speed>
<course>12.6</course>
<desc>Speed 0.2 km/h Distance 1.97 km</desc>
<time>2010-02-21T10:29:25.74</time>
<name>1451</name>
</trkpt>
<trkpt lat="48.940038" lon="8.651445">
<ele>346.5</ele>
<speed>0.3</speed>
<course>12.6</course>
<desc>Speed 0.3 km/h Distance 1.97 km</desc>
<time>2010-02-21T10:29:26.75</time>
<name>1452</name>
</trkpt>
<trkpt lat="48.940038" lon="8.651445">
<ele>346.0</ele>
<speed>0.1</speed>
<course>12.6</course>
<desc>Speed 0.1 km/h Distance 1.97 km</desc>
<time>2010-02-21T10:29:27.74</time>
<name>1453</name>
</trkpt>
<trkpt lat="48.940038" lon="8.651445">
<ele>346.0</ele>
<speed>0.1</speed>
<course>12.6</course>
<desc>Speed 0.1 km/h Distance 1.97 km</desc>
<time>2010-02-21T10:29:28.74</time>
<name>1454</name>
</trkpt>
<trkpt lat="48.940038" lon="8.651445">
<ele>346.0</ele>
<speed>0.3</speed>
<course>12.6</course>
<desc>Speed 0.3 km/h Distance 1.97 km</desc>
<time>2010-02-21T10:29:29.74</time>
<name>1455</name>
</trkpt>
<trkpt lat="48.940038" lon="8.651445">
<ele>346.0</ele>
<speed>0.3</speed>
<course>12.6</course>
<desc>Speed 0.3 km/h Distance 1.97 km</desc>
<time>2010-02-21T10:29:30.74</time>
<name>1456</name>
</trkpt>
<trkpt lat="48.940038" lon="8.651445">
<ele>346.0</ele>
<speed>0.3</speed>
<course>12.6</course>
<desc>Speed 0.3 km/h Distance 1.97 km</desc>
<time>2010-02-21T10:29:31.74</time>
<name>1457</name>
</trkpt>
<trkpt lat="48.940038" lon="8.651445">
<ele>346.0</ele>
<speed>0.1</speed>
<course>12.6</course>
<desc>Speed 0.1 km/h Distance 1.97 km</desc>
<time>2010-02-21T10:29:32.74</time>
<name>1458</name>
</trkpt>
<trkpt lat="48.940038" lon="8.651445">
<ele>346.0</ele>
<speed>0.2</speed>
<course>49.4</course>
<desc>Speed 0.2 km/h Distance 1.97 km</desc>
<time>2010-02-21T10:29:33.77</time>
<name>1459</name>
</trkpt>
<trkpt lat="48.940040" lon="8.651448">
<ele>346.0</ele>
<speed>0.8</speed>
<course>0.0</course>
<desc>Speed 0.8 km/h Distance 1.97 km</desc>
<time>2010-02-21T10:29:34.74</time>
<name>1460</name>
</trkpt>
<trkpt lat="48.940048" lon="8.651448">
<ele>345.0</ele>
<speed>2.8</speed>
<course>348.8</course>
<desc>Speed 2.8 km/h Distance 1.97 km</desc>
<time>2010-02-21T10:29:35.74</time>
<name>1461</name>
</trkpt>
<trkpt lat="48.940060" lon="8.651445">
<ele>345.0</ele>
<speed>4.7</speed>
<course>349.7</course>
<desc>Speed 4.7 km/h Distance 1.97 km</desc>
<time>2010-02-21T10:29:36.74</time>
<name>1462</name>
</trkpt>
<trkpt lat="48.940073" lon="8.651442">
<ele>344.5</ele>
<speed>4.8</speed>
<course>347.4</course>
<desc>Speed 4.8 km/h Distance 1.97 km</desc>
<time>2010-02-21T10:29:37.74</time>
<name>1463</name>
</trkpt>
<trkpt lat="48.940088" lon="8.651437">
<ele>343.5</ele>
<speed>5.0</speed>
<course>356.2</course>
<desc>Speed 5.0 km/h Distance 1.97 km</desc>
<time>2010-02-21T10:29:38.74</time>
<name>1464</name>
</trkpt>
<trkpt lat="48.940103" lon="8.651435">
<ele>344.5</ele>
<speed>5.2</speed>
<course>356.2</course>
<desc>Speed 5.2 km/h Distance 1.97 km</desc>
<time>2010-02-21T10:29:39.74</time>
<name>1465</name>
</trkpt>
<trkpt lat="48.940118" lon="8.651433">
<ele>345.5</ele>
<speed>5.5</speed>
<course>345.6</course>
<desc>Speed 5.5 km/h Distance 1.98 km</desc>
<time>2010-02-21T10:29:40.74</time>
<name>1466</name>
</trkpt>
<trkpt lat="48.940132" lon="8.651428">
<ele>345.5</ele>
<speed>5.1</speed>
<course>347.4</course>
<desc>Speed 5.1 km/h Distance 1.98 km</desc>
<time>2010-02-21T10:29:41.74</time>
<name>1467</name>
</trkpt>
<trkpt lat="48.940147" lon="8.651423">
<ele>344.5</ele>
<speed>5.5</speed>
<course>356.1</course>
<desc>Speed 5.5 km/h Distance 1.98 km</desc>
<time>2010-02-21T10:29:42.73</time>
<name>1468</name>
</trkpt>
<trkpt lat="48.940160" lon="8.651422">
<ele>343.5</ele>
<speed>4.4</speed>
<course>355.3</course>
<desc>Speed 4.4 km/h Distance 1.98 km</desc>
<time>2010-02-21T10:29:43.74</time>
<name>1469</name>
</trkpt>
<trkpt lat="48.940172" lon="8.651420">
<ele>343.0</ele>
<speed>4.8</speed>
<course>351.0</course>
<desc>Speed 4.8 km/h Distance 1.98 km</desc>
<time>2010-02-21T10:29:44.74</time>
<name>1470</name>
</trkpt>
<trkpt lat="48.940185" lon="8.651417">
<ele>343.0</ele>
<speed>5.1</speed>
<course>351.0</course>
<desc>Speed 5.1 km/h Distance 1.98 km</desc>
<time>2010-02-21T10:29:45.73</time>
<name>1471</name>
</trkpt>
<trkpt lat="48.940198" lon="8.651413">
<ele>343.0</ele>
<speed>5.3</speed>
<course>351.9</course>
<desc>Speed 5.3 km/h Distance 1.98 km</desc>
<time>2010-02-21T10:29:46.73</time>
<name>1472</name>
</trkpt>
<trkpt lat="48.940213" lon="8.651410">
<ele>343.5</ele>
<speed>5.5</speed>
<course>356.1</course>
<desc>Speed 5.5 km/h Distance 1.99 km</desc>
<time>2010-02-21T10:29:47.73</time>
<name>1473</name>
</trkpt>
<trkpt lat="48.940227" lon="8.651408">
<ele>343.5</ele>
<speed>5.3</speed>
<course>354.1</course>
<desc>Speed 5.3 km/h Distance 1.99 km</desc>
<time>2010-02-21T10:29:48.73</time>
<name>1474</name>
</trkpt>
<trkpt lat="48.940242" lon="8.651407">
<ele>343.5</ele>
<speed>5.4</speed>
<course>349.6</course>
<desc>Speed 5.4 km/h Distance 1.99 km</desc>
<time>2010-02-21T10:29:49.73</time>
<name>1475</name>
</trkpt>
<trkpt lat="48.940253" lon="8.651403">
<ele>343.0</ele>
<speed>4.5</speed>
<course>348.4</course>
<desc>Speed 4.5 km/h Distance 1.99 km</desc>
<time>2010-02-21T10:29:50.74</time>
<name>1476</name>
</trkpt>
<trkpt lat="48.940263" lon="8.651400">
<ele>342.5</ele>
<speed>4.6</speed>
<course>351.0</course>
<desc>Speed 4.6 km/h Distance 1.99 km</desc>
<time>2010-02-21T10:29:51.74</time>
<name>1477</name>
</trkpt>
<trkpt lat="48.940277" lon="8.651397">
<ele>342.5</ele>
<speed>4.7</speed>
<course>354.7</course>
<desc>Speed 4.7 km/h Distance 1.99 km</desc>
<time>2010-02-21T10:29:52.73</time>
<name>1478</name>
</trkpt>
<trkpt lat="48.940290" lon="8.651395">
<ele>342.5</ele>
<speed>5.0</speed>
<course>1.2</course>
<desc>Speed 5.0 km/h Distance 1.99 km</desc>
<time>2010-02-21T10:29:53.73</time>
<name>1479</name>
</trkpt>
<trkpt lat="48.940303" lon="8.651395">
<ele>343.0</ele>
<speed>5.1</speed>
<course>355.6</course>
<desc>Speed 5.1 km/h Distance 2.00 km</desc>
<time>2010-02-21T10:29:54.73</time>
<name>1480</name>
</trkpt>
<trkpt lat="48.940313" lon="8.651393">
<ele>342.5</ele>
<speed>4.9</speed>
<course>355.3</course>
<desc>Speed 4.9 km/h Distance 2.00 km</desc>
<time>2010-02-21T10:29:55.73</time>
<name>1481</name>
</trkpt>
<trkpt lat="48.940325" lon="8.651392">
<ele>341.5</ele>
<speed>4.8</speed>
<course>356.1</course>
<desc>Speed 4.8 km/h Distance 2.00 km</desc>
<time>2010-02-21T10:29:56.73</time>
<name>1482</name>
</trkpt>
<trkpt lat="48.940338" lon="8.651390">
<ele>341.5</ele>
<speed>4.8</speed>
<course>349.6</course>
<desc>Speed 4.8 km/h Distance 2.00 km</desc>
<time>2010-02-21T10:29:57.73</time>
<name>1483</name>
</trkpt>
<trkpt lat="48.940350" lon="8.651387">
<ele>342.0</ele>
<speed>4.1</speed>
<course>348.8</course>
<desc>Speed 4.1 km/h Distance 2.00 km</desc>
<time>2010-02-21T10:29:58.73</time>
<name>1484</name>
</trkpt>
<trkpt lat="48.940362" lon="8.651383">
<ele>342.0</ele>
<speed>4.8</speed>
<course>345.1</course>
<desc>Speed 4.8 km/h Distance 2.00 km</desc>
<time>2010-02-21T10:29:59.72</time>
<name>1485</name>
</trkpt>
<trkpt lat="48.940378" lon="8.651377">
<ele>343.0</ele>
<speed>5.6</speed>
<course>351.0</course>
<desc>Speed 5.6 km/h Distance 2.00 km</desc>
<time>2010-02-21T10:30:00.73</time>
<name>1486</name>
</trkpt>
<trkpt lat="48.940392" lon="8.651373">
<ele>343.0</ele>
<speed>4.8</speed>
<course>341.8</course>
<desc>Speed 4.8 km/h Distance 2.01 km</desc>
<time>2010-02-21T10:30:01.72</time>
<name>1487</name>
</trkpt>
<trkpt lat="48.940402" lon="8.651368">
<ele>342.5</ele>
<speed>4.3</speed>
<course>341.8</course>
<desc>Speed 4.3 km/h Distance 2.01 km</desc>
<time>2010-02-21T10:30:02.73</time>
<name>1488</name>
</trkpt>
<trkpt lat="48.940412" lon="8.651363">
<ele>342.0</ele>
<speed>4.2</speed>
<course>338.5</course>
<desc>Speed 4.2 km/h Distance 2.01 km</desc>
<time>2010-02-21T10:30:03.72</time>
<name>1489</name>
</trkpt>
<trkpt lat="48.940420" lon="8.651358">
<ele>341.0</ele>
<speed>3.9</speed>
<course>344.0</course>
<desc>Speed 3.9 km/h Distance 2.01 km</desc>
<time>2010-02-21T10:30:04.72</time>
<name>1490</name>
</trkpt>
<trkpt lat="48.940432" lon="8.651353">
<ele>341.0</ele>
<speed>4.1</speed>
<course>339.9</course>
<desc>Speed 4.1 km/h Distance 2.01 km</desc>
<time>2010-02-21T10:30:05.73</time>
<name>1491</name>
</trkpt>
<trkpt lat="48.940447" lon="8.651345">
<ele>342.0</ele>
<speed>4.5</speed>
<course>339.4</course>
<desc>Speed 4.5 km/h Distance 2.01 km</desc>
<time>2010-02-21T10:30:06.73</time>
<name>1492</name>
</trkpt>
<trkpt lat="48.940458" lon="8.651338">
<ele>342.0</ele>
<speed>4.5</speed>
<course>339.1</course>
<desc>Speed 4.5 km/h Distance 2.01 km</desc>
<time>2010-02-21T10:30:07.73</time>
<name>1493</name>
</trkpt>
<trkpt lat="48.940470" lon="8.651332">
<ele>342.0</ele>
<speed>4.6</speed>
<course>336.2</course>
<desc>Speed 4.6 km/h Distance 2.02 km</desc>
<time>2010-02-21T10:30:08.74</time>
<name>1494</name>
</trkpt>
<trkpt lat="48.940480" lon="8.651325">
<ele>342.0</ele>
<speed>4.1</speed>
<course>331.4</course>
<desc>Speed 4.1 km/h Distance 2.02 km</desc>
<time>2010-02-21T10:30:09.73</time>
<name>1495</name>
</trkpt>
<trkpt lat="48.940490" lon="8.651317">
<ele>342.5</ele>
<speed>4.4</speed>
<course>337.7</course>
<desc>Speed 4.4 km/h Distance 2.02 km</desc>
<time>2010-02-21T10:30:10.73</time>
<name>1496</name>
</trkpt>
<trkpt lat="48.940503" lon="8.651308">
<ele>341.5</ele>
<speed>4.5</speed>
<course>336.3</course>
<desc>Speed 4.5 km/h Distance 2.02 km</desc>
<time>2010-02-21T10:30:11.72</time>
<name>1497</name>
</trkpt>
<trkpt lat="48.940518" lon="8.651298">
<ele>342.0</ele>
<speed>4.6</speed>
<course>340.3</course>
<desc>Speed 4.6 km/h Distance 2.02 km</desc>
<time>2010-02-21T10:30:12.73</time>
<name>1498</name>
</trkpt>
<trkpt lat="48.940537" lon="8.651288">
<ele>342.5</ele>
<speed>4.5</speed>
<course>339.4</course>
<desc>Speed 4.5 km/h Distance 2.02 km</desc>
<time>2010-02-21T10:30:13.73</time>
<name>1499</name>
</trkpt>
<trkpt lat="48.940548" lon="8.651282">
<ele>343.0</ele>
<speed>4.7</speed>
<course>339.4</course>
<desc>Speed 4.7 km/h Distance 2.02 km</desc>
<time>2010-02-21T10:30:14.73</time>
<name>1500</name>
</trkpt>
<trkpt lat="48.940560" lon="8.651275">
<ele>343.5</ele>
<speed>4.8</speed>
<course>334.8</course>
<desc>Speed 4.8 km/h Distance 2.03 km</desc>
<time>2010-02-21T10:30:15.72</time>
<name>1501</name>
</trkpt>
<trkpt lat="48.940572" lon="8.651267">
<ele>344.0</ele>
<speed>4.7</speed>
<course>337.9</course>
<desc>Speed 4.7 km/h Distance 2.03 km</desc>
<time>2010-02-21T10:30:16.72</time>
<name>1502</name>
</trkpt>
<trkpt lat="48.940585" lon="8.651258">
<ele>344.0</ele>
<speed>5.0</speed>
<course>334.0</course>
<desc>Speed 5.0 km/h Distance 2.03 km</desc>
<time>2010-02-21T10:30:17.72</time>
<name>1503</name>
</trkpt>
<trkpt lat="48.940598" lon="8.651248">
<ele>343.5</ele>
<speed>5.0</speed>
<course>337.7</course>
<desc>Speed 5.0 km/h Distance 2.03 km</desc>
<time>2010-02-21T10:30:18.72</time>
<name>1504</name>
</trkpt>
<trkpt lat="48.940612" lon="8.651240">
<ele>343.5</ele>
<speed>4.7</speed>
<course>334.8</course>
<desc>Speed 4.7 km/h Distance 2.03 km</desc>
<time>2010-02-21T10:30:19.73</time>
<name>1505</name>
</trkpt>
<trkpt lat="48.940623" lon="8.651232">
<ele>343.5</ele>
<speed>4.5</speed>
<course>334.8</course>
<desc>Speed 4.5 km/h Distance 2.03 km</desc>
<time>2010-02-21T10:30:20.71</time>
<name>1506</name>
</trkpt>
<trkpt lat="48.940635" lon="8.651223">
<ele>343.5</ele>
<speed>4.5</speed>
<course>339.9</course>
<desc>Speed 4.5 km/h Distance 2.04 km</desc>
<time>2010-02-21T10:30:21.71</time>
<name>1507</name>
</trkpt>
<trkpt lat="48.940650" lon="8.651215">
<ele>343.0</ele>
<speed>4.6</speed>
<course>333.0</course>
<desc>Speed 4.6 km/h Distance 2.04 km</desc>
<time>2010-02-21T10:30:22.71</time>
<name>1508</name>
</trkpt>
<trkpt lat="48.940665" lon="8.651203">
<ele>343.0</ele>
<speed>4.8</speed>
<course>326.6</course>
<desc>Speed 4.8 km/h Distance 2.04 km</desc>
<time>2010-02-21T10:30:23.71</time>
<name>1509</name>
</trkpt>
<trkpt lat="48.940678" lon="8.651190">
<ele>342.5</ele>
<speed>4.4</speed>
<course>330.2</course>
<desc>Speed 4.4 km/h Distance 2.04 km</desc>
<time>2010-02-21T10:30:24.71</time>
<name>1510</name>
</trkpt>
<trkpt lat="48.940692" lon="8.651178">
<ele>341.5</ele>
<speed>4.4</speed>
<course>334.0</course>
<desc>Speed 4.4 km/h Distance 2.04 km</desc>
<time>2010-02-21T10:30:25.71</time>
<name>1511</name>
</trkpt>
<trkpt lat="48.940705" lon="8.651168">
<ele>341.0</ele>
<speed>4.9</speed>
<course>333.8</course>
<desc>Speed 4.9 km/h Distance 2.04 km</desc>
<time>2010-02-21T10:30:26.72</time>
<name>1512</name>
</trkpt>
<trkpt lat="48.940718" lon="8.651158">
<ele>340.5</ele>
<speed>5.0</speed>
<course>333.8</course>
<desc>Speed 5.0 km/h Distance 2.05 km</desc>
<time>2010-02-21T10:30:27.71</time>
<name>1513</name>
</trkpt>
<trkpt lat="48.940732" lon="8.651148">
<ele>339.5</ele>
<speed>5.0</speed>
<course>332.8</course>
<desc>Speed 5.0 km/h Distance 2.05 km</desc>
<time>2010-02-21T10:30:28.71</time>
<name>1514</name>
</trkpt>
<trkpt lat="48.940747" lon="8.651137">
<ele>339.5</ele>
<speed>5.1</speed>
<course>334.8</course>
<desc>Speed 5.1 km/h Distance 2.05 km</desc>
<time>2010-02-21T10:30:29.72</time>
<name>1515</name>
</trkpt>
<trkpt lat="48.940758" lon="8.651128">
<ele>340.0</ele>
<speed>4.9</speed>
<course>333.8</course>
<desc>Speed 4.9 km/h Distance 2.05 km</desc>
<time>2010-02-21T10:30:30.72</time>
<name>1516</name>
</trkpt>
<trkpt lat="48.940772" lon="8.651118">
<ele>340.0</ele>
<speed>4.5</speed>
<course>337.7</course>
<desc>Speed 4.5 km/h Distance 2.05 km</desc>
<time>2010-02-21T10:30:31.71</time>
<name>1517</name>
</trkpt>
<trkpt lat="48.940785" lon="8.651110">
<ele>340.0</ele>
<speed>4.7</speed>
<course>333.6</course>
<desc>Speed 4.7 km/h Distance 2.05 km</desc>
<time>2010-02-21T10:30:32.71</time>
<name>1518</name>
</trkpt>
<trkpt lat="48.940798" lon="8.651100">
<ele>340.5</ele>
<speed>5.1</speed>
<course>334.0</course>
<desc>Speed 5.1 km/h Distance 2.06 km</desc>
<time>2010-02-21T10:30:33.71</time>
<name>1519</name>
</trkpt>
<trkpt lat="48.940812" lon="8.651090">
<ele>340.0</ele>
<speed>5.0</speed>
<course>330.0</course>
<desc>Speed 5.0 km/h Distance 2.06 km</desc>
<time>2010-02-21T10:30:34.70</time>
<name>1520</name>
</trkpt>
<trkpt lat="48.940825" lon="8.651078">
<ele>340.0</ele>
<speed>4.8</speed>
<course>334.8</course>
<desc>Speed 4.8 km/h Distance 2.06 km</desc>
<time>2010-02-21T10:30:35.70</time>
<name>1521</name>
</trkpt>
<trkpt lat="48.940837" lon="8.651070">
<ele>340.0</ele>
<speed>4.6</speed>
<course>326.7</course>
<desc>Speed 4.6 km/h Distance 2.06 km</desc>
<time>2010-02-21T10:30:36.70</time>
<name>1522</name>
</trkpt>
<trkpt lat="48.940848" lon="8.651058">
<ele>339.5</ele>
<speed>4.4</speed>
<course>330.2</course>
<desc>Speed 4.4 km/h Distance 2.06 km</desc>
<time>2010-02-21T10:30:37.70</time>
<name>1523</name>
</trkpt>
<trkpt lat="48.940862" lon="8.651047">
<ele>339.5</ele>
<speed>5.1</speed>
<course>326.6</course>
<desc>Speed 5.1 km/h Distance 2.06 km</desc>
<time>2010-02-21T10:30:38.70</time>
<name>1524</name>
</trkpt>
<trkpt lat="48.940873" lon="8.651035">
<ele>339.0</ele>
<speed>5.1</speed>
<course>330.0</course>
<desc>Speed 5.1 km/h Distance 2.07 km</desc>
<time>2010-02-21T10:30:39.71</time>
<name>1525</name>
</trkpt>
<trkpt lat="48.940887" lon="8.651023">
<ele>338.5</ele>
<speed>4.8</speed>
<course>326.6</course>
<desc>Speed 4.8 km/h Distance 2.07 km</desc>
<time>2010-02-21T10:30:40.71</time>
<name>1526</name>
</trkpt>
<trkpt lat="48.940898" lon="8.651012">
<ele>338.0</ele>
<speed>4.8</speed>
<course>326.6</course>
<desc>Speed 4.8 km/h Distance 2.07 km</desc>
<time>2010-02-21T10:30:41.70</time>
<name>1527</name>
</trkpt>
<trkpt lat="48.940910" lon="8.651000">
<ele>338.0</ele>
<speed>4.9</speed>
<course>331.1</course>
<desc>Speed 4.9 km/h Distance 2.07 km</desc>
<time>2010-02-21T10:30:42.71</time>
<name>1528</name>
</trkpt>
<trkpt lat="48.940920" lon="8.650992">
<ele>338.0</ele>
<speed>4.4</speed>
<course>339.1</course>
<desc>Speed 4.4 km/h Distance 2.07 km</desc>
<time>2010-02-21T10:30:43.71</time>
<name>1529</name>
</trkpt>
<trkpt lat="48.940932" lon="8.650985">
<ele>338.0</ele>
<speed>4.6</speed>
<course>330.6</course>
<desc>Speed 4.6 km/h Distance 2.07 km</desc>
<time>2010-02-21T10:30:44.71</time>
<name>1530</name>
</trkpt>
<trkpt lat="48.940943" lon="8.650975">
<ele>337.5</ele>
<speed>4.8</speed>
<course>334.8</course>
<desc>Speed 4.8 km/h Distance 2.07 km</desc>
<time>2010-02-21T10:30:45.70</time>
<name>1531</name>
</trkpt>
<trkpt lat="48.940955" lon="8.650967">
<ele>337.5</ele>
<speed>4.2</speed>
<course>334.8</course>
<desc>Speed 4.2 km/h Distance 2.08 km</desc>
<time>2010-02-21T10:30:46.70</time>
<name>1532</name>
</trkpt>
<trkpt lat="48.940967" lon="8.650958">
<ele>336.5</ele>
<speed>4.4</speed>
<course>334.8</course>
<desc>Speed 4.4 km/h Distance 2.08 km</desc>
<time>2010-02-21T10:30:47.70</time>
<name>1533</name>
</trkpt>
<trkpt lat="48.940978" lon="8.650950">
<ele>336.5</ele>
<speed>4.7</speed>
<course>348.8</course>
<desc>Speed 4.7 km/h Distance 2.08 km</desc>
<time>2010-02-21T10:30:48.70</time>
<name>1534</name>
</trkpt>
<trkpt lat="48.940990" lon="8.650947">
<ele>336.5</ele>
<speed>4.2</speed>
<course>341.8</course>
<desc>Speed 4.2 km/h Distance 2.08 km</desc>
<time>2010-02-21T10:30:49.71</time>
<name>1535</name>
</trkpt>
<trkpt lat="48.941000" lon="8.650942">
<ele>335.5</ele>
<speed>4.2</speed>
<course>341.9</course>
<desc>Speed 4.2 km/h Distance 2.08 km</desc>
<time>2010-02-21T10:30:50.69</time>
<name>1536</name>
</trkpt>
<trkpt lat="48.941013" lon="8.650935">
<ele>334.5</ele>
<speed>5.0</speed>
<course>344.0</course>
<desc>Speed 5.0 km/h Distance 2.08 km</desc>
<time>2010-02-21T10:30:51.70</time>
<name>1537</name>
</trkpt>
<trkpt lat="48.941025" lon="8.650930">
<ele>333.5</ele>
<speed>4.6</speed>
<course>336.2</course>
<desc>Speed 4.6 km/h Distance 2.08 km</desc>
<time>2010-02-21T10:30:52.69</time>
<name>1538</name>
</trkpt>
<trkpt lat="48.941035" lon="8.650923">
<ele>333.0</ele>
<speed>4.3</speed>
<course>344.5</course>
<desc>Speed 4.3 km/h Distance 2.09 km</desc>
<time>2010-02-21T10:30:53.70</time>
<name>1539</name>
</trkpt>
<trkpt lat="48.941047" lon="8.650918">
<ele>332.5</ele>
<speed>4.5</speed>
<course>348.8</course>
<desc>Speed 4.5 km/h Distance 2.09 km</desc>
<time>2010-02-21T10:30:54.69</time>
<name>1540</name>
</trkpt>
<trkpt lat="48.941058" lon="8.650915">
<ele>332.5</ele>
<speed>4.3</speed>
<course>344.5</course>
<desc>Speed 4.3 km/h Distance 2.09 km</desc>
<time>2010-02-21T10:30:55.70</time>
<name>1541</name>
</trkpt>
<trkpt lat="48.941070" lon="8.650910">
<ele>332.0</ele>
<speed>4.4</speed>
<course>355.3</course>
<desc>Speed 4.4 km/h Distance 2.09 km</desc>
<time>2010-02-21T10:30:56.69</time>
<name>1542</name>
</trkpt>
<trkpt lat="48.941082" lon="8.650908">
<ele>333.0</ele>
<speed>4.8</speed>
<course>355.3</course>
<desc>Speed 4.8 km/h Distance 2.09 km</desc>
<time>2010-02-21T10:30:57.70</time>
<name>1543</name>
</trkpt>
<trkpt lat="48.941093" lon="8.650907">
<ele>333.5</ele>
<speed>4.3</speed>
<course>344.0</course>
<desc>Speed 4.3 km/h Distance 2.09 km</desc>
<time>2010-02-21T10:30:58.69</time>
<name>1544</name>
</trkpt>
<trkpt lat="48.941105" lon="8.650902">
<ele>333.5</ele>
<speed>4.0</speed>
<course>336.6</course>
<desc>Speed 4.0 km/h Distance 2.09 km</desc>
<time>2010-02-21T10:30:59.69</time>
<name>1545</name>
</trkpt>
<trkpt lat="48.941115" lon="8.650895">
<ele>333.5</ele>
<speed>4.1</speed>
<course>331.4</course>
<desc>Speed 4.1 km/h Distance 2.09 km</desc>
<time>2010-02-21T10:31:00.70</time>
<name>1546</name>
</trkpt>
<trkpt lat="48.941125" lon="8.650887">
<ele>333.5</ele>
<speed>4.1</speed>
<course>330.6</course>
<desc>Speed 4.1 km/h Distance 2.10 km</desc>
<time>2010-02-21T10:31:01.70</time>
<name>1547</name>
</trkpt>
<trkpt lat="48.941137" lon="8.650877">
<ele>333.0</ele>
<speed>4.2</speed>
<course>331.4</course>
<desc>Speed 4.2 km/h Distance 2.10 km</desc>
<time>2010-02-21T10:31:02.70</time>
<name>1548</name>
</trkpt>
<trkpt lat="48.941147" lon="8.650868">
<ele>333.0</ele>
<speed>4.4</speed>
<course>334.8</course>
<desc>Speed 4.4 km/h Distance 2.10 km</desc>
<time>2010-02-21T10:31:03.70</time>
<name>1549</name>
</trkpt>
<trkpt lat="48.941158" lon="8.650860">
<ele>333.0</ele>
<speed>4.6</speed>
<course>337.0</course>
<desc>Speed 4.6 km/h Distance 2.10 km</desc>
<time>2010-02-21T10:31:04.69</time>
<name>1550</name>
</trkpt>
<trkpt lat="48.941168" lon="8.650853">
<ele>332.5</ele>
<speed>4.1</speed>
<course>335.4</course>
<desc>Speed 4.1 km/h Distance 2.10 km</desc>
<time>2010-02-21T10:31:05.69</time>
<name>1551</name>
</trkpt>
<trkpt lat="48.941180" lon="8.650845">
<ele>332.5</ele>
<speed>4.5</speed>
<course>326.8</course>
<desc>Speed 4.5 km/h Distance 2.10 km</desc>
<time>2010-02-21T10:31:06.70</time>
<name>1552</name>
</trkpt>
<trkpt lat="48.941190" lon="8.650835">
<ele>332.5</ele>
<speed>4.4</speed>
<course>331.1</course>
<desc>Speed 4.4 km/h Distance 2.10 km</desc>
<time>2010-02-21T10:31:07.69</time>
<name>1553</name>
</trkpt>
<trkpt lat="48.941200" lon="8.650827">
<ele>332.0</ele>
<speed>4.3</speed>
<course>334.8</course>
<desc>Speed 4.3 km/h Distance 2.11 km</desc>
<time>2010-02-21T10:31:08.69</time>
<name>1554</name>
</trkpt>
<trkpt lat="48.941212" lon="8.650818">
<ele>332.0</ele>
<speed>4.2</speed>
<course>330.6</course>
<desc>Speed 4.2 km/h Distance 2.11 km</desc>
<time>2010-02-21T10:31:09.68</time>
<name>1555</name>
</trkpt>
<trkpt lat="48.941223" lon="8.650808">
<ele>332.0</ele>
<speed>4.5</speed>
<course>334.8</course>
<desc>Speed 4.5 km/h Distance 2.11 km</desc>
<time>2010-02-21T10:31:10.68</time>
<name>1556</name>
</trkpt>
<trkpt lat="48.941235" lon="8.650800">
<ele>332.0</ele>
<speed>4.8</speed>
<course>335.1</course>
<desc>Speed 4.8 km/h Distance 2.11 km</desc>
<time>2010-02-21T10:31:11.69</time>
<name>1557</name>
</trkpt>
<trkpt lat="48.941247" lon="8.650792">
<ele>331.5</ele>
<speed>4.6</speed>
<course>337.9</course>
<desc>Speed 4.6 km/h Distance 2.11 km</desc>
<time>2010-02-21T10:31:12.69</time>
<name>1558</name>
</trkpt>
<trkpt lat="48.941260" lon="8.650783">
<ele>331.5</ele>
<speed>4.7</speed>
<course>339.8</course>
<desc>Speed 4.7 km/h Distance 2.11 km</desc>
<time>2010-02-21T10:31:13.69</time>
<name>1559</name>
</trkpt>
<trkpt lat="48.941272" lon="8.650777">
<ele>331.0</ele>
<speed>4.7</speed>
<course>344.5</course>
<desc>Speed 4.7 km/h Distance 2.11 km</desc>
<time>2010-02-21T10:31:14.69</time>
<name>1560</name>
</trkpt>
<trkpt lat="48.941283" lon="8.650772">
<ele>331.5</ele>
<speed>4.4</speed>
<course>345.1</course>
<desc>Speed 4.4 km/h Distance 2.12 km</desc>
<time>2010-02-21T10:31:15.68</time>
<name>1561</name>
</trkpt>
<trkpt lat="48.941295" lon="8.650767">
<ele>331.5</ele>
<speed>3.9</speed>
<course>343.4</course>
<desc>Speed 3.9 km/h Distance 2.12 km</desc>
<time>2010-02-21T10:31:16.68</time>
<name>1562</name>
</trkpt>
<trkpt lat="48.941310" lon="8.650760">
<ele>332.0</ele>
<speed>4.5</speed>
<course>355.3</course>
<desc>Speed 4.5 km/h Distance 2.12 km</desc>
<time>2010-02-21T10:31:17.68</time>
<name>1563</name>
</trkpt>
<trkpt lat="48.941322" lon="8.650758">
<ele>332.0</ele>
<speed>4.0</speed>
<course>356.1</course>
<desc>Speed 4.0 km/h Distance 2.12 km</desc>
<time>2010-02-21T10:31:18.69</time>
<name>1564</name>
</trkpt>
<trkpt lat="48.941335" lon="8.650757">
<ele>332.0</ele>
<speed>4.6</speed>
<course>7.7</course>
<desc>Speed 4.6 km/h Distance 2.12 km</desc>
<time>2010-02-21T10:31:19.68</time>
<name>1565</name>
</trkpt>
<trkpt lat="48.941343" lon="8.650758">
<ele>333.0</ele>
<speed>3.4</speed>
<course>12.6</course>
<desc>Speed 3.4 km/h Distance 2.12 km</desc>
<time>2010-02-21T10:31:20.69</time>
<name>1566</name>
</trkpt>
<trkpt lat="48.941353" lon="8.650762">
<ele>333.0</ele>
<speed>3.8</speed>
<course>6.6</course>
<desc>Speed 3.8 km/h Distance 2.12 km</desc>
<time>2010-02-21T10:31:21.68</time>
<name>1567</name>
</trkpt>
<trkpt lat="48.941363" lon="8.650763">
<ele>332.5</ele>
<speed>3.2</speed>
<course>17.6</course>
<desc>Speed 3.2 km/h Distance 2.12 km</desc>
<time>2010-02-21T10:31:22.69</time>
<name>1568</name>
</trkpt>
<trkpt lat="48.941373" lon="8.650768">
<ele>332.0</ele>
<speed>3.9</speed>
<course>27.9</course>
<desc>Speed 3.9 km/h Distance 2.13 km</desc>
<time>2010-02-21T10:31:23.69</time>
<name>1569</name>
</trkpt>
<trkpt lat="48.941382" lon="8.650775">
<ele>332.0</ele>
<speed>3.4</speed>
<course>33.7</course>
<desc>Speed 3.4 km/h Distance 2.13 km</desc>
<time>2010-02-21T10:31:24.68</time>
<name>1570</name>
</trkpt>
<trkpt lat="48.941388" lon="8.650782">
<ele>333.5</ele>
<speed>3.5</speed>
<course>21.5</course>
<desc>Speed 3.5 km/h Distance 2.13 km</desc>
<time>2010-02-21T10:31:25.69</time>
<name>1571</name>
</trkpt>
<trkpt lat="48.941397" lon="8.650787">
<ele>332.5</ele>
<speed>4.0</speed>
<course>5.3</course>
<desc>Speed 4.0 km/h Distance 2.13 km</desc>
<time>2010-02-21T10:31:26.68</time>
<name>1572</name>
</trkpt>
<trkpt lat="48.941410" lon="8.650788">
<ele>332.0</ele>
<speed>4.9</speed>
<course>59.2</course>
<desc>Speed 4.9 km/h Distance 2.13 km</desc>
<time>2010-02-21T10:31:27.68</time>
<name>1573</name>
</trkpt>
<trkpt lat="48.941413" lon="8.650797">
<ele>332.0</ele>
<speed>2.8</speed>
<course>39.7</course>
<desc>Speed 2.8 km/h Distance 2.13 km</desc>
<time>2010-02-21T10:31:28.67</time>
<name>1574</name>
</trkpt>
<trkpt lat="48.941420" lon="8.650805">
<ele>332.0</ele>
<speed>3.4</speed>
<course>27.9</course>
<desc>Speed 3.4 km/h Distance 2.13 km</desc>
<time>2010-02-21T10:31:29.68</time>
<name>1575</name>
</trkpt>
<trkpt lat="48.941428" lon="8.650812">
<ele>331.5</ele>
<speed>3.4</speed>
<course>32.3</course>
<desc>Speed 3.4 km/h Distance 2.13 km</desc>
<time>2010-02-21T10:31:30.68</time>
<name>1576</name>
</trkpt>
<trkpt lat="48.941433" lon="8.650817">
<ele>330.5</ele>
<speed>2.6</speed>
<course>43.5</course>
<desc>Speed 2.6 km/h Distance 2.13 km</desc>
<time>2010-02-21T10:31:31.67</time>
<name>1577</name>
</trkpt>
<trkpt lat="48.941437" lon="8.650822">
<ele>330.0</ele>
<speed>2.1</speed>
<course>18.8</course>
<desc>Speed 2.1 km/h Distance 2.13 km</desc>
<time>2010-02-21T10:31:32.68</time>
<name>1578</name>
</trkpt>
<trkpt lat="48.941443" lon="8.650825">
<ele>329.5</ele>
<speed>2.4</speed>
<course>15.5</course>
<desc>Speed 2.4 km/h Distance 2.13 km</desc>
<time>2010-02-21T10:31:33.67</time>
<name>1579</name>
</trkpt>
<trkpt lat="48.941455" lon="8.650830">
<ele>330.0</ele>
<speed>4.0</speed>
<course>0.0</course>
<desc>Speed 4.0 km/h Distance 2.14 km</desc>
<time>2010-02-21T10:31:34.67</time>
<name>1580</name>
</trkpt>
<trkpt lat="48.941467" lon="8.650830">
<ele>331.0</ele>
<speed>4.9</speed>
<course>356.2</course>
<desc>Speed 4.9 km/h Distance 2.14 km</desc>
<time>2010-02-21T10:31:35.68</time>
<name>1581</name>
</trkpt>
<trkpt lat="48.941482" lon="8.650828">
<ele>331.0</ele>
<speed>5.1</speed>
<course>3.8</course>
<desc>Speed 5.1 km/h Distance 2.14 km</desc>
<time>2010-02-21T10:31:36.68</time>
<name>1582</name>
</trkpt>
<trkpt lat="48.941497" lon="8.650828">
<ele>331.0</ele>
<speed>4.1</speed>
<course>5.0</course>
<desc>Speed 4.1 km/h Distance 2.14 km</desc>
<time>2010-02-21T10:31:37.68</time>
<name>1583</name>
</trkpt>
<trkpt lat="48.941505" lon="8.650828">
<ele>331.5</ele>
<speed>3.1</speed>
<course>1.2</course>
<desc>Speed 3.1 km/h Distance 2.14 km</desc>
<time>2010-02-21T10:31:38.68</time>
<name>1584</name>
</trkpt>
<trkpt lat="48.941518" lon="8.650828">
<ele>331.0</ele>
<speed>3.0</speed>
<course>355.0</course>
<desc>Speed 3.0 km/h Distance 2.14 km</desc>
<time>2010-02-21T10:31:39.67</time>
<name>1585</name>
</trkpt>
<trkpt lat="48.941527" lon="8.650827">
<ele>330.0</ele>
<speed>2.8</speed>
<course>326.8</course>
<desc>Speed 2.8 km/h Distance 2.14 km</desc>
<time>2010-02-21T10:31:40.68</time>
<name>1586</name>
</trkpt>
<trkpt lat="48.941535" lon="8.650818">
<ele>328.0</ele>
<speed>2.0</speed>
<course>326.8</course>
<desc>Speed 2.0 km/h Distance 2.15 km</desc>
<time>2010-02-21T10:31:41.68</time>
<name>1587</name>
</trkpt>
<trkpt lat="48.941543" lon="8.650810">
<ele>328.0</ele>
<speed>3.0</speed>
<course>334.8</course>
<desc>Speed 3.0 km/h Distance 2.15 km</desc>
<time>2010-02-21T10:31:42.67</time>
<name>1588</name>
</trkpt>
<trkpt lat="48.941555" lon="8.650802">
<ele>328.5</ele>
<speed>3.0</speed>
<course>330.2</course>
<desc>Speed 3.0 km/h Distance 2.15 km</desc>
<time>2010-02-21T10:31:43.68</time>
<name>1589</name>
</trkpt>
<trkpt lat="48.941568" lon="8.650790">
<ele>328.0</ele>
<speed>3.0</speed>
<course>328.7</course>
<desc>Speed 3.0 km/h Distance 2.15 km</desc>
<time>2010-02-21T10:31:44.67</time>
<name>1590</name>
</trkpt>
<trkpt lat="48.941590" lon="8.650770">
<ele>323.0</ele>
<speed>2.8</speed>
<course>326.8</course>
<desc>Speed 2.8 km/h Distance 2.15 km</desc>
<time>2010-02-21T10:31:45.68</time>
<name>1591</name>
</trkpt>
<trkpt lat="48.941600" lon="8.650760">
<ele>318.5</ele>
<speed>2.3</speed>
<course>316.5</course>
<desc>Speed 2.3 km/h Distance 2.15 km</desc>
<time>2010-02-21T10:31:46.67</time>
<name>1592</name>
</trkpt>
<trkpt lat="48.941615" lon="8.650738">
<ele>316.5</ele>
<speed>5.1</speed>
<course>351.0</course>
<desc>Speed 5.1 km/h Distance 2.16 km</desc>
<time>2010-02-21T10:31:47.67</time>
<name>1593</name>
</trkpt>
<trkpt lat="48.941628" lon="8.650735">
<ele>317.5</ele>
<speed>3.7</speed>
<course>346.5</course>
<desc>Speed 3.7 km/h Distance 2.16 km</desc>
<time>2010-02-21T10:31:48.67</time>
<name>1594</name>
</trkpt>
<trkpt lat="48.941642" lon="8.650730">
<ele>317.5</ele>
<speed>4.5</speed>
<course>344.0</course>
<desc>Speed 4.5 km/h Distance 2.16 km</desc>
<time>2010-02-21T10:31:49.67</time>
<name>1595</name>
</trkpt>
<trkpt lat="48.941657" lon="8.650723">
<ele>317.0</ele>
<speed>3.5</speed>
<course>0.0</course>
<desc>Speed 3.5 km/h Distance 2.16 km</desc>
<time>2010-02-21T10:31:50.68</time>
<name>1596</name>
</trkpt>
<trkpt lat="48.941660" lon="8.650723">
<ele>316.0</ele>
<speed>1.2</speed>
<course>352.6</course>
<desc>Speed 1.2 km/h Distance 2.16 km</desc>
<time>2010-02-21T10:31:51.67</time>
<name>1597</name>
</trkpt>
<trkpt lat="48.941667" lon="8.650722">
<ele>316.0</ele>
<speed>2.2</speed>
<course>7.7</course>
<desc>Speed 2.2 km/h Distance 2.16 km</desc>
<time>2010-02-21T10:31:52.67</time>
<name>1598</name>
</trkpt>
<trkpt lat="48.941675" lon="8.650723">
<ele>316.5</ele>
<speed>2.8</speed>
<course>12.6</course>
<desc>Speed 2.8 km/h Distance 2.16 km</desc>
<time>2010-02-21T10:31:53.67</time>
<name>1599</name>
</trkpt>
<trkpt lat="48.941677" lon="8.650723">
<ele>316.5</ele>
<speed>0.6</speed>
<course>0.0</course>
<desc>Speed 0.6 km/h Distance 2.16 km</desc>
<time>2010-02-21T10:31:54.67</time>
<name>1600</name>
</trkpt>
<trkpt lat="48.941682" lon="8.650723">
<ele>315.0</ele>
<speed>1.5</speed>
<course>13.8</course>
<desc>Speed 1.5 km/h Distance 2.16 km</desc>
<time>2010-02-21T10:31:55.67</time>
<name>1601</name>
</trkpt>
<trkpt lat="48.941690" lon="8.650727">
<ele>314.5</ele>
<speed>2.7</speed>
<course>37.2</course>
<desc>Speed 2.7 km/h Distance 2.16 km</desc>
<time>2010-02-21T10:31:56.67</time>
<name>1602</name>
</trkpt>
<trkpt lat="48.941692" lon="8.650728">
<ele>313.0</ele>
<speed>0.9</speed>
<course>33.7</course>
<desc>Speed 0.9 km/h Distance 2.16 km</desc>
<time>2010-02-21T10:31:57.67</time>
<name>1603</name>
</trkpt>
<trkpt lat="48.941695" lon="8.650732">
<ele>311.5</ele>
<speed>1.2</speed>
<course>12.6</course>
<desc>Speed 1.2 km/h Distance 2.17 km</desc>
<time>2010-02-21T10:31:58.67</time>
<name>1604</name>
</trkpt>
<trkpt lat="48.941700" lon="8.650733">
<ele>311.0</ele>
<speed>1.6</speed>
<course>4.7</course>
<desc>Speed 1.6 km/h Distance 2.17 km</desc>
<time>2010-02-21T10:31:59.69</time>
<name>1605</name>
</trkpt>
<trkpt lat="48.941712" lon="8.650735">
<ele>312.5</ele>
<speed>4.1</speed>
<course>8.1</course>
<desc>Speed 4.1 km/h Distance 2.17 km</desc>
<time>2010-02-21T10:32:00.66</time>
<name>1606</name>
</trkpt>
<trkpt lat="48.941727" lon="8.650738">
<ele>313.0</ele>
<speed>5.5</speed>
<course>347.4</course>
<desc>Speed 5.5 km/h Distance 2.17 km</desc>
<time>2010-02-21T10:32:01.66</time>
<name>1607</name>
</trkpt>
<trkpt lat="48.941732" lon="8.650737">
<ele>310.5</ele>
<speed>1.3</speed>
<course>69.1</course>
<desc>Speed 1.3 km/h Distance 2.17 km</desc>
<time>2010-02-21T10:32:02.67</time>
<name>1608</name>
</trkpt>
<trkpt lat="48.941733" lon="8.650743">
<ele>310.0</ele>
<speed>1.8</speed>
<course>12.6</course>
<desc>Speed 1.8 km/h Distance 2.17 km</desc>
<time>2010-02-21T10:32:03.69</time>
<name>1609</name>
</trkpt>
<trkpt lat="48.941737" lon="8.650743">
<ele>308.5</ele>
<speed>1.2</speed>
<course>10.3</course>
<desc>Speed 1.2 km/h Distance 2.17 km</desc>
<time>2010-02-21T10:32:04.66</time>
<name>1610</name>
</trkpt>
<trkpt lat="48.941750" lon="8.650747">
<ele>308.5</ele>
<speed>4.5</speed>
<course>90.0</course>
<desc>Speed 4.5 km/h Distance 2.17 km</desc>
<time>2010-02-21T10:32:05.66</time>
<name>1611</name>
</trkpt>
<trkpt lat="48.941750" lon="8.650752">
<ele>308.0</ele>
<speed>1.8</speed>
<course>90.0</course>
<desc>Speed 1.8 km/h Distance 2.17 km</desc>
<time>2010-02-21T10:32:06.67</time>
<name>1612</name>
</trkpt>
<trkpt lat="48.941750" lon="8.650757">
<ele>306.5</ele>
<speed>2.3</speed>
<course>347.4</course>
<desc>Speed 2.3 km/h Distance 2.17 km</desc>
<time>2010-02-21T10:32:07.66</time>
<name>1613</name>
</trkpt>
<trkpt lat="48.941755" lon="8.650755">
<ele>306.0</ele>
<speed>1.5</speed>
<course>5.8</course>
<desc>Speed 1.5 km/h Distance 2.17 km</desc>
<time>2010-02-21T10:32:08.67</time>
<name>1614</name>
</trkpt>
<trkpt lat="48.941787" lon="8.650760">
<ele>307.0</ele>
<speed>4.0</speed>
<course>12.6</course>
<desc>Speed 4.0 km/h Distance 2.18 km</desc>
<time>2010-02-21T10:32:10.66</time>
<name>1615</name>
</trkpt>
<trkpt lat="48.941790" lon="8.650762">
<ele>303.5</ele>
<speed>1.2</speed>
<course>90.0</course>
<desc>Speed 1.2 km/h Distance 2.18 km</desc>
<time>2010-02-21T10:32:11.66</time>
<name>1616</name>
</trkpt>
<trkpt lat="48.941790" lon="8.650765">
<ele>302.0</ele>
<speed>1.2</speed>
<course>12.6</course>
<desc>Speed 1.2 km/h Distance 2.18 km</desc>
<time>2010-02-21T10:32:12.66</time>
<name>1617</name>
</trkpt>
<trkpt lat="48.941793" lon="8.650767">
<ele>301.0</ele>
<speed>1.3</speed>
<course>16.0</course>
<desc>Speed 1.3 km/h Distance 2.18 km</desc>
<time>2010-02-21T10:32:13.66</time>
<name>1618</name>
</trkpt>
<trkpt lat="48.941805" lon="8.650772">
<ele>301.5</ele>
<speed>1.9</speed>
<course>7.7</course>
<desc>Speed 1.9 km/h Distance 2.18 km</desc>
<time>2010-02-21T10:32:14.66</time>
<name>1619</name>
</trkpt>
<trkpt lat="48.941822" lon="8.650775">
<ele>303.5</ele>
<speed>1.8</speed>
<course>5.3</course>
<desc>Speed 1.8 km/h Distance 2.18 km</desc>
<time>2010-02-21T10:32:15.70</time>
<name>1620</name>
</trkpt>
<trkpt lat="48.941835" lon="8.650777">
<ele>303.5</ele>
<speed>5.0</speed>
<course>12.6</course>
<desc>Speed 5.0 km/h Distance 2.18 km</desc>
<time>2010-02-21T10:32:16.66</time>
<name>1621</name>
</trkpt>
<trkpt lat="48.941840" lon="8.650778">
<ele>304.0</ele>
<speed>1.2</speed>
<course>347.4</course>
<desc>Speed 1.2 km/h Distance 2.18 km</desc>
<time>2010-02-21T10:32:17.66</time>
<name>1622</name>
</trkpt>
<trkpt lat="48.941845" lon="8.650777">
<ele>302.0</ele>
<speed>0.9</speed>
<course>16.0</course>
<desc>Speed 0.9 km/h Distance 2.18 km</desc>
<time>2010-02-21T10:32:18.66</time>
<name>1623</name>
</trkpt>
<trkpt lat="48.941860" lon="8.650783">
<ele>303.5</ele>
<speed>5.7</speed>
<course>9.0</course>
<desc>Speed 5.7 km/h Distance 2.19 km</desc>
<time>2010-02-21T10:32:19.67</time>
<name>1624</name>
</trkpt>
<trkpt lat="48.941873" lon="8.650787">
<ele>303.0</ele>
<speed>4.9</speed>
<course>15.5</course>
<desc>Speed 4.9 km/h Distance 2.19 km</desc>
<time>2010-02-21T10:32:20.65</time>
<name>1625</name>
</trkpt>
<trkpt lat="48.941885" lon="8.650792">
<ele>303.5</ele>
<speed>3.7</speed>
<course>14.9</course>
<desc>Speed 3.7 km/h Distance 2.19 km</desc>
<time>2010-02-21T10:32:21.65</time>
<name>1626</name>
</trkpt>
<trkpt lat="48.941893" lon="8.650795">
<ele>304.5</ele>
<speed>3.4</speed>
<course>20.1</course>
<desc>Speed 3.4 km/h Distance 2.19 km</desc>
<time>2010-02-21T10:32:22.65</time>
<name>1627</name>
</trkpt>
<trkpt lat="48.941908" lon="8.650803">
<ele>305.0</ele>
<speed>4.7</speed>
<course>349.2</course>
<desc>Speed 4.7 km/h Distance 2.19 km</desc>
<time>2010-02-21T10:32:23.66</time>
<name>1628</name>
</trkpt>
<trkpt lat="48.941932" lon="8.650797">
<ele>308.5</ele>
<speed>4.7</speed>
<course>31.4</course>
<desc>Speed 4.7 km/h Distance 2.19 km</desc>
<time>2010-02-21T10:32:24.66</time>
<name>1629</name>
</trkpt>
<trkpt lat="48.941955" lon="8.650818">
<ele>310.5</ele>
<speed>8.3</speed>
<course>1.5</course>
<desc>Speed 8.3 km/h Distance 2.20 km</desc>
<time>2010-02-21T10:32:25.65</time>
<name>1630</name>
</trkpt>
<trkpt lat="48.941980" lon="8.650820">
<ele>313.0</ele>
<speed>5.2</speed>
<course>1.4</course>
<desc>Speed 5.2 km/h Distance 2.20 km</desc>
<time>2010-02-21T10:32:26.68</time>
<name>1631</name>
</trkpt>
<trkpt lat="48.942008" lon="8.650822">
<ele>315.5</ele>
<speed>4.3</speed>
<course>13.7</course>
<desc>Speed 4.3 km/h Distance 2.20 km</desc>
<time>2010-02-21T10:32:27.65</time>
<name>1632</name>
</trkpt>
<trkpt lat="48.942053" lon="8.650838">
<ele>318.5</ele>
<speed>3.5</speed>
<course>288.7</course>
<desc>Speed 3.5 km/h Distance 2.21 km</desc>
<time>2010-02-21T10:32:29.67</time>
<name>1633</name>
</trkpt>
<trkpt lat="48.942057" lon="8.650823">
<ele>317.5</ele>
<speed>3.7</speed>
<course>90.0</course>
<desc>Speed 3.7 km/h Distance 2.21 km</desc>
<time>2010-02-21T10:32:30.65</time>
<name>1634</name>
</trkpt>
<trkpt lat="48.942057" lon="8.650825">
<ele>317.0</ele>
<speed>0.6</speed>
<course>24.0</course>
<desc>Speed 0.6 km/h Distance 2.21 km</desc>
<time>2010-02-21T10:32:31.65</time>
<name>1635</name>
</trkpt>
<trkpt lat="48.942108" lon="8.650860">
<ele>318.5</ele>
<speed>4.3</speed>
<course>336.2</course>
<desc>Speed 4.3 km/h Distance 2.22 km</desc>
<time>2010-02-21T10:32:33.65</time>
<name>1636</name>
</trkpt>
<trkpt lat="48.942118" lon="8.650853">
<ele>317.5</ele>
<speed>2.8</speed>
<course>345.1</course>
<desc>Speed 2.8 km/h Distance 2.22 km</desc>
<time>2010-02-21T10:32:34.65</time>
<name>1637</name>
</trkpt>
<trkpt lat="48.942135" lon="8.650847">
<ele>318.5</ele>
<speed>1.8</speed>
<course>345.1</course>
<desc>Speed 1.8 km/h Distance 2.22 km</desc>
<time>2010-02-21T10:32:35.65</time>
<name>1638</name>
</trkpt>
<trkpt lat="48.942147" lon="8.650842">
<ele>319.0</ele>
<speed>2.9</speed>
<course>329.8</course>
<desc>Speed 2.9 km/h Distance 2.22 km</desc>
<time>2010-02-21T10:32:36.65</time>
<name>1639</name>
</trkpt>
<trkpt lat="48.942162" lon="8.650828">
<ele>318.0</ele>
<speed>3.0</speed>
<course>357.8</course>
<desc>Speed 3.0 km/h Distance 2.22 km</desc>
<time>2010-02-21T10:32:37.65</time>
<name>1640</name>
</trkpt>
<trkpt lat="48.942185" lon="8.650827">
<ele>318.0</ele>
<speed>5.4</speed>
<course>359.1</course>
<desc>Speed 5.4 km/h Distance 2.22 km</desc>
<time>2010-02-21T10:32:38.65</time>
<name>1641</name>
</trkpt>
<trkpt lat="48.942240" lon="8.650825">
<ele>317.5</ele>
<speed>6.2</speed>
<course>343.4</course>
<desc>Speed 6.2 km/h Distance 2.23 km</desc>
<time>2010-02-21T10:32:40.64</time>
<name>1642</name>
</trkpt>
<trkpt lat="48.942258" lon="8.650817">
<ele>316.0</ele>
<speed>3.7</speed>
<course>337.9</course>
<desc>Speed 3.7 km/h Distance 2.23 km</desc>
<time>2010-02-21T10:32:41.64</time>
<name>1643</name>
</trkpt>
<trkpt lat="48.942272" lon="8.650808">
<ele>315.0</ele>
<speed>4.0</speed>
<course>317.7</course>
<desc>Speed 4.0 km/h Distance 2.23 km</desc>
<time>2010-02-21T10:32:42.64</time>
<name>1644</name>
</trkpt>
<trkpt lat="48.942280" lon="8.650797">
<ele>314.5</ele>
<speed>4.0</speed>
<course>330.6</course>
<desc>Speed 4.0 km/h Distance 2.24 km</desc>
<time>2010-02-21T10:32:43.64</time>
<name>1645</name>
</trkpt>
<trkpt lat="48.942292" lon="8.650787">
<ele>314.5</ele>
<speed>4.0</speed>
<course>336.6</course>
<desc>Speed 4.0 km/h Distance 2.24 km</desc>
<time>2010-02-21T10:32:44.63</time>
<name>1646</name>
</trkpt>
<trkpt lat="48.942302" lon="8.650780">
<ele>315.0</ele>
<speed>4.1</speed>
<course>343.4</course>
<desc>Speed 4.1 km/h Distance 2.24 km</desc>
<time>2010-02-21T10:32:45.64</time>
<name>1647</name>
</trkpt>
<trkpt lat="48.942320" lon="8.650772">
<ele>316.0</ele>
<speed>3.7</speed>
<course>339.2</course>
<desc>Speed 3.7 km/h Distance 2.24 km</desc>
<time>2010-02-21T10:32:46.64</time>
<name>1648</name>
</trkpt>
<trkpt lat="48.942340" lon="8.650760">
<ele>318.5</ele>
<speed>3.4</speed>
<course>335.3</course>
<desc>Speed 3.4 km/h Distance 2.24 km</desc>
<time>2010-02-21T10:32:47.64</time>
<name>1649</name>
</trkpt>
<trkpt lat="48.942373" lon="8.650737">
<ele>319.5</ele>
<speed>2.7</speed>
<course>326.8</course>
<desc>Speed 2.7 km/h Distance 2.25 km</desc>
<time>2010-02-21T10:32:49.64</time>
<name>1650</name>
</trkpt>
<trkpt lat="48.942382" lon="8.650728">
<ele>319.0</ele>
<speed>2.6</speed>
<course>326.6</course>
<desc>Speed 2.6 km/h Distance 2.25 km</desc>
<time>2010-02-21T10:32:50.64</time>
<name>1651</name>
</trkpt>
<trkpt lat="48.942393" lon="8.650717">
<ele>319.5</ele>
<speed>2.6</speed>
<course>340.4</course>
<desc>Speed 2.6 km/h Distance 2.25 km</desc>
<time>2010-02-21T10:32:51.64</time>
<name>1652</name>
</trkpt>
<trkpt lat="48.942415" lon="8.650705">
<ele>321.5</ele>
<speed>3.0</speed>
<course>317.2</course>
<desc>Speed 3.0 km/h Distance 2.25 km</desc>
<time>2010-02-21T10:32:52.64</time>
<name>1653</name>
</trkpt>
<trkpt lat="48.942443" lon="8.650665">
<ele>325.5</ele>
<speed>5.5</speed>
<course>317.4</course>
<desc>Speed 5.5 km/h Distance 2.26 km</desc>
<time>2010-02-21T10:32:54.64</time>
<name>1654</name>
</trkpt>
<trkpt lat="48.942460" lon="8.650642">
<ele>326.5</ele>
<speed>3.8</speed>
<course>322.8</course>
<desc>Speed 3.8 km/h Distance 2.26 km</desc>
<time>2010-02-21T10:32:55.64</time>
<name>1655</name>
</trkpt>
<trkpt lat="48.942482" lon="8.650617">
<ele>327.5</ele>
<speed>3.9</speed>
<course>322.2</course>
<desc>Speed 3.9 km/h Distance 2.26 km</desc>
<time>2010-02-21T10:32:56.64</time>
<name>1656</name>
</trkpt>
<trkpt lat="48.942500" lon="8.650595">
<ele>329.0</ele>
<speed>4.4</speed>
<course>324.0</course>
<desc>Speed 4.4 km/h Distance 2.26 km</desc>
<time>2010-02-21T10:32:57.64</time>
<name>1657</name>
</trkpt>
<trkpt lat="48.942515" lon="8.650578">
<ele>329.0</ele>
<speed>4.5</speed>
<course>320.6</course>
<desc>Speed 4.5 km/h Distance 2.27 km</desc>
<time>2010-02-21T10:32:58.64</time>
<name>1658</name>
</trkpt>
<trkpt lat="48.942522" lon="8.650570">
<ele>328.5</ele>
<speed>3.0</speed>
<course>277.2</course>
<desc>Speed 3.0 km/h Distance 2.27 km</desc>
<time>2010-02-21T10:32:59.64</time>
<name>1659</name>
</trkpt>
<trkpt lat="48.942523" lon="8.650550">
<ele>328.0</ele>
<speed>4.0</speed>
<course>280.8</course>
<desc>Speed 4.0 km/h Distance 2.27 km</desc>
<time>2010-02-21T10:33:00.63</time>
<name>1660</name>
</trkpt>
<trkpt lat="48.942527" lon="8.650523">
<ele>329.5</ele>
<speed>6.9</speed>
<course>288.7</course>
<desc>Speed 6.9 km/h Distance 2.27 km</desc>
<time>2010-02-21T10:33:01.63</time>
<name>1661</name>
</trkpt>
<trkpt lat="48.942530" lon="8.650508">
<ele>330.0</ele>
<speed>3.9</speed>
<course>310.9</course>
<desc>Speed 3.9 km/h Distance 2.27 km</desc>
<time>2010-02-21T10:33:02.63</time>
<name>1662</name>
</trkpt>
<trkpt lat="48.942537" lon="8.650497">
<ele>329.0</ele>
<speed>2.8</speed>
<course>312.6</course>
<desc>Speed 2.8 km/h Distance 2.27 km</desc>
<time>2010-02-21T10:33:03.63</time>
<name>1663</name>
</trkpt>
<trkpt lat="48.942542" lon="8.650488">
<ele>328.5</ele>
<speed>2.7</speed>
<course>304.1</course>
<desc>Speed 2.7 km/h Distance 2.27 km</desc>
<time>2010-02-21T10:33:04.63</time>
<name>1664</name>
</trkpt>
<trkpt lat="48.942548" lon="8.650473">
<ele>328.0</ele>
<speed>3.1</speed>
<course>330.8</course>
<desc>Speed 3.1 km/h Distance 2.28 km</desc>
<time>2010-02-21T10:33:05.62</time>
<name>1665</name>
</trkpt>
<trkpt lat="48.942560" lon="8.650463">
<ele>328.5</ele>
<speed>3.1</speed>
<course>334.0</course>
<desc>Speed 3.1 km/h Distance 2.28 km</desc>
<time>2010-02-21T10:33:06.62</time>
<name>1666</name>
</trkpt>
<trkpt lat="48.942573" lon="8.650453">
<ele>330.0</ele>
<speed>2.7</speed>
<course>318.1</course>
<desc>Speed 2.7 km/h Distance 2.28 km</desc>
<time>2010-02-21T10:33:07.63</time>
<name>1667</name>
</trkpt>
<trkpt lat="48.942578" lon="8.650447">
<ele>329.5</ele>
<speed>2.2</speed>
<course>303.1</course>
<desc>Speed 2.2 km/h Distance 2.28 km</desc>
<time>2010-02-21T10:33:08.63</time>
<name>1668</name>
</trkpt>
<trkpt lat="48.942583" lon="8.650435">
<ele>328.5</ele>
<speed>2.6</speed>
<course>287.1</course>
<desc>Speed 2.6 km/h Distance 2.28 km</desc>
<time>2010-02-21T10:33:09.63</time>
<name>1669</name>
</trkpt>
<trkpt lat="48.942585" lon="8.650427">
<ele>326.5</ele>
<speed>2.3</speed>
<course>307.3</course>
<desc>Speed 2.3 km/h Distance 2.28 km</desc>
<time>2010-02-21T10:33:10.63</time>
<name>1670</name>
</trkpt>
<trkpt lat="48.942592" lon="8.650413">
<ele>326.0</ele>
<speed>2.9</speed>
<course>299.7</course>
<desc>Speed 2.9 km/h Distance 2.28 km</desc>
<time>2010-02-21T10:33:11.63</time>
<name>1671</name>
</trkpt>
<trkpt lat="48.942597" lon="8.650400">
<ele>325.5</ele>
<speed>3.3</speed>
<course>333.6</course>
<desc>Speed 3.3 km/h Distance 2.28 km</desc>
<time>2010-02-21T10:33:12.63</time>
<name>1672</name>
</trkpt>
<trkpt lat="48.942603" lon="8.650395">
<ele>324.5</ele>
<speed>2.8</speed>
<course>317.4</course>
<desc>Speed 2.8 km/h Distance 2.28 km</desc>
<time>2010-02-21T10:33:13.63</time>
<name>1673</name>
</trkpt>
<trkpt lat="48.942612" lon="8.650383">
<ele>326.0</ele>
<speed>3.3</speed>
<course>326.3</course>
<desc>Speed 3.3 km/h Distance 2.29 km</desc>
<time>2010-02-21T10:33:14.63</time>
<name>1674</name>
</trkpt>
<trkpt lat="48.942618" lon="8.650377">
<ele>326.5</ele>
<speed>3.4</speed>
<course>347.4</course>
<desc>Speed 3.4 km/h Distance 2.29 km</desc>
<time>2010-02-21T10:33:15.63</time>
<name>1675</name>
</trkpt>
<trkpt lat="48.942633" lon="8.650372">
<ele>327.0</ele>
<speed>3.2</speed>
<course>293.5</course>
<desc>Speed 3.2 km/h Distance 2.29 km</desc>
<time>2010-02-21T10:33:16.63</time>
<name>1676</name>
</trkpt>
<trkpt lat="48.942640" lon="8.650348">
<ele>326.5</ele>
<speed>2.1</speed>
<course>292.5</course>
<desc>Speed 2.1 km/h Distance 2.29 km</desc>
<time>2010-02-21T10:33:17.63</time>
<name>1677</name>
</trkpt>
<trkpt lat="48.942645" lon="8.650330">
<ele>325.0</ele>
<speed>2.4</speed>
<course>301.4</course>
<desc>Speed 2.4 km/h Distance 2.29 km</desc>
<time>2010-02-21T10:33:18.63</time>
<name>1678</name>
</trkpt>
<trkpt lat="48.942648" lon="8.650322">
<ele>323.0</ele>
<speed>1.5</speed>
<course>294.5</course>
<desc>Speed 1.5 km/h Distance 2.29 km</desc>
<time>2010-02-21T10:33:19.63</time>
<name>1679</name>
</trkpt>
<trkpt lat="48.942653" lon="8.650305">
<ele>321.5</ele>
<speed>1.9</speed>
<course>296.9</course>
<desc>Speed 1.9 km/h Distance 2.29 km</desc>
<time>2010-02-21T10:33:20.62</time>
<name>1680</name>
</trkpt>
<trkpt lat="48.942660" lon="8.650285">
<ele>320.5</ele>
<speed>1.7</speed>
<course>302.4</course>
<desc>Speed 1.7 km/h Distance 2.29 km</desc>
<time>2010-02-21T10:33:21.62</time>
<name>1681</name>
</trkpt>
<trkpt lat="48.942668" lon="8.650265">
<ele>320.0</ele>
<speed>2.5</speed>
<course>307.2</course>
<desc>Speed 2.5 km/h Distance 2.30 km</desc>
<time>2010-02-21T10:33:22.63</time>
<name>1682</name>
</trkpt>
<trkpt lat="48.942673" lon="8.650255">
<ele>318.5</ele>
<speed>2.0</speed>
<course>334.0</course>
<desc>Speed 2.0 km/h Distance 2.30 km</desc>
<time>2010-02-21T10:33:23.62</time>
<name>1683</name>
</trkpt>
<trkpt lat="48.942687" lon="8.650245">
<ele>319.0</ele>
<speed>2.9</speed>
<course>280.7</course>
<desc>Speed 2.9 km/h Distance 2.30 km</desc>
<time>2010-02-21T10:33:24.65</time>
<name>1684</name>
</trkpt>
<trkpt lat="48.942688" lon="8.650232">
<ele>318.0</ele>
<speed>1.8</speed>
<course>315.5</course>
<desc>Speed 1.8 km/h Distance 2.30 km</desc>
<time>2010-02-21T10:33:25.62</time>
<name>1685</name>
</trkpt>
<trkpt lat="48.942695" lon="8.650222">
<ele>317.5</ele>
<speed>2.0</speed>
<course>321.9</course>
<desc>Speed 2.0 km/h Distance 2.30 km</desc>
<time>2010-02-21T10:33:26.62</time>
<name>1686</name>
</trkpt>
<trkpt lat="48.942703" lon="8.650212">
<ele>318.0</ele>
<speed>2.8</speed>
<course>331.4</course>
<desc>Speed 2.8 km/h Distance 2.30 km</desc>
<time>2010-02-21T10:33:27.62</time>
<name>1687</name>
</trkpt>
<trkpt lat="48.942713" lon="8.650203">
<ele>317.5</ele>
<speed>2.8</speed>
<course>351.0</course>
<desc>Speed 2.8 km/h Distance 2.30 km</desc>
<time>2010-02-21T10:33:28.62</time>
<name>1688</name>
</trkpt>
<trkpt lat="48.942727" lon="8.650200">
<ele>317.5</ele>
<speed>3.1</speed>
<course>335.3</course>
<desc>Speed 3.1 km/h Distance 2.30 km</desc>
<time>2010-02-21T10:33:29.62</time>
<name>1689</name>
</trkpt>
<trkpt lat="48.942743" lon="8.650188">
<ele>319.0</ele>
<speed>3.3</speed>
<course>3.8</course>
<desc>Speed 3.3 km/h Distance 2.31 km</desc>
<time>2010-02-21T10:33:30.62</time>
<name>1690</name>
</trkpt>
<trkpt lat="48.942758" lon="8.650188">
<ele>320.5</ele>
<speed>3.4</speed>
<course>343.4</course>
<desc>Speed 3.4 km/h Distance 2.31 km</desc>
<time>2010-02-21T10:33:31.62</time>
<name>1691</name>
</trkpt>
<trkpt lat="48.942777" lon="8.650180">
<ele>321.0</ele>
<speed>1.5</speed>
<course>355.6</course>
<desc>Speed 1.5 km/h Distance 2.31 km</desc>
<time>2010-02-21T10:33:32.62</time>
<name>1692</name>
</trkpt>
<trkpt lat="48.942787" lon="8.650178">
<ele>320.5</ele>
<speed>3.1</speed>
<course>356.1</course>
<desc>Speed 3.1 km/h Distance 2.31 km</desc>
<time>2010-02-21T10:33:33.62</time>
<name>1693</name>
</trkpt>
<trkpt lat="48.942800" lon="8.650177">
<ele>321.0</ele>
<speed>3.6</speed>
<course>347.4</course>
<desc>Speed 3.6 km/h Distance 2.31 km</desc>
<time>2010-02-21T10:33:34.62</time>
<name>1694</name>
</trkpt>
<trkpt lat="48.942810" lon="8.650173">
<ele>320.5</ele>
<speed>3.5</speed>
<course>344.0</course>
<desc>Speed 3.5 km/h Distance 2.31 km</desc>
<time>2010-02-21T10:33:35.62</time>
<name>1695</name>
</trkpt>
<trkpt lat="48.942817" lon="8.650170">
<ele>320.0</ele>
<speed>1.8</speed>
<course>355.6</course>
<desc>Speed 1.8 km/h Distance 2.32 km</desc>
<time>2010-02-21T10:33:36.62</time>
<name>1696</name>
</trkpt>
<trkpt lat="48.942827" lon="8.650168">
<ele>320.5</ele>
<speed>2.4</speed>
<course>347.4</course>
<desc>Speed 2.4 km/h Distance 2.32 km</desc>
<time>2010-02-21T10:33:37.62</time>
<name>1697</name>
</trkpt>
<trkpt lat="48.942837" lon="8.650165">
<ele>322.0</ele>
<speed>2.4</speed>
<course>5.0</course>
<desc>Speed 2.4 km/h Distance 2.32 km</desc>
<time>2010-02-21T10:33:38.61</time>
<name>1698</name>
</trkpt>
<trkpt lat="48.942845" lon="8.650165">
<ele>322.0</ele>
<speed>0.9</speed>
<course>12.6</course>
<desc>Speed 0.9 km/h Distance 2.32 km</desc>
<time>2010-02-21T10:33:39.61</time>
<name>1699</name>
</trkpt>
<trkpt lat="48.942855" lon="8.650168">
<ele>322.5</ele>
<speed>1.0</speed>
<course>352.6</course>
<desc>Speed 1.0 km/h Distance 2.32 km</desc>
<time>2010-02-21T10:33:40.61</time>
<name>1700</name>
</trkpt>
<trkpt lat="48.942862" lon="8.650167">
<ele>323.5</ele>
<speed>1.9</speed>
<course>315.5</course>
<desc>Speed 1.9 km/h Distance 2.32 km</desc>
<time>2010-02-21T10:33:41.61</time>
<name>1701</name>
</trkpt>
<trkpt lat="48.942865" lon="8.650162">
<ele>322.5</ele>
<speed>1.3</speed>
<course>312.2</course>
<desc>Speed 1.3 km/h Distance 2.32 km</desc>
<time>2010-02-21T10:33:42.61</time>
<name>1702</name>
</trkpt>
<trkpt lat="48.942870" lon="8.650153">
<ele>321.0</ele>
<speed>1.0</speed>
<course>321.9</course>
<desc>Speed 1.0 km/h Distance 2.32 km</desc>
<time>2010-02-21T10:33:43.61</time>
<name>1703</name>
</trkpt>
<trkpt lat="48.942878" lon="8.650143">
<ele>320.5</ele>
<speed>3.2</speed>
<course>336.7</course>
<desc>Speed 3.2 km/h Distance 2.32 km</desc>
<time>2010-02-21T10:33:44.61</time>
<name>1704</name>
</trkpt>
<trkpt lat="48.942893" lon="8.650133">
<ele>319.5</ele>
<speed>3.6</speed>
<course>347.7</course>
<desc>Speed 3.6 km/h Distance 2.32 km</desc>
<time>2010-02-21T10:33:45.61</time>
<name>1705</name>
</trkpt>
<trkpt lat="48.942913" lon="8.650127">
<ele>321.0</ele>
<speed>4.1</speed>
<course>326.8</course>
<desc>Speed 4.1 km/h Distance 2.33 km</desc>
<time>2010-02-21T10:33:46.61</time>
<name>1706</name>
</trkpt>
<trkpt lat="48.942918" lon="8.650122">
<ele>322.0</ele>
<speed>2.4</speed>
<course>290.8</course>
<desc>Speed 2.4 km/h Distance 2.33 km</desc>
<time>2010-02-21T10:33:47.61</time>
<name>1707</name>
</trkpt>
<trkpt lat="48.942922" lon="8.650108">
<ele>322.5</ele>
<speed>3.5</speed>
<course>310.3</course>
<desc>Speed 3.5 km/h Distance 2.33 km</desc>
<time>2010-02-21T10:33:48.61</time>
<name>1708</name>
</trkpt>
<trkpt lat="48.942930" lon="8.650093">
<ele>324.0</ele>
<speed>3.0</speed>
<course>332.8</course>
<desc>Speed 3.0 km/h Distance 2.33 km</desc>
<time>2010-02-21T10:33:49.61</time>
<name>1709</name>
</trkpt>
<trkpt lat="48.942945" lon="8.650082">
<ele>324.5</ele>
<speed>3.6</speed>
<course>326.7</course>
<desc>Speed 3.6 km/h Distance 2.33 km</desc>
<time>2010-02-21T10:33:50.61</time>
<name>1710</name>
</trkpt>
<trkpt lat="48.942960" lon="8.650067">
<ele>326.0</ele>
<speed>3.2</speed>
<course>328.8</course>
<desc>Speed 3.2 km/h Distance 2.33 km</desc>
<time>2010-02-21T10:33:51.61</time>
<name>1711</name>
</trkpt>
<trkpt lat="48.942982" lon="8.650047">
<ele>328.0</ele>
<speed>2.8</speed>
<course>312.4</course>
<desc>Speed 2.8 km/h Distance 2.34 km</desc>
<time>2010-02-21T10:33:52.61</time>
<name>1712</name>
</trkpt>
<trkpt lat="48.943007" lon="8.650005">
<ele>331.0</ele>
<speed>3.2</speed>
<course>301.4</course>
<desc>Speed 3.2 km/h Distance 2.34 km</desc>
<time>2010-02-21T10:33:54.61</time>
<name>1713</name>
</trkpt>
<trkpt lat="48.943013" lon="8.649988">
<ele>331.0</ele>
<speed>4.0</speed>
<course>310.2</course>
<desc>Speed 4.0 km/h Distance 2.34 km</desc>
<time>2010-02-21T10:33:55.61</time>
<name>1714</name>
</trkpt>
<trkpt lat="48.943022" lon="8.649973">
<ele>332.0</ele>
<speed>3.9</speed>
<course>326.6</course>
<desc>Speed 3.9 km/h Distance 2.34 km</desc>
<time>2010-02-21T10:33:56.61</time>
<name>1715</name>
</trkpt>
<trkpt lat="48.943042" lon="8.649953">
<ele>334.0</ele>
<speed>3.9</speed>
<course>296.8</course>
<desc>Speed 3.9 km/h Distance 2.35 km</desc>
<time>2010-02-21T10:33:57.60</time>
<name>1716</name>
</trkpt>
<trkpt lat="48.943048" lon="8.649933">
<ele>336.0</ele>
<speed>3.9</speed>
<course>299.0</course>
<desc>Speed 3.9 km/h Distance 2.35 km</desc>
<time>2010-02-21T10:33:58.60</time>
<name>1717</name>
</trkpt>
<trkpt lat="48.943055" lon="8.649915">
<ele>336.0</ele>
<speed>3.9</speed>
<course>279.1</course>
<desc>Speed 3.9 km/h Distance 2.35 km</desc>
<time>2010-02-21T10:33:59.60</time>
<name>1718</name>
</trkpt>
<trkpt lat="48.943058" lon="8.649883">
<ele>337.5</ele>
<speed>5.8</speed>
<course>314.1</course>
<desc>Speed 5.8 km/h Distance 2.35 km</desc>
<time>2010-02-21T10:34:00.60</time>
<name>1719</name>
</trkpt>
<trkpt lat="48.943070" lon="8.649865">
<ele>337.5</ele>
<speed>3.0</speed>
<course>299.7</course>
<desc>Speed 3.0 km/h Distance 2.35 km</desc>
<time>2010-02-21T10:34:01.60</time>
<name>1720</name>
</trkpt>
<trkpt lat="48.943075" lon="8.649852">
<ele>336.5</ele>
<speed>3.1</speed>
<course>347.4</course>
<desc>Speed 3.1 km/h Distance 2.35 km</desc>
<time>2010-02-21T10:34:02.60</time>
<name>1721</name>
</trkpt>
<trkpt lat="48.943085" lon="8.649848">
<ele>337.0</ele>
<speed>1.7</speed>
<course>322.5</course>
<desc>Speed 1.7 km/h Distance 2.36 km</desc>
<time>2010-02-21T10:34:03.60</time>
<name>1722</name>
</trkpt>
<trkpt lat="48.943095" lon="8.649837">
<ele>337.5</ele>
<speed>3.1</speed>
<course>304.1</course>
<desc>Speed 3.1 km/h Distance 2.36 km</desc>
<time>2010-02-21T10:34:04.63</time>
<name>1723</name>
</trkpt>
<trkpt lat="48.943102" lon="8.649822">
<ele>337.5</ele>
<speed>4.1</speed>
<course>299.7</course>
<desc>Speed 4.1 km/h Distance 2.36 km</desc>
<time>2010-02-21T10:34:05.60</time>
<name>1724</name>
</trkpt>
<trkpt lat="48.943107" lon="8.649808">
<ele>336.5</ele>
<speed>3.1</speed>
<course>310.1</course>
<desc>Speed 3.1 km/h Distance 2.36 km</desc>
<time>2010-02-21T10:34:06.60</time>
<name>1725</name>
</trkpt>
<trkpt lat="48.943115" lon="8.649793">
<ele>337.5</ele>
<speed>3.0</speed>
<course>299.0</course>
<desc>Speed 3.0 km/h Distance 2.36 km</desc>
<time>2010-02-21T10:34:07.62</time>
<name>1726</name>
</trkpt>
<trkpt lat="48.943122" lon="8.649775">
<ele>338.0</ele>
<speed>3.7</speed>
<course>313.6</course>
<desc>Speed 3.7 km/h Distance 2.36 km</desc>
<time>2010-02-21T10:34:08.63</time>
<name>1727</name>
</trkpt>
<trkpt lat="48.943130" lon="8.649762">
<ele>338.0</ele>
<speed>3.3</speed>
<course>310.3</course>
<desc>Speed 3.3 km/h Distance 2.36 km</desc>
<time>2010-02-21T10:34:09.60</time>
<name>1728</name>
</trkpt>
<trkpt lat="48.943138" lon="8.649747">
<ele>337.0</ele>
<speed>4.3</speed>
<course>303.1</course>
<desc>Speed 4.3 km/h Distance 2.37 km</desc>
<time>2010-02-21T10:34:10.60</time>
<name>1729</name>
</trkpt>
<trkpt lat="48.943143" lon="8.649735">
<ele>338.0</ele>
<speed>3.7</speed>
<course>293.6</course>
<desc>Speed 3.7 km/h Distance 2.37 km</desc>
<time>2010-02-21T10:34:11.64</time>
<name>1730</name>
</trkpt>
<trkpt lat="48.943147" lon="8.649723">
<ele>338.0</ele>
<speed>3.1</speed>
<course>310.9</course>
<desc>Speed 3.1 km/h Distance 2.37 km</desc>
<time>2010-02-21T10:34:12.59</time>
<name>1731</name>
</trkpt>
<trkpt lat="48.943153" lon="8.649712">
<ele>337.5</ele>
<speed>3.2</speed>
<course>314.1</course>
<desc>Speed 3.2 km/h Distance 2.37 km</desc>
<time>2010-02-21T10:34:13.59</time>
<name>1732</name>
</trkpt>
<trkpt lat="48.943165" lon="8.649693">
<ele>338.0</ele>
<speed>3.1</speed>
<course>309.4</course>
<desc>Speed 3.1 km/h Distance 2.37 km</desc>
<time>2010-02-21T10:34:14.64</time>
<name>1733</name>
</trkpt>
<trkpt lat="48.943177" lon="8.649672">
<ele>340.5</ele>
<speed>3.6</speed>
<course>257.7</course>
<desc>Speed 3.6 km/h Distance 2.37 km</desc>
<time>2010-02-21T10:34:15.59</time>
<name>1734</name>
</trkpt>
<trkpt lat="48.943175" lon="8.649660">
<ele>339.5</ele>
<speed>1.5</speed>
<course>293.5</course>
<desc>Speed 1.5 km/h Distance 2.37 km</desc>
<time>2010-02-21T10:34:16.59</time>
<name>1735</name>
</trkpt>
<trkpt lat="48.943178" lon="8.649648">
<ele>339.0</ele>
<speed>3.0</speed>
<course>294.5</course>
<desc>Speed 3.0 km/h Distance 2.37 km</desc>
<time>2010-02-21T10:34:17.62</time>
<name>1736</name>
</trkpt>
<trkpt lat="48.943183" lon="8.649632">
<ele>338.5</ele>
<speed>4.1</speed>
<course>270.0</course>
<desc>Speed 4.1 km/h Distance 2.38 km</desc>
<time>2010-02-21T10:34:18.59</time>
<name>1737</name>
</trkpt>
<trkpt lat="48.943183" lon="8.649627">
<ele>338.0</ele>
<speed>2.2</speed>
<course>290.9</course>
<desc>Speed 2.2 km/h Distance 2.38 km</desc>
<time>2010-02-21T10:34:19.59</time>
<name>1738</name>
</trkpt>
<trkpt lat="48.943185" lon="8.649620">
<ele>338.0</ele>
<speed>1.8</speed>
<course>293.5</course>
<desc>Speed 1.8 km/h Distance 2.38 km</desc>
<time>2010-02-21T10:34:20.62</time>
<name>1739</name>
</trkpt>
<trkpt lat="48.943188" lon="8.649608">
<ele>336.0</ele>
<speed>2.6</speed>
<course>285.5</course>
<desc>Speed 2.6 km/h Distance 2.38 km</desc>
<time>2010-02-21T10:34:21.59</time>
<name>1740</name>
</trkpt>
<trkpt lat="48.943192" lon="8.649590">
<ele>333.5</ele>
<speed>3.2</speed>
<course>284.2</course>
<desc>Speed 3.2 km/h Distance 2.38 km</desc>
<time>2010-02-21T10:34:22.59</time>
<name>1741</name>
</trkpt>
<trkpt lat="48.943195" lon="8.649570">
<ele>331.5</ele>
<speed>3.9</speed>
<course>296.9</course>
<desc>Speed 3.9 km/h Distance 2.38 km</desc>
<time>2010-02-21T10:34:23.61</time>
<name>1742</name>
</trkpt>
<trkpt lat="48.943202" lon="8.649550">
<ele>328.0</ele>
<speed>3.8</speed>
<course>312.2</course>
<desc>Speed 3.8 km/h Distance 2.38 km</desc>
<time>2010-02-21T10:34:24.59</time>
<name>1743</name>
</trkpt>
<trkpt lat="48.943207" lon="8.649542">
<ele>327.5</ele>
<speed>2.6</speed>
<course>305.4</course>
<desc>Speed 2.6 km/h Distance 2.38 km</desc>
<time>2010-02-21T10:34:25.59</time>
<name>1744</name>
</trkpt>
<trkpt lat="48.943218" lon="8.649517">
<ele>326.5</ele>
<speed>4.1</speed>
<course>294.1</course>
<desc>Speed 4.1 km/h Distance 2.39 km</desc>
<time>2010-02-21T10:34:26.61</time>
<name>1745</name>
</trkpt>
<trkpt lat="48.943227" lon="8.649488">
<ele>327.5</ele>
<speed>4.2</speed>
<course>278.7</course>
<desc>Speed 4.2 km/h Distance 2.39 km</desc>
<time>2010-02-21T10:34:27.59</time>
<name>1746</name>
</trkpt>
<trkpt lat="48.943228" lon="8.649472">
<ele>328.0</ele>
<speed>3.9</speed>
<course>289.4</course>
<desc>Speed 3.9 km/h Distance 2.39 km</desc>
<time>2010-02-21T10:34:28.59</time>
<name>1747</name>
</trkpt>
<trkpt lat="48.943233" lon="8.649450">
<ele>327.0</ele>
<speed>3.7</speed>
<course>260.4</course>
<desc>Speed 3.7 km/h Distance 2.39 km</desc>
<time>2010-02-21T10:34:29.61</time>
<name>1748</name>
</trkpt>
<trkpt lat="48.943232" lon="8.649435">
<ele>326.5</ele>
<speed>3.3</speed>
<course>292.5</course>
<desc>Speed 3.3 km/h Distance 2.39 km</desc>
<time>2010-02-21T10:34:30.58</time>
<name>1749</name>
</trkpt>
<trkpt lat="48.943237" lon="8.649417">
<ele>325.0</ele>
<speed>3.4</speed>
<course>307.2</course>
<desc>Speed 3.4 km/h Distance 2.39 km</desc>
<time>2010-02-21T10:34:31.58</time>
<name>1750</name>
</trkpt>
<trkpt lat="48.943243" lon="8.649403">
<ele>325.0</ele>
<speed>3.0</speed>
<course>286.9</course>
<desc>Speed 3.0 km/h Distance 2.39 km</desc>
<time>2010-02-21T10:34:32.59</time>
<name>1751</name>
</trkpt>
<trkpt lat="48.943247" lon="8.649387">
<ele>323.5</ele>
<speed>2.6</speed>
<course>288.7</course>
<desc>Speed 2.6 km/h Distance 2.40 km</desc>
<time>2010-02-21T10:34:33.59</time>
<name>1752</name>
</trkpt>
<trkpt lat="48.943250" lon="8.649372">
<ele>324.0</ele>
<speed>3.6</speed>
<course>287.0</course>
<desc>Speed 3.6 km/h Distance 2.40 km</desc>
<time>2010-02-21T10:34:34.58</time>
<name>1753</name>
</trkpt>
<trkpt lat="48.943253" lon="8.649355">
<ele>325.0</ele>
<speed>3.9</speed>
<course>277.9</course>
<desc>Speed 3.9 km/h Distance 2.40 km</desc>
<time>2010-02-21T10:34:35.58</time>
<name>1754</name>
</trkpt>
<trkpt lat="48.943255" lon="8.649337">
<ele>324.5</ele>
<speed>5.0</speed>
<course>350.3</course>
<desc>Speed 5.0 km/h Distance 2.40 km</desc>
<time>2010-02-21T10:34:36.58</time>
<name>1755</name>
</trkpt>
<trkpt lat="48.943268" lon="8.649333">
<ele>322.5</ele>
<speed>3.7</speed>
<course>307.0</course>
<desc>Speed 3.7 km/h Distance 2.40 km</desc>
<time>2010-02-21T10:34:37.58</time>
<name>1756</name>
</trkpt>
<trkpt lat="48.943272" lon="8.649327">
<ele>321.5</ele>
<speed>2.2</speed>
<course>286.9</course>
<desc>Speed 2.2 km/h Distance 2.40 km</desc>
<time>2010-02-21T10:34:38.58</time>
<name>1757</name>
</trkpt>
<trkpt lat="48.943275" lon="8.649310">
<ele>319.5</ele>
<speed>2.9</speed>
<course>270.0</course>
<desc>Speed 2.9 km/h Distance 2.40 km</desc>
<time>2010-02-21T10:34:39.58</time>
<name>1758</name>
</trkpt>
<trkpt lat="48.943275" lon="8.649285">
<ele>319.0</ele>
<speed>3.3</speed>
<course>299.7</course>
<desc>Speed 3.3 km/h Distance 2.40 km</desc>
<time>2010-02-21T10:34:40.58</time>
<name>1759</name>
</trkpt>
<trkpt lat="48.943280" lon="8.649272">
<ele>319.0</ele>
<speed>3.1</speed>
<course>297.0</course>
<desc>Speed 3.1 km/h Distance 2.41 km</desc>
<time>2010-02-21T10:34:41.58</time>
<name>1760</name>
</trkpt>
<trkpt lat="48.943283" lon="8.649262">
<ele>319.0</ele>
<speed>2.9</speed>
<course>282.3</course>
<desc>Speed 2.9 km/h Distance 2.41 km</desc>
<time>2010-02-21T10:34:42.58</time>
<name>1761</name>
</trkpt>
<trkpt lat="48.943285" lon="8.649250">
<ele>319.0</ele>
<speed>3.2</speed>
<course>279.6</course>
<desc>Speed 3.2 km/h Distance 2.41 km</desc>
<time>2010-02-21T10:34:43.57</time>
<name>1762</name>
</trkpt>
<trkpt lat="48.943287" lon="8.649235">
<ele>319.5</ele>
<speed>3.1</speed>
<course>290.9</course>
<desc>Speed 3.1 km/h Distance 2.41 km</desc>
<time>2010-02-21T10:34:44.58</time>
<name>1763</name>
</trkpt>
<trkpt lat="48.943290" lon="8.649222">
<ele>320.5</ele>
<speed>3.7</speed>
<course>292.6</course>
<desc>Speed 3.7 km/h Distance 2.41 km</desc>
<time>2010-02-21T10:34:45.58</time>
<name>1764</name>
</trkpt>
<trkpt lat="48.943295" lon="8.649203">
<ele>320.5</ele>
<speed>4.0</speed>
<course>270.0</course>
<desc>Speed 4.0 km/h Distance 2.41 km</desc>
<time>2010-02-21T10:34:46.57</time>
<name>1765</name>
</trkpt>
<trkpt lat="48.943295" lon="8.649188">
<ele>320.5</ele>
<speed>4.0</speed>
<course>276.2</course>
<desc>Speed 4.0 km/h Distance 2.41 km</desc>
<time>2010-02-21T10:34:47.58</time>
<name>1766</name>
</trkpt>
<trkpt lat="48.943297" lon="8.649165">
<ele>318.5</ele>
<speed>4.8</speed>
<course>293.5</course>
<desc>Speed 4.8 km/h Distance 2.41 km</desc>
<time>2010-02-21T10:34:48.58</time>
<name>1767</name>
</trkpt>
<trkpt lat="48.943300" lon="8.649153">
<ele>318.0</ele>
<speed>3.7</speed>
<course>281.5</course>
<desc>Speed 3.7 km/h Distance 2.41 km</desc>
<time>2010-02-21T10:34:49.58</time>
<name>1768</name>
</trkpt>
<trkpt lat="48.943303" lon="8.649128">
<ele>316.5</ele>
<speed>4.0</speed>
<course>286.9</course>
<desc>Speed 4.0 km/h Distance 2.42 km</desc>
<time>2010-02-21T10:34:50.58</time>
<name>1769</name>
</trkpt>
<trkpt lat="48.943307" lon="8.649112">
<ele>317.0</ele>
<speed>3.2</speed>
<course>277.2</course>
<desc>Speed 3.2 km/h Distance 2.42 km</desc>
<time>2010-02-21T10:34:51.58</time>
<name>1770</name>
</trkpt>
<trkpt lat="48.943308" lon="8.649092">
<ele>314.0</ele>
<speed>2.5</speed>
<course>286.9</course>
<desc>Speed 2.5 km/h Distance 2.42 km</desc>
<time>2010-02-21T10:34:52.57</time>
<name>1771</name>
</trkpt>
<trkpt lat="48.943312" lon="8.649075">
<ele>312.5</ele>
<speed>3.0</speed>
<course>293.5</course>
<desc>Speed 3.0 km/h Distance 2.42 km</desc>
<time>2010-02-21T10:34:53.58</time>
<name>1772</name>
</trkpt>
<trkpt lat="48.943315" lon="8.649063">
<ele>312.5</ele>
<speed>3.2</speed>
<course>277.9</course>
<desc>Speed 3.2 km/h Distance 2.42 km</desc>
<time>2010-02-21T10:34:54.57</time>
<name>1773</name>
</trkpt>
<trkpt lat="48.943317" lon="8.649045">
<ele>309.0</ele>
<speed>3.0</speed>
<course>270.0</course>
<desc>Speed 3.0 km/h Distance 2.42 km</desc>
<time>2010-02-21T10:34:55.57</time>
<name>1774</name>
</trkpt>
<trkpt lat="48.943317" lon="8.649023">
<ele>308.5</ele>
<speed>3.7</speed>
<course>288.0</course>
<desc>Speed 3.7 km/h Distance 2.42 km</desc>
<time>2010-02-21T10:34:56.57</time>
<name>1775</name>
</trkpt>
<trkpt lat="48.943322" lon="8.649000">
<ele>307.5</ele>
<speed>3.6</speed>
<course>261.3</course>
<desc>Speed 3.6 km/h Distance 2.43 km</desc>
<time>2010-02-21T10:34:57.57</time>
<name>1776</name>
</trkpt>
<trkpt lat="48.943320" lon="8.648983">
<ele>307.5</ele>
<speed>3.7</speed>
<course>260.4</course>
<desc>Speed 3.7 km/h Distance 2.43 km</desc>
<time>2010-02-21T10:34:58.57</time>
<name>1777</name>
</trkpt>
<trkpt lat="48.943318" lon="8.648968">
<ele>306.5</ele>
<speed>3.4</speed>
<course>270.0</course>
<desc>Speed 3.4 km/h Distance 2.43 km</desc>
<time>2010-02-21T10:34:59.57</time>
<name>1778</name>
</trkpt>
<trkpt lat="48.943318" lon="8.648958">
<ele>307.0</ele>
<speed>3.0</speed>
<course>249.7</course>
<desc>Speed 3.0 km/h Distance 2.43 km</desc>
<time>2010-02-21T10:35:00.57</time>
<name>1779</name>
</trkpt>
<trkpt lat="48.943305" lon="8.648903">
<ele>307.5</ele>
<speed>3.4</speed>
<course>277.9</course>
<desc>Speed 3.4 km/h Distance 2.43 km</desc>
<time>2010-02-21T10:35:02.57</time>
<name>1780</name>
</trkpt>
<trkpt lat="48.943307" lon="8.648885">
<ele>307.5</ele>
<speed>3.3</speed>
<course>243.1</course>
<desc>Speed 3.3 km/h Distance 2.43 km</desc>
<time>2010-02-21T10:35:03.57</time>
<name>1781</name>
</trkpt>
<trkpt lat="48.943302" lon="8.648870">
<ele>307.5</ele>
<speed>4.8</speed>
<course>326.7</course>
<desc>Speed 4.8 km/h Distance 2.44 km</desc>
<time>2010-02-21T10:35:04.57</time>
<name>1782</name>
</trkpt>
<trkpt lat="48.943315" lon="8.648857">
<ele>308.0</ele>
<speed>4.9</speed>
<course>261.3</course>
<desc>Speed 4.9 km/h Distance 2.44 km</desc>
<time>2010-02-21T10:35:05.57</time>
<name>1783</name>
</trkpt>
<trkpt lat="48.943313" lon="8.648840">
<ele>307.0</ele>
<speed>2.9</speed>
<course>229.9</course>
<desc>Speed 2.9 km/h Distance 2.44 km</desc>
<time>2010-02-21T10:35:06.56</time>
<name>1784</name>
</trkpt>
<trkpt lat="48.943278" lon="8.648777">
<ele>303.5</ele>
<speed>2.7</speed>
<course>232.6</course>
<desc>Speed 2.7 km/h Distance 2.45 km</desc>
<time>2010-02-21T10:35:08.57</time>
<name>1785</name>
</trkpt>
<trkpt lat="48.943273" lon="8.648767">
<ele>303.0</ele>
<speed>3.1</speed>
<course>254.5</course>
<desc>Speed 3.1 km/h Distance 2.45 km</desc>
<time>2010-02-21T10:35:09.56</time>
<name>1786</name>
</trkpt>
<trkpt lat="48.943270" lon="8.648748">
<ele>302.0</ele>
<speed>3.3</speed>
<course>259.2</course>
<desc>Speed 3.3 km/h Distance 2.45 km</desc>
<time>2010-02-21T10:35:10.56</time>
<name>1787</name>
</trkpt>
<trkpt lat="48.943268" lon="8.648735">
<ele>301.0</ele>
<speed>3.0</speed>
<course>257.7</course>
<desc>Speed 3.0 km/h Distance 2.45 km</desc>
<time>2010-02-21T10:35:11.57</time>
<name>1788</name>
</trkpt>
<trkpt lat="48.943267" lon="8.648723">
<ele>299.0</ele>
<speed>2.1</speed>
<course>245.4</course>
<desc>Speed 2.1 km/h Distance 2.45 km</desc>
<time>2010-02-21T10:35:12.56</time>
<name>1789</name>
</trkpt>
<trkpt lat="48.943262" lon="8.648707">
<ele>299.5</ele>
<speed>3.2</speed>
<course>249.2</course>
<desc>Speed 3.2 km/h Distance 2.45 km</desc>
<time>2010-02-21T10:35:13.57</time>
<name>1790</name>
</trkpt>
<trkpt lat="48.943257" lon="8.648687">
<ele>299.5</ele>
<speed>3.5</speed>
<course>228.7</course>
<desc>Speed 3.5 km/h Distance 2.45 km</desc>
<time>2010-02-21T10:35:14.56</time>
<name>1791</name>
</trkpt>
<trkpt lat="48.943250" lon="8.648675">
<ele>299.0</ele>
<speed>3.1</speed>
<course>236.9</course>
<desc>Speed 3.1 km/h Distance 2.45 km</desc>
<time>2010-02-21T10:35:15.57</time>
<name>1792</name>
</trkpt>
<trkpt lat="48.943245" lon="8.648663">
<ele>298.0</ele>
<speed>1.8</speed>
<course>226.5</course>
<desc>Speed 1.8 km/h Distance 2.45 km</desc>
<time>2010-02-21T10:35:16.56</time>
<name>1793</name>
</trkpt>
<trkpt lat="48.943237" lon="8.648650">
<ele>297.0</ele>
<speed>3.2</speed>
<course>252.2</course>
<desc>Speed 3.2 km/h Distance 2.46 km</desc>
<time>2010-02-21T10:35:17.56</time>
<name>1794</name>
</trkpt>
<trkpt lat="48.943230" lon="8.648618">
<ele>296.5</ele>
<speed>3.0</speed>
<course>229.8</course>
<desc>Speed 3.0 km/h Distance 2.46 km</desc>
<time>2010-02-21T10:35:18.56</time>
<name>1795</name>
</trkpt>
<trkpt lat="48.943222" lon="8.648603">
<ele>296.5</ele>
<speed>3.6</speed>
<course>254.5</course>
<desc>Speed 3.6 km/h Distance 2.46 km</desc>
<time>2010-02-21T10:35:19.56</time>
<name>1796</name>
</trkpt>
<trkpt lat="48.943218" lon="8.648585">
<ele>297.5</ele>
<speed>2.7</speed>
<course>242.4</course>
<desc>Speed 2.7 km/h Distance 2.46 km</desc>
<time>2010-02-21T10:35:20.56</time>
<name>1797</name>
</trkpt>
<trkpt lat="48.943198" lon="8.648527">
<ele>298.5</ele>
<speed>3.4</speed>
<course>233.0</course>
<desc>Speed 3.4 km/h Distance 2.47 km</desc>
<time>2010-02-21T10:35:22.56</time>
<name>1798</name>
</trkpt>
<trkpt lat="48.943195" lon="8.648520">
<ele>298.5</ele>
<speed>2.2</speed>
<course>242.6</course>
<desc>Speed 2.2 km/h Distance 2.47 km</desc>
<time>2010-02-21T10:35:23.56</time>
<name>1799</name>
</trkpt>
<trkpt lat="48.943193" lon="8.648515">
<ele>298.0</ele>
<speed>1.3</speed>
<course>240.3</course>
<desc>Speed 1.3 km/h Distance 2.47 km</desc>
<time>2010-02-21T10:35:24.56</time>
<name>1800</name>
</trkpt>
<trkpt lat="48.943188" lon="8.648502">
<ele>298.0</ele>
<speed>3.7</speed>
<course>254.6</course>
<desc>Speed 3.7 km/h Distance 2.47 km</desc>
<time>2010-02-21T10:35:25.56</time>
<name>1801</name>
</trkpt>
<trkpt lat="48.943185" lon="8.648483">
<ele>298.0</ele>
<speed>3.1</speed>
<course>240.1</course>
<desc>Speed 3.1 km/h Distance 2.47 km</desc>
<time>2010-02-21T10:35:26.56</time>
<name>1802</name>
</trkpt>
<trkpt lat="48.943157" lon="8.648408">
<ele>298.0</ele>
<speed>2.8</speed>
<course>247.5</course>
<desc>Speed 2.8 km/h Distance 2.48 km</desc>
<time>2010-02-21T10:35:28.56</time>
<name>1803</name>
</trkpt>
<trkpt lat="48.943152" lon="8.648390">
<ele>297.5</ele>
<speed>2.7</speed>
<course>237.6</course>
<desc>Speed 2.7 km/h Distance 2.48 km</desc>
<time>2010-02-21T10:35:29.56</time>
<name>1804</name>
</trkpt>
<trkpt lat="48.943143" lon="8.648370">
<ele>297.5</ele>
<speed>3.2</speed>
<course>228.9</course>
<desc>Speed 3.2 km/h Distance 2.48 km</desc>
<time>2010-02-21T10:35:30.56</time>
<name>1805</name>
</trkpt>
<trkpt lat="48.943137" lon="8.648358">
<ele>298.0</ele>
<speed>3.4</speed>
<course>227.6</course>
<desc>Speed 3.4 km/h Distance 2.48 km</desc>
<time>2010-02-21T10:35:31.56</time>
<name>1806</name>
</trkpt>
<trkpt lat="48.943127" lon="8.648342">
<ele>298.5</ele>
<speed>3.6</speed>
<course>243.1</course>
<desc>Speed 3.6 km/h Distance 2.48 km</desc>
<time>2010-02-21T10:35:32.56</time>
<name>1807</name>
</trkpt>
<trkpt lat="48.943122" lon="8.648327">
<ele>299.0</ele>
<speed>2.4</speed>
<course>256.8</course>
<desc>Speed 2.4 km/h Distance 2.48 km</desc>
<time>2010-02-21T10:35:33.56</time>
<name>1808</name>
</trkpt>
<trkpt lat="48.943118" lon="8.648305">
<ele>299.0</ele>
<speed>1.7</speed>
<course>236.9</course>
<desc>Speed 1.7 km/h Distance 2.48 km</desc>
<time>2010-02-21T10:35:34.56</time>
<name>1809</name>
</trkpt>
<trkpt lat="48.943113" lon="8.648293">
<ele>299.5</ele>
<speed>2.5</speed>
<course>221.4</course>
<desc>Speed 2.5 km/h Distance 2.49 km</desc>
<time>2010-02-21T10:35:35.56</time>
<name>1810</name>
</trkpt>
<trkpt lat="48.943108" lon="8.648287">
<ele>298.5</ele>
<speed>2.4</speed>
<course>219.4</course>
<desc>Speed 2.4 km/h Distance 2.49 km</desc>
<time>2010-02-21T10:35:36.56</time>
<name>1811</name>
</trkpt>
<trkpt lat="48.943102" lon="8.648278">
<ele>298.5</ele>
<speed>3.1</speed>
<course>233.0</course>
<desc>Speed 3.1 km/h Distance 2.49 km</desc>
<time>2010-02-21T10:35:37.55</time>
<name>1812</name>
</trkpt>
<trkpt lat="48.943098" lon="8.648272">
<ele>297.0</ele>
<speed>1.9</speed>
<course>224.5</course>
<desc>Speed 1.9 km/h Distance 2.49 km</desc>
<time>2010-02-21T10:35:38.55</time>
<name>1813</name>
</trkpt>
<trkpt lat="48.943092" lon="8.648262">
<ele>296.5</ele>
<speed>2.8</speed>
<course>228.9</course>
<desc>Speed 2.8 km/h Distance 2.49 km</desc>
<time>2010-02-21T10:35:39.55</time>
<name>1814</name>
</trkpt>
<trkpt lat="48.943085" lon="8.648250">
<ele>296.5</ele>
<speed>2.5</speed>
<course>224.7</course>
<desc>Speed 2.5 km/h Distance 2.49 km</desc>
<time>2010-02-21T10:35:40.56</time>
<name>1815</name>
</trkpt>
<trkpt lat="48.943075" lon="8.648235">
<ele>296.0</ele>
<speed>3.1</speed>
<course>218.4</course>
<desc>Speed 3.1 km/h Distance 2.49 km</desc>
<time>2010-02-21T10:35:43.55</time>
<name>1816</name>
</trkpt>
<trkpt lat="48.943067" lon="8.648225">
<ele>295.0</ele>
<speed>2.7</speed>
<course>207.5</course>
<desc>Speed 2.7 km/h Distance 2.49 km</desc>
<time>2010-02-21T10:35:44.55</time>
<name>1817</name>
</trkpt>
<trkpt lat="48.943058" lon="8.648218">
<ele>294.0</ele>
<speed>3.5</speed>
<course>229.1</course>
<desc>Speed 3.5 km/h Distance 2.49 km</desc>
<time>2010-02-21T10:35:45.55</time>
<name>1818</name>
</trkpt>
<trkpt lat="48.943052" lon="8.648207">
<ele>294.0</ele>
<speed>2.9</speed>
<course>222.6</course>
<desc>Speed 2.9 km/h Distance 2.50 km</desc>
<time>2010-02-21T10:35:46.55</time>
<name>1819</name>
</trkpt>
<trkpt lat="48.943043" lon="8.648195">
<ele>293.0</ele>
<speed>3.7</speed>
<course>232.8</course>
<desc>Speed 3.7 km/h Distance 2.50 km</desc>
<time>2010-02-21T10:35:47.55</time>
<name>1820</name>
</trkpt>
<trkpt lat="48.943038" lon="8.648185">
<ele>293.5</ele>
<speed>3.2</speed>
<course>230.6</course>
<desc>Speed 3.2 km/h Distance 2.50 km</desc>
<time>2010-02-21T10:35:48.55</time>
<name>1821</name>
</trkpt>
<trkpt lat="48.942993" lon="8.648102">
<ele>294.0</ele>
<speed>3.3</speed>
<course>222.6</course>
<desc>Speed 3.3 km/h Distance 2.51 km</desc>
<time>2010-02-21T10:35:50.55</time>
<name>1822</name>
</trkpt>
<trkpt lat="48.942985" lon="8.648090">
<ele>292.5</ele>
<speed>3.7</speed>
<course>218.1</course>
<desc>Speed 3.7 km/h Distance 2.51 km</desc>
<time>2010-02-21T10:35:51.55</time>
<name>1823</name>
</trkpt>
<trkpt lat="48.942977" lon="8.648080">
<ele>292.5</ele>
<speed>3.7</speed>
<course>224.6</course>
<desc>Speed 3.7 km/h Distance 2.51 km</desc>
<time>2010-02-21T10:35:52.55</time>
<name>1824</name>
</trkpt>
<trkpt lat="48.942943" lon="8.648030">
<ele>293.5</ele>
<speed>3.7</speed>
<course>214.6</course>
<desc>Speed 3.7 km/h Distance 2.51 km</desc>
<time>2010-02-21T10:35:54.55</time>
<name>1825</name>
</trkpt>
<trkpt lat="48.942910" lon="8.647995">
<ele>295.5</ele>
<speed>4.0</speed>
<course>205.2</course>
<desc>Speed 4.0 km/h Distance 2.52 km</desc>
<time>2010-02-21T10:35:56.55</time>
<name>1826</name>
</trkpt>
<trkpt lat="48.942898" lon="8.647987">
<ele>296.0</ele>
<speed>3.4</speed>
<course>218.1</course>
<desc>Speed 3.4 km/h Distance 2.52 km</desc>
<time>2010-02-21T10:35:57.54</time>
<name>1827</name>
</trkpt>
<trkpt lat="48.942890" lon="8.647977">
<ele>295.0</ele>
<speed>3.7</speed>
<course>205.2</course>
<desc>Speed 3.7 km/h Distance 2.52 km</desc>
<time>2010-02-21T10:35:58.55</time>
<name>1828</name>
</trkpt>
<trkpt lat="48.942878" lon="8.647968">
<ele>294.0</ele>
<speed>3.4</speed>
<course>198.1</course>
<desc>Speed 3.4 km/h Distance 2.52 km</desc>
<time>2010-02-21T10:35:59.55</time>
<name>1829</name>
</trkpt>
<trkpt lat="48.942865" lon="8.647962">
<ele>293.5</ele>
<speed>3.3</speed>
<course>200.2</course>
<desc>Speed 3.3 km/h Distance 2.52 km</desc>
<time>2010-02-21T10:36:00.55</time>
<name>1830</name>
</trkpt>
<trkpt lat="48.942853" lon="8.647955">
<ele>292.0</ele>
<speed>3.7</speed>
<course>207.5</course>
<desc>Speed 3.7 km/h Distance 2.52 km</desc>
<time>2010-02-21T10:36:01.54</time>
<name>1831</name>
</trkpt>
<trkpt lat="48.942845" lon="8.647948">
<ele>291.0</ele>
<speed>2.2</speed>
<course>222.6</course>
<desc>Speed 2.2 km/h Distance 2.53 km</desc>
<time>2010-02-21T10:36:02.54</time>
<name>1832</name>
</trkpt>
<trkpt lat="48.942837" lon="8.647937">
<ele>290.5</ele>
<speed>3.5</speed>
<course>229.1</course>
<desc>Speed 3.5 km/h Distance 2.53 km</desc>
<time>2010-02-21T10:36:03.54</time>
<name>1833</name>
</trkpt>
<trkpt lat="48.942830" lon="8.647925">
<ele>290.0</ele>
<speed>3.1</speed>
<course>229.1</course>
<desc>Speed 3.1 km/h Distance 2.53 km</desc>
<time>2010-02-21T10:36:04.55</time>
<name>1834</name>
</trkpt>
<trkpt lat="48.942823" lon="8.647913">
<ele>289.5</ele>
<speed>2.7</speed>
<course>213.4</course>
<desc>Speed 2.7 km/h Distance 2.53 km</desc>
<time>2010-02-21T10:36:05.55</time>
<name>1835</name>
</trkpt>
<trkpt lat="48.942812" lon="8.647902">
<ele>288.5</ele>
<speed>3.8</speed>
<course>205.2</course>
<desc>Speed 3.8 km/h Distance 2.53 km</desc>
<time>2010-02-21T10:36:06.55</time>
<name>1836</name>
</trkpt>
<trkpt lat="48.942800" lon="8.647893">
<ele>287.0</ele>
<speed>2.7</speed>
<course>213.2</course>
<desc>Speed 2.7 km/h Distance 2.53 km</desc>
<time>2010-02-21T10:36:07.55</time>
<name>1837</name>
</trkpt>
<trkpt lat="48.942793" lon="8.647887">
<ele>286.5</ele>
<speed>3.3</speed>
<course>213.2</course>
<desc>Speed 3.3 km/h Distance 2.53 km</desc>
<time>2010-02-21T10:36:08.55</time>
<name>1838</name>
</trkpt>
<trkpt lat="48.942785" lon="8.647878">
<ele>286.0</ele>
<speed>3.5</speed>
<course>207.9</course>
<desc>Speed 3.5 km/h Distance 2.53 km</desc>
<time>2010-02-21T10:36:09.55</time>
<name>1839</name>
</trkpt>
<trkpt lat="48.942777" lon="8.647872">
<ele>285.0</ele>
<speed>3.5</speed>
<course>208.6</course>
<desc>Speed 3.5 km/h Distance 2.53 km</desc>
<time>2010-02-21T10:36:10.55</time>
<name>1840</name>
</trkpt>
<trkpt lat="48.942767" lon="8.647863">
<ele>284.5</ele>
<speed>4.0</speed>
<course>229.8</course>
<desc>Speed 4.0 km/h Distance 2.54 km</desc>
<time>2010-02-21T10:36:11.55</time>
<name>1841</name>
</trkpt>
<trkpt lat="48.942758" lon="8.647848">
<ele>285.0</ele>
<speed>3.7</speed>
<course>213.2</course>
<desc>Speed 3.7 km/h Distance 2.54 km</desc>
<time>2010-02-21T10:36:12.55</time>
<name>1842</name>
</trkpt>
<trkpt lat="48.942750" lon="8.647840">
<ele>285.0</ele>
<speed>3.6</speed>
<course>226.4</course>
<desc>Speed 3.6 km/h Distance 2.54 km</desc>
<time>2010-02-21T10:36:13.55</time>
<name>1843</name>
</trkpt>
<trkpt lat="48.942742" lon="8.647827">
<ele>284.5</ele>
<speed>3.5</speed>
<course>227.4</course>
<desc>Speed 3.5 km/h Distance 2.54 km</desc>
<time>2010-02-21T10:36:14.54</time>
<name>1844</name>
</trkpt>
<trkpt lat="48.942737" lon="8.647818">
<ele>285.0</ele>
<speed>2.0</speed>
<course>226.4</course>
<desc>Speed 2.0 km/h Distance 2.54 km</desc>
<time>2010-02-21T10:36:15.54</time>
<name>1845</name>
</trkpt>
<trkpt lat="48.942728" lon="8.647805">
<ele>286.0</ele>
<speed>3.2</speed>
<course>226.4</course>
<desc>Speed 3.2 km/h Distance 2.54 km</desc>
<time>2010-02-21T10:36:16.54</time>
<name>1846</name>
</trkpt>
<trkpt lat="48.942720" lon="8.647792">
<ele>287.5</ele>
<speed>2.7</speed>
<course>222.1</course>
<desc>Speed 2.7 km/h Distance 2.54 km</desc>
<time>2010-02-21T10:36:17.54</time>
<name>1847</name>
</trkpt>
<trkpt lat="48.942707" lon="8.647773">
<ele>289.5</ele>
<speed>4.0</speed>
<course>222.5</course>
<desc>Speed 4.0 km/h Distance 2.55 km</desc>
<time>2010-02-21T10:36:18.54</time>
<name>1848</name>
</trkpt>
<trkpt lat="48.942698" lon="8.647762">
<ele>288.0</ele>
<speed>3.7</speed>
<course>219.4</course>
<desc>Speed 3.7 km/h Distance 2.55 km</desc>
<time>2010-02-21T10:36:19.54</time>
<name>1849</name>
</trkpt>
<trkpt lat="48.942692" lon="8.647753">
<ele>289.5</ele>
<speed>2.8</speed>
<course>194.0</course>
<desc>Speed 2.8 km/h Distance 2.55 km</desc>
<time>2010-02-21T10:36:20.54</time>
<name>1850</name>
</trkpt>
<trkpt lat="48.942678" lon="8.647748">
<ele>290.5</ele>
<speed>3.0</speed>
<course>203.8</course>
<desc>Speed 3.0 km/h Distance 2.55 km</desc>
<time>2010-02-21T10:36:21.54</time>
<name>1851</name>
</trkpt>
<trkpt lat="48.942668" lon="8.647742">
<ele>291.5</ele>
<speed>4.5</speed>
<course>213.7</course>
<desc>Speed 4.5 km/h Distance 2.55 km</desc>
<time>2010-02-21T10:36:22.54</time>
<name>1852</name>
</trkpt>
<trkpt lat="48.942662" lon="8.647735">
<ele>292.0</ele>
<speed>3.1</speed>
<course>213.7</course>
<desc>Speed 3.1 km/h Distance 2.55 km</desc>
<time>2010-02-21T10:36:23.54</time>
<name>1853</name>
</trkpt>
<trkpt lat="48.942655" lon="8.647728">
<ele>291.5</ele>
<speed>2.8</speed>
<course>227.8</course>
<desc>Speed 2.8 km/h Distance 2.55 km</desc>
<time>2010-02-21T10:36:24.54</time>
<name>1854</name>
</trkpt>
<trkpt lat="48.942650" lon="8.647720">
<ele>291.0</ele>
<speed>2.7</speed>
<course>233.0</course>
<desc>Speed 2.7 km/h Distance 2.55 km</desc>
<time>2010-02-21T10:36:25.54</time>
<name>1855</name>
</trkpt>
<trkpt lat="48.942647" lon="8.647713">
<ele>290.0</ele>
<speed>0.9</speed>
<course>212.3</course>
<desc>Speed 0.9 km/h Distance 2.55 km</desc>
<time>2010-02-21T10:36:26.54</time>
<name>1856</name>
</trkpt>
<trkpt lat="48.942642" lon="8.647708">
<ele>290.0</ele>
<speed>0.9</speed>
<course>217.2</course>
<desc>Speed 0.9 km/h Distance 2.55 km</desc>
<time>2010-02-21T10:36:27.54</time>
<name>1857</name>
</trkpt>
<trkpt lat="48.942640" lon="8.647707">
<ele>290.0</ele>
<speed>0.9</speed>
<course>213.3</course>
<desc>Speed 0.9 km/h Distance 2.55 km</desc>
<time>2010-02-21T10:36:28.54</time>
<name>1858</name>
</trkpt>
<trkpt lat="48.942623" lon="8.647690">
<ele>291.0</ele>
<speed>7.5</speed>
<course>217.5</course>
<desc>Speed 7.5 km/h Distance 2.56 km</desc>
<time>2010-02-21T10:36:29.54</time>
<name>1859</name>
</trkpt>
<trkpt lat="48.942613" lon="8.647678">
<ele>290.5</ele>
<speed>4.1</speed>
<course>209.4</course>
<desc>Speed 4.1 km/h Distance 2.56 km</desc>
<time>2010-02-21T10:36:30.54</time>
<name>1860</name>
</trkpt>
<trkpt lat="48.942602" lon="8.647668">
<ele>292.5</ele>
<speed>3.0</speed>
<course>216.9</course>
<desc>Speed 3.0 km/h Distance 2.56 km</desc>
<time>2010-02-21T10:36:31.53</time>
<name>1861</name>
</trkpt>
<trkpt lat="48.942590" lon="8.647655">
<ele>293.5</ele>
<speed>4.4</speed>
<course>228.4</course>
<desc>Speed 4.4 km/h Distance 2.56 km</desc>
<time>2010-02-21T10:36:32.54</time>
<name>1862</name>
</trkpt>
<trkpt lat="48.942578" lon="8.647635">
<ele>290.0</ele>
<speed>2.5</speed>
<course>229.1</course>
<desc>Speed 2.5 km/h Distance 2.56 km</desc>
<time>2010-02-21T10:36:33.54</time>
<name>1863</name>
</trkpt>
<trkpt lat="48.942572" lon="8.647623">
<ele>288.5</ele>
<speed>3.2</speed>
<course>232.6</course>
<desc>Speed 3.2 km/h Distance 2.56 km</desc>
<time>2010-02-21T10:36:34.54</time>
<name>1864</name>
</trkpt>
<trkpt lat="48.942567" lon="8.647613">
<ele>285.5</ele>
<speed>1.8</speed>
<course>253.1</course>
<desc>Speed 1.8 km/h Distance 2.57 km</desc>
<time>2010-02-21T10:36:35.54</time>
<name>1865</name>
</trkpt>
<trkpt lat="48.942563" lon="8.647597">
<ele>285.5</ele>
<speed>1.9</speed>
<course>270.0</course>
<desc>Speed 1.9 km/h Distance 2.57 km</desc>
<time>2010-02-21T10:36:36.54</time>
<name>1866</name>
</trkpt>
<trkpt lat="48.942563" lon="8.647588">
<ele>285.0</ele>
<speed>1.5</speed>
<course>243.1</course>
<desc>Speed 1.5 km/h Distance 2.57 km</desc>
<time>2010-02-21T10:36:37.54</time>
<name>1867</name>
</trkpt>
<trkpt lat="48.942558" lon="8.647573">
<ele>285.0</ele>
<speed>3.7</speed>
<course>249.1</course>
<desc>Speed 3.7 km/h Distance 2.57 km</desc>
<time>2010-02-21T10:36:38.54</time>
<name>1868</name>
</trkpt>
<trkpt lat="48.942555" lon="8.647560">
<ele>285.5</ele>
<speed>2.5</speed>
<course>243.2</course>
<desc>Speed 2.5 km/h Distance 2.57 km</desc>
<time>2010-02-21T10:36:39.54</time>
<name>1869</name>
</trkpt>
<trkpt lat="48.942552" lon="8.647550">
<ele>285.5</ele>
<speed>1.3</speed>
<course>270.0</course>
<desc>Speed 1.3 km/h Distance 2.57 km</desc>
<time>2010-02-21T10:36:40.54</time>
<name>1870</name>
</trkpt>
<trkpt lat="48.942552" lon="8.647538">
<ele>286.0</ele>
<speed>1.4</speed>
<course>245.5</course>
<desc>Speed 1.4 km/h Distance 2.57 km</desc>
<time>2010-02-21T10:36:41.54</time>
<name>1871</name>
</trkpt>
<trkpt lat="48.942547" lon="8.647522">
<ele>287.5</ele>
<speed>2.2</speed>
<course>257.7</course>
<desc>Speed 2.2 km/h Distance 2.57 km</desc>
<time>2010-02-21T10:36:42.54</time>
<name>1872</name>
</trkpt>
<trkpt lat="48.942543" lon="8.647498">
<ele>287.5</ele>
<speed>3.2</speed>
<course>253.1</course>
<desc>Speed 3.2 km/h Distance 2.57 km</desc>
<time>2010-02-21T10:36:43.54</time>
<name>1873</name>
</trkpt>
<trkpt lat="48.942540" lon="8.647482">
<ele>287.5</ele>
<speed>2.4</speed>
<course>325.9</course>
<desc>Speed 2.4 km/h Distance 2.58 km</desc>
<time>2010-02-21T10:36:44.54</time>
<name>1874</name>
</trkpt>
<trkpt lat="48.942545" lon="8.647477">
<ele>287.5</ele>
<speed>2.2</speed>
<course>301.4</course>
<desc>Speed 2.2 km/h Distance 2.58 km</desc>
<time>2010-02-21T10:36:45.53</time>
<name>1875</name>
</trkpt>
<trkpt lat="48.942548" lon="8.647468">
<ele>288.0</ele>
<speed>2.4</speed>
<course>297.0</course>
<desc>Speed 2.4 km/h Distance 2.58 km</desc>
<time>2010-02-21T10:36:46.54</time>
<name>1876</name>
</trkpt>
<trkpt lat="48.942552" lon="8.647458">
<ele>287.0</ele>
<speed>2.8</speed>
<course>270.0</course>
<desc>Speed 2.8 km/h Distance 2.58 km</desc>
<time>2010-02-21T10:36:47.54</time>
<name>1877</name>
</trkpt>
<trkpt lat="48.942552" lon="8.647442">
<ele>286.5</ele>
<speed>2.9</speed>
<course>299.6</course>
<desc>Speed 2.9 km/h Distance 2.58 km</desc>
<time>2010-02-21T10:36:48.56</time>
<name>1878</name>
</trkpt>
<trkpt lat="48.942557" lon="8.647428">
<ele>285.5</ele>
<speed>3.5</speed>
<course>280.7</course>
<desc>Speed 3.5 km/h Distance 2.58 km</desc>
<time>2010-02-21T10:36:49.53</time>
<name>1879</name>
</trkpt>
<trkpt lat="48.942558" lon="8.647415">
<ele>285.5</ele>
<speed>2.7</speed>
<course>255.8</course>
<desc>Speed 2.7 km/h Distance 2.58 km</desc>
<time>2010-02-21T10:36:50.53</time>
<name>1880</name>
</trkpt>
<trkpt lat="48.942553" lon="8.647385">
<ele>285.0</ele>
<speed>5.2</speed>
<course>246.5</course>
<desc>Speed 5.2 km/h Distance 2.58 km</desc>
<time>2010-02-21T10:36:51.53</time>
<name>1881</name>
</trkpt>
<trkpt lat="48.942547" lon="8.647362">
<ele>286.5</ele>
<speed>6.6</speed>
<course>254.5</course>
<desc>Speed 6.6 km/h Distance 2.59 km</desc>
<time>2010-02-21T10:36:52.53</time>
<name>1882</name>
</trkpt>
<trkpt lat="48.942543" lon="8.647343">
<ele>286.5</ele>
<speed>4.2</speed>
<course>255.8</course>
<desc>Speed 4.2 km/h Distance 2.59 km</desc>
<time>2010-02-21T10:36:53.53</time>
<name>1883</name>
</trkpt>
<trkpt lat="48.942540" lon="8.647323">
<ele>287.0</ele>
<speed>4.1</speed>
<course>259.3</course>
<desc>Speed 4.1 km/h Distance 2.59 km</desc>
<time>2010-02-21T10:36:54.54</time>
<name>1884</name>
</trkpt>
<trkpt lat="48.942538" lon="8.647310">
<ele>287.5</ele>
<speed>2.2</speed>
<course>243.1</course>
<desc>Speed 2.2 km/h Distance 2.59 km</desc>
<time>2010-02-21T10:36:55.53</time>
<name>1885</name>
</trkpt>
<trkpt lat="48.942532" lon="8.647290">
<ele>286.0</ele>
<speed>4.6</speed>
<course>238.7</course>
<desc>Speed 4.6 km/h Distance 2.59 km</desc>
<time>2010-02-21T10:36:56.53</time>
<name>1886</name>
</trkpt>
<trkpt lat="48.942525" lon="8.647273">
<ele>286.0</ele>
<speed>3.8</speed>
<course>251.3</course>
<desc>Speed 3.8 km/h Distance 2.59 km</desc>
<time>2010-02-21T10:36:57.53</time>
<name>1887</name>
</trkpt>
<trkpt lat="48.942522" lon="8.647258">
<ele>286.0</ele>
<speed>4.1</speed>
<course>247.9</course>
<desc>Speed 4.1 km/h Distance 2.59 km</desc>
<time>2010-02-21T10:36:58.54</time>
<name>1888</name>
</trkpt>
<trkpt lat="48.942515" lon="8.647233">
<ele>285.5</ele>
<speed>4.4</speed>
<course>257.7</course>
<desc>Speed 4.4 km/h Distance 2.60 km</desc>
<time>2010-02-21T10:36:59.54</time>
<name>1889</name>
</trkpt>
<trkpt lat="48.942512" lon="8.647210">
<ele>284.5</ele>
<speed>4.5</speed>
<course>213.7</course>
<desc>Speed 4.5 km/h Distance 2.60 km</desc>
<time>2010-02-21T10:37:00.53</time>
<name>1890</name>
</trkpt>
<trkpt lat="48.942505" lon="8.647203">
<ele>285.5</ele>
<speed>2.2</speed>
<course>270.0</course>
<desc>Speed 2.2 km/h Distance 2.60 km</desc>
<time>2010-02-21T10:37:01.53</time>
<name>1891</name>
</trkpt>
<trkpt lat="48.942505" lon="8.647188">
<ele>284.0</ele>
<speed>2.4</speed>
<course>270.0</course>
<desc>Speed 2.4 km/h Distance 2.60 km</desc>
<time>2010-02-21T10:37:02.53</time>
<name>1892</name>
</trkpt>
<trkpt lat="48.942505" lon="8.647178">
<ele>283.0</ele>
<speed>2.2</speed>
<course>293.5</course>
<desc>Speed 2.2 km/h Distance 2.60 km</desc>
<time>2010-02-21T10:37:03.53</time>
<name>1893</name>
</trkpt>
<trkpt lat="48.942508" lon="8.647167">
<ele>282.5</ele>
<speed>2.4</speed>
<course>315.5</course>
<desc>Speed 2.4 km/h Distance 2.60 km</desc>
<time>2010-02-21T10:37:04.54</time>
<name>1894</name>
</trkpt>
<trkpt lat="48.942515" lon="8.647157">
<ele>282.5</ele>
<speed>2.4</speed>
<course>270.0</course>
<desc>Speed 2.4 km/h Distance 2.60 km</desc>
<time>2010-02-21T10:37:05.53</time>
<name>1895</name>
</trkpt>
<trkpt lat="48.942515" lon="8.647142">
<ele>281.0</ele>
<speed>2.7</speed>
<course>260.4</course>
<desc>Speed 2.7 km/h Distance 2.60 km</desc>
<time>2010-02-21T10:37:06.53</time>
<name>1896</name>
</trkpt>
<trkpt lat="48.942513" lon="8.647127">
<ele>280.5</ele>
<speed>2.6</speed>
<course>297.0</course>
<desc>Speed 2.6 km/h Distance 2.60 km</desc>
<time>2010-02-21T10:37:07.53</time>
<name>1897</name>
</trkpt>
<trkpt lat="48.942517" lon="8.647117">
<ele>280.5</ele>
<speed>2.1</speed>
<course>257.8</course>
<desc>Speed 2.1 km/h Distance 2.60 km</desc>
<time>2010-02-21T10:37:08.53</time>
<name>1898</name>
</trkpt>
<trkpt lat="48.942515" lon="8.647105">
<ele>280.0</ele>
<speed>2.1</speed>
<course>231.1</course>
<desc>Speed 2.1 km/h Distance 2.61 km</desc>
<time>2010-02-21T10:37:09.53</time>
<name>1899</name>
</trkpt>
<trkpt lat="48.942470" lon="8.647020">
<ele>284.0</ele>
<speed>1.1</speed>
<course>279.6</course>
<desc>Speed 1.1 km/h Distance 2.61 km</desc>
<time>2010-02-21T10:37:11.53</time>
<name>1900</name>
</trkpt>
<trkpt lat="48.942472" lon="8.647005">
<ele>282.5</ele>
<speed>2.1</speed>
<course>270.0</course>
<desc>Speed 2.1 km/h Distance 2.61 km</desc>
<time>2010-02-21T10:37:12.53</time>
<name>1901</name>
</trkpt>
<trkpt lat="48.942472" lon="8.646988">
<ele>282.0</ele>
<speed>2.7</speed>
<course>262.1</course>
<desc>Speed 2.7 km/h Distance 2.62 km</desc>
<time>2010-02-21T10:37:13.53</time>
<name>1902</name>
</trkpt>
<trkpt lat="48.942470" lon="8.646970">
<ele>281.0</ele>
<speed>2.6</speed>
<course>302.9</course>
<desc>Speed 2.6 km/h Distance 2.62 km</desc>
<time>2010-02-21T10:37:14.55</time>
<name>1903</name>
</trkpt>
<trkpt lat="48.942475" lon="8.646958">
<ele>281.0</ele>
<speed>2.7</speed>
<course>288.7</course>
<desc>Speed 2.7 km/h Distance 2.62 km</desc>
<time>2010-02-21T10:37:15.52</time>
<name>1904</name>
</trkpt>
<trkpt lat="48.942478" lon="8.646943">
<ele>280.5</ele>
<speed>3.3</speed>
<course>296.9</course>
<desc>Speed 3.3 km/h Distance 2.62 km</desc>
<time>2010-02-21T10:37:16.53</time>
<name>1905</name>
</trkpt>
<trkpt lat="48.942483" lon="8.646928">
<ele>278.5</ele>
<speed>3.2</speed>
<course>307.3</course>
<desc>Speed 3.2 km/h Distance 2.62 km</desc>
<time>2010-02-21T10:37:17.52</time>
<name>1906</name>
</trkpt>
<trkpt lat="48.942490" lon="8.646915">
<ele>277.5</ele>
<speed>3.2</speed>
<course>245.5</course>
<desc>Speed 3.2 km/h Distance 2.62 km</desc>
<time>2010-02-21T10:37:18.52</time>
<name>1907</name>
</trkpt>
<trkpt lat="48.942485" lon="8.646898">
<ele>277.5</ele>
<speed>3.4</speed>
<course>278.6</course>
<desc>Speed 3.4 km/h Distance 2.62 km</desc>
<time>2010-02-21T10:37:19.52</time>
<name>1908</name>
</trkpt>
<trkpt lat="48.942487" lon="8.646882">
<ele>276.5</ele>
<speed>2.3</speed>
<course>270.0</course>
<desc>Speed 2.3 km/h Distance 2.62 km</desc>
<time>2010-02-21T10:37:20.52</time>
<name>1909</name>
</trkpt>
<trkpt lat="48.942487" lon="8.646865">
<ele>274.0</ele>
<speed>1.7</speed>
<course>232.5</course>
<desc>Speed 1.7 km/h Distance 2.63 km</desc>
<time>2010-02-21T10:37:21.51</time>
<name>1910</name>
</trkpt>
<trkpt lat="48.942392" lon="8.646677">
<ele>286.0</ele>
<speed>1.8</speed>
<course>236.3</course>
<desc>Speed 1.8 km/h Distance 2.64 km</desc>
<time>2010-02-21T10:37:24.52</time>
<name>1911</name>
</trkpt>
<trkpt lat="48.942380" lon="8.646650">
<ele>289.0</ele>
<speed>2.2</speed>
<course>247.1</course>
<desc>Speed 2.2 km/h Distance 2.65 km</desc>
<time>2010-02-21T10:37:25.51</time>
<name>1912</name>
</trkpt>
<trkpt lat="48.942363" lon="8.646590">
<ele>292.0</ele>
<speed>0.2</speed>
<course>259.3</course>
<desc>Speed 0.2 km/h Distance 2.65 km</desc>
<time>2010-02-21T10:37:27.52</time>
<name>1913</name>
</trkpt>
<trkpt lat="48.942362" lon="8.646577">
<ele>291.0</ele>
<speed>1.2</speed>
<course>270.0</course>
<desc>Speed 1.2 km/h Distance 2.65 km</desc>
<time>2010-02-21T10:37:28.52</time>
<name>1914</name>
</trkpt>
<trkpt lat="48.942362" lon="8.646573">
<ele>291.5</ele>
<speed>1.2</speed>
<course>293.6</course>
<desc>Speed 1.2 km/h Distance 2.65 km</desc>
<time>2010-02-21T10:37:29.52</time>
<name>1915</name>
</trkpt>
<trkpt lat="48.942365" lon="8.646562">
<ele>294.0</ele>
<speed>3.2</speed>
<course>290.9</course>
<desc>Speed 3.2 km/h Distance 2.65 km</desc>
<time>2010-02-21T10:37:30.52</time>
<name>1916</name>
</trkpt>
<trkpt lat="48.942367" lon="8.646555">
<ele>294.5</ele>
<speed>2.0</speed>
<course>352.3</course>
<desc>Speed 2.0 km/h Distance 2.65 km</desc>
<time>2010-02-21T10:37:31.52</time>
<name>1917</name>
</trkpt>
<trkpt lat="48.942375" lon="8.646553">
<ele>294.5</ele>
<speed>3.0</speed>
<course>12.6</course>
<desc>Speed 3.0 km/h Distance 2.65 km</desc>
<time>2010-02-21T10:37:32.52</time>
<name>1918</name>
</trkpt>
<trkpt lat="48.942380" lon="8.646555">
<ele>296.0</ele>
<speed>2.2</speed>
<course>270.0</course>
<desc>Speed 2.2 km/h Distance 2.65 km</desc>
<time>2010-02-21T10:37:33.52</time>
<name>1919</name>
</trkpt>
<trkpt lat="48.942380" lon="8.646553">
<ele>296.0</ele>
<speed>1.2</speed>
<course>297.4</course>
<desc>Speed 1.2 km/h Distance 2.65 km</desc>
<time>2010-02-21T10:37:34.52</time>
<name>1920</name>
</trkpt>
<trkpt lat="48.942382" lon="8.646548">
<ele>293.5</ele>
<speed>0.8</speed>
<course>270.0</course>
<desc>Speed 0.8 km/h Distance 2.65 km</desc>
<time>2010-02-21T10:37:35.52</time>
<name>1921</name>
</trkpt>
<trkpt lat="48.942382" lon="8.646542">
<ele>294.0</ele>
<speed>0.3</speed>
<course>270.0</course>
<desc>Speed 0.3 km/h Distance 2.66 km</desc>
<time>2010-02-21T10:37:36.52</time>
<name>1922</name>
</trkpt>
<trkpt lat="48.942382" lon="8.646532">
<ele>293.0</ele>
<speed>1.5</speed>
<course>270.0</course>
<desc>Speed 1.5 km/h Distance 2.66 km</desc>
<time>2010-02-21T10:37:37.52</time>
<name>1923</name>
</trkpt>
<trkpt lat="48.942382" lon="8.646528">
<ele>293.0</ele>
<speed>0.4</speed>
<course>322.8</course>
<desc>Speed 0.4 km/h Distance 2.66 km</desc>
<time>2010-02-21T10:37:38.51</time>
<name>1924</name>
</trkpt>
<trkpt lat="48.942383" lon="8.646527">
<ele>293.5</ele>
<speed>0.9</speed>
<course>318.6</course>
<desc>Speed 0.9 km/h Distance 2.66 km</desc>
<time>2010-02-21T10:37:39.52</time>
<name>1925</name>
</trkpt>
<trkpt lat="48.942388" lon="8.646520">
<ele>293.0</ele>
<speed>1.7</speed>
<course>339.2</course>
<desc>Speed 1.7 km/h Distance 2.66 km</desc>
<time>2010-02-21T10:37:40.52</time>
<name>1926</name>
</trkpt>
<trkpt lat="48.942397" lon="8.646515">
<ele>290.5</ele>
<speed>1.9</speed>
<course>347.4</course>
<desc>Speed 1.9 km/h Distance 2.66 km</desc>
<time>2010-02-21T10:37:41.52</time>
<name>1927</name>
</trkpt>
<trkpt lat="48.942402" lon="8.646513">
<ele>291.0</ele>
<speed>2.1</speed>
<course>307.6</course>
<desc>Speed 2.1 km/h Distance 2.66 km</desc>
<time>2010-02-21T10:37:42.52</time>
<name>1928</name>
</trkpt>
<trkpt lat="48.942405" lon="8.646507">
<ele>292.0</ele>
<speed>1.1</speed>
<course>270.0</course>
<desc>Speed 1.1 km/h Distance 2.66 km</desc>
<time>2010-02-21T10:37:43.52</time>
<name>1929</name>
</trkpt>
<trkpt lat="48.942405" lon="8.646503">
<ele>292.0</ele>
<speed>1.8</speed>
<course>18.1</course>
<desc>Speed 1.8 km/h Distance 2.66 km</desc>
<time>2010-02-21T10:37:44.52</time>
<name>1930</name>
</trkpt>
<trkpt lat="48.942418" lon="8.646510">
<ele>292.0</ele>
<speed>1.2</speed>
<course>13.5</course>
<desc>Speed 1.2 km/h Distance 2.66 km</desc>
<time>2010-02-21T10:37:45.51</time>
<name>1931</name>
</trkpt>
<trkpt lat="48.942432" lon="8.646515">
<ele>292.5</ele>
<speed>1.3</speed>
<course>62.6</course>
<desc>Speed 1.3 km/h Distance 2.66 km</desc>
<time>2010-02-21T10:37:46.51</time>
<name>1932</name>
</trkpt>
<trkpt lat="48.942433" lon="8.646520">
<ele>291.5</ele>
<speed>1.5</speed>
<course>12.6</course>
<desc>Speed 1.5 km/h Distance 2.66 km</desc>
<time>2010-02-21T10:37:47.51</time>
<name>1933</name>
</trkpt>
<trkpt lat="48.942438" lon="8.646522">
<ele>290.5</ele>
<speed>1.7</speed>
<course>0.0</course>
<desc>Speed 1.7 km/h Distance 2.66 km</desc>
<time>2010-02-21T10:37:48.51</time>
<name>1934</name>
</trkpt>
<trkpt lat="48.942442" lon="8.646522">
<ele>288.5</ele>
<speed>0.9</speed>
<course>14.9</course>
<desc>Speed 0.9 km/h Distance 2.66 km</desc>
<time>2010-02-21T10:37:49.51</time>
<name>1935</name>
</trkpt>
<trkpt lat="48.942450" lon="8.646525">
<ele>287.5</ele>
<speed>2.3</speed>
<course>1.2</course>
<desc>Speed 2.3 km/h Distance 2.67 km</desc>
<time>2010-02-21T10:37:50.53</time>
<name>1936</name>
</trkpt>
<trkpt lat="48.942463" lon="8.646525">
<ele>289.0</ele>
<speed>3.3</speed>
<course>11.2</course>
<desc>Speed 3.3 km/h Distance 2.67 km</desc>
<time>2010-02-21T10:37:51.51</time>
<name>1937</name>
</trkpt>
<trkpt lat="48.942475" lon="8.646528">
<ele>287.5</ele>
<speed>1.8</speed>
<course>5.3</course>
<desc>Speed 1.8 km/h Distance 2.67 km</desc>
<time>2010-02-21T10:37:52.51</time>
<name>1938</name>
</trkpt>
<trkpt lat="48.942488" lon="8.646530">
<ele>287.0</ele>
<speed>2.2</speed>
<course>18.8</course>
<desc>Speed 2.2 km/h Distance 2.67 km</desc>
<time>2010-02-21T10:37:53.53</time>
<name>1939</name>
</trkpt>
<trkpt lat="48.942495" lon="8.646533">
<ele>288.5</ele>
<speed>2.2</speed>
<course>336.2</course>
<desc>Speed 2.2 km/h Distance 2.67 km</desc>
<time>2010-02-21T10:37:54.51</time>
<name>1940</name>
</trkpt>
<trkpt lat="48.942505" lon="8.646527">
<ele>287.0</ele>
<speed>1.8</speed>
<course>326.3</course>
<desc>Speed 1.8 km/h Distance 2.67 km</desc>
<time>2010-02-21T10:37:55.51</time>
<name>1941</name>
</trkpt>
<trkpt lat="48.942512" lon="8.646520">
<ele>285.0</ele>
<speed>1.0</speed>
<course>348.8</course>
<desc>Speed 1.0 km/h Distance 2.67 km</desc>
<time>2010-02-21T10:37:56.53</time>
<name>1942</name>
</trkpt>
<trkpt lat="48.942528" lon="8.646515">
<ele>286.5</ele>
<speed>2.6</speed>
<course>341.2</course>
<desc>Speed 2.6 km/h Distance 2.67 km</desc>
<time>2010-02-21T10:37:57.51</time>
<name>1943</name>
</trkpt>
<trkpt lat="48.942535" lon="8.646512">
<ele>285.0</ele>
<speed>1.6</speed>
<course>327.4</course>
<desc>Speed 1.6 km/h Distance 2.67 km</desc>
<time>2010-02-21T10:37:58.51</time>
<name>1944</name>
</trkpt>
<trkpt lat="48.942542" lon="8.646505">
<ele>283.0</ele>
<speed>0.7</speed>
<course>17.5</course>
<desc>Speed 0.7 km/h Distance 2.68 km</desc>
<time>2010-02-21T10:37:59.51</time>
<name>1945</name>
</trkpt>
<trkpt lat="48.942548" lon="8.646508">
<ele>283.5</ele>
<speed>1.4</speed>
<course>12.6</course>
<desc>Speed 1.4 km/h Distance 2.68 km</desc>
<time>2010-02-21T10:38:00.51</time>
<name>1946</name>
</trkpt>
<trkpt lat="48.942553" lon="8.646510">
<ele>283.0</ele>
<speed>1.1</speed>
<course>0.0</course>
<desc>Speed 1.1 km/h Distance 2.68 km</desc>
<time>2010-02-21T10:38:01.52</time>
<name>1947</name>
</trkpt>
<trkpt lat="48.942572" lon="8.646510">
<ele>284.5</ele>
<speed>1.0</speed>
<course>22.3</course>
<desc>Speed 1.0 km/h Distance 2.68 km</desc>
<time>2010-02-21T10:38:02.52</time>
<name>1948</name>
</trkpt>
<trkpt lat="48.942585" lon="8.646518">
<ele>286.0</ele>
<speed>2.5</speed>
<course>18.1</course>
<desc>Speed 2.5 km/h Distance 2.68 km</desc>
<time>2010-02-21T10:38:03.54</time>
<name>1949</name>
</trkpt>
<trkpt lat="48.942598" lon="8.646525">
<ele>287.5</ele>
<speed>1.0</speed>
<course>332.1</course>
<desc>Speed 1.0 km/h Distance 2.68 km</desc>
<time>2010-02-21T10:38:04.51</time>
<name>1950</name>
</trkpt>
<trkpt lat="48.942607" lon="8.646518">
<ele>286.0</ele>
<speed>1.4</speed>
<course>331.4</course>
<desc>Speed 1.4 km/h Distance 2.68 km</desc>
<time>2010-02-21T10:38:05.51</time>
<name>1951</name>
</trkpt>
<trkpt lat="48.942617" lon="8.646510">
<ele>284.5</ele>
<speed>1.6</speed>
<course>347.4</course>
<desc>Speed 1.6 km/h Distance 2.68 km</desc>
<time>2010-02-21T10:38:06.53</time>
<name>1952</name>
</trkpt>
<trkpt lat="48.942627" lon="8.646507">
<ele>282.0</ele>
<speed>1.1</speed>
<course>9.6</course>
<desc>Speed 1.1 km/h Distance 2.69 km</desc>
<time>2010-02-21T10:38:07.51</time>
<name>1953</name>
</trkpt>
<trkpt lat="48.942635" lon="8.646508">
<ele>281.5</ele>
<speed>1.8</speed>
<course>307.0</course>
<desc>Speed 1.8 km/h Distance 2.69 km</desc>
<time>2010-02-21T10:38:08.51</time>
<name>1954</name>
</trkpt>
<trkpt lat="48.942638" lon="8.646502">
<ele>280.5</ele>
<speed>0.6</speed>
<course>355.6</course>
<desc>Speed 0.6 km/h Distance 2.69 km</desc>
<time>2010-02-21T10:38:09.51</time>
<name>1955</name>
</trkpt>
<trkpt lat="48.942648" lon="8.646500">
<ele>278.0</ele>
<speed>2.1</speed>
<course>350.5</course>
<desc>Speed 2.1 km/h Distance 2.69 km</desc>
<time>2010-02-21T10:38:10.54</time>
<name>1956</name>
</trkpt>
<trkpt lat="48.942660" lon="8.646497">
<ele>277.5</ele>
<speed>1.5</speed>
<course>315.5</course>
<desc>Speed 1.5 km/h Distance 2.69 km</desc>
<time>2010-02-21T10:38:11.51</time>
<name>1957</name>
</trkpt>
<trkpt lat="48.942663" lon="8.646492">
<ele>277.5</ele>
<speed>0.5</speed>
<course>341.8</course>
<desc>Speed 0.5 km/h Distance 2.69 km</desc>
<time>2010-02-21T10:38:12.51</time>
<name>1958</name>
</trkpt>
<trkpt lat="48.942693" lon="8.646477">
<ele>276.0</ele>
<speed>2.5</speed>
<course>351.9</course>
<desc>Speed 2.5 km/h Distance 2.69 km</desc>
<time>2010-02-21T10:38:14.51</time>
<name>1959</name>
</trkpt>
<trkpt lat="48.942698" lon="8.646475">
<ele>275.0</ele>
<speed>1.5</speed>
<course>8.1</course>
<desc>Speed 1.5 km/h Distance 2.69 km</desc>
<time>2010-02-21T10:38:15.51</time>
<name>1960</name>
</trkpt>
<trkpt lat="48.942703" lon="8.646477">
<ele>275.5</ele>
<speed>1.4</speed>
<course>349.6</course>
<desc>Speed 1.4 km/h Distance 2.70 km</desc>
<time>2010-02-21T10:38:16.55</time>
<name>1961</name>
</trkpt>
<trkpt lat="48.942715" lon="8.646473">
<ele>274.5</ele>
<speed>2.7</speed>
<course>346.5</course>
<desc>Speed 2.7 km/h Distance 2.70 km</desc>
<time>2010-02-21T10:38:17.51</time>
<name>1962</name>
</trkpt>
<trkpt lat="48.942728" lon="8.646468">
<ele>274.0</ele>
<speed>2.4</speed>
<course>358.8</course>
<desc>Speed 2.4 km/h Distance 2.70 km</desc>
<time>2010-02-21T10:38:18.51</time>
<name>1963</name>
</trkpt>
<trkpt lat="48.942742" lon="8.646467">
<ele>276.0</ele>
<speed>1.9</speed>
<course>5.3</course>
<desc>Speed 1.9 km/h Distance 2.70 km</desc>
<time>2010-02-21T10:38:19.51</time>
<name>1964</name>
</trkpt>
<trkpt lat="48.942755" lon="8.646468">
<ele>277.0</ele>
<speed>1.4</speed>
<course>316.7</course>
<desc>Speed 1.4 km/h Distance 2.70 km</desc>
<time>2010-02-21T10:38:20.53</time>
<name>1965</name>
</trkpt>
<trkpt lat="48.942767" lon="8.646452">
<ele>271.5</ele>
<speed>1.9</speed>
<course>326.8</course>
<desc>Speed 1.9 km/h Distance 2.70 km</desc>
<time>2010-02-21T10:38:21.51</time>
<name>1966</name>
</trkpt>
<trkpt lat="48.942773" lon="8.646445">
<ele>271.5</ele>
<speed>0.5</speed>
<course>336.5</course>
<desc>Speed 0.5 km/h Distance 2.70 km</desc>
<time>2010-02-21T10:38:22.51</time>
<name>1967</name>
</trkpt>
<trkpt lat="48.942788" lon="8.646435">
<ele>270.0</ele>
<speed>2.1</speed>
<course>5.0</course>
<desc>Speed 2.1 km/h Distance 2.71 km</desc>
<time>2010-02-21T10:38:23.52</time>
<name>1968</name>
</trkpt>
<trkpt lat="48.942797" lon="8.646437">
<ele>270.0</ele>
<speed>2.3</speed>
<course>355.0</course>
<desc>Speed 2.3 km/h Distance 2.71 km</desc>
<time>2010-02-21T10:38:24.51</time>
<name>1969</name>
</trkpt>
<trkpt lat="48.942805" lon="8.646435">
<ele>269.5</ele>
<speed>2.0</speed>
<course>341.2</course>
<desc>Speed 2.0 km/h Distance 2.71 km</desc>
<time>2010-02-21T10:38:25.51</time>
<name>1970</name>
</trkpt>
<trkpt lat="48.942812" lon="8.646432">
<ele>270.0</ele>
<speed>0.4</speed>
<course>354.3</course>
<desc>Speed 0.4 km/h Distance 2.71 km</desc>
<time>2010-02-21T10:38:26.51</time>
<name>1971</name>
</trkpt>
<trkpt lat="48.942855" lon="8.646425">
<ele>275.5</ele>
<speed>3.3</speed>
<course>341.2</course>
<desc>Speed 3.3 km/h Distance 2.71 km</desc>
<time>2010-02-21T10:38:28.51</time>
<name>1972</name>
</trkpt>
<trkpt lat="48.942862" lon="8.646422">
<ele>273.5</ele>
<speed>0.8</speed>
<course>270.0</course>
<desc>Speed 0.8 km/h Distance 2.71 km</desc>
<time>2010-02-21T10:38:29.51</time>
<name>1973</name>
</trkpt>
<trkpt lat="48.942862" lon="8.646417">
<ele>274.0</ele>
<speed>2.1</speed>
<course>7.4</course>
<desc>Speed 2.1 km/h Distance 2.71 km</desc>
<time>2010-02-21T10:38:30.51</time>
<name>1974</name>
</trkpt>
<trkpt lat="48.942868" lon="8.646418">
<ele>274.5</ele>
<speed>0.8</speed>
<course>315.5</course>
<desc>Speed 0.8 km/h Distance 2.71 km</desc>
<time>2010-02-21T10:38:31.51</time>
<name>1975</name>
</trkpt>
<trkpt lat="48.942872" lon="8.646413">
<ele>273.5</ele>
<speed>0.7</speed>
<course>18.8</course>
<desc>Speed 0.7 km/h Distance 2.72 km</desc>
<time>2010-02-21T10:38:32.51</time>
<name>1976</name>
</trkpt>
<trkpt lat="48.942878" lon="8.646417">
<ele>275.0</ele>
<speed>2.1</speed>
<course>326.8</course>
<desc>Speed 2.1 km/h Distance 2.72 km</desc>
<time>2010-02-21T10:38:33.51</time>
<name>1977</name>
</trkpt>
<trkpt lat="48.942888" lon="8.646407">
<ele>271.5</ele>
<speed>1.2</speed>
<course>315.4</course>
<desc>Speed 1.2 km/h Distance 2.72 km</desc>
<time>2010-02-21T10:38:34.51</time>
<name>1978</name>
</trkpt>
<trkpt lat="48.942898" lon="8.646392">
<ele>265.5</ele>
<speed>0.8</speed>
<course>357.4</course>
<desc>Speed 0.8 km/h Distance 2.72 km</desc>
<time>2010-02-21T10:38:35.51</time>
<name>1979</name>
</trkpt>
<trkpt lat="48.942945" lon="8.646388">
<ele>271.5</ele>
<speed>1.7</speed>
<course>350.7</course>
<desc>Speed 1.7 km/h Distance 2.72 km</desc>
<time>2010-02-21T10:38:37.51</time>
<name>1980</name>
</trkpt>
<trkpt lat="48.943018" lon="8.646370">
<ele>281.0</ele>
<speed>2.0</speed>
<course>356.4</course>
<desc>Speed 2.0 km/h Distance 2.73 km</desc>
<time>2010-02-21T10:38:39.51</time>
<name>1981</name>
</trkpt>
<trkpt lat="48.943070" lon="8.646365">
<ele>285.0</ele>
<speed>1.8</speed>
<course>354.2</course>
<desc>Speed 1.8 km/h Distance 2.74 km</desc>
<time>2010-02-21T10:38:41.51</time>
<name>1982</name>
</trkpt>
<trkpt lat="48.943113" lon="8.646358">
<ele>282.5</ele>
<speed>2.1</speed>
<course>4.7</course>
<desc>Speed 2.1 km/h Distance 2.74 km</desc>
<time>2010-02-21T10:38:43.51</time>
<name>1983</name>
</trkpt>
<trkpt lat="48.943125" lon="8.646360">
<ele>282.0</ele>
<speed>2.6</speed>
<course>15.5</course>
<desc>Speed 2.6 km/h Distance 2.74 km</desc>
<time>2010-02-21T10:38:44.51</time>
<name>1984</name>
</trkpt>
<trkpt lat="48.943137" lon="8.646365">
<ele>283.5</ele>
<speed>3.1</speed>
<course>336.2</course>
<desc>Speed 3.1 km/h Distance 2.75 km</desc>
<time>2010-02-21T10:38:45.51</time>
<name>1985</name>
</trkpt>
<trkpt lat="48.943147" lon="8.646358">
<ele>281.0</ele>
<speed>1.9</speed>
<course>341.2</course>
<desc>Speed 1.9 km/h Distance 2.75 km</desc>
<time>2010-02-21T10:38:46.51</time>
<name>1986</name>
</trkpt>
<trkpt lat="48.943153" lon="8.646355">
<ele>280.5</ele>
<speed>0.8</speed>
<course>34.1</course>
<desc>Speed 0.8 km/h Distance 2.75 km</desc>
<time>2010-02-21T10:38:47.51</time>
<name>1987</name>
</trkpt>
<trkpt lat="48.943158" lon="8.646360">
<ele>281.0</ele>
<speed>0.9</speed>
<course>18.2</course>
<desc>Speed 0.9 km/h Distance 2.75 km</desc>
<time>2010-02-21T10:38:48.51</time>
<name>1988</name>
</trkpt>
<trkpt lat="48.943168" lon="8.646365">
<ele>282.5</ele>
<speed>2.0</speed>
<course>333.6</course>
<desc>Speed 2.0 km/h Distance 2.75 km</desc>
<time>2010-02-21T10:38:49.51</time>
<name>1989</name>
</trkpt>
<trkpt lat="48.943175" lon="8.646360">
<ele>280.0</ele>
<speed>0.8</speed>
<course>13.5</course>
<desc>Speed 0.8 km/h Distance 2.75 km</desc>
<time>2010-02-21T10:38:50.51</time>
<name>1990</name>
</trkpt>
<trkpt lat="48.943188" lon="8.646365">
<ele>281.5</ele>
<speed>1.7</speed>
<course>12.6</course>
<desc>Speed 1.7 km/h Distance 2.75 km</desc>
<time>2010-02-21T10:38:51.51</time>
<name>1991</name>
</trkpt>
<trkpt lat="48.943190" lon="8.646365">
<ele>282.0</ele>
<speed>0.6</speed>
<course>29.2</course>
<desc>Speed 0.6 km/h Distance 2.75 km</desc>
<time>2010-02-21T10:38:52.51</time>
<name>1992</name>
</trkpt>
<trkpt lat="48.943192" lon="8.646367">
<ele>280.5</ele>
<speed>1.1</speed>
<course>326.8</course>
<desc>Speed 1.1 km/h Distance 2.75 km</desc>
<time>2010-02-21T10:38:53.51</time>
<name>1993</name>
</trkpt>
<trkpt lat="48.943200" lon="8.646358">
<ele>277.5</ele>
<speed>0.8</speed>
<course>290.9</course>
<desc>Speed 0.8 km/h Distance 2.75 km</desc>
<time>2010-02-21T10:38:54.51</time>
<name>1994</name>
</trkpt>
<trkpt lat="48.943202" lon="8.646352">
<ele>275.0</ele>
<speed>0.4</speed>
<course>339.9</course>
<desc>Speed 0.4 km/h Distance 2.75 km</desc>
<time>2010-02-21T10:38:55.51</time>
<name>1995</name>
</trkpt>
<trkpt lat="48.943217" lon="8.646343">
<ele>272.5</ele>
<speed>1.1</speed>
<course>345.1</course>
<desc>Speed 1.1 km/h Distance 2.76 km</desc>
<time>2010-02-21T10:38:56.52</time>
<name>1996</name>
</trkpt>
<trkpt lat="48.943225" lon="8.646340">
<ele>270.0</ele>
<speed>1.4</speed>
<course>345.1</course>
<desc>Speed 1.4 km/h Distance 2.76 km</desc>
<time>2010-02-21T10:38:57.51</time>
<name>1997</name>
</trkpt>
<trkpt lat="48.943233" lon="8.646337">
<ele>267.0</ele>
<speed>1.8</speed>
<course>6.6</course>
<desc>Speed 1.8 km/h Distance 2.76 km</desc>
<time>2010-02-21T10:38:58.51</time>
<name>1998</name>
</trkpt>
<trkpt lat="48.943243" lon="8.646338">
<ele>268.5</ele>
<speed>1.8</speed>
<course>352.5</course>
<desc>Speed 1.8 km/h Distance 2.76 km</desc>
<time>2010-02-21T10:38:59.51</time>
<name>1999</name>
</trkpt>
<trkpt lat="48.943258" lon="8.646335">
<ele>269.0</ele>
<speed>2.3</speed>
<course>336.5</course>
<desc>Speed 2.3 km/h Distance 2.76 km</desc>
<time>2010-02-21T10:39:00.51</time>
<name>2000</name>
</trkpt>
<trkpt lat="48.943273" lon="8.646325">
<ele>266.5</ele>
<speed>0.9</speed>
<course>312.4</course>
<desc>Speed 0.9 km/h Distance 2.76 km</desc>
<time>2010-02-21T10:39:01.51</time>
<name>2001</name>
</trkpt>
<trkpt lat="48.943283" lon="8.646308">
<ele>260.0</ele>
<speed>1.4</speed>
<course>336.2</course>
<desc>Speed 1.4 km/h Distance 2.76 km</desc>
<time>2010-02-21T10:39:02.51</time>
<name>2002</name>
</trkpt>
<trkpt lat="48.943288" lon="8.646305">
<ele>258.0</ele>
<speed>0.8</speed>
<course>0.0</course>
<desc>Speed 0.8 km/h Distance 2.76 km</desc>
<time>2010-02-21T10:39:03.51</time>
<name>2003</name>
</trkpt>
<trkpt lat="48.943307" lon="8.646305">
<ele>260.0</ele>
<speed>4.2</speed>
<course>12.6</course>
<desc>Speed 4.2 km/h Distance 2.77 km</desc>
<time>2010-02-21T10:39:04.51</time>
<name>2004</name>
</trkpt>
<trkpt lat="48.943313" lon="8.646307">
<ele>260.5</ele>
<speed>0.5</speed>
<course>18.2</course>
<desc>Speed 0.5 km/h Distance 2.77 km</desc>
<time>2010-02-21T10:39:05.51</time>
<name>2005</name>
</trkpt>
<trkpt lat="48.943323" lon="8.646312">
<ele>261.5</ele>
<speed>0.5</speed>
<course>326.3</course>
<desc>Speed 0.5 km/h Distance 2.77 km</desc>
<time>2010-02-21T10:39:06.51</time>
<name>2006</name>
</trkpt>
<trkpt lat="48.943327" lon="8.646308">
<ele>261.0</ele>
<speed>0.4</speed>
<course>352.6</course>
<desc>Speed 0.4 km/h Distance 2.77 km</desc>
<time>2010-02-21T10:39:07.51</time>
<name>2007</name>
</trkpt>
<trkpt lat="48.943333" lon="8.646307">
<ele>261.0</ele>
<speed>0.2</speed>
<course>2.5</course>
<desc>Speed 0.2 km/h Distance 2.77 km</desc>
<time>2010-02-21T10:39:08.51</time>
<name>2008</name>
</trkpt>
<trkpt lat="48.943352" lon="8.646308">
<ele>263.5</ele>
<speed>5.0</speed>
<course>3.9</course>
<desc>Speed 5.0 km/h Distance 2.77 km</desc>
<time>2010-02-21T10:39:09.51</time>
<name>2009</name>
</trkpt>
<trkpt lat="48.943365" lon="8.646310">
<ele>265.0</ele>
<speed>1.8</speed>
<course>3.8</course>
<desc>Speed 1.8 km/h Distance 2.77 km</desc>
<time>2010-02-21T10:39:10.51</time>
<name>2010</name>
</trkpt>
<trkpt lat="48.943395" lon="8.646313">
<ele>267.0</ele>
<speed>1.4</speed>
<course>357.3</course>
<desc>Speed 1.4 km/h Distance 2.78 km</desc>
<time>2010-02-21T10:39:12.51</time>
<name>2011</name>
</trkpt>
<trkpt lat="48.943415" lon="8.646312">
<ele>267.0</ele>
<speed>1.0</speed>
<course>4.4</course>
<desc>Speed 1.0 km/h Distance 2.78 km</desc>
<time>2010-02-21T10:39:13.51</time>
<name>2012</name>
</trkpt>
<trkpt lat="48.943425" lon="8.646312">
<ele>264.0</ele>
<speed>1.8</speed>
<course>20.9</course>
<desc>Speed 1.8 km/h Distance 2.78 km</desc>
<time>2010-02-21T10:39:14.51</time>
<name>2013</name>
</trkpt>
<trkpt lat="48.943437" lon="8.646318">
<ele>266.0</ele>
<speed>1.4</speed>
<course>13.3</course>
<desc>Speed 1.4 km/h Distance 2.78 km</desc>
<time>2010-02-21T10:39:15.51</time>
<name>2014</name>
</trkpt>
<trkpt lat="48.943455" lon="8.646325">
<ele>267.0</ele>
<speed>1.4</speed>
<course>356.5</course>
<desc>Speed 1.4 km/h Distance 2.78 km</desc>
<time>2010-02-21T10:39:16.51</time>
<name>2015</name>
</trkpt>
<trkpt lat="48.943507" lon="8.646320">
<ele>271.5</ele>
<speed>0.9</speed>
<course>355.6</course>
<desc>Speed 0.9 km/h Distance 2.79 km</desc>
<time>2010-02-21T10:39:18.51</time>
<name>2016</name>
</trkpt>
<trkpt lat="48.943517" lon="8.646318">
<ele>270.0</ele>
<speed>1.3</speed>
<course>10.4</course>
<desc>Speed 1.3 km/h Distance 2.79 km</desc>
<time>2010-02-21T10:39:19.51</time>
<name>2017</name>
</trkpt>
<trkpt lat="48.943528" lon="8.646322">
<ele>269.0</ele>
<speed>1.6</speed>
<course>11.2</course>
<desc>Speed 1.6 km/h Distance 2.79 km</desc>
<time>2010-02-21T10:39:20.51</time>
<name>2018</name>
</trkpt>
<trkpt lat="48.943545" lon="8.646327">
<ele>269.5</ele>
<speed>1.2</speed>
<course>12.9</course>
<desc>Speed 1.2 km/h Distance 2.79 km</desc>
<time>2010-02-21T10:39:21.51</time>
<name>2019</name>
</trkpt>
<trkpt lat="48.943583" lon="8.646340">
<ele>272.0</ele>
<speed>1.1</speed>
<course>7.0</course>
<desc>Speed 1.1 km/h Distance 2.80 km</desc>
<time>2010-02-21T10:39:23.51</time>
<name>2020</name>
</trkpt>
<trkpt lat="48.943602" lon="8.646343">
<ele>274.5</ele>
<speed>1.4</speed>
<course>333.8</course>
<desc>Speed 1.4 km/h Distance 2.80 km</desc>
<time>2010-02-21T10:39:24.51</time>
<name>2021</name>
</trkpt>
<trkpt lat="48.943628" lon="8.646323">
<ele>270.5</ele>
<speed>0.6</speed>
<course>0.0</course>
<desc>Speed 0.6 km/h Distance 2.80 km</desc>
<time>2010-02-21T10:39:26.51</time>
<name>2022</name>
</trkpt>
<trkpt lat="48.943637" lon="8.646323">
<ele>269.0</ele>
<speed>1.1</speed>
<course>338.5</course>
<desc>Speed 1.1 km/h Distance 2.80 km</desc>
<time>2010-02-21T10:39:27.51</time>
<name>2023</name>
</trkpt>
<trkpt lat="48.943645" lon="8.646318">
<ele>267.0</ele>
<speed>2.0</speed>
<course>32.3</course>
<desc>Speed 2.0 km/h Distance 2.81 km</desc>
<time>2010-02-21T10:39:28.51</time>
<name>2024</name>
</trkpt>
<trkpt lat="48.943650" lon="8.646323">
<ele>267.5</ele>
<speed>1.8</speed>
<course>14.9</course>
<desc>Speed 1.8 km/h Distance 2.81 km</desc>
<time>2010-02-21T10:39:29.51</time>
<name>2025</name>
</trkpt>
<trkpt lat="48.943658" lon="8.646327">
<ele>267.5</ele>
<speed>1.2</speed>
<course>344.0</course>
<desc>Speed 1.2 km/h Distance 2.81 km</desc>
<time>2010-02-21T10:39:30.51</time>
<name>2026</name>
</trkpt>
<trkpt lat="48.943670" lon="8.646322">
<ele>264.5</ele>
<speed>2.1</speed>
<course>351.0</course>
<desc>Speed 2.1 km/h Distance 2.81 km</desc>
<time>2010-02-21T10:39:31.51</time>
<name>2027</name>
</trkpt>
<trkpt lat="48.943683" lon="8.646318">
<ele>263.0</ele>
<speed>0.4</speed>
<course>18.1</course>
<desc>Speed 0.4 km/h Distance 2.81 km</desc>
<time>2010-02-21T10:39:32.51</time>
<name>2028</name>
</trkpt>
<trkpt lat="48.943697" lon="8.646325">
<ele>264.5</ele>
<speed>1.5</speed>
<course>1.2</course>
<desc>Speed 1.5 km/h Distance 2.81 km</desc>
<time>2010-02-21T10:39:33.51</time>
<name>2029</name>
</trkpt>
<trkpt lat="48.943703" lon="8.646325">
<ele>264.0</ele>
<speed>1.7</speed>
<course>355.0</course>
<desc>Speed 1.7 km/h Distance 2.81 km</desc>
<time>2010-02-21T10:39:34.51</time>
<name>2030</name>
</trkpt>
<trkpt lat="48.943712" lon="8.646323">
<ele>263.5</ele>
<speed>2.2</speed>
<course>351.9</course>
<desc>Speed 2.2 km/h Distance 2.81 km</desc>
<time>2010-02-21T10:39:35.51</time>
<name>2031</name>
</trkpt>
<trkpt lat="48.943722" lon="8.646322">
<ele>263.5</ele>
<speed>1.9</speed>
<course>5.0</course>
<desc>Speed 1.9 km/h Distance 2.81 km</desc>
<time>2010-02-21T10:39:36.51</time>
<name>2032</name>
</trkpt>
<trkpt lat="48.943730" lon="8.646322">
<ele>262.5</ele>
<speed>2.6</speed>
<course>1.9</course>
<desc>Speed 2.6 km/h Distance 2.81 km</desc>
<time>2010-02-21T10:39:37.51</time>
<name>2033</name>
</trkpt>
<trkpt lat="48.943745" lon="8.646322">
<ele>262.5</ele>
<speed>1.9</speed>
<course>4.9</course>
<desc>Speed 1.9 km/h Distance 2.82 km</desc>
<time>2010-02-21T10:39:38.51</time>
<name>2034</name>
</trkpt>
<trkpt lat="48.943782" lon="8.646327">
<ele>264.5</ele>
<speed>2.3</speed>
<course>0.0</course>
<desc>Speed 2.3 km/h Distance 2.82 km</desc>
<time>2010-02-21T10:39:40.51</time>
<name>2035</name>
</trkpt>
<trkpt lat="48.943793" lon="8.646327">
<ele>262.0</ele>
<speed>2.2</speed>
<course>16.0</course>
<desc>Speed 2.2 km/h Distance 2.82 km</desc>
<time>2010-02-21T10:39:41.51</time>
<name>2036</name>
</trkpt>
<trkpt lat="48.943808" lon="8.646333">
<ele>263.5</ele>
<speed>3.7</speed>
<course>0.0</course>
<desc>Speed 3.7 km/h Distance 2.82 km</desc>
<time>2010-02-21T10:39:42.51</time>
<name>2037</name>
</trkpt>
<trkpt lat="48.943815" lon="8.646333">
<ele>260.5</ele>
<speed>2.0</speed>
<course>47.4</course>
<desc>Speed 2.0 km/h Distance 2.82 km</desc>
<time>2010-02-21T10:39:43.51</time>
<name>2038</name>
</trkpt>
<trkpt lat="48.943820" lon="8.646342">
<ele>259.5</ele>
<speed>2.2</speed>
<course>49.1</course>
<desc>Speed 2.2 km/h Distance 2.83 km</desc>
<time>2010-02-21T10:39:44.51</time>
<name>2039</name>
</trkpt>
<trkpt lat="48.943827" lon="8.646353">
<ele>258.5</ele>
<speed>2.3</speed>
<course>21.5</course>
<desc>Speed 2.3 km/h Distance 2.83 km</desc>
<time>2010-02-21T10:39:45.51</time>
<name>2040</name>
</trkpt>
<trkpt lat="48.943835" lon="8.646358">
<ele>258.5</ele>
<speed>2.4</speed>
<course>44.5</course>
<desc>Speed 2.4 km/h Distance 2.83 km</desc>
<time>2010-02-21T10:39:46.51</time>
<name>2041</name>
</trkpt>
<trkpt lat="48.943845" lon="8.646373">
<ele>259.0</ele>
<speed>2.6</speed>
<course>25.5</course>
<desc>Speed 2.6 km/h Distance 2.83 km</desc>
<time>2010-02-21T10:39:47.51</time>
<name>2042</name>
</trkpt>
<trkpt lat="48.943863" lon="8.646387">
<ele>262.0</ele>
<speed>2.6</speed>
<course>23.8</course>
<desc>Speed 2.6 km/h Distance 2.83 km</desc>
<time>2010-02-21T10:39:48.51</time>
<name>2043</name>
</trkpt>
<trkpt lat="48.943873" lon="8.646393">
<ele>261.5</ele>
<speed>2.3</speed>
<course>36.6</course>
<desc>Speed 2.3 km/h Distance 2.83 km</desc>
<time>2010-02-21T10:39:49.51</time>
<name>2044</name>
</trkpt>
<trkpt lat="48.943887" lon="8.646408">
<ele>261.5</ele>
<speed>3.7</speed>
<course>3.7</course>
<desc>Speed 3.7 km/h Distance 2.83 km</desc>
<time>2010-02-21T10:39:50.51</time>
<name>2045</name>
</trkpt>
<trkpt lat="48.943905" lon="8.646410">
<ele>258.0</ele>
<speed>3.5</speed>
<course>20.6</course>
<desc>Speed 3.5 km/h Distance 2.84 km</desc>
<time>2010-02-21T10:39:51.51</time>
<name>2046</name>
</trkpt>
<trkpt lat="48.943928" lon="8.646423">
<ele>260.0</ele>
<speed>3.6</speed>
<course>25.0</course>
<desc>Speed 3.6 km/h Distance 2.84 km</desc>
<time>2010-02-21T10:39:52.51</time>
<name>2047</name>
</trkpt>
<trkpt lat="48.943980" lon="8.646460">
<ele>265.5</ele>
<speed>4.1</speed>
<course>33.4</course>
<desc>Speed 4.1 km/h Distance 2.85 km</desc>
<time>2010-02-21T10:39:54.51</time>
<name>2048</name>
</trkpt>
<trkpt lat="48.943992" lon="8.646472">
<ele>264.0</ele>
<speed>2.8</speed>
<course>52.8</course>
<desc>Speed 2.8 km/h Distance 2.85 km</desc>
<time>2010-02-21T10:39:55.51</time>
<name>2049</name>
</trkpt>
<trkpt lat="48.944003" lon="8.646495">
<ele>265.0</ele>
<speed>3.9</speed>
<course>63.0</course>
<desc>Speed 3.9 km/h Distance 2.85 km</desc>
<time>2010-02-21T10:39:56.51</time>
<name>2050</name>
</trkpt>
<trkpt lat="48.944007" lon="8.646505">
<ele>262.5</ele>
<speed>2.6</speed>
<course>73.1</course>
<desc>Speed 2.6 km/h Distance 2.85 km</desc>
<time>2010-02-21T10:39:57.51</time>
<name>2051</name>
</trkpt>
<trkpt lat="48.944008" lon="8.646513">
<ele>259.0</ele>
<speed>2.6</speed>
<course>33.3</course>
<desc>Speed 2.6 km/h Distance 2.85 km</desc>
<time>2010-02-21T10:39:58.51</time>
<name>2052</name>
</trkpt>
<trkpt lat="48.944050" lon="8.646555">
<ele>263.0</ele>
<speed>4.5</speed>
<course>30.0</course>
<desc>Speed 4.5 km/h Distance 2.86 km</desc>
<time>2010-02-21T10:40:00.51</time>
<name>2053</name>
</trkpt>
<trkpt lat="48.944063" lon="8.646567">
<ele>264.5</ele>
<speed>4.8</speed>
<course>37.5</course>
<desc>Speed 4.8 km/h Distance 2.86 km</desc>
<time>2010-02-21T10:40:01.51</time>
<name>2054</name>
</trkpt>
<trkpt lat="48.944073" lon="8.646578">
<ele>265.0</ele>
<speed>3.6</speed>
<course>47.8</course>
<desc>Speed 3.6 km/h Distance 2.86 km</desc>
<time>2010-02-21T10:40:02.51</time>
<name>2055</name>
</trkpt>
<trkpt lat="48.944078" lon="8.646587">
<ele>264.5</ele>
<speed>3.0</speed>
<course>31.3</course>
<desc>Speed 3.0 km/h Distance 2.86 km</desc>
<time>2010-02-21T10:40:03.51</time>
<name>2056</name>
</trkpt>
<trkpt lat="48.944100" lon="8.646607">
<ele>268.0</ele>
<speed>3.3</speed>
<course>19.4</course>
<desc>Speed 3.3 km/h Distance 2.86 km</desc>
<time>2010-02-21T10:40:04.51</time>
<name>2057</name>
</trkpt>
<trkpt lat="48.944122" lon="8.646618">
<ele>269.0</ele>
<speed>5.0</speed>
<course>63.1</course>
<desc>Speed 5.0 km/h Distance 2.87 km</desc>
<time>2010-02-21T10:40:05.51</time>
<name>2058</name>
</trkpt>
<trkpt lat="48.944130" lon="8.646643">
<ele>267.0</ele>
<speed>5.4</speed>
<course>37.2</course>
<desc>Speed 5.4 km/h Distance 2.87 km</desc>
<time>2010-02-21T10:40:06.51</time>
<name>2059</name>
</trkpt>
<trkpt lat="48.944152" lon="8.646668">
<ele>269.5</ele>
<speed>3.9</speed>
<course>48.4</course>
<desc>Speed 3.9 km/h Distance 2.87 km</desc>
<time>2010-02-21T10:40:07.51</time>
<name>2060</name>
</trkpt>
<trkpt lat="48.944163" lon="8.646688">
<ele>270.5</ele>
<speed>4.6</speed>
<course>90.0</course>
<desc>Speed 4.6 km/h Distance 2.87 km</desc>
<time>2010-02-21T10:40:08.51</time>
<name>2061</name>
</trkpt>
<trkpt lat="48.944163" lon="8.646703">
<ele>268.5</ele>
<speed>3.0</speed>
<course>24.8</course>
<desc>Speed 3.0 km/h Distance 2.87 km</desc>
<time>2010-02-21T10:40:09.51</time>
<name>2062</name>
</trkpt>
<trkpt lat="48.944170" lon="8.646708">
<ele>263.5</ele>
<speed>2.8</speed>
<course>40.9</course>
<desc>Speed 2.8 km/h Distance 2.87 km</desc>
<time>2010-02-21T10:40:10.51</time>
<name>2063</name>
</trkpt>
<trkpt lat="48.944175" lon="8.646715">
<ele>262.0</ele>
<speed>2.4</speed>
<course>5.0</course>
<desc>Speed 2.4 km/h Distance 2.88 km</desc>
<time>2010-02-21T10:40:11.51</time>
<name>2064</name>
</trkpt>
<trkpt lat="48.944183" lon="8.646715">
<ele>260.0</ele>
<speed>1.4</speed>
<course>90.0</course>
<desc>Speed 1.4 km/h Distance 2.88 km</desc>
<time>2010-02-21T10:40:12.51</time>
<name>2065</name>
</trkpt>
<trkpt lat="48.944183" lon="8.646722">
<ele>258.0</ele>
<speed>1.1</speed>
<course>90.0</course>
<desc>Speed 1.1 km/h Distance 2.88 km</desc>
<time>2010-02-21T10:40:13.51</time>
<name>2066</name>
</trkpt>
<trkpt lat="48.944183" lon="8.646725">
<ele>257.0</ele>
<speed>1.7</speed>
<course>44.5</course>
<desc>Speed 1.7 km/h Distance 2.88 km</desc>
<time>2010-02-21T10:40:14.51</time>
<name>2067</name>
</trkpt>
<trkpt lat="48.944187" lon="8.646730">
<ele>257.0</ele>
<speed>2.1</speed>
<course>56.9</course>
<desc>Speed 2.1 km/h Distance 2.88 km</desc>
<time>2010-02-21T10:40:15.51</time>
<name>2068</name>
</trkpt>
<trkpt lat="48.944192" lon="8.646742">
<ele>257.5</ele>
<speed>2.0</speed>
<course>66.5</course>
<desc>Speed 2.0 km/h Distance 2.88 km</desc>
<time>2010-02-21T10:40:16.51</time>
<name>2069</name>
</trkpt>
<trkpt lat="48.944195" lon="8.646753">
<ele>259.0</ele>
<speed>2.4</speed>
<course>12.6</course>
<desc>Speed 2.4 km/h Distance 2.88 km</desc>
<time>2010-02-21T10:40:17.51</time>
<name>2070</name>
</trkpt>
<trkpt lat="48.944205" lon="8.646757">
<ele>260.5</ele>
<speed>1.8</speed>
<course>7.4</course>
<desc>Speed 1.8 km/h Distance 2.88 km</desc>
<time>2010-02-21T10:40:18.51</time>
<name>2071</name>
</trkpt>
<trkpt lat="48.944212" lon="8.646758">
<ele>261.5</ele>
<speed>1.5</speed>
<course>6.3</course>
<desc>Speed 1.5 km/h Distance 2.88 km</desc>
<time>2010-02-21T10:40:19.51</time>
<name>2072</name>
</trkpt>
<trkpt lat="48.944223" lon="8.646760">
<ele>262.5</ele>
<speed>1.2</speed>
<course>12.6</course>
<desc>Speed 1.2 km/h Distance 2.88 km</desc>
<time>2010-02-21T10:40:20.51</time>
<name>2073</name>
</trkpt>
<trkpt lat="48.944228" lon="8.646762">
<ele>260.5</ele>
<speed>1.2</speed>
<course>39.4</course>
<desc>Speed 1.2 km/h Distance 2.88 km</desc>
<time>2010-02-21T10:40:21.51</time>
<name>2074</name>
</trkpt>
<trkpt lat="48.944235" lon="8.646770">
<ele>261.0</ele>
<speed>2.4</speed>
<course>38.1</course>
<desc>Speed 2.4 km/h Distance 2.88 km</desc>
<time>2010-02-21T10:40:22.51</time>
<name>2075</name>
</trkpt>
<trkpt lat="48.944243" lon="8.646780">
<ele>262.0</ele>
<speed>4.0</speed>
<course>20.6</course>
<desc>Speed 4.0 km/h Distance 2.89 km</desc>
<time>2010-02-21T10:40:23.51</time>
<name>2076</name>
</trkpt>
<trkpt lat="48.944302" lon="8.646813">
<ele>273.0</ele>
<speed>1.1</speed>
<course>36.5</course>
<desc>Speed 1.1 km/h Distance 2.89 km</desc>
<time>2010-02-21T10:40:25.51</time>
<name>2077</name>
</trkpt>
<trkpt lat="48.944315" lon="8.646828">
<ele>273.5</ele>
<speed>2.3</speed>
<course>72.9</course>
<desc>Speed 2.3 km/h Distance 2.89 km</desc>
<time>2010-02-21T10:40:26.51</time>
<name>2078</name>
</trkpt>
<trkpt lat="48.944317" lon="8.646837">
<ele>270.0</ele>
<speed>1.6</speed>
<course>25.2</course>
<desc>Speed 1.6 km/h Distance 2.89 km</desc>
<time>2010-02-21T10:40:27.51</time>
<name>2079</name>
</trkpt>
<trkpt lat="48.944328" lon="8.646845">
<ele>270.5</ele>
<speed>1.9</speed>
<course>64.9</course>
<desc>Speed 1.9 km/h Distance 2.90 km</desc>
<time>2010-02-21T10:40:28.51</time>
<name>2080</name>
</trkpt>
<trkpt lat="48.944335" lon="8.646867">
<ele>270.0</ele>
<speed>2.7</speed>
<course>15.9</course>
<desc>Speed 2.7 km/h Distance 2.90 km</desc>
<time>2010-02-21T10:40:29.51</time>
<name>2081</name>
</trkpt>
<trkpt lat="48.944412" lon="8.646900">
<ele>283.5</ele>
<speed>2.2</speed>
<course>9.5</course>
<desc>Speed 2.2 km/h Distance 2.91 km</desc>
<time>2010-02-21T10:40:31.51</time>
<name>2082</name>
</trkpt>
<trkpt lat="48.944483" lon="8.646918">
<ele>293.0</ele>
<speed>3.0</speed>
<course>26.5</course>
<desc>Speed 3.0 km/h Distance 2.91 km</desc>
<time>2010-02-21T10:40:33.51</time>
<name>2083</name>
</trkpt>
<trkpt lat="48.944532" lon="8.646955">
<ele>300.5</ele>
<speed>3.5</speed>
<course>30.3</course>
<desc>Speed 3.5 km/h Distance 2.92 km</desc>
<time>2010-02-21T10:40:35.51</time>
<name>2084</name>
</trkpt>
<trkpt lat="48.944547" lon="8.646968">
<ele>300.5</ele>
<speed>4.0</speed>
<course>29.8</course>
<desc>Speed 4.0 km/h Distance 2.92 km</desc>
<time>2010-02-21T10:40:36.51</time>
<name>2085</name>
</trkpt>
<trkpt lat="48.944560" lon="8.646980">
<ele>301.0</ele>
<speed>3.3</speed>
<course>29.8</course>
<desc>Speed 3.3 km/h Distance 2.92 km</desc>
<time>2010-02-21T10:40:37.51</time>
<name>2086</name>
</trkpt>
<trkpt lat="48.944573" lon="8.646992">
<ele>302.5</ele>
<speed>2.3</speed>
<course>66.5</course>
<desc>Speed 2.3 km/h Distance 2.93 km</desc>
<time>2010-02-21T10:40:38.51</time>
<name>2087</name>
</trkpt>
<trkpt lat="48.944577" lon="8.647003">
<ele>302.0</ele>
<speed>3.2</speed>
<course>44.5</course>
<desc>Speed 3.2 km/h Distance 2.93 km</desc>
<time>2010-02-21T10:40:39.51</time>
<name>2088</name>
</trkpt>
<trkpt lat="48.944583" lon="8.647013">
<ele>303.0</ele>
<speed>3.3</speed>
<course>39.4</course>
<desc>Speed 3.3 km/h Distance 2.93 km</desc>
<time>2010-02-21T10:40:40.51</time>
<name>2089</name>
</trkpt>
<trkpt lat="48.944590" lon="8.647022">
<ele>304.0</ele>
<speed>2.7</speed>
<course>29.8</course>
<desc>Speed 2.7 km/h Distance 2.93 km</desc>
<time>2010-02-21T10:40:41.51</time>
<name>2090</name>
</trkpt>
<trkpt lat="48.944603" lon="8.647033">
<ele>305.5</ele>
<speed>3.5</speed>
<course>25.5</course>
<desc>Speed 3.5 km/h Distance 2.93 km</desc>
<time>2010-02-21T10:40:42.51</time>
<name>2091</name>
</trkpt>
<trkpt lat="48.944622" lon="8.647047">
<ele>306.5</ele>
<speed>3.4</speed>
<course>77.7</course>
<desc>Speed 3.4 km/h Distance 2.93 km</desc>
<time>2010-02-21T10:40:43.51</time>
<name>2092</name>
</trkpt>
<trkpt lat="48.944623" lon="8.647058">
<ele>306.0</ele>
<speed>3.1</speed>
<course>100.7</course>
<desc>Speed 3.1 km/h Distance 2.93 km</desc>
<time>2010-02-21T10:40:44.51</time>
<name>2093</name>
</trkpt>
<trkpt lat="48.944622" lon="8.647072">
<ele>304.5</ele>
<speed>2.4</speed>
<course>43.5</course>
<desc>Speed 2.4 km/h Distance 2.93 km</desc>
<time>2010-02-21T10:40:45.51</time>
<name>2094</name>
</trkpt>
<trkpt lat="48.944625" lon="8.647077">
<ele>303.0</ele>
<speed>1.5</speed>
<course>38.1</course>
<desc>Speed 1.5 km/h Distance 2.94 km</desc>
<time>2010-02-21T10:40:46.51</time>
<name>2095</name>
</trkpt>
<trkpt lat="48.944633" lon="8.647087">
<ele>304.0</ele>
<speed>2.0</speed>
<course>33.7</course>
<desc>Speed 2.0 km/h Distance 2.94 km</desc>
<time>2010-02-21T10:40:47.51</time>
<name>2096</name>
</trkpt>
<trkpt lat="48.944640" lon="8.647093">
<ele>304.0</ele>
<speed>2.3</speed>
<course>90.0</course>
<desc>Speed 2.3 km/h Distance 2.94 km</desc>
<time>2010-02-21T10:40:48.51</time>
<name>2097</name>
</trkpt>
<trkpt lat="48.944640" lon="8.647105">
<ele>305.5</ele>
<speed>2.2</speed>
<course>34.1</course>
<desc>Speed 2.2 km/h Distance 2.94 km</desc>
<time>2010-02-21T10:40:49.51</time>
<name>2098</name>
</trkpt>
<trkpt lat="48.944645" lon="8.647110">
<ele>305.5</ele>
<speed>1.9</speed>
<course>41.4</course>
<desc>Speed 1.9 km/h Distance 2.94 km</desc>
<time>2010-02-21T10:40:50.51</time>
<name>2099</name>
</trkpt>
<trkpt lat="48.944650" lon="8.647117">
<ele>305.0</ele>
<speed>2.4</speed>
<course>102.3</course>
<desc>Speed 2.4 km/h Distance 2.94 km</desc>
<time>2010-02-21T10:40:51.51</time>
<name>2100</name>
</trkpt>
<trkpt lat="48.944648" lon="8.647128">
<ele>303.0</ele>
<speed>1.5</speed>
<course>3.5</course>
<desc>Speed 1.5 km/h Distance 2.94 km</desc>
<time>2010-02-21T10:40:52.51</time>
<name>2101</name>
</trkpt>
<trkpt lat="48.944682" lon="8.647132">
<ele>298.0</ele>
<speed>1.5</speed>
<course>16.0</course>
<desc>Speed 1.5 km/h Distance 2.94 km</desc>
<time>2010-02-21T10:40:54.51</time>
<name>2102</name>
</trkpt>
<trkpt lat="48.944697" lon="8.647138">
<ele>298.0</ele>
<speed>1.9</speed>
<course>53.0</course>
<desc>Speed 1.9 km/h Distance 2.95 km</desc>
<time>2010-02-21T10:40:55.51</time>
<name>2103</name>
</trkpt>
<trkpt lat="48.944700" lon="8.647145">
<ele>298.0</ele>
<speed>1.9</speed>
<course>40.9</course>
<desc>Speed 1.9 km/h Distance 2.95 km</desc>
<time>2010-02-21T10:40:56.51</time>
<name>2104</name>
</trkpt>
<trkpt lat="48.944705" lon="8.647152">
<ele>297.5</ele>
<speed>1.8</speed>
<course>44.5</course>
<desc>Speed 1.8 km/h Distance 2.95 km</desc>
<time>2010-02-21T10:40:57.51</time>
<name>2105</name>
</trkpt>
<trkpt lat="48.944712" lon="8.647162">
<ele>297.0</ele>
<speed>2.4</speed>
<course>66.4</course>
<desc>Speed 2.4 km/h Distance 2.95 km</desc>
<time>2010-02-21T10:40:58.51</time>
<name>2106</name>
</trkpt>
<trkpt lat="48.944715" lon="8.647173">
<ele>298.0</ele>
<speed>2.4</speed>
<course>65.4</course>
<desc>Speed 2.4 km/h Distance 2.95 km</desc>
<time>2010-02-21T10:40:59.51</time>
<name>2107</name>
</trkpt>
<trkpt lat="48.944720" lon="8.647190">
<ele>298.5</ele>
<speed>2.8</speed>
<course>104.2</course>
<desc>Speed 2.8 km/h Distance 2.95 km</desc>
<time>2010-02-21T10:41:00.51</time>
<name>2108</name>
</trkpt>
<trkpt lat="48.944718" lon="8.647200">
<ele>299.0</ele>
<speed>3.0</speed>
<course>90.0</course>
<desc>Speed 3.0 km/h Distance 2.95 km</desc>
<time>2010-02-21T10:41:01.51</time>
<name>2109</name>
</trkpt>
<trkpt lat="48.944718" lon="8.647212">
<ele>297.5</ele>
<speed>2.0</speed>
<course>90.0</course>
<desc>Speed 2.0 km/h Distance 2.95 km</desc>
<time>2010-02-21T10:41:02.51</time>
<name>2110</name>
</trkpt>
<trkpt lat="48.944718" lon="8.647223">
<ele>296.0</ele>
<speed>1.8</speed>
<course>99.6</course>
<desc>Speed 1.8 km/h Distance 2.95 km</desc>
<time>2010-02-21T10:41:03.51</time>
<name>2111</name>
</trkpt>
<trkpt lat="48.944717" lon="8.647238">
<ele>295.0</ele>
<speed>2.7</speed>
<course>40.9</course>
<desc>Speed 2.7 km/h Distance 2.95 km</desc>
<time>2010-02-21T10:41:04.51</time>
<name>2112</name>
</trkpt>
<trkpt lat="48.944722" lon="8.647245">
<ele>295.0</ele>
<speed>1.4</speed>
<course>33.7</course>
<desc>Speed 1.4 km/h Distance 2.96 km</desc>
<time>2010-02-21T10:41:05.51</time>
<name>2113</name>
</trkpt>
<trkpt lat="48.944728" lon="8.647252">
<ele>292.5</ele>
<speed>2.5</speed>
<course>42.6</course>
<desc>Speed 2.5 km/h Distance 2.96 km</desc>
<time>2010-02-21T10:41:06.51</time>
<name>2114</name>
</trkpt>
<trkpt lat="48.944737" lon="8.647263">
<ele>291.5</ele>
<speed>3.2</speed>
<course>90.0</course>
<desc>Speed 3.2 km/h Distance 2.96 km</desc>
<time>2010-02-21T10:41:07.51</time>
<name>2115</name>
</trkpt>
<trkpt lat="48.944737" lon="8.647273">
<ele>291.5</ele>
<speed>2.6</speed>
<course>18.2</course>
<desc>Speed 2.6 km/h Distance 2.96 km</desc>
<time>2010-02-21T10:41:08.51</time>
<name>2116</name>
</trkpt>
<trkpt lat="48.944747" lon="8.647278">
<ele>292.5</ele>
<speed>2.5</speed>
<course>22.3</course>
<desc>Speed 2.5 km/h Distance 2.96 km</desc>
<time>2010-02-21T10:41:09.51</time>
<name>2117</name>
</trkpt>
<trkpt lat="48.944760" lon="8.647287">
<ele>293.0</ele>
<speed>2.7</speed>
<course>75.8</course>
<desc>Speed 2.7 km/h Distance 2.96 km</desc>
<time>2010-02-21T10:41:10.51</time>
<name>2118</name>
</trkpt>
<trkpt lat="48.944762" lon="8.647297">
<ele>291.0</ele>
<speed>2.8</speed>
<course>44.5</course>
<desc>Speed 2.8 km/h Distance 2.96 km</desc>
<time>2010-02-21T10:41:11.51</time>
<name>2119</name>
</trkpt>
<trkpt lat="48.944768" lon="8.647307">
<ele>290.5</ele>
<speed>2.4</speed>
<course>51.9</course>
<desc>Speed 2.4 km/h Distance 2.96 km</desc>
<time>2010-02-21T10:41:12.51</time>
<name>2120</name>
</trkpt>
<trkpt lat="48.944770" lon="8.647310">
<ele>290.5</ele>
<speed>1.0</speed>
<course>26.4</course>
<desc>Speed 1.0 km/h Distance 2.96 km</desc>
<time>2010-02-21T10:41:13.51</time>
<name>2121</name>
</trkpt>
<trkpt lat="48.944777" lon="8.647315">
<ele>290.0</ele>
<speed>2.0</speed>
<course>38.1</course>
<desc>Speed 2.0 km/h Distance 2.96 km</desc>
<time>2010-02-21T10:41:14.51</time>
<name>2122</name>
</trkpt>
<trkpt lat="48.944785" lon="8.647325">
<ele>289.0</ele>
<speed>1.9</speed>
<course>52.8</course>
<desc>Speed 1.9 km/h Distance 2.96 km</desc>
<time>2010-02-21T10:41:15.51</time>
<name>2123</name>
</trkpt>
<trkpt lat="48.944790" lon="8.647335">
<ele>287.5</ele>
<speed>2.5</speed>
<course>36.2</course>
<desc>Speed 2.5 km/h Distance 2.97 km</desc>
<time>2010-02-21T10:41:16.51</time>
<name>2124</name>
</trkpt>
<trkpt lat="48.944805" lon="8.647352">
<ele>291.0</ele>
<speed>3.7</speed>
<course>42.6</course>
<desc>Speed 3.7 km/h Distance 2.97 km</desc>
<time>2010-02-21T10:41:17.51</time>
<name>2125</name>
</trkpt>
<trkpt lat="48.944813" lon="8.647363">
<ele>291.5</ele>
<speed>2.9</speed>
<course>37.5</course>
<desc>Speed 2.9 km/h Distance 2.97 km</desc>
<time>2010-02-21T10:41:18.51</time>
<name>2126</name>
</trkpt>
<trkpt lat="48.944823" lon="8.647375">
<ele>293.5</ele>
<speed>4.5</speed>
<course>33.2</course>
<desc>Speed 4.5 km/h Distance 2.97 km</desc>
<time>2010-02-21T10:41:19.51</time>
<name>2127</name>
</trkpt>
<trkpt lat="48.944833" lon="8.647385">
<ele>295.0</ele>
<speed>4.0</speed>
<course>39.4</course>
<desc>Speed 4.0 km/h Distance 2.97 km</desc>
<time>2010-02-21T10:41:20.51</time>
<name>2128</name>
</trkpt>
<trkpt lat="48.944853" lon="8.647410">
<ele>295.0</ele>
<speed>3.3</speed>
<course>69.1</course>
<desc>Speed 3.3 km/h Distance 2.97 km</desc>
<time>2010-02-21T10:41:21.51</time>
<name>2129</name>
</trkpt>
<trkpt lat="48.944857" lon="8.647423">
<ele>294.0</ele>
<speed>2.1</speed>
<course>39.4</course>
<desc>Speed 2.1 km/h Distance 2.98 km</desc>
<time>2010-02-21T10:41:22.51</time>
<name>2130</name>
</trkpt>
<trkpt lat="48.944863" lon="8.647432">
<ele>294.0</ele>
<speed>3.5</speed>
<course>14.6</course>
<desc>Speed 3.5 km/h Distance 2.98 km</desc>
<time>2010-02-21T10:41:23.51</time>
<name>2131</name>
</trkpt>
<trkpt lat="48.944880" lon="8.647438">
<ele>293.5</ele>
<speed>4.9</speed>
<course>1.2</course>
<desc>Speed 4.9 km/h Distance 2.98 km</desc>
<time>2010-02-21T10:41:24.51</time>
<name>2132</name>
</trkpt>
<trkpt lat="48.944887" lon="8.647438">
<ele>294.0</ele>
<speed>1.6</speed>
<course>7.8</course>
<desc>Speed 1.6 km/h Distance 2.98 km</desc>
<time>2010-02-21T10:41:25.51</time>
<name>2133</name>
</trkpt>
<trkpt lat="48.944927" lon="8.647447">
<ele>294.5</ele>
<speed>4.9</speed>
<course>0.0</course>
<desc>Speed 4.9 km/h Distance 2.98 km</desc>
<time>2010-02-21T10:41:27.51</time>
<name>2134</name>
</trkpt>
<trkpt lat="48.944935" lon="8.647447">
<ele>292.0</ele>
<speed>3.6</speed>
<course>52.7</course>
<desc>Speed 3.6 km/h Distance 2.98 km</desc>
<time>2010-02-21T10:41:28.51</time>
<name>2135</name>
</trkpt>
<trkpt lat="48.944943" lon="8.647463">
<ele>294.5</ele>
<speed>3.7</speed>
<course>25.2</course>
<desc>Speed 3.7 km/h Distance 2.99 km</desc>
<time>2010-02-21T10:41:29.51</time>
<name>2136</name>
</trkpt>
<trkpt lat="48.944955" lon="8.647472">
<ele>295.0</ele>
<speed>2.7</speed>
<course>10.3</course>
<desc>Speed 2.7 km/h Distance 2.99 km</desc>
<time>2010-02-21T10:41:30.51</time>
<name>2137</name>
</trkpt>
<trkpt lat="48.944968" lon="8.647475">
<ele>297.5</ele>
<speed>3.0</speed>
<course>9.7</course>
<desc>Speed 3.0 km/h Distance 2.99 km</desc>
<time>2010-02-21T10:41:31.51</time>
<name>2138</name>
</trkpt>
<trkpt lat="48.944982" lon="8.647478">
<ele>298.5</ele>
<speed>2.6</speed>
<course>12.6</course>
<desc>Speed 2.6 km/h Distance 2.99 km</desc>
<time>2010-02-21T10:41:32.51</time>
<name>2139</name>
</trkpt>
<trkpt lat="48.944992" lon="8.647482">
<ele>296.5</ele>
<speed>1.5</speed>
<course>5.3</course>
<desc>Speed 1.5 km/h Distance 2.99 km</desc>
<time>2010-02-21T10:41:33.51</time>
<name>2140</name>
</trkpt>
<trkpt lat="48.945005" lon="8.647483">
<ele>297.0</ele>
<speed>2.5</speed>
<course>47.1</course>
<desc>Speed 2.5 km/h Distance 2.99 km</desc>
<time>2010-02-21T10:41:34.51</time>
<name>2141</name>
</trkpt>
<trkpt lat="48.945010" lon="8.647492">
<ele>295.0</ele>
<speed>1.3</speed>
<course>46.9</course>
<desc>Speed 1.3 km/h Distance 2.99 km</desc>
<time>2010-02-21T10:41:35.51</time>
<name>2142</name>
</trkpt>
<trkpt lat="48.945023" lon="8.647513">
<ele>293.5</ele>
<speed>4.2</speed>
<course>28.6</course>
<desc>Speed 4.2 km/h Distance 3.00 km</desc>
<time>2010-02-21T10:41:36.51</time>
<name>2143</name>
</trkpt>
<trkpt lat="48.945033" lon="8.647522">
<ele>295.0</ele>
<speed>3.7</speed>
<course>20.2</course>
<desc>Speed 3.7 km/h Distance 3.00 km</desc>
<time>2010-02-21T10:41:37.51</time>
<name>2144</name>
</trkpt>
<trkpt lat="48.945045" lon="8.647528">
<ele>296.5</ele>
<speed>2.9</speed>
<course>63.0</course>
<desc>Speed 2.9 km/h Distance 3.00 km</desc>
<time>2010-02-21T10:41:38.51</time>
<name>2145</name>
</trkpt>
<trkpt lat="48.945048" lon="8.647538">
<ele>296.5</ele>
<speed>2.3</speed>
<course>0.0</course>
<desc>Speed 2.3 km/h Distance 3.00 km</desc>
<time>2010-02-21T10:41:39.51</time>
<name>2146</name>
</trkpt>
<trkpt lat="48.945055" lon="8.647538">
<ele>295.0</ele>
<speed>2.0</speed>
<course>27.0</course>
<desc>Speed 2.0 km/h Distance 3.00 km</desc>
<time>2010-02-21T10:41:40.51</time>
<name>2147</name>
</trkpt>
<trkpt lat="48.945070" lon="8.647550">
<ele>297.5</ele>
<speed>4.5</speed>
<course>22.7</course>
<desc>Speed 4.5 km/h Distance 3.00 km</desc>
<time>2010-02-21T10:41:41.51</time>
<name>2148</name>
</trkpt>
<trkpt lat="48.945088" lon="8.647562">
<ele>297.0</ele>
<speed>3.6</speed>
<course>25.5</course>
<desc>Speed 3.6 km/h Distance 3.00 km</desc>
<time>2010-02-21T10:41:42.51</time>
<name>2149</name>
</trkpt>
<trkpt lat="48.945107" lon="8.647575">
<ele>294.5</ele>
<speed>1.4</speed>
<course>29.1</course>
<desc>Speed 1.4 km/h Distance 3.01 km</desc>
<time>2010-02-21T10:41:43.51</time>
<name>2150</name>
</trkpt>
<trkpt lat="48.945140" lon="8.647603">
<ele>292.0</ele>
<speed>3.4</speed>
<course>17.6</course>
<desc>Speed 3.4 km/h Distance 3.01 km</desc>
<time>2010-02-21T10:41:45.51</time>
<name>2151</name>
</trkpt>
<trkpt lat="48.945150" lon="8.647608">
<ele>289.0</ele>
<speed>2.5</speed>
<course>347.4</course>
<desc>Speed 2.5 km/h Distance 3.01 km</desc>
<time>2010-02-21T10:41:46.51</time>
<name>2152</name>
</trkpt>
<trkpt lat="48.945160" lon="8.647605">
<ele>290.0</ele>
<speed>2.2</speed>
<course>37.5</course>
<desc>Speed 2.2 km/h Distance 3.01 km</desc>
<time>2010-02-21T10:41:47.51</time>
<name>2153</name>
</trkpt>
<trkpt lat="48.945170" lon="8.647617">
<ele>290.0</ele>
<speed>1.8</speed>
<course>27.8</course>
<desc>Speed 1.8 km/h Distance 3.01 km</desc>
<time>2010-02-21T10:41:48.51</time>
<name>2154</name>
</trkpt>
<trkpt lat="48.945187" lon="8.647630">
<ele>289.5</ele>
<speed>2.1</speed>
<course>27.9</course>
<desc>Speed 2.1 km/h Distance 3.02 km</desc>
<time>2010-02-21T10:41:49.51</time>
<name>2155</name>
</trkpt>
<trkpt lat="48.945195" lon="8.647637">
<ele>289.5</ele>
<speed>3.3</speed>
<course>354.7</course>
<desc>Speed 3.3 km/h Distance 3.02 km</desc>
<time>2010-02-21T10:41:50.51</time>
<name>2156</name>
</trkpt>
<trkpt lat="48.945208" lon="8.647635">
<ele>290.0</ele>
<speed>2.2</speed>
<course>52.7</course>
<desc>Speed 2.2 km/h Distance 3.02 km</desc>
<time>2010-02-21T10:41:51.51</time>
<name>2157</name>
</trkpt>
<trkpt lat="48.945218" lon="8.647655">
<ele>289.5</ele>
<speed>1.9</speed>
<course>27.9</course>
<desc>Speed 1.9 km/h Distance 3.02 km</desc>
<time>2010-02-21T10:41:52.51</time>
<name>2158</name>
</trkpt>
<trkpt lat="48.945227" lon="8.647662">
<ele>291.0</ele>
<speed>1.7</speed>
<course>12.6</course>
<desc>Speed 1.7 km/h Distance 3.02 km</desc>
<time>2010-02-21T10:41:53.51</time>
<name>2159</name>
</trkpt>
<trkpt lat="48.945228" lon="8.647662">
<ele>289.5</ele>
<speed>0.6</speed>
<course>341.2</course>
<desc>Speed 0.6 km/h Distance 3.02 km</desc>
<time>2010-02-21T10:41:54.51</time>
<name>2160</name>
</trkpt>
<trkpt lat="48.945232" lon="8.647660">
<ele>289.0</ele>
<speed>1.1</speed>
<course>337.8</course>
<desc>Speed 1.1 km/h Distance 3.02 km</desc>
<time>2010-02-21T10:41:55.51</time>
<name>2161</name>
</trkpt>
<trkpt lat="48.945237" lon="8.647657">
<ele>287.0</ele>
<speed>1.4</speed>
<course>297.4</course>
<desc>Speed 1.4 km/h Distance 3.02 km</desc>
<time>2010-02-21T10:41:56.51</time>
<name>2162</name>
</trkpt>
<trkpt lat="48.945238" lon="8.647652">
<ele>286.0</ele>
<speed>0.8</speed>
<course>18.2</course>
<desc>Speed 0.8 km/h Distance 3.02 km</desc>
<time>2010-02-21T10:41:57.51</time>
<name>2163</name>
</trkpt>
<trkpt lat="48.945248" lon="8.647657">
<ele>287.5</ele>
<speed>2.3</speed>
<course>20.6</course>
<desc>Speed 2.3 km/h Distance 3.03 km</desc>
<time>2010-02-21T10:41:58.51</time>
<name>2164</name>
</trkpt>
<trkpt lat="48.945260" lon="8.647663">
<ele>286.0</ele>
<speed>1.8</speed>
<course>28.6</course>
<desc>Speed 1.8 km/h Distance 3.03 km</desc>
<time>2010-02-21T10:41:59.51</time>
<name>2165</name>
</trkpt>
<trkpt lat="48.945270" lon="8.647672">
<ele>287.0</ele>
<speed>2.2</speed>
<course>33.4</course>
<desc>Speed 2.2 km/h Distance 3.03 km</desc>
<time>2010-02-21T10:42:00.51</time>
<name>2166</name>
</trkpt>
<trkpt lat="48.945282" lon="8.647683">
<ele>289.0</ele>
<speed>2.3</speed>
<course>30.9</course>
<desc>Speed 2.3 km/h Distance 3.03 km</desc>
<time>2010-02-21T10:42:01.51</time>
<name>2167</name>
</trkpt>
<trkpt lat="48.945300" lon="8.647700">
<ele>290.0</ele>
<speed>2.9</speed>
<course>56.7</course>
<desc>Speed 2.9 km/h Distance 3.03 km</desc>
<time>2010-02-21T10:42:02.51</time>
<name>2168</name>
</trkpt>
<trkpt lat="48.945305" lon="8.647712">
<ele>287.0</ele>
<speed>2.2</speed>
<course>28.6</course>
<desc>Speed 2.2 km/h Distance 3.03 km</desc>
<time>2010-02-21T10:42:03.51</time>
<name>2169</name>
</trkpt>
<trkpt lat="48.945315" lon="8.647720">
<ele>282.0</ele>
<speed>2.6</speed>
<course>29.2</course>
<desc>Speed 2.6 km/h Distance 3.03 km</desc>
<time>2010-02-21T10:42:04.51</time>
<name>2170</name>
</trkpt>
<trkpt lat="48.945327" lon="8.647730">
<ele>283.0</ele>
<speed>3.3</speed>
<course>43.2</course>
<desc>Speed 3.3 km/h Distance 3.04 km</desc>
<time>2010-02-21T10:42:05.51</time>
<name>2171</name>
</trkpt>
<trkpt lat="48.945338" lon="8.647747">
<ele>283.0</ele>
<speed>2.6</speed>
<course>44.6</course>
<desc>Speed 2.6 km/h Distance 3.04 km</desc>
<time>2010-02-21T10:42:06.51</time>
<name>2172</name>
</trkpt>
<trkpt lat="48.945352" lon="8.647767">
<ele>282.0</ele>
<speed>2.4</speed>
<course>25.6</course>
<desc>Speed 2.4 km/h Distance 3.04 km</desc>
<time>2010-02-21T10:42:07.51</time>
<name>2173</name>
</trkpt>
<trkpt lat="48.945358" lon="8.647772">
<ele>272.0</ele>
<speed>4.2</speed>
<course>11.2</course>
<desc>Speed 4.2 km/h Distance 3.04 km</desc>
<time>2010-02-21T10:42:08.51</time>
<name>2174</name>
</trkpt>
<trkpt lat="48.945375" lon="8.647777">
<ele>272.0</ele>
<speed>1.5</speed>
<course>44.5</course>
<desc>Speed 1.5 km/h Distance 3.04 km</desc>
<time>2010-02-21T10:42:09.51</time>
<name>2175</name>
</trkpt>
<trkpt lat="48.945378" lon="8.647782">
<ele>270.0</ele>
<speed>1.3</speed>
<course>12.6</course>
<desc>Speed 1.3 km/h Distance 3.04 km</desc>
<time>2010-02-21T10:42:10.51</time>
<name>2176</name>
</trkpt>
<trkpt lat="48.945388" lon="8.647785">
<ele>268.0</ele>
<speed>2.2</speed>
<course>27.1</course>
<desc>Speed 2.2 km/h Distance 3.04 km</desc>
<time>2010-02-21T10:42:11.51</time>
<name>2177</name>
</trkpt>
<trkpt lat="48.945395" lon="8.647790">
<ele>267.0</ele>
<speed>1.2</speed>
<course>58.3</course>
<desc>Speed 1.2 km/h Distance 3.04 km</desc>
<time>2010-02-21T10:42:12.51</time>
<name>2178</name>
</trkpt>
<trkpt lat="48.945417" lon="8.647843">
<ele>263.0</ele>
<speed>2.5</speed>
<course>17.6</course>
<desc>Speed 2.5 km/h Distance 3.05 km</desc>
<time>2010-02-21T10:42:14.51</time>
<name>2179</name>
</trkpt>
<trkpt lat="48.945462" lon="8.647865">
<ele>263.0</ele>
<speed>6.2</speed>
<course>19.5</course>
<desc>Speed 6.2 km/h Distance 3.05 km</desc>
<time>2010-02-21T10:42:16.51</time>
<name>2180</name>
</trkpt>
<trkpt lat="48.945483" lon="8.647877">
<ele>266.0</ele>
<speed>2.4</speed>
<course>33.4</course>
<desc>Speed 2.4 km/h Distance 3.06 km</desc>
<time>2010-02-21T10:42:17.51</time>
<name>2181</name>
</trkpt>
<trkpt lat="48.945495" lon="8.647888">
<ele>265.0</ele>
<speed>2.0</speed>
<course>102.3</course>
<desc>Speed 2.0 km/h Distance 3.06 km</desc>
<time>2010-02-21T10:42:18.51</time>
<name>2182</name>
</trkpt>
<trkpt lat="48.945493" lon="8.647900">
<ele>262.5</ele>
<speed>2.4</speed>
<course>49.1</course>
<desc>Speed 2.4 km/h Distance 3.06 km</desc>
<time>2010-02-21T10:42:19.51</time>
<name>2183</name>
</trkpt>
<trkpt lat="48.945500" lon="8.647912">
<ele>260.0</ele>
<speed>2.6</speed>
<course>34.5</course>
<desc>Speed 2.6 km/h Distance 3.06 km</desc>
<time>2010-02-21T10:42:20.51</time>
<name>2184</name>
</trkpt>
<trkpt lat="48.945537" lon="8.647950">
<ele>262.5</ele>
<speed>2.6</speed>
<course>24.7</course>
<desc>Speed 2.6 km/h Distance 3.07 km</desc>
<time>2010-02-21T10:42:22.51</time>
<name>2185</name>
</trkpt>
<trkpt lat="48.945553" lon="8.647962">
<ele>265.0</ele>
<speed>2.4</speed>
<course>63.1</course>
<desc>Speed 2.4 km/h Distance 3.07 km</desc>
<time>2010-02-21T10:42:23.51</time>
<name>2186</name>
</trkpt>
<trkpt lat="48.945562" lon="8.647987">
<ele>265.5</ele>
<speed>6.2</speed>
<course>84.2</course>
<desc>Speed 6.2 km/h Distance 3.07 km</desc>
<time>2010-02-21T10:42:24.51</time>
<name>2187</name>
</trkpt>
<trkpt lat="48.945563" lon="8.648012">
<ele>265.0</ele>
<speed>6.1</speed>
<course>55.9</course>
<desc>Speed 6.1 km/h Distance 3.07 km</desc>
<time>2010-02-21T10:42:25.51</time>
<name>2188</name>
</trkpt>
<trkpt lat="48.945570" lon="8.648027">
<ele>264.5</ele>
<speed>4.2</speed>
<course>46.5</course>
<desc>Speed 4.2 km/h Distance 3.07 km</desc>
<time>2010-02-21T10:42:26.51</time>
<name>2189</name>
</trkpt>
<trkpt lat="48.945578" lon="8.648040">
<ele>263.5</ele>
<speed>4.2</speed>
<course>38.1</course>
<desc>Speed 4.2 km/h Distance 3.07 km</desc>
<time>2010-02-21T10:42:27.51</time>
<name>2190</name>
</trkpt>
<trkpt lat="48.945587" lon="8.648050">
<ele>263.5</ele>
<speed>4.2</speed>
<course>52.7</course>
<desc>Speed 4.2 km/h Distance 3.08 km</desc>
<time>2010-02-21T10:42:28.51</time>
<name>2191</name>
</trkpt>
<trkpt lat="48.945595" lon="8.648067">
<ele>263.0</ele>
<speed>3.5</speed>
<course>29.1</course>
<desc>Speed 3.5 km/h Distance 3.08 km</desc>
<time>2010-02-21T10:42:29.51</time>
<name>2192</name>
</trkpt>
<trkpt lat="48.945870" lon="8.648300">
<ele>300.5</ele>
<speed>5.4</speed>
<course>59.7</course>
<desc>Speed 5.4 km/h Distance 3.11 km</desc>
<time>2010-02-21T10:42:33.51</time>
<name>2193</name>
</trkpt>
<trkpt lat="48.945878" lon="8.648322">
<ele>300.5</ele>
<speed>4.5</speed>
<course>58.7</course>
<desc>Speed 4.5 km/h Distance 3.11 km</desc>
<time>2010-02-21T10:42:34.51</time>
<name>2194</name>
</trkpt>
<trkpt lat="48.945885" lon="8.648338">
<ele>299.0</ele>
<speed>5.0</speed>
<course>34.6</course>
<desc>Speed 5.0 km/h Distance 3.12 km</desc>
<time>2010-02-21T10:42:35.51</time>
<name>2195</name>
</trkpt>
<trkpt lat="48.946020" lon="8.648480">
<ele>322.0</ele>
<speed>5.0</speed>
<course>71.3</course>
<desc>Speed 5.0 km/h Distance 3.13 km</desc>
<time>2010-02-21T10:42:38.51</time>
<name>2196</name>
</trkpt>
<trkpt lat="48.946027" lon="8.648510">
<ele>321.5</ele>
<speed>4.7</speed>
<course>79.2</course>
<desc>Speed 4.7 km/h Distance 3.14 km</desc>
<time>2010-02-21T10:42:39.51</time>
<name>2197</name>
</trkpt>
<trkpt lat="48.946030" lon="8.648537">
<ele>320.5</ele>
<speed>4.7</speed>
<course>83.3</course>
<desc>Speed 4.7 km/h Distance 3.14 km</desc>
<time>2010-02-21T10:42:40.51</time>
<name>2198</name>
</trkpt>
<trkpt lat="48.946032" lon="8.648558">
<ele>319.0</ele>
<speed>4.4</speed>
<course>49.1</course>
<desc>Speed 4.4 km/h Distance 3.14 km</desc>
<time>2010-02-21T10:42:41.51</time>
<name>2199</name>
</trkpt>
<trkpt lat="48.946038" lon="8.648570">
<ele>318.0</ele>
<speed>4.6</speed>
<course>52.7</course>
<desc>Speed 4.6 km/h Distance 3.14 km</desc>
<time>2010-02-21T10:42:42.51</time>
<name>2200</name>
</trkpt>
<trkpt lat="48.946047" lon="8.648587">
<ele>316.5</ele>
<speed>4.8</speed>
<course>65.4</course>
<desc>Speed 4.8 km/h Distance 3.14 km</desc>
<time>2010-02-21T10:42:43.51</time>
<name>2201</name>
</trkpt>
<trkpt lat="48.946052" lon="8.648603">
<ele>315.0</ele>
<speed>4.4</speed>
<course>81.3</course>
<desc>Speed 4.4 km/h Distance 3.14 km</desc>
<time>2010-02-21T10:42:44.51</time>
<name>2202</name>
</trkpt>
<trkpt lat="48.946053" lon="8.648620">
<ele>313.0</ele>
<speed>4.5</speed>
<course>146.8</course>
<desc>Speed 4.5 km/h Distance 3.14 km</desc>
<time>2010-02-21T10:42:45.51</time>
<name>2203</name>
</trkpt>
<trkpt lat="48.946043" lon="8.648630">
<ele>309.0</ele>
<speed>4.3</speed>
<course>63.0</course>
<desc>Speed 4.3 km/h Distance 3.15 km</desc>
<time>2010-02-21T10:42:46.51</time>
<name>2204</name>
</trkpt>
<trkpt lat="48.946047" lon="8.648640">
<ele>307.5</ele>
<speed>4.3</speed>
<course>63.0</course>
<desc>Speed 4.3 km/h Distance 3.15 km</desc>
<time>2010-02-21T10:42:47.51</time>
<name>2205</name>
</trkpt>
<trkpt lat="48.946050" lon="8.648650">
<ele>305.5</ele>
<speed>4.0</speed>
<course>47.6</course>
<desc>Speed 4.0 km/h Distance 3.15 km</desc>
<time>2010-02-21T10:42:48.51</time>
<name>2206</name>
</trkpt>
<trkpt lat="48.946060" lon="8.648667">
<ele>305.5</ele>
<speed>4.9</speed>
<course>44.5</course>
<desc>Speed 4.9 km/h Distance 3.15 km</desc>
<time>2010-02-21T10:42:49.51</time>
<name>2207</name>
</trkpt>
<trkpt lat="48.946070" lon="8.648682">
<ele>304.5</ele>
<speed>4.9</speed>
<course>49.7</course>
<desc>Speed 4.9 km/h Distance 3.15 km</desc>
<time>2010-02-21T10:42:50.51</time>
<name>2208</name>
</trkpt>
<trkpt lat="48.946078" lon="8.648697">
<ele>304.0</ele>
<speed>4.3</speed>
<course>41.2</course>
<desc>Speed 4.3 km/h Distance 3.15 km</desc>
<time>2010-02-21T10:42:51.51</time>
<name>2209</name>
</trkpt>
<trkpt lat="48.946088" lon="8.648710">
<ele>304.0</ele>
<speed>4.5</speed>
<course>63.1</course>
<desc>Speed 4.5 km/h Distance 3.15 km</desc>
<time>2010-02-21T10:42:52.51</time>
<name>2210</name>
</trkpt>
<trkpt lat="48.946093" lon="8.648725">
<ele>302.5</ele>
<speed>4.9</speed>
<course>56.9</course>
<desc>Speed 4.9 km/h Distance 3.15 km</desc>
<time>2010-02-21T10:42:53.51</time>
<name>2211</name>
</trkpt>
<trkpt lat="48.946098" lon="8.648737">
<ele>300.5</ele>
<speed>4.7</speed>
<course>60.3</course>
<desc>Speed 4.7 km/h Distance 3.16 km</desc>
<time>2010-02-21T10:42:54.51</time>
<name>2212</name>
</trkpt>
<trkpt lat="48.946103" lon="8.648750">
<ele>300.0</ele>
<speed>4.5</speed>
<course>56.9</course>
<desc>Speed 4.5 km/h Distance 3.16 km</desc>
<time>2010-02-21T10:42:55.51</time>
<name>2213</name>
</trkpt>
<trkpt lat="48.946108" lon="8.648762">
<ele>299.0</ele>
<speed>4.4</speed>
<course>60.3</course>
<desc>Speed 4.4 km/h Distance 3.16 km</desc>
<time>2010-02-21T10:42:56.51</time>
<name>2214</name>
</trkpt>
<trkpt lat="48.946113" lon="8.648775">
<ele>298.0</ele>
<speed>4.7</speed>
<course>63.1</course>
<desc>Speed 4.7 km/h Distance 3.16 km</desc>
<time>2010-02-21T10:42:57.51</time>
<name>2215</name>
</trkpt>
<trkpt lat="48.946118" lon="8.648790">
<ele>297.0</ele>
<speed>4.6</speed>
<course>66.5</course>
<desc>Speed 4.6 km/h Distance 3.16 km</desc>
<time>2010-02-21T10:42:58.51</time>
<name>2216</name>
</trkpt>
<trkpt lat="48.946122" lon="8.648802">
<ele>294.5</ele>
<speed>4.5</speed>
<course>69.1</course>
<desc>Speed 4.5 km/h Distance 3.16 km</desc>
<time>2010-02-21T10:42:59.51</time>
<name>2217</name>
</trkpt>
<trkpt lat="48.946125" lon="8.648815">
<ele>293.0</ele>
<speed>4.4</speed>
<course>79.2</course>
<desc>Speed 4.4 km/h Distance 3.16 km</desc>
<time>2010-02-21T10:43:00.51</time>
<name>2218</name>
</trkpt>
<trkpt lat="48.946127" lon="8.648828">
<ele>291.0</ele>
<speed>4.3</speed>
<course>77.7</course>
<desc>Speed 4.3 km/h Distance 3.16 km</desc>
<time>2010-02-21T10:43:01.51</time>
<name>2219</name>
</trkpt>
<trkpt lat="48.946128" lon="8.648840">
<ele>290.0</ele>
<speed>4.2</speed>
<course>77.7</course>
<desc>Speed 4.2 km/h Distance 3.16 km</desc>
<time>2010-02-21T10:43:02.51</time>
<name>2220</name>
</trkpt>
<trkpt lat="48.946130" lon="8.648852">
<ele>289.0</ele>
<speed>4.1</speed>
<course>44.5</course>
<desc>Speed 4.1 km/h Distance 3.17 km</desc>
<time>2010-02-21T10:43:03.51</time>
<name>2221</name>
</trkpt>
<trkpt lat="48.946137" lon="8.648862">
<ele>288.0</ele>
<speed>4.2</speed>
<course>56.7</course>
<desc>Speed 4.2 km/h Distance 3.17 km</desc>
<time>2010-02-21T10:43:04.51</time>
<name>2222</name>
</trkpt>
<trkpt lat="48.946142" lon="8.648873">
<ele>287.0</ele>
<speed>3.7</speed>
<course>52.7</course>
<desc>Speed 3.7 km/h Distance 3.17 km</desc>
<time>2010-02-21T10:43:05.51</time>
<name>2223</name>
</trkpt>
<trkpt lat="48.946148" lon="8.648887">
<ele>286.5</ele>
<speed>4.1</speed>
<course>71.3</course>
<desc>Speed 4.1 km/h Distance 3.17 km</desc>
<time>2010-02-21T10:43:06.51</time>
<name>2224</name>
</trkpt>
<trkpt lat="48.946152" lon="8.648902">
<ele>285.5</ele>
<speed>4.4</speed>
<course>56.7</course>
<desc>Speed 4.4 km/h Distance 3.17 km</desc>
<time>2010-02-21T10:43:07.51</time>
<name>2225</name>
</trkpt>
<trkpt lat="48.946157" lon="8.648913">
<ele>285.0</ele>
<speed>4.0</speed>
<course>56.7</course>
<desc>Speed 4.0 km/h Distance 3.17 km</desc>
<time>2010-02-21T10:43:08.51</time>
<name>2226</name>
</trkpt>
<trkpt lat="48.946162" lon="8.648925">
<ele>284.5</ele>
<speed>4.0</speed>
<course>38.1</course>
<desc>Speed 4.0 km/h Distance 3.17 km</desc>
<time>2010-02-21T10:43:09.51</time>
<name>2227</name>
</trkpt>
<trkpt lat="48.946170" lon="8.648935">
<ele>283.5</ele>
<speed>3.6</speed>
<course>47.8</course>
<desc>Speed 3.6 km/h Distance 3.17 km</desc>
<time>2010-02-21T10:43:10.51</time>
<name>2228</name>
</trkpt>
<trkpt lat="48.946175" lon="8.648943">
<ele>282.0</ele>
<speed>2.7</speed>
<course>56.7</course>
<desc>Speed 2.7 km/h Distance 3.17 km</desc>
<time>2010-02-21T10:43:11.51</time>
<name>2229</name>
</trkpt>
<trkpt lat="48.946180" lon="8.648955">
<ele>280.5</ele>
<speed>3.3</speed>
<course>38.1</course>
<desc>Speed 3.3 km/h Distance 3.17 km</desc>
<time>2010-02-21T10:43:12.51</time>
<name>2230</name>
</trkpt>
<trkpt lat="48.946188" lon="8.648965">
<ele>280.0</ele>
<speed>3.5</speed>
<course>33.5</course>
<desc>Speed 3.5 km/h Distance 3.18 km</desc>
<time>2010-02-21T10:43:13.51</time>
<name>2231</name>
</trkpt>
<trkpt lat="48.946197" lon="8.648973">
<ele>279.0</ele>
<speed>3.6</speed>
<course>33.4</course>
<desc>Speed 3.6 km/h Distance 3.18 km</desc>
<time>2010-02-21T10:43:14.51</time>
<name>2232</name>
</trkpt>
<trkpt lat="48.946208" lon="8.648985">
<ele>278.5</ele>
<speed>4.0</speed>
<course>29.4</course>
<desc>Speed 4.0 km/h Distance 3.18 km</desc>
<time>2010-02-21T10:43:15.51</time>
<name>2233</name>
</trkpt>
<trkpt lat="48.946220" lon="8.648995">
<ele>277.5</ele>
<speed>3.9</speed>
<course>18.1</course>
<desc>Speed 3.9 km/h Distance 3.18 km</desc>
<time>2010-02-21T10:43:16.51</time>
<name>2234</name>
</trkpt>
<trkpt lat="48.946233" lon="8.649002">
<ele>278.5</ele>
<speed>5.3</speed>
<course>19.6</course>
<desc>Speed 5.3 km/h Distance 3.18 km</desc>
<time>2010-02-21T10:43:17.51</time>
<name>2235</name>
</trkpt>
<trkpt lat="48.946248" lon="8.649010">
<ele>278.5</ele>
<speed>5.1</speed>
<course>39.4</course>
<desc>Speed 5.1 km/h Distance 3.18 km</desc>
<time>2010-02-21T10:43:18.51</time>
<name>2236</name>
</trkpt>
<trkpt lat="48.946255" lon="8.649018">
<ele>278.0</ele>
<speed>3.5</speed>
<course>33.5</course>
<desc>Speed 3.5 km/h Distance 3.18 km</desc>
<time>2010-02-21T10:43:19.51</time>
<name>2237</name>
</trkpt>
<trkpt lat="48.946263" lon="8.649027">
<ele>277.0</ele>
<speed>3.2</speed>
<course>33.2</course>
<desc>Speed 3.2 km/h Distance 3.19 km</desc>
<time>2010-02-21T10:43:20.51</time>
<name>2238</name>
</trkpt>
<trkpt lat="48.946272" lon="8.649035">
<ele>277.0</ele>
<speed>3.7</speed>
<course>308.1</course>
<desc>Speed 3.7 km/h Distance 3.19 km</desc>
<time>2010-02-21T10:43:21.51</time>
<name>2239</name>
</trkpt>
<trkpt lat="48.946273" lon="8.649032">
<ele>278.0</ele>
<speed>1.4</speed>
<course>21.5</course>
<desc>Speed 1.4 km/h Distance 3.19 km</desc>
<time>2010-02-21T10:43:22.51</time>
<name>2240</name>
</trkpt>
<trkpt lat="48.946282" lon="8.649037">
<ele>278.0</ele>
<speed>3.1</speed>
<course>28.6</course>
<desc>Speed 3.1 km/h Distance 3.19 km</desc>
<time>2010-02-21T10:43:23.51</time>
<name>2241</name>
</trkpt>
<trkpt lat="48.946292" lon="8.649045">
<ele>278.0</ele>
<speed>3.6</speed>
<course>27.9</course>
<desc>Speed 3.6 km/h Distance 3.19 km</desc>
<time>2010-02-21T10:43:24.51</time>
<name>2242</name>
</trkpt>
<trkpt lat="48.946300" lon="8.649052">
<ele>278.0</ele>
<speed>3.5</speed>
<course>20.9</course>
<desc>Speed 3.5 km/h Distance 3.19 km</desc>
<time>2010-02-21T10:43:25.51</time>
<name>2243</name>
</trkpt>
<trkpt lat="48.946312" lon="8.649058">
<ele>278.0</ele>
<speed>4.5</speed>
<course>18.2</course>
<desc>Speed 4.5 km/h Distance 3.19 km</desc>
<time>2010-02-21T10:43:26.51</time>
<name>2244</name>
</trkpt>
<trkpt lat="48.946322" lon="8.649063">
<ele>278.0</ele>
<speed>4.1</speed>
<course>23.4</course>
<desc>Speed 4.1 km/h Distance 3.19 km</desc>
<time>2010-02-21T10:43:27.51</time>
<name>2245</name>
</trkpt>
<trkpt lat="48.946332" lon="8.649070">
<ele>277.5</ele>
<speed>4.0</speed>
<course>39.4</course>
<desc>Speed 4.0 km/h Distance 3.19 km</desc>
<time>2010-02-21T10:43:28.51</time>
<name>2246</name>
</trkpt>
<trkpt lat="48.946338" lon="8.649078">
<ele>277.0</ele>
<speed>3.0</speed>
<course>33.2</course>
<desc>Speed 3.0 km/h Distance 3.19 km</desc>
<time>2010-02-21T10:43:29.51</time>
<name>2247</name>
</trkpt>
<trkpt lat="48.946347" lon="8.649087">
<ele>276.5</ele>
<speed>3.6</speed>
<course>63.0</course>
<desc>Speed 3.6 km/h Distance 3.20 km</desc>
<time>2010-02-21T10:43:30.51</time>
<name>2248</name>
</trkpt>
<trkpt lat="48.946350" lon="8.649097">
<ele>276.0</ele>
<speed>3.0</speed>
<course>44.5</course>
<desc>Speed 3.0 km/h Distance 3.20 km</desc>
<time>2010-02-21T10:43:31.51</time>
<name>2249</name>
</trkpt>
<trkpt lat="48.946357" lon="8.649107">
<ele>275.5</ele>
<speed>3.4</speed>
<course>44.3</course>
<desc>Speed 3.4 km/h Distance 3.20 km</desc>
<time>2010-02-21T10:43:32.51</time>
<name>2250</name>
</trkpt>
<trkpt lat="48.946363" lon="8.649117">
<ele>276.0</ele>
<speed>3.9</speed>
<course>38.4</course>
<desc>Speed 3.9 km/h Distance 3.20 km</desc>
<time>2010-02-21T10:43:33.51</time>
<name>2251</name>
</trkpt>
<trkpt lat="48.946372" lon="8.649127">
<ele>275.5</ele>
<speed>4.4</speed>
<course>41.2</course>
<desc>Speed 4.4 km/h Distance 3.20 km</desc>
<time>2010-02-21T10:43:34.51</time>
<name>2252</name>
</trkpt>
<trkpt lat="48.946382" lon="8.649140">
<ele>275.5</ele>
<speed>3.8</speed>
<course>47.8</course>
<desc>Speed 3.8 km/h Distance 3.20 km</desc>
<time>2010-02-21T10:43:35.51</time>
<name>2253</name>
</trkpt>
<trkpt lat="48.946387" lon="8.649148">
<ele>275.5</ele>
<speed>3.6</speed>
<course>44.5</course>
<desc>Speed 3.6 km/h Distance 3.20 km</desc>
<time>2010-02-21T10:43:36.51</time>
<name>2254</name>
</trkpt>
<trkpt lat="48.946393" lon="8.649158">
<ele>275.5</ele>
<speed>3.4</speed>
<course>44.5</course>
<desc>Speed 3.4 km/h Distance 3.20 km</desc>
<time>2010-02-21T10:43:37.51</time>
<name>2255</name>
</trkpt>
<trkpt lat="48.946400" lon="8.649168">
<ele>276.0</ele>
<speed>3.1</speed>
<course>27.9</course>
<desc>Speed 3.1 km/h Distance 3.20 km</desc>
<time>2010-02-21T10:43:38.51</time>
<name>2256</name>
</trkpt>
<trkpt lat="48.946408" lon="8.649175">
<ele>275.5</ele>
<speed>3.0</speed>
<course>17.6</course>
<desc>Speed 3.0 km/h Distance 3.21 km</desc>
<time>2010-02-21T10:43:39.51</time>
<name>2257</name>
</trkpt>
<trkpt lat="48.946418" lon="8.649180">
<ele>275.5</ele>
<speed>4.1</speed>
<course>20.6</course>
<desc>Speed 4.1 km/h Distance 3.21 km</desc>
<time>2010-02-21T10:43:40.51</time>
<name>2258</name>
</trkpt>
<trkpt lat="48.946430" lon="8.649187">
<ele>276.0</ele>
<speed>4.3</speed>
<course>47.4</course>
<desc>Speed 4.3 km/h Distance 3.21 km</desc>
<time>2010-02-21T10:43:41.51</time>
<name>2259</name>
</trkpt>
<trkpt lat="48.946435" lon="8.649195">
<ele>275.5</ele>
<speed>2.8</speed>
<course>38.1</course>
<desc>Speed 2.8 km/h Distance 3.21 km</desc>
<time>2010-02-21T10:43:42.51</time>
<name>2260</name>
</trkpt>
<trkpt lat="48.946443" lon="8.649205">
<ele>275.5</ele>
<speed>3.5</speed>
<course>42.5</course>
<desc>Speed 3.5 km/h Distance 3.21 km</desc>
<time>2010-02-21T10:43:43.51</time>
<name>2261</name>
</trkpt>
<trkpt lat="48.946452" lon="8.649217">
<ele>275.5</ele>
<speed>4.1</speed>
<course>23.8</course>
<desc>Speed 4.1 km/h Distance 3.21 km</desc>
<time>2010-02-21T10:43:44.51</time>
<name>2262</name>
</trkpt>
<trkpt lat="48.946462" lon="8.649223">
<ele>276.0</ele>
<speed>2.7</speed>
<course>14.9</course>
<desc>Speed 2.7 km/h Distance 3.21 km</desc>
<time>2010-02-21T10:43:45.51</time>
<name>2263</name>
</trkpt>
<trkpt lat="48.946470" lon="8.649227">
<ele>276.0</ele>
<speed>3.2</speed>
<course>47.8</course>
<desc>Speed 3.2 km/h Distance 3.21 km</desc>
<time>2010-02-21T10:43:46.51</time>
<name>2264</name>
</trkpt>
<trkpt lat="48.946475" lon="8.649235">
<ele>275.0</ele>
<speed>2.5</speed>
<course>52.4</course>
<desc>Speed 2.5 km/h Distance 3.21 km</desc>
<time>2010-02-21T10:43:47.51</time>
<name>2265</name>
</trkpt>
<trkpt lat="48.946478" lon="8.649242">
<ele>275.5</ele>
<speed>2.1</speed>
<course>75.6</course>
<desc>Speed 2.1 km/h Distance 3.21 km</desc>
<time>2010-02-21T10:43:48.51</time>
<name>2266</name>
</trkpt>
<trkpt lat="48.946480" lon="8.649252">
<ele>276.0</ele>
<speed>2.4</speed>
<course>47.1</course>
<desc>Speed 2.4 km/h Distance 3.22 km</desc>
<time>2010-02-21T10:43:49.51</time>
<name>2267</name>
</trkpt>
<trkpt lat="48.946485" lon="8.649260">
<ele>276.0</ele>
<speed>3.1</speed>
<course>32.3</course>
<desc>Speed 3.1 km/h Distance 3.22 km</desc>
<time>2010-02-21T10:43:50.51</time>
<name>2268</name>
</trkpt>
<trkpt lat="48.946490" lon="8.649265">
<ele>275.0</ele>
<speed>2.4</speed>
<course>14.9</course>
<desc>Speed 2.4 km/h Distance 3.22 km</desc>
<time>2010-02-21T10:43:51.51</time>
<name>2269</name>
</trkpt>
<trkpt lat="48.946498" lon="8.649268">
<ele>275.0</ele>
<speed>1.9</speed>
<course>33.5</course>
<desc>Speed 1.9 km/h Distance 3.22 km</desc>
<time>2010-02-21T10:43:52.51</time>
<name>2270</name>
</trkpt>
<trkpt lat="48.946507" lon="8.649277">
<ele>275.5</ele>
<speed>2.7</speed>
<course>52.7</course>
<desc>Speed 2.7 km/h Distance 3.22 km</desc>
<time>2010-02-21T10:43:53.51</time>
<name>2271</name>
</trkpt>
<trkpt lat="48.946515" lon="8.649293">
<ele>277.0</ele>
<speed>3.9</speed>
<course>48.7</course>
<desc>Speed 3.9 km/h Distance 3.22 km</desc>
<time>2010-02-21T10:43:54.51</time>
<name>2272</name>
</trkpt>
<trkpt lat="48.946522" lon="8.649305">
<ele>278.5</ele>
<speed>3.0</speed>
<course>32.3</course>
<desc>Speed 3.0 km/h Distance 3.22 km</desc>
<time>2010-02-21T10:43:55.51</time>
<name>2273</name>
</trkpt>
<trkpt lat="48.946527" lon="8.649310">
<ele>278.5</ele>
<speed>1.6</speed>
<course>12.6</course>
<desc>Speed 1.6 km/h Distance 3.22 km</desc>
<time>2010-02-21T10:43:56.51</time>
<name>2274</name>
</trkpt>
<trkpt lat="48.946528" lon="8.649312">
<ele>279.0</ele>
<speed>0.7</speed>
<course>44.5</course>
<desc>Speed 0.7 km/h Distance 3.22 km</desc>
<time>2010-02-21T10:43:57.51</time>
<name>2275</name>
</trkpt>
<trkpt lat="48.946535" lon="8.649322">
<ele>278.5</ele>
<speed>2.8</speed>
<course>90.0</course>
<desc>Speed 2.8 km/h Distance 3.22 km</desc>
<time>2010-02-21T10:43:58.51</time>
<name>2276</name>
</trkpt>
<trkpt lat="48.946535" lon="8.649325">
<ele>279.5</ele>
<speed>1.3</speed>
<course>69.1</course>
<desc>Speed 1.3 km/h Distance 3.22 km</desc>
<time>2010-02-21T10:43:59.51</time>
<name>2277</name>
</trkpt>
<trkpt lat="48.946537" lon="8.649332">
<ele>281.0</ele>
<speed>2.0</speed>
<course>106.9</course>
<desc>Speed 2.0 km/h Distance 3.22 km</desc>
<time>2010-02-21T10:44:00.51</time>
<name>2278</name>
</trkpt>
<trkpt lat="48.946535" lon="8.649340">
<ele>281.0</ele>
<speed>1.9</speed>
<course>51.9</course>
<desc>Speed 1.9 km/h Distance 3.23 km</desc>
<time>2010-02-21T10:44:01.51</time>
<name>2279</name>
</trkpt>
<trkpt lat="48.946537" lon="8.649343">
<ele>282.5</ele>
<speed>0.8</speed>
<course>44.5</course>
<desc>Speed 0.8 km/h Distance 3.23 km</desc>
<time>2010-02-21T10:44:02.51</time>
<name>2280</name>
</trkpt>
<trkpt lat="48.946540" lon="8.649348">
<ele>281.5</ele>
<speed>1.6</speed>
<course>339.4</course>
<desc>Speed 1.6 km/h Distance 3.23 km</desc>
<time>2010-02-21T10:44:03.51</time>
<name>2281</name>
</trkpt>
<trkpt lat="48.946552" lon="8.649342">
<ele>281.0</ele>
<speed>3.9</speed>
<course>12.6</course>
<desc>Speed 3.9 km/h Distance 3.23 km</desc>
<time>2010-02-21T10:44:04.51</time>
<name>2282</name>
</trkpt>
<trkpt lat="48.946557" lon="8.649343">
<ele>280.5</ele>
<speed>1.0</speed>
<course>90.0</course>
<desc>Speed 1.0 km/h Distance 3.23 km</desc>
<time>2010-02-21T10:44:05.51</time>
<name>2283</name>
</trkpt>
<trkpt lat="48.946557" lon="8.649347">
<ele>280.5</ele>
<speed>0.9</speed>
<course>110.9</course>
<desc>Speed 0.9 km/h Distance 3.23 km</desc>
<time>2010-02-21T10:44:06.51</time>
<name>2284</name>
</trkpt>
<trkpt lat="48.946555" lon="8.649353">
<ele>280.0</ele>
<speed>1.3</speed>
<course>98.7</course>
<desc>Speed 1.3 km/h Distance 3.23 km</desc>
<time>2010-02-21T10:44:07.51</time>
<name>2285</name>
</trkpt>
<trkpt lat="48.946553" lon="8.649370">
<ele>280.5</ele>
<speed>1.8</speed>
<course>90.0</course>
<desc>Speed 1.8 km/h Distance 3.23 km</desc>
<time>2010-02-21T10:44:08.51</time>
<name>2286</name>
</trkpt>
<trkpt lat="48.946553" lon="8.649377">
<ele>280.0</ele>
<speed>2.7</speed>
<course>50.3</course>
<desc>Speed 2.7 km/h Distance 3.23 km</desc>
<time>2010-02-21T10:44:09.51</time>
<name>2287</name>
</trkpt>
<trkpt lat="48.946563" lon="8.649395">
<ele>281.0</ele>
<speed>6.0</speed>
<course>70.9</course>
<desc>Speed 6.0 km/h Distance 3.23 km</desc>
<time>2010-02-21T10:44:10.51</time>
<name>2288</name>
</trkpt>
<trkpt lat="48.946572" lon="8.649432">
<ele>279.5</ele>
<speed>5.0</speed>
<course>90.0</course>
<desc>Speed 5.0 km/h Distance 3.24 km</desc>
<time>2010-02-21T10:44:11.51</time>
<name>2289</name>
</trkpt>
<trkpt lat="48.946572" lon="8.649437">
<ele>279.0</ele>
<speed>2.2</speed>
<course>33.4</course>
<desc>Speed 2.2 km/h Distance 3.24 km</desc>
<time>2010-02-21T10:44:12.51</time>
<name>2290</name>
</trkpt>
<trkpt lat="48.946587" lon="8.649452">
<ele>278.5</ele>
<speed>1.5</speed>
<course>48.4</course>
<desc>Speed 1.5 km/h Distance 3.24 km</desc>
<time>2010-02-21T10:44:13.51</time>
<name>2291</name>
</trkpt>
<trkpt lat="48.946598" lon="8.649472">
<ele>278.5</ele>
<speed>3.3</speed>
<course>13.8</course>
<desc>Speed 3.3 km/h Distance 3.24 km</desc>
<time>2010-02-21T10:44:14.51</time>
<name>2292</name>
</trkpt>
<trkpt lat="48.946607" lon="8.649475">
<ele>277.0</ele>
<speed>1.5</speed>
<course>53.0</course>
<desc>Speed 1.5 km/h Distance 3.24 km</desc>
<time>2010-02-21T10:44:15.51</time>
<name>2293</name>
</trkpt>
<trkpt lat="48.946610" lon="8.649482">
<ele>277.0</ele>
<speed>0.6</speed>
<course>32.3</course>
<desc>Speed 0.6 km/h Distance 3.24 km</desc>
<time>2010-02-21T10:44:16.51</time>
<name>2294</name>
</trkpt>
<trkpt lat="48.946615" lon="8.649487">
<ele>276.0</ele>
<speed>1.0</speed>
<course>8.1</course>
<desc>Speed 1.0 km/h Distance 3.24 km</desc>
<time>2010-02-21T10:44:17.51</time>
<name>2295</name>
</trkpt>
<trkpt lat="48.946620" lon="8.649487">
<ele>275.0</ele>
<speed>1.5</speed>
<course>18.8</course>
<desc>Speed 1.5 km/h Distance 3.24 km</desc>
<time>2010-02-21T10:44:18.51</time>
<name>2296</name>
</trkpt>
<trkpt lat="48.946623" lon="8.649488">
<ele>274.0</ele>
<speed>1.2</speed>
<course>0.0</course>
<desc>Speed 1.2 km/h Distance 3.24 km</desc>
<time>2010-02-21T10:44:19.51</time>
<name>2297</name>
</trkpt>
<trkpt lat="48.946630" lon="8.649488">
<ele>274.0</ele>
<speed>1.2</speed>
<course>23.8</course>
<desc>Speed 1.2 km/h Distance 3.24 km</desc>
<time>2010-02-21T10:44:20.51</time>
<name>2298</name>
</trkpt>
<trkpt lat="48.946640" lon="8.649495">
<ele>271.5</ele>
<speed>1.0</speed>
<course>285.5</course>
<desc>Speed 1.0 km/h Distance 3.24 km</desc>
<time>2010-02-21T10:44:21.53</time>
<name>2299</name>
</trkpt>
<trkpt lat="48.946643" lon="8.649477">
<ele>271.5</ele>
<speed>3.7</speed>
<course>351.0</course>
<desc>Speed 3.7 km/h Distance 3.25 km</desc>
<time>2010-02-21T10:44:22.53</time>
<name>2300</name>
</trkpt>
<trkpt lat="48.946657" lon="8.649473">
<ele>271.0</ele>
<speed>2.8</speed>
<course>341.2</course>
<desc>Speed 2.8 km/h Distance 3.25 km</desc>
<time>2010-02-21T10:44:23.53</time>
<name>2301</name>
</trkpt>
<trkpt lat="48.946663" lon="8.649470">
<ele>270.5</ele>
<speed>2.7</speed>
<course>18.2</course>
<desc>Speed 2.7 km/h Distance 3.25 km</desc>
<time>2010-02-21T10:44:24.53</time>
<name>2302</name>
</trkpt>
<trkpt lat="48.946673" lon="8.649475">
<ele>269.0</ele>
<speed>2.4</speed>
<course>0.0</course>
<desc>Speed 2.4 km/h Distance 3.25 km</desc>
<time>2010-02-21T10:44:25.53</time>
<name>2303</name>
</trkpt>
<trkpt lat="48.946683" lon="8.649475">
<ele>268.5</ele>
<speed>2.5</speed>
<course>15.5</course>
<desc>Speed 2.5 km/h Distance 3.25 km</desc>
<time>2010-02-21T10:44:26.53</time>
<name>2304</name>
</trkpt>
<trkpt lat="48.946695" lon="8.649480">
<ele>268.0</ele>
<speed>3.1</speed>
<course>348.8</course>
<desc>Speed 3.1 km/h Distance 3.25 km</desc>
<time>2010-02-21T10:44:27.53</time>
<name>2305</name>
</trkpt>
<trkpt lat="48.946707" lon="8.649477">
<ele>267.0</ele>
<speed>2.7</speed>
<course>321.9</course>
<desc>Speed 2.7 km/h Distance 3.25 km</desc>
<time>2010-02-21T10:44:28.53</time>
<name>2306</name>
</trkpt>
<trkpt lat="48.946715" lon="8.649467">
<ele>266.0</ele>
<speed>2.9</speed>
<course>330.6</course>
<desc>Speed 2.9 km/h Distance 3.25 km</desc>
<time>2010-02-21T10:44:29.53</time>
<name>2307</name>
</trkpt>
<trkpt lat="48.946727" lon="8.649457">
<ele>265.0</ele>
<speed>3.2</speed>
<course>341.8</course>
<desc>Speed 3.2 km/h Distance 3.26 km</desc>
<time>2010-02-21T10:44:30.53</time>
<name>2308</name>
</trkpt>
<trkpt lat="48.946737" lon="8.649452">
<ele>264.5</ele>
<speed>1.9</speed>
<course>4.4</course>
<desc>Speed 1.9 km/h Distance 3.26 km</desc>
<time>2010-02-21T10:44:31.53</time>
<name>2309</name>
</trkpt>
<trkpt lat="48.946747" lon="8.649452">
<ele>264.0</ele>
<speed>3.9</speed>
<course>341.8</course>
<desc>Speed 3.9 km/h Distance 3.26 km</desc>
<time>2010-02-21T10:44:32.53</time>
<name>2310</name>
</trkpt>
<trkpt lat="48.946757" lon="8.649447">
<ele>263.5</ele>
<speed>2.3</speed>
<course>333.6</course>
<desc>Speed 2.3 km/h Distance 3.26 km</desc>
<time>2010-02-21T10:44:33.53</time>
<name>2311</name>
</trkpt>
<trkpt lat="48.946763" lon="8.649442">
<ele>263.0</ele>
<speed>2.6</speed>
<course>336.2</course>
<desc>Speed 2.6 km/h Distance 3.26 km</desc>
<time>2010-02-21T10:44:34.53</time>
<name>2312</name>
</trkpt>
<trkpt lat="48.946773" lon="8.649435">
<ele>263.0</ele>
<speed>2.4</speed>
<course>14.9</course>
<desc>Speed 2.4 km/h Distance 3.26 km</desc>
<time>2010-02-21T10:44:35.53</time>
<name>2313</name>
</trkpt>
<trkpt lat="48.946782" lon="8.649438">
<ele>261.5</ele>
<speed>2.8</speed>
<course>338.5</course>
<desc>Speed 2.8 km/h Distance 3.26 km</desc>
<time>2010-02-21T10:44:36.53</time>
<name>2314</name>
</trkpt>
<trkpt lat="48.946790" lon="8.649433">
<ele>261.0</ele>
<speed>2.8</speed>
<course>326.8</course>
<desc>Speed 2.8 km/h Distance 3.26 km</desc>
<time>2010-02-21T10:44:37.53</time>
<name>2315</name>
</trkpt>
<trkpt lat="48.946798" lon="8.649425">
<ele>260.5</ele>
<speed>3.4</speed>
<course>342.5</course>
<desc>Speed 3.4 km/h Distance 3.26 km</desc>
<time>2010-02-21T10:44:38.53</time>
<name>2316</name>
</trkpt>
<trkpt lat="48.946805" lon="8.649422">
<ele>259.5</ele>
<speed>2.1</speed>
<course>9.5</course>
<desc>Speed 2.1 km/h Distance 3.27 km</desc>
<time>2010-02-21T10:44:39.53</time>
<name>2317</name>
</trkpt>
<trkpt lat="48.946817" lon="8.649425">
<ele>258.5</ele>
<speed>4.0</speed>
<course>355.6</course>
<desc>Speed 4.0 km/h Distance 3.27 km</desc>
<time>2010-02-21T10:44:40.53</time>
<name>2318</name>
</trkpt>
<trkpt lat="48.946827" lon="8.649423">
<ele>256.5</ele>
<speed>2.8</speed>
<course>337.8</course>
<desc>Speed 2.8 km/h Distance 3.27 km</desc>
<time>2010-02-21T10:44:41.53</time>
<name>2319</name>
</trkpt>
<trkpt lat="48.946832" lon="8.649420">
<ele>255.5</ele>
<speed>2.3</speed>
<course>319.1</course>
<desc>Speed 2.3 km/h Distance 3.27 km</desc>
<time>2010-02-21T10:44:42.53</time>
<name>2320</name>
</trkpt>
<trkpt lat="48.946837" lon="8.649413">
<ele>254.5</ele>
<speed>2.0</speed>
<course>303.3</course>
<desc>Speed 2.0 km/h Distance 3.27 km</desc>
<time>2010-02-21T10:44:43.53</time>
<name>2321</name>
</trkpt>
<trkpt lat="48.946842" lon="8.649402">
<ele>254.0</ele>
<speed>3.3</speed>
<course>288.7</course>
<desc>Speed 3.3 km/h Distance 3.27 km</desc>
<time>2010-02-21T10:44:44.53</time>
<name>2322</name>
</trkpt>
<trkpt lat="48.946845" lon="8.649387">
<ele>254.0</ele>
<speed>3.2</speed>
<course>342.5</course>
<desc>Speed 3.2 km/h Distance 3.27 km</desc>
<time>2010-02-21T10:44:45.53</time>
<name>2323</name>
</trkpt>
<trkpt lat="48.946852" lon="8.649383">
<ele>254.0</ele>
<speed>2.1</speed>
<course>334.8</course>
<desc>Speed 2.1 km/h Distance 3.27 km</desc>
<time>2010-02-21T10:44:46.53</time>
<name>2324</name>
</trkpt>
<trkpt lat="48.946863" lon="8.649375">
<ele>255.5</ele>
<speed>2.6</speed>
<course>33.7</course>
<desc>Speed 2.6 km/h Distance 3.27 km</desc>
<time>2010-02-21T10:44:47.53</time>
<name>2325</name>
</trkpt>
<trkpt lat="48.946870" lon="8.649382">
<ele>255.5</ele>
<speed>3.2</speed>
<course>0.0</course>
<desc>Speed 3.2 km/h Distance 3.27 km</desc>
<time>2010-02-21T10:44:48.53</time>
<name>2326</name>
</trkpt>
<trkpt lat="48.946878" lon="8.649382">
<ele>254.5</ele>
<speed>2.8</speed>
<course>37.5</course>
<desc>Speed 2.8 km/h Distance 3.28 km</desc>
<time>2010-02-21T10:44:49.53</time>
<name>2327</name>
</trkpt>
<trkpt lat="48.946888" lon="8.649393">
<ele>253.0</ele>
<speed>4.3</speed>
<course>346.5</course>
<desc>Speed 4.3 km/h Distance 3.28 km</desc>
<time>2010-02-21T10:44:50.53</time>
<name>2328</name>
</trkpt>
<trkpt lat="48.946902" lon="8.649388">
<ele>253.5</ele>
<speed>3.7</speed>
<course>27.2</course>
<desc>Speed 3.7 km/h Distance 3.28 km</desc>
<time>2010-02-21T10:44:51.53</time>
<name>2329</name>
</trkpt>
<trkpt lat="48.946917" lon="8.649400">
<ele>252.5</ele>
<speed>5.5</speed>
<course>12.6</course>
<desc>Speed 5.5 km/h Distance 3.28 km</desc>
<time>2010-02-21T10:44:52.53</time>
<name>2330</name>
</trkpt>
<trkpt lat="48.946927" lon="8.649403">
<ele>252.0</ele>
<speed>3.6</speed>
<course>334.4</course>
<desc>Speed 3.6 km/h Distance 3.28 km</desc>
<time>2010-02-21T10:44:53.53</time>
<name>2331</name>
</trkpt>
<trkpt lat="48.946933" lon="8.649398">
<ele>251.5</ele>
<speed>2.4</speed>
<course>312.2</course>
<desc>Speed 2.4 km/h Distance 3.28 km</desc>
<time>2010-02-21T10:44:54.53</time>
<name>2332</name>
</trkpt>
<trkpt lat="48.946938" lon="8.649390">
<ele>250.5</ele>
<speed>1.4</speed>
<course>17.1</course>
<desc>Speed 1.4 km/h Distance 3.28 km</desc>
<time>2010-02-21T10:44:55.53</time>
<name>2333</name>
</trkpt>
<trkpt lat="48.946967" lon="8.649403">
<ele>247.5</ele>
<speed>3.0</speed>
<course>15.5</course>
<desc>Speed 3.0 km/h Distance 3.29 km</desc>
<time>2010-02-21T10:44:57.53</time>
<name>2334</name>
</trkpt>
<trkpt lat="48.946978" lon="8.649408">
<ele>247.5</ele>
<speed>4.4</speed>
<course>26.2</course>
<desc>Speed 4.4 km/h Distance 3.29 km</desc>
<time>2010-02-21T10:44:58.53</time>
<name>2335</name>
</trkpt>
<trkpt lat="48.946992" lon="8.649418">
<ele>247.0</ele>
<speed>5.1</speed>
<course>307.6</course>
<desc>Speed 5.1 km/h Distance 3.29 km</desc>
<time>2010-02-21T10:44:59.53</time>
<name>2336</name>
</trkpt>
<trkpt lat="48.946995" lon="8.649412">
<ele>246.5</ele>
<speed>1.7</speed>
<course>0.0</course>
<desc>Speed 1.7 km/h Distance 3.29 km</desc>
<time>2010-02-21T10:45:00.53</time>
<name>2337</name>
</trkpt>
<trkpt lat="48.947003" lon="8.649412">
<ele>246.5</ele>
<speed>2.2</speed>
<course>355.3</course>
<desc>Speed 2.2 km/h Distance 3.29 km</desc>
<time>2010-02-21T10:45:01.53</time>
<name>2338</name>
</trkpt>
<trkpt lat="48.947015" lon="8.649410">
<ele>247.5</ele>
<speed>3.2</speed>
<course>21.5</course>
<desc>Speed 3.2 km/h Distance 3.29 km</desc>
<time>2010-02-21T10:45:02.53</time>
<name>2339</name>
</trkpt>
<trkpt lat="48.947023" lon="8.649415">
<ele>246.0</ele>
<speed>3.2</speed>
<course>352.6</course>
<desc>Speed 3.2 km/h Distance 3.29 km</desc>
<time>2010-02-21T10:45:03.53</time>
<name>2340</name>
</trkpt>
<trkpt lat="48.947030" lon="8.649413">
<ele>245.5</ele>
<speed>2.0</speed>
<course>326.3</course>
<desc>Speed 2.0 km/h Distance 3.29 km</desc>
<time>2010-02-21T10:45:04.53</time>
<name>2341</name>
</trkpt>
<trkpt lat="48.947037" lon="8.649407">
<ele>245.5</ele>
<speed>2.6</speed>
<course>6.6</course>
<desc>Speed 2.6 km/h Distance 3.29 km</desc>
<time>2010-02-21T10:45:05.53</time>
<name>2342</name>
</trkpt>
<trkpt lat="48.947047" lon="8.649408">
<ele>244.5</ele>
<speed>3.0</speed>
<course>1.2</course>
<desc>Speed 3.0 km/h Distance 3.30 km</desc>
<time>2010-02-21T10:45:06.53</time>
<name>2343</name>
</trkpt>
<trkpt lat="48.947060" lon="8.649408">
<ele>244.5</ele>
<speed>4.6</speed>
<course>330.2</course>
<desc>Speed 4.6 km/h Distance 3.30 km</desc>
<time>2010-02-21T10:45:07.53</time>
<name>2344</name>
</trkpt>
<trkpt lat="48.947073" lon="8.649397">
<ele>245.5</ele>
<speed>3.1</speed>
<course>303.4</course>
<desc>Speed 3.1 km/h Distance 3.30 km</desc>
<time>2010-02-21T10:45:08.53</time>
<name>2345</name>
</trkpt>
<trkpt lat="48.947100" lon="8.649335">
<ele>251.0</ele>
<speed>6.0</speed>
<course>334.4</course>
<desc>Speed 6.0 km/h Distance 3.30 km</desc>
<time>2010-02-21T10:45:10.53</time>
<name>2346</name>
</trkpt>
<trkpt lat="48.947107" lon="8.649330">
<ele>251.5</ele>
<speed>2.1</speed>
<course>326.5</course>
<desc>Speed 2.1 km/h Distance 3.31 km</desc>
<time>2010-02-21T10:45:11.53</time>
<name>2347</name>
</trkpt>
<trkpt lat="48.947115" lon="8.649322">
<ele>251.0</ele>
<speed>2.8</speed>
<course>332.1</course>
<desc>Speed 2.8 km/h Distance 3.31 km</desc>
<time>2010-02-21T10:45:12.53</time>
<name>2348</name>
</trkpt>
<trkpt lat="48.947123" lon="8.649315">
<ele>251.0</ele>
<speed>4.0</speed>
<course>0.0</course>
<desc>Speed 4.0 km/h Distance 3.31 km</desc>
<time>2010-02-21T10:45:13.53</time>
<name>2349</name>
</trkpt>
<trkpt lat="48.947133" lon="8.649315">
<ele>251.5</ele>
<speed>3.7</speed>
<course>4.4</course>
<desc>Speed 3.7 km/h Distance 3.31 km</desc>
<time>2010-02-21T10:45:14.53</time>
<name>2350</name>
</trkpt>
<trkpt lat="48.947143" lon="8.649315">
<ele>252.0</ele>
<speed>3.6</speed>
<course>338.5</course>
<desc>Speed 3.6 km/h Distance 3.31 km</desc>
<time>2010-02-21T10:45:15.53</time>
<name>2351</name>
</trkpt>
<trkpt lat="48.947152" lon="8.649310">
<ele>253.0</ele>
<speed>3.4</speed>
<course>332.1</course>
<desc>Speed 3.4 km/h Distance 3.31 km</desc>
<time>2010-02-21T10:45:16.53</time>
<name>2352</name>
</trkpt>
<trkpt lat="48.947160" lon="8.649303">
<ele>252.5</ele>
<speed>2.6</speed>
<course>270.0</course>
<desc>Speed 2.6 km/h Distance 3.31 km</desc>
<time>2010-02-21T10:45:17.53</time>
<name>2353</name>
</trkpt>
<trkpt lat="48.947160" lon="8.649285">
<ele>253.5</ele>
<speed>1.4</speed>
<course>338.5</course>
<desc>Speed 1.4 km/h Distance 3.31 km</desc>
<time>2010-02-21T10:45:18.53</time>
<name>2354</name>
</trkpt>
<trkpt lat="48.947168" lon="8.649280">
<ele>252.5</ele>
<speed>2.4</speed>
<course>270.0</course>
<desc>Speed 2.4 km/h Distance 3.31 km</desc>
<time>2010-02-21T10:45:19.53</time>
<name>2355</name>
</trkpt>
<trkpt lat="48.947168" lon="8.649245">
<ele>254.5</ele>
<speed>3.2</speed>
<course>299.7</course>
<desc>Speed 3.2 km/h Distance 3.32 km</desc>
<time>2010-02-21T10:45:20.53</time>
<name>2356</name>
</trkpt>
<trkpt lat="48.947173" lon="8.649232">
<ele>255.5</ele>
<speed>3.1</speed>
<course>2.2</course>
<desc>Speed 3.1 km/h Distance 3.32 km</desc>
<time>2010-02-21T10:45:21.53</time>
<name>2357</name>
</trkpt>
<trkpt lat="48.947185" lon="8.649232">
<ele>255.0</ele>
<speed>3.9</speed>
<course>12.6</course>
<desc>Speed 3.9 km/h Distance 3.32 km</desc>
<time>2010-02-21T10:45:22.53</time>
<name>2358</name>
</trkpt>
<trkpt lat="48.947190" lon="8.649233">
<ele>253.5</ele>
<speed>1.7</speed>
<course>14.9</course>
<desc>Speed 1.7 km/h Distance 3.32 km</desc>
<time>2010-02-21T10:45:23.53</time>
<name>2359</name>
</trkpt>
<trkpt lat="48.947198" lon="8.649237">
<ele>253.0</ele>
<speed>2.8</speed>
<course>241.9</course>
<desc>Speed 2.8 km/h Distance 3.32 km</desc>
<time>2010-02-21T10:45:24.53</time>
<name>2360</name>
</trkpt>
<trkpt lat="48.947187" lon="8.649203">
<ele>256.0</ele>
<speed>4.7</speed>
<course>20.2</course>
<desc>Speed 4.7 km/h Distance 3.32 km</desc>
<time>2010-02-21T10:45:25.53</time>
<name>2361</name>
</trkpt>
<trkpt lat="48.947198" lon="8.649210">
<ele>255.0</ele>
<speed>5.1</speed>
<course>307.3</course>
<desc>Speed 5.1 km/h Distance 3.32 km</desc>
<time>2010-02-21T10:45:26.53</time>
<name>2362</name>
</trkpt>
<trkpt lat="48.947205" lon="8.649197">
<ele>255.5</ele>
<speed>3.5</speed>
<course>283.2</course>
<desc>Speed 3.5 km/h Distance 3.33 km</desc>
<time>2010-02-21T10:45:27.53</time>
<name>2363</name>
</trkpt>
<trkpt lat="48.947208" lon="8.649175">
<ele>256.5</ele>
<speed>3.2</speed>
<course>303.1</course>
<desc>Speed 3.2 km/h Distance 3.33 km</desc>
<time>2010-02-21T10:45:28.53</time>
<name>2364</name>
</trkpt>
<trkpt lat="48.947213" lon="8.649163">
<ele>256.0</ele>
<speed>1.7</speed>
<course>290.8</course>
<desc>Speed 1.7 km/h Distance 3.33 km</desc>
<time>2010-02-21T10:45:29.53</time>
<name>2365</name>
</trkpt>
<trkpt lat="48.947217" lon="8.649150">
<ele>257.5</ele>
<speed>1.8</speed>
<course>301.3</course>
<desc>Speed 1.8 km/h Distance 3.33 km</desc>
<time>2010-02-21T10:45:30.53</time>
<name>2366</name>
</trkpt>
<trkpt lat="48.947223" lon="8.649133">
<ele>258.0</ele>
<speed>2.0</speed>
<course>332.1</course>
<desc>Speed 2.0 km/h Distance 3.33 km</desc>
<time>2010-02-21T10:45:31.53</time>
<name>2367</name>
</trkpt>
<trkpt lat="48.947232" lon="8.649127">
<ele>258.5</ele>
<speed>1.0</speed>
<course>347.4</course>
<desc>Speed 1.0 km/h Distance 3.33 km</desc>
<time>2010-02-21T10:45:32.53</time>
<name>2368</name>
</trkpt>
<trkpt lat="48.947237" lon="8.649125">
<ele>257.5</ele>
<speed>1.4</speed>
<course>343.7</course>
<desc>Speed 1.4 km/h Distance 3.33 km</desc>
<time>2010-02-21T10:45:33.53</time>
<name>2369</name>
</trkpt>
<trkpt lat="48.947252" lon="8.649118">
<ele>256.0</ele>
<speed>2.5</speed>
<course>290.8</course>
<desc>Speed 2.5 km/h Distance 3.33 km</desc>
<time>2010-02-21T10:45:34.53</time>
<name>2370</name>
</trkpt>
<trkpt lat="48.947257" lon="8.649098">
<ele>256.0</ele>
<speed>2.5</speed>
<course>347.4</course>
<desc>Speed 2.5 km/h Distance 3.34 km</desc>
<time>2010-02-21T10:45:35.53</time>
<name>2371</name>
</trkpt>
<trkpt lat="48.947267" lon="8.649095">
<ele>256.0</ele>
<speed>2.4</speed>
<course>339.8</course>
<desc>Speed 2.4 km/h Distance 3.34 km</desc>
<time>2010-02-21T10:45:36.53</time>
<name>2372</name>
</trkpt>
<trkpt lat="48.947278" lon="8.649088">
<ele>256.0</ele>
<speed>3.1</speed>
<course>315.5</course>
<desc>Speed 3.1 km/h Distance 3.34 km</desc>
<time>2010-02-21T10:45:37.53</time>
<name>2373</name>
</trkpt>
<trkpt lat="48.947285" lon="8.649078">
<ele>256.5</ele>
<speed>2.5</speed>
<course>270.0</course>
<desc>Speed 2.5 km/h Distance 3.34 km</desc>
<time>2010-02-21T10:45:38.53</time>
<name>2374</name>
</trkpt>
<trkpt lat="48.947285" lon="8.649067">
<ele>256.5</ele>
<speed>1.8</speed>
<course>345.1</course>
<desc>Speed 1.8 km/h Distance 3.34 km</desc>
<time>2010-02-21T10:45:39.53</time>
<name>2375</name>
</trkpt>
<trkpt lat="48.947293" lon="8.649063">
<ele>253.5</ele>
<speed>1.9</speed>
<course>337.8</course>
<desc>Speed 1.9 km/h Distance 3.34 km</desc>
<time>2010-02-21T10:45:40.53</time>
<name>2376</name>
</trkpt>
<trkpt lat="48.947298" lon="8.649060">
<ele>253.0</ele>
<speed>1.2</speed>
<course>270.0</course>
<desc>Speed 1.2 km/h Distance 3.34 km</desc>
<time>2010-02-21T10:45:41.75</time>
<name>2377</name>
</trkpt>
<trkpt lat="48.947298" lon="8.649057">
<ele>252.5</ele>
<speed>0.3</speed>
<course>257.7</course>
<desc>Speed 0.3 km/h Distance 3.34 km</desc>
<time>2010-02-21T10:45:42.53</time>
<name>2378</name>
</trkpt>
<trkpt lat="48.947295" lon="8.649033">
<ele>252.5</ele>
<speed>5.7</speed>
<course>338.5</course>
<desc>Speed 5.7 km/h Distance 3.34 km</desc>
<time>2010-02-21T10:45:45.34</time>
<name>2379</name>
</trkpt>
<trkpt lat="48.947303" lon="8.649028">
<ele>252.5</ele>
<speed>0.3</speed>
<course>315.5</course>
<desc>Speed 0.3 km/h Distance 3.34 km</desc>
<time>2010-02-21T10:45:46.54</time>
<name>2380</name>
</trkpt>
<trkpt lat="48.947307" lon="8.649023">
<ele>253.0</ele>
<speed>0.1</speed>
<course>337.0</course>
<desc>Speed 0.1 km/h Distance 3.35 km</desc>
<time>2010-02-21T10:45:47.80</time>
<name>2381</name>
</trkpt>
<trkpt lat="48.947310" lon="8.649022">
<ele>253.0</ele>
<speed>0.3</speed>
<course>341.2</course>
<desc>Speed 0.3 km/h Distance 3.35 km</desc>
<time>2010-02-21T10:45:48.62</time>
<name>2382</name>
</trkpt>
<trkpt lat="48.947313" lon="8.649020">
<ele>253.5</ele>
<speed>0.4</speed>
<course>308.1</course>
<desc>Speed 0.4 km/h Distance 3.35 km</desc>
<time>2010-02-21T10:45:49.62</time>
<name>2383</name>
</trkpt>
<trkpt lat="48.947315" lon="8.649017">
<ele>253.5</ele>
<speed>0.4</speed>
<course>297.4</course>
<desc>Speed 0.4 km/h Distance 3.35 km</desc>
<time>2010-02-21T10:45:50.62</time>
<name>2384</name>
</trkpt>
<trkpt lat="48.947317" lon="8.649012">
<ele>253.0</ele>
<speed>0.7</speed>
<course>334.4</course>
<desc>Speed 0.7 km/h Distance 3.35 km</desc>
<time>2010-02-21T10:45:51.62</time>
<name>2385</name>
</trkpt>
<trkpt lat="48.947323" lon="8.649007">
<ele>253.0</ele>
<speed>1.3</speed>
<course>270.0</course>
<desc>Speed 1.3 km/h Distance 3.35 km</desc>
<time>2010-02-21T10:45:52.85</time>
<name>2386</name>
</trkpt>
<trkpt lat="48.947323" lon="8.648998">
<ele>252.0</ele>
<speed>1.1</speed>
<course>284.4</course>
<desc>Speed 1.1 km/h Distance 3.35 km</desc>
<time>2010-02-21T10:45:53.67</time>
<name>2387</name>
</trkpt>
<trkpt lat="48.947325" lon="8.648988">
<ele>252.0</ele>
<speed>1.3</speed>
<course>290.9</course>
<desc>Speed 1.3 km/h Distance 3.35 km</desc>
<time>2010-02-21T10:45:54.67</time>
<name>2388</name>
</trkpt>
<trkpt lat="48.947328" lon="8.648975">
<ele>251.0</ele>
<speed>1.7</speed>
<course>293.5</course>
<desc>Speed 1.7 km/h Distance 3.35 km</desc>
<time>2010-02-21T10:45:55.67</time>
<name>2389</name>
</trkpt>
<trkpt lat="48.947332" lon="8.648963">
<ele>249.5</ele>
<speed>1.3</speed>
<course>303.1</course>
<desc>Speed 1.3 km/h Distance 3.35 km</desc>
<time>2010-02-21T10:45:56.70</time>
<name>2390</name>
</trkpt>
<trkpt lat="48.947337" lon="8.648952">
<ele>247.0</ele>
<speed>1.2</speed>
<course>315.5</course>
<desc>Speed 1.2 km/h Distance 3.35 km</desc>
<time>2010-02-21T10:45:57.68</time>
<name>2391</name>
</trkpt>
<trkpt lat="48.947343" lon="8.648942">
<ele>244.0</ele>
<speed>1.5</speed>
<course>313.8</course>
<desc>Speed 1.5 km/h Distance 3.35 km</desc>
<time>2010-02-21T10:45:58.68</time>
<name>2392</name>
</trkpt>
<trkpt lat="48.947352" lon="8.648928">
<ele>240.5</ele>
<speed>1.4</speed>
<course>304.1</course>
<desc>Speed 1.4 km/h Distance 3.35 km</desc>
<time>2010-02-21T10:45:59.68</time>
<name>2393</name>
</trkpt>
<trkpt lat="48.947358" lon="8.648913">
<ele>236.0</ele>
<speed>1.1</speed>
<course>320.6</course>
<desc>Speed 1.1 km/h Distance 3.36 km</desc>
<time>2010-02-21T10:46:00.72</time>
<name>2394</name>
</trkpt>
<trkpt lat="48.947365" lon="8.648905">
<ele>234.5</ele>
<speed>1.3</speed>
<course>297.0</course>
<desc>Speed 1.3 km/h Distance 3.36 km</desc>
<time>2010-02-21T10:46:01.70</time>
<name>2395</name>
</trkpt>
<trkpt lat="48.947368" lon="8.648895">
<ele>233.0</ele>
<speed>1.3</speed>
<course>307.2</course>
<desc>Speed 1.3 km/h Distance 3.36 km</desc>
<time>2010-02-21T10:46:02.70</time>
<name>2396</name>
</trkpt>
<trkpt lat="48.947373" lon="8.648885">
<ele>231.5</ele>
<speed>1.4</speed>
<course>320.6</course>
<desc>Speed 1.4 km/h Distance 3.36 km</desc>
<time>2010-02-21T10:46:03.70</time>
<name>2397</name>
</trkpt>
<trkpt lat="48.947380" lon="8.648877">
<ele>230.5</ele>
<speed>1.7</speed>
<course>318.1</course>
<desc>Speed 1.7 km/h Distance 3.36 km</desc>
<time>2010-02-21T10:46:04.71</time>
<name>2398</name>
</trkpt>
<trkpt lat="48.947385" lon="8.648870">
<ele>229.5</ele>
<speed>1.9</speed>
<course>334.8</course>
<desc>Speed 1.9 km/h Distance 3.36 km</desc>
<time>2010-02-21T10:46:05.97</time>
<name>2399</name>
</trkpt>
<trkpt lat="48.947408" lon="8.648853">
<ele>230.5</ele>
<speed>2.4</speed>
<course>343.5</course>
<desc>Speed 2.4 km/h Distance 3.36 km</desc>
<time>2010-02-21T10:46:07.78</time>
<name>2400</name>
</trkpt>
<trkpt lat="48.947442" lon="8.648838">
<ele>234.0</ele>
<speed>0.9</speed>
<course>329.2</course>
<desc>Speed 0.9 km/h Distance 3.37 km</desc>
<time>2010-02-21T10:46:09.78</time>
<name>2401</name>
</trkpt>
<trkpt lat="48.947458" lon="8.648823">
<ele>236.0</ele>
<speed>1.7</speed>
<course>312.2</course>
<desc>Speed 1.7 km/h Distance 3.37 km</desc>
<time>2010-02-21T10:46:11.31</time>
<name>2402</name>
</trkpt>
<trkpt lat="48.947463" lon="8.648815">
<ele>234.5</ele>
<speed>1.5</speed>
<course>327.7</course>
<desc>Speed 1.5 km/h Distance 3.37 km</desc>
<time>2010-02-21T10:46:12.31</time>
<name>2403</name>
</trkpt>
<trkpt lat="48.947468" lon="8.648810">
<ele>234.0</ele>
<speed>1.6</speed>
<course>12.6</course>
<desc>Speed 1.6 km/h Distance 3.37 km</desc>
<time>2010-02-21T10:46:13.31</time>
<name>2404</name>
</trkpt>
<trkpt lat="48.947470" lon="8.648810">
<ele>233.5</ele>
<speed>0.9</speed>
<course>337.8</course>
<desc>Speed 0.9 km/h Distance 3.37 km</desc>
<time>2010-02-21T10:46:14.30</time>
<name>2405</name>
</trkpt>
<trkpt lat="48.947475" lon="8.648807">
<ele>233.5</ele>
<speed>2.3</speed>
<course>9.0</course>
<desc>Speed 2.3 km/h Distance 3.37 km</desc>
<time>2010-02-21T10:46:15.30</time>
<name>2406</name>
</trkpt>
<trkpt lat="48.947488" lon="8.648810">
<ele>234.0</ele>
<speed>2.5</speed>
<course>325.9</course>
<desc>Speed 2.5 km/h Distance 3.37 km</desc>
<time>2010-02-21T10:46:16.30</time>
<name>2407</name>
</trkpt>
<trkpt lat="48.947493" lon="8.648805">
<ele>233.0</ele>
<speed>1.7</speed>
<course>327.7</course>
<desc>Speed 1.7 km/h Distance 3.37 km</desc>
<time>2010-02-21T10:46:17.30</time>
<name>2408</name>
</trkpt>
<trkpt lat="48.947498" lon="8.648800">
<ele>232.5</ele>
<speed>1.4</speed>
<course>326.3</course>
<desc>Speed 1.4 km/h Distance 3.37 km</desc>
<time>2010-02-21T10:46:18.30</time>
<name>2409</name>
</trkpt>
<trkpt lat="48.947502" lon="8.648797">
<ele>232.0</ele>
<speed>1.6</speed>
<course>301.4</course>
<desc>Speed 1.6 km/h Distance 3.37 km</desc>
<time>2010-02-21T10:46:19.30</time>
<name>2410</name>
</trkpt>
<trkpt lat="48.947505" lon="8.648788">
<ele>231.5</ele>
<speed>1.7</speed>
<course>315.5</course>
<desc>Speed 1.7 km/h Distance 3.38 km</desc>
<time>2010-02-21T10:46:20.30</time>
<name>2411</name>
</trkpt>
<trkpt lat="48.947508" lon="8.648783">
<ele>230.5</ele>
<speed>1.4</speed>
<course>307.0</course>
<desc>Speed 1.4 km/h Distance 3.38 km</desc>
<time>2010-02-21T10:46:21.57</time>
<name>2412</name>
</trkpt>
<trkpt lat="48.947512" lon="8.648777">
<ele>229.5</ele>
<speed>1.4</speed>
<course>352.3</course>
<desc>Speed 1.4 km/h Distance 3.38 km</desc>
<time>2010-02-21T10:46:22.29</time>
<name>2413</name>
</trkpt>
<trkpt lat="48.947520" lon="8.648775">
<ele>230.5</ele>
<speed>2.9</speed>
<course>223.5</course>
<desc>Speed 2.9 km/h Distance 3.38 km</desc>
<time>2010-02-21T10:46:23.29</time>
<name>2414</name>
</trkpt>
<trkpt lat="48.947517" lon="8.648770">
<ele>229.5</ele>
<speed>1.5</speed>
<course>351.2</course>
<desc>Speed 1.5 km/h Distance 3.38 km</desc>
<time>2010-02-21T10:46:24.29</time>
<name>2415</name>
</trkpt>
<trkpt lat="48.947532" lon="8.648767">
<ele>227.5</ele>
<speed>1.8</speed>
<course>349.8</course>
<desc>Speed 1.8 km/h Distance 3.38 km</desc>
<time>2010-02-21T10:46:25.32</time>
<name>2416</name>
</trkpt>
<trkpt lat="48.947550" lon="8.648762">
<ele>226.0</ele>
<speed>2.6</speed>
<course>346.8</course>
<desc>Speed 2.6 km/h Distance 3.38 km</desc>
<time>2010-02-21T10:46:26.29</time>
<name>2417</name>
</trkpt>
<trkpt lat="48.947573" lon="8.648753">
<ele>227.0</ele>
<speed>2.8</speed>
<course>9.6</course>
<desc>Speed 2.8 km/h Distance 3.38 km</desc>
<time>2010-02-21T10:46:27.29</time>
<name>2418</name>
</trkpt>
<trkpt lat="48.947582" lon="8.648755">
<ele>225.5</ele>
<speed>3.0</speed>
<course>352.3</course>
<desc>Speed 3.0 km/h Distance 3.39 km</desc>
<time>2010-02-21T10:46:28.28</time>
<name>2419</name>
</trkpt>
<trkpt lat="48.947590" lon="8.648753">
<ele>225.5</ele>
<speed>1.5</speed>
<course>23.0</course>
<desc>Speed 1.5 km/h Distance 3.39 km</desc>
<time>2010-02-21T10:46:29.29</time>
<name>2420</name>
</trkpt>
<trkpt lat="48.947593" lon="8.648755">
<ele>224.0</ele>
<speed>1.3</speed>
<course>338.5</course>
<desc>Speed 1.3 km/h Distance 3.39 km</desc>
<time>2010-02-21T10:46:30.28</time>
<name>2421</name>
</trkpt>
<trkpt lat="48.947602" lon="8.648750">
<ele>222.0</ele>
<speed>1.7</speed>
<course>7.2</course>
<desc>Speed 1.7 km/h Distance 3.39 km</desc>
<time>2010-02-21T10:46:31.27</time>
<name>2422</name>
</trkpt>
<trkpt lat="48.947680" lon="8.648765">
<ele>234.5</ele>
<speed>3.9</speed>
<course>22.6</course>
<desc>Speed 3.9 km/h Distance 3.40 km</desc>
<time>2010-02-21T10:46:33.29</time>
<name>2423</name>
</trkpt>
<trkpt lat="48.947693" lon="8.648773">
<ele>235.5</ele>
<speed>2.6</speed>
<course>46.9</course>
<desc>Speed 2.6 km/h Distance 3.40 km</desc>
<time>2010-02-21T10:46:34.28</time>
<name>2424</name>
</trkpt>
<trkpt lat="48.947707" lon="8.648795">
<ele>236.5</ele>
<speed>6.2</speed>
<course>341.2</course>
<desc>Speed 6.2 km/h Distance 3.40 km</desc>
<time>2010-02-21T10:46:35.39</time>
<name>2425</name>
</trkpt>
<trkpt lat="48.947720" lon="8.648788">
<ele>238.5</ele>
<speed>3.7</speed>
<course>13.6</course>
<desc>Speed 3.7 km/h Distance 3.40 km</desc>
<time>2010-02-21T10:46:36.27</time>
<name>2426</name>
</trkpt>
<trkpt lat="48.947770" lon="8.648807">
<ele>243.5</ele>
<speed>12.1</speed>
<course>38.3</course>
<desc>Speed 12.1 km/h Distance 3.41 km</desc>
<time>2010-02-21T10:46:38.27</time>
<name>2427</name>
</trkpt>
<trkpt lat="48.947787" lon="8.648827">
<ele>245.0</ele>
<speed>6.1</speed>
<course>315.3</course>
<desc>Speed 6.1 km/h Distance 3.41 km</desc>
<time>2010-02-21T10:46:39.27</time>
<name>2428</name>
</trkpt>
<trkpt lat="48.947797" lon="8.648812">
<ele>247.0</ele>
<speed>1.2</speed>
<course>11.2</course>
<desc>Speed 1.2 km/h Distance 3.41 km</desc>
<time>2010-02-21T10:46:40.28</time>
<name>2429</name>
</trkpt>
<trkpt lat="48.947808" lon="8.648815">
<ele>247.5</ele>
<speed>2.7</speed>
<course>310.9</course>
<desc>Speed 2.7 km/h Distance 3.41 km</desc>
<time>2010-02-21T10:46:41.27</time>
<name>2430</name>
</trkpt>
<trkpt lat="48.947815" lon="8.648803">
<ele>247.0</ele>
<speed>3.4</speed>
<course>301.4</course>
<desc>Speed 3.4 km/h Distance 3.41 km</desc>
<time>2010-02-21T10:46:42.26</time>
<name>2431</name>
</trkpt>
<trkpt lat="48.947818" lon="8.648795">
<ele>246.0</ele>
<speed>2.1</speed>
<course>321.9</course>
<desc>Speed 2.1 km/h Distance 3.41 km</desc>
<time>2010-02-21T10:46:43.26</time>
<name>2432</name>
</trkpt>
<trkpt lat="48.947827" lon="8.648785">
<ele>246.0</ele>
<speed>4.1</speed>
<course>326.8</course>
<desc>Speed 4.1 km/h Distance 3.42 km</desc>
<time>2010-02-21T10:46:44.25</time>
<name>2433</name>
</trkpt>
<trkpt lat="48.947835" lon="8.648777">
<ele>246.0</ele>
<speed>3.5</speed>
<course>20.9</course>
<desc>Speed 3.5 km/h Distance 3.42 km</desc>
<time>2010-02-21T10:46:45.26</time>
<name>2434</name>
</trkpt>
<trkpt lat="48.947847" lon="8.648783">
<ele>246.0</ele>
<speed>3.9</speed>
<course>21.5</course>
<desc>Speed 3.9 km/h Distance 3.42 km</desc>
<time>2010-02-21T10:46:46.25</time>
<name>2435</name>
</trkpt>
<trkpt lat="48.947855" lon="8.648788">
<ele>245.5</ele>
<speed>2.4</speed>
<course>349.2</course>
<desc>Speed 2.4 km/h Distance 3.42 km</desc>
<time>2010-02-21T10:46:47.26</time>
<name>2436</name>
</trkpt>
<trkpt lat="48.947872" lon="8.648783">
<ele>246.5</ele>
<speed>2.2</speed>
<course>39.4</course>
<desc>Speed 2.2 km/h Distance 3.42 km</desc>
<time>2010-02-21T10:46:48.25</time>
<name>2437</name>
</trkpt>
<trkpt lat="48.947905" lon="8.648825">
<ele>246.0</ele>
<speed>2.1</speed>
<course>41.2</course>
<desc>Speed 2.1 km/h Distance 3.43 km</desc>
<time>2010-02-21T10:46:50.25</time>
<name>2438</name>
</trkpt>
<trkpt lat="48.947920" lon="8.648845">
<ele>244.0</ele>
<speed>1.4</speed>
<course>53.9</course>
<desc>Speed 1.4 km/h Distance 3.43 km</desc>
<time>2010-02-21T10:46:51.25</time>
<name>2439</name>
</trkpt>
<trkpt lat="48.947922" lon="8.648848">
<ele>242.5</ele>
<speed>1.1</speed>
<course>41.2</course>
<desc>Speed 1.1 km/h Distance 3.43 km</desc>
<time>2010-02-21T10:46:52.25</time>
<name>2440</name>
</trkpt>
<trkpt lat="48.947937" lon="8.648868">
<ele>242.0</ele>
<speed>2.7</speed>
<course>347.4</course>
<desc>Speed 2.7 km/h Distance 3.43 km</desc>
<time>2010-02-21T10:46:53.24</time>
<name>2441</name>
</trkpt>
<trkpt lat="48.947940" lon="8.648867">
<ele>242.5</ele>
<speed>0.3</speed>
<course>90.0</course>
<desc>Speed 0.3 km/h Distance 3.43 km</desc>
<time>2010-02-21T10:46:54.24</time>
<name>2442</name>
</trkpt>
<trkpt lat="48.947940" lon="8.648868">
<ele>241.5</ele>
<speed>1.3</speed>
<course>63.4</course>
<desc>Speed 1.3 km/h Distance 3.43 km</desc>
<time>2010-02-21T10:46:55.24</time>
<name>2443</name>
</trkpt>
<trkpt lat="48.947942" lon="8.648873">
<ele>240.5</ele>
<speed>1.6</speed>
<course>18.8</course>
<desc>Speed 1.6 km/h Distance 3.43 km</desc>
<time>2010-02-21T10:46:56.24</time>
<name>2444</name>
</trkpt>
<trkpt lat="48.947948" lon="8.648877">
<ele>241.0</ele>
<speed>2.4</speed>
<course>51.9</course>
<desc>Speed 2.4 km/h Distance 3.43 km</desc>
<time>2010-02-21T10:46:57.23</time>
<name>2445</name>
</trkpt>
<trkpt lat="48.947950" lon="8.648880">
<ele>241.0</ele>
<speed>0.9</speed>
<course>51.9</course>
<desc>Speed 0.9 km/h Distance 3.43 km</desc>
<time>2010-02-21T10:46:58.24</time>
<name>2446</name>
</trkpt>
<trkpt lat="48.947950" lon="8.648880">
<ele>241.0</ele>
<speed>1.0</speed>
<course>60.3</course>
<desc>Speed 1.0 km/h Distance 3.43 km</desc>
<time>2010-02-21T10:46:59.23</time>
<name>2447</name>
</trkpt>
<trkpt lat="48.947955" lon="8.648893">
<ele>240.5</ele>
<speed>3.9</speed>
<course>50.9</course>
<desc>Speed 3.9 km/h Distance 3.43 km</desc>
<time>2010-02-21T10:47:00.23</time>
<name>2448</name>
</trkpt>
<trkpt lat="48.947968" lon="8.648918">
<ele>239.5</ele>
<speed>2.3</speed>
<course>16.6</course>
<desc>Speed 2.3 km/h Distance 3.44 km</desc>
<time>2010-02-21T10:47:01.23</time>
<name>2449</name>
</trkpt>
<trkpt lat="48.947983" lon="8.648925">
<ele>240.5</ele>
<speed>1.3</speed>
<course>167.4</course>
<desc>Speed 1.3 km/h Distance 3.44 km</desc>
<time>2010-02-21T10:47:02.23</time>
<name>2450</name>
</trkpt>
<trkpt lat="48.947982" lon="8.648925">
<ele>240.5</ele>
<speed>1.3</speed>
<course>47.6</course>
<desc>Speed 1.3 km/h Distance 3.44 km</desc>
<time>2010-02-21T10:47:03.22</time>
<name>2451</name>
</trkpt>
<trkpt lat="48.947992" lon="8.648942">
<ele>242.0</ele>
<speed>4.2</speed>
<course>53.0</course>
<desc>Speed 4.2 km/h Distance 3.44 km</desc>
<time>2010-02-21T10:47:04.22</time>
<name>2452</name>
</trkpt>
<trkpt lat="48.947995" lon="8.648948">
<ele>242.5</ele>
<speed>1.9</speed>
<course>71.3</course>
<desc>Speed 1.9 km/h Distance 3.44 km</desc>
<time>2010-02-21T10:47:05.22</time>
<name>2453</name>
</trkpt>
<trkpt lat="48.947998" lon="8.648963">
<ele>241.5</ele>
<speed>2.2</speed>
<course>69.1</course>
<desc>Speed 2.2 km/h Distance 3.44 km</desc>
<time>2010-02-21T10:47:06.22</time>
<name>2454</name>
</trkpt>
<trkpt lat="48.948000" lon="8.648970">
<ele>239.5</ele>
<speed>1.3</speed>
<course>56.7</course>
<desc>Speed 1.3 km/h Distance 3.44 km</desc>
<time>2010-02-21T10:47:07.22</time>
<name>2455</name>
</trkpt>
<trkpt lat="48.948005" lon="8.648982">
<ele>239.0</ele>
<speed>2.1</speed>
<course>29.0</course>
<desc>Speed 2.1 km/h Distance 3.44 km</desc>
<time>2010-02-21T10:47:08.22</time>
<name>2456</name>
</trkpt>
<trkpt lat="48.948058" lon="8.649027">
<ele>241.0</ele>
<speed>2.4</speed>
<course>52.7</course>
<desc>Speed 2.4 km/h Distance 3.45 km</desc>
<time>2010-02-21T10:47:10.22</time>
<name>2457</name>
</trkpt>
<trkpt lat="48.948070" lon="8.649050">
<ele>241.0</ele>
<speed>2.7</speed>
<course>33.2</course>
<desc>Speed 2.7 km/h Distance 3.45 km</desc>
<time>2010-02-21T10:47:11.21</time>
<name>2458</name>
</trkpt>
<trkpt lat="48.948077" lon="8.649057">
<ele>240.5</ele>
<speed>2.7</speed>
<course>90.0</course>
<desc>Speed 2.7 km/h Distance 3.45 km</desc>
<time>2010-02-21T10:47:12.21</time>
<name>2459</name>
</trkpt>
<trkpt lat="48.948077" lon="8.649072">
<ele>239.5</ele>
<speed>2.8</speed>
<course>90.0</course>
<desc>Speed 2.8 km/h Distance 3.45 km</desc>
<time>2010-02-21T10:47:13.21</time>
<name>2460</name>
</trkpt>
<trkpt lat="48.948077" lon="8.649090">
<ele>238.0</ele>
<speed>2.7</speed>
<course>90.0</course>
<desc>Speed 2.7 km/h Distance 3.46 km</desc>
<time>2010-02-21T10:47:14.20</time>
<name>2461</name>
</trkpt>
<trkpt lat="48.948077" lon="8.649100">
<ele>236.0</ele>
<speed>1.9</speed>
<course>28.7</course>
<desc>Speed 1.9 km/h Distance 3.46 km</desc>
<time>2010-02-21T10:47:15.20</time>
<name>2462</name>
</trkpt>
<trkpt lat="48.948117" lon="8.649133">
<ele>238.5</ele>
<speed>3.0</speed>
<course>90.0</course>
<desc>Speed 3.0 km/h Distance 3.46 km</desc>
<time>2010-02-21T10:47:17.20</time>
<name>2463</name>
</trkpt>
<trkpt lat="48.948117" lon="8.649148">
<ele>237.5</ele>
<speed>2.9</speed>
<course>123.1</course>
<desc>Speed 2.9 km/h Distance 3.46 km</desc>
<time>2010-02-21T10:47:18.20</time>
<name>2464</name>
</trkpt>
<trkpt lat="48.948112" lon="8.649160">
<ele>236.0</ele>
<speed>3.4</speed>
<course>66.5</course>
<desc>Speed 3.4 km/h Distance 3.46 km</desc>
<time>2010-02-21T10:47:19.20</time>
<name>2465</name>
</trkpt>
<trkpt lat="48.948115" lon="8.649172">
<ele>234.5</ele>
<speed>2.3</speed>
<course>66.5</course>
<desc>Speed 2.3 km/h Distance 3.46 km</desc>
<time>2010-02-21T10:47:20.20</time>
<name>2466</name>
</trkpt>
<trkpt lat="48.948118" lon="8.649183">
<ele>232.0</ele>
<speed>1.7</speed>
<course>73.3</course>
<desc>Speed 1.7 km/h Distance 3.46 km</desc>
<time>2010-02-21T10:47:21.18</time>
<name>2467</name>
</trkpt>
<trkpt lat="48.948120" lon="8.649192">
<ele>230.0</ele>
<speed>2.2</speed>
<course>73.1</course>
<desc>Speed 2.2 km/h Distance 3.47 km</desc>
<time>2010-02-21T10:47:22.18</time>
<name>2468</name>
</trkpt>
<trkpt lat="48.948122" lon="8.649200">
<ele>229.5</ele>
<speed>1.4</speed>
<course>29.6</course>
<desc>Speed 1.4 km/h Distance 3.47 km</desc>
<time>2010-02-21T10:47:23.19</time>
<name>2469</name>
</trkpt>
<trkpt lat="48.948147" lon="8.649222">
<ele>234.5</ele>
<speed>2.6</speed>
<course>33.3</course>
<desc>Speed 2.6 km/h Distance 3.47 km</desc>
<time>2010-02-21T10:47:25.17</time>
<name>2470</name>
</trkpt>
<trkpt lat="48.948158" lon="8.649233">
<ele>234.0</ele>
<speed>5.0</speed>
<course>146.8</course>
<desc>Speed 5.0 km/h Distance 3.47 km</desc>
<time>2010-02-21T10:47:26.18</time>
<name>2471</name>
</trkpt>
<trkpt lat="48.948152" lon="8.649240">
<ele>233.5</ele>
<speed>4.0</speed>
<course>112.5</course>
<desc>Speed 4.0 km/h Distance 3.47 km</desc>
<time>2010-02-21T10:47:27.18</time>
<name>2472</name>
</trkpt>
<trkpt lat="48.948147" lon="8.649258">
<ele>233.5</ele>
<speed>5.1</speed>
<course>1.2</course>
<desc>Speed 5.1 km/h Distance 3.47 km</desc>
<time>2010-02-21T10:47:28.17</time>
<name>2473</name>
</trkpt>
<trkpt lat="48.948167" lon="8.649260">
<ele>234.5</ele>
<speed>6.6</speed>
<course>33.2</course>
<desc>Speed 6.6 km/h Distance 3.48 km</desc>
<time>2010-02-21T10:47:29.17</time>
<name>2474</name>
</trkpt>
<trkpt lat="48.948177" lon="8.649270">
<ele>235.0</ele>
<speed>3.3</speed>
<course>33.2</course>
<desc>Speed 3.3 km/h Distance 3.48 km</desc>
<time>2010-02-21T10:47:30.16</time>
<name>2475</name>
</trkpt>
<trkpt lat="48.948185" lon="8.649278">
<ele>233.5</ele>
<speed>1.4</speed>
<course>110.9</course>
<desc>Speed 1.4 km/h Distance 3.48 km</desc>
<time>2010-02-21T10:47:31.16</time>
<name>2476</name>
</trkpt>
<trkpt lat="48.948183" lon="8.649285">
<ele>232.0</ele>
<speed>2.9</speed>
<course>33.2</course>
<desc>Speed 2.9 km/h Distance 3.48 km</desc>
<time>2010-02-21T10:47:32.17</time>
<name>2477</name>
</trkpt>
<trkpt lat="48.948192" lon="8.649293">
<ele>232.5</ele>
<speed>2.7</speed>
<course>75.6</course>
<desc>Speed 2.7 km/h Distance 3.48 km</desc>
<time>2010-02-21T10:47:33.16</time>
<name>2478</name>
</trkpt>
<trkpt lat="48.948193" lon="8.649303">
<ele>233.0</ele>
<speed>2.1</speed>
<course>72.9</course>
<desc>Speed 2.1 km/h Distance 3.48 km</desc>
<time>2010-02-21T10:47:34.16</time>
<name>2479</name>
</trkpt>
<trkpt lat="48.948195" lon="8.649312">
<ele>232.0</ele>
<speed>2.1</speed>
<course>135.5</course>
<desc>Speed 2.1 km/h Distance 3.48 km</desc>
<time>2010-02-21T10:47:35.16</time>
<name>2480</name>
</trkpt>
<trkpt lat="48.948192" lon="8.649317">
<ele>230.5</ele>
<speed>1.9</speed>
<course>52.8</course>
<desc>Speed 1.9 km/h Distance 3.48 km</desc>
<time>2010-02-21T10:47:36.18</time>
<name>2481</name>
</trkpt>
<trkpt lat="48.948197" lon="8.649327">
<ele>229.5</ele>
<speed>1.8</speed>
<course>33.3</course>
<desc>Speed 1.8 km/h Distance 3.48 km</desc>
<time>2010-02-21T10:47:37.15</time>
<name>2482</name>
</trkpt>
<trkpt lat="48.948215" lon="8.649345">
<ele>232.5</ele>
<speed>1.7</speed>
<course>121.4</course>
<desc>Speed 1.7 km/h Distance 3.48 km</desc>
<time>2010-02-21T10:47:38.15</time>
<name>2483</name>
</trkpt>
<trkpt lat="48.948212" lon="8.649353">
<ele>232.5</ele>
<speed>2.0</speed>
<course>123.1</course>
<desc>Speed 2.0 km/h Distance 3.49 km</desc>
<time>2010-02-21T10:47:39.15</time>
<name>2484</name>
</trkpt>
<trkpt lat="48.948207" lon="8.649365">
<ele>231.5</ele>
<speed>3.0</speed>
<course>90.0</course>
<desc>Speed 3.0 km/h Distance 3.49 km</desc>
<time>2010-02-21T10:47:40.15</time>
<name>2485</name>
</trkpt>
<trkpt lat="48.948207" lon="8.649377">
<ele>232.5</ele>
<speed>1.4</speed>
<course>30.9</course>
<desc>Speed 1.4 km/h Distance 3.49 km</desc>
<time>2010-02-21T10:47:41.15</time>
<name>2486</name>
</trkpt>
<trkpt lat="48.948225" lon="8.649393">
<ele>233.0</ele>
<speed>1.4</speed>
<course>19.0</course>
<desc>Speed 1.4 km/h Distance 3.49 km</desc>
<time>2010-02-21T10:47:42.15</time>
<name>2487</name>
</trkpt>
<trkpt lat="48.948323" lon="8.649445">
<ele>247.0</ele>
<speed>1.5</speed>
<course>60.2</course>
<desc>Speed 1.5 km/h Distance 3.50 km</desc>
<time>2010-02-21T10:47:45.13</time>
<name>2488</name>
</trkpt>
<trkpt lat="48.948328" lon="8.649458">
<ele>249.0</ele>
<speed>1.7</speed>
<course>17.2</course>
<desc>Speed 1.7 km/h Distance 3.50 km</desc>
<time>2010-02-21T10:47:46.13</time>
<name>2489</name>
</trkpt>
<trkpt lat="48.948388" lon="8.649487">
<ele>259.0</ele>
<speed>1.9</speed>
<course>77.7</course>
<desc>Speed 1.9 km/h Distance 3.51 km</desc>
<time>2010-02-21T10:47:48.12</time>
<name>2490</name>
</trkpt>
<trkpt lat="48.948390" lon="8.649498">
<ele>260.0</ele>
<speed>1.9</speed>
<course>44.5</course>
<desc>Speed 1.9 km/h Distance 3.51 km</desc>
<time>2010-02-21T10:47:49.12</time>
<name>2491</name>
</trkpt>
<trkpt lat="48.948397" lon="8.649508">
<ele>261.5</ele>
<speed>2.6</speed>
<course>26.0</course>
<desc>Speed 2.6 km/h Distance 3.51 km</desc>
<time>2010-02-21T10:47:50.12</time>
<name>2492</name>
</trkpt>
<trkpt lat="48.948410" lon="8.649518">
<ele>264.5</ele>
<speed>2.0</speed>
<course>69.2</course>
<desc>Speed 2.0 km/h Distance 3.51 km</desc>
<time>2010-02-21T10:47:51.14</time>
<name>2493</name>
</trkpt>
<trkpt lat="48.948413" lon="8.649532">
<ele>266.0</ele>
<speed>1.8</speed>
<course>69.1</course>
<desc>Speed 1.8 km/h Distance 3.51 km</desc>
<time>2010-02-21T10:47:52.11</time>
<name>2494</name>
</trkpt>
<trkpt lat="48.948417" lon="8.649545">
<ele>267.0</ele>
<speed>1.3</speed>
<course>90.0</course>
<desc>Speed 1.3 km/h Distance 3.52 km</desc>
<time>2010-02-21T10:47:53.10</time>
<name>2495</name>
</trkpt>
<trkpt lat="48.948417" lon="8.649553">
<ele>267.5</ele>
<speed>2.0</speed>
<course>38.1</course>
<desc>Speed 2.0 km/h Distance 3.52 km</desc>
<time>2010-02-21T10:47:54.11</time>
<name>2496</name>
</trkpt>
<trkpt lat="48.948425" lon="8.649563">
<ele>268.0</ele>
<speed>1.8</speed>
<course>63.0</course>
<desc>Speed 1.8 km/h Distance 3.52 km</desc>
<time>2010-02-21T10:47:55.10</time>
<name>2497</name>
</trkpt>
<trkpt lat="48.948428" lon="8.649573">
<ele>269.0</ele>
<speed>2.1</speed>
<course>27.0</course>
<desc>Speed 2.1 km/h Distance 3.52 km</desc>
<time>2010-02-21T10:47:56.10</time>
<name>2498</name>
</trkpt>
<trkpt lat="48.948443" lon="8.649585">
<ele>270.0</ele>
<speed>1.9</speed>
<course>26.2</course>
<desc>Speed 1.9 km/h Distance 3.52 km</desc>
<time>2010-02-21T10:47:57.09</time>
<name>2499</name>
</trkpt>
<trkpt lat="48.948470" lon="8.649605">
<ele>274.0</ele>
<speed>2.1</speed>
<course>42.6</course>
<desc>Speed 2.1 km/h Distance 3.52 km</desc>
<time>2010-02-21T10:47:59.09</time>
<name>2500</name>
</trkpt>
<trkpt lat="48.948478" lon="8.649617">
<ele>275.0</ele>
<speed>2.7</speed>
<course>90.0</course>
<desc>Speed 2.7 km/h Distance 3.52 km</desc>
<time>2010-02-21T10:48:00.09</time>
<name>2501</name>
</trkpt>
<trkpt lat="48.948478" lon="8.649627">
<ele>274.5</ele>
<speed>1.9</speed>
<course>66.5</course>
<desc>Speed 1.9 km/h Distance 3.53 km</desc>
<time>2010-02-21T10:48:01.08</time>
<name>2502</name>
</trkpt>
<trkpt lat="48.948482" lon="8.649638">
<ele>274.5</ele>
<speed>2.0</speed>
<course>69.1</course>
<desc>Speed 2.0 km/h Distance 3.53 km</desc>
<time>2010-02-21T10:48:02.10</time>
<name>2503</name>
</trkpt>
<trkpt lat="48.948483" lon="8.649645">
<ele>274.5</ele>
<speed>1.2</speed>
<course>40.9</course>
<desc>Speed 1.2 km/h Distance 3.53 km</desc>
<time>2010-02-21T10:48:03.07</time>
<name>2504</name>
</trkpt>
<trkpt lat="48.948488" lon="8.649652">
<ele>275.0</ele>
<speed>2.1</speed>
<course>33.7</course>
<desc>Speed 2.1 km/h Distance 3.53 km</desc>
<time>2010-02-21T10:48:04.07</time>
<name>2505</name>
</trkpt>
<trkpt lat="48.948495" lon="8.649658">
<ele>276.5</ele>
<speed>1.7</speed>
<course>20.8</course>
<desc>Speed 1.7 km/h Distance 3.53 km</desc>
<time>2010-02-21T10:48:05.07</time>
<name>2506</name>
</trkpt>
<trkpt lat="48.948503" lon="8.649663">
<ele>277.5</ele>
<speed>1.1</speed>
<course>29.4</course>
<desc>Speed 1.1 km/h Distance 3.53 km</desc>
<time>2010-02-21T10:48:06.06</time>
<name>2507</name>
</trkpt>
<trkpt lat="48.948515" lon="8.649673">
<ele>279.5</ele>
<speed>2.0</speed>
<course>53.0</course>
<desc>Speed 2.0 km/h Distance 3.53 km</desc>
<time>2010-02-21T10:48:07.06</time>
<name>2508</name>
</trkpt>
<trkpt lat="48.948518" lon="8.649680">
<ele>280.0</ele>
<speed>1.2</speed>
<course>90.0</course>
<desc>Speed 1.2 km/h Distance 3.53 km</desc>
<time>2010-02-21T10:48:08.06</time>
<name>2509</name>
</trkpt>
<trkpt lat="48.948518" lon="8.649693">
<ele>280.5</ele>
<speed>1.8</speed>
<course>69.2</course>
<desc>Speed 1.8 km/h Distance 3.53 km</desc>
<time>2010-02-21T10:48:09.05</time>
<name>2510</name>
</trkpt>
<trkpt lat="48.948522" lon="8.649707">
<ele>281.5</ele>
<speed>1.7</speed>
<course>33.3</course>
<desc>Speed 1.7 km/h Distance 3.53 km</desc>
<time>2010-02-21T10:48:10.06</time>
<name>2511</name>
</trkpt>
<trkpt lat="48.948533" lon="8.649718">
<ele>283.5</ele>
<speed>2.0</speed>
<course>62.6</course>
<desc>Speed 2.0 km/h Distance 3.53 km</desc>
<time>2010-02-21T10:48:11.05</time>
<name>2512</name>
</trkpt>
<trkpt lat="48.948535" lon="8.649723">
<ele>283.5</ele>
<speed>0.9</speed>
<course>28.4</course>
<desc>Speed 0.9 km/h Distance 3.54 km</desc>
<time>2010-02-21T10:48:12.04</time>
<name>2513</name>
</trkpt>
<trkpt lat="48.948563" lon="8.649747">
<ele>286.0</ele>
<speed>1.7</speed>
<course>81.4</course>
<desc>Speed 1.7 km/h Distance 3.54 km</desc>
<time>2010-02-21T10:48:14.04</time>
<name>2514</name>
</trkpt>
<trkpt lat="48.948565" lon="8.649763">
<ele>287.0</ele>
<speed>1.9</speed>
<course>52.7</course>
<desc>Speed 1.9 km/h Distance 3.54 km</desc>
<time>2010-02-21T10:48:15.04</time>
<name>2515</name>
</trkpt>
<trkpt lat="48.948573" lon="8.649780">
<ele>289.0</ele>
<speed>1.5</speed>
<course>33.2</course>
<desc>Speed 1.5 km/h Distance 3.54 km</desc>
<time>2010-02-21T10:48:16.03</time>
<name>2516</name>
</trkpt>
<trkpt lat="48.948582" lon="8.649788">
<ele>290.0</ele>
<speed>1.6</speed>
<course>53.0</course>
<desc>Speed 1.6 km/h Distance 3.54 km</desc>
<time>2010-02-21T10:48:17.03</time>
<name>2517</name>
</trkpt>
<trkpt lat="48.948585" lon="8.649795">
<ele>290.5</ele>
<speed>1.5</speed>
<course>23.8</course>
<desc>Speed 1.5 km/h Distance 3.54 km</desc>
<time>2010-02-21T10:48:18.03</time>
<name>2518</name>
</trkpt>
<trkpt lat="48.948595" lon="8.649802">
<ele>291.5</ele>
<speed>1.5</speed>
<course>73.3</course>
<desc>Speed 1.5 km/h Distance 3.54 km</desc>
<time>2010-02-21T10:48:19.02</time>
<name>2519</name>
</trkpt>
<trkpt lat="48.948597" lon="8.649810">
<ele>291.0</ele>
<speed>1.5</speed>
<course>66.5</course>
<desc>Speed 1.5 km/h Distance 3.55 km</desc>
<time>2010-02-21T10:48:20.02</time>
<name>2520</name>
</trkpt>
<trkpt lat="48.948600" lon="8.649822">
<ele>291.5</ele>
<speed>1.4</speed>
<course>90.0</course>
<desc>Speed 1.4 km/h Distance 3.55 km</desc>
<time>2010-02-21T10:48:21.01</time>
<name>2521</name>
</trkpt>
<trkpt lat="48.948600" lon="8.649830">
<ele>291.0</ele>
<speed>1.9</speed>
<course>69.1</course>
<desc>Speed 1.9 km/h Distance 3.55 km</desc>
<time>2010-02-21T10:48:22.01</time>
<name>2522</name>
</trkpt>
<trkpt lat="48.948602" lon="8.649837">
<ele>290.5</ele>
<speed>1.8</speed>
<course>71.3</course>
<desc>Speed 1.8 km/h Distance 3.55 km</desc>
<time>2010-02-21T10:48:23.01</time>
<name>2523</name>
</trkpt>
<trkpt lat="48.948605" lon="8.649852">
<ele>289.5</ele>
<speed>2.2</speed>
<course>58.7</course>
<desc>Speed 2.2 km/h Distance 3.55 km</desc>
<time>2010-02-21T10:48:24.00</time>
<name>2524</name>
</trkpt>
<trkpt lat="48.948612" lon="8.649868">
<ele>289.0</ele>
<speed>2.4</speed>
<course>49.9</course>
<desc>Speed 2.4 km/h Distance 3.55 km</desc>
<time>2010-02-21T10:48:25.00</time>
<name>2525</name>
</trkpt>
<trkpt lat="48.948620" lon="8.649883">
<ele>288.0</ele>
<speed>1.8</speed>
<course>49.1</course>
<desc>Speed 1.8 km/h Distance 3.55 km</desc>
<time>2010-02-21T10:48:26.00</time>
<name>2526</name>
</trkpt>
<trkpt lat="48.948627" lon="8.649895">
<ele>287.0</ele>
<speed>2.1</speed>
<course>75.8</course>
<desc>Speed 2.1 km/h Distance 3.55 km</desc>
<time>2010-02-21T10:48:26.99</time>
<name>2527</name>
</trkpt>
<trkpt lat="48.948630" lon="8.649915">
<ele>285.0</ele>
<speed>1.9</speed>
<course>76.8</course>
<desc>Speed 1.9 km/h Distance 3.55 km</desc>
<time>2010-02-21T10:48:27.99</time>
<name>2528</name>
</trkpt>
<trkpt lat="48.948633" lon="8.649937">
<ele>283.5</ele>
<speed>1.8</speed>
<course>109.4</course>
<desc>Speed 1.8 km/h Distance 3.56 km</desc>
<time>2010-02-21T10:48:28.99</time>
<name>2529</name>
</trkpt>
<trkpt lat="48.948628" lon="8.649958">
<ele>280.5</ele>
<speed>2.5</speed>
<course>104.4</course>
<desc>Speed 2.5 km/h Distance 3.56 km</desc>
<time>2010-02-21T10:48:29.98</time>
<name>2530</name>
</trkpt>
<trkpt lat="48.948627" lon="8.649968">
<ele>281.0</ele>
<speed>1.6</speed>
<course>47.8</course>
<desc>Speed 1.6 km/h Distance 3.56 km</desc>
<time>2010-02-21T10:48:30.98</time>
<name>2531</name>
</trkpt>
<trkpt lat="48.948632" lon="8.649977">
<ele>282.0</ele>
<speed>1.9</speed>
<course>82.1</course>
<desc>Speed 1.9 km/h Distance 3.56 km</desc>
<time>2010-02-21T10:48:31.98</time>
<name>2532</name>
</trkpt>
<trkpt lat="48.948633" lon="8.649995">
<ele>283.5</ele>
<speed>2.5</speed>
<course>59.2</course>
<desc>Speed 2.5 km/h Distance 3.56 km</desc>
<time>2010-02-21T10:48:32.98</time>
<name>2533</name>
</trkpt>
<trkpt lat="48.948637" lon="8.650003">
<ele>283.5</ele>
<speed>1.9</speed>
<course>57.1</course>
<desc>Speed 1.9 km/h Distance 3.56 km</desc>
<time>2010-02-21T10:48:33.98</time>
<name>2534</name>
</trkpt>
<trkpt lat="48.948642" lon="8.650015">
<ele>285.0</ele>
<speed>2.4</speed>
<course>90.0</course>
<desc>Speed 2.4 km/h Distance 3.56 km</desc>
<time>2010-02-21T10:48:34.98</time>
<name>2535</name>
</trkpt>
<trkpt lat="48.948642" lon="8.650023">
<ele>284.5</ele>
<speed>1.5</speed>
<course>90.0</course>
<desc>Speed 1.5 km/h Distance 3.56 km</desc>
<time>2010-02-21T10:48:35.98</time>
<name>2536</name>
</trkpt>
<trkpt lat="48.948642" lon="8.650037">
<ele>284.5</ele>
<speed>2.6</speed>
<course>80.4</course>
<desc>Speed 2.6 km/h Distance 3.56 km</desc>
<time>2010-02-21T10:48:36.98</time>
<name>2537</name>
</trkpt>
<trkpt lat="48.948643" lon="8.650052">
<ele>285.0</ele>
<speed>1.9</speed>
<course>77.7</course>
<desc>Speed 1.9 km/h Distance 3.56 km</desc>
<time>2010-02-21T10:48:37.98</time>
<name>2538</name>
</trkpt>
<trkpt lat="48.948645" lon="8.650063">
<ele>285.5</ele>
<speed>2.1</speed>
<course>63.0</course>
<desc>Speed 2.1 km/h Distance 3.57 km</desc>
<time>2010-02-21T10:48:38.98</time>
<name>2539</name>
</trkpt>
<trkpt lat="48.948648" lon="8.650073">
<ele>284.0</ele>
<speed>1.4</speed>
<course>90.0</course>
<desc>Speed 1.4 km/h Distance 3.57 km</desc>
<time>2010-02-21T10:48:39.98</time>
<name>2540</name>
</trkpt>
<trkpt lat="48.948648" lon="8.650083">
<ele>284.0</ele>
<speed>1.3</speed>
<course>37.5</course>
<desc>Speed 1.3 km/h Distance 3.57 km</desc>
<time>2010-02-21T10:48:40.98</time>
<name>2541</name>
</trkpt>
<trkpt lat="48.948658" lon="8.650095">
<ele>286.0</ele>
<speed>2.1</speed>
<course>51.3</course>
<desc>Speed 2.1 km/h Distance 3.57 km</desc>
<time>2010-02-21T10:48:41.98</time>
<name>2542</name>
</trkpt>
<trkpt lat="48.948675" lon="8.650127">
<ele>292.5</ele>
<speed>5.0</speed>
<course>104.4</course>
<desc>Speed 5.0 km/h Distance 3.57 km</desc>
<time>2010-02-21T10:48:43.98</time>
<name>2543</name>
</trkpt>
<trkpt lat="48.948673" lon="8.650137">
<ele>292.0</ele>
<speed>1.8</speed>
<course>52.8</course>
<desc>Speed 1.8 km/h Distance 3.57 km</desc>
<time>2010-02-21T10:48:44.98</time>
<name>2544</name>
</trkpt>
<trkpt lat="48.948678" lon="8.650147">
<ele>293.0</ele>
<speed>2.5</speed>
<course>75.8</course>
<desc>Speed 2.5 km/h Distance 3.57 km</desc>
<time>2010-02-21T10:48:45.98</time>
<name>2545</name>
</trkpt>
<trkpt lat="48.948680" lon="8.650157">
<ele>292.5</ele>
<speed>2.2</speed>
<course>63.0</course>
<desc>Speed 2.2 km/h Distance 3.57 km</desc>
<time>2010-02-21T10:48:46.98</time>
<name>2546</name>
</trkpt>
<trkpt lat="48.948683" lon="8.650167">
<ele>292.5</ele>
<speed>2.2</speed>
<course>100.8</course>
<desc>Speed 2.2 km/h Distance 3.57 km</desc>
<time>2010-02-21T10:48:47.98</time>
<name>2547</name>
</trkpt>
<trkpt lat="48.948682" lon="8.650180">
<ele>291.5</ele>
<speed>2.8</speed>
<course>106.9</course>
<desc>Speed 2.8 km/h Distance 3.58 km</desc>
<time>2010-02-21T10:48:48.98</time>
<name>2548</name>
</trkpt>
<trkpt lat="48.948678" lon="8.650197">
<ele>290.5</ele>
<speed>2.8</speed>
<course>119.7</course>
<desc>Speed 2.8 km/h Distance 3.58 km</desc>
<time>2010-02-21T10:48:49.98</time>
<name>2549</name>
</trkpt>
<trkpt lat="48.948673" lon="8.650210">
<ele>288.5</ele>
<speed>3.2</speed>
<course>99.6</course>
<desc>Speed 3.2 km/h Distance 3.58 km</desc>
<time>2010-02-21T10:48:50.98</time>
<name>2550</name>
</trkpt>
<trkpt lat="48.948672" lon="8.650225">
<ele>287.5</ele>
<speed>2.1</speed>
<course>104.1</course>
<desc>Speed 2.1 km/h Distance 3.58 km</desc>
<time>2010-02-21T10:48:51.98</time>
<name>2551</name>
</trkpt>
<trkpt lat="48.948670" lon="8.650235">
<ele>287.5</ele>
<speed>2.2</speed>
<course>117.0</course>
<desc>Speed 2.2 km/h Distance 3.58 km</desc>
<time>2010-02-21T10:48:52.98</time>
<name>2552</name>
</trkpt>
<trkpt lat="48.948667" lon="8.650245">
<ele>286.0</ele>
<speed>2.3</speed>
<course>110.9</course>
<desc>Speed 2.3 km/h Distance 3.58 km</desc>
<time>2010-02-21T10:48:53.98</time>
<name>2553</name>
</trkpt>
<trkpt lat="48.948663" lon="8.650258">
<ele>285.0</ele>
<speed>2.7</speed>
<course>108.7</course>
<desc>Speed 2.7 km/h Distance 3.58 km</desc>
<time>2010-02-21T10:48:54.98</time>
<name>2554</name>
</trkpt>
<trkpt lat="48.948660" lon="8.650273">
<ele>284.0</ele>
<speed>2.8</speed>
<course>100.8</course>
<desc>Speed 2.8 km/h Distance 3.58 km</desc>
<time>2010-02-21T10:48:55.98</time>
<name>2555</name>
</trkpt>
<trkpt lat="48.948658" lon="8.650287">
<ele>283.0</ele>
<speed>2.2</speed>
<course>90.0</course>
<desc>Speed 2.2 km/h Distance 3.58 km</desc>
<time>2010-02-21T10:48:56.98</time>
<name>2556</name>
</trkpt>
<trkpt lat="48.948658" lon="8.650303">
<ele>282.5</ele>
<speed>2.2</speed>
<course>98.7</course>
<desc>Speed 2.2 km/h Distance 3.59 km</desc>
<time>2010-02-21T10:48:57.98</time>
<name>2557</name>
</trkpt>
<trkpt lat="48.948657" lon="8.650320">
<ele>281.0</ele>
<speed>2.6</speed>
<course>121.3</course>
<desc>Speed 2.6 km/h Distance 3.59 km</desc>
<time>2010-02-21T10:48:58.98</time>
<name>2558</name>
</trkpt>
<trkpt lat="48.948650" lon="8.650337">
<ele>279.5</ele>
<speed>2.6</speed>
<course>116.6</course>
<desc>Speed 2.6 km/h Distance 3.59 km</desc>
<time>2010-02-21T10:48:59.98</time>
<name>2559</name>
</trkpt>
<trkpt lat="48.948647" lon="8.650347">
<ele>279.0</ele>
<speed>2.6</speed>
<course>116.8</course>
<desc>Speed 2.6 km/h Distance 3.59 km</desc>
<time>2010-02-21T10:49:00.98</time>
<name>2560</name>
</trkpt>
<trkpt lat="48.948643" lon="8.650357">
<ele>278.0</ele>
<speed>2.8</speed>
<course>46.5</course>
<desc>Speed 2.8 km/h Distance 3.59 km</desc>
<time>2010-02-21T10:49:01.98</time>
<name>2561</name>
</trkpt>
<trkpt lat="48.948652" lon="8.650370">
<ele>280.0</ele>
<speed>2.7</speed>
<course>104.1</course>
<desc>Speed 2.7 km/h Distance 3.59 km</desc>
<time>2010-02-21T10:49:02.98</time>
<name>2562</name>
</trkpt>
<trkpt lat="48.948650" lon="8.650380">
<ele>279.0</ele>
<speed>2.7</speed>
<course>100.7</course>
<desc>Speed 2.7 km/h Distance 3.59 km</desc>
<time>2010-02-21T10:49:03.98</time>
<name>2563</name>
</trkpt>
<trkpt lat="48.948648" lon="8.650393">
<ele>278.0</ele>
<speed>3.0</speed>
<course>90.0</course>
<desc>Speed 3.0 km/h Distance 3.59 km</desc>
<time>2010-02-21T10:49:04.98</time>
<name>2564</name>
</trkpt>
<trkpt lat="48.948648" lon="8.650403">
<ele>278.0</ele>
<speed>2.4</speed>
<course>100.8</course>
<desc>Speed 2.4 km/h Distance 3.59 km</desc>
<time>2010-02-21T10:49:05.98</time>
<name>2565</name>
</trkpt>
<trkpt lat="48.948647" lon="8.650417">
<ele>278.0</ele>
<speed>3.6</speed>
<course>106.9</course>
<desc>Speed 3.6 km/h Distance 3.59 km</desc>
<time>2010-02-21T10:49:06.98</time>
<name>2566</name>
</trkpt>
<trkpt lat="48.948645" lon="8.650425">
<ele>276.5</ele>
<speed>2.1</speed>
<course>90.0</course>
<desc>Speed 2.1 km/h Distance 3.59 km</desc>
<time>2010-02-21T10:49:07.98</time>
<name>2567</name>
</trkpt>
<trkpt lat="48.948645" lon="8.650438">
<ele>276.5</ele>
<speed>3.2</speed>
<course>127.0</course>
<desc>Speed 3.2 km/h Distance 3.60 km</desc>
<time>2010-02-21T10:49:08.98</time>
<name>2568</name>
</trkpt>
<trkpt lat="48.948642" lon="8.650445">
<ele>274.5</ele>
<speed>2.4</speed>
<course>102.3</course>
<desc>Speed 2.4 km/h Distance 3.60 km</desc>
<time>2010-02-21T10:49:09.98</time>
<name>2569</name>
</trkpt>
<trkpt lat="48.948640" lon="8.650457">
<ele>273.0</ele>
<speed>2.8</speed>
<course>75.6</course>
<desc>Speed 2.8 km/h Distance 3.60 km</desc>
<time>2010-02-21T10:49:10.98</time>
<name>2570</name>
</trkpt>
<trkpt lat="48.948642" lon="8.650467">
<ele>273.5</ele>
<speed>2.4</speed>
<course>110.9</course>
<desc>Speed 2.4 km/h Distance 3.60 km</desc>
<time>2010-02-21T10:49:11.98</time>
<name>2571</name>
</trkpt>
<trkpt lat="48.948638" lon="8.650480">
<ele>273.0</ele>
<speed>3.6</speed>
<course>123.3</course>
<desc>Speed 3.6 km/h Distance 3.60 km</desc>
<time>2010-02-21T10:49:12.98</time>
<name>2572</name>
</trkpt>
<trkpt lat="48.948633" lon="8.650492">
<ele>272.0</ele>
<speed>3.0</speed>
<course>108.7</course>
<desc>Speed 3.0 km/h Distance 3.60 km</desc>
<time>2010-02-21T10:49:13.98</time>
<name>2573</name>
</trkpt>
<trkpt lat="48.948630" lon="8.650507">
<ele>272.0</ele>
<speed>3.6</speed>
<course>110.9</course>
<desc>Speed 3.6 km/h Distance 3.60 km</desc>
<time>2010-02-21T10:49:14.98</time>
<name>2574</name>
</trkpt>
<trkpt lat="48.948627" lon="8.650520">
<ele>271.5</ele>
<speed>3.1</speed>
<course>110.9</course>
<desc>Speed 3.1 km/h Distance 3.60 km</desc>
<time>2010-02-21T10:49:15.98</time>
<name>2575</name>
</trkpt>
<trkpt lat="48.948623" lon="8.650533">
<ele>270.5</ele>
<speed>2.8</speed>
<course>108.7</course>
<desc>Speed 2.8 km/h Distance 3.60 km</desc>
<time>2010-02-21T10:49:16.98</time>
<name>2576</name>
</trkpt>
<trkpt lat="48.948620" lon="8.650548">
<ele>270.5</ele>
<speed>3.5</speed>
<course>90.0</course>
<desc>Speed 3.5 km/h Distance 3.60 km</desc>
<time>2010-02-21T10:49:17.98</time>
<name>2577</name>
</trkpt>
<trkpt lat="48.948620" lon="8.650563">
<ele>270.5</ele>
<speed>3.0</speed>
<course>69.1</course>
<desc>Speed 3.0 km/h Distance 3.61 km</desc>
<time>2010-02-21T10:49:18.98</time>
<name>2578</name>
</trkpt>
<trkpt lat="48.948623" lon="8.650577">
<ele>271.5</ele>
<speed>2.4</speed>
<course>81.3</course>
<desc>Speed 2.4 km/h Distance 3.61 km</desc>
<time>2010-02-21T10:49:19.98</time>
<name>2579</name>
</trkpt>
<trkpt lat="48.948625" lon="8.650593">
<ele>273.0</ele>
<speed>2.9</speed>
<course>102.3</course>
<desc>Speed 2.9 km/h Distance 3.61 km</desc>
<time>2010-02-21T10:49:20.98</time>
<name>2580</name>
</trkpt>
<trkpt lat="48.948623" lon="8.650605">
<ele>272.5</ele>
<speed>2.6</speed>
<course>100.8</course>
<desc>Speed 2.6 km/h Distance 3.61 km</desc>
<time>2010-02-21T10:49:21.98</time>
<name>2581</name>
</trkpt>
<trkpt lat="48.948622" lon="8.650618">
<ele>272.5</ele>
<speed>3.3</speed>
<course>116.9</course>
<desc>Speed 3.3 km/h Distance 3.61 km</desc>
<time>2010-02-21T10:49:22.98</time>
<name>2582</name>
</trkpt>
<trkpt lat="48.948617" lon="8.650633">
<ele>273.0</ele>
<speed>3.6</speed>
<course>71.3</course>
<desc>Speed 3.6 km/h Distance 3.61 km</desc>
<time>2010-02-21T10:49:23.98</time>
<name>2583</name>
</trkpt>
<trkpt lat="48.948620" lon="8.650648">
<ele>275.0</ele>
<speed>2.7</speed>
<course>82.1</course>
<desc>Speed 2.7 km/h Distance 3.61 km</desc>
<time>2010-02-21T10:49:24.98</time>
<name>2584</name>
</trkpt>
<trkpt lat="48.948622" lon="8.650667">
<ele>277.0</ele>
<speed>3.1</speed>
<course>90.0</course>
<desc>Speed 3.1 km/h Distance 3.61 km</desc>
<time>2010-02-21T10:49:25.98</time>
<name>2585</name>
</trkpt>
<trkpt lat="48.948622" lon="8.650680">
<ele>277.5</ele>
<speed>3.1</speed>
<course>90.0</course>
<desc>Speed 3.1 km/h Distance 3.61 km</desc>
<time>2010-02-21T10:49:26.98</time>
<name>2586</name>
</trkpt>
<trkpt lat="48.948622" lon="8.650687">
<ele>277.5</ele>
<speed>1.1</speed>
<course>110.9</course>
<desc>Speed 1.1 km/h Distance 3.61 km</desc>
<time>2010-02-21T10:49:27.98</time>
<name>2587</name>
</trkpt>
<trkpt lat="48.948620" lon="8.650693">
<ele>278.0</ele>
<speed>0.9</speed>
<course>62.6</course>
<desc>Speed 0.9 km/h Distance 3.62 km</desc>
<time>2010-02-21T10:49:28.98</time>
<name>2588</name>
</trkpt>
<trkpt lat="48.948622" lon="8.650698">
<ele>278.5</ele>
<speed>0.4</speed>
<course>100.8</course>
<desc>Speed 0.4 km/h Distance 3.62 km</desc>
<time>2010-02-21T10:49:29.98</time>
<name>2589</name>
</trkpt>
<trkpt lat="48.948620" lon="8.650712">
<ele>278.5</ele>
<speed>2.4</speed>
<course>90.0</course>
<desc>Speed 2.4 km/h Distance 3.62 km</desc>
<time>2010-02-21T10:49:30.98</time>
<name>2590</name>
</trkpt>
<trkpt lat="48.948620" lon="8.650720">
<ele>278.5</ele>
<speed>1.8</speed>
<course>140.6</course>
<desc>Speed 1.8 km/h Distance 3.62 km</desc>
<time>2010-02-21T10:49:31.98</time>
<name>2591</name>
</trkpt>
<trkpt lat="48.948613" lon="8.650728">
<ele>277.5</ele>
<speed>2.7</speed>
<course>131.1</course>
<desc>Speed 2.7 km/h Distance 3.62 km</desc>
<time>2010-02-21T10:49:32.98</time>
<name>2592</name>
</trkpt>
<trkpt lat="48.948607" lon="8.650740">
<ele>277.0</ele>
<speed>3.4</speed>
<course>141.9</course>
<desc>Speed 3.4 km/h Distance 3.62 km</desc>
<time>2010-02-21T10:49:33.98</time>
<name>2593</name>
</trkpt>
<trkpt lat="48.948598" lon="8.650750">
<ele>275.5</ele>
<speed>3.3</speed>
<course>119.7</course>
<desc>Speed 3.3 km/h Distance 3.62 km</desc>
<time>2010-02-21T10:49:34.98</time>
<name>2594</name>
</trkpt>
<trkpt lat="48.948593" lon="8.650763">
<ele>276.0</ele>
<speed>3.2</speed>
<course>127.3</course>
<desc>Speed 3.2 km/h Distance 3.62 km</desc>
<time>2010-02-21T10:49:35.98</time>
<name>2595</name>
</trkpt>
<trkpt lat="48.948587" lon="8.650777">
<ele>275.5</ele>
<speed>3.5</speed>
<course>108.7</course>
<desc>Speed 3.5 km/h Distance 3.62 km</desc>
<time>2010-02-21T10:49:36.98</time>
<name>2596</name>
</trkpt>
<trkpt lat="48.948583" lon="8.650792">
<ele>276.0</ele>
<speed>2.6</speed>
<course>47.6</course>
<desc>Speed 2.6 km/h Distance 3.62 km</desc>
<time>2010-02-21T10:49:37.98</time>
<name>2597</name>
</trkpt>
<trkpt lat="48.948593" lon="8.650808">
<ele>278.0</ele>
<speed>5.4</speed>
<course>99.6</course>
<desc>Speed 5.4 km/h Distance 3.63 km</desc>
<time>2010-02-21T10:49:38.98</time>
<name>2598</name>
</trkpt>
<trkpt lat="48.948592" lon="8.650823">
<ele>279.0</ele>
<speed>2.8</speed>
<course>90.0</course>
<desc>Speed 2.8 km/h Distance 3.63 km</desc>
<time>2010-02-21T10:49:39.98</time>
<name>2599</name>
</trkpt>
<trkpt lat="48.948592" lon="8.650840">
<ele>281.5</ele>
<speed>2.0</speed>
<course>123.3</course>
<desc>Speed 2.0 km/h Distance 3.63 km</desc>
<time>2010-02-21T10:49:40.98</time>
<name>2600</name>
</trkpt>
<trkpt lat="48.948587" lon="8.650852">
<ele>281.5</ele>
<speed>2.8</speed>
<course>108.7</course>
<desc>Speed 2.8 km/h Distance 3.63 km</desc>
<time>2010-02-21T10:49:41.98</time>
<name>2601</name>
</trkpt>
<trkpt lat="48.948583" lon="8.650867">
<ele>281.5</ele>
<speed>3.1</speed>
<course>114.6</course>
<desc>Speed 3.1 km/h Distance 3.63 km</desc>
<time>2010-02-21T10:49:42.98</time>
<name>2602</name>
</trkpt>
<trkpt lat="48.948578" lon="8.650883">
<ele>282.0</ele>
<speed>2.9</speed>
<course>123.3</course>
<desc>Speed 2.9 km/h Distance 3.63 km</desc>
<time>2010-02-21T10:49:43.98</time>
<name>2603</name>
</trkpt>
<trkpt lat="48.948573" lon="8.650895">
<ele>282.5</ele>
<speed>3.3</speed>
<course>90.0</course>
<desc>Speed 3.3 km/h Distance 3.63 km</desc>
<time>2010-02-21T10:49:44.98</time>
<name>2604</name>
</trkpt>
<trkpt lat="48.948573" lon="8.650907">
<ele>283.5</ele>
<speed>2.1</speed>
<course>56.7</course>
<desc>Speed 2.1 km/h Distance 3.63 km</desc>
<time>2010-02-21T10:49:45.98</time>
<name>2605</name>
</trkpt>
<trkpt lat="48.948578" lon="8.650918">
<ele>284.5</ele>
<speed>2.6</speed>
<course>127.3</course>
<desc>Speed 2.6 km/h Distance 3.63 km</desc>
<time>2010-02-21T10:49:46.98</time>
<name>2606</name>
</trkpt>
<trkpt lat="48.948572" lon="8.650932">
<ele>283.0</ele>
<speed>3.0</speed>
<course>73.1</course>
<desc>Speed 3.0 km/h Distance 3.64 km</desc>
<time>2010-02-21T10:49:47.98</time>
<name>2607</name>
</trkpt>
<trkpt lat="48.948575" lon="8.650948">
<ele>284.0</ele>
<speed>2.8</speed>
<course>42.5</course>
<desc>Speed 2.8 km/h Distance 3.64 km</desc>
<time>2010-02-21T10:49:48.98</time>
<name>2608</name>
</trkpt>
<trkpt lat="48.948583" lon="8.650960">
<ele>285.0</ele>
<speed>2.3</speed>
<course>106.9</course>
<desc>Speed 2.3 km/h Distance 3.64 km</desc>
<time>2010-02-21T10:49:49.98</time>
<name>2609</name>
</trkpt>
<trkpt lat="48.948580" lon="8.650977">
<ele>286.0</ele>
<speed>2.8</speed>
<course>106.9</course>
<desc>Speed 2.8 km/h Distance 3.64 km</desc>
<time>2010-02-21T10:49:50.98</time>
<name>2610</name>
</trkpt>
<trkpt lat="48.948577" lon="8.650993">
<ele>286.0</ele>
<speed>3.5</speed>
<course>130.2</course>
<desc>Speed 3.5 km/h Distance 3.64 km</desc>
<time>2010-02-21T10:49:51.98</time>
<name>2611</name>
</trkpt>
<trkpt lat="48.948568" lon="8.651008">
<ele>284.5</ele>
<speed>3.8</speed>
<course>123.3</course>
<desc>Speed 3.8 km/h Distance 3.64 km</desc>
<time>2010-02-21T10:49:52.98</time>
<name>2612</name>
</trkpt>
<trkpt lat="48.948563" lon="8.651020">
<ele>284.0</ele>
<speed>3.3</speed>
<course>119.7</course>
<desc>Speed 3.3 km/h Distance 3.64 km</desc>
<time>2010-02-21T10:49:53.98</time>
<name>2613</name>
</trkpt>
<trkpt lat="48.948558" lon="8.651033">
<ele>283.5</ele>
<speed>3.7</speed>
<course>90.0</course>
<desc>Speed 3.7 km/h Distance 3.64 km</desc>
<time>2010-02-21T10:49:54.98</time>
<name>2614</name>
</trkpt>
<trkpt lat="48.948558" lon="8.651045">
<ele>283.0</ele>
<speed>2.4</speed>
<course>99.6</course>
<desc>Speed 2.4 km/h Distance 3.65 km</desc>
<time>2010-02-21T10:49:55.98</time>
<name>2615</name>
</trkpt>
<trkpt lat="48.948557" lon="8.651060">
<ele>283.5</ele>
<speed>3.4</speed>
<course>116.9</course>
<desc>Speed 3.4 km/h Distance 3.65 km</desc>
<time>2010-02-21T10:49:56.98</time>
<name>2616</name>
</trkpt>
<trkpt lat="48.948552" lon="8.651075">
<ele>282.5</ele>
<speed>3.6</speed>
<course>119.7</course>
<desc>Speed 3.6 km/h Distance 3.65 km</desc>
<time>2010-02-21T10:49:57.98</time>
<name>2617</name>
</trkpt>
<trkpt lat="48.948547" lon="8.651088">
<ele>282.5</ele>
<speed>3.6</speed>
<course>108.7</course>
<desc>Speed 3.6 km/h Distance 3.65 km</desc>
<time>2010-02-21T10:49:58.98</time>
<name>2618</name>
</trkpt>
<trkpt lat="48.948543" lon="8.651103">
<ele>282.5</ele>
<speed>3.1</speed>
<course>90.0</course>
<desc>Speed 3.1 km/h Distance 3.65 km</desc>
<time>2010-02-21T10:49:59.98</time>
<name>2619</name>
</trkpt>
<trkpt lat="48.948543" lon="8.651125">
<ele>283.5</ele>
<speed>3.3</speed>
<course>103.2</course>
<desc>Speed 3.3 km/h Distance 3.65 km</desc>
<time>2010-02-21T10:50:00.98</time>
<name>2620</name>
</trkpt>
<trkpt lat="48.948540" lon="8.651147">
<ele>284.5</ele>
<speed>3.8</speed>
<course>123.3</course>
<desc>Speed 3.8 km/h Distance 3.65 km</desc>
<time>2010-02-21T10:50:01.98</time>
<name>2621</name>
</trkpt>
<trkpt lat="48.948535" lon="8.651158">
<ele>283.0</ele>
<speed>2.4</speed>
<course>90.0</course>
<desc>Speed 2.4 km/h Distance 3.65 km</desc>
<time>2010-02-21T10:50:02.98</time>
<name>2622</name>
</trkpt>
<trkpt lat="48.948535" lon="8.651172">
<ele>282.0</ele>
<speed>3.9</speed>
<course>90.0</course>
<desc>Speed 3.9 km/h Distance 3.66 km</desc>
<time>2010-02-21T10:50:03.98</time>
<name>2623</name>
</trkpt>
<trkpt lat="48.948535" lon="8.651185">
<ele>281.0</ele>
<speed>3.7</speed>
<course>90.0</course>
<desc>Speed 3.7 km/h Distance 3.66 km</desc>
<time>2010-02-21T10:50:04.98</time>
<name>2624</name>
</trkpt>
<trkpt lat="48.948535" lon="8.651200">
<ele>281.5</ele>
<speed>3.2</speed>
<course>97.9</course>
<desc>Speed 3.2 km/h Distance 3.66 km</desc>
<time>2010-02-21T10:50:05.98</time>
<name>2625</name>
</trkpt>
<trkpt lat="48.948533" lon="8.651218">
<ele>281.5</ele>
<speed>3.5</speed>
<course>124.1</course>
<desc>Speed 3.5 km/h Distance 3.66 km</desc>
<time>2010-02-21T10:50:06.98</time>
<name>2626</name>
</trkpt>
<trkpt lat="48.948527" lon="8.651233">
<ele>281.5</ele>
<speed>5.1</speed>
<course>90.0</course>
<desc>Speed 5.1 km/h Distance 3.66 km</desc>
<time>2010-02-21T10:50:07.98</time>
<name>2627</name>
</trkpt>
<trkpt lat="48.948527" lon="8.651252">
<ele>282.0</ele>
<speed>3.5</speed>
<course>146.3</course>
<desc>Speed 3.5 km/h Distance 3.66 km</desc>
<time>2010-02-21T10:50:08.98</time>
<name>2628</name>
</trkpt>
<trkpt lat="48.948520" lon="8.651258">
<ele>280.0</ele>
<speed>2.6</speed>
<course>127.0</course>
<desc>Speed 2.6 km/h Distance 3.66 km</desc>
<time>2010-02-21T10:50:09.98</time>
<name>2629</name>
</trkpt>
<trkpt lat="48.948517" lon="8.651265">
<ele>281.0</ele>
<speed>4.5</speed>
<course>117.0</course>
<desc>Speed 4.5 km/h Distance 3.66 km</desc>
<time>2010-02-21T10:50:10.98</time>
<name>2630</name>
</trkpt>
<trkpt lat="48.948513" lon="8.651275">
<ele>280.0</ele>
<speed>2.7</speed>
<course>100.8</course>
<desc>Speed 2.7 km/h Distance 3.66 km</desc>
<time>2010-02-21T10:50:11.98</time>
<name>2631</name>
</trkpt>
<trkpt lat="48.948512" lon="8.651288">
<ele>279.5</ele>
<speed>2.9</speed>
<course>71.4</course>
<desc>Speed 2.9 km/h Distance 3.66 km</desc>
<time>2010-02-21T10:50:12.98</time>
<name>2632</name>
</trkpt>
<trkpt lat="48.948515" lon="8.651303">
<ele>280.5</ele>
<speed>2.4</speed>
<course>53.0</course>
<desc>Speed 2.4 km/h Distance 3.67 km</desc>
<time>2010-02-21T10:50:13.98</time>
<name>2633</name>
</trkpt>
<trkpt lat="48.948518" lon="8.651310">
<ele>280.0</ele>
<speed>2.3</speed>
<course>66.5</course>
<desc>Speed 2.3 km/h Distance 3.67 km</desc>
<time>2010-02-21T10:50:14.98</time>
<name>2634</name>
</trkpt>
<trkpt lat="48.948522" lon="8.651322">
<ele>281.0</ele>
<speed>2.1</speed>
<course>71.3</course>
<desc>Speed 2.1 km/h Distance 3.67 km</desc>
<time>2010-02-21T10:50:15.98</time>
<name>2635</name>
</trkpt>
<trkpt lat="48.948525" lon="8.651337">
<ele>281.5</ele>
<speed>2.7</speed>
<course>25.2</course>
<desc>Speed 2.7 km/h Distance 3.67 km</desc>
<time>2010-02-21T10:50:16.98</time>
<name>2636</name>
</trkpt>
<trkpt lat="48.948537" lon="8.651345">
<ele>284.0</ele>
<speed>2.4</speed>
<course>105.5</course>
<desc>Speed 2.4 km/h Distance 3.67 km</desc>
<time>2010-02-21T10:50:17.98</time>
<name>2637</name>
</trkpt>
<trkpt lat="48.948533" lon="8.651363">
<ele>285.0</ele>
<speed>3.1</speed>
<course>60.2</course>
<desc>Speed 3.1 km/h Distance 3.67 km</desc>
<time>2010-02-21T10:50:18.98</time>
<name>2638</name>
</trkpt>
<trkpt lat="48.948538" lon="8.651377">
<ele>286.0</ele>
<speed>2.1</speed>
<course>110.9</course>
<desc>Speed 2.1 km/h Distance 3.67 km</desc>
<time>2010-02-21T10:50:19.98</time>
<name>2639</name>
</trkpt>
<trkpt lat="48.948535" lon="8.651390">
<ele>285.0</ele>
<speed>2.7</speed>
<course>116.9</course>
<desc>Speed 2.7 km/h Distance 3.67 km</desc>
<time>2010-02-21T10:50:20.98</time>
<name>2640</name>
</trkpt>
<trkpt lat="48.948530" lon="8.651405">
<ele>284.5</ele>
<speed>3.0</speed>
<course>96.7</course>
<desc>Speed 3.0 km/h Distance 3.67 km</desc>
<time>2010-02-21T10:50:21.98</time>
<name>2641</name>
</trkpt>
<trkpt lat="48.948528" lon="8.651427">
<ele>285.0</ele>
<speed>3.4</speed>
<course>74.6</course>
<desc>Speed 3.4 km/h Distance 3.68 km</desc>
<time>2010-02-21T10:50:22.98</time>
<name>2642</name>
</trkpt>
<trkpt lat="48.948532" lon="8.651445">
<ele>285.5</ele>
<speed>2.7</speed>
<course>116.9</course>
<desc>Speed 2.7 km/h Distance 3.68 km</desc>
<time>2010-02-21T10:50:23.98</time>
<name>2643</name>
</trkpt>
<trkpt lat="48.948527" lon="8.651460">
<ele>283.0</ele>
<speed>3.2</speed>
<course>99.6</course>
<desc>Speed 3.2 km/h Distance 3.68 km</desc>
<time>2010-02-21T10:50:24.98</time>
<name>2644</name>
</trkpt>
<trkpt lat="48.948525" lon="8.651475">
<ele>282.0</ele>
<speed>3.2</speed>
<course>80.4</course>
<desc>Speed 3.2 km/h Distance 3.68 km</desc>
<time>2010-02-21T10:50:25.98</time>
<name>2645</name>
</trkpt>
<trkpt lat="48.948527" lon="8.651490">
<ele>282.0</ele>
<speed>2.5</speed>
<course>81.3</course>
<desc>Speed 2.5 km/h Distance 3.68 km</desc>
<time>2010-02-21T10:50:26.98</time>
<name>2646</name>
</trkpt>
<trkpt lat="48.948528" lon="8.651507">
<ele>282.0</ele>
<speed>3.2</speed>
<course>75.8</course>
<desc>Speed 3.2 km/h Distance 3.68 km</desc>
<time>2010-02-21T10:50:27.98</time>
<name>2647</name>
</trkpt>
<trkpt lat="48.948532" lon="8.651527">
<ele>283.5</ele>
<speed>3.2</speed>
<course>55.4</course>
<desc>Speed 3.2 km/h Distance 3.68 km</desc>
<time>2010-02-21T10:50:28.98</time>
<name>2648</name>
</trkpt>
<trkpt lat="48.948540" lon="8.651545">
<ele>287.0</ele>
<speed>2.0</speed>
<course>59.6</course>
<desc>Speed 2.0 km/h Distance 3.69 km</desc>
<time>2010-02-21T10:50:29.98</time>
<name>2649</name>
</trkpt>
<trkpt lat="48.948548" lon="8.651567">
<ele>289.0</ele>
<speed>2.4</speed>
<course>37.5</course>
<desc>Speed 2.4 km/h Distance 3.69 km</desc>
<time>2010-02-21T10:50:30.98</time>
<name>2650</name>
</trkpt>
<trkpt lat="48.948558" lon="8.651578">
<ele>289.5</ele>
<speed>3.3</speed>
<course>77.7</course>
<desc>Speed 3.3 km/h Distance 3.69 km</desc>
<time>2010-02-21T10:50:31.98</time>
<name>2651</name>
</trkpt>
<trkpt lat="48.948560" lon="8.651590">
<ele>289.0</ele>
<speed>2.5</speed>
<course>80.4</course>
<desc>Speed 2.5 km/h Distance 3.69 km</desc>
<time>2010-02-21T10:50:32.98</time>
<name>2652</name>
</trkpt>
<trkpt lat="48.948562" lon="8.651605">
<ele>289.0</ele>
<speed>2.8</speed>
<course>102.2</course>
<desc>Speed 2.8 km/h Distance 3.69 km</desc>
<time>2010-02-21T10:50:33.98</time>
<name>2653</name>
</trkpt>
<trkpt lat="48.948560" lon="8.651617">
<ele>288.5</ele>
<speed>2.6</speed>
<course>52.8</course>
<desc>Speed 2.6 km/h Distance 3.69 km</desc>
<time>2010-02-21T10:50:34.98</time>
<name>2654</name>
</trkpt>
<trkpt lat="48.948567" lon="8.651630">
<ele>289.0</ele>
<speed>3.8</speed>
<course>81.3</course>
<desc>Speed 3.8 km/h Distance 3.69 km</desc>
<time>2010-02-21T10:50:35.98</time>
<name>2655</name>
</trkpt>
<trkpt lat="48.948568" lon="8.651647">
<ele>289.0</ele>
<speed>3.0</speed>
<course>127.3</course>
<desc>Speed 3.0 km/h Distance 3.69 km</desc>
<time>2010-02-21T10:50:36.98</time>
<name>2656</name>
</trkpt>
<trkpt lat="48.948560" lon="8.651663">
<ele>288.5</ele>
<speed>4.2</speed>
<course>110.9</course>
<desc>Speed 4.2 km/h Distance 3.70 km</desc>
<time>2010-02-21T10:50:37.98</time>
<name>2657</name>
</trkpt>
<trkpt lat="48.948557" lon="8.651677">
<ele>287.0</ele>
<speed>2.3</speed>
<course>56.7</course>
<desc>Speed 2.3 km/h Distance 3.70 km</desc>
<time>2010-02-21T10:50:38.98</time>
<name>2658</name>
</trkpt>
<trkpt lat="48.948562" lon="8.651688">
<ele>287.0</ele>
<speed>3.0</speed>
<course>147.7</course>
<desc>Speed 3.0 km/h Distance 3.70 km</desc>
<time>2010-02-21T10:50:39.98</time>
<name>2659</name>
</trkpt>
<trkpt lat="48.948557" lon="8.651693">
<ele>285.5</ele>
<speed>2.4</speed>
<course>90.0</course>
<desc>Speed 2.4 km/h Distance 3.70 km</desc>
<time>2010-02-21T10:50:40.98</time>
<name>2660</name>
</trkpt>
<trkpt lat="48.948557" lon="8.651703">
<ele>284.5</ele>
<speed>2.3</speed>
<course>141.9</course>
<desc>Speed 2.3 km/h Distance 3.70 km</desc>
<time>2010-02-21T10:50:41.98</time>
<name>2661</name>
</trkpt>
<trkpt lat="48.948548" lon="8.651713">
<ele>283.0</ele>
<speed>4.4</speed>
<course>130.9</course>
<desc>Speed 4.4 km/h Distance 3.70 km</desc>
<time>2010-02-21T10:50:42.98</time>
<name>2662</name>
</trkpt>
<trkpt lat="48.948542" lon="8.651725">
<ele>281.5</ele>
<speed>3.6</speed>
<course>100.8</course>
<desc>Speed 3.6 km/h Distance 3.70 km</desc>
<time>2010-02-21T10:50:43.98</time>
<name>2663</name>
</trkpt>
<trkpt lat="48.948540" lon="8.651738">
<ele>281.0</ele>
<speed>3.0</speed>
<course>27.7</course>
<desc>Speed 3.0 km/h Distance 3.70 km</desc>
<time>2010-02-21T10:50:44.98</time>
<name>2664</name>
</trkpt>
<trkpt lat="48.948557" lon="8.651752">
<ele>281.5</ele>
<speed>3.1</speed>
<course>33.3</course>
<desc>Speed 3.1 km/h Distance 3.70 km</desc>
<time>2010-02-21T10:50:45.98</time>
<name>2665</name>
</trkpt>
<trkpt lat="48.948588" lon="8.651783">
<ele>285.5</ele>
<speed>2.5</speed>
<course>27.2</course>
<desc>Speed 2.5 km/h Distance 3.71 km</desc>
<time>2010-02-21T10:50:47.98</time>
<name>2666</name>
</trkpt>
<trkpt lat="48.948603" lon="8.651795">
<ele>288.0</ele>
<speed>2.2</speed>
<course>37.3</course>
<desc>Speed 2.2 km/h Distance 3.71 km</desc>
<time>2010-02-21T10:50:48.98</time>
<name>2667</name>
</trkpt>
<trkpt lat="48.948645" lon="8.651843">
<ele>295.0</ele>
<speed>3.3</speed>
<course>90.0</course>
<desc>Speed 3.3 km/h Distance 3.72 km</desc>
<time>2010-02-21T10:50:50.98</time>
<name>2668</name>
</trkpt>
<trkpt lat="48.948645" lon="8.651855">
<ele>295.0</ele>
<speed>2.5</speed>
<course>23.0</course>
<desc>Speed 2.5 km/h Distance 3.72 km</desc>
<time>2010-02-21T10:50:51.98</time>
<name>2669</name>
</trkpt>
<trkpt lat="48.948702" lon="8.651892">
<ele>303.5</ele>
<speed>2.9</speed>
<course>142.5</course>
<desc>Speed 2.9 km/h Distance 3.72 km</desc>
<time>2010-02-21T10:50:53.98</time>
<name>2670</name>
</trkpt>
<trkpt lat="48.948692" lon="8.651903">
<ele>302.0</ele>
<speed>3.9</speed>
<course>69.1</course>
<desc>Speed 3.9 km/h Distance 3.73 km</desc>
<time>2010-02-21T10:50:54.98</time>
<name>2671</name>
</trkpt>
<trkpt lat="48.948695" lon="8.651917">
<ele>302.0</ele>
<speed>2.9</speed>
<course>27.7</course>
<desc>Speed 2.9 km/h Distance 3.73 km</desc>
<time>2010-02-21T10:50:55.98</time>
<name>2672</name>
</trkpt>
<trkpt lat="48.948712" lon="8.651930">
<ele>305.0</ele>
<speed>2.6</speed>
<course>39.0</course>
<desc>Speed 2.6 km/h Distance 3.73 km</desc>
<time>2010-02-21T10:50:56.98</time>
<name>2673</name>
</trkpt>
<trkpt lat="48.948740" lon="8.651965">
<ele>311.0</ele>
<speed>2.4</speed>
<course>77.7</course>
<desc>Speed 2.4 km/h Distance 3.73 km</desc>
<time>2010-02-21T10:50:58.98</time>
<name>2674</name>
</trkpt>
<trkpt lat="48.948742" lon="8.651977">
<ele>310.5</ele>
<speed>2.6</speed>
<course>15.6</course>
<desc>Speed 2.6 km/h Distance 3.73 km</desc>
<time>2010-02-21T10:50:59.98</time>
<name>2675</name>
</trkpt>
<trkpt lat="48.948808" lon="8.652005">
<ele>317.5</ele>
<speed>1.8</speed>
<course>71.4</course>
<desc>Speed 1.8 km/h Distance 3.74 km</desc>
<time>2010-02-21T10:51:01.98</time>
<name>2676</name>
</trkpt>
<trkpt lat="48.948812" lon="8.652020">
<ele>315.5</ele>
<speed>1.7</speed>
<course>57.1</course>
<desc>Speed 1.7 km/h Distance 3.74 km</desc>
<time>2010-02-21T10:51:02.98</time>
<name>2677</name>
</trkpt>
<trkpt lat="48.948817" lon="8.652032">
<ele>314.0</ele>
<speed>2.1</speed>
<course>99.6</course>
<desc>Speed 2.1 km/h Distance 3.74 km</desc>
<time>2010-02-21T10:51:03.98</time>
<name>2678</name>
</trkpt>
<trkpt lat="48.948815" lon="8.652047">
<ele>313.0</ele>
<speed>2.4</speed>
<course>67.4</course>
<desc>Speed 2.4 km/h Distance 3.74 km</desc>
<time>2010-02-21T10:51:04.98</time>
<name>2679</name>
</trkpt>
<trkpt lat="48.948820" lon="8.652065">
<ele>314.0</ele>
<speed>3.0</speed>
<course>74.5</course>
<desc>Speed 3.0 km/h Distance 3.75 km</desc>
<time>2010-02-21T10:51:05.98</time>
<name>2680</name>
</trkpt>
<trkpt lat="48.948823" lon="8.652083">
<ele>315.5</ele>
<speed>1.5</speed>
<course>56.9</course>
<desc>Speed 1.5 km/h Distance 3.75 km</desc>
<time>2010-02-21T10:51:06.98</time>
<name>2681</name>
</trkpt>
<trkpt lat="48.948833" lon="8.652107">
<ele>318.0</ele>
<speed>2.5</speed>
<course>39.4</course>
<desc>Speed 2.5 km/h Distance 3.75 km</desc>
<time>2010-02-21T10:51:07.98</time>
<name>2682</name>
</trkpt>
<trkpt lat="48.948840" lon="8.652115">
<ele>318.5</ele>
<speed>3.3</speed>
<course>37.5</course>
<desc>Speed 3.3 km/h Distance 3.75 km</desc>
<time>2010-02-21T10:51:08.98</time>
<name>2683</name>
</trkpt>
<trkpt lat="48.948850" lon="8.652127">
<ele>318.5</ele>
<speed>2.3</speed>
<course>7.0</course>
<desc>Speed 2.3 km/h Distance 3.75 km</desc>
<time>2010-02-21T10:51:09.98</time>
<name>2684</name>
</trkpt>
<trkpt lat="48.948868" lon="8.652130">
<ele>319.0</ele>
<speed>3.3</speed>
<course>110.9</course>
<desc>Speed 3.3 km/h Distance 3.75 km</desc>
<time>2010-02-21T10:51:10.98</time>
<name>2685</name>
</trkpt>
<trkpt lat="48.948865" lon="8.652143">
<ele>316.0</ele>
<speed>1.3</speed>
<course>52.8</course>
<desc>Speed 1.3 km/h Distance 3.75 km</desc>
<time>2010-02-21T10:51:11.98</time>
<name>2686</name>
</trkpt>
<trkpt lat="48.948870" lon="8.652153">
<ele>317.0</ele>
<speed>3.1</speed>
<course>33.2</course>
<desc>Speed 3.1 km/h Distance 3.76 km</desc>
<time>2010-02-21T10:51:12.98</time>
<name>2687</name>
</trkpt>
<trkpt lat="48.948880" lon="8.652163">
<ele>318.0</ele>
<speed>2.4</speed>
<course>90.0</course>
<desc>Speed 2.4 km/h Distance 3.76 km</desc>
<time>2010-02-21T10:51:13.98</time>
<name>2688</name>
</trkpt>
<trkpt lat="48.948880" lon="8.652172">
<ele>316.0</ele>
<speed>2.3</speed>
<course>69.1</course>
<desc>Speed 2.3 km/h Distance 3.76 km</desc>
<time>2010-02-21T10:51:14.98</time>
<name>2689</name>
</trkpt>
<trkpt lat="48.948882" lon="8.652178">
<ele>316.0</ele>
<speed>2.2</speed>
<course>52.6</course>
<desc>Speed 2.2 km/h Distance 3.76 km</desc>
<time>2010-02-21T10:51:15.98</time>
<name>2690</name>
</trkpt>
<trkpt lat="48.948887" lon="8.652188">
<ele>316.0</ele>
<speed>2.3</speed>
<course>41.2</course>
<desc>Speed 2.3 km/h Distance 3.76 km</desc>
<time>2010-02-21T10:51:16.98</time>
<name>2691</name>
</trkpt>
<trkpt lat="48.948902" lon="8.652208">
<ele>314.5</ele>
<speed>2.5</speed>
<course>66.5</course>
<desc>Speed 2.5 km/h Distance 3.76 km</desc>
<time>2010-02-21T10:51:17.98</time>
<name>2692</name>
</trkpt>
<trkpt lat="48.948905" lon="8.652220">
<ele>313.0</ele>
<speed>1.8</speed>
<course>14.9</course>
<desc>Speed 1.8 km/h Distance 3.76 km</desc>
<time>2010-02-21T10:51:18.98</time>
<name>2693</name>
</trkpt>
<trkpt lat="48.948913" lon="8.652223">
<ele>313.0</ele>
<speed>2.1</speed>
<course>41.4</course>
<desc>Speed 2.1 km/h Distance 3.76 km</desc>
<time>2010-02-21T10:51:19.98</time>
<name>2694</name>
</trkpt>
<trkpt lat="48.948918" lon="8.652230">
<ele>311.0</ele>
<speed>1.4</speed>
<course>90.0</course>
<desc>Speed 1.4 km/h Distance 3.76 km</desc>
<time>2010-02-21T10:51:20.98</time>
<name>2695</name>
</trkpt>
<trkpt lat="48.948918" lon="8.652238">
<ele>310.5</ele>
<speed>1.7</speed>
<course>53.9</course>
<desc>Speed 1.7 km/h Distance 3.76 km</desc>
<time>2010-02-21T10:51:21.98</time>
<name>2696</name>
</trkpt>
<trkpt lat="48.948920" lon="8.652242">
<ele>309.5</ele>
<speed>1.3</speed>
<course>73.3</course>
<desc>Speed 1.3 km/h Distance 3.76 km</desc>
<time>2010-02-21T10:51:22.98</time>
<name>2697</name>
</trkpt>
<trkpt lat="48.948922" lon="8.652250">
<ele>309.0</ele>
<speed>2.1</speed>
<course>90.0</course>
<desc>Speed 2.1 km/h Distance 3.77 km</desc>
<time>2010-02-21T10:51:23.98</time>
<name>2698</name>
</trkpt>
<trkpt lat="48.948922" lon="8.652263">
<ele>307.5</ele>
<speed>2.7</speed>
<course>106.7</course>
<desc>Speed 2.7 km/h Distance 3.77 km</desc>
<time>2010-02-21T10:51:24.98</time>
<name>2699</name>
</trkpt>
<trkpt lat="48.948920" lon="8.652272">
<ele>307.0</ele>
<speed>2.2</speed>
<course>126.5</course>
<desc>Speed 2.2 km/h Distance 3.77 km</desc>
<time>2010-02-21T10:51:25.98</time>
<name>2700</name>
</trkpt>
<trkpt lat="48.948917" lon="8.652278">
<ele>304.5</ele>
<speed>2.0</speed>
<course>90.0</course>
<desc>Speed 2.0 km/h Distance 3.77 km</desc>
<time>2010-02-21T10:51:26.98</time>
<name>2701</name>
</trkpt>
<trkpt lat="48.948917" lon="8.652288">
<ele>304.0</ele>
<speed>2.2</speed>
<course>44.6</course>
<desc>Speed 2.2 km/h Distance 3.77 km</desc>
<time>2010-02-21T10:51:27.98</time>
<name>2702</name>
</trkpt>
<trkpt lat="48.948930" lon="8.652308">
<ele>305.5</ele>
<speed>4.9</speed>
<course>90.0</course>
<desc>Speed 4.9 km/h Distance 3.77 km</desc>
<time>2010-02-21T10:51:28.98</time>
<name>2703</name>
</trkpt>
<trkpt lat="48.948930" lon="8.652318">
<ele>305.0</ele>
<speed>1.6</speed>
<course>90.0</course>
<desc>Speed 1.6 km/h Distance 3.77 km</desc>
<time>2010-02-21T10:51:29.98</time>
<name>2704</name>
</trkpt>
<trkpt lat="48.948930" lon="8.652333">
<ele>303.5</ele>
<speed>2.3</speed>
<course>90.0</course>
<desc>Speed 2.3 km/h Distance 3.77 km</desc>
<time>2010-02-21T10:51:30.98</time>
<name>2705</name>
</trkpt>
<trkpt lat="48.948930" lon="8.652348">
<ele>300.5</ele>
<speed>2.1</speed>
<course>112.6</course>
<desc>Speed 2.1 km/h Distance 3.77 km</desc>
<time>2010-02-21T10:51:31.98</time>
<name>2706</name>
</trkpt>
<trkpt lat="48.948925" lon="8.652367">
<ele>299.5</ele>
<speed>5.6</speed>
<course>141.9</course>
<desc>Speed 5.6 km/h Distance 3.77 km</desc>
<time>2010-02-21T10:51:32.98</time>
<name>2707</name>
</trkpt>
<trkpt lat="48.948917" lon="8.652377">
<ele>297.0</ele>
<speed>2.6</speed>
<course>47.8</course>
<desc>Speed 2.6 km/h Distance 3.78 km</desc>
<time>2010-02-21T10:51:33.98</time>
<name>2708</name>
</trkpt>
<trkpt lat="48.948922" lon="8.652385">
<ele>298.0</ele>
<speed>2.3</speed>
<course>45.9</course>
<desc>Speed 2.3 km/h Distance 3.78 km</desc>
<time>2010-02-21T10:51:34.98</time>
<name>2709</name>
</trkpt>
<trkpt lat="48.948933" lon="8.652403">
<ele>299.0</ele>
<speed>2.3</speed>
<course>42.6</course>
<desc>Speed 2.3 km/h Distance 3.78 km</desc>
<time>2010-02-21T10:51:35.98</time>
<name>2710</name>
</trkpt>
<trkpt lat="48.948942" lon="8.652415">
<ele>298.5</ele>
<speed>2.5</speed>
<course>25.4</course>
<desc>Speed 2.5 km/h Distance 3.78 km</desc>
<time>2010-02-21T10:51:36.98</time>
<name>2711</name>
</trkpt>
<trkpt lat="48.948947" lon="8.652418">
<ele>297.5</ele>
<speed>0.7</speed>
<course>18.2</course>
<desc>Speed 0.7 km/h Distance 3.78 km</desc>
<time>2010-02-21T10:51:37.98</time>
<name>2712</name>
</trkpt>
<trkpt lat="48.948957" lon="8.652423">
<ele>298.5</ele>
<speed>1.5</speed>
<course>29.8</course>
<desc>Speed 1.5 km/h Distance 3.78 km</desc>
<time>2010-02-21T10:51:38.98</time>
<name>2713</name>
</trkpt>
<trkpt lat="48.948970" lon="8.652435">
<ele>299.0</ele>
<speed>2.7</speed>
<course>23.8</course>
<desc>Speed 2.7 km/h Distance 3.78 km</desc>
<time>2010-02-21T10:51:39.98</time>
<name>2714</name>
</trkpt>
<trkpt lat="48.948980" lon="8.652442">
<ele>300.0</ele>
<speed>1.8</speed>
<course>63.0</course>
<desc>Speed 1.8 km/h Distance 3.78 km</desc>
<time>2010-02-21T10:51:40.98</time>
<name>2715</name>
</trkpt>
<trkpt lat="48.948983" lon="8.652452">
<ele>299.5</ele>
<speed>1.8</speed>
<course>39.4</course>
<desc>Speed 1.8 km/h Distance 3.79 km</desc>
<time>2010-02-21T10:51:41.98</time>
<name>2716</name>
</trkpt>
<trkpt lat="48.948990" lon="8.652460">
<ele>299.5</ele>
<speed>1.8</speed>
<course>73.1</course>
<desc>Speed 1.8 km/h Distance 3.79 km</desc>
<time>2010-02-21T10:51:42.98</time>
<name>2717</name>
</trkpt>
<trkpt lat="48.948992" lon="8.652468">
<ele>297.5</ele>
<speed>0.4</speed>
<course>90.0</course>
<desc>Speed 0.4 km/h Distance 3.79 km</desc>
<time>2010-02-21T10:51:43.98</time>
<name>2718</name>
</trkpt>
<trkpt lat="48.948992" lon="8.652478">
<ele>297.0</ele>
<speed>1.3</speed>
<course>79.3</course>
<desc>Speed 1.3 km/h Distance 3.79 km</desc>
<time>2010-02-21T10:51:44.98</time>
<name>2719</name>
</trkpt>
<trkpt lat="48.948993" lon="8.652492">
<ele>295.5</ele>
<speed>1.5</speed>
<course>60.3</course>
<desc>Speed 1.5 km/h Distance 3.79 km</desc>
<time>2010-02-21T10:51:45.98</time>
<name>2720</name>
</trkpt>
<trkpt lat="48.948998" lon="8.652505">
<ele>294.5</ele>
<speed>2.2</speed>
<course>75.8</course>
<desc>Speed 2.2 km/h Distance 3.79 km</desc>
<time>2010-02-21T10:51:46.98</time>
<name>2721</name>
</trkpt>
<trkpt lat="48.949002" lon="8.652525">
<ele>294.5</ele>
<speed>2.5</speed>
<course>76.8</course>
<desc>Speed 2.5 km/h Distance 3.79 km</desc>
<time>2010-02-21T10:51:47.98</time>
<name>2722</name>
</trkpt>
<trkpt lat="48.949005" lon="8.652547">
<ele>293.5</ele>
<speed>2.9</speed>
<course>114.5</course>
<desc>Speed 2.9 km/h Distance 3.79 km</desc>
<time>2010-02-21T10:51:48.98</time>
<name>2723</name>
</trkpt>
<trkpt lat="48.949000" lon="8.652563">
<ele>290.5</ele>
<speed>2.2</speed>
<course>90.0</course>
<desc>Speed 2.2 km/h Distance 3.79 km</desc>
<time>2010-02-21T10:51:49.98</time>
<name>2724</name>
</trkpt>
<trkpt lat="48.949000" lon="8.652590">
<ele>290.0</ele>
<speed>2.8</speed>
<course>73.1</course>
<desc>Speed 2.8 km/h Distance 3.80 km</desc>
<time>2010-02-21T10:51:50.98</time>
<name>2725</name>
</trkpt>
<trkpt lat="48.949007" lon="8.652623">
<ele>294.5</ele>
<speed>2.8</speed>
<course>94.1</course>
<desc>Speed 2.8 km/h Distance 3.80 km</desc>
<time>2010-02-21T10:51:51.98</time>
<name>2726</name>
</trkpt>
<trkpt lat="48.949005" lon="8.652658">
<ele>298.5</ele>
<speed>1.6</speed>
<course>25.5</course>
<desc>Speed 1.6 km/h Distance 3.80 km</desc>
<time>2010-02-21T10:51:52.98</time>
<name>2727</name>
</trkpt>
<trkpt lat="48.949023" lon="8.652672">
<ele>300.5</ele>
<speed>2.4</speed>
<course>41.9</course>
<desc>Speed 2.4 km/h Distance 3.80 km</desc>
<time>2010-02-21T10:51:53.98</time>
<name>2728</name>
</trkpt>
<trkpt lat="48.949055" lon="8.652715">
<ele>306.5</ele>
<speed>1.9</speed>
<course>63.1</course>
<desc>Speed 1.9 km/h Distance 3.81 km</desc>
<time>2010-02-21T10:51:55.98</time>
<name>2729</name>
</trkpt>
<trkpt lat="48.949062" lon="8.652735">
<ele>305.5</ele>
<speed>3.3</speed>
<course>39.4</course>
<desc>Speed 3.3 km/h Distance 3.81 km</desc>
<time>2010-02-21T10:51:56.98</time>
<name>2730</name>
</trkpt>
<trkpt lat="48.949068" lon="8.652743">
<ele>306.0</ele>
<speed>1.6</speed>
<course>79.3</course>
<desc>Speed 1.6 km/h Distance 3.81 km</desc>
<time>2010-02-21T10:51:57.98</time>
<name>2731</name>
</trkpt>
<trkpt lat="48.949070" lon="8.652757">
<ele>305.5</ele>
<speed>2.7</speed>
<course>38.1</course>
<desc>Speed 2.7 km/h Distance 3.81 km</desc>
<time>2010-02-21T10:51:58.98</time>
<name>2732</name>
</trkpt>
<trkpt lat="48.949078" lon="8.652767">
<ele>303.5</ele>
<speed>1.4</speed>
<course>52.7</course>
<desc>Speed 1.4 km/h Distance 3.81 km</desc>
<time>2010-02-21T10:51:59.98</time>
<name>2733</name>
</trkpt>
<trkpt lat="48.949087" lon="8.652783">
<ele>303.0</ele>
<speed>2.1</speed>
<course>114.5</course>
<desc>Speed 2.1 km/h Distance 3.81 km</desc>
<time>2010-02-21T10:52:00.98</time>
<name>2734</name>
</trkpt>
<trkpt lat="48.949082" lon="8.652800">
<ele>302.5</ele>
<speed>3.3</speed>
<course>90.0</course>
<desc>Speed 3.3 km/h Distance 3.82 km</desc>
<time>2010-02-21T10:52:01.98</time>
<name>2735</name>
</trkpt>
<trkpt lat="48.949082" lon="8.652813">
<ele>302.0</ele>
<speed>2.6</speed>
<course>81.3</course>
<desc>Speed 2.6 km/h Distance 3.82 km</desc>
<time>2010-02-21T10:52:02.98</time>
<name>2736</name>
</trkpt>
<trkpt lat="48.949083" lon="8.652830">
<ele>302.0</ele>
<speed>2.7</speed>
<course>132.4</course>
<desc>Speed 2.7 km/h Distance 3.82 km</desc>
<time>2010-02-21T10:52:03.98</time>
<name>2737</name>
</trkpt>
<trkpt lat="48.949073" lon="8.652847">
<ele>303.0</ele>
<speed>4.6</speed>
<course>161.2</course>
<desc>Speed 4.6 km/h Distance 3.82 km</desc>
<time>2010-02-21T10:52:04.98</time>
<name>2738</name>
</trkpt>
<trkpt lat="48.949067" lon="8.652850">
<ele>301.0</ele>
<speed>1.7</speed>
<course>119.7</course>
<desc>Speed 1.7 km/h Distance 3.82 km</desc>
<time>2010-02-21T10:52:05.98</time>
<name>2739</name>
</trkpt>
<trkpt lat="48.949062" lon="8.652863">
<ele>300.5</ele>
<speed>3.3</speed>
<course>106.9</course>
<desc>Speed 3.3 km/h Distance 3.82 km</desc>
<time>2010-02-21T10:52:06.98</time>
<name>2740</name>
</trkpt>
<trkpt lat="48.949058" lon="8.652880">
<ele>301.5</ele>
<speed>3.9</speed>
<course>110.9</course>
<desc>Speed 3.9 km/h Distance 3.82 km</desc>
<time>2010-02-21T10:52:07.98</time>
<name>2741</name>
</trkpt>
<trkpt lat="48.949055" lon="8.652893">
<ele>300.5</ele>
<speed>3.4</speed>
<course>68.2</course>
<desc>Speed 3.4 km/h Distance 3.82 km</desc>
<time>2010-02-21T10:52:08.98</time>
<name>2742</name>
</trkpt>
<trkpt lat="48.949063" lon="8.652925">
<ele>302.5</ele>
<speed>3.2</speed>
<course>105.0</course>
<desc>Speed 3.2 km/h Distance 3.83 km</desc>
<time>2010-02-21T10:52:09.98</time>
<name>2743</name>
</trkpt>
<trkpt lat="48.949058" lon="8.652953">
<ele>303.0</ele>
<speed>3.4</speed>
<course>127.3</course>
<desc>Speed 3.4 km/h Distance 3.83 km</desc>
<time>2010-02-21T10:52:10.98</time>
<name>2744</name>
</trkpt>
<trkpt lat="48.949052" lon="8.652967">
<ele>301.5</ele>
<speed>3.7</speed>
<course>71.3</course>
<desc>Speed 3.7 km/h Distance 3.83 km</desc>
<time>2010-02-21T10:52:11.98</time>
<name>2745</name>
</trkpt>
<trkpt lat="48.949055" lon="8.652982">
<ele>300.5</ele>
<speed>1.8</speed>
<course>90.0</course>
<desc>Speed 1.8 km/h Distance 3.83 km</desc>
<time>2010-02-21T10:52:12.98</time>
<name>2746</name>
</trkpt>
<trkpt lat="48.949055" lon="8.653002">
<ele>300.0</ele>
<speed>3.0</speed>
<course>96.7</course>
<desc>Speed 3.0 km/h Distance 3.83 km</desc>
<time>2010-02-21T10:52:13.98</time>
<name>2747</name>
</trkpt>
<trkpt lat="48.949053" lon="8.653023">
<ele>298.0</ele>
<speed>3.0</speed>
<course>110.8</course>
<desc>Speed 3.0 km/h Distance 3.83 km</desc>
<time>2010-02-21T10:52:14.98</time>
<name>2748</name>
</trkpt>
<trkpt lat="48.949047" lon="8.653050">
<ele>297.5</ele>
<speed>2.3</speed>
<course>121.4</course>
<desc>Speed 2.3 km/h Distance 3.84 km</desc>
<time>2010-02-21T10:52:15.98</time>
<name>2749</name>
</trkpt>
<trkpt lat="48.949043" lon="8.653058">
<ele>298.0</ele>
<speed>1.4</speed>
<course>110.9</course>
<desc>Speed 1.4 km/h Distance 3.84 km</desc>
<time>2010-02-21T10:52:16.98</time>
<name>2750</name>
</trkpt>
<trkpt lat="48.949040" lon="8.653072">
<ele>296.5</ele>
<speed>3.3</speed>
<course>90.0</course>
<desc>Speed 3.3 km/h Distance 3.84 km</desc>
<time>2010-02-21T10:52:17.98</time>
<name>2751</name>
</trkpt>
<trkpt lat="48.949040" lon="8.653087">
<ele>297.5</ele>
<speed>2.3</speed>
<course>105.4</course>
<desc>Speed 2.3 km/h Distance 3.84 km</desc>
<time>2010-02-21T10:52:18.98</time>
<name>2752</name>
</trkpt>
<trkpt lat="48.949037" lon="8.653105">
<ele>297.0</ele>
<speed>1.9</speed>
<course>97.9</course>
<desc>Speed 1.9 km/h Distance 3.84 km</desc>
<time>2010-02-21T10:52:19.98</time>
<name>2753</name>
</trkpt>
<trkpt lat="48.949035" lon="8.653123">
<ele>297.0</ele>
<speed>2.3</speed>
<course>71.3</course>
<desc>Speed 2.3 km/h Distance 3.84 km</desc>
<time>2010-02-21T10:52:20.98</time>
<name>2754</name>
</trkpt>
<trkpt lat="48.949038" lon="8.653138">
<ele>298.5</ele>
<speed>1.6</speed>
<course>40.8</course>
<desc>Speed 1.6 km/h Distance 3.84 km</desc>
<time>2010-02-21T10:52:21.98</time>
<name>2755</name>
</trkpt>
<trkpt lat="48.949070" lon="8.653180">
<ele>306.0</ele>
<speed>3.4</speed>
<course>110.5</course>
<desc>Speed 3.4 km/h Distance 3.85 km</desc>
<time>2010-02-21T10:52:23.98</time>
<name>2756</name>
</trkpt>
<trkpt lat="48.949068" lon="8.653187">
<ele>304.5</ele>
<speed>2.6</speed>
<course>92.5</course>
<desc>Speed 2.6 km/h Distance 3.85 km</desc>
<time>2010-02-21T10:52:24.98</time>
<name>2757</name>
</trkpt>
<trkpt lat="48.949067" lon="8.653245">
<ele>309.5</ele>
<speed>2.5</speed>
<course>97.2</course>
<desc>Speed 2.5 km/h Distance 3.85 km</desc>
<time>2010-02-21T10:52:26.98</time>
<name>2758</name>
</trkpt>
<trkpt lat="48.949065" lon="8.653265">
<ele>311.0</ele>
<speed>2.8</speed>
<course>110.9</course>
<desc>Speed 2.8 km/h Distance 3.85 km</desc>
<time>2010-02-21T10:52:27.98</time>
<name>2759</name>
</trkpt>
<trkpt lat="48.949062" lon="8.653278">
<ele>313.0</ele>
<speed>2.5</speed>
<course>63.1</course>
<desc>Speed 2.5 km/h Distance 3.86 km</desc>
<time>2010-02-21T10:52:28.98</time>
<name>2760</name>
</trkpt>
<trkpt lat="48.949068" lon="8.653298">
<ele>314.5</ele>
<speed>2.9</speed>
<course>57.7</course>
<desc>Speed 2.9 km/h Distance 3.86 km</desc>
<time>2010-02-21T10:52:29.98</time>
<name>2761</name>
</trkpt>
<trkpt lat="48.949077" lon="8.653318">
<ele>317.0</ele>
<speed>2.2</speed>
<course>104.2</course>
<desc>Speed 2.2 km/h Distance 3.86 km</desc>
<time>2010-02-21T10:52:30.98</time>
<name>2762</name>
</trkpt>
<trkpt lat="48.949075" lon="8.653328">
<ele>317.0</ele>
<speed>2.4</speed>
<course>79.2</course>
<desc>Speed 2.4 km/h Distance 3.86 km</desc>
<time>2010-02-21T10:52:31.98</time>
<name>2763</name>
</trkpt>
<trkpt lat="48.949077" lon="8.653342">
<ele>317.5</ele>
<speed>2.2</speed>
<course>96.7</course>
<desc>Speed 2.2 km/h Distance 3.86 km</desc>
<time>2010-02-21T10:52:32.98</time>
<name>2764</name>
</trkpt>
<trkpt lat="48.949075" lon="8.653363">
<ele>318.5</ele>
<speed>2.7</speed>
<course>90.0</course>
<desc>Speed 2.7 km/h Distance 3.86 km</desc>
<time>2010-02-21T10:52:33.98</time>
<name>2765</name>
</trkpt>
<trkpt lat="48.949075" lon="8.653373">
<ele>318.0</ele>
<speed>2.6</speed>
<course>122.9</course>
<desc>Speed 2.6 km/h Distance 3.86 km</desc>
<time>2010-02-21T10:52:34.98</time>
<name>2766</name>
</trkpt>
<trkpt lat="48.949070" lon="8.653385">
<ele>318.0</ele>
<speed>3.2</speed>
<course>104.1</course>
<desc>Speed 3.2 km/h Distance 3.86 km</desc>
<time>2010-02-21T10:52:35.98</time>
<name>2767</name>
</trkpt>
<trkpt lat="48.949068" lon="8.653395">
<ele>318.0</ele>
<speed>2.6</speed>
<course>69.1</course>
<desc>Speed 2.6 km/h Distance 3.86 km</desc>
<time>2010-02-21T10:52:36.98</time>
<name>2768</name>
</trkpt>
<trkpt lat="48.949072" lon="8.653408">
<ele>318.0</ele>
<speed>1.8</speed>
<course>90.0</course>
<desc>Speed 1.8 km/h Distance 3.87 km</desc>
<time>2010-02-21T10:52:37.98</time>
<name>2769</name>
</trkpt>
<trkpt lat="48.949072" lon="8.653423">
<ele>318.0</ele>
<speed>2.4</speed>
<course>108.7</course>
<desc>Speed 2.4 km/h Distance 3.87 km</desc>
<time>2010-02-21T10:52:38.98</time>
<name>2770</name>
</trkpt>
<trkpt lat="48.949068" lon="8.653438">
<ele>318.5</ele>
<speed>1.8</speed>
<course>52.8</course>
<desc>Speed 1.8 km/h Distance 3.87 km</desc>
<time>2010-02-21T10:52:39.98</time>
<name>2771</name>
</trkpt>
<trkpt lat="48.949075" lon="8.653452">
<ele>319.0</ele>
<speed>1.7</speed>
<course>63.1</course>
<desc>Speed 1.7 km/h Distance 3.87 km</desc>
<time>2010-02-21T10:52:40.98</time>
<name>2772</name>
</trkpt>
<trkpt lat="48.949080" lon="8.653467">
<ele>320.5</ele>
<speed>1.9</speed>
<course>82.1</course>
<desc>Speed 1.9 km/h Distance 3.87 km</desc>
<time>2010-02-21T10:52:41.98</time>
<name>2773</name>
</trkpt>
<trkpt lat="48.949082" lon="8.653485">
<ele>320.0</ele>
<speed>2.5</speed>
<course>29.2</course>
<desc>Speed 2.5 km/h Distance 3.87 km</desc>
<time>2010-02-21T10:52:42.98</time>
<name>2774</name>
</trkpt>
<trkpt lat="48.949083" lon="8.653487">
<ele>321.0</ele>
<speed>0.5</speed>
<course>33.7</course>
<desc>Speed 0.5 km/h Distance 3.87 km</desc>
<time>2010-02-21T10:52:43.98</time>
<name>2775</name>
</trkpt>
<trkpt lat="48.949087" lon="8.653490">
<ele>321.0</ele>
<speed>0.5</speed>
<course>52.6</course>
<desc>Speed 0.5 km/h Distance 3.87 km</desc>
<time>2010-02-21T10:52:44.98</time>
<name>2776</name>
</trkpt>
<trkpt lat="48.949092" lon="8.653500">
<ele>321.5</ele>
<speed>1.8</speed>
<course>116.9</course>
<desc>Speed 1.8 km/h Distance 3.87 km</desc>
<time>2010-02-21T10:52:45.98</time>
<name>2777</name>
</trkpt>
<trkpt lat="48.949087" lon="8.653515">
<ele>321.5</ele>
<speed>4.1</speed>
<course>127.0</course>
<desc>Speed 4.1 km/h Distance 3.87 km</desc>
<time>2010-02-21T10:52:46.98</time>
<name>2778</name>
</trkpt>
<trkpt lat="48.949083" lon="8.653522">
<ele>320.0</ele>
<speed>1.4</speed>
<course>127.3</course>
<desc>Speed 1.4 km/h Distance 3.87 km</desc>
<time>2010-02-21T10:52:47.98</time>
<name>2779</name>
</trkpt>
<trkpt lat="48.949077" lon="8.653535">
<ele>318.5</ele>
<speed>3.3</speed>
<course>82.1</course>
<desc>Speed 3.3 km/h Distance 3.88 km</desc>
<time>2010-02-21T10:52:48.98</time>
<name>2780</name>
</trkpt>
<trkpt lat="48.949078" lon="8.653553">
<ele>318.0</ele>
<speed>2.9</speed>
<course>117.0</course>
<desc>Speed 2.9 km/h Distance 3.88 km</desc>
<time>2010-02-21T10:52:49.98</time>
<name>2781</name>
</trkpt>
<trkpt lat="48.949075" lon="8.653563">
<ele>316.5</ele>
<speed>2.0</speed>
<course>122.9</course>
<desc>Speed 2.0 km/h Distance 3.88 km</desc>
<time>2010-02-21T10:52:50.98</time>
<name>2782</name>
</trkpt>
<trkpt lat="48.949070" lon="8.653575">
<ele>313.5</ele>
<speed>2.2</speed>
<course>110.8</course>
<desc>Speed 2.2 km/h Distance 3.88 km</desc>
<time>2010-02-21T10:52:51.98</time>
<name>2783</name>
</trkpt>
<trkpt lat="48.949067" lon="8.653588">
<ele>312.5</ele>
<speed>2.4</speed>
<course>77.8</course>
<desc>Speed 2.4 km/h Distance 3.88 km</desc>
<time>2010-02-21T10:52:52.98</time>
<name>2784</name>
</trkpt>
<trkpt lat="48.949068" lon="8.653600">
<ele>312.5</ele>
<speed>2.1</speed>
<course>110.5</course>
<desc>Speed 2.1 km/h Distance 3.88 km</desc>
<time>2010-02-21T10:52:53.98</time>
<name>2785</name>
</trkpt>
<trkpt lat="48.949067" lon="8.653607">
<ele>311.5</ele>
<speed>1.4</speed>
<course>128.1</course>
<desc>Speed 1.4 km/h Distance 3.88 km</desc>
<time>2010-02-21T10:52:54.98</time>
<name>2786</name>
</trkpt>
<trkpt lat="48.949065" lon="8.653610">
<ele>310.0</ele>
<speed>0.8</speed>
<course>128.1</course>
<desc>Speed 0.8 km/h Distance 3.88 km</desc>
<time>2010-02-21T10:52:55.98</time>
<name>2787</name>
</trkpt>
<trkpt lat="48.949063" lon="8.653613">
<ele>308.5</ele>
<speed>0.9</speed>
<course>110.9</course>
<desc>Speed 0.9 km/h Distance 3.88 km</desc>
<time>2010-02-21T10:52:56.98</time>
<name>2788</name>
</trkpt>
<trkpt lat="48.949062" lon="8.653620">
<ele>307.5</ele>
<speed>1.4</speed>
<course>127.3</course>
<desc>Speed 1.4 km/h Distance 3.88 km</desc>
<time>2010-02-21T10:52:57.98</time>
<name>2789</name>
</trkpt>
<trkpt lat="48.949053" lon="8.653637">
<ele>307.0</ele>
<speed>4.6</speed>
<course>44.5</course>
<desc>Speed 4.6 km/h Distance 3.88 km</desc>
<time>2010-02-21T10:52:58.98</time>
<name>2790</name>
</trkpt>
<trkpt lat="48.949060" lon="8.653647">
<ele>307.5</ele>
<speed>4.0</speed>
<course>90.0</course>
<desc>Speed 4.0 km/h Distance 3.89 km</desc>
<time>2010-02-21T10:52:59.98</time>
<name>2791</name>
</trkpt>
<trkpt lat="48.949060" lon="8.653648">
<ele>307.5</ele>
<speed>0.6</speed>
<course>90.0</course>
<desc>Speed 0.6 km/h Distance 3.89 km</desc>
<time>2010-02-21T10:53:00.98</time>
<name>2792</name>
</trkpt>
<trkpt lat="48.949060" lon="8.653648">
<ele>307.5</ele>
<speed>0.7</speed>
<course>121.4</course>
<desc>Speed 0.7 km/h Distance 3.89 km</desc>
<time>2010-02-21T10:53:01.98</time>
<name>2793</name>
</trkpt>
<trkpt lat="48.949057" lon="8.653657">
<ele>306.5</ele>
<speed>2.0</speed>
<course>153.6</course>
<desc>Speed 2.0 km/h Distance 3.89 km</desc>
<time>2010-02-21T10:53:02.98</time>
<name>2794</name>
</trkpt>
<trkpt lat="48.949050" lon="8.653662">
<ele>304.5</ele>
<speed>1.6</speed>
<course>90.0</course>
<desc>Speed 1.6 km/h Distance 3.89 km</desc>
<time>2010-02-21T10:53:03.98</time>
<name>2795</name>
</trkpt>
<trkpt lat="48.949050" lon="8.653672">
<ele>304.5</ele>
<speed>1.8</speed>
<course>106.9</course>
<desc>Speed 1.8 km/h Distance 3.89 km</desc>
<time>2010-02-21T10:53:04.98</time>
<name>2796</name>
</trkpt>
<trkpt lat="48.949048" lon="8.653680">
<ele>303.5</ele>
<speed>2.1</speed>
<course>121.4</course>
<desc>Speed 2.1 km/h Distance 3.89 km</desc>
<time>2010-02-21T10:53:05.98</time>
<name>2797</name>
</trkpt>
<trkpt lat="48.949045" lon="8.653688">
<ele>303.0</ele>
<speed>1.9</speed>
<course>110.9</course>
<desc>Speed 1.9 km/h Distance 3.89 km</desc>
<time>2010-02-21T10:53:06.98</time>
<name>2798</name>
</trkpt>
<trkpt lat="48.949043" lon="8.653695">
<ele>302.0</ele>
<speed>2.1</speed>
<course>78.5</course>
<desc>Speed 2.1 km/h Distance 3.89 km</desc>
<time>2010-02-21T10:53:07.98</time>
<name>2799</name>
</trkpt>
<trkpt lat="48.949047" lon="8.653720">
<ele>302.0</ele>
<speed>2.2</speed>
<course>117.4</course>
<desc>Speed 2.2 km/h Distance 3.89 km</desc>
<time>2010-02-21T10:53:08.98</time>
<name>2800</name>
</trkpt>
<trkpt lat="48.949045" lon="8.653725">
<ele>301.0</ele>
<speed>1.2</speed>
<course>119.8</course>
<desc>Speed 1.2 km/h Distance 3.89 km</desc>
<time>2010-02-21T10:53:09.98</time>
<name>2801</name>
</trkpt>
<trkpt lat="48.949040" lon="8.653738">
<ele>299.0</ele>
<speed>2.0</speed>
<course>96.2</course>
<desc>Speed 2.0 km/h Distance 3.89 km</desc>
<time>2010-02-21T10:53:10.98</time>
<name>2802</name>
</trkpt>
<trkpt lat="48.949038" lon="8.653762">
<ele>298.5</ele>
<speed>2.8</speed>
<course>80.4</course>
<desc>Speed 2.8 km/h Distance 3.89 km</desc>
<time>2010-02-21T10:53:11.98</time>
<name>2803</name>
</trkpt>
<trkpt lat="48.949040" lon="8.653777">
<ele>300.0</ele>
<speed>2.1</speed>
<course>61.0</course>
<desc>Speed 2.1 km/h Distance 3.90 km</desc>
<time>2010-02-21T10:53:12.98</time>
<name>2804</name>
</trkpt>
<trkpt lat="48.949047" lon="8.653795">
<ele>301.5</ele>
<speed>2.2</speed>
<course>121.4</course>
<desc>Speed 2.2 km/h Distance 3.90 km</desc>
<time>2010-02-21T10:53:13.98</time>
<name>2805</name>
</trkpt>
<trkpt lat="48.949043" lon="8.653803">
<ele>300.5</ele>
<speed>2.1</speed>
<course>110.9</course>
<desc>Speed 2.1 km/h Distance 3.90 km</desc>
<time>2010-02-21T10:53:14.98</time>
<name>2806</name>
</trkpt>
<trkpt lat="48.949042" lon="8.653810">
<ele>300.5</ele>
<speed>1.7</speed>
<course>121.4</course>
<desc>Speed 1.7 km/h Distance 3.90 km</desc>
<time>2010-02-21T10:53:15.98</time>
<name>2807</name>
</trkpt>
<trkpt lat="48.949038" lon="8.653818">
<ele>300.5</ele>
<speed>1.8</speed>
<course>90.0</course>
<desc>Speed 1.8 km/h Distance 3.90 km</desc>
<time>2010-02-21T10:53:16.98</time>
<name>2808</name>
</trkpt>
<trkpt lat="48.949038" lon="8.653827">
<ele>300.0</ele>
<speed>1.8</speed>
<course>90.0</course>
<desc>Speed 1.8 km/h Distance 3.90 km</desc>
<time>2010-02-21T10:53:17.98</time>
<name>2809</name>
</trkpt>
<trkpt lat="48.949038" lon="8.653840">
<ele>301.0</ele>
<speed>1.4</speed>
<course>75.9</course>
<desc>Speed 1.4 km/h Distance 3.90 km</desc>
<time>2010-02-21T10:53:18.98</time>
<name>2810</name>
</trkpt>
<trkpt lat="48.949040" lon="8.653850">
<ele>302.5</ele>
<speed>1.4</speed>
<course>66.5</course>
<desc>Speed 1.4 km/h Distance 3.90 km</desc>
<time>2010-02-21T10:53:19.98</time>
<name>2811</name>
</trkpt>
<trkpt lat="48.949043" lon="8.653862">
<ele>304.5</ele>
<speed>1.8</speed>
<course>62.6</course>
<desc>Speed 1.8 km/h Distance 3.90 km</desc>
<time>2010-02-21T10:53:20.98</time>
<name>2812</name>
</trkpt>
<trkpt lat="48.949045" lon="8.653867">
<ele>305.5</ele>
<speed>0.6</speed>
<course>58.6</course>
<desc>Speed 0.6 km/h Distance 3.90 km</desc>
<time>2010-02-21T10:53:21.98</time>
<name>2813</name>
</trkpt>
<trkpt lat="48.949048" lon="8.653875">
<ele>306.0</ele>
<speed>1.8</speed>
<course>113.5</course>
<desc>Speed 1.8 km/h Distance 3.90 km</desc>
<time>2010-02-21T10:53:22.98</time>
<name>2814</name>
</trkpt>
<trkpt lat="48.949045" lon="8.653887">
<ele>306.5</ele>
<speed>1.6</speed>
<course>106.9</course>
<desc>Speed 1.6 km/h Distance 3.90 km</desc>
<time>2010-02-21T10:53:23.98</time>
<name>2815</name>
</trkpt>
<trkpt lat="48.949042" lon="8.653903">
<ele>307.0</ele>
<speed>1.5</speed>
<course>121.4</course>
<desc>Speed 1.5 km/h Distance 3.91 km</desc>
<time>2010-02-21T10:53:24.98</time>
<name>2816</name>
</trkpt>
<trkpt lat="48.949038" lon="8.653912">
<ele>308.0</ele>
<speed>1.7</speed>
<course>63.4</course>
<desc>Speed 1.7 km/h Distance 3.91 km</desc>
<time>2010-02-21T10:53:25.98</time>
<name>2817</name>
</trkpt>
<trkpt lat="48.949040" lon="8.653917">
<ele>307.5</ele>
<speed>0.6</speed>
<course>90.0</course>
<desc>Speed 0.6 km/h Distance 3.91 km</desc>
<time>2010-02-21T10:53:26.98</time>
<name>2818</name>
</trkpt>
<trkpt lat="48.949040" lon="8.653923">
<ele>309.5</ele>
<speed>0.8</speed>
<course>79.2</course>
<desc>Speed 0.8 km/h Distance 3.91 km</desc>
<time>2010-02-21T10:53:27.98</time>
<name>2819</name>
</trkpt>
<trkpt lat="48.949043" lon="8.653950">
<ele>312.5</ele>
<speed>2.0</speed>
<course>100.2</course>
<desc>Speed 2.0 km/h Distance 3.91 km</desc>
<time>2010-02-21T10:53:28.98</time>
<name>2820</name>
</trkpt>
<trkpt lat="48.949040" lon="8.653978">
<ele>315.0</ele>
<speed>0.7</speed>
<course>110.5</course>
<desc>Speed 0.7 km/h Distance 3.91 km</desc>
<time>2010-02-21T10:53:29.98</time>
<name>2821</name>
</trkpt>
<trkpt lat="48.949038" lon="8.653985">
<ele>315.5</ele>
<speed>0.9</speed>
<course>100.8</course>
<desc>Speed 0.9 km/h Distance 3.91 km</desc>
<time>2010-02-21T10:53:30.98</time>
<name>2822</name>
</trkpt>
<trkpt lat="48.949027" lon="8.654078">
<ele>329.0</ele>
<speed>0.6</speed>
<course>100.8</course>
<desc>Speed 0.6 km/h Distance 3.92 km</desc>
<time>2010-02-21T10:53:32.98</time>
<name>2823</name>
</trkpt>
<trkpt lat="48.949027" lon="8.654078">
<ele>329.5</ele>
<speed>1.0</speed>
<course>110.9</course>
<desc>Speed 1.0 km/h Distance 3.92 km</desc>
<time>2010-02-21T10:53:33.98</time>
<name>2824</name>
</trkpt>
<trkpt lat="48.949023" lon="8.654092">
<ele>329.5</ele>
<speed>0.6</speed>
<course>167.4</course>
<desc>Speed 0.6 km/h Distance 3.92 km</desc>
<time>2010-02-21T10:53:34.98</time>
<name>2825</name>
</trkpt>
<trkpt lat="48.949020" lon="8.654093">
<ele>329.0</ele>
<speed>0.9</speed>
<course>167.4</course>
<desc>Speed 0.9 km/h Distance 3.92 km</desc>
<time>2010-02-21T10:53:35.98</time>
<name>2826</name>
</trkpt>
<trkpt lat="48.949020" lon="8.654095">
<ele>329.5</ele>
<speed>0.1</speed>
<course>132.9</course>
<desc>Speed 0.1 km/h Distance 3.92 km</desc>
<time>2010-02-21T10:53:36.98</time>
<name>2827</name>
</trkpt>
<trkpt lat="48.949015" lon="8.654103">
<ele>329.5</ele>
<speed>2.4</speed>
<course>132.9</course>
<desc>Speed 2.4 km/h Distance 3.92 km</desc>
<time>2010-02-21T10:53:37.98</time>
<name>2828</name>
</trkpt>
<trkpt lat="48.949010" lon="8.654112">
<ele>330.5</ele>
<speed>1.5</speed>
<course>90.0</course>
<desc>Speed 1.5 km/h Distance 3.92 km</desc>
<time>2010-02-21T10:53:38.98</time>
<name>2829</name>
</trkpt>
<trkpt lat="48.949010" lon="8.654115">
<ele>329.5</ele>
<speed>1.1</speed>
<course>117.4</course>
<desc>Speed 1.1 km/h Distance 3.92 km</desc>
<time>2010-02-21T10:53:39.98</time>
<name>2830</name>
</trkpt>
<trkpt lat="48.949008" lon="8.654120">
<ele>329.0</ele>
<speed>1.3</speed>
<course>123.3</course>
<desc>Speed 1.3 km/h Distance 3.92 km</desc>
<time>2010-02-21T10:53:40.98</time>
<name>2831</name>
</trkpt>
<trkpt lat="48.949003" lon="8.654132">
<ele>330.0</ele>
<speed>0.8</speed>
<course>167.4</course>
<desc>Speed 0.8 km/h Distance 3.92 km</desc>
<time>2010-02-21T10:53:41.98</time>
<name>2832</name>
</trkpt>
<trkpt lat="48.949000" lon="8.654132">
<ele>329.5</ele>
<speed>1.3</speed>
<course>203.0</course>
<desc>Speed 1.3 km/h Distance 3.92 km</desc>
<time>2010-02-21T10:53:42.98</time>
<name>2833</name>
</trkpt>
<trkpt lat="48.948997" lon="8.654130">
<ele>328.0</ele>
<speed>1.0</speed>
<course>198.8</course>
<desc>Speed 1.0 km/h Distance 3.92 km</desc>
<time>2010-02-21T10:53:43.98</time>
<name>2834</name>
</trkpt>
<trkpt lat="48.948990" lon="8.654127">
<ele>327.0</ele>
<speed>1.9</speed>
<course>167.4</course>
<desc>Speed 1.9 km/h Distance 3.93 km</desc>
<time>2010-02-21T10:53:44.98</time>
<name>2835</name>
</trkpt>
<trkpt lat="48.948987" lon="8.654128">
<ele>326.0</ele>
<speed>1.0</speed>
<course>127.2</course>
<desc>Speed 1.0 km/h Distance 3.93 km</desc>
<time>2010-02-21T10:53:45.98</time>
<name>2836</name>
</trkpt>
<trkpt lat="48.948982" lon="8.654138">
<ele>326.5</ele>
<speed>0.7</speed>
<course>180.0</course>
<desc>Speed 0.7 km/h Distance 3.93 km</desc>
<time>2010-02-21T10:53:46.98</time>
<name>2837</name>
</trkpt>
<trkpt lat="48.948978" lon="8.654138">
<ele>326.0</ele>
<speed>1.3</speed>
<course>147.7</course>
<desc>Speed 1.3 km/h Distance 3.93 km</desc>
<time>2010-02-21T10:53:47.98</time>
<name>2838</name>
</trkpt>
<trkpt lat="48.948973" lon="8.654143">
<ele>326.0</ele>
<speed>1.9</speed>
<course>198.8</course>
<desc>Speed 1.9 km/h Distance 3.93 km</desc>
<time>2010-02-21T10:53:48.98</time>
<name>2839</name>
</trkpt>
<trkpt lat="48.948970" lon="8.654142">
<ele>325.5</ele>
<speed>1.1</speed>
<course>161.2</course>
<desc>Speed 1.1 km/h Distance 3.93 km</desc>
<time>2010-02-21T10:53:49.98</time>
<name>2840</name>
</trkpt>
<trkpt lat="48.948967" lon="8.654143">
<ele>325.5</ele>
<speed>0.9</speed>
<course>172.6</course>
<desc>Speed 0.9 km/h Distance 3.93 km</desc>
<time>2010-02-21T10:53:50.98</time>
<name>2841</name>
</trkpt>
<trkpt lat="48.948960" lon="8.654145">
<ele>324.0</ele>
<speed>2.8</speed>
<course>135.5</course>
<desc>Speed 2.8 km/h Distance 3.93 km</desc>
<time>2010-02-21T10:53:51.98</time>
<name>2842</name>
</trkpt>
<trkpt lat="48.948953" lon="8.654155">
<ele>323.0</ele>
<speed>2.6</speed>
<course>290.9</course>
<desc>Speed 2.6 km/h Distance 3.93 km</desc>
<time>2010-02-21T10:53:52.98</time>
<name>2843</name>
</trkpt>
<trkpt lat="48.948955" lon="8.654148">
<ele>324.0</ele>
<speed>2.6</speed>
<course>128.1</course>
<desc>Speed 2.6 km/h Distance 3.93 km</desc>
<time>2010-02-21T10:53:53.98</time>
<name>2844</name>
</trkpt>
<trkpt lat="48.948953" lon="8.654152">
<ele>324.5</ele>
<speed>0.8</speed>
<course>139.1</course>
<desc>Speed 0.8 km/h Distance 3.93 km</desc>
<time>2010-02-21T10:53:54.98</time>
<name>2845</name>
</trkpt>
<trkpt lat="48.948948" lon="8.654158">
<ele>326.5</ele>
<speed>1.9</speed>
<course>167.4</course>
<desc>Speed 1.9 km/h Distance 3.93 km</desc>
<time>2010-02-21T10:53:55.98</time>
<name>2846</name>
</trkpt>
<trkpt lat="48.948943" lon="8.654160">
<ele>327.0</ele>
<speed>1.6</speed>
<course>167.4</course>
<desc>Speed 1.6 km/h Distance 3.93 km</desc>
<time>2010-02-21T10:53:56.98</time>
<name>2847</name>
</trkpt>
<trkpt lat="48.948940" lon="8.654160">
<ele>326.5</ele>
<speed>1.2</speed>
<course>90.0</course>
<desc>Speed 1.2 km/h Distance 3.93 km</desc>
<time>2010-02-21T10:53:57.98</time>
<name>2848</name>
</trkpt>
<trkpt lat="48.948940" lon="8.654165">
<ele>326.0</ele>
<speed>1.0</speed>
<course>138.8</course>
<desc>Speed 1.0 km/h Distance 3.93 km</desc>
<time>2010-02-21T10:53:58.98</time>
<name>2849</name>
</trkpt>
<trkpt lat="48.948930" lon="8.654178">
<ele>325.0</ele>
<speed>1.8</speed>
<course>158.5</course>
<desc>Speed 1.8 km/h Distance 3.93 km</desc>
<time>2010-02-21T10:53:59.98</time>
<name>2850</name>
</trkpt>
<trkpt lat="48.948922" lon="8.654183">
<ele>324.0</ele>
<speed>2.2</speed>
<course>154.6</course>
<desc>Speed 2.2 km/h Distance 3.94 km</desc>
<time>2010-02-21T10:54:00.98</time>
<name>2851</name>
</trkpt>
<trkpt lat="48.948917" lon="8.654187">
<ele>322.5</ele>
<speed>1.7</speed>
<course>171.2</course>
<desc>Speed 1.7 km/h Distance 3.94 km</desc>
<time>2010-02-21T10:54:01.98</time>
<name>2852</name>
</trkpt>
<trkpt lat="48.948902" lon="8.654190">
<ele>321.0</ele>
<speed>1.3</speed>
<course>140.6</course>
<desc>Speed 1.3 km/h Distance 3.94 km</desc>
<time>2010-02-21T10:54:02.98</time>
<name>2853</name>
</trkpt>
<trkpt lat="48.948895" lon="8.654198">
<ele>321.0</ele>
<speed>1.7</speed>
<course>190.3</course>
<desc>Speed 1.7 km/h Distance 3.94 km</desc>
<time>2010-02-21T10:54:03.98</time>
<name>2854</name>
</trkpt>
<trkpt lat="48.948888" lon="8.654197">
<ele>320.0</ele>
<speed>1.9</speed>
<course>123.5</course>
<desc>Speed 1.9 km/h Distance 3.94 km</desc>
<time>2010-02-21T10:54:04.98</time>
<name>2855</name>
</trkpt>
<trkpt lat="48.948855" lon="8.654273">
<ele>317.0</ele>
<speed>1.2</speed>
<course>124.1</course>
<desc>Speed 1.2 km/h Distance 3.95 km</desc>
<time>2010-02-21T10:54:06.98</time>
<name>2856</name>
</trkpt>
<trkpt lat="48.948848" lon="8.654288">
<ele>316.5</ele>
<speed>1.2</speed>
<course>167.4</course>
<desc>Speed 1.2 km/h Distance 3.95 km</desc>
<time>2010-02-21T10:54:07.98</time>
<name>2857</name>
</trkpt>
<trkpt lat="48.948843" lon="8.654290">
<ele>316.0</ele>
<speed>1.4</speed>
<course>153.6</course>
<desc>Speed 1.4 km/h Distance 3.95 km</desc>
<time>2010-02-21T10:54:08.98</time>
<name>2858</name>
</trkpt>
<trkpt lat="48.948837" lon="8.654295">
<ele>315.0</ele>
<speed>2.4</speed>
<course>161.8</course>
<desc>Speed 2.4 km/h Distance 3.95 km</desc>
<time>2010-02-21T10:54:09.98</time>
<name>2859</name>
</trkpt>
<trkpt lat="48.948827" lon="8.654300">
<ele>314.5</ele>
<speed>1.7</speed>
<course>140.6</course>
<desc>Speed 1.7 km/h Distance 3.95 km</desc>
<time>2010-02-21T10:54:10.98</time>
<name>2860</name>
</trkpt>
<trkpt lat="48.948820" lon="8.654308">
<ele>316.0</ele>
<speed>2.7</speed>
<course>147.7</course>
<desc>Speed 2.7 km/h Distance 3.95 km</desc>
<time>2010-02-21T10:54:11.98</time>
<name>2861</name>
</trkpt>
<trkpt lat="48.948815" lon="8.654313">
<ele>316.0</ele>
<speed>2.3</speed>
<course>132.6</course>
<desc>Speed 2.3 km/h Distance 3.95 km</desc>
<time>2010-02-21T10:54:12.98</time>
<name>2862</name>
</trkpt>
<trkpt lat="48.948810" lon="8.654322">
<ele>316.5</ele>
<speed>1.3</speed>
<course>180.0</course>
<desc>Speed 1.3 km/h Distance 3.95 km</desc>
<time>2010-02-21T10:54:13.98</time>
<name>2863</name>
</trkpt>
<trkpt lat="48.948807" lon="8.654322">
<ele>316.5</ele>
<speed>1.0</speed>
<course>136.5</course>
<desc>Speed 1.0 km/h Distance 3.95 km</desc>
<time>2010-02-21T10:54:14.98</time>
<name>2864</name>
</trkpt>
<trkpt lat="48.948803" lon="8.654327">
<ele>317.5</ele>
<speed>1.4</speed>
<course>156.2</course>
<desc>Speed 1.4 km/h Distance 3.95 km</desc>
<time>2010-02-21T10:54:15.98</time>
<name>2865</name>
</trkpt>
<trkpt lat="48.948793" lon="8.654333">
<ele>317.5</ele>
<speed>1.8</speed>
<course>0.0</course>
<desc>Speed 1.8 km/h Distance 3.96 km</desc>
<time>2010-02-21T10:54:16.98</time>
<name>2866</name>
</trkpt>
<trkpt lat="48.948798" lon="8.654333">
<ele>319.5</ele>
<speed>1.7</speed>
<course>110.9</course>
<desc>Speed 1.7 km/h Distance 3.96 km</desc>
<time>2010-02-21T10:54:17.98</time>
<name>2867</name>
</trkpt>
<trkpt lat="48.948797" lon="8.654340">
<ele>321.0</ele>
<speed>1.2</speed>
<course>161.2</course>
<desc>Speed 1.2 km/h Distance 3.96 km</desc>
<time>2010-02-21T10:54:18.98</time>
<name>2868</name>
</trkpt>
<trkpt lat="48.948793" lon="8.654342">
<ele>320.5</ele>
<speed>1.1</speed>
<course>161.2</course>
<desc>Speed 1.1 km/h Distance 3.96 km</desc>
<time>2010-02-21T10:54:19.98</time>
<name>2869</name>
</trkpt>
<trkpt lat="48.948787" lon="8.654345">
<ele>320.5</ele>
<speed>1.7</speed>
<course>116.9</course>
<desc>Speed 1.7 km/h Distance 3.96 km</desc>
<time>2010-02-21T10:54:20.98</time>
<name>2870</name>
</trkpt>
<trkpt lat="48.948780" lon="8.654365">
<ele>319.5</ele>
<speed>1.3</speed>
<course>146.7</course>
<desc>Speed 1.3 km/h Distance 3.96 km</desc>
<time>2010-02-21T10:54:21.98</time>
<name>2871</name>
</trkpt>
<trkpt lat="48.948767" lon="8.654378">
<ele>317.0</ele>
<speed>1.6</speed>
<course>175.0</course>
<desc>Speed 1.6 km/h Distance 3.96 km</desc>
<time>2010-02-21T10:54:22.98</time>
<name>2872</name>
</trkpt>
<trkpt lat="48.948758" lon="8.654380">
<ele>316.5</ele>
<speed>1.9</speed>
<course>127.3</course>
<desc>Speed 1.9 km/h Distance 3.96 km</desc>
<time>2010-02-21T10:54:23.98</time>
<name>2873</name>
</trkpt>
<trkpt lat="48.948732" lon="8.654433">
<ele>315.5</ele>
<speed>2.8</speed>
<course>97.9</course>
<desc>Speed 2.8 km/h Distance 3.97 km</desc>
<time>2010-02-21T10:54:25.98</time>
<name>2874</name>
</trkpt>
<trkpt lat="48.948728" lon="8.654470">
<ele>317.5</ele>
<speed>1.9</speed>
<course>146.3</course>
<desc>Speed 1.9 km/h Distance 3.97 km</desc>
<time>2010-02-21T10:54:26.98</time>
<name>2875</name>
</trkpt>
<trkpt lat="48.948725" lon="8.654473">
<ele>317.5</ele>
<speed>1.0</speed>
<course>171.9</course>
<desc>Speed 1.0 km/h Distance 3.97 km</desc>
<time>2010-02-21T10:54:27.98</time>
<name>2876</name>
</trkpt>
<trkpt lat="48.948720" lon="8.654475">
<ele>317.0</ele>
<speed>0.6</speed>
<course>167.4</course>
<desc>Speed 0.6 km/h Distance 3.97 km</desc>
<time>2010-02-21T10:54:28.98</time>
<name>2877</name>
</trkpt>
<trkpt lat="48.948715" lon="8.654477">
<ele>315.5</ele>
<speed>0.8</speed>
<course>63.1</course>
<desc>Speed 0.8 km/h Distance 3.97 km</desc>
<time>2010-02-21T10:54:29.98</time>
<name>2878</name>
</trkpt>
<trkpt lat="48.948720" lon="8.654492">
<ele>316.0</ele>
<speed>2.4</speed>
<course>122.3</course>
<desc>Speed 2.4 km/h Distance 3.97 km</desc>
<time>2010-02-21T10:54:30.98</time>
<name>2879</name>
</trkpt>
<trkpt lat="48.948712" lon="8.654512">
<ele>316.0</ele>
<speed>1.6</speed>
<course>137.4</course>
<desc>Speed 1.6 km/h Distance 3.97 km</desc>
<time>2010-02-21T10:54:31.98</time>
<name>2880</name>
</trkpt>
<trkpt lat="48.948703" lon="8.654523">
<ele>315.5</ele>
<speed>1.5</speed>
<course>127.0</course>
<desc>Speed 1.5 km/h Distance 3.98 km</desc>
<time>2010-02-21T10:54:32.98</time>
<name>2881</name>
</trkpt>
<trkpt lat="48.948700" lon="8.654530">
<ele>315.0</ele>
<speed>1.1</speed>
<course>102.3</course>
<desc>Speed 1.1 km/h Distance 3.98 km</desc>
<time>2010-02-21T10:54:33.98</time>
<name>2882</name>
</trkpt>
<trkpt lat="48.948698" lon="8.654542">
<ele>314.0</ele>
<speed>1.7</speed>
<course>146.6</course>
<desc>Speed 1.7 km/h Distance 3.98 km</desc>
<time>2010-02-21T10:54:34.98</time>
<name>2883</name>
</trkpt>
<trkpt lat="48.948688" lon="8.654552">
<ele>311.5</ele>
<speed>0.8</speed>
<course>118.6</course>
<desc>Speed 0.8 km/h Distance 3.98 km</desc>
<time>2010-02-21T10:54:35.98</time>
<name>2884</name>
</trkpt>
<trkpt lat="48.948680" lon="8.654575">
<ele>312.0</ele>
<speed>1.5</speed>
<course>140.6</course>
<desc>Speed 1.5 km/h Distance 3.98 km</desc>
<time>2010-02-21T10:54:36.98</time>
<name>2885</name>
</trkpt>
<trkpt lat="48.948673" lon="8.654583">
<ele>312.5</ele>
<speed>1.5</speed>
<course>113.5</course>
<desc>Speed 1.5 km/h Distance 3.98 km</desc>
<time>2010-02-21T10:54:37.98</time>
<name>2886</name>
</trkpt>
<trkpt lat="48.948670" lon="8.654595">
<ele>312.5</ele>
<speed>1.0</speed>
<course>118.0</course>
<desc>Speed 1.0 km/h Distance 3.98 km</desc>
<time>2010-02-21T10:54:38.98</time>
<name>2887</name>
</trkpt>
<trkpt lat="48.948607" lon="8.654777">
<ele>314.5</ele>
<speed>1.4</speed>
<course>135.5</course>
<desc>Speed 1.4 km/h Distance 4.00 km</desc>
<time>2010-02-21T10:54:41.98</time>
<name>2888</name>
</trkpt>
<trkpt lat="48.948603" lon="8.654782">
<ele>313.0</ele>
<speed>1.0</speed>
<course>153.6</course>
<desc>Speed 1.0 km/h Distance 4.00 km</desc>
<time>2010-02-21T10:54:42.98</time>
<name>2889</name>
</trkpt>
<trkpt lat="48.948597" lon="8.654787">
<ele>312.5</ele>
<speed>1.5</speed>
<course>124.6</course>
<desc>Speed 1.5 km/h Distance 4.00 km</desc>
<time>2010-02-21T10:54:43.98</time>
<name>2890</name>
</trkpt>
<trkpt lat="48.948588" lon="8.654805">
<ele>312.5</ele>
<speed>2.8</speed>
<course>129.7</course>
<desc>Speed 2.8 km/h Distance 4.00 km</desc>
<time>2010-02-21T10:54:44.98</time>
<name>2891</name>
</trkpt>
<trkpt lat="48.948578" lon="8.654823">
<ele>312.5</ele>
<speed>1.3</speed>
<course>134.1</course>
<desc>Speed 1.3 km/h Distance 4.00 km</desc>
<time>2010-02-21T10:54:45.98</time>
<name>2892</name>
</trkpt>
<trkpt lat="48.948567" lon="8.654842">
<ele>314.0</ele>
<speed>1.5</speed>
<course>171.9</course>
<desc>Speed 1.5 km/h Distance 4.00 km</desc>
<time>2010-02-21T10:54:46.98</time>
<name>2893</name>
</trkpt>
<trkpt lat="48.948562" lon="8.654842">
<ele>312.5</ele>
<speed>0.8</speed>
<course>197.5</course>
<desc>Speed 0.8 km/h Distance 4.00 km</desc>
<time>2010-02-21T10:54:47.98</time>
<name>2894</name>
</trkpt>
<trkpt lat="48.948555" lon="8.654838">
<ele>310.5</ele>
<speed>1.9</speed>
<course>126.7</course>
<desc>Speed 1.9 km/h Distance 4.00 km</desc>
<time>2010-02-21T10:54:48.98</time>
<name>2895</name>
</trkpt>
<trkpt lat="48.948517" lon="8.654917">
<ele>316.5</ele>
<speed>2.0</speed>
<course>150.3</course>
<desc>Speed 2.0 km/h Distance 4.01 km</desc>
<time>2010-02-21T10:54:50.98</time>
<name>2896</name>
</trkpt>
<trkpt lat="48.948492" lon="8.654938">
<ele>313.0</ele>
<speed>0.9</speed>
<course>167.4</course>
<desc>Speed 0.9 km/h Distance 4.02 km</desc>
<time>2010-02-21T10:54:52.98</time>
<name>2897</name>
</trkpt>
<trkpt lat="48.948487" lon="8.654940">
<ele>313.5</ele>
<speed>1.4</speed>
<course>133.5</course>
<desc>Speed 1.4 km/h Distance 4.02 km</desc>
<time>2010-02-21T10:54:53.98</time>
<name>2898</name>
</trkpt>
<trkpt lat="48.948478" lon="8.654953">
<ele>313.5</ele>
<speed>3.8</speed>
<course>145.9</course>
<desc>Speed 3.8 km/h Distance 4.02 km</desc>
<time>2010-02-21T10:54:54.98</time>
<name>2899</name>
</trkpt>
<trkpt lat="48.948473" lon="8.654958">
<ele>312.5</ele>
<speed>1.3</speed>
<course>110.9</course>
<desc>Speed 1.3 km/h Distance 4.02 km</desc>
<time>2010-02-21T10:54:55.98</time>
<name>2900</name>
</trkpt>
<trkpt lat="48.948472" lon="8.654965">
<ele>313.0</ele>
<speed>0.9</speed>
<course>121.0</course>
<desc>Speed 0.9 km/h Distance 4.02 km</desc>
<time>2010-02-21T10:54:56.98</time>
<name>2901</name>
</trkpt>
<trkpt lat="48.948443" lon="8.655037">
<ele>319.0</ele>
<speed>1.4</speed>
<course>167.4</course>
<desc>Speed 1.4 km/h Distance 4.02 km</desc>
<time>2010-02-21T10:54:58.98</time>
<name>2902</name>
</trkpt>
<trkpt lat="48.948440" lon="8.655038">
<ele>318.5</ele>
<speed>0.6</speed>
<course>117.0</course>
<desc>Speed 0.6 km/h Distance 4.02 km</desc>
<time>2010-02-21T10:54:59.98</time>
<name>2903</name>
</trkpt>
<trkpt lat="48.948437" lon="8.655048">
<ele>318.0</ele>
<speed>0.6</speed>
<course>156.2</course>
<desc>Speed 0.6 km/h Distance 4.03 km</desc>
<time>2010-02-21T10:55:00.98</time>
<name>2904</name>
</trkpt>
<trkpt lat="48.948427" lon="8.655055">
<ele>316.0</ele>
<speed>1.0</speed>
<course>169.7</course>
<desc>Speed 1.0 km/h Distance 4.03 km</desc>
<time>2010-02-21T10:55:01.98</time>
<name>2905</name>
</trkpt>
<trkpt lat="48.948420" lon="8.655057">
<ele>314.5</ele>
<speed>1.5</speed>
<course>192.6</course>
<desc>Speed 1.5 km/h Distance 4.03 km</desc>
<time>2010-02-21T10:55:02.98</time>
<name>2906</name>
</trkpt>
<trkpt lat="48.948413" lon="8.655055">
<ele>313.5</ele>
<speed>1.5</speed>
<course>157.0</course>
<desc>Speed 1.5 km/h Distance 4.03 km</desc>
<time>2010-02-21T10:55:03.98</time>
<name>2907</name>
</trkpt>
<trkpt lat="48.948410" lon="8.655057">
<ele>313.0</ele>
<speed>0.2</speed>
<course>125.0</course>
<desc>Speed 0.2 km/h Distance 4.03 km</desc>
<time>2010-02-21T10:55:04.98</time>
<name>2908</name>
</trkpt>
<trkpt lat="48.948382" lon="8.655118">
<ele>313.0</ele>
<speed>2.3</speed>
<course>150.8</course>
<desc>Speed 2.3 km/h Distance 4.03 km</desc>
<time>2010-02-21T10:55:06.98</time>
<name>2909</name>
</trkpt>
<trkpt lat="48.948380" lon="8.655120">
<ele>313.0</ele>
<speed>0.7</speed>
<course>110.9</course>
<desc>Speed 0.7 km/h Distance 4.03 km</desc>
<time>2010-02-21T10:55:07.98</time>
<name>2910</name>
</trkpt>
<trkpt lat="48.948378" lon="8.655127">
<ele>312.5</ele>
<speed>0.8</speed>
<course>152.1</course>
<desc>Speed 0.8 km/h Distance 4.03 km</desc>
<time>2010-02-21T10:55:08.98</time>
<name>2911</name>
</trkpt>
<trkpt lat="48.948370" lon="8.655133">
<ele>312.5</ele>
<speed>1.9</speed>
<course>139.1</course>
<desc>Speed 1.9 km/h Distance 4.04 km</desc>
<time>2010-02-21T10:55:09.98</time>
<name>2912</name>
</trkpt>
<trkpt lat="48.948365" lon="8.655140">
<ele>313.5</ele>
<speed>1.4</speed>
<course>161.8</course>
<desc>Speed 1.4 km/h Distance 4.04 km</desc>
<time>2010-02-21T10:55:10.98</time>
<name>2913</name>
</trkpt>
<trkpt lat="48.948355" lon="8.655145">
<ele>313.5</ele>
<speed>1.8</speed>
<course>141.2</course>
<desc>Speed 1.8 km/h Distance 4.04 km</desc>
<time>2010-02-21T10:55:11.98</time>
<name>2914</name>
</trkpt>
<trkpt lat="48.948340" lon="8.655163">
<ele>312.0</ele>
<speed>1.8</speed>
<course>168.8</course>
<desc>Speed 1.8 km/h Distance 4.04 km</desc>
<time>2010-02-21T10:55:12.98</time>
<name>2915</name>
</trkpt>
<trkpt lat="48.948323" lon="8.655168">
<ele>312.0</ele>
<speed>1.5</speed>
<course>156.2</course>
<desc>Speed 1.5 km/h Distance 4.04 km</desc>
<time>2010-02-21T10:55:13.98</time>
<name>2916</name>
</trkpt>
<trkpt lat="48.948313" lon="8.655175">
<ele>313.0</ele>
<speed>2.6</speed>
<course>165.1</course>
<desc>Speed 2.6 km/h Distance 4.04 km</desc>
<time>2010-02-21T10:55:14.98</time>
<name>2917</name>
</trkpt>
<trkpt lat="48.948305" lon="8.655178">
<ele>313.0</ele>
<speed>2.3</speed>
<course>135.5</course>
<desc>Speed 2.3 km/h Distance 4.04 km</desc>
<time>2010-02-21T10:55:15.98</time>
<name>2918</name>
</trkpt>
<trkpt lat="48.948302" lon="8.655183">
<ele>313.5</ele>
<speed>1.3</speed>
<course>134.7</course>
<desc>Speed 1.3 km/h Distance 4.04 km</desc>
<time>2010-02-21T10:55:16.98</time>
<name>2919</name>
</trkpt>
<trkpt lat="48.948280" lon="8.655217">
<ele>312.5</ele>
<speed>1.1</speed>
<course>117.0</course>
<desc>Speed 1.1 km/h Distance 4.05 km</desc>
<time>2010-02-21T10:55:18.98</time>
<name>2920</name>
</trkpt>
<trkpt lat="48.948277" lon="8.655227">
<ele>313.5</ele>
<speed>1.9</speed>
<course>117.0</course>
<desc>Speed 1.9 km/h Distance 4.05 km</desc>
<time>2010-02-21T10:55:19.98</time>
<name>2921</name>
</trkpt>
<trkpt lat="48.948273" lon="8.655237">
<ele>315.5</ele>
<speed>1.5</speed>
<course>127.2</course>
<desc>Speed 1.5 km/h Distance 4.05 km</desc>
<time>2010-02-21T10:55:20.98</time>
<name>2922</name>
</trkpt>
<trkpt lat="48.948268" lon="8.655247">
<ele>317.0</ele>
<speed>2.2</speed>
<course>119.0</course>
<desc>Speed 2.2 km/h Distance 4.05 km</desc>
<time>2010-02-21T10:55:21.98</time>
<name>2923</name>
</trkpt>
<trkpt lat="48.948262" lon="8.655265">
<ele>318.0</ele>
<speed>2.0</speed>
<course>150.2</course>
<desc>Speed 2.0 km/h Distance 4.05 km</desc>
<time>2010-02-21T10:55:22.98</time>
<name>2924</name>
</trkpt>
<trkpt lat="48.948248" lon="8.655277">
<ele>319.0</ele>
<speed>2.4</speed>
<course>162.5</course>
<desc>Speed 2.4 km/h Distance 4.05 km</desc>
<time>2010-02-21T10:55:23.98</time>
<name>2925</name>
</trkpt>
<trkpt lat="48.948242" lon="8.655280">
<ele>319.0</ele>
<speed>2.3</speed>
<course>124.9</course>
<desc>Speed 2.3 km/h Distance 4.05 km</desc>
<time>2010-02-21T10:55:24.98</time>
<name>2926</name>
</trkpt>
<trkpt lat="48.948223" lon="8.655320">
<ele>319.0</ele>
<speed>1.5</speed>
<course>128.1</course>
<desc>Speed 1.5 km/h Distance 4.06 km</desc>
<time>2010-02-21T10:55:26.98</time>
<name>2927</name>
</trkpt>
<trkpt lat="48.948222" lon="8.655323">
<ele>319.0</ele>
<speed>1.1</speed>
<course>127.2</course>
<desc>Speed 1.1 km/h Distance 4.06 km</desc>
<time>2010-02-21T10:55:27.98</time>
<name>2928</name>
</trkpt>
<trkpt lat="48.948217" lon="8.655333">
<ele>319.0</ele>
<speed>2.5</speed>
<course>184.4</course>
<desc>Speed 2.5 km/h Distance 4.06 km</desc>
<time>2010-02-21T10:55:28.98</time>
<name>2929</name>
</trkpt>
<trkpt lat="48.948207" lon="8.655332">
<ele>320.5</ele>
<speed>3.7</speed>
<course>184.4</course>
<desc>Speed 3.7 km/h Distance 4.06 km</desc>
<time>2010-02-21T10:55:29.98</time>
<name>2930</name>
</trkpt>
<trkpt lat="48.948207" lon="8.655332">
<ele>320.5</ele>
<speed>0.5</speed>
<course>154.4</course>
<desc>Speed 0.5 km/h Distance 4.06 km</desc>
<time>2010-02-21T10:55:30.98</time>
<name>2931</name>
</trkpt>
<trkpt lat="48.948200" lon="8.655337">
<ele>320.5</ele>
<speed>1.4</speed>
<course>118.6</course>
<desc>Speed 1.4 km/h Distance 4.06 km</desc>
<time>2010-02-21T10:55:31.98</time>
<name>2932</name>
</trkpt>
<trkpt lat="48.948192" lon="8.655360">
<ele>320.5</ele>
<speed>2.2</speed>
<course>111.8</course>
<desc>Speed 2.2 km/h Distance 4.06 km</desc>
<time>2010-02-21T10:55:32.98</time>
<name>2933</name>
</trkpt>
<trkpt lat="48.948183" lon="8.655392">
<ele>321.0</ele>
<speed>2.1</speed>
<course>172.6</course>
<desc>Speed 2.1 km/h Distance 4.07 km</desc>
<time>2010-02-21T10:55:33.98</time>
<name>2934</name>
</trkpt>
<trkpt lat="48.948177" lon="8.655393">
<ele>321.5</ele>
<speed>3.5</speed>
<course>175.0</course>
<desc>Speed 3.5 km/h Distance 4.07 km</desc>
<time>2010-02-21T10:55:34.98</time>
<name>2935</name>
</trkpt>
<trkpt lat="48.948168" lon="8.655395">
<ele>322.0</ele>
<speed>1.5</speed>
<course>142.5</course>
<desc>Speed 1.5 km/h Distance 4.07 km</desc>
<time>2010-02-21T10:55:35.98</time>
<name>2936</name>
</trkpt>
<trkpt lat="48.948158" lon="8.655407">
<ele>323.0</ele>
<speed>2.2</speed>
<course>146.3</course>
<desc>Speed 2.2 km/h Distance 4.07 km</desc>
<time>2010-02-21T10:55:36.98</time>
<name>2937</name>
</trkpt>
<trkpt lat="48.948155" lon="8.655410">
<ele>322.5</ele>
<speed>1.0</speed>
<course>136.8</course>
<desc>Speed 1.0 km/h Distance 4.07 km</desc>
<time>2010-02-21T10:55:37.98</time>
<name>2938</name>
</trkpt>
<trkpt lat="48.948143" lon="8.655427">
<ele>321.0</ele>
<speed>0.7</speed>
<course>167.4</course>
<desc>Speed 0.7 km/h Distance 4.07 km</desc>
<time>2010-02-21T10:55:38.98</time>
<name>2939</name>
</trkpt>
<trkpt lat="48.948140" lon="8.655427">
<ele>320.5</ele>
<speed>1.0</speed>
<course>167.4</course>
<desc>Speed 1.0 km/h Distance 4.07 km</desc>
<time>2010-02-21T10:55:39.98</time>
<name>2940</name>
</trkpt>
<trkpt lat="48.948133" lon="8.655428">
<ele>319.5</ele>
<speed>1.2</speed>
<course>135.5</course>
<desc>Speed 1.2 km/h Distance 4.07 km</desc>
<time>2010-02-21T10:55:40.98</time>
<name>2941</name>
</trkpt>
<trkpt lat="48.948130" lon="8.655433">
<ele>319.0</ele>
<speed>1.1</speed>
<course>127.2</course>
<desc>Speed 1.1 km/h Distance 4.07 km</desc>
<time>2010-02-21T10:55:41.98</time>
<name>2942</name>
</trkpt>
<trkpt lat="48.948120" lon="8.655453">
<ele>319.0</ele>
<speed>0.7</speed>
<course>52.8</course>
<desc>Speed 0.7 km/h Distance 4.07 km</desc>
<time>2010-02-21T10:55:42.98</time>
<name>2943</name>
</trkpt>
<trkpt lat="48.948130" lon="8.655473">
<ele>319.0</ele>
<speed>5.5</speed>
<course>156.2</course>
<desc>Speed 5.5 km/h Distance 4.08 km</desc>
<time>2010-02-21T10:55:43.98</time>
<name>2944</name>
</trkpt>
<trkpt lat="48.948125" lon="8.655477">
<ele>318.0</ele>
<speed>1.7</speed>
<course>180.0</course>
<desc>Speed 1.7 km/h Distance 4.08 km</desc>
<time>2010-02-21T10:55:44.98</time>
<name>2945</name>
</trkpt>
<trkpt lat="48.948122" lon="8.655477">
<ele>318.5</ele>
<speed>0.9</speed>
<course>146.8</course>
<desc>Speed 0.9 km/h Distance 4.08 km</desc>
<time>2010-02-21T10:55:45.98</time>
<name>2946</name>
</trkpt>
<trkpt lat="48.948115" lon="8.655483">
<ele>318.0</ele>
<speed>0.8</speed>
<course>171.9</course>
<desc>Speed 0.8 km/h Distance 4.08 km</desc>
<time>2010-02-21T10:55:46.98</time>
<name>2947</name>
</trkpt>
<trkpt lat="48.948110" lon="8.655483">
<ele>317.5</ele>
<speed>0.6</speed>
<course>145.9</course>
<desc>Speed 0.6 km/h Distance 4.08 km</desc>
<time>2010-02-21T10:55:47.98</time>
<name>2948</name>
</trkpt>
<trkpt lat="48.948105" lon="8.655488">
<ele>316.5</ele>
<speed>1.0</speed>
<course>167.4</course>
<desc>Speed 1.0 km/h Distance 4.08 km</desc>
<time>2010-02-21T10:55:48.98</time>
<name>2949</name>
</trkpt>
<trkpt lat="48.948100" lon="8.655490">
<ele>317.5</ele>
<speed>1.9</speed>
<course>175.3</course>
<desc>Speed 1.9 km/h Distance 4.08 km</desc>
<time>2010-02-21T10:55:49.98</time>
<name>2950</name>
</trkpt>
<trkpt lat="48.948088" lon="8.655492">
<ele>318.0</ele>
<speed>3.2</speed>
<course>122.4</course>
<desc>Speed 3.2 km/h Distance 4.08 km</desc>
<time>2010-02-21T10:55:50.98</time>
<name>2951</name>
</trkpt>
<trkpt lat="48.948080" lon="8.655512">
<ele>318.5</ele>
<speed>3.2</speed>
<course>165.1</course>
<desc>Speed 3.2 km/h Distance 4.08 km</desc>
<time>2010-02-21T10:55:51.98</time>
<name>2952</name>
</trkpt>
<trkpt lat="48.948072" lon="8.655515">
<ele>318.0</ele>
<speed>1.1</speed>
<course>105.0</course>
<desc>Speed 1.1 km/h Distance 4.08 km</desc>
<time>2010-02-21T10:55:52.98</time>
<name>2953</name>
</trkpt>
<trkpt lat="48.948067" lon="8.655543">
<ele>320.0</ele>
<speed>1.7</speed>
<course>117.4</course>
<desc>Speed 1.7 km/h Distance 4.09 km</desc>
<time>2010-02-21T10:55:53.98</time>
<name>2954</name>
</trkpt>
<trkpt lat="48.948040" lon="8.655622">
<ele>325.5</ele>
<speed>0.9</speed>
<course>129.6</course>
<desc>Speed 0.9 km/h Distance 4.09 km</desc>
<time>2010-02-21T10:55:55.98</time>
<name>2955</name>
</trkpt>
<trkpt lat="48.947987" lon="8.655720">
<ele>322.5</ele>
<speed>1.8</speed>
<course>140.6</course>
<desc>Speed 1.8 km/h Distance 4.10 km</desc>
<time>2010-02-21T10:55:58.98</time>
<name>2956</name>
</trkpt>
<trkpt lat="48.947980" lon="8.655728">
<ele>322.0</ele>
<speed>1.6</speed>
<course>133.6</course>
<desc>Speed 1.6 km/h Distance 4.10 km</desc>
<time>2010-02-21T10:55:59.98</time>
<name>2957</name>
</trkpt>
<trkpt lat="48.947972" lon="8.655742">
<ele>321.5</ele>
<speed>1.8</speed>
<course>120.4</course>
<desc>Speed 1.8 km/h Distance 4.10 km</desc>
<time>2010-02-21T10:56:00.98</time>
<name>2958</name>
</trkpt>
<trkpt lat="48.947963" lon="8.655763">
<ele>322.5</ele>
<speed>2.9</speed>
<course>172.6</course>
<desc>Speed 2.9 km/h Distance 4.11 km</desc>
<time>2010-02-21T10:56:01.98</time>
<name>2959</name>
</trkpt>
<trkpt lat="48.947957" lon="8.655763">
<ele>321.5</ele>
<speed>1.4</speed>
<course>146.8</course>
<desc>Speed 1.4 km/h Distance 4.11 km</desc>
<time>2010-02-21T10:56:02.98</time>
<name>2960</name>
</trkpt>
<trkpt lat="48.947948" lon="8.655772">
<ele>321.5</ele>
<speed>2.3</speed>
<course>99.6</course>
<desc>Speed 2.3 km/h Distance 4.11 km</desc>
<time>2010-02-21T10:56:03.98</time>
<name>2961</name>
</trkpt>
<trkpt lat="48.947947" lon="8.655787">
<ele>323.5</ele>
<speed>1.4</speed>
<course>143.1</course>
<desc>Speed 1.4 km/h Distance 4.11 km</desc>
<time>2010-02-21T10:56:04.98</time>
<name>2962</name>
</trkpt>
<trkpt lat="48.947935" lon="8.655800">
<ele>322.0</ele>
<speed>5.0</speed>
<course>128.7</course>
<desc>Speed 5.0 km/h Distance 4.11 km</desc>
<time>2010-02-21T10:56:05.98</time>
<name>2963</name>
</trkpt>
<trkpt lat="48.947918" lon="8.655832">
<ele>321.5</ele>
<speed>1.4</speed>
<course>146.7</course>
<desc>Speed 1.4 km/h Distance 4.11 km</desc>
<time>2010-02-21T10:56:06.98</time>
<name>2964</name>
</trkpt>
<trkpt lat="48.947885" lon="8.655865">
<ele>317.5</ele>
<speed>1.0</speed>
<course>132.2</course>
<desc>Speed 1.0 km/h Distance 4.12 km</desc>
<time>2010-02-21T10:56:08.98</time>
<name>2965</name>
</trkpt>
<trkpt lat="48.947880" lon="8.655873">
<ele>317.5</ele>
<speed>2.0</speed>
<course>132.2</course>
<desc>Speed 2.0 km/h Distance 4.12 km</desc>
<time>2010-02-21T10:56:09.98</time>
<name>2966</name>
</trkpt>
<trkpt lat="48.947880" lon="8.655873">
<ele>317.5</ele>
<speed>0.5</speed>
<course>155.5</course>
<desc>Speed 0.5 km/h Distance 4.12 km</desc>
<time>2010-02-21T10:56:10.98</time>
<name>2967</name>
</trkpt>
<trkpt lat="48.947858" lon="8.655888">
<ele>316.0</ele>
<speed>1.5</speed>
<course>146.8</course>
<desc>Speed 1.5 km/h Distance 4.12 km</desc>
<time>2010-02-21T10:56:12.98</time>
<name>2968</name>
</trkpt>
<trkpt lat="48.947848" lon="8.655898">
<ele>314.5</ele>
<speed>1.5</speed>
<course>178.8</course>
<desc>Speed 1.5 km/h Distance 4.12 km</desc>
<time>2010-02-21T10:56:13.98</time>
<name>2969</name>
</trkpt>
<trkpt lat="48.947842" lon="8.655898">
<ele>312.5</ele>
<speed>1.0</speed>
<course>152.1</course>
<desc>Speed 1.0 km/h Distance 4.12 km</desc>
<time>2010-02-21T10:56:14.98</time>
<name>2970</name>
</trkpt>
<trkpt lat="48.947833" lon="8.655905">
<ele>313.0</ele>
<speed>2.5</speed>
<course>138.8</course>
<desc>Speed 2.5 km/h Distance 4.12 km</desc>
<time>2010-02-21T10:56:15.98</time>
<name>2971</name>
</trkpt>
<trkpt lat="48.947808" lon="8.655938">
<ele>312.0</ele>
<speed>1.3</speed>
<course>147.7</course>
<desc>Speed 1.3 km/h Distance 4.13 km</desc>
<time>2010-02-21T10:56:17.98</time>
<name>2972</name>
</trkpt>
<trkpt lat="48.947803" lon="8.655943">
<ele>311.0</ele>
<speed>0.3</speed>
<course>113.5</course>
<desc>Speed 0.3 km/h Distance 4.13 km</desc>
<time>2010-02-21T10:56:18.98</time>
<name>2973</name>
</trkpt>
<trkpt lat="48.947800" lon="8.655955">
<ele>311.0</ele>
<speed>1.1</speed>
<course>124.7</course>
<desc>Speed 1.1 km/h Distance 4.13 km</desc>
<time>2010-02-21T10:56:19.98</time>
<name>2974</name>
</trkpt>
<trkpt lat="48.947792" lon="8.655973">
<ele>312.5</ele>
<speed>1.4</speed>
<course>146.8</course>
<desc>Speed 1.4 km/h Distance 4.13 km</desc>
<time>2010-02-21T10:56:20.98</time>
<name>2975</name>
</trkpt>
<trkpt lat="48.947787" lon="8.655978">
<ele>312.5</ele>
<speed>1.5</speed>
<course>129.7</course>
<desc>Speed 1.5 km/h Distance 4.13 km</desc>
<time>2010-02-21T10:56:21.98</time>
<name>2976</name>
</trkpt>
<trkpt lat="48.947767" lon="8.656015">
<ele>312.0</ele>
<speed>1.7</speed>
<course>116.9</course>
<desc>Speed 1.7 km/h Distance 4.14 km</desc>
<time>2010-02-21T10:56:23.98</time>
<name>2977</name>
</trkpt>
<trkpt lat="48.947762" lon="8.656030">
<ele>312.5</ele>
<speed>1.9</speed>
<course>161.9</course>
<desc>Speed 1.9 km/h Distance 4.14 km</desc>
<time>2010-02-21T10:56:24.98</time>
<name>2978</name>
</trkpt>
<trkpt lat="48.947745" lon="8.656038">
<ele>315.0</ele>
<speed>1.2</speed>
<course>165.1</course>
<desc>Speed 1.2 km/h Distance 4.14 km</desc>
<time>2010-02-21T10:56:25.98</time>
<name>2979</name>
</trkpt>
<trkpt lat="48.947728" lon="8.656045">
<ele>318.0</ele>
<speed>1.3</speed>
<course>152.1</course>
<desc>Speed 1.3 km/h Distance 4.14 km</desc>
<time>2010-02-21T10:56:26.98</time>
<name>2980</name>
</trkpt>
<trkpt lat="48.947720" lon="8.656052">
<ele>318.5</ele>
<speed>2.3</speed>
<course>161.2</course>
<desc>Speed 2.3 km/h Distance 4.14 km</desc>
<time>2010-02-21T10:56:27.98</time>
<name>2981</name>
</trkpt>
<trkpt lat="48.947713" lon="8.656055">
<ele>319.5</ele>
<speed>1.6</speed>
<course>132.2</course>
<desc>Speed 1.6 km/h Distance 4.14 km</desc>
<time>2010-02-21T10:56:28.98</time>
<name>2982</name>
</trkpt>
<trkpt lat="48.947708" lon="8.656063">
<ele>320.0</ele>
<speed>2.3</speed>
<course>109.8</course>
<desc>Speed 2.3 km/h Distance 4.14 km</desc>
<time>2010-02-21T10:56:29.98</time>
<name>2983</name>
</trkpt>
<trkpt lat="48.947693" lon="8.656127">
<ele>322.0</ele>
<speed>2.0</speed>
<course>172.6</course>
<desc>Speed 2.0 km/h Distance 4.15 km</desc>
<time>2010-02-21T10:56:31.98</time>
<name>2984</name>
</trkpt>
<trkpt lat="48.947687" lon="8.656128">
<ele>321.0</ele>
<speed>1.4</speed>
<course>161.2</course>
<desc>Speed 1.4 km/h Distance 4.15 km</desc>
<time>2010-02-21T10:56:32.98</time>
<name>2985</name>
</trkpt>
<trkpt lat="48.947680" lon="8.656132">
<ele>321.0</ele>
<speed>1.9</speed>
<course>161.2</course>
<desc>Speed 1.9 km/h Distance 4.15 km</desc>
<time>2010-02-21T10:56:33.98</time>
<name>2986</name>
</trkpt>
<trkpt lat="48.947673" lon="8.656135">
<ele>321.0</ele>
<speed>1.7</speed>
<course>120.0</course>
<desc>Speed 1.7 km/h Distance 4.15 km</desc>
<time>2010-02-21T10:56:34.98</time>
<name>2987</name>
</trkpt>
<trkpt lat="48.947655" lon="8.656183">
<ele>321.5</ele>
<speed>1.9</speed>
<course>123.8</course>
<desc>Speed 1.9 km/h Distance 4.15 km</desc>
<time>2010-02-21T10:56:36.98</time>
<name>2988</name>
</trkpt>
<trkpt lat="48.947637" lon="8.656225">
<ele>322.0</ele>
<speed>2.6</speed>
<course>180.0</course>
<desc>Speed 2.6 km/h Distance 4.16 km</desc>
<time>2010-02-21T10:56:38.98</time>
<name>2989</name>
</trkpt>
<trkpt lat="48.947632" lon="8.656225">
<ele>321.5</ele>
<speed>1.4</speed>
<course>128.5</course>
<desc>Speed 1.4 km/h Distance 4.16 km</desc>
<time>2010-02-21T10:56:39.98</time>
<name>2990</name>
</trkpt>
<trkpt lat="48.947592" lon="8.656302">
<ele>322.5</ele>
<speed>4.0</speed>
<course>159.2</course>
<desc>Speed 4.0 km/h Distance 4.17 km</desc>
<time>2010-02-21T10:56:41.98</time>
<name>2991</name>
</trkpt>
<trkpt lat="48.947583" lon="8.656307">
<ele>322.0</ele>
<speed>2.5</speed>
<course>130.2</course>
<desc>Speed 2.5 km/h Distance 4.17 km</desc>
<time>2010-02-21T10:56:42.98</time>
<name>2992</name>
</trkpt>
<trkpt lat="48.947575" lon="8.656322">
<ele>322.0</ele>
<speed>2.4</speed>
<course>132.4</course>
<desc>Speed 2.4 km/h Distance 4.17 km</desc>
<time>2010-02-21T10:56:43.98</time>
<name>2993</name>
</trkpt>
<trkpt lat="48.947565" lon="8.656338">
<ele>321.5</ele>
<speed>1.7</speed>
<course>129.3</course>
<desc>Speed 1.7 km/h Distance 4.17 km</desc>
<time>2010-02-21T10:56:44.98</time>
<name>2994</name>
</trkpt>
<trkpt lat="48.947553" lon="8.656360">
<ele>321.0</ele>
<speed>2.3</speed>
<course>124.3</course>
<desc>Speed 2.3 km/h Distance 4.17 km</desc>
<time>2010-02-21T10:56:45.98</time>
<name>2995</name>
</trkpt>
<trkpt lat="48.947525" lon="8.656423">
<ele>321.0</ele>
<speed>1.2</speed>
<course>132.0</course>
<desc>Speed 1.2 km/h Distance 4.18 km</desc>
<time>2010-02-21T10:56:47.98</time>
<name>2996</name>
</trkpt>
<trkpt lat="48.947482" lon="8.656497">
<ele>320.0</ele>
<speed>1.3</speed>
<course>132.5</course>
<desc>Speed 1.3 km/h Distance 4.19 km</desc>
<time>2010-02-21T10:56:49.98</time>
<name>2997</name>
</trkpt>
<trkpt lat="48.947472" lon="8.656513">
<ele>319.5</ele>
<speed>1.3</speed>
<course>154.4</course>
<desc>Speed 1.3 km/h Distance 4.19 km</desc>
<time>2010-02-21T10:56:50.98</time>
<name>2998</name>
</trkpt>
<trkpt lat="48.947465" lon="8.656518">
<ele>320.0</ele>
<speed>2.1</speed>
<course>167.4</course>
<desc>Speed 2.1 km/h Distance 4.19 km</desc>
<time>2010-02-21T10:56:51.98</time>
<name>2999</name>
</trkpt>
<trkpt lat="48.947463" lon="8.656520">
<ele>320.0</ele>
<speed>0.5</speed>
<course>124.5</course>
<desc>Speed 0.5 km/h Distance 4.19 km</desc>
<time>2010-02-21T10:56:52.98</time>
<name>3000</name>
</trkpt>
<trkpt lat="48.947440" lon="8.656572">
<ele>322.0</ele>
<speed>2.0</speed>
<course>138.0</course>
<desc>Speed 2.0 km/h Distance 4.19 km</desc>
<time>2010-02-21T10:56:54.98</time>
<name>3001</name>
</trkpt>
<trkpt lat="48.947427" lon="8.656590">
<ele>322.0</ele>
<speed>3.6</speed>
<course>116.9</course>
<desc>Speed 3.6 km/h Distance 4.19 km</desc>
<time>2010-02-21T10:56:55.98</time>
<name>3002</name>
</trkpt>
<trkpt lat="48.947418" lon="8.656615">
<ele>321.5</ele>
<speed>1.5</speed>
<course>129.3</course>
<desc>Speed 1.5 km/h Distance 4.20 km</desc>
<time>2010-02-21T10:56:56.98</time>
<name>3003</name>
</trkpt>
<trkpt lat="48.947407" lon="8.656637">
<ele>323.0</ele>
<speed>0.9</speed>
<course>138.6</course>
<desc>Speed 0.9 km/h Distance 4.20 km</desc>
<time>2010-02-21T10:56:57.98</time>
<name>3004</name>
</trkpt>
<trkpt lat="48.947402" lon="8.656643">
<ele>323.0</ele>
<speed>1.3</speed>
<course>149.7</course>
<desc>Speed 1.3 km/h Distance 4.20 km</desc>
<time>2010-02-21T10:56:58.98</time>
<name>3005</name>
</trkpt>
<trkpt lat="48.947387" lon="8.656657">
<ele>324.5</ele>
<speed>2.8</speed>
<course>140.6</course>
<desc>Speed 2.8 km/h Distance 4.20 km</desc>
<time>2010-02-21T10:56:59.98</time>
<name>3006</name>
</trkpt>
<trkpt lat="48.947380" lon="8.656665">
<ele>324.5</ele>
<speed>3.2</speed>
<course>154.6</course>
<desc>Speed 3.2 km/h Distance 4.20 km</desc>
<time>2010-02-21T10:57:00.98</time>
<name>3007</name>
</trkpt>
<trkpt lat="48.947375" lon="8.656668">
<ele>324.0</ele>
<speed>1.8</speed>
<course>135.5</course>
<desc>Speed 1.8 km/h Distance 4.20 km</desc>
<time>2010-02-21T10:57:01.98</time>
<name>3008</name>
</trkpt>
<trkpt lat="48.947368" lon="8.656678">
<ele>323.5</ele>
<speed>1.9</speed>
<course>178.8</course>
<desc>Speed 1.9 km/h Distance 4.20 km</desc>
<time>2010-02-21T10:57:02.98</time>
<name>3009</name>
</trkpt>
<trkpt lat="48.947362" lon="8.656678">
<ele>323.0</ele>
<speed>1.6</speed>
<course>135.5</course>
<desc>Speed 1.6 km/h Distance 4.20 km</desc>
<time>2010-02-21T10:57:03.98</time>
<name>3010</name>
</trkpt>
<trkpt lat="48.947352" lon="8.656693">
<ele>322.5</ele>
<speed>1.5</speed>
<course>146.3</course>
<desc>Speed 1.5 km/h Distance 4.21 km</desc>
<time>2010-02-21T10:57:05.01</time>
<name>3011</name>
</trkpt>
<trkpt lat="48.947348" lon="8.656697">
<ele>322.5</ele>
<speed>1.5</speed>
<course>127.0</course>
<desc>Speed 1.5 km/h Distance 4.21 km</desc>
<time>2010-02-21T10:57:06.01</time>
<name>3012</name>
</trkpt>
<trkpt lat="48.947345" lon="8.656703">
<ele>323.0</ele>
<speed>1.4</speed>
<course>137.4</course>
<desc>Speed 1.4 km/h Distance 4.21 km</desc>
<time>2010-02-21T10:57:07.01</time>
<name>3013</name>
</trkpt>
<trkpt lat="48.947337" lon="8.656715">
<ele>323.0</ele>
<speed>2.5</speed>
<course>146.8</course>
<desc>Speed 2.5 km/h Distance 4.21 km</desc>
<time>2010-02-21T10:57:08.01</time>
<name>3014</name>
</trkpt>
<trkpt lat="48.947332" lon="8.656720">
<ele>323.0</ele>
<speed>2.1</speed>
<course>152.1</course>
<desc>Speed 2.1 km/h Distance 4.21 km</desc>
<time>2010-02-21T10:57:09.01</time>
<name>3015</name>
</trkpt>
<trkpt lat="48.947323" lon="8.656727">
<ele>323.5</ele>
<speed>2.7</speed>
<course>132.6</course>
<desc>Speed 2.7 km/h Distance 4.21 km</desc>
<time>2010-02-21T10:57:10.01</time>
<name>3016</name>
</trkpt>
<trkpt lat="48.947318" lon="8.656735">
<ele>323.0</ele>
<speed>1.8</speed>
<course>157.8</course>
<desc>Speed 1.8 km/h Distance 4.21 km</desc>
<time>2010-02-21T10:57:11.01</time>
<name>3017</name>
</trkpt>
<trkpt lat="48.947313" lon="8.656738">
<ele>322.0</ele>
<speed>1.8</speed>
<course>156.2</course>
<desc>Speed 1.8 km/h Distance 4.21 km</desc>
<time>2010-02-21T10:57:12.01</time>
<name>3018</name>
</trkpt>
<trkpt lat="48.947308" lon="8.656742">
<ele>322.0</ele>
<speed>1.5</speed>
<course>231.9</course>
<desc>Speed 1.5 km/h Distance 4.21 km</desc>
<time>2010-02-21T10:57:13.01</time>
<name>3019</name>
</trkpt>
<trkpt lat="48.947307" lon="8.656738">
<ele>321.5</ele>
<speed>0.8</speed>
<course>172.6</course>
<desc>Speed 0.8 km/h Distance 4.21 km</desc>
<time>2010-02-21T10:57:14.01</time>
<name>3020</name>
</trkpt>
<trkpt lat="48.947300" lon="8.656738">
<ele>321.5</ele>
<speed>1.8</speed>
<course>153.6</course>
<desc>Speed 1.8 km/h Distance 4.21 km</desc>
<time>2010-02-21T10:57:15.01</time>
<name>3021</name>
</trkpt>
<trkpt lat="48.947293" lon="8.656743">
<ele>322.0</ele>
<speed>1.9</speed>
<course>127.3</course>
<desc>Speed 1.9 km/h Distance 4.21 km</desc>
<time>2010-02-21T10:57:16.01</time>
<name>3022</name>
</trkpt>
<trkpt lat="48.947273" lon="8.656783">
<ele>322.0</ele>
<speed>1.9</speed>
<course>146.8</course>
<desc>Speed 1.9 km/h Distance 4.22 km</desc>
<time>2010-02-21T10:57:18.01</time>
<name>3023</name>
</trkpt>
<trkpt lat="48.947267" lon="8.656790">
<ele>321.0</ele>
<speed>2.7</speed>
<course>139.1</course>
<desc>Speed 2.7 km/h Distance 4.22 km</desc>
<time>2010-02-21T10:57:19.01</time>
<name>3024</name>
</trkpt>
<trkpt lat="48.947262" lon="8.656797">
<ele>321.0</ele>
<speed>1.9</speed>
<course>146.3</course>
<desc>Speed 1.9 km/h Distance 4.22 km</desc>
<time>2010-02-21T10:57:20.01</time>
<name>3025</name>
</trkpt>
<trkpt lat="48.947258" lon="8.656800">
<ele>322.5</ele>
<speed>3.7</speed>
<course>137.4</course>
<desc>Speed 3.7 km/h Distance 4.22 km</desc>
<time>2010-02-21T10:57:21.01</time>
<name>3026</name>
</trkpt>
<trkpt lat="48.947250" lon="8.656812">
<ele>325.0</ele>
<speed>1.1</speed>
<course>130.5</course>
<desc>Speed 1.1 km/h Distance 4.22 km</desc>
<time>2010-02-21T10:57:22.01</time>
<name>3027</name>
</trkpt>
<trkpt lat="48.947227" lon="8.656853">
<ele>327.5</ele>
<speed>2.8</speed>
<course>158.5</course>
<desc>Speed 2.8 km/h Distance 4.23 km</desc>
<time>2010-02-21T10:57:24.01</time>
<name>3028</name>
</trkpt>
<trkpt lat="48.947218" lon="8.656858">
<ele>327.5</ele>
<speed>2.3</speed>
<course>141.9</course>
<desc>Speed 2.3 km/h Distance 4.23 km</desc>
<time>2010-02-21T10:57:25.01</time>
<name>3029</name>
</trkpt>
<trkpt lat="48.947210" lon="8.656868">
<ele>328.5</ele>
<speed>3.3</speed>
<course>138.0</course>
<desc>Speed 3.3 km/h Distance 4.23 km</desc>
<time>2010-02-21T10:57:26.01</time>
<name>3030</name>
</trkpt>
<trkpt lat="48.947197" lon="8.656887">
<ele>329.5</ele>
<speed>5.1</speed>
<course>153.8</course>
<desc>Speed 5.1 km/h Distance 4.23 km</desc>
<time>2010-02-21T10:57:27.01</time>
<name>3031</name>
</trkpt>
<trkpt lat="48.947183" lon="8.656897">
<ele>329.5</ele>
<speed>2.6</speed>
<course>158.5</course>
<desc>Speed 2.6 km/h Distance 4.23 km</desc>
<time>2010-02-21T10:57:28.01</time>
<name>3032</name>
</trkpt>
<trkpt lat="48.947175" lon="8.656902">
<ele>329.5</ele>
<speed>3.0</speed>
<course>139.8</course>
<desc>Speed 3.0 km/h Distance 4.23 km</desc>
<time>2010-02-21T10:57:29.01</time>
<name>3033</name>
</trkpt>
<trkpt lat="48.947163" lon="8.656917">
<ele>331.0</ele>
<speed>2.2</speed>
<course>135.5</course>
<desc>Speed 2.2 km/h Distance 4.23 km</desc>
<time>2010-02-21T10:57:30.01</time>
<name>3034</name>
</trkpt>
<trkpt lat="48.947160" lon="8.656922">
<ele>331.5</ele>
<speed>1.8</speed>
<course>145.9</course>
<desc>Speed 1.8 km/h Distance 4.23 km</desc>
<time>2010-02-21T10:57:31.01</time>
<name>3035</name>
</trkpt>
<trkpt lat="48.947155" lon="8.656927">
<ele>331.5</ele>
<speed>2.0</speed>
<course>146.3</course>
<desc>Speed 2.0 km/h Distance 4.23 km</desc>
<time>2010-02-21T10:57:32.01</time>
<name>3036</name>
</trkpt>
<trkpt lat="48.947148" lon="8.656933">
<ele>332.0</ele>
<speed>1.3</speed>
<course>133.6</course>
<desc>Speed 1.3 km/h Distance 4.24 km</desc>
<time>2010-02-21T10:57:33.01</time>
<name>3037</name>
</trkpt>
<trkpt lat="48.947140" lon="8.656947">
<ele>333.5</ele>
<speed>2.6</speed>
<course>122.1</course>
<desc>Speed 2.6 km/h Distance 4.24 km</desc>
<time>2010-02-21T10:57:34.01</time>
<name>3038</name>
</trkpt>
<trkpt lat="48.947117" lon="8.657003">
<ele>335.5</ele>
<speed>1.8</speed>
<course>140.6</course>
<desc>Speed 1.8 km/h Distance 4.24 km</desc>
<time>2010-02-21T10:57:36.01</time>
<name>3039</name>
</trkpt>
<trkpt lat="48.947110" lon="8.657012">
<ele>335.5</ele>
<speed>1.9</speed>
<course>151.4</course>
<desc>Speed 1.9 km/h Distance 4.24 km</desc>
<time>2010-02-21T10:57:37.01</time>
<name>3040</name>
</trkpt>
<trkpt lat="48.947100" lon="8.657020">
<ele>335.0</ele>
<speed>1.6</speed>
<course>153.6</course>
<desc>Speed 1.6 km/h Distance 4.24 km</desc>
<time>2010-02-21T10:57:38.01</time>
<name>3041</name>
</trkpt>
<trkpt lat="48.947093" lon="8.657025">
<ele>335.0</ele>
<speed>2.1</speed>
<course>134.4</course>
<desc>Speed 2.1 km/h Distance 4.24 km</desc>
<time>2010-02-21T10:57:39.01</time>
<name>3042</name>
</trkpt>
<trkpt lat="48.947078" lon="8.657048">
<ele>334.5</ele>
<speed>4.4</speed>
<course>123.1</course>
<desc>Speed 4.4 km/h Distance 4.25 km</desc>
<time>2010-02-21T10:57:40.01</time>
<name>3043</name>
</trkpt>
<trkpt lat="48.947048" lon="8.657118">
<ele>333.5</ele>
<speed>4.2</speed>
<course>156.3</course>
<desc>Speed 4.2 km/h Distance 4.25 km</desc>
<time>2010-02-21T10:57:42.01</time>
<name>3044</name>
</trkpt>
<trkpt lat="48.947033" lon="8.657128">
<ele>331.5</ele>
<speed>5.3</speed>
<course>127.3</course>
<desc>Speed 5.3 km/h Distance 4.26 km</desc>
<time>2010-02-21T10:57:43.01</time>
<name>3045</name>
</trkpt>
<trkpt lat="48.947020" lon="8.657155">
<ele>331.0</ele>
<speed>4.0</speed>
<course>134.1</course>
<desc>Speed 4.0 km/h Distance 4.26 km</desc>
<time>2010-02-21T10:57:44.01</time>
<name>3046</name>
</trkpt>
<trkpt lat="48.947008" lon="8.657173">
<ele>332.0</ele>
<speed>2.3</speed>
<course>120.6</course>
<desc>Speed 2.3 km/h Distance 4.26 km</desc>
<time>2010-02-21T10:57:45.01</time>
<name>3047</name>
</trkpt>
<trkpt lat="48.946997" lon="8.657203">
<ele>332.0</ele>
<speed>2.2</speed>
<course>125.4</course>
<desc>Speed 2.2 km/h Distance 4.26 km</desc>
<time>2010-02-21T10:57:46.01</time>
<name>3048</name>
</trkpt>
<trkpt lat="48.946962" lon="8.657278">
<ele>333.0</ele>
<speed>3.5</speed>
<course>137.4</course>
<desc>Speed 3.5 km/h Distance 4.27 km</desc>
<time>2010-02-21T10:57:48.01</time>
<name>3049</name>
</trkpt>
<trkpt lat="48.946953" lon="8.657290">
<ele>333.5</ele>
<speed>2.4</speed>
<course>131.1</course>
<desc>Speed 2.4 km/h Distance 4.27 km</desc>
<time>2010-02-21T10:57:49.01</time>
<name>3050</name>
</trkpt>
<trkpt lat="48.946947" lon="8.657302">
<ele>334.5</ele>
<speed>1.3</speed>
<course>127.3</course>
<desc>Speed 1.3 km/h Distance 4.27 km</desc>
<time>2010-02-21T10:57:50.01</time>
<name>3051</name>
</trkpt>
<trkpt lat="48.946937" lon="8.657322">
<ele>335.5</ele>
<speed>2.9</speed>
<course>165.1</course>
<desc>Speed 2.9 km/h Distance 4.27 km</desc>
<time>2010-02-21T10:57:51.01</time>
<name>3052</name>
</trkpt>
<trkpt lat="48.946928" lon="8.657325">
<ele>335.0</ele>
<speed>2.5</speed>
<course>187.4</course>
<desc>Speed 2.5 km/h Distance 4.27 km</desc>
<time>2010-02-21T10:57:52.01</time>
<name>3053</name>
</trkpt>
<trkpt lat="48.946922" lon="8.657323">
<ele>334.0</ele>
<speed>1.7</speed>
<course>152.1</course>
<desc>Speed 1.7 km/h Distance 4.27 km</desc>
<time>2010-02-21T10:57:53.01</time>
<name>3054</name>
</trkpt>
<trkpt lat="48.946913" lon="8.657330">
<ele>333.5</ele>
<speed>3.2</speed>
<course>146.8</course>
<desc>Speed 3.2 km/h Distance 4.28 km</desc>
<time>2010-02-21T10:57:54.01</time>
<name>3055</name>
</trkpt>
<trkpt lat="48.946907" lon="8.657337">
<ele>334.0</ele>
<speed>2.7</speed>
<course>142.7</course>
<desc>Speed 2.7 km/h Distance 4.28 km</desc>
<time>2010-02-21T10:57:55.01</time>
<name>3056</name>
</trkpt>
<trkpt lat="48.946897" lon="8.657348">
<ele>334.5</ele>
<speed>3.7</speed>
<course>146.8</course>
<desc>Speed 3.7 km/h Distance 4.28 km</desc>
<time>2010-02-21T10:57:56.01</time>
<name>3057</name>
</trkpt>
<trkpt lat="48.946888" lon="8.657357">
<ele>334.5</ele>
<speed>3.3</speed>
<course>151.4</course>
<desc>Speed 3.3 km/h Distance 4.28 km</desc>
<time>2010-02-21T10:57:57.01</time>
<name>3058</name>
</trkpt>
<trkpt lat="48.946878" lon="8.657365">
<ele>334.5</ele>
<speed>2.8</speed>
<course>110.9</course>
<desc>Speed 2.8 km/h Distance 4.28 km</desc>
<time>2010-02-21T10:57:58.01</time>
<name>3059</name>
</trkpt>
<trkpt lat="48.946877" lon="8.657372">
<ele>336.5</ele>
<speed>1.3</speed>
<course>146.8</course>
<desc>Speed 1.3 km/h Distance 4.28 km</desc>
<time>2010-02-21T10:57:59.01</time>
<name>3060</name>
</trkpt>
<trkpt lat="48.946868" lon="8.657380">
<ele>336.5</ele>
<speed>2.4</speed>
<course>100.8</course>
<desc>Speed 2.4 km/h Distance 4.28 km</desc>
<time>2010-02-21T10:58:00.01</time>
<name>3061</name>
</trkpt>
<trkpt lat="48.946867" lon="8.657393">
<ele>338.5</ele>
<speed>1.2</speed>
<course>143.5</course>
<desc>Speed 1.2 km/h Distance 4.28 km</desc>
<time>2010-02-21T10:58:01.01</time>
<name>3062</name>
</trkpt>
<trkpt lat="48.946853" lon="8.657408">
<ele>338.0</ele>
<speed>4.1</speed>
<course>117.4</course>
<desc>Speed 4.1 km/h Distance 4.28 km</desc>
<time>2010-02-21T10:58:02.01</time>
<name>3063</name>
</trkpt>
<trkpt lat="48.946852" lon="8.657413">
<ele>339.0</ele>
<speed>0.8</speed>
<course>143.1</course>
<desc>Speed 0.8 km/h Distance 4.29 km</desc>
<time>2010-02-21T10:58:03.01</time>
<name>3064</name>
</trkpt>
<trkpt lat="48.946840" lon="8.657427">
<ele>337.5</ele>
<speed>3.2</speed>
<course>123.3</course>
<desc>Speed 3.2 km/h Distance 4.29 km</desc>
<time>2010-02-21T10:58:04.01</time>
<name>3065</name>
</trkpt>
<trkpt lat="48.946835" lon="8.657438">
<ele>337.5</ele>
<speed>1.9</speed>
<course>120.4</course>
<desc>Speed 1.9 km/h Distance 4.29 km</desc>
<time>2010-02-21T10:58:05.01</time>
<name>3066</name>
</trkpt>
<trkpt lat="48.946827" lon="8.657460">
<ele>337.0</ele>
<speed>3.7</speed>
<course>138.8</course>
<desc>Speed 3.7 km/h Distance 4.29 km</desc>
<time>2010-02-21T10:58:06.01</time>
<name>3067</name>
</trkpt>
<trkpt lat="48.946817" lon="8.657473">
<ele>337.0</ele>
<speed>4.7</speed>
<course>90.0</course>
<desc>Speed 4.7 km/h Distance 4.29 km</desc>
<time>2010-02-21T10:58:07.01</time>
<name>3068</name>
</trkpt>
<trkpt lat="48.946817" lon="8.657485">
<ele>339.0</ele>
<speed>2.7</speed>
<course>146.8</course>
<desc>Speed 2.7 km/h Distance 4.29 km</desc>
<time>2010-02-21T10:58:08.01</time>
<name>3069</name>
</trkpt>
<trkpt lat="48.946807" lon="8.657495">
<ele>338.0</ele>
<speed>2.7</speed>
<course>114.1</course>
<desc>Speed 2.7 km/h Distance 4.29 km</desc>
<time>2010-02-21T10:58:09.01</time>
<name>3070</name>
</trkpt>
<trkpt lat="48.946798" lon="8.657523">
<ele>338.5</ele>
<speed>3.9</speed>
<course>119.3</course>
<desc>Speed 3.9 km/h Distance 4.30 km</desc>
<time>2010-02-21T10:58:10.01</time>
<name>3071</name>
</trkpt>
<trkpt lat="48.946787" lon="8.657555">
<ele>339.0</ele>
<speed>3.8</speed>
<course>110.8</course>
<desc>Speed 3.8 km/h Distance 4.30 km</desc>
<time>2010-02-21T10:58:11.01</time>
<name>3072</name>
</trkpt>
<trkpt lat="48.946780" lon="8.657582">
<ele>340.5</ele>
<speed>2.4</speed>
<course>143.1</course>
<desc>Speed 2.4 km/h Distance 4.30 km</desc>
<time>2010-02-21T10:58:12.01</time>
<name>3073</name>
</trkpt>
<trkpt lat="48.946768" lon="8.657595">
<ele>340.0</ele>
<speed>2.7</speed>
<course>146.8</course>
<desc>Speed 2.7 km/h Distance 4.30 km</desc>
<time>2010-02-21T10:58:13.01</time>
<name>3074</name>
</trkpt>
<trkpt lat="48.946758" lon="8.657605">
<ele>340.0</ele>
<speed>3.6</speed>
<course>130.3</course>
<desc>Speed 3.6 km/h Distance 4.30 km</desc>
<time>2010-02-21T10:58:14.01</time>
<name>3075</name>
</trkpt>
<trkpt lat="48.946750" lon="8.657620">
<ele>339.5</ele>
<speed>3.1</speed>
<course>151.4</course>
<desc>Speed 3.1 km/h Distance 4.30 km</desc>
<time>2010-02-21T10:58:15.01</time>
<name>3076</name>
</trkpt>
<trkpt lat="48.946740" lon="8.657628">
<ele>339.5</ele>
<speed>2.8</speed>
<course>151.7</course>
<desc>Speed 2.8 km/h Distance 4.31 km</desc>
<time>2010-02-21T10:58:16.01</time>
<name>3077</name>
</trkpt>
<trkpt lat="48.946730" lon="8.657637">
<ele>339.5</ele>
<speed>1.4</speed>
<course>138.8</course>
<desc>Speed 1.4 km/h Distance 4.31 km</desc>
<time>2010-02-21T10:58:17.01</time>
<name>3078</name>
</trkpt>
<trkpt lat="48.946720" lon="8.657650">
<ele>339.5</ele>
<speed>3.0</speed>
<course>133.6</course>
<desc>Speed 3.0 km/h Distance 4.31 km</desc>
<time>2010-02-21T10:58:18.01</time>
<name>3079</name>
</trkpt>
<trkpt lat="48.946712" lon="8.657663">
<ele>340.0</ele>
<speed>2.8</speed>
<course>123.7</course>
<desc>Speed 2.8 km/h Distance 4.31 km</desc>
<time>2010-02-21T10:58:19.01</time>
<name>3080</name>
</trkpt>
<trkpt lat="48.946700" lon="8.657690">
<ele>340.0</ele>
<speed>7.1</speed>
<course>131.6</course>
<desc>Speed 7.1 km/h Distance 4.31 km</desc>
<time>2010-02-21T10:58:20.01</time>
<name>3081</name>
</trkpt>
<trkpt lat="48.946688" lon="8.657710">
<ele>338.5</ele>
<speed>5.5</speed>
<course>108.7</course>
<desc>Speed 5.5 km/h Distance 4.31 km</desc>
<time>2010-02-21T10:58:21.01</time>
<name>3082</name>
</trkpt>
<trkpt lat="48.946685" lon="8.657725">
<ele>338.5</ele>
<speed>0.5</speed>
<course>146.8</course>
<desc>Speed 0.5 km/h Distance 4.32 km</desc>
<time>2010-02-21T10:58:22.01</time>
<name>3083</name>
</trkpt>
<trkpt lat="48.946678" lon="8.657732">
<ele>339.0</ele>
<speed>1.6</speed>
<course>147.7</course>
<desc>Speed 1.6 km/h Distance 4.32 km</desc>
<time>2010-02-21T10:58:23.01</time>
<name>3084</name>
</trkpt>
<trkpt lat="48.946673" lon="8.657737">
<ele>339.5</ele>
<speed>2.6</speed>
<course>135.5</course>
<desc>Speed 2.6 km/h Distance 4.32 km</desc>
<time>2010-02-21T10:58:24.01</time>
<name>3085</name>
</trkpt>
<trkpt lat="48.946667" lon="8.657747">
<ele>339.0</ele>
<speed>3.2</speed>
<course>129.7</course>
<desc>Speed 3.2 km/h Distance 4.32 km</desc>
<time>2010-02-21T10:58:25.01</time>
<name>3086</name>
</trkpt>
<trkpt lat="48.946657" lon="8.657765">
<ele>339.5</ele>
<speed>3.1</speed>
<course>166.5</course>
<desc>Speed 3.1 km/h Distance 4.32 km</desc>
<time>2010-02-21T10:58:26.01</time>
<name>3087</name>
</trkpt>
<trkpt lat="48.946643" lon="8.657770">
<ele>339.5</ele>
<speed>3.8</speed>
<course>120.6</course>
<desc>Speed 3.8 km/h Distance 4.32 km</desc>
<time>2010-02-21T10:58:27.01</time>
<name>3088</name>
</trkpt>
<trkpt lat="48.946620" lon="8.657830">
<ele>338.5</ele>
<speed>2.6</speed>
<course>142.7</course>
<desc>Speed 2.6 km/h Distance 4.33 km</desc>
<time>2010-02-21T10:58:29.01</time>
<name>3089</name>
</trkpt>
<trkpt lat="48.946610" lon="8.657842">
<ele>338.0</ele>
<speed>3.8</speed>
<course>138.7</course>
<desc>Speed 3.8 km/h Distance 4.33 km</desc>
<time>2010-02-21T10:58:30.01</time>
<name>3090</name>
</trkpt>
<trkpt lat="48.946600" lon="8.657855">
<ele>337.5</ele>
<speed>3.7</speed>
<course>138.7</course>
<desc>Speed 3.7 km/h Distance 4.33 km</desc>
<time>2010-02-21T10:58:31.01</time>
<name>3091</name>
</trkpt>
<trkpt lat="48.946590" lon="8.657868">
<ele>338.0</ele>
<speed>4.3</speed>
<course>135.5</course>
<desc>Speed 4.3 km/h Distance 4.33 km</desc>
<time>2010-02-21T10:58:32.01</time>
<name>3092</name>
</trkpt>
<trkpt lat="48.946580" lon="8.657883">
<ele>338.0</ele>
<speed>4.5</speed>
<course>142.8</course>
<desc>Speed 4.5 km/h Distance 4.33 km</desc>
<time>2010-02-21T10:58:33.01</time>
<name>3093</name>
</trkpt>
<trkpt lat="48.946570" lon="8.657895">
<ele>338.5</ele>
<speed>3.6</speed>
<course>146.7</course>
<desc>Speed 3.6 km/h Distance 4.33 km</desc>
<time>2010-02-21T10:58:34.01</time>
<name>3094</name>
</trkpt>
<trkpt lat="48.946558" lon="8.657907">
<ele>338.5</ele>
<speed>3.8</speed>
<course>141.6</course>
<desc>Speed 3.8 km/h Distance 4.34 km</desc>
<time>2010-02-21T10:58:35.01</time>
<name>3095</name>
</trkpt>
<trkpt lat="48.946550" lon="8.657917">
<ele>338.0</ele>
<speed>3.6</speed>
<course>146.6</course>
<desc>Speed 3.6 km/h Distance 4.34 km</desc>
<time>2010-02-21T10:58:36.01</time>
<name>3096</name>
</trkpt>
<trkpt lat="48.946538" lon="8.657928">
<ele>337.5</ele>
<speed>3.4</speed>
<course>152.1</course>
<desc>Speed 3.4 km/h Distance 4.34 km</desc>
<time>2010-02-21T10:58:37.01</time>
<name>3097</name>
</trkpt>
<trkpt lat="48.946530" lon="8.657935">
<ele>337.5</ele>
<speed>2.2</speed>
<course>121.4</course>
<desc>Speed 2.2 km/h Distance 4.34 km</desc>
<time>2010-02-21T10:58:38.01</time>
<name>3098</name>
</trkpt>
<trkpt lat="48.946527" lon="8.657943">
<ele>339.0</ele>
<speed>2.0</speed>
<course>159.2</course>
<desc>Speed 2.0 km/h Distance 4.34 km</desc>
<time>2010-02-21T10:58:39.01</time>
<name>3099</name>
</trkpt>
<trkpt lat="48.946518" lon="8.657948">
<ele>339.5</ele>
<speed>2.6</speed>
<course>156.6</course>
<desc>Speed 2.6 km/h Distance 4.34 km</desc>
<time>2010-02-21T10:58:40.01</time>
<name>3100</name>
</trkpt>
<trkpt lat="48.946508" lon="8.657955">
<ele>339.0</ele>
<speed>2.7</speed>
<course>137.4</course>
<desc>Speed 2.7 km/h Distance 4.34 km</desc>
<time>2010-02-21T10:58:41.01</time>
<name>3101</name>
</trkpt>
<trkpt lat="48.946500" lon="8.657967">
<ele>339.5</ele>
<speed>3.7</speed>
<course>127.3</course>
<desc>Speed 3.7 km/h Distance 4.34 km</desc>
<time>2010-02-21T10:58:42.01</time>
<name>3102</name>
</trkpt>
<trkpt lat="48.946493" lon="8.657980">
<ele>340.5</ele>
<speed>2.5</speed>
<course>152.1</course>
<desc>Speed 2.5 km/h Distance 4.34 km</desc>
<time>2010-02-21T10:58:43.01</time>
<name>3103</name>
</trkpt>
<trkpt lat="48.946485" lon="8.657987">
<ele>341.0</ele>
<speed>3.5</speed>
<course>118.3</course>
<desc>Speed 3.5 km/h Distance 4.35 km</desc>
<time>2010-02-21T10:58:44.01</time>
<name>3104</name>
</trkpt>
<trkpt lat="48.946475" lon="8.658015">
<ele>341.0</ele>
<speed>7.3</speed>
<course>227.8</course>
<desc>Speed 7.3 km/h Distance 4.35 km</desc>
<time>2010-02-21T10:58:45.01</time>
<name>3105</name>
</trkpt>
<trkpt lat="48.946470" lon="8.658007">
<ele>340.5</ele>
<speed>3.2</speed>
<course>139.8</course>
<desc>Speed 3.2 km/h Distance 4.35 km</desc>
<time>2010-02-21T10:58:46.01</time>
<name>3106</name>
</trkpt>
<trkpt lat="48.946458" lon="8.658022">
<ele>340.5</ele>
<speed>3.7</speed>
<course>146.8</course>
<desc>Speed 3.7 km/h Distance 4.35 km</desc>
<time>2010-02-21T10:58:47.01</time>
<name>3107</name>
</trkpt>
<trkpt lat="48.946448" lon="8.658032">
<ele>340.0</ele>
<speed>4.0</speed>
<course>156.2</course>
<desc>Speed 4.0 km/h Distance 4.35 km</desc>
<time>2010-02-21T10:58:48.01</time>
<name>3108</name>
</trkpt>
<trkpt lat="48.946438" lon="8.658038">
<ele>340.0</ele>
<speed>2.7</speed>
<course>146.8</course>
<desc>Speed 2.7 km/h Distance 4.35 km</desc>
<time>2010-02-21T10:58:49.01</time>
<name>3109</name>
</trkpt>
<trkpt lat="48.946430" lon="8.658047">
<ele>340.5</ele>
<speed>2.7</speed>
<course>151.4</course>
<desc>Speed 2.7 km/h Distance 4.35 km</desc>
<time>2010-02-21T10:58:50.01</time>
<name>3110</name>
</trkpt>
<trkpt lat="48.946420" lon="8.658055">
<ele>341.0</ele>
<speed>3.0</speed>
<course>152.1</course>
<desc>Speed 3.0 km/h Distance 4.36 km</desc>
<time>2010-02-21T10:58:51.01</time>
<name>3111</name>
</trkpt>
<trkpt lat="48.946412" lon="8.658062">
<ele>341.0</ele>
<speed>3.0</speed>
<course>140.3</course>
<desc>Speed 3.0 km/h Distance 4.36 km</desc>
<time>2010-02-21T10:58:52.01</time>
<name>3112</name>
</trkpt>
<trkpt lat="48.946405" lon="8.658070">
<ele>340.5</ele>
<speed>3.0</speed>
<course>127.3</course>
<desc>Speed 3.0 km/h Distance 4.36 km</desc>
<time>2010-02-21T10:58:53.01</time>
<name>3113</name>
</trkpt>
<trkpt lat="48.946393" lon="8.658093">
<ele>341.0</ele>
<speed>4.5</speed>
<course>131.0</course>
<desc>Speed 4.5 km/h Distance 4.36 km</desc>
<time>2010-02-21T10:58:54.01</time>
<name>3114</name>
</trkpt>
<trkpt lat="48.946380" lon="8.658117">
<ele>341.0</ele>
<speed>3.1</speed>
<course>137.4</course>
<desc>Speed 3.1 km/h Distance 4.36 km</desc>
<time>2010-02-21T10:58:55.01</time>
<name>3115</name>
</trkpt>
<trkpt lat="48.946372" lon="8.658128">
<ele>341.0</ele>
<speed>2.5</speed>
<course>125.3</course>
<desc>Speed 2.5 km/h Distance 4.36 km</desc>
<time>2010-02-21T10:58:56.01</time>
<name>3116</name>
</trkpt>
<trkpt lat="48.946350" lon="8.658175">
<ele>341.0</ele>
<speed>2.7</speed>
<course>97.9</course>
<desc>Speed 2.7 km/h Distance 4.37 km</desc>
<time>2010-02-21T10:58:58.01</time>
<name>3117</name>
</trkpt>
<trkpt lat="48.946348" lon="8.658193">
<ele>343.5</ele>
<speed>1.0</speed>
<course>116.9</course>
<desc>Speed 1.0 km/h Distance 4.37 km</desc>
<time>2010-02-21T10:58:59.01</time>
<name>3118</name>
</trkpt>
<trkpt lat="48.946342" lon="8.658213">
<ele>344.0</ele>
<speed>3.2</speed>
<course>153.6</course>
<desc>Speed 3.2 km/h Distance 4.37 km</desc>
<time>2010-02-21T10:59:00.01</time>
<name>3119</name>
</trkpt>
<trkpt lat="48.946335" lon="8.658218">
<ele>345.0</ele>
<speed>1.7</speed>
<course>233.9</course>
<desc>Speed 1.7 km/h Distance 4.37 km</desc>
<time>2010-02-21T10:59:01.01</time>
<name>3120</name>
</trkpt>
<trkpt lat="48.946333" lon="8.658215">
<ele>345.5</ele>
<speed>1.6</speed>
<course>140.6</course>
<desc>Speed 1.6 km/h Distance 4.37 km</desc>
<time>2010-02-21T10:59:02.01</time>
<name>3121</name>
</trkpt>
<trkpt lat="48.946327" lon="8.658223">
<ele>345.5</ele>
<speed>3.2</speed>
<course>146.3</course>
<desc>Speed 3.2 km/h Distance 4.37 km</desc>
<time>2010-02-21T10:59:03.01</time>
<name>3122</name>
</trkpt>
<trkpt lat="48.946320" lon="8.658230">
<ele>345.5</ele>
<speed>2.3</speed>
<course>141.6</course>
<desc>Speed 2.3 km/h Distance 4.37 km</desc>
<time>2010-02-21T10:59:04.01</time>
<name>3123</name>
</trkpt>
<trkpt lat="48.946312" lon="8.658240">
<ele>345.5</ele>
<speed>3.6</speed>
<course>147.9</course>
<desc>Speed 3.6 km/h Distance 4.37 km</desc>
<time>2010-02-21T10:59:05.01</time>
<name>3124</name>
</trkpt>
<trkpt lat="48.946275" lon="8.658275">
<ele>342.0</ele>
<speed>4.6</speed>
<course>139.8</course>
<desc>Speed 4.6 km/h Distance 4.38 km</desc>
<time>2010-02-21T10:59:07.01</time>
<name>3125</name>
</trkpt>
<trkpt lat="48.946263" lon="8.658290">
<ele>341.5</ele>
<speed>4.0</speed>
<course>165.1</course>
<desc>Speed 4.0 km/h Distance 4.38 km</desc>
<time>2010-02-21T10:59:08.01</time>
<name>3126</name>
</trkpt>
<trkpt lat="48.946255" lon="8.658293">
<ele>341.5</ele>
<speed>2.4</speed>
<course>146.6</course>
<desc>Speed 2.4 km/h Distance 4.38 km</desc>
<time>2010-02-21T10:59:09.01</time>
<name>3127</name>
</trkpt>
<trkpt lat="48.946245" lon="8.658303">
<ele>341.5</ele>
<speed>2.8</speed>
<course>140.5</course>
<desc>Speed 2.8 km/h Distance 4.38 km</desc>
<time>2010-02-21T10:59:10.01</time>
<name>3128</name>
</trkpt>
<trkpt lat="48.946232" lon="8.658320">
<ele>341.0</ele>
<speed>5.0</speed>
<course>135.4</course>
<desc>Speed 5.0 km/h Distance 4.39 km</desc>
<time>2010-02-21T10:59:11.01</time>
<name>3129</name>
</trkpt>
<trkpt lat="48.946222" lon="8.658335">
<ele>341.5</ele>
<speed>3.8</speed>
<course>129.3</course>
<desc>Speed 3.8 km/h Distance 4.39 km</desc>
<time>2010-02-21T10:59:12.01</time>
<name>3130</name>
</trkpt>
<trkpt lat="48.946210" lon="8.658357">
<ele>342.0</ele>
<speed>5.0</speed>
<course>138.8</course>
<desc>Speed 5.0 km/h Distance 4.39 km</desc>
<time>2010-02-21T10:59:13.01</time>
<name>3131</name>
</trkpt>
<trkpt lat="48.946200" lon="8.658370">
<ele>341.5</ele>
<speed>3.9</speed>
<course>140.6</course>
<desc>Speed 3.9 km/h Distance 4.39 km</desc>
<time>2010-02-21T10:59:14.01</time>
<name>3132</name>
</trkpt>
<trkpt lat="48.946187" lon="8.658387">
<ele>341.0</ele>
<speed>4.1</speed>
<course>140.6</course>
<desc>Speed 4.1 km/h Distance 4.39 km</desc>
<time>2010-02-21T10:59:15.01</time>
<name>3133</name>
</trkpt>
<trkpt lat="48.946173" lon="8.658403">
<ele>340.0</ele>
<speed>3.3</speed>
<course>129.4</course>
<desc>Speed 3.3 km/h Distance 4.39 km</desc>
<time>2010-02-21T10:59:16.01</time>
<name>3134</name>
</trkpt>
<trkpt lat="48.946162" lon="8.658425">
<ele>339.0</ele>
<speed>5.4</speed>
<course>140.6</course>
<desc>Speed 5.4 km/h Distance 4.40 km</desc>
<time>2010-02-21T10:59:17.01</time>
<name>3135</name>
</trkpt>
<trkpt lat="48.946148" lon="8.658442">
<ele>338.5</ele>
<speed>3.9</speed>
<course>131.6</course>
<desc>Speed 3.9 km/h Distance 4.40 km</desc>
<time>2010-02-21T10:59:18.01</time>
<name>3136</name>
</trkpt>
<trkpt lat="48.946137" lon="8.658462">
<ele>338.0</ele>
<speed>4.9</speed>
<course>132.4</course>
<desc>Speed 4.9 km/h Distance 4.40 km</desc>
<time>2010-02-21T10:59:19.01</time>
<name>3137</name>
</trkpt>
<trkpt lat="48.946127" lon="8.658478">
<ele>338.0</ele>
<speed>5.2</speed>
<course>132.4</course>
<desc>Speed 5.2 km/h Distance 4.40 km</desc>
<time>2010-02-21T10:59:20.01</time>
<name>3138</name>
</trkpt>
<trkpt lat="48.946117" lon="8.658495">
<ele>338.0</ele>
<speed>4.8</speed>
<course>138.8</course>
<desc>Speed 4.8 km/h Distance 4.40 km</desc>
<time>2010-02-21T10:59:21.01</time>
<name>3139</name>
</trkpt>
<trkpt lat="48.946107" lon="8.658508">
<ele>338.0</ele>
<speed>4.4</speed>
<course>138.1</course>
<desc>Speed 4.4 km/h Distance 4.41 km</desc>
<time>2010-02-21T10:59:22.01</time>
<name>3140</name>
</trkpt>
<trkpt lat="48.946102" lon="8.658515">
<ele>339.0</ele>
<speed>2.2</speed>
<course>141.9</course>
<desc>Speed 2.2 km/h Distance 4.41 km</desc>
<time>2010-02-21T10:59:23.01</time>
<name>3141</name>
</trkpt>
<trkpt lat="48.946093" lon="8.658525">
<ele>338.5</ele>
<speed>3.7</speed>
<course>137.4</course>
<desc>Speed 3.7 km/h Distance 4.41 km</desc>
<time>2010-02-21T10:59:24.01</time>
<name>3142</name>
</trkpt>
<trkpt lat="48.946085" lon="8.658537">
<ele>339.0</ele>
<speed>4.2</speed>
<course>121.7</course>
<desc>Speed 4.2 km/h Distance 4.41 km</desc>
<time>2010-02-21T10:59:25.01</time>
<name>3143</name>
</trkpt>
<trkpt lat="48.946063" lon="8.658590">
<ele>336.5</ele>
<speed>3.3</speed>
<course>129.6</course>
<desc>Speed 3.3 km/h Distance 4.41 km</desc>
<time>2010-02-21T10:59:27.01</time>
<name>3144</name>
</trkpt>
<trkpt lat="48.946053" lon="8.658608">
<ele>337.0</ele>
<speed>4.7</speed>
<course>141.9</course>
<desc>Speed 4.7 km/h Distance 4.41 km</desc>
<time>2010-02-21T10:59:28.01</time>
<name>3145</name>
</trkpt>
<trkpt lat="48.946045" lon="8.658618">
<ele>337.0</ele>
<speed>3.7</speed>
<course>127.3</course>
<desc>Speed 3.7 km/h Distance 4.42 km</desc>
<time>2010-02-21T10:59:29.01</time>
<name>3146</name>
</trkpt>
<trkpt lat="48.946037" lon="8.658635">
<ele>337.5</ele>
<speed>4.9</speed>
<course>167.4</course>
<desc>Speed 4.9 km/h Distance 4.42 km</desc>
<time>2010-02-21T10:59:30.01</time>
<name>3147</name>
</trkpt>
<trkpt lat="48.946032" lon="8.658637">
<ele>337.5</ele>
<speed>1.6</speed>
<course>129.7</course>
<desc>Speed 1.6 km/h Distance 4.42 km</desc>
<time>2010-02-21T10:59:31.01</time>
<name>3148</name>
</trkpt>
<trkpt lat="48.946022" lon="8.658655">
<ele>338.0</ele>
<speed>5.1</speed>
<course>138.8</course>
<desc>Speed 5.1 km/h Distance 4.42 km</desc>
<time>2010-02-21T10:59:32.04</time>
<name>3149</name>
</trkpt>
<trkpt lat="48.946012" lon="8.658668">
<ele>338.0</ele>
<speed>3.9</speed>
<course>152.1</course>
<desc>Speed 3.9 km/h Distance 4.42 km</desc>
<time>2010-02-21T10:59:33.04</time>
<name>3150</name>
</trkpt>
<trkpt lat="48.946003" lon="8.658675">
<ele>338.5</ele>
<speed>2.0</speed>
<course>156.2</course>
<desc>Speed 2.0 km/h Distance 4.42 km</desc>
<time>2010-02-21T10:59:34.04</time>
<name>3151</name>
</trkpt>
<trkpt lat="48.945998" lon="8.658678">
<ele>338.5</ele>
<speed>2.1</speed>
<course>153.6</course>
<desc>Speed 2.1 km/h Distance 4.42 km</desc>
<time>2010-02-21T10:59:35.04</time>
<name>3152</name>
</trkpt>
<trkpt lat="48.945992" lon="8.658683">
<ele>339.0</ele>
<speed>2.5</speed>
<course>146.3</course>
<desc>Speed 2.5 km/h Distance 4.42 km</desc>
<time>2010-02-21T10:59:36.04</time>
<name>3153</name>
</trkpt>
<trkpt lat="48.945985" lon="8.658690">
<ele>339.5</ele>
<speed>2.2</speed>
<course>124.6</course>
<desc>Speed 2.2 km/h Distance 4.42 km</desc>
<time>2010-02-21T10:59:37.04</time>
<name>3154</name>
</trkpt>
<trkpt lat="48.945977" lon="8.658708">
<ele>340.5</ele>
<speed>4.2</speed>
<course>120.4</course>
<desc>Speed 4.2 km/h Distance 4.43 km</desc>
<time>2010-02-21T10:59:38.04</time>
<name>3155</name>
</trkpt>
<trkpt lat="48.945952" lon="8.658773">
<ele>341.0</ele>
<speed>4.9</speed>
<course>134.1</course>
<desc>Speed 4.9 km/h Distance 4.43 km</desc>
<time>2010-02-21T10:59:40.04</time>
<name>3156</name>
</trkpt>
<trkpt lat="48.945940" lon="8.658792">
<ele>341.0</ele>
<speed>4.3</speed>
<course>129.7</course>
<desc>Speed 4.3 km/h Distance 4.43 km</desc>
<time>2010-02-21T10:59:41.04</time>
<name>3157</name>
</trkpt>
<trkpt lat="48.945930" lon="8.658810">
<ele>341.5</ele>
<speed>3.8</speed>
<course>135.5</course>
<desc>Speed 3.8 km/h Distance 4.44 km</desc>
<time>2010-02-21T10:59:42.04</time>
<name>3158</name>
</trkpt>
<trkpt lat="48.945923" lon="8.658820">
<ele>342.0</ele>
<speed>2.2</speed>
<course>133.6</course>
<desc>Speed 2.2 km/h Distance 4.44 km</desc>
<time>2010-02-21T10:59:43.04</time>
<name>3159</name>
</trkpt>
<trkpt lat="48.945915" lon="8.658833">
<ele>342.5</ele>
<speed>3.6</speed>
<course>127.2</course>
<desc>Speed 3.6 km/h Distance 4.44 km</desc>
<time>2010-02-21T10:59:44.04</time>
<name>3160</name>
</trkpt>
<trkpt lat="48.945903" lon="8.658857">
<ele>342.5</ele>
<speed>5.9</speed>
<course>142.5</course>
<desc>Speed 5.9 km/h Distance 4.44 km</desc>
<time>2010-02-21T10:59:45.04</time>
<name>3161</name>
</trkpt>
<trkpt lat="48.945893" lon="8.658868">
<ele>342.0</ele>
<speed>3.5</speed>
<course>129.7</course>
<desc>Speed 3.5 km/h Distance 4.44 km</desc>
<time>2010-02-21T10:59:46.04</time>
<name>3162</name>
</trkpt>
<trkpt lat="48.945883" lon="8.658887">
<ele>342.5</ele>
<speed>5.2</speed>
<course>127.3</course>
<desc>Speed 5.2 km/h Distance 4.44 km</desc>
<time>2010-02-21T10:59:47.04</time>
<name>3163</name>
</trkpt>
<trkpt lat="48.945873" lon="8.658907">
<ele>342.5</ele>
<speed>5.3</speed>
<course>135.5</course>
<desc>Speed 5.3 km/h Distance 4.44 km</desc>
<time>2010-02-21T10:59:48.04</time>
<name>3164</name>
</trkpt>
<trkpt lat="48.945860" lon="8.658927">
<ele>342.5</ele>
<speed>4.9</speed>
<course>137.5</course>
<desc>Speed 4.9 km/h Distance 4.45 km</desc>
<time>2010-02-21T10:59:49.04</time>
<name>3165</name>
</trkpt>
<trkpt lat="48.945852" lon="8.658938">
<ele>343.0</ele>
<speed>4.0</speed>
<course>165.1</course>
<desc>Speed 4.0 km/h Distance 4.45 km</desc>
<time>2010-02-21T10:59:50.04</time>
<name>3166</name>
</trkpt>
<trkpt lat="48.945843" lon="8.658942">
<ele>342.5</ele>
<speed>2.6</speed>
<course>165.1</course>
<desc>Speed 2.6 km/h Distance 4.45 km</desc>
<time>2010-02-21T10:59:51.04</time>
<name>3167</name>
</trkpt>
<trkpt lat="48.945835" lon="8.658945">
<ele>341.5</ele>
<speed>2.0</speed>
<course>137.4</course>
<desc>Speed 2.0 km/h Distance 4.45 km</desc>
<time>2010-02-21T10:59:52.04</time>
<name>3168</name>
</trkpt>
<trkpt lat="48.945827" lon="8.658957">
<ele>341.5</ele>
<speed>2.9</speed>
<course>137.4</course>
<desc>Speed 2.9 km/h Distance 4.45 km</desc>
<time>2010-02-21T10:59:53.04</time>
<name>3169</name>
</trkpt>
<trkpt lat="48.945818" lon="8.658968">
<ele>342.0</ele>
<speed>3.0</speed>
<course>151.4</course>
<desc>Speed 3.0 km/h Distance 4.45 km</desc>
<time>2010-02-21T10:59:54.04</time>
<name>3170</name>
</trkpt>
<trkpt lat="48.945808" lon="8.658977">
<ele>341.5</ele>
<speed>2.7</speed>
<course>153.6</course>
<desc>Speed 2.7 km/h Distance 4.45 km</desc>
<time>2010-02-21T10:59:55.04</time>
<name>3171</name>
</trkpt>
<trkpt lat="48.945802" lon="8.658982">
<ele>342.0</ele>
<speed>2.3</speed>
<course>116.3</course>
<desc>Speed 2.3 km/h Distance 4.45 km</desc>
<time>2010-02-21T10:59:56.04</time>
<name>3172</name>
</trkpt>
<trkpt lat="48.945782" lon="8.659043">
<ele>343.0</ele>
<speed>3.7</speed>
<course>172.6</course>
<desc>Speed 3.7 km/h Distance 4.46 km</desc>
<time>2010-02-21T10:59:58.04</time>
<name>3173</name>
</trkpt>
<trkpt lat="48.945775" lon="8.659045">
<ele>343.0</ele>
<speed>2.1</speed>
<course>133.1</course>
<desc>Speed 2.1 km/h Distance 4.46 km</desc>
<time>2010-02-21T10:59:59.04</time>
<name>3174</name>
</trkpt>
<trkpt lat="48.945762" lon="8.659067">
<ele>341.5</ele>
<speed>5.1</speed>
<course>146.8</course>
<desc>Speed 5.1 km/h Distance 4.46 km</desc>
<time>2010-02-21T11:00:00.04</time>
<name>3175</name>
</trkpt>
<trkpt lat="48.945757" lon="8.659072">
<ele>341.5</ele>
<speed>1.8</speed>
<course>104.1</course>
<desc>Speed 1.8 km/h Distance 4.46 km</desc>
<time>2010-02-21T11:00:01.04</time>
<name>3176</name>
</trkpt>
<trkpt lat="48.945755" lon="8.659082">
<ele>341.5</ele>
<speed>0.8</speed>
<course>128.1</course>
<desc>Speed 0.8 km/h Distance 4.46 km</desc>
<time>2010-02-21T11:00:02.04</time>
<name>3177</name>
</trkpt>
<trkpt lat="48.945753" lon="8.659085">
<ele>341.5</ele>
<speed>0.2</speed>
<course>105.5</course>
<desc>Speed 0.2 km/h Distance 4.46 km</desc>
<time>2010-02-21T11:00:03.04</time>
<name>3178</name>
</trkpt>
<trkpt lat="48.945750" lon="8.659103">
<ele>342.5</ele>
<speed>0.5</speed>
<course>116.9</course>
<desc>Speed 0.5 km/h Distance 4.47 km</desc>
<time>2010-02-21T11:00:04.04</time>
<name>3179</name>
</trkpt>
<trkpt lat="48.945745" lon="8.659118">
<ele>342.5</ele>
<speed>0.9</speed>
<course>114.6</course>
<desc>Speed 0.9 km/h Distance 4.47 km</desc>
<time>2010-02-21T11:00:05.04</time>
<name>3180</name>
</trkpt>
<trkpt lat="48.945740" lon="8.659135">
<ele>342.0</ele>
<speed>1.1</speed>
<course>97.9</course>
<desc>Speed 1.1 km/h Distance 4.47 km</desc>
<time>2010-02-21T11:00:06.04</time>
<name>3181</name>
</trkpt>
<trkpt lat="48.945738" lon="8.659153">
<ele>342.0</ele>
<speed>1.0</speed>
<course>322.8</course>
<desc>Speed 1.0 km/h Distance 4.47 km</desc>
<time>2010-02-21T11:00:07.04</time>
<name>3182</name>
</trkpt>
<trkpt lat="48.945740" lon="8.659152">
<ele>342.5</ele>
<speed>1.3</speed>
<course>90.0</course>
<desc>Speed 1.3 km/h Distance 4.47 km</desc>
<time>2010-02-21T11:00:08.04</time>
<name>3183</name>
</trkpt>
<trkpt lat="48.945740" lon="8.659155">
<ele>343.0</ele>
<speed>0.1</speed>
<course>270.0</course>
<desc>Speed 0.1 km/h Distance 4.47 km</desc>
<time>2010-02-21T11:00:09.04</time>
<name>3184</name>
</trkpt>
<trkpt lat="48.945740" lon="8.659153">
<ele>343.0</ele>
<speed>0.1</speed>
<course>113.5</course>
<desc>Speed 0.1 km/h Distance 4.47 km</desc>
<time>2010-02-21T11:00:10.04</time>
<name>3185</name>
</trkpt>
<trkpt lat="48.945737" lon="8.659165">
<ele>343.5</ele>
<speed>0.1</speed>
<course>130.9</course>
<desc>Speed 0.1 km/h Distance 4.47 km</desc>
<time>2010-02-21T11:00:11.04</time>
<name>3186</name>
</trkpt>
<trkpt lat="48.945730" lon="8.659177">
<ele>343.5</ele>
<speed>0.9</speed>
<course>238.6</course>
<desc>Speed 0.9 km/h Distance 4.47 km</desc>
<time>2010-02-21T11:00:12.04</time>
<name>3187</name>
</trkpt>
<trkpt lat="48.945727" lon="8.659168">
<ele>344.0</ele>
<speed>1.0</speed>
<course>231.9</course>
<desc>Speed 1.0 km/h Distance 4.47 km</desc>
<time>2010-02-21T11:00:13.04</time>
<name>3188</name>
</trkpt>
<trkpt lat="48.945725" lon="8.659165">
<ele>344.0</ele>
<speed>0.8</speed>
<course>167.4</course>
<desc>Speed 0.8 km/h Distance 4.47 km</desc>
<time>2010-02-21T11:00:14.04</time>
<name>3189</name>
</trkpt>
<trkpt lat="48.945722" lon="8.659165">
<ele>344.0</ele>
<speed>1.2</speed>
<course>127.3</course>
<desc>Speed 1.2 km/h Distance 4.47 km</desc>
<time>2010-02-21T11:00:15.04</time>
<name>3190</name>
</trkpt>
<trkpt lat="48.945715" lon="8.659178">
<ele>344.0</ele>
<speed>0.4</speed>
<course>128.1</course>
<desc>Speed 0.4 km/h Distance 4.47 km</desc>
<time>2010-02-21T11:00:16.04</time>
<name>3191</name>
</trkpt>
<trkpt lat="48.945713" lon="8.659182">
<ele>343.5</ele>
<speed>0.2</speed>
<course>128.1</course>
<desc>Speed 0.2 km/h Distance 4.48 km</desc>
<time>2010-02-21T11:00:17.04</time>
<name>3192</name>
</trkpt>
<trkpt lat="48.945712" lon="8.659185">
<ele>343.5</ele>
<speed>0.1</speed>
<course>146.8</course>
<desc>Speed 0.1 km/h Distance 4.48 km</desc>
<time>2010-02-21T11:00:18.04</time>
<name>3193</name>
</trkpt>
<trkpt lat="48.945707" lon="8.659190">
<ele>343.0</ele>
<speed>0.1</speed>
<course>146.8</course>
<desc>Speed 0.1 km/h Distance 4.48 km</desc>
<time>2010-02-21T11:00:19.04</time>
<name>3194</name>
</trkpt>
<trkpt lat="48.945707" lon="8.659190">
<ele>343.0</ele>
<speed>0.2</speed>
<course>153.0</course>
<desc>Speed 0.2 km/h Distance 4.48 km</desc>
<time>2010-02-21T11:00:20.04</time>
<name>3195</name>
</trkpt>
<trkpt lat="48.945698" lon="8.659197">
<ele>342.0</ele>
<speed>0.1</speed>
<course>123.3</course>
<desc>Speed 0.1 km/h Distance 4.48 km</desc>
<time>2010-02-21T11:00:21.04</time>
<name>3196</name>
</trkpt>
<trkpt lat="48.945693" lon="8.659208">
<ele>341.5</ele>
<speed>0.0</speed>
<course>135.5</course>
<desc>Speed 0.0 km/h Distance 4.48 km</desc>
<time>2010-02-21T11:00:22.04</time>
<name>3197</name>
</trkpt>
<trkpt lat="48.945690" lon="8.659213">
<ele>341.0</ele>
<speed>0.1</speed>
<course>142.8</course>
<desc>Speed 0.1 km/h Distance 4.48 km</desc>
<time>2010-02-21T11:00:23.04</time>
<name>3198</name>
</trkpt>
<trkpt lat="48.945688" lon="8.659215">
<ele>341.0</ele>
<speed>0.1</speed>
<course>158.5</course>
<desc>Speed 0.1 km/h Distance 4.48 km</desc>
<time>2010-02-21T11:00:24.04</time>
<name>3199</name>
</trkpt>
<trkpt lat="48.945680" lon="8.659220">
<ele>340.5</ele>
<speed>1.3</speed>
<course>330.8</course>
<desc>Speed 1.3 km/h Distance 4.48 km</desc>
<time>2010-02-21T11:00:25.04</time>
<name>3200</name>
</trkpt>
<trkpt lat="48.945682" lon="8.659218">
<ele>340.5</ele>
<speed>0.3</speed>
<course>121.4</course>
<desc>Speed 0.3 km/h Distance 4.48 km</desc>
<time>2010-02-21T11:00:26.04</time>
<name>3201</name>
</trkpt>
<trkpt lat="48.945678" lon="8.659227">
<ele>341.0</ele>
<speed>0.2</speed>
<course>330.8</course>
<desc>Speed 0.2 km/h Distance 4.48 km</desc>
<time>2010-02-21T11:00:27.04</time>
<name>3202</name>
</trkpt>
<trkpt lat="48.945680" lon="8.659225">
<ele>341.0</ele>
<speed>0.1</speed>
<course>140.1</course>
<desc>Speed 0.1 km/h Distance 4.48 km</desc>
<time>2010-02-21T11:00:28.04</time>
<name>3203</name>
</trkpt>
<trkpt lat="48.945662" lon="8.659248">
<ele>339.0</ele>
<speed>1.0</speed>
<course>117.4</course>
<desc>Speed 1.0 km/h Distance 4.48 km</desc>
<time>2010-02-21T11:00:30.04</time>
<name>3204</name>
</trkpt>
<trkpt lat="48.945660" lon="8.659253">
<ele>338.0</ele>
<speed>1.1</speed>
<course>136.8</course>
<desc>Speed 1.1 km/h Distance 4.48 km</desc>
<time>2010-02-21T11:00:31.04</time>
<name>3205</name>
</trkpt>
<trkpt lat="48.945625" lon="8.659303">
<ele>333.5</ele>
<speed>3.4</speed>
<course>126.5</course>
<desc>Speed 3.4 km/h Distance 4.49 km</desc>
<time>2010-02-21T11:00:33.04</time>
<name>3206</name>
</trkpt>
<trkpt lat="48.945622" lon="8.659310">
<ele>333.0</ele>
<speed>1.2</speed>
<course>152.1</course>
<desc>Speed 1.2 km/h Distance 4.49 km</desc>
<time>2010-02-21T11:00:34.04</time>
<name>3207</name>
</trkpt>
<trkpt lat="48.945613" lon="8.659317">
<ele>333.5</ele>
<speed>3.2</speed>
<course>63.0</course>
<desc>Speed 3.2 km/h Distance 4.49 km</desc>
<time>2010-02-21T11:00:35.04</time>
<name>3208</name>
</trkpt>
<trkpt lat="48.945617" lon="8.659327">
<ele>332.0</ele>
<speed>2.7</speed>
<course>107.1</course>
<desc>Speed 2.7 km/h Distance 4.49 km</desc>
<time>2010-02-21T11:00:36.04</time>
<name>3209</name>
</trkpt>
<trkpt lat="48.945615" lon="8.659335">
<ele>330.5</ele>
<speed>1.4</speed>
<course>140.6</course>
<desc>Speed 1.4 km/h Distance 4.49 km</desc>
<time>2010-02-21T11:00:37.04</time>
<name>3210</name>
</trkpt>
<trkpt lat="48.945608" lon="8.659343">
<ele>330.5</ele>
<speed>2.6</speed>
<course>146.3</course>
<desc>Speed 2.6 km/h Distance 4.49 km</desc>
<time>2010-02-21T11:00:38.04</time>
<name>3211</name>
</trkpt>
<trkpt lat="48.945602" lon="8.659350">
<ele>331.0</ele>
<speed>2.8</speed>
<course>138.6</course>
<desc>Speed 2.8 km/h Distance 4.49 km</desc>
<time>2010-02-21T11:00:39.04</time>
<name>3212</name>
</trkpt>
<trkpt lat="48.945597" lon="8.659357">
<ele>329.5</ele>
<speed>0.8</speed>
<course>80.4</course>
<desc>Speed 0.8 km/h Distance 4.50 km</desc>
<time>2010-02-21T11:00:40.04</time>
<name>3213</name>
</trkpt>
<trkpt lat="48.945598" lon="8.659372">
<ele>330.0</ele>
<speed>1.4</speed>
<course>135.5</course>
<desc>Speed 1.4 km/h Distance 4.50 km</desc>
<time>2010-02-21T11:00:41.04</time>
<name>3214</name>
</trkpt>
<trkpt lat="48.945592" lon="8.659382">
<ele>330.0</ele>
<speed>1.5</speed>
<course>146.8</course>
<desc>Speed 1.5 km/h Distance 4.50 km</desc>
<time>2010-02-21T11:00:42.04</time>
<name>3215</name>
</trkpt>
<trkpt lat="48.945587" lon="8.659387">
<ele>328.5</ele>
<speed>1.3</speed>
<course>139.1</course>
<desc>Speed 1.3 km/h Distance 4.50 km</desc>
<time>2010-02-21T11:00:43.04</time>
<name>3216</name>
</trkpt>
<trkpt lat="48.945582" lon="8.659393">
<ele>328.0</ele>
<speed>2.1</speed>
<course>117.4</course>
<desc>Speed 2.1 km/h Distance 4.50 km</desc>
<time>2010-02-21T11:00:44.04</time>
<name>3217</name>
</trkpt>
<trkpt lat="48.945580" lon="8.659398">
<ele>328.0</ele>
<speed>1.0</speed>
<course>137.6</course>
<desc>Speed 1.0 km/h Distance 4.50 km</desc>
<time>2010-02-21T11:00:45.04</time>
<name>3218</name>
</trkpt>
<trkpt lat="48.945550" lon="8.659440">
<ele>328.0</ele>
<speed>5.7</speed>
<course>123.3</course>
<desc>Speed 5.7 km/h Distance 4.50 km</desc>
<time>2010-02-21T11:00:47.04</time>
<name>3219</name>
</trkpt>
<trkpt lat="48.945545" lon="8.659452">
<ele>328.5</ele>
<speed>2.7</speed>
<course>158.5</course>
<desc>Speed 2.7 km/h Distance 4.50 km</desc>
<time>2010-02-21T11:00:48.04</time>
<name>3220</name>
</trkpt>
<trkpt lat="48.945537" lon="8.659457">
<ele>328.5</ele>
<speed>2.7</speed>
<course>172.6</course>
<desc>Speed 2.7 km/h Distance 4.51 km</desc>
<time>2010-02-21T11:00:49.04</time>
<name>3221</name>
</trkpt>
<trkpt lat="48.945530" lon="8.659458">
<ele>327.5</ele>
<speed>1.8</speed>
<course>172.6</course>
<desc>Speed 1.8 km/h Distance 4.51 km</desc>
<time>2010-02-21T11:00:50.04</time>
<name>3222</name>
</trkpt>
<trkpt lat="48.945523" lon="8.659460">
<ele>327.0</ele>
<speed>2.0</speed>
<course>113.4</course>
<desc>Speed 2.0 km/h Distance 4.51 km</desc>
<time>2010-02-21T11:00:51.04</time>
<name>3223</name>
</trkpt>
<trkpt lat="48.945520" lon="8.659472">
<ele>326.5</ele>
<speed>1.8</speed>
<course>138.1</course>
<desc>Speed 1.8 km/h Distance 4.51 km</desc>
<time>2010-02-21T11:00:52.04</time>
<name>3224</name>
</trkpt>
<trkpt lat="48.945515" lon="8.659478">
<ele>326.5</ele>
<speed>2.4</speed>
<course>100.7</course>
<desc>Speed 2.4 km/h Distance 4.51 km</desc>
<time>2010-02-21T11:00:53.04</time>
<name>3225</name>
</trkpt>
<trkpt lat="48.945513" lon="8.659492">
<ele>327.5</ele>
<speed>1.3</speed>
<course>146.8</course>
<desc>Speed 1.3 km/h Distance 4.51 km</desc>
<time>2010-02-21T11:00:54.04</time>
<name>3226</name>
</trkpt>
<trkpt lat="48.945503" lon="8.659502">
<ele>327.0</ele>
<speed>3.7</speed>
<course>156.2</course>
<desc>Speed 3.7 km/h Distance 4.51 km</desc>
<time>2010-02-21T11:00:55.04</time>
<name>3227</name>
</trkpt>
<trkpt lat="48.945493" lon="8.659508">
<ele>327.5</ele>
<speed>3.0</speed>
<course>135.2</course>
<desc>Speed 3.0 km/h Distance 4.51 km</desc>
<time>2010-02-21T11:00:56.04</time>
<name>3228</name>
</trkpt>
<trkpt lat="48.945487" lon="8.659518">
<ele>327.5</ele>
<speed>3.5</speed>
<course>153.6</course>
<desc>Speed 3.5 km/h Distance 4.51 km</desc>
<time>2010-02-21T11:00:57.04</time>
<name>3229</name>
</trkpt>
<trkpt lat="48.945480" lon="8.659523">
<ele>327.0</ele>
<speed>2.4</speed>
<course>159.2</course>
<desc>Speed 2.4 km/h Distance 4.51 km</desc>
<time>2010-02-21T11:00:58.04</time>
<name>3230</name>
</trkpt>
<trkpt lat="48.945472" lon="8.659528">
<ele>326.5</ele>
<speed>2.9</speed>
<course>142.2</course>
<desc>Speed 2.9 km/h Distance 4.52 km</desc>
<time>2010-02-21T11:00:59.04</time>
<name>3231</name>
</trkpt>
<trkpt lat="48.945453" lon="8.659550">
<ele>324.0</ele>
<speed>2.5</speed>
<course>168.4</course>
<desc>Speed 2.5 km/h Distance 4.52 km</desc>
<time>2010-02-21T11:01:00.04</time>
<name>3232</name>
</trkpt>
<trkpt lat="48.945443" lon="8.659553">
<ele>323.5</ele>
<speed>3.0</speed>
<course>141.0</course>
<desc>Speed 3.0 km/h Distance 4.52 km</desc>
<time>2010-02-21T11:01:01.04</time>
<name>3233</name>
</trkpt>
<trkpt lat="48.945415" lon="8.659588">
<ele>320.0</ele>
<speed>2.2</speed>
<course>117.0</course>
<desc>Speed 2.2 km/h Distance 4.52 km</desc>
<time>2010-02-21T11:01:03.04</time>
<name>3234</name>
</trkpt>
<trkpt lat="48.945412" lon="8.659598">
<ele>320.5</ele>
<speed>3.0</speed>
<course>127.0</course>
<desc>Speed 3.0 km/h Distance 4.52 km</desc>
<time>2010-02-21T11:01:04.04</time>
<name>3235</name>
</trkpt>
<trkpt lat="48.945408" lon="8.659605">
<ele>320.0</ele>
<speed>2.2</speed>
<course>127.2</course>
<desc>Speed 2.2 km/h Distance 4.52 km</desc>
<time>2010-02-21T11:01:05.04</time>
<name>3236</name>
</trkpt>
<trkpt lat="48.945402" lon="8.659618">
<ele>320.0</ele>
<speed>3.0</speed>
<course>124.0</course>
<desc>Speed 3.0 km/h Distance 4.53 km</desc>
<time>2010-02-21T11:01:06.04</time>
<name>3237</name>
</trkpt>
<trkpt lat="48.945395" lon="8.659633">
<ele>319.0</ele>
<speed>2.2</speed>
<course>152.9</course>
<desc>Speed 2.2 km/h Distance 4.53 km</desc>
<time>2010-02-21T11:01:07.04</time>
<name>3238</name>
</trkpt>
<trkpt lat="48.945388" lon="8.659638">
<ele>319.0</ele>
<speed>2.7</speed>
<course>151.4</course>
<desc>Speed 2.7 km/h Distance 4.53 km</desc>
<time>2010-02-21T11:01:08.04</time>
<name>3239</name>
</trkpt>
<trkpt lat="48.945378" lon="8.659647">
<ele>319.0</ele>
<speed>3.7</speed>
<course>158.5</course>
<desc>Speed 3.7 km/h Distance 4.53 km</desc>
<time>2010-02-21T11:01:09.04</time>
<name>3240</name>
</trkpt>
<trkpt lat="48.945370" lon="8.659652">
<ele>319.5</ele>
<speed>3.0</speed>
<course>113.5</course>
<desc>Speed 3.0 km/h Distance 4.53 km</desc>
<time>2010-02-21T11:01:10.04</time>
<name>3241</name>
</trkpt>
<trkpt lat="48.945363" lon="8.659675">
<ele>319.5</ele>
<speed>1.8</speed>
<course>136.5</course>
<desc>Speed 1.8 km/h Distance 4.53 km</desc>
<time>2010-02-21T11:01:11.04</time>
<name>3242</name>
</trkpt>
<trkpt lat="48.945360" lon="8.659680">
<ele>320.5</ele>
<speed>1.4</speed>
<course>146.7</course>
<desc>Speed 1.4 km/h Distance 4.53 km</desc>
<time>2010-02-21T11:01:12.04</time>
<name>3243</name>
</trkpt>
<trkpt lat="48.945335" lon="8.659705">
<ele>318.0</ele>
<speed>3.7</speed>
<course>167.4</course>
<desc>Speed 3.7 km/h Distance 4.54 km</desc>
<time>2010-02-21T11:01:14.04</time>
<name>3244</name>
</trkpt>
<trkpt lat="48.945333" lon="8.659705">
<ele>318.0</ele>
<speed>0.7</speed>
<course>187.4</course>
<desc>Speed 0.7 km/h Distance 4.54 km</desc>
<time>2010-02-21T11:01:15.04</time>
<name>3245</name>
</trkpt>
<trkpt lat="48.945327" lon="8.659703">
<ele>317.5</ele>
<speed>1.4</speed>
<course>153.6</course>
<desc>Speed 1.4 km/h Distance 4.54 km</desc>
<time>2010-02-21T11:01:16.04</time>
<name>3246</name>
</trkpt>
<trkpt lat="48.945320" lon="8.659708">
<ele>317.5</ele>
<speed>2.5</speed>
<course>167.4</course>
<desc>Speed 2.5 km/h Distance 4.54 km</desc>
<time>2010-02-21T11:01:17.04</time>
<name>3247</name>
</trkpt>
<trkpt lat="48.945315" lon="8.659710">
<ele>316.5</ele>
<speed>1.2</speed>
<course>141.9</course>
<desc>Speed 1.2 km/h Distance 4.54 km</desc>
<time>2010-02-21T11:01:18.04</time>
<name>3248</name>
</trkpt>
<trkpt lat="48.945307" lon="8.659720">
<ele>316.0</ele>
<speed>3.0</speed>
<course>131.1</course>
<desc>Speed 3.0 km/h Distance 4.54 km</desc>
<time>2010-02-21T11:01:19.04</time>
<name>3249</name>
</trkpt>
<trkpt lat="48.945300" lon="8.659732">
<ele>316.5</ele>
<speed>1.5</speed>
<course>125.2</course>
<desc>Speed 1.5 km/h Distance 4.54 km</desc>
<time>2010-02-21T11:01:20.04</time>
<name>3250</name>
</trkpt>
<trkpt lat="48.945278" lon="8.659778">
<ele>316.5</ele>
<speed>3.3</speed>
<course>161.2</course>
<desc>Speed 3.3 km/h Distance 4.54 km</desc>
<time>2010-02-21T11:01:22.04</time>
<name>3251</name>
</trkpt>
<trkpt lat="48.945272" lon="8.659782">
<ele>316.5</ele>
<speed>2.5</speed>
<course>146.8</course>
<desc>Speed 2.5 km/h Distance 4.55 km</desc>
<time>2010-02-21T11:01:23.04</time>
<name>3252</name>
</trkpt>
<trkpt lat="48.945265" lon="8.659788">
<ele>316.5</ele>
<speed>3.0</speed>
<course>146.8</course>
<desc>Speed 3.0 km/h Distance 4.55 km</desc>
<time>2010-02-21T11:01:24.04</time>
<name>3253</name>
</trkpt>
<trkpt lat="48.945260" lon="8.659793">
<ele>315.5</ele>
<speed>2.1</speed>
<course>118.3</course>
<desc>Speed 2.1 km/h Distance 4.55 km</desc>
<time>2010-02-21T11:01:25.04</time>
<name>3254</name>
</trkpt>
<trkpt lat="48.945250" lon="8.659822">
<ele>314.5</ele>
<speed>3.0</speed>
<course>146.7</course>
<desc>Speed 3.0 km/h Distance 4.55 km</desc>
<time>2010-02-21T11:01:26.04</time>
<name>3255</name>
</trkpt>
<trkpt lat="48.945237" lon="8.659835">
<ele>313.0</ele>
<speed>2.7</speed>
<course>151.4</course>
<desc>Speed 2.7 km/h Distance 4.55 km</desc>
<time>2010-02-21T11:01:27.04</time>
<name>3256</name>
</trkpt>
<trkpt lat="48.945227" lon="8.659843">
<ele>313.0</ele>
<speed>2.9</speed>
<course>135.4</course>
<desc>Speed 2.9 km/h Distance 4.55 km</desc>
<time>2010-02-21T11:01:28.04</time>
<name>3257</name>
</trkpt>
<trkpt lat="48.945217" lon="8.659858">
<ele>312.5</ele>
<speed>3.5</speed>
<course>108.7</course>
<desc>Speed 3.5 km/h Distance 4.55 km</desc>
<time>2010-02-21T11:01:29.04</time>
<name>3258</name>
</trkpt>
<trkpt lat="48.945213" lon="8.659873">
<ele>312.5</ele>
<speed>2.8</speed>
<course>135.3</course>
<desc>Speed 2.8 km/h Distance 4.56 km</desc>
<time>2010-02-21T11:01:30.04</time>
<name>3259</name>
</trkpt>
<trkpt lat="48.945203" lon="8.659888">
<ele>313.0</ele>
<speed>3.2</speed>
<course>152.1</course>
<desc>Speed 3.2 km/h Distance 4.56 km</desc>
<time>2010-02-21T11:01:31.04</time>
<name>3260</name>
</trkpt>
<trkpt lat="48.945195" lon="8.659895">
<ele>312.5</ele>
<speed>2.8</speed>
<course>152.1</course>
<desc>Speed 2.8 km/h Distance 4.56 km</desc>
<time>2010-02-21T11:01:32.04</time>
<name>3261</name>
</trkpt>
<trkpt lat="48.945187" lon="8.659902">
<ele>311.5</ele>
<speed>3.0</speed>
<course>135.2</course>
<desc>Speed 3.0 km/h Distance 4.56 km</desc>
<time>2010-02-21T11:01:33.04</time>
<name>3262</name>
</trkpt>
<trkpt lat="48.945180" lon="8.659912">
<ele>310.5</ele>
<speed>1.5</speed>
<course>116.9</course>
<desc>Speed 1.5 km/h Distance 4.56 km</desc>
<time>2010-02-21T11:01:34.04</time>
<name>3263</name>
</trkpt>
<trkpt lat="48.945175" lon="8.659927">
<ele>310.5</ele>
<speed>2.6</speed>
<course>116.9</course>
<desc>Speed 2.6 km/h Distance 4.56 km</desc>
<time>2010-02-21T11:01:35.04</time>
<name>3264</name>
</trkpt>
<trkpt lat="48.945168" lon="8.659947">
<ele>311.0</ele>
<speed>1.7</speed>
<course>119.7</course>
<desc>Speed 1.7 km/h Distance 4.56 km</desc>
<time>2010-02-21T11:01:36.04</time>
<name>3265</name>
</trkpt>
<trkpt lat="48.945158" lon="8.659973">
<ele>313.0</ele>
<speed>2.6</speed>
<course>130.7</course>
<desc>Speed 2.6 km/h Distance 4.56 km</desc>
<time>2010-02-21T11:01:37.04</time>
<name>3266</name>
</trkpt>
<trkpt lat="48.945137" lon="8.660012">
<ele>312.5</ele>
<speed>1.2</speed>
<course>127.0</course>
<desc>Speed 1.2 km/h Distance 4.57 km</desc>
<time>2010-02-21T11:01:39.04</time>
<name>3267</name>
</trkpt>
<trkpt lat="48.945133" lon="8.660018">
<ele>312.5</ele>
<speed>0.5</speed>
<course>135.5</course>
<desc>Speed 0.5 km/h Distance 4.57 km</desc>
<time>2010-02-21T11:01:40.04</time>
<name>3268</name>
</trkpt>
<trkpt lat="48.945127" lon="8.660028">
<ele>313.5</ele>
<speed>1.0</speed>
<course>115.2</course>
<desc>Speed 1.0 km/h Distance 4.57 km</desc>
<time>2010-02-21T11:01:41.04</time>
<name>3269</name>
</trkpt>
<trkpt lat="48.945085" lon="8.660163">
<ele>319.0</ele>
<speed>1.1</speed>
<course>120.4</course>
<desc>Speed 1.1 km/h Distance 4.58 km</desc>
<time>2010-02-21T11:01:44.04</time>
<name>3270</name>
</trkpt>
<trkpt lat="48.945077" lon="8.660185">
<ele>318.5</ele>
<speed>3.2</speed>
<course>134.1</course>
<desc>Speed 3.2 km/h Distance 4.58 km</desc>
<time>2010-02-21T11:01:45.04</time>
<name>3271</name>
</trkpt>
<trkpt lat="48.945065" lon="8.660203">
<ele>318.5</ele>
<speed>3.0</speed>
<course>136.5</course>
<desc>Speed 3.0 km/h Distance 4.58 km</desc>
<time>2010-02-21T11:01:46.04</time>
<name>3272</name>
</trkpt>
<trkpt lat="48.945050" lon="8.660225">
<ele>318.5</ele>
<speed>1.9</speed>
<course>128.3</course>
<desc>Speed 1.9 km/h Distance 4.59 km</desc>
<time>2010-02-21T11:01:47.04</time>
<name>3273</name>
</trkpt>
<trkpt lat="48.945027" lon="8.660270">
<ele>319.0</ele>
<speed>3.7</speed>
<course>116.9</course>
<desc>Speed 3.7 km/h Distance 4.59 km</desc>
<time>2010-02-21T11:01:49.04</time>
<name>3274</name>
</trkpt>
<trkpt lat="48.945022" lon="8.660285">
<ele>319.0</ele>
<speed>2.6</speed>
<course>137.4</course>
<desc>Speed 2.6 km/h Distance 4.59 km</desc>
<time>2010-02-21T11:01:50.04</time>
<name>3275</name>
</trkpt>
<trkpt lat="48.945005" lon="8.660308">
<ele>318.0</ele>
<speed>3.4</speed>
<course>130.9</course>
<desc>Speed 3.4 km/h Distance 4.60 km</desc>
<time>2010-02-21T11:01:51.04</time>
<name>3276</name>
</trkpt>
<trkpt lat="48.944998" lon="8.660320">
<ele>318.0</ele>
<speed>3.4</speed>
<course>141.6</course>
<desc>Speed 3.4 km/h Distance 4.60 km</desc>
<time>2010-02-21T11:01:52.04</time>
<name>3277</name>
</trkpt>
<trkpt lat="48.944990" lon="8.660330">
<ele>316.5</ele>
<speed>1.9</speed>
<course>139.2</course>
<desc>Speed 1.9 km/h Distance 4.60 km</desc>
<time>2010-02-21T11:01:53.04</time>
<name>3278</name>
</trkpt>
<trkpt lat="48.944963" lon="8.660365">
<ele>317.5</ele>
<speed>4.0</speed>
<course>152.5</course>
<desc>Speed 4.0 km/h Distance 4.60 km</desc>
<time>2010-02-21T11:01:55.04</time>
<name>3279</name>
</trkpt>
<trkpt lat="48.944955" lon="8.660372">
<ele>317.5</ele>
<speed>2.3</speed>
<course>131.4</course>
<desc>Speed 2.3 km/h Distance 4.60 km</desc>
<time>2010-02-21T11:01:56.04</time>
<name>3280</name>
</trkpt>
<trkpt lat="48.944918" lon="8.660435">
<ele>315.0</ele>
<speed>3.0</speed>
<course>149.8</course>
<desc>Speed 3.0 km/h Distance 4.61 km</desc>
<time>2010-02-21T11:01:58.04</time>
<name>3281</name>
</trkpt>
<trkpt lat="48.944903" lon="8.660448">
<ele>315.5</ele>
<speed>2.0</speed>
<course>141.9</course>
<desc>Speed 2.0 km/h Distance 4.61 km</desc>
<time>2010-02-21T11:01:59.57</time>
<name>3282</name>
</trkpt>
<trkpt lat="48.944895" lon="8.660458">
<ele>315.5</ele>
<speed>2.6</speed>
<course>172.6</course>
<desc>Speed 2.6 km/h Distance 4.61 km</desc>
<time>2010-02-21T11:02:00.56</time>
<name>3283</name>
</trkpt>
<trkpt lat="48.944888" lon="8.660460">
<ele>315.5</ele>
<speed>2.0</speed>
<course>146.8</course>
<desc>Speed 2.0 km/h Distance 4.61 km</desc>
<time>2010-02-21T11:02:01.56</time>
<name>3284</name>
</trkpt>
<trkpt lat="48.944880" lon="8.660468">
<ele>315.0</ele>
<speed>2.7</speed>
<course>172.6</course>
<desc>Speed 2.7 km/h Distance 4.61 km</desc>
<time>2010-02-21T11:02:02.56</time>
<name>3285</name>
</trkpt>
<trkpt lat="48.944873" lon="8.660470">
<ele>314.5</ele>
<speed>1.7</speed>
<course>153.6</course>
<desc>Speed 1.7 km/h Distance 4.61 km</desc>
<time>2010-02-21T11:02:03.56</time>
<name>3286</name>
</trkpt>
<trkpt lat="48.944867" lon="8.660475">
<ele>314.5</ele>
<speed>1.9</speed>
<course>127.3</course>
<desc>Speed 1.9 km/h Distance 4.62 km</desc>
<time>2010-02-21T11:02:04.56</time>
<name>3287</name>
</trkpt>
<trkpt lat="48.944858" lon="8.660492">
<ele>316.0</ele>
<speed>2.2</speed>
<course>132.6</course>
<desc>Speed 2.2 km/h Distance 4.62 km</desc>
<time>2010-02-21T11:02:05.56</time>
<name>3288</name>
</trkpt>
<trkpt lat="48.944853" lon="8.660500">
<ele>316.0</ele>
<speed>2.3</speed>
<course>131.3</course>
<desc>Speed 2.3 km/h Distance 4.62 km</desc>
<time>2010-02-21T11:02:06.56</time>
<name>3289</name>
</trkpt>
<trkpt lat="48.944847" lon="8.660512">
<ele>316.0</ele>
<speed>0.5</speed>
<course>132.4</course>
<desc>Speed 0.5 km/h Distance 4.62 km</desc>
<time>2010-02-21T11:02:07.56</time>
<name>3290</name>
</trkpt>
<trkpt lat="48.944822" lon="8.660553">
<ele>316.0</ele>
<speed>3.0</speed>
<course>129.3</course>
<desc>Speed 3.0 km/h Distance 4.62 km</desc>
<time>2010-02-21T11:02:09.57</time>
<name>3291</name>
</trkpt>
<trkpt lat="48.944810" lon="8.660575">
<ele>318.0</ele>
<speed>4.0</speed>
<course>141.9</course>
<desc>Speed 4.0 km/h Distance 4.62 km</desc>
<time>2010-02-21T11:02:10.56</time>
<name>3292</name>
</trkpt>
<trkpt lat="48.944802" lon="8.660585">
<ele>317.5</ele>
<speed>3.2</speed>
<course>138.6</course>
<desc>Speed 3.2 km/h Distance 4.63 km</desc>
<time>2010-02-21T11:02:11.56</time>
<name>3293</name>
</trkpt>
<trkpt lat="48.944792" lon="8.660598">
<ele>318.0</ele>
<speed>1.8</speed>
<course>146.3</course>
<desc>Speed 1.8 km/h Distance 4.63 km</desc>
<time>2010-02-21T11:02:12.56</time>
<name>3294</name>
</trkpt>
<trkpt lat="48.944788" lon="8.660602">
<ele>316.5</ele>
<speed>4.1</speed>
<course>127.0</course>
<desc>Speed 4.1 km/h Distance 4.63 km</desc>
<time>2010-02-21T11:02:13.56</time>
<name>3295</name>
</trkpt>
<trkpt lat="48.944785" lon="8.660608">
<ele>316.0</ele>
<speed>1.7</speed>
<course>134.7</course>
<desc>Speed 1.7 km/h Distance 4.63 km</desc>
<time>2010-02-21T11:02:14.56</time>
<name>3296</name>
</trkpt>
<trkpt lat="48.944738" lon="8.660680">
<ele>318.5</ele>
<speed>0.6</speed>
<course>146.8</course>
<desc>Speed 0.6 km/h Distance 4.64 km</desc>
<time>2010-02-21T11:02:16.56</time>
<name>3297</name>
</trkpt>
<trkpt lat="48.944730" lon="8.660688">
<ele>319.0</ele>
<speed>4.0</speed>
<course>129.7</course>
<desc>Speed 4.0 km/h Distance 4.64 km</desc>
<time>2010-02-21T11:02:17.56</time>
<name>3298</name>
</trkpt>
<trkpt lat="48.944720" lon="8.660707">
<ele>319.5</ele>
<speed>1.9</speed>
<course>157.8</course>
<desc>Speed 1.9 km/h Distance 4.64 km</desc>
<time>2010-02-21T11:02:18.56</time>
<name>3299</name>
</trkpt>
<trkpt lat="48.944715" lon="8.660710">
<ele>319.0</ele>
<speed>1.4</speed>
<course>146.3</course>
<desc>Speed 1.4 km/h Distance 4.64 km</desc>
<time>2010-02-21T11:02:19.56</time>
<name>3300</name>
</trkpt>
<trkpt lat="48.944708" lon="8.660717">
<ele>318.0</ele>
<speed>0.9</speed>
<course>135.5</course>
<desc>Speed 0.9 km/h Distance 4.64 km</desc>
<time>2010-02-21T11:02:20.56</time>
<name>3301</name>
</trkpt>
<trkpt lat="48.944705" lon="8.660722">
<ele>317.0</ele>
<speed>1.2</speed>
<course>121.1</course>
<desc>Speed 1.2 km/h Distance 4.64 km</desc>
<time>2010-02-21T11:02:21.56</time>
<name>3302</name>
</trkpt>
<trkpt lat="48.944702" lon="8.660730">
<ele>316.0</ele>
<speed>0.8</speed>
<course>131.6</course>
<desc>Speed 0.8 km/h Distance 4.64 km</desc>
<time>2010-02-21T11:02:22.55</time>
<name>3303</name>
</trkpt>
<trkpt lat="48.944690" lon="8.660750">
<ele>315.5</ele>
<speed>1.8</speed>
<course>121.3</course>
<desc>Speed 1.8 km/h Distance 4.64 km</desc>
<time>2010-02-21T11:02:23.56</time>
<name>3304</name>
</trkpt>
<trkpt lat="48.944683" lon="8.660767">
<ele>314.5</ele>
<speed>3.0</speed>
<course>138.8</course>
<desc>Speed 3.0 km/h Distance 4.64 km</desc>
<time>2010-02-21T11:02:24.56</time>
<name>3305</name>
</trkpt>
<trkpt lat="48.944673" lon="8.660780">
<ele>312.0</ele>
<speed>3.6</speed>
<course>165.1</course>
<desc>Speed 3.6 km/h Distance 4.65 km</desc>
<time>2010-02-21T11:02:25.56</time>
<name>3306</name>
</trkpt>
<trkpt lat="48.944665" lon="8.660783">
<ele>311.5</ele>
<speed>2.3</speed>
<course>167.4</course>
<desc>Speed 2.3 km/h Distance 4.65 km</desc>
<time>2010-02-21T11:02:26.55</time>
<name>3307</name>
</trkpt>
<trkpt lat="48.944660" lon="8.660785">
<ele>310.5</ele>
<speed>1.3</speed>
<course>142.5</course>
<desc>Speed 1.3 km/h Distance 4.65 km</desc>
<time>2010-02-21T11:02:27.56</time>
<name>3308</name>
</trkpt>
<trkpt lat="48.944650" lon="8.660797">
<ele>312.0</ele>
<speed>2.4</speed>
<course>127.3</course>
<desc>Speed 2.4 km/h Distance 4.65 km</desc>
<time>2010-02-21T11:02:28.56</time>
<name>3309</name>
</trkpt>
<trkpt lat="48.944643" lon="8.660810">
<ele>312.0</ele>
<speed>2.4</speed>
<course>133.5</course>
<desc>Speed 2.4 km/h Distance 4.65 km</desc>
<time>2010-02-21T11:02:29.55</time>
<name>3310</name>
</trkpt>
<trkpt lat="48.944635" lon="8.660823">
<ele>312.0</ele>
<speed>1.0</speed>
<course>146.8</course>
<desc>Speed 1.0 km/h Distance 4.65 km</desc>
<time>2010-02-21T11:02:30.55</time>
<name>3311</name>
</trkpt>
<trkpt lat="48.944625" lon="8.660833">
<ele>311.5</ele>
<speed>3.7</speed>
<course>127.6</course>
<desc>Speed 3.7 km/h Distance 4.65 km</desc>
<time>2010-02-21T11:02:31.55</time>
<name>3312</name>
</trkpt>
<trkpt lat="48.944622" lon="8.660840">
<ele>310.5</ele>
<speed>1.5</speed>
<course>104.4</course>
<desc>Speed 1.5 km/h Distance 4.65 km</desc>
<time>2010-02-21T11:02:32.55</time>
<name>3313</name>
</trkpt>
<trkpt lat="48.944620" lon="8.660850">
<ele>310.0</ele>
<speed>1.7</speed>
<course>121.3</course>
<desc>Speed 1.7 km/h Distance 4.65 km</desc>
<time>2010-02-21T11:02:33.56</time>
<name>3314</name>
</trkpt>
<trkpt lat="48.944613" lon="8.660867">
<ele>309.5</ele>
<speed>2.3</speed>
<course>118.6</course>
<desc>Speed 2.3 km/h Distance 4.66 km</desc>
<time>2010-02-21T11:02:34.55</time>
<name>3315</name>
</trkpt>
<trkpt lat="48.944605" lon="8.660890">
<ele>311.0</ele>
<speed>2.2</speed>
<course>130.6</course>
<desc>Speed 2.2 km/h Distance 4.66 km</desc>
<time>2010-02-21T11:02:35.56</time>
<name>3316</name>
</trkpt>
<trkpt lat="48.944590" lon="8.660917">
<ele>315.0</ele>
<speed>3.5</speed>
<course>112.6</course>
<desc>Speed 3.5 km/h Distance 4.66 km</desc>
<time>2010-02-21T11:02:36.55</time>
<name>3317</name>
</trkpt>
<trkpt lat="48.944580" lon="8.660953">
<ele>317.5</ele>
<speed>1.6</speed>
<course>122.4</course>
<desc>Speed 1.6 km/h Distance 4.66 km</desc>
<time>2010-02-21T11:02:37.55</time>
<name>3318</name>
</trkpt>
<trkpt lat="48.944572" lon="8.660973">
<ele>318.0</ele>
<speed>3.1</speed>
<course>115.1</course>
<desc>Speed 3.1 km/h Distance 4.67 km</desc>
<time>2010-02-21T11:02:38.55</time>
<name>3319</name>
</trkpt>
<trkpt lat="48.944565" lon="8.660995">
<ele>319.0</ele>
<speed>2.7</speed>
<course>138.8</course>
<desc>Speed 2.7 km/h Distance 4.67 km</desc>
<time>2010-02-21T11:02:39.55</time>
<name>3320</name>
</trkpt>
<trkpt lat="48.944530" lon="8.661042">
<ele>321.5</ele>
<speed>0.6</speed>
<course>125.3</course>
<desc>Speed 0.6 km/h Distance 4.67 km</desc>
<time>2010-02-21T11:02:41.55</time>
<name>3321</name>
</trkpt>
<trkpt lat="48.944508" lon="8.661088">
<ele>319.0</ele>
<speed>2.9</speed>
<course>132.4</course>
<desc>Speed 2.9 km/h Distance 4.68 km</desc>
<time>2010-02-21T11:02:43.55</time>
<name>3322</name>
</trkpt>
<trkpt lat="48.944478" lon="8.661138">
<ele>320.5</ele>
<speed>1.5</speed>
<course>121.4</course>
<desc>Speed 1.5 km/h Distance 4.68 km</desc>
<time>2010-02-21T11:02:45.55</time>
<name>3323</name>
</trkpt>
<trkpt lat="48.944472" lon="8.661155">
<ele>318.0</ele>
<speed>2.1</speed>
<course>117.4</course>
<desc>Speed 2.1 km/h Distance 4.68 km</desc>
<time>2010-02-21T11:02:46.54</time>
<name>3324</name>
</trkpt>
<trkpt lat="48.944470" lon="8.661160">
<ele>317.5</ele>
<speed>1.0</speed>
<course>127.0</course>
<desc>Speed 1.0 km/h Distance 4.68 km</desc>
<time>2010-02-21T11:02:47.55</time>
<name>3325</name>
</trkpt>
<trkpt lat="48.944467" lon="8.661167">
<ele>316.0</ele>
<speed>0.9</speed>
<course>146.7</course>
<desc>Speed 0.9 km/h Distance 4.68 km</desc>
<time>2010-02-21T11:02:48.54</time>
<name>3326</name>
</trkpt>
<trkpt lat="48.944452" lon="8.661182">
<ele>317.0</ele>
<speed>6.7</speed>
<course>113.5</course>
<desc>Speed 6.7 km/h Distance 4.69 km</desc>
<time>2010-02-21T11:02:49.54</time>
<name>3327</name>
</trkpt>
<trkpt lat="48.944448" lon="8.661193">
<ele>316.0</ele>
<speed>1.2</speed>
<course>119.7</course>
<desc>Speed 1.2 km/h Distance 4.69 km</desc>
<time>2010-02-21T11:02:50.54</time>
<name>3328</name>
</trkpt>
<trkpt lat="48.944443" lon="8.661207">
<ele>316.0</ele>
<speed>0.6</speed>
<course>120.3</course>
<desc>Speed 0.6 km/h Distance 4.69 km</desc>
<time>2010-02-21T11:02:51.54</time>
<name>3329</name>
</trkpt>
<trkpt lat="48.944435" lon="8.661228">
<ele>316.5</ele>
<speed>2.4</speed>
<course>175.3</course>
<desc>Speed 2.4 km/h Distance 4.69 km</desc>
<time>2010-02-21T11:02:52.54</time>
<name>3330</name>
</trkpt>
<trkpt lat="48.944423" lon="8.661230">
<ele>316.5</ele>
<speed>1.7</speed>
<course>107.0</course>
<desc>Speed 1.7 km/h Distance 4.69 km</desc>
<time>2010-02-21T11:02:53.54</time>
<name>3331</name>
</trkpt>
<trkpt lat="48.944420" lon="8.661247">
<ele>315.5</ele>
<speed>3.3</speed>
<course>141.9</course>
<desc>Speed 3.3 km/h Distance 4.69 km</desc>
<time>2010-02-21T11:02:54.54</time>
<name>3332</name>
</trkpt>
<trkpt lat="48.944412" lon="8.661257">
<ele>315.5</ele>
<speed>2.3</speed>
<course>151.4</course>
<desc>Speed 2.3 km/h Distance 4.69 km</desc>
<time>2010-02-21T11:02:55.54</time>
<name>3333</name>
</trkpt>
<trkpt lat="48.944402" lon="8.661265">
<ele>316.5</ele>
<speed>3.0</speed>
<course>168.8</course>
<desc>Speed 3.0 km/h Distance 4.69 km</desc>
<time>2010-02-21T11:02:56.54</time>
<name>3334</name>
</trkpt>
<trkpt lat="48.944390" lon="8.661268">
<ele>317.5</ele>
<speed>2.5</speed>
<course>146.8</course>
<desc>Speed 2.5 km/h Distance 4.70 km</desc>
<time>2010-02-21T11:02:57.54</time>
<name>3335</name>
</trkpt>
<trkpt lat="48.944383" lon="8.661275">
<ele>317.5</ele>
<speed>2.8</speed>
<course>139.1</course>
<desc>Speed 2.8 km/h Distance 4.70 km</desc>
<time>2010-02-21T11:02:58.54</time>
<name>3336</name>
</trkpt>
<trkpt lat="48.944378" lon="8.661282">
<ele>317.5</ele>
<speed>2.8</speed>
<course>158.5</course>
<desc>Speed 2.8 km/h Distance 4.70 km</desc>
<time>2010-02-21T11:02:59.54</time>
<name>3337</name>
</trkpt>
<trkpt lat="48.944370" lon="8.661287">
<ele>318.0</ele>
<speed>2.0</speed>
<course>180.0</course>
<desc>Speed 2.0 km/h Distance 4.70 km</desc>
<time>2010-02-21T11:03:00.54</time>
<name>3338</name>
</trkpt>
<trkpt lat="48.944360" lon="8.661287">
<ele>318.5</ele>
<speed>1.8</speed>
<course>146.7</course>
<desc>Speed 1.8 km/h Distance 4.70 km</desc>
<time>2010-02-21T11:03:01.54</time>
<name>3339</name>
</trkpt>
<trkpt lat="48.944342" lon="8.661305">
<ele>319.5</ele>
<speed>6.0</speed>
<course>127.4</course>
<desc>Speed 6.0 km/h Distance 4.70 km</desc>
<time>2010-02-21T11:03:02.54</time>
<name>3340</name>
</trkpt>
<trkpt lat="48.944337" lon="8.661315">
<ele>318.5</ele>
<speed>1.5</speed>
<course>129.7</course>
<desc>Speed 1.5 km/h Distance 4.70 km</desc>
<time>2010-02-21T11:03:03.54</time>
<name>3341</name>
</trkpt>
<trkpt lat="48.944327" lon="8.661333">
<ele>318.0</ele>
<speed>3.1</speed>
<course>171.2</course>
<desc>Speed 3.1 km/h Distance 4.70 km</desc>
<time>2010-02-21T11:03:04.54</time>
<name>3342</name>
</trkpt>
<trkpt lat="48.944312" lon="8.661337">
<ele>318.0</ele>
<speed>1.5</speed>
<course>177.5</course>
<desc>Speed 1.5 km/h Distance 4.71 km</desc>
<time>2010-02-21T11:03:05.54</time>
<name>3343</name>
</trkpt>
<trkpt lat="48.944293" lon="8.661337">
<ele>318.0</ele>
<speed>1.4</speed>
<course>165.1</course>
<desc>Speed 1.4 km/h Distance 4.71 km</desc>
<time>2010-02-21T11:03:06.53</time>
<name>3344</name>
</trkpt>
<trkpt lat="48.944285" lon="8.661340">
<ele>317.0</ele>
<speed>1.4</speed>
<course>130.2</course>
<desc>Speed 1.4 km/h Distance 4.71 km</desc>
<time>2010-02-21T11:03:07.54</time>
<name>3345</name>
</trkpt>
<trkpt lat="48.944277" lon="8.661355">
<ele>315.5</ele>
<speed>2.2</speed>
<course>146.8</course>
<desc>Speed 2.2 km/h Distance 4.71 km</desc>
<time>2010-02-21T11:03:08.54</time>
<name>3346</name>
</trkpt>
<trkpt lat="48.944270" lon="8.661362">
<ele>314.5</ele>
<speed>2.1</speed>
<course>135.5</course>
<desc>Speed 2.1 km/h Distance 4.71 km</desc>
<time>2010-02-21T11:03:09.54</time>
<name>3347</name>
</trkpt>
<trkpt lat="48.944263" lon="8.661372">
<ele>314.5</ele>
<speed>2.6</speed>
<course>117.4</course>
<desc>Speed 2.6 km/h Distance 4.71 km</desc>
<time>2010-02-21T11:03:10.54</time>
<name>3348</name>
</trkpt>
<trkpt lat="48.944262" lon="8.661377">
<ele>314.5</ele>
<speed>0.2</speed>
<course>117.0</course>
<desc>Speed 0.2 km/h Distance 4.71 km</desc>
<time>2010-02-21T11:03:11.53</time>
<name>3349</name>
</trkpt>
<trkpt lat="48.944258" lon="8.661387">
<ele>314.0</ele>
<speed>0.8</speed>
<course>180.0</course>
<desc>Speed 0.8 km/h Distance 4.71 km</desc>
<time>2010-02-21T11:03:12.53</time>
<name>3350</name>
</trkpt>
<trkpt lat="48.944257" lon="8.661387">
<ele>314.5</ele>
<speed>0.4</speed>
<course>117.4</course>
<desc>Speed 0.4 km/h Distance 4.71 km</desc>
<time>2010-02-21T11:03:13.53</time>
<name>3351</name>
</trkpt>
<trkpt lat="48.944255" lon="8.661392">
<ele>315.0</ele>
<speed>0.6</speed>
<course>180.0</course>
<desc>Speed 0.6 km/h Distance 4.71 km</desc>
<time>2010-02-21T11:03:14.53</time>
<name>3352</name>
</trkpt>
<trkpt lat="48.944252" lon="8.661392">
<ele>315.0</ele>
<speed>0.3</speed>
<course>117.4</course>
<desc>Speed 0.3 km/h Distance 4.71 km</desc>
<time>2010-02-21T11:03:15.53</time>
<name>3353</name>
</trkpt>
<trkpt lat="48.944250" lon="8.661397">
<ele>315.0</ele>
<speed>0.4</speed>
<course>135.5</course>
<desc>Speed 0.4 km/h Distance 4.72 km</desc>
<time>2010-02-21T11:03:16.52</time>
<name>3354</name>
</trkpt>
<trkpt lat="48.944247" lon="8.661402">
<ele>315.0</ele>
<speed>0.8</speed>
<course>156.2</course>
<desc>Speed 0.8 km/h Distance 4.72 km</desc>
<time>2010-02-21T11:03:17.55</time>
<name>3355</name>
</trkpt>
<trkpt lat="48.944242" lon="8.661405">
<ele>316.0</ele>
<speed>0.6</speed>
<course>217.2</course>
<desc>Speed 0.6 km/h Distance 4.72 km</desc>
<time>2010-02-21T11:03:18.53</time>
<name>3356</name>
</trkpt>
<trkpt lat="48.944240" lon="8.661403">
<ele>315.5</ele>
<speed>0.5</speed>
<course>106.7</course>
<desc>Speed 0.5 km/h Distance 4.72 km</desc>
<time>2010-02-21T11:03:19.53</time>
<name>3357</name>
</trkpt>
<trkpt lat="48.944238" lon="8.661412">
<ele>316.0</ele>
<speed>0.1</speed>
<course>157.0</course>
<desc>Speed 0.1 km/h Distance 4.72 km</desc>
<time>2010-02-21T11:03:20.53</time>
<name>3358</name>
</trkpt>
<trkpt lat="48.944235" lon="8.661413">
<ele>316.0</ele>
<speed>0.3</speed>
<course>116.8</course>
<desc>Speed 0.3 km/h Distance 4.72 km</desc>
<time>2010-02-21T11:03:21.55</time>
<name>3359</name>
</trkpt>
<trkpt lat="48.944232" lon="8.661423">
<ele>315.5</ele>
<speed>0.4</speed>
<course>90.0</course>
<desc>Speed 0.4 km/h Distance 4.72 km</desc>
<time>2010-02-21T11:03:22.53</time>
<name>3360</name>
</trkpt>
<trkpt lat="48.944232" lon="8.661425">
<ele>315.5</ele>
<speed>0.0</speed>
<course>157.0</course>
<desc>Speed 0.0 km/h Distance 4.72 km</desc>
<time>2010-02-21T11:03:23.53</time>
<name>3361</name>
</trkpt>
<trkpt lat="48.944228" lon="8.661427">
<ele>316.5</ele>
<speed>0.9</speed>
<course>90.0</course>
<desc>Speed 0.9 km/h Distance 4.72 km</desc>
<time>2010-02-21T11:03:24.55</time>
<name>3362</name>
</trkpt>
<trkpt lat="48.944228" lon="8.661432">
<ele>316.5</ele>
<speed>0.2</speed>
<course>127.0</course>
<desc>Speed 0.2 km/h Distance 4.72 km</desc>
<time>2010-02-21T11:03:25.52</time>
<name>3363</name>
</trkpt>
<trkpt lat="48.944225" lon="8.661438">
<ele>316.5</ele>
<speed>0.4</speed>
<course>12.6</course>
<desc>Speed 0.4 km/h Distance 4.72 km</desc>
<time>2010-02-21T11:03:26.52</time>
<name>3364</name>
</trkpt>
<trkpt lat="48.944227" lon="8.661438">
<ele>316.5</ele>
<speed>0.1</speed>
<course>90.0</course>
<desc>Speed 0.1 km/h Distance 4.72 km</desc>
<time>2010-02-21T11:03:27.53</time>
<name>3365</name>
</trkpt>
<trkpt lat="48.944227" lon="8.661440">
<ele>316.5</ele>
<speed>0.2</speed>
<course>142.8</course>
<desc>Speed 0.2 km/h Distance 4.72 km</desc>
<time>2010-02-21T11:03:28.53</time>
<name>3366</name>
</trkpt>
<trkpt lat="48.944225" lon="8.661442">
<ele>317.0</ele>
<speed>0.0</speed>
<course>90.0</course>
<desc>Speed 0.0 km/h Distance 4.72 km</desc>
<time>2010-02-21T11:03:29.56</time>
<name>3367</name>
</trkpt>
<trkpt lat="48.944225" lon="8.661443">
<ele>317.0</ele>
<speed>0.2</speed>
<course>90.0</course>
<desc>Speed 0.2 km/h Distance 4.72 km</desc>
<time>2010-02-21T11:03:30.52</time>
<name>3368</name>
</trkpt>
<trkpt lat="48.944225" lon="8.661447">
<ele>317.5</ele>
<speed>0.1</speed>
<course>90.0</course>
<desc>Speed 0.1 km/h Distance 4.72 km</desc>
<time>2010-02-21T11:03:31.53</time>
<name>3369</name>
</trkpt>
<trkpt lat="48.944225" lon="8.661450">
<ele>317.5</ele>
<speed>0.0</speed>
<course>90.0</course>
<desc>Speed 0.0 km/h Distance 4.72 km</desc>
<time>2010-02-21T11:03:32.52</time>
<name>3370</name>
</trkpt>
<trkpt lat="48.944225" lon="8.661453">
<ele>318.0</ele>
<speed>0.3</speed>
<course>90.0</course>
<desc>Speed 0.3 km/h Distance 4.72 km</desc>
<time>2010-02-21T11:03:33.52</time>
<name>3371</name>
</trkpt>
<trkpt lat="48.944225" lon="8.661457">
<ele>318.0</ele>
<speed>0.4</speed>
<course>90.0</course>
<desc>Speed 0.4 km/h Distance 4.72 km</desc>
<time>2010-02-21T11:03:34.53</time>
<name>3372</name>
</trkpt>
<trkpt lat="48.944225" lon="8.661458">
<ele>318.5</ele>
<speed>0.2</speed>
<course>90.0</course>
<desc>Speed 0.2 km/h Distance 4.72 km</desc>
<time>2010-02-21T11:03:35.53</time>
<name>3373</name>
</trkpt>
<trkpt lat="48.944225" lon="8.661460">
<ele>319.0</ele>
<speed>0.3</speed>
<course>110.9</course>
<desc>Speed 0.3 km/h Distance 4.72 km</desc>
<time>2010-02-21T11:03:36.53</time>
<name>3374</name>
</trkpt>
<trkpt lat="48.944223" lon="8.661467">
<ele>320.0</ele>
<speed>0.8</speed>
<course>110.9</course>
<desc>Speed 0.8 km/h Distance 4.72 km</desc>
<time>2010-02-21T11:03:37.53</time>
<name>3375</name>
</trkpt>
<trkpt lat="48.944223" lon="8.661467">
<ele>320.0</ele>
<speed>0.1</speed>
<course>110.9</course>
<desc>Speed 0.1 km/h Distance 4.72 km</desc>
<time>2010-02-21T11:03:38.53</time>
<name>3376</name>
</trkpt>
<trkpt lat="48.944223" lon="8.661467">
<ele>320.5</ele>
<speed>0.3</speed>
<course>106.7</course>
<desc>Speed 0.3 km/h Distance 4.72 km</desc>
<time>2010-02-21T11:03:39.53</time>
<name>3377</name>
</trkpt>
<trkpt lat="48.944222" lon="8.661475">
<ele>320.5</ele>
<speed>0.6</speed>
<course>106.7</course>
<desc>Speed 0.6 km/h Distance 4.72 km</desc>
<time>2010-02-21T11:03:40.53</time>
<name>3378</name>
</trkpt>
<trkpt lat="48.944222" lon="8.661475">
<ele>320.5</ele>
<speed>0.3</speed>
<course>132.2</course>
<desc>Speed 0.3 km/h Distance 4.72 km</desc>
<time>2010-02-21T11:03:41.53</time>
<name>3379</name>
</trkpt>
<trkpt lat="48.944217" lon="8.661483">
<ele>320.5</ele>
<speed>0.5</speed>
<course>167.4</course>
<desc>Speed 0.5 km/h Distance 4.72 km</desc>
<time>2010-02-21T11:03:42.52</time>
<name>3380</name>
</trkpt>
<trkpt lat="48.944215" lon="8.661483">
<ele>320.5</ele>
<speed>0.1</speed>
<course>161.2</course>
<desc>Speed 0.1 km/h Distance 4.72 km</desc>
<time>2010-02-21T11:03:43.53</time>
<name>3381</name>
</trkpt>
<trkpt lat="48.944212" lon="8.661485">
<ele>320.5</ele>
<speed>0.9</speed>
<course>126.1</course>
<desc>Speed 0.9 km/h Distance 4.72 km</desc>
<time>2010-02-21T11:03:44.51</time>
<name>3382</name>
</trkpt>
<trkpt lat="48.944210" lon="8.661488">
<ele>321.0</ele>
<speed>0.7</speed>
<course>138.1</course>
<desc>Speed 0.7 km/h Distance 4.72 km</desc>
<time>2010-02-21T11:03:45.52</time>
<name>3383</name>
</trkpt>
<trkpt lat="48.944205" lon="8.661495">
<ele>320.0</ele>
<speed>0.8</speed>
<course>121.4</course>
<desc>Speed 0.8 km/h Distance 4.73 km</desc>
<time>2010-02-21T11:03:46.52</time>
<name>3384</name>
</trkpt>
<trkpt lat="48.944202" lon="8.661503">
<ele>321.0</ele>
<speed>0.1</speed>
<course>167.4</course>
<desc>Speed 0.1 km/h Distance 4.73 km</desc>
<time>2010-02-21T11:03:47.52</time>
<name>3385</name>
</trkpt>
<trkpt lat="48.944200" lon="8.661505">
<ele>321.0</ele>
<speed>0.2</speed>
<course>113.5</course>
<desc>Speed 0.2 km/h Distance 4.73 km</desc>
<time>2010-02-21T11:03:48.52</time>
<name>3386</name>
</trkpt>
<trkpt lat="48.944197" lon="8.661517">
<ele>322.0</ele>
<speed>0.3</speed>
<course>117.4</course>
<desc>Speed 0.3 km/h Distance 4.73 km</desc>
<time>2010-02-21T11:03:49.52</time>
<name>3387</name>
</trkpt>
<trkpt lat="48.944195" lon="8.661522">
<ele>322.5</ele>
<speed>0.1</speed>
<course>161.2</course>
<desc>Speed 0.1 km/h Distance 4.73 km</desc>
<time>2010-02-21T11:03:50.52</time>
<name>3388</name>
</trkpt>
<trkpt lat="48.944192" lon="8.661523">
<ele>322.0</ele>
<speed>0.2</speed>
<course>113.6</course>
<desc>Speed 0.2 km/h Distance 4.73 km</desc>
<time>2010-02-21T11:03:51.52</time>
<name>3389</name>
</trkpt>
<trkpt lat="48.944188" lon="8.661535">
<ele>323.5</ele>
<speed>0.4</speed>
<course>121.4</course>
<desc>Speed 0.4 km/h Distance 4.73 km</desc>
<time>2010-02-21T11:03:52.55</time>
<name>3390</name>
</trkpt>
<trkpt lat="48.944185" lon="8.661543">
<ele>324.0</ele>
<speed>0.4</speed>
<course>121.4</course>
<desc>Speed 0.4 km/h Distance 4.73 km</desc>
<time>2010-02-21T11:03:53.52</time>
<name>3391</name>
</trkpt>
<trkpt lat="48.944182" lon="8.661552">
<ele>325.0</ele>
<speed>0.2</speed>
<course>90.0</course>
<desc>Speed 0.2 km/h Distance 4.73 km</desc>
<time>2010-02-21T11:03:54.55</time>
<name>3392</name>
</trkpt>
<trkpt lat="48.944182" lon="8.661553">
<ele>325.5</ele>
<speed>0.1</speed>
<course>90.0</course>
<desc>Speed 0.1 km/h Distance 4.73 km</desc>
<time>2010-02-21T11:03:55.52</time>
<name>3393</name>
</trkpt>
<trkpt lat="48.944182" lon="8.661553">
<ele>325.5</ele>
<speed>0.4</speed>
<course>150.8</course>
<desc>Speed 0.4 km/h Distance 4.73 km</desc>
<time>2010-02-21T11:03:56.55</time>
<name>3394</name>
</trkpt>
<trkpt lat="48.944180" lon="8.661555">
<ele>325.5</ele>
<speed>0.3</speed>
<course>130.6</course>
<desc>Speed 0.3 km/h Distance 4.73 km</desc>
<time>2010-02-21T11:03:57.51</time>
<name>3395</name>
</trkpt>
<trkpt lat="48.944178" lon="8.661558">
<ele>325.5</ele>
<speed>0.4</speed>
<course>130.6</course>
<desc>Speed 0.4 km/h Distance 4.73 km</desc>
<time>2010-02-21T11:03:58.52</time>
<name>3396</name>
</trkpt>
<trkpt lat="48.944178" lon="8.661558">
<ele>325.5</ele>
<speed>0.4</speed>
<course>128.1</course>
<desc>Speed 0.4 km/h Distance 4.73 km</desc>
<time>2010-02-21T11:03:59.54</time>
<name>3397</name>
</trkpt>
<trkpt lat="48.944177" lon="8.661562">
<ele>326.0</ele>
<speed>0.2</speed>
<course>128.1</course>
<desc>Speed 0.2 km/h Distance 4.73 km</desc>
<time>2010-02-21T11:04:00.51</time>
<name>3398</name>
</trkpt>
<trkpt lat="48.944177" lon="8.661562">
<ele>326.0</ele>
<speed>0.4</speed>
<course>128.1</course>
<desc>Speed 0.4 km/h Distance 4.73 km</desc>
<time>2010-02-21T11:04:01.51</time>
<name>3399</name>
</trkpt>
<trkpt lat="48.944177" lon="8.661562">
<ele>326.0</ele>
<speed>0.3</speed>
<course>90.0</course>
<desc>Speed 0.3 km/h Distance 4.73 km</desc>
<time>2010-02-21T11:04:02.54</time>
<name>3400</name>
</trkpt>
<trkpt lat="48.944177" lon="8.661563">
<ele>326.0</ele>
<speed>0.4</speed>
<course>217.2</course>
<desc>Speed 0.4 km/h Distance 4.73 km</desc>
<time>2010-02-21T11:04:03.51</time>
<name>3401</name>
</trkpt>
<trkpt lat="48.944175" lon="8.661562">
<ele>326.0</ele>
<speed>0.1</speed>
<course>90.0</course>
<desc>Speed 0.1 km/h Distance 4.73 km</desc>
<time>2010-02-21T11:04:04.51</time>
<name>3402</name>
</trkpt>
<trkpt lat="48.944175" lon="8.661563">
<ele>326.0</ele>
<speed>0.6</speed>
<course>90.0</course>
<desc>Speed 0.6 km/h Distance 4.73 km</desc>
<time>2010-02-21T11:04:05.54</time>
<name>3403</name>
</trkpt>
<trkpt lat="48.944175" lon="8.661563">
<ele>326.5</ele>
<speed>0.5</speed>
<course>147.7</course>
<desc>Speed 0.5 km/h Distance 4.73 km</desc>
<time>2010-02-21T11:04:06.51</time>
<name>3404</name>
</trkpt>
<trkpt lat="48.944170" lon="8.661568">
<ele>326.0</ele>
<speed>1.5</speed>
<course>117.4</course>
<desc>Speed 1.5 km/h Distance 4.73 km</desc>
<time>2010-02-21T11:04:07.51</time>
<name>3405</name>
</trkpt>
<trkpt lat="48.944168" lon="8.661573">
<ele>326.0</ele>
<speed>0.4</speed>
<course>135.5</course>
<desc>Speed 0.4 km/h Distance 4.73 km</desc>
<time>2010-02-21T11:04:08.51</time>
<name>3406</name>
</trkpt>
<trkpt lat="48.944162" lon="8.661583">
<ele>327.0</ele>
<speed>1.4</speed>
<course>152.1</course>
<desc>Speed 1.4 km/h Distance 4.73 km</desc>
<time>2010-02-21T11:04:09.52</time>
<name>3407</name>
</trkpt>
<trkpt lat="48.944153" lon="8.661590">
<ele>328.0</ele>
<speed>1.5</speed>
<course>167.4</course>
<desc>Speed 1.5 km/h Distance 4.74 km</desc>
<time>2010-02-21T11:04:10.51</time>
<name>3408</name>
</trkpt>
<trkpt lat="48.944143" lon="8.661593">
<ele>329.0</ele>
<speed>1.5</speed>
<course>150.0</course>
<desc>Speed 1.5 km/h Distance 4.74 km</desc>
<time>2010-02-21T11:04:11.51</time>
<name>3409</name>
</trkpt>
<trkpt lat="48.944130" lon="8.661605">
<ele>330.5</ele>
<speed>2.8</speed>
<course>153.6</course>
<desc>Speed 2.8 km/h Distance 4.74 km</desc>
<time>2010-02-21T11:04:12.51</time>
<name>3410</name>
</trkpt>
<trkpt lat="48.944123" lon="8.661610">
<ele>330.5</ele>
<speed>0.9</speed>
<course>123.3</course>
<desc>Speed 0.9 km/h Distance 4.74 km</desc>
<time>2010-02-21T11:04:13.51</time>
<name>3411</name>
</trkpt>
<trkpt lat="48.944118" lon="8.661622">
<ele>330.5</ele>
<speed>2.4</speed>
<course>104.2</course>
<desc>Speed 2.4 km/h Distance 4.74 km</desc>
<time>2010-02-21T11:04:14.51</time>
<name>3412</name>
</trkpt>
<trkpt lat="48.944117" lon="8.661632">
<ele>330.5</ele>
<speed>2.1</speed>
<course>119.0</course>
<desc>Speed 2.1 km/h Distance 4.74 km</desc>
<time>2010-02-21T11:04:15.51</time>
<name>3413</name>
</trkpt>
<trkpt lat="48.944110" lon="8.661650">
<ele>330.5</ele>
<speed>2.5</speed>
<course>167.4</course>
<desc>Speed 2.5 km/h Distance 4.74 km</desc>
<time>2010-02-21T11:04:16.51</time>
<name>3414</name>
</trkpt>
<trkpt lat="48.944107" lon="8.661652">
<ele>331.0</ele>
<speed>0.5</speed>
<course>127.3</course>
<desc>Speed 0.5 km/h Distance 4.74 km</desc>
<time>2010-02-21T11:04:17.50</time>
<name>3415</name>
</trkpt>
<trkpt lat="48.944100" lon="8.661665">
<ele>330.5</ele>
<speed>0.6</speed>
<course>121.9</course>
<desc>Speed 0.6 km/h Distance 4.74 km</desc>
<time>2010-02-21T11:04:18.51</time>
<name>3416</name>
</trkpt>
<trkpt lat="48.944085" lon="8.661702">
<ele>329.0</ele>
<speed>1.4</speed>
<course>119.0</course>
<desc>Speed 1.4 km/h Distance 4.75 km</desc>
<time>2010-02-21T11:04:20.50</time>
<name>3417</name>
</trkpt>
<trkpt lat="48.944078" lon="8.661720">
<ele>327.5</ele>
<speed>2.3</speed>
<course>124.0</course>
<desc>Speed 2.3 km/h Distance 4.75 km</desc>
<time>2010-02-21T11:04:21.51</time>
<name>3418</name>
</trkpt>
<trkpt lat="48.944065" lon="8.661750">
<ele>328.0</ele>
<speed>2.8</speed>
<course>117.0</course>
<desc>Speed 2.8 km/h Distance 4.75 km</desc>
<time>2010-02-21T11:04:22.50</time>
<name>3419</name>
</trkpt>
<trkpt lat="48.944062" lon="8.661760">
<ele>328.0</ele>
<speed>2.2</speed>
<course>123.1</course>
<desc>Speed 2.2 km/h Distance 4.75 km</desc>
<time>2010-02-21T11:04:23.50</time>
<name>3420</name>
</trkpt>
<trkpt lat="48.944042" lon="8.661807">
<ele>332.0</ele>
<speed>2.7</speed>
<course>119.0</course>
<desc>Speed 2.7 km/h Distance 4.76 km</desc>
<time>2010-02-21T11:04:25.50</time>
<name>3421</name>
</trkpt>
<trkpt lat="48.944035" lon="8.661825">
<ele>332.0</ele>
<speed>2.7</speed>
<course>124.7</course>
<desc>Speed 2.7 km/h Distance 4.76 km</desc>
<time>2010-02-21T11:04:26.50</time>
<name>3422</name>
</trkpt>
<trkpt lat="48.944027" lon="8.661843">
<ele>331.0</ele>
<speed>2.9</speed>
<course>135.5</course>
<desc>Speed 2.9 km/h Distance 4.76 km</desc>
<time>2010-02-21T11:04:27.50</time>
<name>3423</name>
</trkpt>
<trkpt lat="48.944020" lon="8.661853">
<ele>332.0</ele>
<speed>3.3</speed>
<course>171.9</course>
<desc>Speed 3.3 km/h Distance 4.76 km</desc>
<time>2010-02-21T11:04:28.50</time>
<name>3424</name>
</trkpt>
<trkpt lat="48.944015" lon="8.661855">
<ele>331.0</ele>
<speed>2.4</speed>
<course>161.2</course>
<desc>Speed 2.4 km/h Distance 4.76 km</desc>
<time>2010-02-21T11:04:29.50</time>
<name>3425</name>
</trkpt>
<trkpt lat="48.944008" lon="8.661858">
<ele>331.0</ele>
<speed>2.2</speed>
<course>167.4</course>
<desc>Speed 2.2 km/h Distance 4.76 km</desc>
<time>2010-02-21T11:04:30.50</time>
<name>3426</name>
</trkpt>
<trkpt lat="48.944003" lon="8.661860">
<ele>331.0</ele>
<speed>1.5</speed>
<course>146.8</course>
<desc>Speed 1.5 km/h Distance 4.76 km</desc>
<time>2010-02-21T11:04:31.50</time>
<name>3427</name>
</trkpt>
<trkpt lat="48.943993" lon="8.661870">
<ele>329.5</ele>
<speed>1.7</speed>
<course>137.7</course>
<desc>Speed 1.7 km/h Distance 4.76 km</desc>
<time>2010-02-21T11:04:32.50</time>
<name>3428</name>
</trkpt>
<trkpt lat="48.943972" lon="8.661900">
<ele>328.5</ele>
<speed>2.0</speed>
<course>137.4</course>
<desc>Speed 2.0 km/h Distance 4.77 km</desc>
<time>2010-02-21T11:04:34.50</time>
<name>3429</name>
</trkpt>
<trkpt lat="48.943963" lon="8.661912">
<ele>328.0</ele>
<speed>3.6</speed>
<course>166.2</course>
<desc>Speed 3.6 km/h Distance 4.77 km</desc>
<time>2010-02-21T11:04:35.50</time>
<name>3430</name>
</trkpt>
<trkpt lat="48.943955" lon="8.661915">
<ele>328.0</ele>
<speed>3.1</speed>
<course>173.7</course>
<desc>Speed 3.1 km/h Distance 4.77 km</desc>
<time>2010-02-21T11:04:36.50</time>
<name>3431</name>
</trkpt>
<trkpt lat="48.943943" lon="8.661917">
<ele>328.0</ele>
<speed>2.9</speed>
<course>175.6</course>
<desc>Speed 2.9 km/h Distance 4.77 km</desc>
<time>2010-02-21T11:04:37.50</time>
<name>3432</name>
</trkpt>
<trkpt lat="48.943933" lon="8.661917">
<ele>328.0</ele>
<speed>2.8</speed>
<course>132.4</course>
<desc>Speed 2.8 km/h Distance 4.77 km</desc>
<time>2010-02-21T11:04:38.50</time>
<name>3433</name>
</trkpt>
<trkpt lat="48.943923" lon="8.661933">
<ele>327.5</ele>
<speed>2.7</speed>
<course>130.3</course>
<desc>Speed 2.7 km/h Distance 4.77 km</desc>
<time>2010-02-21T11:04:39.49</time>
<name>3434</name>
</trkpt>
<trkpt lat="48.943915" lon="8.661948">
<ele>326.5</ele>
<speed>1.9</speed>
<course>138.6</course>
<desc>Speed 1.9 km/h Distance 4.77 km</desc>
<time>2010-02-21T11:04:40.49</time>
<name>3435</name>
</trkpt>
<trkpt lat="48.943910" lon="8.661955">
<ele>326.5</ele>
<speed>1.9</speed>
<course>146.8</course>
<desc>Speed 1.9 km/h Distance 4.78 km</desc>
<time>2010-02-21T11:04:41.49</time>
<name>3436</name>
</trkpt>
<trkpt lat="48.943902" lon="8.661963">
<ele>326.0</ele>
<speed>2.5</speed>
<course>146.3</course>
<desc>Speed 2.5 km/h Distance 4.78 km</desc>
<time>2010-02-21T11:04:42.49</time>
<name>3437</name>
</trkpt>
<trkpt lat="48.943898" lon="8.661967">
<ele>325.5</ele>
<speed>0.7</speed>
<course>134.1</course>
<desc>Speed 0.7 km/h Distance 4.78 km</desc>
<time>2010-02-21T11:04:43.49</time>
<name>3438</name>
</trkpt>
<trkpt lat="48.943887" lon="8.661985">
<ele>325.0</ele>
<speed>2.4</speed>
<course>126.1</course>
<desc>Speed 2.4 km/h Distance 4.78 km</desc>
<time>2010-02-21T11:04:44.49</time>
<name>3439</name>
</trkpt>
<trkpt lat="48.943885" lon="8.661988">
<ele>324.5</ele>
<speed>0.5</speed>
<course>150.2</course>
<desc>Speed 0.5 km/h Distance 4.78 km</desc>
<time>2010-02-21T11:04:45.49</time>
<name>3440</name>
</trkpt>
<trkpt lat="48.943872" lon="8.662000">
<ele>325.5</ele>
<speed>3.4</speed>
<course>157.9</course>
<desc>Speed 3.4 km/h Distance 4.78 km</desc>
<time>2010-02-21T11:04:46.49</time>
<name>3441</name>
</trkpt>
<trkpt lat="48.943858" lon="8.662008">
<ele>325.0</ele>
<speed>2.3</speed>
<course>150.6</course>
<desc>Speed 2.3 km/h Distance 4.78 km</desc>
<time>2010-02-21T11:04:47.49</time>
<name>3442</name>
</trkpt>
<trkpt lat="48.943847" lon="8.662018">
<ele>326.5</ele>
<speed>3.5</speed>
<course>136.8</course>
<desc>Speed 3.5 km/h Distance 4.78 km</desc>
<time>2010-02-21T11:04:48.49</time>
<name>3443</name>
</trkpt>
<trkpt lat="48.943835" lon="8.662035">
<ele>323.5</ele>
<speed>1.4</speed>
<course>146.7</course>
<desc>Speed 1.4 km/h Distance 4.79 km</desc>
<time>2010-02-21T11:04:49.49</time>
<name>3444</name>
</trkpt>
<trkpt lat="48.943818" lon="8.662052">
<ele>322.5</ele>
<speed>3.0</speed>
<course>132.2</course>
<desc>Speed 3.0 km/h Distance 4.79 km</desc>
<time>2010-02-21T11:04:50.49</time>
<name>3445</name>
</trkpt>
<trkpt lat="48.943813" lon="8.662060">
<ele>322.5</ele>
<speed>1.6</speed>
<course>138.1</course>
<desc>Speed 1.6 km/h Distance 4.79 km</desc>
<time>2010-02-21T11:04:51.49</time>
<name>3446</name>
</trkpt>
<trkpt lat="48.943808" lon="8.662067">
<ele>322.5</ele>
<speed>1.7</speed>
<course>146.8</course>
<desc>Speed 1.7 km/h Distance 4.79 km</desc>
<time>2010-02-21T11:04:52.49</time>
<name>3447</name>
</trkpt>
<trkpt lat="48.943802" lon="8.662073">
<ele>322.5</ele>
<speed>1.8</speed>
<course>127.0</course>
<desc>Speed 1.8 km/h Distance 4.79 km</desc>
<time>2010-02-21T11:04:53.49</time>
<name>3448</name>
</trkpt>
<trkpt lat="48.943798" lon="8.662080">
<ele>322.0</ele>
<speed>1.6</speed>
<course>152.1</course>
<desc>Speed 1.6 km/h Distance 4.79 km</desc>
<time>2010-02-21T11:04:54.49</time>
<name>3449</name>
</trkpt>
<trkpt lat="48.943790" lon="8.662087">
<ele>320.0</ele>
<speed>2.5</speed>
<course>138.8</course>
<desc>Speed 2.5 km/h Distance 4.79 km</desc>
<time>2010-02-21T11:04:55.48</time>
<name>3450</name>
</trkpt>
<trkpt lat="48.943775" lon="8.662107">
<ele>319.0</ele>
<speed>5.9</speed>
<course>127.3</course>
<desc>Speed 5.9 km/h Distance 4.79 km</desc>
<time>2010-02-21T11:04:56.49</time>
<name>3451</name>
</trkpt>
<trkpt lat="48.943760" lon="8.662137">
<ele>321.5</ele>
<speed>4.2</speed>
<course>180.0</course>
<desc>Speed 4.2 km/h Distance 4.80 km</desc>
<time>2010-02-21T11:04:57.49</time>
<name>3452</name>
</trkpt>
<trkpt lat="48.943755" lon="8.662137">
<ele>321.5</ele>
<speed>1.4</speed>
<course>154.4</course>
<desc>Speed 1.4 km/h Distance 4.80 km</desc>
<time>2010-02-21T11:04:58.49</time>
<name>3453</name>
</trkpt>
<trkpt lat="48.943748" lon="8.662142">
<ele>323.5</ele>
<speed>1.2</speed>
<course>167.4</course>
<desc>Speed 1.2 km/h Distance 4.80 km</desc>
<time>2010-02-21T11:04:59.48</time>
<name>3454</name>
</trkpt>
<trkpt lat="48.943743" lon="8.662143">
<ele>325.0</ele>
<speed>1.3</speed>
<course>172.6</course>
<desc>Speed 1.3 km/h Distance 4.80 km</desc>
<time>2010-02-21T11:05:00.48</time>
<name>3455</name>
</trkpt>
<trkpt lat="48.943737" lon="8.662145">
<ele>325.5</ele>
<speed>2.3</speed>
<course>172.3</course>
<desc>Speed 2.3 km/h Distance 4.80 km</desc>
<time>2010-02-21T11:05:01.48</time>
<name>3456</name>
</trkpt>
<trkpt lat="48.943728" lon="8.662147">
<ele>327.5</ele>
<speed>1.2</speed>
<course>158.5</course>
<desc>Speed 1.2 km/h Distance 4.80 km</desc>
<time>2010-02-21T11:05:02.48</time>
<name>3457</name>
</trkpt>
<trkpt lat="48.943712" lon="8.662157">
<ele>328.0</ele>
<speed>3.0</speed>
<course>153.0</course>
<desc>Speed 3.0 km/h Distance 4.80 km</desc>
<time>2010-02-21T11:05:03.48</time>
<name>3458</name>
</trkpt>
<trkpt lat="48.943697" lon="8.662168">
<ele>331.5</ele>
<speed>2.4</speed>
<course>171.9</course>
<desc>Speed 2.4 km/h Distance 4.80 km</desc>
<time>2010-02-21T11:05:04.48</time>
<name>3459</name>
</trkpt>
<trkpt lat="48.943673" lon="8.662173">
<ele>331.5</ele>
<speed>1.9</speed>
<course>194.4</course>
<desc>Speed 1.9 km/h Distance 4.81 km</desc>
<time>2010-02-21T11:05:05.48</time>
<name>3460</name>
</trkpt>
<trkpt lat="48.943660" lon="8.662168">
<ele>331.5</ele>
<speed>1.7</speed>
<course>167.4</course>
<desc>Speed 1.7 km/h Distance 4.81 km</desc>
<time>2010-02-21T11:05:06.48</time>
<name>3461</name>
</trkpt>
<trkpt lat="48.943650" lon="8.662172">
<ele>333.0</ele>
<speed>2.5</speed>
<course>96.2</course>
<desc>Speed 2.5 km/h Distance 4.81 km</desc>
<time>2010-02-21T11:05:07.48</time>
<name>3462</name>
</trkpt>
<trkpt lat="48.943648" lon="8.662195">
<ele>333.5</ele>
<speed>0.4</speed>
<course>90.0</course>
<desc>Speed 0.4 km/h Distance 4.81 km</desc>
<time>2010-02-21T11:05:08.48</time>
<name>3463</name>
</trkpt>
<trkpt lat="48.943648" lon="8.662197">
<ele>334.0</ele>
<speed>0.9</speed>
<course>180.0</course>
<desc>Speed 0.9 km/h Distance 4.81 km</desc>
<time>2010-02-21T11:05:09.49</time>
<name>3464</name>
</trkpt>
<trkpt lat="48.943633" lon="8.662197">
<ele>333.0</ele>
<speed>2.3</speed>
<course>163.4</course>
<desc>Speed 2.3 km/h Distance 4.81 km</desc>
<time>2010-02-21T11:05:10.48</time>
<name>3465</name>
</trkpt>
<trkpt lat="48.943618" lon="8.662203">
<ele>333.0</ele>
<speed>2.5</speed>
<course>139.8</course>
<desc>Speed 2.5 km/h Distance 4.81 km</desc>
<time>2010-02-21T11:05:11.48</time>
<name>3466</name>
</trkpt>
<trkpt lat="48.943607" lon="8.662218">
<ele>333.0</ele>
<speed>1.9</speed>
<course>123.7</course>
<desc>Speed 1.9 km/h Distance 4.82 km</desc>
<time>2010-02-21T11:05:12.48</time>
<name>3467</name>
</trkpt>
<trkpt lat="48.943595" lon="8.662245">
<ele>336.0</ele>
<speed>1.7</speed>
<course>146.8</course>
<desc>Speed 1.7 km/h Distance 4.82 km</desc>
<time>2010-02-21T11:05:13.48</time>
<name>3468</name>
</trkpt>
<trkpt lat="48.943585" lon="8.662255">
<ele>337.5</ele>
<speed>3.1</speed>
<course>165.1</course>
<desc>Speed 3.1 km/h Distance 4.82 km</desc>
<time>2010-02-21T11:05:14.47</time>
<name>3469</name>
</trkpt>
<trkpt lat="48.943577" lon="8.662258">
<ele>337.5</ele>
<speed>2.0</speed>
<course>167.4</course>
<desc>Speed 2.0 km/h Distance 4.82 km</desc>
<time>2010-02-21T11:05:15.48</time>
<name>3470</name>
</trkpt>
<trkpt lat="48.943567" lon="8.662262">
<ele>338.5</ele>
<speed>2.2</speed>
<course>186.6</course>
<desc>Speed 2.2 km/h Distance 4.82 km</desc>
<time>2010-02-21T11:05:16.47</time>
<name>3471</name>
</trkpt>
<trkpt lat="48.943547" lon="8.662258">
<ele>336.5</ele>
<speed>3.3</speed>
<course>152.6</course>
<desc>Speed 3.3 km/h Distance 4.82 km</desc>
<time>2010-02-21T11:05:17.47</time>
<name>3472</name>
</trkpt>
<trkpt lat="48.943515" lon="8.662283">
<ele>332.5</ele>
<speed>2.9</speed>
<course>169.7</course>
<desc>Speed 2.9 km/h Distance 4.83 km</desc>
<time>2010-02-21T11:05:19.47</time>
<name>3473</name>
</trkpt>
<trkpt lat="48.943508" lon="8.662285">
<ele>333.0</ele>
<speed>1.9</speed>
<course>198.8</course>
<desc>Speed 1.9 km/h Distance 4.83 km</desc>
<time>2010-02-21T11:05:20.47</time>
<name>3474</name>
</trkpt>
<trkpt lat="48.943502" lon="8.662282">
<ele>332.5</ele>
<speed>2.6</speed>
<course>150.6</course>
<desc>Speed 2.6 km/h Distance 4.83 km</desc>
<time>2010-02-21T11:05:21.47</time>
<name>3475</name>
</trkpt>
<trkpt lat="48.943490" lon="8.662292">
<ele>333.5</ele>
<speed>4.0</speed>
<course>178.8</course>
<desc>Speed 4.0 km/h Distance 4.83 km</desc>
<time>2010-02-21T11:05:22.47</time>
<name>3476</name>
</trkpt>
<trkpt lat="48.943483" lon="8.662292">
<ele>333.5</ele>
<speed>2.4</speed>
<course>180.0</course>
<desc>Speed 2.4 km/h Distance 4.83 km</desc>
<time>2010-02-21T11:05:23.47</time>
<name>3477</name>
</trkpt>
<trkpt lat="48.943475" lon="8.662292">
<ele>333.0</ele>
<speed>2.2</speed>
<course>129.8</course>
<desc>Speed 2.2 km/h Distance 4.83 km</desc>
<time>2010-02-21T11:05:24.47</time>
<name>3478</name>
</trkpt>
<trkpt lat="48.943437" lon="8.662362">
<ele>334.5</ele>
<speed>2.1</speed>
<course>126.3</course>
<desc>Speed 2.1 km/h Distance 4.84 km</desc>
<time>2010-02-21T11:05:26.47</time>
<name>3479</name>
</trkpt>
<trkpt lat="48.943348" lon="8.662545">
<ele>342.0</ele>
<speed>3.1</speed>
<course>105.9</course>
<desc>Speed 3.1 km/h Distance 4.86 km</desc>
<time>2010-02-21T11:05:29.47</time>
<name>3480</name>
</trkpt>
<trkpt lat="48.943343" lon="8.662572">
<ele>343.0</ele>
<speed>1.5</speed>
<course>121.9</course>
<desc>Speed 1.5 km/h Distance 4.86 km</desc>
<time>2010-02-21T11:05:30.49</time>
<name>3481</name>
</trkpt>
<trkpt lat="48.943310" lon="8.662653">
<ele>343.0</ele>
<speed>2.0</speed>
<course>143.3</course>
<desc>Speed 2.0 km/h Distance 4.87 km</desc>
<time>2010-02-21T11:05:32.46</time>
<name>3482</name>
</trkpt>
<trkpt lat="48.943285" lon="8.662682">
<ele>342.5</ele>
<speed>3.3</speed>
<course>195.9</course>
<desc>Speed 3.3 km/h Distance 4.87 km</desc>
<time>2010-02-21T11:05:34.49</time>
<name>3483</name>
</trkpt>
<trkpt lat="48.943277" lon="8.662678">
<ele>342.0</ele>
<speed>3.1</speed>
<course>108.1</course>
<desc>Speed 3.1 km/h Distance 4.87 km</desc>
<time>2010-02-21T11:05:35.49</time>
<name>3484</name>
</trkpt>
<trkpt lat="48.943272" lon="8.662702">
<ele>343.5</ele>
<speed>1.7</speed>
<course>133.1</course>
<desc>Speed 1.7 km/h Distance 4.87 km</desc>
<time>2010-02-21T11:05:36.46</time>
<name>3485</name>
</trkpt>
<trkpt lat="48.943258" lon="8.662723">
<ele>345.0</ele>
<speed>2.7</speed>
<course>132.8</course>
<desc>Speed 2.7 km/h Distance 4.87 km</desc>
<time>2010-02-21T11:05:37.46</time>
<name>3486</name>
</trkpt>
<trkpt lat="48.943235" lon="8.662762">
<ele>347.0</ele>
<speed>4.3</speed>
<course>133.1</course>
<desc>Speed 4.3 km/h Distance 4.88 km</desc>
<time>2010-02-21T11:05:39.48</time>
<name>3487</name>
</trkpt>
<trkpt lat="48.943222" lon="8.662783">
<ele>346.5</ele>
<speed>3.7</speed>
<course>141.9</course>
<desc>Speed 3.7 km/h Distance 4.88 km</desc>
<time>2010-02-21T11:05:40.46</time>
<name>3488</name>
</trkpt>
<trkpt lat="48.943213" lon="8.662793">
<ele>346.5</ele>
<speed>3.1</speed>
<course>127.3</course>
<desc>Speed 3.1 km/h Distance 4.88 km</desc>
<time>2010-02-21T11:05:41.46</time>
<name>3489</name>
</trkpt>
<trkpt lat="48.943205" lon="8.662810">
<ele>347.0</ele>
<speed>3.0</speed>
<course>153.6</course>
<desc>Speed 3.0 km/h Distance 4.88 km</desc>
<time>2010-02-21T11:05:42.46</time>
<name>3490</name>
</trkpt>
<trkpt lat="48.943198" lon="8.662815">
<ele>347.0</ele>
<speed>3.1</speed>
<course>167.4</course>
<desc>Speed 3.1 km/h Distance 4.88 km</desc>
<time>2010-02-21T11:05:44.46</time>
<name>3491</name>
</trkpt>
<trkpt lat="48.943193" lon="8.662817">
<ele>346.5</ele>
<speed>1.2</speed>
<course>138.1</course>
<desc>Speed 1.2 km/h Distance 4.88 km</desc>
<time>2010-02-21T11:05:45.46</time>
<name>3492</name>
</trkpt>
<trkpt lat="48.943188" lon="8.662823">
<ele>347.0</ele>
<speed>0.3</speed>
<course>201.5</course>
<desc>Speed 0.3 km/h Distance 4.88 km</desc>
<time>2010-02-21T11:05:46.46</time>
<name>3493</name>
</trkpt>
<trkpt lat="48.943180" lon="8.662818">
<ele>346.0</ele>
<speed>1.1</speed>
<course>187.4</course>
<desc>Speed 1.1 km/h Distance 4.89 km</desc>
<time>2010-02-21T11:05:47.46</time>
<name>3494</name>
</trkpt>
<trkpt lat="48.943173" lon="8.662817">
<ele>345.5</ele>
<speed>1.5</speed>
<course>76.8</course>
<desc>Speed 1.5 km/h Distance 4.89 km</desc>
<time>2010-02-21T11:05:48.46</time>
<name>3495</name>
</trkpt>
<trkpt lat="48.943177" lon="8.662838">
<ele>346.5</ele>
<speed>2.8</speed>
<course>146.8</course>
<desc>Speed 2.8 km/h Distance 4.89 km</desc>
<time>2010-02-21T11:05:49.46</time>
<name>3496</name>
</trkpt>
<trkpt lat="48.943170" lon="8.662845">
<ele>346.0</ele>
<speed>1.6</speed>
<course>156.2</course>
<desc>Speed 1.6 km/h Distance 4.89 km</desc>
<time>2010-02-21T11:05:50.46</time>
<name>3497</name>
</trkpt>
<trkpt lat="48.943160" lon="8.662852">
<ele>345.0</ele>
<speed>1.3</speed>
<course>122.9</course>
<desc>Speed 1.3 km/h Distance 4.89 km</desc>
<time>2010-02-21T11:05:51.46</time>
<name>3498</name>
</trkpt>
<trkpt lat="48.943155" lon="8.662863">
<ele>344.0</ele>
<speed>2.3</speed>
<course>146.7</course>
<desc>Speed 2.3 km/h Distance 4.89 km</desc>
<time>2010-02-21T11:05:52.45</time>
<name>3499</name>
</trkpt>
<trkpt lat="48.943127" lon="8.662892">
<ele>343.5</ele>
<speed>3.1</speed>
<course>99.4</course>
<desc>Speed 3.1 km/h Distance 4.90 km</desc>
<time>2010-02-21T11:05:54.45</time>
<name>3500</name>
</trkpt>
<trkpt lat="48.943117" lon="8.662983">
<ele>339.0</ele>
<speed>2.4</speed>
<course>133.7</course>
<desc>Speed 2.4 km/h Distance 4.90 km</desc>
<time>2010-02-21T11:05:56.45</time>
<name>3501</name>
</trkpt>
<trkpt lat="48.943080" lon="8.663042">
<ele>332.0</ele>
<speed>3.4</speed>
<course>90.0</course>
<desc>Speed 3.4 km/h Distance 4.91 km</desc>
<time>2010-02-21T11:05:58.45</time>
<name>3502</name>
</trkpt>
<trkpt lat="48.943080" lon="8.663060">
<ele>331.5</ele>
<speed>3.3</speed>
<course>83.3</course>
<desc>Speed 3.3 km/h Distance 4.91 km</desc>
<time>2010-02-21T11:05:59.45</time>
<name>3503</name>
</trkpt>
<trkpt lat="48.943082" lon="8.663082">
<ele>332.0</ele>
<speed>3.0</speed>
<course>95.2</course>
<desc>Speed 3.0 km/h Distance 4.91 km</desc>
<time>2010-02-21T11:06:00.45</time>
<name>3504</name>
</trkpt>
<trkpt lat="48.943077" lon="8.663165">
<ele>335.0</ele>
<speed>2.7</speed>
<course>75.0</course>
<desc>Speed 2.7 km/h Distance 4.92 km</desc>
<time>2010-02-21T11:06:02.45</time>
<name>3505</name>
</trkpt>
<trkpt lat="48.943082" lon="8.663193">
<ele>334.0</ele>
<speed>2.9</speed>
<course>90.0</course>
<desc>Speed 2.9 km/h Distance 4.92 km</desc>
<time>2010-02-21T11:06:03.44</time>
<name>3506</name>
</trkpt>
<trkpt lat="48.943082" lon="8.663205">
<ele>334.0</ele>
<speed>2.9</speed>
<course>66.0</course>
<desc>Speed 2.9 km/h Distance 4.92 km</desc>
<time>2010-02-21T11:06:04.44</time>
<name>3507</name>
</trkpt>
<trkpt lat="48.943102" lon="8.663273">
<ele>334.5</ele>
<speed>2.6</speed>
<course>65.5</course>
<desc>Speed 2.6 km/h Distance 4.93 km</desc>
<time>2010-02-21T11:06:06.44</time>
<name>3508</name>
</trkpt>
<trkpt lat="48.943107" lon="8.663290">
<ele>335.0</ele>
<speed>2.5</speed>
<course>39.4</course>
<desc>Speed 2.5 km/h Distance 4.93 km</desc>
<time>2010-02-21T11:06:07.44</time>
<name>3509</name>
</trkpt>
<trkpt lat="48.943113" lon="8.663298">
<ele>335.0</ele>
<speed>3.2</speed>
<course>116.9</course>
<desc>Speed 3.2 km/h Distance 4.93 km</desc>
<time>2010-02-21T11:06:08.45</time>
<name>3510</name>
</trkpt>
<trkpt lat="48.943108" lon="8.663313">
<ele>333.0</ele>
<speed>4.4</speed>
<course>159.2</course>
<desc>Speed 4.4 km/h Distance 4.93 km</desc>
<time>2010-02-21T11:06:09.45</time>
<name>3511</name>
</trkpt>
<trkpt lat="48.943100" lon="8.663318">
<ele>333.5</ele>
<speed>1.2</speed>
<course>90.0</course>
<desc>Speed 1.2 km/h Distance 4.93 km</desc>
<time>2010-02-21T11:06:10.45</time>
<name>3512</name>
</trkpt>
<trkpt lat="48.943100" lon="8.663328">
<ele>333.5</ele>
<speed>2.0</speed>
<course>74.5</course>
<desc>Speed 2.0 km/h Distance 4.93 km</desc>
<time>2010-02-21T11:06:11.44</time>
<name>3513</name>
</trkpt>
<trkpt lat="48.943103" lon="8.663347">
<ele>333.5</ele>
<speed>3.5</speed>
<course>71.3</course>
<desc>Speed 3.5 km/h Distance 4.93 km</desc>
<time>2010-02-21T11:06:12.45</time>
<name>3514</name>
</trkpt>
<trkpt lat="48.943107" lon="8.663362">
<ele>333.0</ele>
<speed>3.2</speed>
<course>90.0</course>
<desc>Speed 3.2 km/h Distance 4.93 km</desc>
<time>2010-02-21T11:06:13.44</time>
<name>3515</name>
</trkpt>
<trkpt lat="48.943107" lon="8.663375">
<ele>333.0</ele>
<speed>3.2</speed>
<course>90.0</course>
<desc>Speed 3.2 km/h Distance 4.93 km</desc>
<time>2010-02-21T11:06:14.44</time>
<name>3516</name>
</trkpt>
<trkpt lat="48.943107" lon="8.663388">
<ele>332.5</ele>
<speed>3.2</speed>
<course>65.5</course>
<desc>Speed 3.2 km/h Distance 4.94 km</desc>
<time>2010-02-21T11:06:15.44</time>
<name>3517</name>
</trkpt>
<trkpt lat="48.943112" lon="8.663405">
<ele>333.0</ele>
<speed>3.9</speed>
<course>79.2</course>
<desc>Speed 3.9 km/h Distance 4.94 km</desc>
<time>2010-02-21T11:06:16.44</time>
<name>3518</name>
</trkpt>
<trkpt lat="48.943113" lon="8.663418">
<ele>333.0</ele>
<speed>3.3</speed>
<course>66.5</course>
<desc>Speed 3.3 km/h Distance 4.94 km</desc>
<time>2010-02-21T11:06:17.44</time>
<name>3519</name>
</trkpt>
<trkpt lat="48.943117" lon="8.663430">
<ele>333.0</ele>
<speed>3.1</speed>
<course>82.8</course>
<desc>Speed 3.1 km/h Distance 4.94 km</desc>
<time>2010-02-21T11:06:18.44</time>
<name>3520</name>
</trkpt>
<trkpt lat="48.943118" lon="8.663450">
<ele>333.0</ele>
<speed>4.0</speed>
<course>20.9</course>
<desc>Speed 4.0 km/h Distance 4.94 km</desc>
<time>2010-02-21T11:06:19.44</time>
<name>3521</name>
</trkpt>
<trkpt lat="48.943130" lon="8.663457">
<ele>332.0</ele>
<speed>4.4</speed>
<course>104.2</course>
<desc>Speed 4.4 km/h Distance 4.94 km</desc>
<time>2010-02-21T11:06:20.44</time>
<name>3522</name>
</trkpt>
<trkpt lat="48.943127" lon="8.663477">
<ele>332.0</ele>
<speed>2.6</speed>
<course>132.6</course>
<desc>Speed 2.6 km/h Distance 4.94 km</desc>
<time>2010-02-21T11:06:21.44</time>
<name>3523</name>
</trkpt>
<trkpt lat="48.943122" lon="8.663485">
<ele>331.0</ele>
<speed>1.9</speed>
<course>104.2</course>
<desc>Speed 1.9 km/h Distance 4.94 km</desc>
<time>2010-02-21T11:06:22.44</time>
<name>3524</name>
</trkpt>
<trkpt lat="48.943120" lon="8.663495">
<ele>330.0</ele>
<speed>1.4</speed>
<course>83.3</course>
<desc>Speed 1.4 km/h Distance 4.94 km</desc>
<time>2010-02-21T11:06:23.44</time>
<name>3525</name>
</trkpt>
<trkpt lat="48.943122" lon="8.663517">
<ele>330.5</ele>
<speed>3.4</speed>
<course>63.0</course>
<desc>Speed 3.4 km/h Distance 4.95 km</desc>
<time>2010-02-21T11:06:24.44</time>
<name>3526</name>
</trkpt>
<trkpt lat="48.943125" lon="8.663527">
<ele>329.5</ele>
<speed>2.1</speed>
<course>41.4</course>
<desc>Speed 2.1 km/h Distance 4.95 km</desc>
<time>2010-02-21T11:06:25.43</time>
<name>3527</name>
</trkpt>
<trkpt lat="48.943130" lon="8.663533">
<ele>328.0</ele>
<speed>1.7</speed>
<course>79.3</course>
<desc>Speed 1.7 km/h Distance 4.95 km</desc>
<time>2010-02-21T11:06:26.44</time>
<name>3528</name>
</trkpt>
<trkpt lat="48.943132" lon="8.663547">
<ele>326.0</ele>
<speed>2.1</speed>
<course>38.4</course>
<desc>Speed 2.1 km/h Distance 4.95 km</desc>
<time>2010-02-21T11:06:27.43</time>
<name>3529</name>
</trkpt>
<trkpt lat="48.943140" lon="8.663557">
<ele>325.5</ele>
<speed>3.5</speed>
<course>77.8</course>
<desc>Speed 3.5 km/h Distance 4.95 km</desc>
<time>2010-02-21T11:06:28.44</time>
<name>3530</name>
</trkpt>
<trkpt lat="48.943142" lon="8.663568">
<ele>325.0</ele>
<speed>3.0</speed>
<course>90.0</course>
<desc>Speed 3.0 km/h Distance 4.95 km</desc>
<time>2010-02-21T11:06:29.43</time>
<name>3531</name>
</trkpt>
<trkpt lat="48.943142" lon="8.663588">
<ele>325.5</ele>
<speed>5.1</speed>
<course>82.1</course>
<desc>Speed 5.1 km/h Distance 4.95 km</desc>
<time>2010-02-21T11:06:30.43</time>
<name>3532</name>
</trkpt>
<trkpt lat="48.943143" lon="8.663607">
<ele>327.0</ele>
<speed>4.6</speed>
<course>90.0</course>
<desc>Speed 4.6 km/h Distance 4.95 km</desc>
<time>2010-02-21T11:06:31.43</time>
<name>3533</name>
</trkpt>
<trkpt lat="48.943143" lon="8.663620">
<ele>328.0</ele>
<speed>3.5</speed>
<course>63.0</course>
<desc>Speed 3.5 km/h Distance 4.95 km</desc>
<time>2010-02-21T11:06:32.43</time>
<name>3534</name>
</trkpt>
<trkpt lat="48.943147" lon="8.663630">
<ele>327.5</ele>
<speed>3.0</speed>
<course>79.3</course>
<desc>Speed 3.0 km/h Distance 4.96 km</desc>
<time>2010-02-21T11:06:33.43</time>
<name>3535</name>
</trkpt>
<trkpt lat="48.943148" lon="8.663643">
<ele>328.0</ele>
<speed>3.3</speed>
<course>44.5</course>
<desc>Speed 3.3 km/h Distance 4.96 km</desc>
<time>2010-02-21T11:06:34.43</time>
<name>3536</name>
</trkpt>
<trkpt lat="48.943155" lon="8.663653">
<ele>328.0</ele>
<speed>3.2</speed>
<course>63.0</course>
<desc>Speed 3.2 km/h Distance 4.96 km</desc>
<time>2010-02-21T11:06:35.43</time>
<name>3537</name>
</trkpt>
<trkpt lat="48.943158" lon="8.663663">
<ele>328.0</ele>
<speed>3.0</speed>
<course>23.8</course>
<desc>Speed 3.0 km/h Distance 4.96 km</desc>
<time>2010-02-21T11:06:36.43</time>
<name>3538</name>
</trkpt>
<trkpt lat="48.943168" lon="8.663670">
<ele>327.5</ele>
<speed>3.3</speed>
<course>58.7</course>
<desc>Speed 3.3 km/h Distance 4.96 km</desc>
<time>2010-02-21T11:06:37.43</time>
<name>3539</name>
</trkpt>
<trkpt lat="48.943175" lon="8.663687">
<ele>326.5</ele>
<speed>2.9</speed>
<course>57.1</course>
<desc>Speed 2.9 km/h Distance 4.96 km</desc>
<time>2010-02-21T11:06:38.43</time>
<name>3540</name>
</trkpt>
<trkpt lat="48.943180" lon="8.663698">
<ele>325.0</ele>
<speed>3.3</speed>
<course>57.1</course>
<desc>Speed 3.3 km/h Distance 4.96 km</desc>
<time>2010-02-21T11:06:39.42</time>
<name>3541</name>
</trkpt>
<trkpt lat="48.943185" lon="8.663710">
<ele>324.5</ele>
<speed>3.2</speed>
<course>71.9</course>
<desc>Speed 3.2 km/h Distance 4.96 km</desc>
<time>2010-02-21T11:06:40.43</time>
<name>3542</name>
</trkpt>
<trkpt lat="48.943190" lon="8.663733">
<ele>324.5</ele>
<speed>6.4</speed>
<course>74.5</course>
<desc>Speed 6.4 km/h Distance 4.96 km</desc>
<time>2010-02-21T11:06:41.42</time>
<name>3543</name>
</trkpt>
<trkpt lat="48.943193" lon="8.663752">
<ele>325.5</ele>
<speed>3.1</speed>
<course>66.4</course>
<desc>Speed 3.1 km/h Distance 4.97 km</desc>
<time>2010-02-21T11:06:42.42</time>
<name>3544</name>
</trkpt>
<trkpt lat="48.943197" lon="8.663763">
<ele>326.5</ele>
<speed>3.1</speed>
<course>44.0</course>
<desc>Speed 3.1 km/h Distance 4.97 km</desc>
<time>2010-02-21T11:06:43.43</time>
<name>3545</name>
</trkpt>
<trkpt lat="48.943203" lon="8.663773">
<ele>327.0</ele>
<speed>3.2</speed>
<course>38.1</course>
<desc>Speed 3.2 km/h Distance 4.97 km</desc>
<time>2010-02-21T11:06:44.43</time>
<name>3546</name>
</trkpt>
<trkpt lat="48.943212" lon="8.663783">
<ele>328.5</ele>
<speed>2.5</speed>
<course>39.4</course>
<desc>Speed 2.5 km/h Distance 4.97 km</desc>
<time>2010-02-21T11:06:45.43</time>
<name>3547</name>
</trkpt>
<trkpt lat="48.943218" lon="8.663792">
<ele>329.0</ele>
<speed>3.3</speed>
<course>79.3</course>
<desc>Speed 3.3 km/h Distance 4.97 km</desc>
<time>2010-02-21T11:06:46.43</time>
<name>3548</name>
</trkpt>
<trkpt lat="48.943220" lon="8.663805">
<ele>329.0</ele>
<speed>3.1</speed>
<course>75.9</course>
<desc>Speed 3.1 km/h Distance 4.97 km</desc>
<time>2010-02-21T11:06:47.42</time>
<name>3549</name>
</trkpt>
<trkpt lat="48.943222" lon="8.663815">
<ele>328.0</ele>
<speed>2.4</speed>
<course>106.7</course>
<desc>Speed 2.4 km/h Distance 4.97 km</desc>
<time>2010-02-21T11:06:48.42</time>
<name>3550</name>
</trkpt>
<trkpt lat="48.943220" lon="8.663823">
<ele>327.0</ele>
<speed>2.2</speed>
<course>75.9</course>
<desc>Speed 2.2 km/h Distance 4.97 km</desc>
<time>2010-02-21T11:06:49.43</time>
<name>3551</name>
</trkpt>
<trkpt lat="48.943222" lon="8.663833">
<ele>325.5</ele>
<speed>2.7</speed>
<course>90.0</course>
<desc>Speed 2.7 km/h Distance 4.97 km</desc>
<time>2010-02-21T11:06:50.42</time>
<name>3552</name>
</trkpt>
<trkpt lat="48.943222" lon="8.663842">
<ele>325.0</ele>
<speed>2.6</speed>
<course>115.4</course>
<desc>Speed 2.6 km/h Distance 4.97 km</desc>
<time>2010-02-21T11:06:51.41</time>
<name>3553</name>
</trkpt>
<trkpt lat="48.943213" lon="8.663868">
<ele>324.5</ele>
<speed>5.4</speed>
<course>119.7</course>
<desc>Speed 5.4 km/h Distance 4.98 km</desc>
<time>2010-02-21T11:06:52.43</time>
<name>3554</name>
</trkpt>
<trkpt lat="48.943208" lon="8.663882">
<ele>325.0</ele>
<speed>4.0</speed>
<course>106.9</course>
<desc>Speed 4.0 km/h Distance 4.98 km</desc>
<time>2010-02-21T11:06:53.42</time>
<name>3555</name>
</trkpt>
<trkpt lat="48.943205" lon="8.663898">
<ele>325.5</ele>
<speed>4.6</speed>
<course>141.9</course>
<desc>Speed 4.6 km/h Distance 4.98 km</desc>
<time>2010-02-21T11:06:54.41</time>
<name>3556</name>
</trkpt>
<trkpt lat="48.943197" lon="8.663908">
<ele>324.0</ele>
<speed>4.6</speed>
<course>141.9</course>
<desc>Speed 4.6 km/h Distance 4.98 km</desc>
<time>2010-02-21T11:06:55.41</time>
<name>3557</name>
</trkpt>
<trkpt lat="48.943188" lon="8.663918">
<ele>322.5</ele>
<speed>4.6</speed>
<course>110.7</course>
<desc>Speed 4.6 km/h Distance 4.98 km</desc>
<time>2010-02-21T11:06:56.41</time>
<name>3558</name>
</trkpt>
<trkpt lat="48.943185" lon="8.663932">
<ele>322.0</ele>
<speed>4.0</speed>
<course>18.4</course>
<desc>Speed 4.0 km/h Distance 4.98 km</desc>
<time>2010-02-21T11:06:57.42</time>
<name>3559</name>
</trkpt>
<trkpt lat="48.943198" lon="8.663938">
<ele>323.5</ele>
<speed>2.1</speed>
<course>40.9</course>
<desc>Speed 2.1 km/h Distance 4.98 km</desc>
<time>2010-02-21T11:06:58.41</time>
<name>3560</name>
</trkpt>
<trkpt lat="48.943203" lon="8.663945">
<ele>322.5</ele>
<speed>1.9</speed>
<course>104.4</course>
<desc>Speed 1.9 km/h Distance 4.98 km</desc>
<time>2010-02-21T11:06:59.41</time>
<name>3561</name>
</trkpt>
<trkpt lat="48.943202" lon="8.663955">
<ele>322.0</ele>
<speed>2.5</speed>
<course>67.9</course>
<desc>Speed 2.5 km/h Distance 4.98 km</desc>
<time>2010-02-21T11:07:00.42</time>
<name>3562</name>
</trkpt>
<trkpt lat="48.943208" lon="8.663980">
<ele>322.5</ele>
<speed>3.1</speed>
<course>72.9</course>
<desc>Speed 3.1 km/h Distance 4.99 km</desc>
<time>2010-02-21T11:07:01.42</time>
<name>3563</name>
</trkpt>
<trkpt lat="48.943210" lon="8.663988">
<ele>322.0</ele>
<speed>1.5</speed>
<course>90.0</course>
<desc>Speed 1.5 km/h Distance 4.99 km</desc>
<time>2010-02-21T11:07:02.42</time>
<name>3564</name>
</trkpt>
<trkpt lat="48.943210" lon="8.664000">
<ele>322.0</ele>
<speed>2.3</speed>
<course>90.0</course>
<desc>Speed 2.3 km/h Distance 4.99 km</desc>
<time>2010-02-21T11:07:03.42</time>
<name>3565</name>
</trkpt>
<trkpt lat="48.943210" lon="8.664012">
<ele>322.5</ele>
<speed>2.2</speed>
<course>66.5</course>
<desc>Speed 2.2 km/h Distance 4.99 km</desc>
<time>2010-02-21T11:07:04.42</time>
<name>3566</name>
</trkpt>
<trkpt lat="48.943213" lon="8.664023">
<ele>323.0</ele>
<speed>2.5</speed>
<course>56.7</course>
<desc>Speed 2.5 km/h Distance 4.99 km</desc>
<time>2010-02-21T11:07:05.42</time>
<name>3567</name>
</trkpt>
<trkpt lat="48.943218" lon="8.664035">
<ele>322.5</ele>
<speed>2.7</speed>
<course>55.3</course>
<desc>Speed 2.7 km/h Distance 4.99 km</desc>
<time>2010-02-21T11:07:06.42</time>
<name>3568</name>
</trkpt>
<trkpt lat="48.943227" lon="8.664053">
<ele>322.5</ele>
<speed>1.1</speed>
<course>46.4</course>
<desc>Speed 1.1 km/h Distance 4.99 km</desc>
<time>2010-02-21T11:07:07.42</time>
<name>3569</name>
</trkpt>
<trkpt lat="48.943235" lon="8.664067">
<ele>324.0</ele>
<speed>1.7</speed>
<course>69.2</course>
<desc>Speed 1.7 km/h Distance 4.99 km</desc>
<time>2010-02-21T11:07:08.42</time>
<name>3570</name>
</trkpt>
<trkpt lat="48.943242" lon="8.664093">
<ele>326.0</ele>
<speed>4.2</speed>
<course>87.5</course>
<desc>Speed 4.2 km/h Distance 5.00 km</desc>
<time>2010-02-21T11:07:09.42</time>
<name>3571</name>
</trkpt>
<trkpt lat="48.943245" lon="8.664208">
<ele>326.0</ele>
<speed>4.4</speed>
<course>83.8</course>
<desc>Speed 4.4 km/h Distance 5.00 km</desc>
<time>2010-02-21T11:07:11.42</time>
<name>3572</name>
</trkpt>
<trkpt lat="48.943247" lon="8.664232">
<ele>326.0</ele>
<speed>2.2</speed>
<course>90.0</course>
<desc>Speed 2.2 km/h Distance 5.01 km</desc>
<time>2010-02-21T11:07:12.42</time>
<name>3573</name>
</trkpt>
<trkpt lat="48.943247" lon="8.664310">
<ele>327.0</ele>
<speed>4.1</speed>
<course>94.8</course>
<desc>Speed 4.1 km/h Distance 5.01 km</desc>
<time>2010-02-21T11:07:14.41</time>
<name>3574</name>
</trkpt>
<trkpt lat="48.943242" lon="8.664400">
<ele>326.5</ele>
<speed>2.9</speed>
<course>90.0</course>
<desc>Speed 2.9 km/h Distance 5.02 km</desc>
<time>2010-02-21T11:07:16.40</time>
<name>3575</name>
</trkpt>
<trkpt lat="48.943242" lon="8.664430">
<ele>324.0</ele>
<speed>3.6</speed>
<course>112.5</course>
<desc>Speed 3.6 km/h Distance 5.02 km</desc>
<time>2010-02-21T11:07:17.41</time>
<name>3576</name>
</trkpt>
<trkpt lat="48.943237" lon="8.664448">
<ele>323.0</ele>
<speed>4.8</speed>
<course>73.1</course>
<desc>Speed 4.8 km/h Distance 5.02 km</desc>
<time>2010-02-21T11:07:18.40</time>
<name>3577</name>
</trkpt>
<trkpt lat="48.943240" lon="8.664465">
<ele>324.5</ele>
<speed>2.9</speed>
<course>83.3</course>
<desc>Speed 2.9 km/h Distance 5.02 km</desc>
<time>2010-02-21T11:07:19.41</time>
<name>3578</name>
</trkpt>
<trkpt lat="48.943242" lon="8.664487">
<ele>324.5</ele>
<speed>3.3</speed>
<course>113.5</course>
<desc>Speed 3.3 km/h Distance 5.02 km</desc>
<time>2010-02-21T11:07:20.42</time>
<name>3579</name>
</trkpt>
<trkpt lat="48.943238" lon="8.664498">
<ele>323.5</ele>
<speed>2.8</speed>
<course>119.0</course>
<desc>Speed 2.8 km/h Distance 5.03 km</desc>
<time>2010-02-21T11:07:21.41</time>
<name>3580</name>
</trkpt>
<trkpt lat="48.943232" lon="8.664517">
<ele>325.0</ele>
<speed>4.4</speed>
<course>127.4</course>
<desc>Speed 4.4 km/h Distance 5.03 km</desc>
<time>2010-02-21T11:07:22.40</time>
<name>3581</name>
</trkpt>
<trkpt lat="48.943227" lon="8.664527">
<ele>324.5</ele>
<speed>3.2</speed>
<course>116.9</course>
<desc>Speed 3.2 km/h Distance 5.03 km</desc>
<time>2010-02-21T11:07:23.40</time>
<name>3582</name>
</trkpt>
<trkpt lat="48.943222" lon="8.664542">
<ele>326.0</ele>
<speed>4.4</speed>
<course>133.5</course>
<desc>Speed 4.4 km/h Distance 5.03 km</desc>
<time>2010-02-21T11:07:24.40</time>
<name>3583</name>
</trkpt>
<trkpt lat="48.943213" lon="8.664555">
<ele>326.0</ele>
<speed>4.4</speed>
<course>146.8</course>
<desc>Speed 4.4 km/h Distance 5.03 km</desc>
<time>2010-02-21T11:07:25.41</time>
<name>3584</name>
</trkpt>
<trkpt lat="48.943205" lon="8.664563">
<ele>325.5</ele>
<speed>4.2</speed>
<course>132.2</course>
<desc>Speed 4.2 km/h Distance 5.03 km</desc>
<time>2010-02-21T11:07:26.40</time>
<name>3585</name>
</trkpt>
<trkpt lat="48.943200" lon="8.664572">
<ele>325.5</ele>
<speed>4.2</speed>
<course>153.6</course>
<desc>Speed 4.2 km/h Distance 5.03 km</desc>
<time>2010-02-21T11:07:27.41</time>
<name>3586</name>
</trkpt>
<trkpt lat="48.943193" lon="8.664577">
<ele>325.5</ele>
<speed>4.4</speed>
<course>138.1</course>
<desc>Speed 4.4 km/h Distance 5.03 km</desc>
<time>2010-02-21T11:07:28.41</time>
<name>3587</name>
</trkpt>
<trkpt lat="48.943188" lon="8.664583">
<ele>326.0</ele>
<speed>4.0</speed>
<course>100.8</course>
<desc>Speed 4.0 km/h Distance 5.03 km</desc>
<time>2010-02-21T11:07:29.41</time>
<name>3588</name>
</trkpt>
<trkpt lat="48.943185" lon="8.664610">
<ele>328.5</ele>
<speed>4.5</speed>
<course>132.2</course>
<desc>Speed 4.5 km/h Distance 5.04 km</desc>
<time>2010-02-21T11:07:30.41</time>
<name>3589</name>
</trkpt>
<trkpt lat="48.943180" lon="8.664618">
<ele>328.5</ele>
<speed>4.4</speed>
<course>153.6</course>
<desc>Speed 4.4 km/h Distance 5.04 km</desc>
<time>2010-02-21T11:07:31.41</time>
<name>3590</name>
</trkpt>
<trkpt lat="48.943173" lon="8.664623">
<ele>328.5</ele>
<speed>3.3</speed>
<course>152.1</course>
<desc>Speed 3.3 km/h Distance 5.04 km</desc>
<time>2010-02-21T11:07:32.41</time>
<name>3591</name>
</trkpt>
<trkpt lat="48.943165" lon="8.664630">
<ele>329.0</ele>
<speed>4.1</speed>
<course>152.1</course>
<desc>Speed 4.1 km/h Distance 5.04 km</desc>
<time>2010-02-21T11:07:33.41</time>
<name>3592</name>
</trkpt>
<trkpt lat="48.943157" lon="8.664637">
<ele>328.5</ele>
<speed>3.6</speed>
<course>152.1</course>
<desc>Speed 3.6 km/h Distance 5.04 km</desc>
<time>2010-02-21T11:07:34.41</time>
<name>3593</name>
</trkpt>
<trkpt lat="48.943148" lon="8.664643">
<ele>328.0</ele>
<speed>4.1</speed>
<course>130.9</course>
<desc>Speed 4.1 km/h Distance 5.04 km</desc>
<time>2010-02-21T11:07:35.40</time>
<name>3594</name>
</trkpt>
<trkpt lat="48.943142" lon="8.664655">
<ele>329.0</ele>
<speed>3.9</speed>
<course>135.5</course>
<desc>Speed 3.9 km/h Distance 5.04 km</desc>
<time>2010-02-21T11:07:36.41</time>
<name>3595</name>
</trkpt>
<trkpt lat="48.943135" lon="8.664665">
<ele>329.0</ele>
<speed>4.0</speed>
<course>146.8</course>
<desc>Speed 4.0 km/h Distance 5.04 km</desc>
<time>2010-02-21T11:07:37.40</time>
<name>3596</name>
</trkpt>
<trkpt lat="48.943127" lon="8.664673">
<ele>330.0</ele>
<speed>4.2</speed>
<course>141.6</course>
<desc>Speed 4.2 km/h Distance 5.04 km</desc>
<time>2010-02-21T11:07:38.40</time>
<name>3597</name>
</trkpt>
<trkpt lat="48.943118" lon="8.664683">
<ele>330.5</ele>
<speed>4.4</speed>
<course>161.2</course>
<desc>Speed 4.4 km/h Distance 5.05 km</desc>
<time>2010-02-21T11:07:39.40</time>
<name>3598</name>
</trkpt>
<trkpt lat="48.943112" lon="8.664687">
<ele>331.0</ele>
<speed>3.0</speed>
<course>180.0</course>
<desc>Speed 3.0 km/h Distance 5.05 km</desc>
<time>2010-02-21T11:07:40.40</time>
<name>3599</name>
</trkpt>
<trkpt lat="48.943107" lon="8.664687">
<ele>330.0</ele>
<speed>2.1</speed>
<course>161.2</course>
<desc>Speed 2.1 km/h Distance 5.05 km</desc>
<time>2010-02-21T11:07:41.40</time>
<name>3600</name>
</trkpt>
<trkpt lat="48.943100" lon="8.664690">
<ele>330.5</ele>
<speed>3.2</speed>
<course>158.5</course>
<desc>Speed 3.2 km/h Distance 5.05 km</desc>
<time>2010-02-21T11:07:42.40</time>
<name>3601</name>
</trkpt>
<trkpt lat="48.943092" lon="8.664695">
<ele>331.0</ele>
<speed>3.4</speed>
<course>140.6</course>
<desc>Speed 3.4 km/h Distance 5.05 km</desc>
<time>2010-02-21T11:07:43.40</time>
<name>3602</name>
</trkpt>
<trkpt lat="48.943085" lon="8.664703">
<ele>332.0</ele>
<speed>3.4</speed>
<course>109.1</course>
<desc>Speed 3.4 km/h Distance 5.05 km</desc>
<time>2010-02-21T11:07:44.40</time>
<name>3603</name>
</trkpt>
<trkpt lat="48.943077" lon="8.664740">
<ele>335.0</ele>
<speed>3.0</speed>
<course>119.7</course>
<desc>Speed 3.0 km/h Distance 5.05 km</desc>
<time>2010-02-21T11:07:45.40</time>
<name>3604</name>
</trkpt>
<trkpt lat="48.943057" lon="8.664793">
<ele>338.0</ele>
<speed>3.1</speed>
<course>140.6</course>
<desc>Speed 3.1 km/h Distance 5.06 km</desc>
<time>2010-02-21T11:07:47.40</time>
<name>3605</name>
</trkpt>
<trkpt lat="48.943050" lon="8.664802">
<ele>338.5</ele>
<speed>3.2</speed>
<course>159.4</course>
<desc>Speed 3.2 km/h Distance 5.06 km</desc>
<time>2010-02-21T11:07:48.40</time>
<name>3606</name>
</trkpt>
<trkpt lat="48.943038" lon="8.664808">
<ele>338.5</ele>
<speed>4.4</speed>
<course>156.2</course>
<desc>Speed 4.4 km/h Distance 5.06 km</desc>
<time>2010-02-21T11:07:49.40</time>
<name>3607</name>
</trkpt>
<trkpt lat="48.943028" lon="8.664815">
<ele>339.0</ele>
<speed>4.2</speed>
<course>150.6</course>
<desc>Speed 4.2 km/h Distance 5.06 km</desc>
<time>2010-02-21T11:07:50.40</time>
<name>3608</name>
</trkpt>
<trkpt lat="48.943017" lon="8.664825">
<ele>339.0</ele>
<speed>4.2</speed>
<course>161.8</course>
<desc>Speed 4.2 km/h Distance 5.06 km</desc>
<time>2010-02-21T11:07:51.40</time>
<name>3609</name>
</trkpt>
<trkpt lat="48.943007" lon="8.664830">
<ele>339.0</ele>
<speed>4.5</speed>
<course>158.5</course>
<desc>Speed 4.5 km/h Distance 5.06 km</desc>
<time>2010-02-21T11:07:52.39</time>
<name>3610</name>
</trkpt>
<trkpt lat="48.942998" lon="8.664835">
<ele>338.5</ele>
<speed>3.4</speed>
<course>146.8</course>
<desc>Speed 3.4 km/h Distance 5.06 km</desc>
<time>2010-02-21T11:07:53.39</time>
<name>3611</name>
</trkpt>
<trkpt lat="48.942990" lon="8.664843">
<ele>338.5</ele>
<speed>3.7</speed>
<course>146.8</course>
<desc>Speed 3.7 km/h Distance 5.07 km</desc>
<time>2010-02-21T11:07:54.39</time>
<name>3612</name>
</trkpt>
<trkpt lat="48.942982" lon="8.664852">
<ele>338.5</ele>
<speed>3.7</speed>
<course>172.6</course>
<desc>Speed 3.7 km/h Distance 5.07 km</desc>
<time>2010-02-21T11:07:55.40</time>
<name>3613</name>
</trkpt>
<trkpt lat="48.942975" lon="8.664853">
<ele>338.0</ele>
<speed>2.9</speed>
<course>161.8</course>
<desc>Speed 2.9 km/h Distance 5.07 km</desc>
<time>2010-02-21T11:07:56.39</time>
<name>3614</name>
</trkpt>
<trkpt lat="48.942965" lon="8.664858">
<ele>338.5</ele>
<speed>4.4</speed>
<course>166.5</course>
<desc>Speed 4.4 km/h Distance 5.07 km</desc>
<time>2010-02-21T11:07:57.39</time>
<name>3615</name>
</trkpt>
<trkpt lat="48.942952" lon="8.664863">
<ele>338.5</ele>
<speed>5.4</speed>
<course>161.8</course>
<desc>Speed 5.4 km/h Distance 5.07 km</desc>
<time>2010-02-21T11:07:58.38</time>
<name>3616</name>
</trkpt>
<trkpt lat="48.942942" lon="8.664868">
<ele>339.0</ele>
<speed>4.6</speed>
<course>165.1</course>
<desc>Speed 4.6 km/h Distance 5.07 km</desc>
<time>2010-02-21T11:07:59.38</time>
<name>3617</name>
</trkpt>
<trkpt lat="48.942930" lon="8.664873">
<ele>339.5</ele>
<speed>4.5</speed>
<course>168.8</course>
<desc>Speed 4.5 km/h Distance 5.07 km</desc>
<time>2010-02-21T11:08:00.40</time>
<name>3618</name>
</trkpt>
<trkpt lat="48.942918" lon="8.664877">
<ele>340.0</ele>
<speed>4.5</speed>
<course>128.9</course>
<desc>Speed 4.5 km/h Distance 5.07 km</desc>
<time>2010-02-21T11:08:01.39</time>
<name>3619</name>
</trkpt>
<trkpt lat="48.942903" lon="8.664905">
<ele>339.0</ele>
<speed>4.1</speed>
<course>167.4</course>
<desc>Speed 4.1 km/h Distance 5.08 km</desc>
<time>2010-02-21T11:08:02.39</time>
<name>3620</name>
</trkpt>
<trkpt lat="48.942893" lon="8.664908">
<ele>339.0</ele>
<speed>3.9</speed>
<course>162.4</course>
<desc>Speed 3.9 km/h Distance 5.08 km</desc>
<time>2010-02-21T11:08:03.38</time>
<name>3621</name>
</trkpt>
<trkpt lat="48.942883" lon="8.664913">
<ele>340.0</ele>
<speed>3.7</speed>
<course>146.8</course>
<desc>Speed 3.7 km/h Distance 5.08 km</desc>
<time>2010-02-21T11:08:04.38</time>
<name>3622</name>
</trkpt>
<trkpt lat="48.942873" lon="8.664923">
<ele>339.5</ele>
<speed>3.4</speed>
<course>130.2</course>
<desc>Speed 3.4 km/h Distance 5.08 km</desc>
<time>2010-02-21T11:08:05.39</time>
<name>3623</name>
</trkpt>
<trkpt lat="48.942865" lon="8.664938">
<ele>340.0</ele>
<speed>3.9</speed>
<course>142.5</course>
<desc>Speed 3.9 km/h Distance 5.08 km</desc>
<time>2010-02-21T11:08:06.39</time>
<name>3624</name>
</trkpt>
<trkpt lat="48.942855" lon="8.664950">
<ele>340.5</ele>
<speed>3.5</speed>
<course>150.6</course>
<desc>Speed 3.5 km/h Distance 5.08 km</desc>
<time>2010-02-21T11:08:07.39</time>
<name>3625</name>
</trkpt>
<trkpt lat="48.942843" lon="8.664960">
<ele>340.5</ele>
<speed>3.7</speed>
<course>146.6</course>
<desc>Speed 3.7 km/h Distance 5.08 km</desc>
<time>2010-02-21T11:08:08.39</time>
<name>3626</name>
</trkpt>
<trkpt lat="48.942832" lon="8.664972">
<ele>341.5</ele>
<speed>4.3</speed>
<course>146.8</course>
<desc>Speed 4.3 km/h Distance 5.09 km</desc>
<time>2010-02-21T11:08:09.39</time>
<name>3627</name>
</trkpt>
<trkpt lat="48.942822" lon="8.664982">
<ele>342.0</ele>
<speed>3.3</speed>
<course>146.8</course>
<desc>Speed 3.3 km/h Distance 5.09 km</desc>
<time>2010-02-21T11:08:10.40</time>
<name>3628</name>
</trkpt>
<trkpt lat="48.942812" lon="8.664992">
<ele>342.5</ele>
<speed>3.2</speed>
<course>130.2</course>
<desc>Speed 3.2 km/h Distance 5.09 km</desc>
<time>2010-02-21T11:08:11.39</time>
<name>3629</name>
</trkpt>
<trkpt lat="48.942803" lon="8.665007">
<ele>344.0</ele>
<speed>2.7</speed>
<course>138.8</course>
<desc>Speed 2.7 km/h Distance 5.09 km</desc>
<time>2010-02-21T11:08:12.39</time>
<name>3630</name>
</trkpt>
<trkpt lat="48.942793" lon="8.665020">
<ele>344.5</ele>
<speed>4.1</speed>
<course>129.8</course>
<desc>Speed 4.1 km/h Distance 5.09 km</desc>
<time>2010-02-21T11:08:13.38</time>
<name>3631</name>
</trkpt>
<trkpt lat="48.942783" lon="8.665038">
<ele>345.0</ele>
<speed>4.7</speed>
<course>120.4</course>
<desc>Speed 4.7 km/h Distance 5.09 km</desc>
<time>2010-02-21T11:08:14.38</time>
<name>3632</name>
</trkpt>
<trkpt lat="48.942775" lon="8.665060">
<ele>346.5</ele>
<speed>4.5</speed>
<course>127.3</course>
<desc>Speed 4.5 km/h Distance 5.10 km</desc>
<time>2010-02-21T11:08:15.38</time>
<name>3633</name>
</trkpt>
<trkpt lat="48.942767" lon="8.665077">
<ele>347.0</ele>
<speed>4.1</speed>
<course>137.4</course>
<desc>Speed 4.1 km/h Distance 5.10 km</desc>
<time>2010-02-21T11:08:16.38</time>
<name>3634</name>
</trkpt>
<trkpt lat="48.942758" lon="8.665088">
<ele>347.0</ele>
<speed>3.4</speed>
<course>138.6</course>
<desc>Speed 3.4 km/h Distance 5.10 km</desc>
<time>2010-02-21T11:08:17.38</time>
<name>3635</name>
</trkpt>
<trkpt lat="48.942748" lon="8.665102">
<ele>346.0</ele>
<speed>3.2</speed>
<course>138.1</course>
<desc>Speed 3.2 km/h Distance 5.10 km</desc>
<time>2010-02-21T11:08:18.38</time>
<name>3636</name>
</trkpt>
<trkpt lat="48.942743" lon="8.665108">
<ele>346.0</ele>
<speed>2.2</speed>
<course>127.2</course>
<desc>Speed 2.2 km/h Distance 5.10 km</desc>
<time>2010-02-21T11:08:19.38</time>
<name>3637</name>
</trkpt>
<trkpt lat="48.942738" lon="8.665118">
<ele>345.0</ele>
<speed>2.8</speed>
<course>145.9</course>
<desc>Speed 2.8 km/h Distance 5.10 km</desc>
<time>2010-02-21T11:08:20.37</time>
<name>3638</name>
</trkpt>
<trkpt lat="48.942733" lon="8.665123">
<ele>344.0</ele>
<speed>2.1</speed>
<course>133.4</course>
<desc>Speed 2.1 km/h Distance 5.10 km</desc>
<time>2010-02-21T11:08:21.38</time>
<name>3639</name>
</trkpt>
<trkpt lat="48.942725" lon="8.665137">
<ele>345.5</ele>
<speed>3.7</speed>
<course>132.6</course>
<desc>Speed 3.7 km/h Distance 5.10 km</desc>
<time>2010-02-21T11:08:22.38</time>
<name>3640</name>
</trkpt>
<trkpt lat="48.942720" lon="8.665145">
<ele>345.0</ele>
<speed>2.8</speed>
<course>153.6</course>
<desc>Speed 2.8 km/h Distance 5.10 km</desc>
<time>2010-02-21T11:08:23.38</time>
<name>3641</name>
</trkpt>
<trkpt lat="48.942713" lon="8.665150">
<ele>344.5</ele>
<speed>1.8</speed>
<course>121.4</course>
<desc>Speed 1.8 km/h Distance 5.10 km</desc>
<time>2010-02-21T11:08:24.38</time>
<name>3642</name>
</trkpt>
<trkpt lat="48.942710" lon="8.665158">
<ele>344.5</ele>
<speed>2.4</speed>
<course>116.9</course>
<desc>Speed 2.4 km/h Distance 5.11 km</desc>
<time>2010-02-21T11:08:25.38</time>
<name>3643</name>
</trkpt>
<trkpt lat="48.942703" lon="8.665178">
<ele>344.5</ele>
<speed>3.5</speed>
<course>143.0</course>
<desc>Speed 3.5 km/h Distance 5.11 km</desc>
<time>2010-02-21T11:08:26.38</time>
<name>3644</name>
</trkpt>
<trkpt lat="48.942692" lon="8.665192">
<ele>344.5</ele>
<speed>3.9</speed>
<course>140.6</course>
<desc>Speed 3.9 km/h Distance 5.11 km</desc>
<time>2010-02-21T11:08:27.38</time>
<name>3645</name>
</trkpt>
<trkpt lat="48.942685" lon="8.665200">
<ele>344.5</ele>
<speed>2.7</speed>
<course>141.9</course>
<desc>Speed 2.7 km/h Distance 5.11 km</desc>
<time>2010-02-21T11:08:28.38</time>
<name>3646</name>
</trkpt>
<trkpt lat="48.942677" lon="8.665210">
<ele>343.0</ele>
<speed>2.2</speed>
<course>127.3</course>
<desc>Speed 2.2 km/h Distance 5.11 km</desc>
<time>2010-02-21T11:08:29.37</time>
<name>3647</name>
</trkpt>
<trkpt lat="48.942670" lon="8.665223">
<ele>343.5</ele>
<speed>2.2</speed>
<course>140.6</course>
<desc>Speed 2.2 km/h Distance 5.11 km</desc>
<time>2010-02-21T11:08:30.37</time>
<name>3648</name>
</trkpt>
<trkpt lat="48.942663" lon="8.665232">
<ele>342.0</ele>
<speed>2.4</speed>
<course>131.6</course>
<desc>Speed 2.4 km/h Distance 5.11 km</desc>
<time>2010-02-21T11:08:31.38</time>
<name>3649</name>
</trkpt>
<trkpt lat="48.942640" lon="8.665272">
<ele>342.5</ele>
<speed>3.2</speed>
<course>133.4</course>
<desc>Speed 3.2 km/h Distance 5.12 km</desc>
<time>2010-02-21T11:08:33.37</time>
<name>3650</name>
</trkpt>
<trkpt lat="48.942632" lon="8.665285">
<ele>343.5</ele>
<speed>3.3</speed>
<course>138.6</course>
<desc>Speed 3.3 km/h Distance 5.12 km</desc>
<time>2010-02-21T11:08:34.37</time>
<name>3651</name>
</trkpt>
<trkpt lat="48.942622" lon="8.665298">
<ele>344.5</ele>
<speed>2.7</speed>
<course>141.6</course>
<desc>Speed 2.7 km/h Distance 5.12 km</desc>
<time>2010-02-21T11:08:35.37</time>
<name>3652</name>
</trkpt>
<trkpt lat="48.942613" lon="8.665308">
<ele>344.0</ele>
<speed>2.7</speed>
<course>130.9</course>
<desc>Speed 2.7 km/h Distance 5.12 km</desc>
<time>2010-02-21T11:08:36.37</time>
<name>3653</name>
</trkpt>
<trkpt lat="48.942607" lon="8.665320">
<ele>343.5</ele>
<speed>3.2</speed>
<course>119.0</course>
<desc>Speed 3.2 km/h Distance 5.12 km</desc>
<time>2010-02-21T11:08:37.37</time>
<name>3654</name>
</trkpt>
<trkpt lat="48.942600" lon="8.665338">
<ele>344.0</ele>
<speed>3.7</speed>
<course>79.2</course>
<desc>Speed 3.7 km/h Distance 5.12 km</desc>
<time>2010-02-21T11:08:38.36</time>
<name>3655</name>
</trkpt>
<trkpt lat="48.942602" lon="8.665352">
<ele>344.5</ele>
<speed>2.4</speed>
<course>99.8</course>
<desc>Speed 2.4 km/h Distance 5.12 km</desc>
<time>2010-02-21T11:08:39.37</time>
<name>3656</name>
</trkpt>
<trkpt lat="48.942593" lon="8.665425">
<ele>341.5</ele>
<speed>2.5</speed>
<course>81.3</course>
<desc>Speed 2.5 km/h Distance 5.13 km</desc>
<time>2010-02-21T11:08:41.37</time>
<name>3657</name>
</trkpt>
<trkpt lat="48.942595" lon="8.665442">
<ele>341.0</ele>
<speed>1.8</speed>
<course>63.1</course>
<desc>Speed 1.8 km/h Distance 5.13 km</desc>
<time>2010-02-21T11:08:42.37</time>
<name>3658</name>
</trkpt>
<trkpt lat="48.942600" lon="8.665457">
<ele>341.5</ele>
<speed>2.5</speed>
<course>90.0</course>
<desc>Speed 2.5 km/h Distance 5.13 km</desc>
<time>2010-02-21T11:08:43.37</time>
<name>3659</name>
</trkpt>
<trkpt lat="48.942600" lon="8.665463">
<ele>341.0</ele>
<speed>1.4</speed>
<course>18.8</course>
<desc>Speed 1.4 km/h Distance 5.13 km</desc>
<time>2010-02-21T11:08:44.37</time>
<name>3660</name>
</trkpt>
<trkpt lat="48.942607" lon="8.665467">
<ele>341.5</ele>
<speed>2.7</speed>
<course>58.6</course>
<desc>Speed 2.7 km/h Distance 5.13 km</desc>
<time>2010-02-21T11:08:45.37</time>
<name>3661</name>
</trkpt>
<trkpt lat="48.942610" lon="8.665475">
<ele>341.0</ele>
<speed>1.9</speed>
<course>62.6</course>
<desc>Speed 1.9 km/h Distance 5.13 km</desc>
<time>2010-02-21T11:08:46.36</time>
<name>3662</name>
</trkpt>
<trkpt lat="48.942612" lon="8.665480">
<ele>340.0</ele>
<speed>1.3</speed>
<course>66.5</course>
<desc>Speed 1.3 km/h Distance 5.13 km</desc>
<time>2010-02-21T11:08:47.36</time>
<name>3663</name>
</trkpt>
<trkpt lat="48.942615" lon="8.665492">
<ele>340.5</ele>
<speed>2.8</speed>
<course>93.5</course>
<desc>Speed 2.8 km/h Distance 5.14 km</desc>
<time>2010-02-21T11:08:48.36</time>
<name>3664</name>
</trkpt>
<trkpt lat="48.942612" lon="8.665575">
<ele>339.0</ele>
<speed>4.5</speed>
<course>101.2</course>
<desc>Speed 4.5 km/h Distance 5.14 km</desc>
<time>2010-02-21T11:08:50.36</time>
<name>3665</name>
</trkpt>
<trkpt lat="48.942607" lon="8.665613">
<ele>338.5</ele>
<speed>3.7</speed>
<course>97.9</course>
<desc>Speed 3.7 km/h Distance 5.14 km</desc>
<time>2010-02-21T11:08:51.36</time>
<name>3666</name>
</trkpt>
<trkpt lat="48.942605" lon="8.665632">
<ele>337.0</ele>
<speed>2.7</speed>
<course>82.8</course>
<desc>Speed 2.7 km/h Distance 5.15 km</desc>
<time>2010-02-21T11:08:52.37</time>
<name>3667</name>
</trkpt>
<trkpt lat="48.942607" lon="8.665652">
<ele>336.5</ele>
<speed>3.6</speed>
<course>90.0</course>
<desc>Speed 3.6 km/h Distance 5.15 km</desc>
<time>2010-02-21T11:08:53.36</time>
<name>3668</name>
</trkpt>
<trkpt lat="48.942607" lon="8.665667">
<ele>335.5</ele>
<speed>1.3</speed>
<course>41.2</course>
<desc>Speed 1.3 km/h Distance 5.15 km</desc>
<time>2010-02-21T11:08:54.36</time>
<name>3669</name>
</trkpt>
<trkpt lat="48.942617" lon="8.665680">
<ele>335.5</ele>
<speed>5.0</speed>
<course>71.4</course>
<desc>Speed 5.0 km/h Distance 5.15 km</desc>
<time>2010-02-21T11:08:55.39</time>
<name>3670</name>
</trkpt>
<trkpt lat="48.942620" lon="8.665695">
<ele>334.5</ele>
<speed>3.7</speed>
<course>40.4</course>
<desc>Speed 3.7 km/h Distance 5.15 km</desc>
<time>2010-02-21T11:08:56.36</time>
<name>3671</name>
</trkpt>
<trkpt lat="48.942632" lon="8.665710">
<ele>334.5</ele>
<speed>5.2</speed>
<course>22.6</course>
<desc>Speed 5.2 km/h Distance 5.15 km</desc>
<time>2010-02-21T11:08:57.36</time>
<name>3672</name>
</trkpt>
<trkpt lat="48.942645" lon="8.665718">
<ele>335.0</ele>
<speed>4.5</speed>
<course>22.1</course>
<desc>Speed 4.5 km/h Distance 5.15 km</desc>
<time>2010-02-21T11:08:58.36</time>
<name>3673</name>
</trkpt>
<trkpt lat="48.942653" lon="8.665723">
<ele>335.0</ele>
<speed>2.7</speed>
<course>28.9</course>
<desc>Speed 2.7 km/h Distance 5.16 km</desc>
<time>2010-02-21T11:08:59.36</time>
<name>3674</name>
</trkpt>
<trkpt lat="48.942663" lon="8.665732">
<ele>334.5</ele>
<speed>3.9</speed>
<course>25.2</course>
<desc>Speed 3.9 km/h Distance 5.16 km</desc>
<time>2010-02-21T11:09:00.39</time>
<name>3675</name>
</trkpt>
<trkpt lat="48.942675" lon="8.665740">
<ele>335.0</ele>
<speed>4.3</speed>
<course>13.5</course>
<desc>Speed 4.3 km/h Distance 5.16 km</desc>
<time>2010-02-21T11:09:01.36</time>
<name>3676</name>
</trkpt>
<trkpt lat="48.942688" lon="8.665745">
<ele>335.0</ele>
<speed>4.2</speed>
<course>44.5</course>
<desc>Speed 4.2 km/h Distance 5.16 km</desc>
<time>2010-02-21T11:09:02.36</time>
<name>3677</name>
</trkpt>
<trkpt lat="48.942698" lon="8.665760">
<ele>335.0</ele>
<speed>3.7</speed>
<course>90.0</course>
<desc>Speed 3.7 km/h Distance 5.16 km</desc>
<time>2010-02-21T11:09:03.36</time>
<name>3678</name>
</trkpt>
<trkpt lat="48.942698" lon="8.665780">
<ele>333.5</ele>
<speed>3.2</speed>
<course>96.2</course>
<desc>Speed 3.2 km/h Distance 5.16 km</desc>
<time>2010-02-21T11:09:04.36</time>
<name>3679</name>
</trkpt>
<trkpt lat="48.942697" lon="8.665803">
<ele>332.5</ele>
<speed>4.9</speed>
<course>110.9</course>
<desc>Speed 4.9 km/h Distance 5.16 km</desc>
<time>2010-02-21T11:09:05.36</time>
<name>3680</name>
</trkpt>
<trkpt lat="48.942693" lon="8.665817">
<ele>330.5</ele>
<speed>3.0</speed>
<course>90.0</course>
<desc>Speed 3.0 km/h Distance 5.17 km</desc>
<time>2010-02-21T11:09:06.36</time>
<name>3681</name>
</trkpt>
<trkpt lat="48.942693" lon="8.665832">
<ele>329.0</ele>
<speed>3.3</speed>
<course>90.0</course>
<desc>Speed 3.3 km/h Distance 5.17 km</desc>
<time>2010-02-21T11:09:07.35</time>
<name>3682</name>
</trkpt>
<trkpt lat="48.942693" lon="8.665848">
<ele>328.5</ele>
<speed>3.7</speed>
<course>62.6</course>
<desc>Speed 3.7 km/h Distance 5.17 km</desc>
<time>2010-02-21T11:09:08.35</time>
<name>3683</name>
</trkpt>
<trkpt lat="48.942695" lon="8.665853">
<ele>327.0</ele>
<speed>1.8</speed>
<course>32.3</course>
<desc>Speed 1.8 km/h Distance 5.17 km</desc>
<time>2010-02-21T11:09:09.35</time>
<name>3684</name>
</trkpt>
<trkpt lat="48.942700" lon="8.665858">
<ele>326.0</ele>
<speed>1.7</speed>
<course>18.8</course>
<desc>Speed 1.7 km/h Distance 5.17 km</desc>
<time>2010-02-21T11:09:10.36</time>
<name>3685</name>
</trkpt>
<trkpt lat="48.942703" lon="8.665860">
<ele>324.5</ele>
<speed>0.7</speed>
<course>347.4</course>
<desc>Speed 0.7 km/h Distance 5.17 km</desc>
<time>2010-02-21T11:09:11.35</time>
<name>3686</name>
</trkpt>
<trkpt lat="48.942707" lon="8.665858">
<ele>324.5</ele>
<speed>0.7</speed>
<course>326.8</course>
<desc>Speed 0.7 km/h Distance 5.17 km</desc>
<time>2010-02-21T11:09:12.35</time>
<name>3687</name>
</trkpt>
<trkpt lat="48.942712" lon="8.665853">
<ele>324.5</ele>
<speed>2.0</speed>
<course>347.4</course>
<desc>Speed 2.0 km/h Distance 5.17 km</desc>
<time>2010-02-21T11:09:13.35</time>
<name>3688</name>
</trkpt>
<trkpt lat="48.942717" lon="8.665852">
<ele>324.5</ele>
<speed>1.9</speed>
<course>351.0</course>
<desc>Speed 1.9 km/h Distance 5.17 km</desc>
<time>2010-02-21T11:09:14.35</time>
<name>3689</name>
</trkpt>
<trkpt lat="48.942730" lon="8.665848">
<ele>326.0</ele>
<speed>3.1</speed>
<course>347.4</course>
<desc>Speed 3.1 km/h Distance 5.17 km</desc>
<time>2010-02-21T11:09:15.35</time>
<name>3690</name>
</trkpt>
<trkpt lat="48.942735" lon="8.665847">
<ele>326.5</ele>
<speed>1.7</speed>
<course>352.6</course>
<desc>Speed 1.7 km/h Distance 5.17 km</desc>
<time>2010-02-21T11:09:16.35</time>
<name>3691</name>
</trkpt>
<trkpt lat="48.942742" lon="8.665845">
<ele>326.5</ele>
<speed>2.3</speed>
<course>33.7</course>
<desc>Speed 2.3 km/h Distance 5.17 km</desc>
<time>2010-02-21T11:09:17.35</time>
<name>3692</name>
</trkpt>
<trkpt lat="48.942748" lon="8.665852">
<ele>326.5</ele>
<speed>3.1</speed>
<course>71.4</course>
<desc>Speed 3.1 km/h Distance 5.17 km</desc>
<time>2010-02-21T11:09:18.35</time>
<name>3693</name>
</trkpt>
<trkpt lat="48.942752" lon="8.665867">
<ele>325.5</ele>
<speed>4.1</speed>
<course>355.3</course>
<desc>Speed 4.1 km/h Distance 5.18 km</desc>
<time>2010-02-21T11:09:19.35</time>
<name>3694</name>
</trkpt>
<trkpt lat="48.942763" lon="8.665865">
<ele>325.5</ele>
<speed>4.4</speed>
<course>347.4</course>
<desc>Speed 4.4 km/h Distance 5.18 km</desc>
<time>2010-02-21T11:09:20.35</time>
<name>3695</name>
</trkpt>
<trkpt lat="48.942768" lon="8.665863">
<ele>324.0</ele>
<speed>1.7</speed>
<course>44.5</course>
<desc>Speed 1.7 km/h Distance 5.18 km</desc>
<time>2010-02-21T11:09:21.35</time>
<name>3696</name>
</trkpt>
<trkpt lat="48.942782" lon="8.665883">
<ele>325.5</ele>
<speed>6.2</speed>
<course>344.0</course>
<desc>Speed 6.2 km/h Distance 5.18 km</desc>
<time>2010-02-21T11:09:22.35</time>
<name>3697</name>
</trkpt>
<trkpt lat="48.942797" lon="8.665877">
<ele>326.5</ele>
<speed>3.0</speed>
<course>330.8</course>
<desc>Speed 3.0 km/h Distance 5.18 km</desc>
<time>2010-02-21T11:09:23.35</time>
<name>3698</name>
</trkpt>
<trkpt lat="48.942808" lon="8.665867">
<ele>326.0</ele>
<speed>3.9</speed>
<course>73.1</course>
<desc>Speed 3.9 km/h Distance 5.18 km</desc>
<time>2010-02-21T11:09:24.35</time>
<name>3699</name>
</trkpt>
<trkpt lat="48.942812" lon="8.665883">
<ele>325.5</ele>
<speed>4.8</speed>
<course>12.6</course>
<desc>Speed 4.8 km/h Distance 5.18 km</desc>
<time>2010-02-21T11:09:25.37</time>
<name>3700</name>
</trkpt>
<trkpt lat="48.942817" lon="8.665885">
<ele>323.5</ele>
<speed>1.7</speed>
<course>71.9</course>
<desc>Speed 1.7 km/h Distance 5.18 km</desc>
<time>2010-02-21T11:09:26.35</time>
<name>3701</name>
</trkpt>
<trkpt lat="48.942822" lon="8.665908">
<ele>323.5</ele>
<speed>6.9</speed>
<course>33.2</course>
<desc>Speed 6.9 km/h Distance 5.19 km</desc>
<time>2010-02-21T11:09:27.34</time>
<name>3702</name>
</trkpt>
<trkpt lat="48.942830" lon="8.665917">
<ele>324.0</ele>
<speed>4.2</speed>
<course>52.7</course>
<desc>Speed 4.2 km/h Distance 5.19 km</desc>
<time>2010-02-21T11:09:28.35</time>
<name>3703</name>
</trkpt>
<trkpt lat="48.942838" lon="8.665933">
<ele>324.0</ele>
<speed>5.2</speed>
<course>44.5</course>
<desc>Speed 5.2 km/h Distance 5.19 km</desc>
<time>2010-02-21T11:09:29.35</time>
<name>3704</name>
</trkpt>
<trkpt lat="48.942848" lon="8.665948">
<ele>324.0</ele>
<speed>5.4</speed>
<course>66.5</course>
<desc>Speed 5.4 km/h Distance 5.19 km</desc>
<time>2010-02-21T11:09:30.35</time>
<name>3705</name>
</trkpt>
<trkpt lat="48.942852" lon="8.665960">
<ele>322.0</ele>
<speed>3.3</speed>
<course>80.4</course>
<desc>Speed 3.3 km/h Distance 5.19 km</desc>
<time>2010-02-21T11:09:31.37</time>
<name>3706</name>
</trkpt>
<trkpt lat="48.942853" lon="8.665975">
<ele>320.0</ele>
<speed>3.4</speed>
<course>90.0</course>
<desc>Speed 3.4 km/h Distance 5.19 km</desc>
<time>2010-02-21T11:09:32.34</time>
<name>3707</name>
</trkpt>
<trkpt lat="48.942853" lon="8.665995">
<ele>319.0</ele>
<speed>5.0</speed>
<course>96.7</course>
<desc>Speed 5.0 km/h Distance 5.19 km</desc>
<time>2010-02-21T11:09:33.34</time>
<name>3708</name>
</trkpt>
<trkpt lat="48.942852" lon="8.666017">
<ele>318.0</ele>
<speed>5.1</speed>
<course>90.0</course>
<desc>Speed 5.1 km/h Distance 5.20 km</desc>
<time>2010-02-21T11:09:34.34</time>
<name>3709</name>
</trkpt>
<trkpt lat="48.942852" lon="8.666040">
<ele>317.5</ele>
<speed>4.8</speed>
<course>52.8</course>
<desc>Speed 4.8 km/h Distance 5.20 km</desc>
<time>2010-02-21T11:09:35.34</time>
<name>3710</name>
</trkpt>
<trkpt lat="48.942857" lon="8.666050">
<ele>316.0</ele>
<speed>2.8</speed>
<course>96.7</course>
<desc>Speed 2.8 km/h Distance 5.20 km</desc>
<time>2010-02-21T11:09:36.34</time>
<name>3711</name>
</trkpt>
<trkpt lat="48.942855" lon="8.666072">
<ele>317.0</ele>
<speed>6.2</speed>
<course>81.3</course>
<desc>Speed 6.2 km/h Distance 5.20 km</desc>
<time>2010-02-21T11:09:37.34</time>
<name>3712</name>
</trkpt>
<trkpt lat="48.942857" lon="8.666088">
<ele>315.5</ele>
<speed>3.7</speed>
<course>90.0</course>
<desc>Speed 3.7 km/h Distance 5.20 km</desc>
<time>2010-02-21T11:09:38.33</time>
<name>3713</name>
</trkpt>
<trkpt lat="48.942857" lon="8.666117">
<ele>317.0</ele>
<speed>6.8</speed>
<course>96.7</course>
<desc>Speed 6.8 km/h Distance 5.20 km</desc>
<time>2010-02-21T11:09:39.33</time>
<name>3714</name>
</trkpt>
<trkpt lat="48.942855" lon="8.666138">
<ele>317.0</ele>
<speed>5.4</speed>
<course>58.6</course>
<desc>Speed 5.4 km/h Distance 5.21 km</desc>
<time>2010-02-21T11:09:40.34</time>
<name>3715</name>
</trkpt>
<trkpt lat="48.942858" lon="8.666147">
<ele>315.0</ele>
<speed>2.4</speed>
<course>33.2</course>
<desc>Speed 2.4 km/h Distance 5.21 km</desc>
<time>2010-02-21T11:09:41.33</time>
<name>3716</name>
</trkpt>
<trkpt lat="48.942868" lon="8.666157">
<ele>314.0</ele>
<speed>4.1</speed>
<course>29.8</course>
<desc>Speed 4.1 km/h Distance 5.21 km</desc>
<time>2010-02-21T11:09:42.33</time>
<name>3717</name>
</trkpt>
<trkpt lat="48.942882" lon="8.666168">
<ele>315.0</ele>
<speed>3.7</speed>
<course>7.4</course>
<desc>Speed 3.7 km/h Distance 5.21 km</desc>
<time>2010-02-21T11:09:43.34</time>
<name>3718</name>
</trkpt>
<trkpt lat="48.942907" lon="8.666173">
<ele>318.0</ele>
<speed>2.8</speed>
<course>29.4</course>
<desc>Speed 2.8 km/h Distance 5.21 km</desc>
<time>2010-02-21T11:09:44.34</time>
<name>3719</name>
</trkpt>
<trkpt lat="48.942918" lon="8.666183">
<ele>319.0</ele>
<speed>3.1</speed>
<course>11.2</course>
<desc>Speed 3.1 km/h Distance 5.21 km</desc>
<time>2010-02-21T11:09:45.37</time>
<name>3720</name>
</trkpt>
<trkpt lat="48.942930" lon="8.666187">
<ele>318.0</ele>
<speed>2.0</speed>
<course>33.2</course>
<desc>Speed 2.0 km/h Distance 5.21 km</desc>
<time>2010-02-21T11:09:46.34</time>
<name>3721</name>
</trkpt>
<trkpt lat="48.942940" lon="8.666197">
<ele>319.5</ele>
<speed>4.6</speed>
<course>18.2</course>
<desc>Speed 4.6 km/h Distance 5.22 km</desc>
<time>2010-02-21T11:09:47.34</time>
<name>3722</name>
</trkpt>
<trkpt lat="48.942950" lon="8.666202">
<ele>318.5</ele>
<speed>4.3</speed>
<course>348.8</course>
<desc>Speed 4.3 km/h Distance 5.22 km</desc>
<time>2010-02-21T11:09:48.37</time>
<name>3723</name>
</trkpt>
<trkpt lat="48.942962" lon="8.666198">
<ele>319.0</ele>
<speed>2.6</speed>
<course>12.6</course>
<desc>Speed 2.6 km/h Distance 5.22 km</desc>
<time>2010-02-21T11:09:49.34</time>
<name>3724</name>
</trkpt>
<trkpt lat="48.942963" lon="8.666198">
<ele>319.5</ele>
<speed>1.3</speed>
<course>12.6</course>
<desc>Speed 1.3 km/h Distance 5.22 km</desc>
<time>2010-02-21T11:09:50.34</time>
<name>3725</name>
</trkpt>
<trkpt lat="48.942968" lon="8.666200">
<ele>319.0</ele>
<speed>1.6</speed>
<course>69.1</course>
<desc>Speed 1.6 km/h Distance 5.22 km</desc>
<time>2010-02-21T11:09:51.34</time>
<name>3726</name>
</trkpt>
<trkpt lat="48.942970" lon="8.666207">
<ele>318.5</ele>
<speed>2.0</speed>
<course>0.0</course>
<desc>Speed 2.0 km/h Distance 5.22 km</desc>
<time>2010-02-21T11:09:52.75</time>
<name>3727</name>
</trkpt>
<trkpt lat="48.942977" lon="8.666207">
<ele>319.5</ele>
<speed>1.9</speed>
<course>312.9</course>
<desc>Speed 1.9 km/h Distance 5.22 km</desc>
<time>2010-02-21T11:09:53.33</time>
<name>3728</name>
</trkpt>
<trkpt lat="48.942982" lon="8.666198">
<ele>319.5</ele>
<speed>0.3</speed>
<course>297.4</course>
<desc>Speed 0.3 km/h Distance 5.22 km</desc>
<time>2010-02-21T11:09:54.33</time>
<name>3729</name>
</trkpt>
<trkpt lat="48.942983" lon="8.666193">
<ele>319.5</ele>
<speed>0.1</speed>
<course>323.1</course>
<desc>Speed 0.1 km/h Distance 5.22 km</desc>
<time>2010-02-21T11:09:55.83</time>
<name>3730</name>
</trkpt>
<trkpt lat="48.942995" lon="8.666180">
<ele>320.0</ele>
<speed>0.1</speed>
<course>341.2</course>
<desc>Speed 0.1 km/h Distance 5.22 km</desc>
<time>2010-02-21T11:09:57.45</time>
<name>3731</name>
</trkpt>
<trkpt lat="48.943002" lon="8.666177">
<ele>320.5</ele>
<speed>0.5</speed>
<course>333.6</course>
<desc>Speed 0.5 km/h Distance 5.22 km</desc>
<time>2010-02-21T11:09:58.33</time>
<name>3732</name>
</trkpt>
<trkpt lat="48.943008" lon="8.666172">
<ele>320.0</ele>
<speed>0.8</speed>
<course>69.1</course>
<desc>Speed 0.8 km/h Distance 5.22 km</desc>
<time>2010-02-21T11:09:59.33</time>
<name>3733</name>
</trkpt>
<trkpt lat="48.943010" lon="8.666178">
<ele>320.5</ele>
<speed>1.8</speed>
<course>69.1</course>
<desc>Speed 1.8 km/h Distance 5.23 km</desc>
<time>2010-02-21T11:10:00.33</time>
<name>3734</name>
</trkpt>
<trkpt lat="48.943010" lon="8.666178">
<ele>320.5</ele>
<speed>1.2</speed>
<course>330.8</course>
<desc>Speed 1.2 km/h Distance 5.23 km</desc>
<time>2010-02-21T11:10:01.35</time>
<name>3735</name>
</trkpt>
<trkpt lat="48.943012" lon="8.666177">
<ele>320.5</ele>
<speed>0.1</speed>
<course>352.6</course>
<desc>Speed 0.1 km/h Distance 5.23 km</desc>
<time>2010-02-21T11:10:02.55</time>
<name>3736</name>
</trkpt>
<trkpt lat="48.943018" lon="8.666175">
<ele>320.0</ele>
<speed>1.1</speed>
<course>12.6</course>
<desc>Speed 1.1 km/h Distance 5.23 km</desc>
<time>2010-02-21T11:10:03.32</time>
<name>3737</name>
</trkpt>
<trkpt lat="48.943020" lon="8.666175">
<ele>320.5</ele>
<speed>0.7</speed>
<course>334.6</course>
<desc>Speed 0.7 km/h Distance 5.23 km</desc>
<time>2010-02-21T11:10:04.32</time>
<name>3738</name>
</trkpt>
<trkpt lat="48.943025" lon="8.666172">
<ele>321.0</ele>
<speed>0.3</speed>
<course>270.0</course>
<desc>Speed 0.3 km/h Distance 5.23 km</desc>
<time>2010-02-21T11:10:05.32</time>
<name>3739</name>
</trkpt>
<trkpt lat="48.943025" lon="8.666158">
<ele>321.5</ele>
<speed>2.1</speed>
<course>326.3</course>
<desc>Speed 2.1 km/h Distance 5.23 km</desc>
<time>2010-02-21T11:10:06.36</time>
<name>3740</name>
</trkpt>
<trkpt lat="48.943028" lon="8.666155">
<ele>321.5</ele>
<speed>0.2</speed>
<course>12.6</course>
<desc>Speed 0.2 km/h Distance 5.23 km</desc>
<time>2010-02-21T11:10:07.32</time>
<name>3741</name>
</trkpt>
<trkpt lat="48.943032" lon="8.666155">
<ele>322.0</ele>
<speed>0.3</speed>
<course>12.6</course>
<desc>Speed 0.3 km/h Distance 5.23 km</desc>
<time>2010-02-21T11:10:08.32</time>
<name>3742</name>
</trkpt>
<trkpt lat="48.943033" lon="8.666155">
<ele>322.0</ele>
<speed>0.4</speed>
<course>224.5</course>
<desc>Speed 0.4 km/h Distance 5.23 km</desc>
<time>2010-02-21T11:10:09.32</time>
<name>3743</name>
</trkpt>
<trkpt lat="48.943027" lon="8.666145">
<ele>322.0</ele>
<speed>4.6</speed>
<course>51.9</course>
<desc>Speed 4.6 km/h Distance 5.23 km</desc>
<time>2010-02-21T11:10:10.39</time>
<name>3744</name>
</trkpt>
<trkpt lat="48.943028" lon="8.666148">
<ele>322.5</ele>
<speed>1.3</speed>
<course>21.0</course>
<desc>Speed 1.3 km/h Distance 5.23 km</desc>
<time>2010-02-21T11:10:11.31</time>
<name>3745</name>
</trkpt>
<trkpt lat="48.943157" lon="8.666223">
<ele>324.5</ele>
<speed>0.6</speed>
<course>58.9</course>
<desc>Speed 0.6 km/h Distance 5.25 km</desc>
<time>2010-02-21T11:10:14.40</time>
<name>3746</name>
</trkpt>
<trkpt lat="48.943160" lon="8.666232">
<ele>325.5</ele>
<speed>1.4</speed>
<course>58.9</course>
<desc>Speed 1.4 km/h Distance 5.25 km</desc>
<time>2010-02-21T11:10:15.30</time>
<name>3747</name>
</trkpt>
</trkseg>
</trk>
</gpx>
